<?xml version='1.0' encoding='UTF-8'?><gpx version="1.1" creator="JPX - https://github.com/jenetics/jpx" xmlns="http://www.topografix.com/GPX/1/1"><trk><trkseg><trkpt lat="44.81853815311138" lon="14.900307839219233"><ele>339.83333333333337</ele><time>2026-05-01T09:40:32Z</time></trkpt><trkpt lat="44.818482725009396" lon="14.900363750871819"><ele>341.6666666666667</ele><time>2026-05-01T09:40:35Z</time></trkpt><trkpt lat="44.81842294864224" lon="14.900451933998506"><ele>343.5</ele><time>2026-05-01T09:40:38Z</time></trkpt><trkpt lat="44.81839504576753" lon="14.900540104314866"><ele>345.3333333333333</ele><time>2026-05-01T09:40:42Z</time></trkpt><trkpt lat="44.8183366428424" lon="14.900620616164627"><ele>347.16666666666663</ele><time>2026-05-01T09:41:01Z</time></trkpt><trkpt lat="44.81824292070021" lon="14.900608232118842"><ele>349.0</ele><time>2026-05-01T09:41:03Z</time></trkpt><trkpt lat="44.818164559018406" lon="14.900576425393718"><ele>349.0</ele><time>2026-05-01T09:41:04Z</time></trkpt><trkpt lat="44.81805891731122" lon="14.900534130741688"><ele>349.0</ele><time>2026-05-01T09:41:05Z</time></trkpt><trkpt lat="44.81793427531547" lon="14.900508367393693"><ele>349.0</ele><time>2026-05-01T09:41:06Z</time></trkpt><trkpt lat="44.81778718325861" lon="14.900483149697354"><ele>349.0</ele><time>2026-05-01T09:41:07Z</time></trkpt><trkpt lat="44.81761946234964" lon="14.900467640439615"><ele>349.0</ele><time>2026-05-01T09:41:08Z</time></trkpt><trkpt lat="44.81743726631682" lon="14.90044386559001"><ele>349.0</ele><time>2026-05-01T09:41:09Z</time></trkpt><trkpt lat="44.81724322229769" lon="14.900410847491917"><ele>349.0</ele><time>2026-05-01T09:41:10Z</time></trkpt><trkpt lat="44.81704554581635" lon="14.900372595523338"><ele>349.0</ele><time>2026-05-01T09:41:11Z</time></trkpt><trkpt lat="44.81684327936736" lon="14.900320041404846"><ele>349.0</ele><time>2026-05-01T09:41:12Z</time></trkpt><trkpt lat="44.81664350311832" lon="14.9002123209221"><ele>349.0</ele><time>2026-05-01T09:41:13Z</time></trkpt><trkpt lat="44.81645395828619" lon="14.90006747039035"><ele>346.66666666666663</ele><time>2026-05-01T09:41:14Z</time></trkpt><trkpt lat="44.81627143116875" lon="14.899909410195548"><ele>344.3333333333333</ele><time>2026-05-01T09:41:15Z</time></trkpt><trkpt lat="44.816113038820156" lon="14.899703278076727"><ele>342.0</ele><time>2026-05-01T09:41:16Z</time></trkpt><trkpt lat="44.815955474913956" lon="14.899499027730625"><ele>342.0</ele><time>2026-05-01T09:41:17Z</time></trkpt><trkpt lat="44.81580055733674" lon="14.899300386161341"><ele>342.0</ele><time>2026-05-01T09:41:18Z</time></trkpt><trkpt lat="44.81564485153661" lon="14.899104368670544"><ele>342.0</ele><time>2026-05-01T09:41:19Z</time></trkpt><trkpt lat="44.81547912560316" lon="14.898932942830958"><ele>340.0</ele><time>2026-05-01T09:41:20Z</time></trkpt><trkpt lat="44.81529252930877" lon="14.898797169631493"><ele>338.0</ele><time>2026-05-01T09:41:21Z</time></trkpt><trkpt lat="44.81509790401285" lon="14.89870994949235"><ele>336.0</ele><time>2026-05-01T09:41:22Z</time></trkpt><trkpt lat="44.81490364393169" lon="14.898692640837137"><ele>336.0</ele><time>2026-05-01T09:41:23Z</time></trkpt><trkpt lat="44.81470446297121" lon="14.89871614976483"><ele>336.0</ele><time>2026-05-01T09:41:24Z</time></trkpt><trkpt lat="44.81450258831287" lon="14.898802225666373"><ele>336.0</ele><time>2026-05-01T09:41:25Z</time></trkpt><trkpt lat="44.81430725442342" lon="14.898928106769258"><ele>336.0</ele><time>2026-05-01T09:41:26Z</time></trkpt><trkpt lat="44.814118835271216" lon="14.899096297448272"><ele>336.0</ele><time>2026-05-01T09:41:27Z</time></trkpt><trkpt lat="44.81393951373041" lon="14.899284749162167"><ele>336.0</ele><time>2026-05-01T09:41:28Z</time></trkpt><trkpt lat="44.813756451160295" lon="14.899471474084162"><ele>336.0</ele><time>2026-05-01T09:41:29Z</time></trkpt><trkpt lat="44.8135704385732" lon="14.899649701380003"><ele>336.0</ele><time>2026-05-01T09:41:30Z</time></trkpt><trkpt lat="44.81338023220367" lon="14.899828591942706"><ele>334.6666666666667</ele><time>2026-05-01T09:41:31Z</time></trkpt><trkpt lat="44.81319722158809" lon="14.900004418117257"><ele>333.33333333333337</ele><time>2026-05-01T09:41:32Z</time></trkpt><trkpt lat="44.81301579163729" lon="14.900171602919409"><ele>332.0</ele><time>2026-05-01T09:41:33Z</time></trkpt><trkpt lat="44.81285231546468" lon="14.90032368371906"><ele>332.0</ele><time>2026-05-01T09:41:34Z</time></trkpt><trkpt lat="44.81270298841735" lon="14.900460761299376"><ele>332.0</ele><time>2026-05-01T09:41:35Z</time></trkpt><trkpt lat="44.81255917339843" lon="14.900587776003567"><ele>332.0</ele><time>2026-05-01T09:41:36Z</time></trkpt><trkpt lat="44.81241285230351" lon="14.900704984459269"><ele>328.33333333333337</ele><time>2026-05-01T09:41:37Z</time></trkpt><trkpt lat="44.81225510667064" lon="14.900795596633609"><ele>324.6666666666667</ele><time>2026-05-01T09:41:38Z</time></trkpt><trkpt lat="44.81209550452427" lon="14.900835014704692"><ele>321.0</ele><time>2026-05-01T09:41:39Z</time></trkpt><trkpt lat="44.811939110596406" lon="14.900844049100312"><ele>320.6666666666667</ele><time>2026-05-01T09:41:40Z</time></trkpt><trkpt lat="44.811785496926774" lon="14.900818916909751"><ele>320.33333333333337</ele><time>2026-05-01T09:41:41Z</time></trkpt><trkpt lat="44.81163893286531" lon="14.90077070847047"><ele>320.0</ele><time>2026-05-01T09:41:42Z</time></trkpt><trkpt lat="44.81149846195119" lon="14.90069716873134"><ele>320.0</ele><time>2026-05-01T09:41:43Z</time></trkpt><trkpt lat="44.81136325725391" lon="14.900599510262202"><ele>320.0</ele><time>2026-05-01T09:41:44Z</time></trkpt><trkpt lat="44.811232273815136" lon="14.90046987425159"><ele>320.0</ele><time>2026-05-01T09:41:45Z</time></trkpt><trkpt lat="44.81110546472398" lon="14.900317923934669"><ele>320.0</ele><time>2026-05-01T09:41:46Z</time></trkpt><trkpt lat="44.81096799017849" lon="14.900149283892173"><ele>320.0</ele><time>2026-05-01T09:41:47Z</time></trkpt><trkpt lat="44.810819679366425" lon="14.899966679581983"><ele>320.0</ele><time>2026-05-01T09:41:48Z</time></trkpt><trkpt lat="44.810669623125534" lon="14.899771508388351"><ele>320.0</ele><time>2026-05-01T09:41:49Z</time></trkpt><trkpt lat="44.810517248212136" lon="14.899569696006328"><ele>320.0</ele><time>2026-05-01T09:41:50Z</time></trkpt><trkpt lat="44.81036394672682" lon="14.899374349901759"><ele>320.0</ele><time>2026-05-01T09:41:51Z</time></trkpt><trkpt lat="44.81021042244408" lon="14.899182860610816"><ele>322.33333333333337</ele><time>2026-05-01T09:41:52Z</time></trkpt><trkpt lat="44.81005882419745" lon="14.898997049342517"><ele>324.6666666666667</ele><time>2026-05-01T09:41:53Z</time></trkpt><trkpt lat="44.809908012575356" lon="14.898812631480531"><ele>327.0</ele><time>2026-05-01T09:41:54Z</time></trkpt><trkpt lat="44.80976187687104" lon="14.898631250088037"><ele>327.0</ele><time>2026-05-01T09:41:55Z</time></trkpt><trkpt lat="44.80961564408741" lon="14.89844875358309"><ele>327.0</ele><time>2026-05-01T09:41:56Z</time></trkpt><trkpt lat="44.80945804468977" lon="14.89826433581803"><ele>327.0</ele><time>2026-05-01T09:41:57Z</time></trkpt><trkpt lat="44.80928905926898" lon="14.89810943040838"><ele>324.6666666666667</ele><time>2026-05-01T09:41:58Z</time></trkpt><trkpt lat="44.80910954165984" lon="14.898014636801987"><ele>322.33333333333337</ele><time>2026-05-01T09:41:59Z</time></trkpt><trkpt lat="44.808932421903826" lon="14.897942659286079"><ele>320.0</ele><time>2026-05-01T09:42:00Z</time></trkpt><trkpt lat="44.8087731346724" lon="14.897857805177509"><ele>320.0</ele><time>2026-05-01T09:42:01Z</time></trkpt><trkpt lat="44.80862694859302" lon="14.897779930199489"><ele>320.0</ele><time>2026-05-01T09:42:02Z</time></trkpt><trkpt lat="44.80840366026171" lon="14.898075364524038"><ele>320.0</ele><time>2026-05-01T09:42:03Z</time></trkpt><trkpt lat="44.80825002804194" lon="14.898128579561334"><ele>320.0</ele><time>2026-05-01T09:42:04Z</time></trkpt><trkpt lat="44.80810009315066" lon="14.898165828251713"><ele>320.0</ele><time>2026-05-01T09:42:05Z</time></trkpt><trkpt lat="44.807940024362594" lon="14.898202554098248"><ele>320.0</ele><time>2026-05-01T09:42:06Z</time></trkpt><trkpt lat="44.807773124169785" lon="14.898219554863815"><ele>320.0</ele><time>2026-05-01T09:42:07Z</time></trkpt><trkpt lat="44.807600091973455" lon="14.898205080272573"><ele>320.0</ele><time>2026-05-01T09:42:08Z</time></trkpt><trkpt lat="44.807427896958636" lon="14.89816490989703"><ele>317.6666666666667</ele><time>2026-05-01T09:42:09Z</time></trkpt><trkpt lat="44.80725445783428" lon="14.898107443025694"><ele>315.3333333333333</ele><time>2026-05-01T09:42:10Z</time></trkpt><trkpt lat="44.80708266435315" lon="14.898027230129017"><ele>313.0</ele><time>2026-05-01T09:42:11Z</time></trkpt><trkpt lat="44.80691322715422" lon="14.897932270939588"><ele>314.3333333333333</ele><time>2026-05-01T09:42:12Z</time></trkpt><trkpt lat="44.806750795107156" lon="14.897831511097298"><ele>315.6666666666667</ele><time>2026-05-01T09:42:13Z</time></trkpt><trkpt lat="44.80658198416929" lon="14.897735246773788"><ele>317.0</ele><time>2026-05-01T09:42:14Z</time></trkpt><trkpt lat="44.80640038440621" lon="14.897648732178403"><ele>317.0</ele><time>2026-05-01T09:42:15Z</time></trkpt><trkpt lat="44.806206570669126" lon="14.897592890044695"><ele>317.0</ele><time>2026-05-01T09:42:16Z</time></trkpt><trkpt lat="44.80600810343708" lon="14.89756739101653"><ele>317.0</ele><time>2026-05-01T09:42:17Z</time></trkpt><trkpt lat="44.80581058078573" lon="14.89756830514784"><ele>317.0</ele><time>2026-05-01T09:42:18Z</time></trkpt><trkpt lat="44.80561586339463" lon="14.897600324277152"><ele>317.0</ele><time>2026-05-01T09:42:19Z</time></trkpt><trkpt lat="44.805424720343474" lon="14.897653038335326"><ele>317.0</ele><time>2026-05-01T09:42:20Z</time></trkpt><trkpt lat="44.80524369337637" lon="14.897729659808299"><ele>314.33333333333337</ele><time>2026-05-01T09:42:21Z</time></trkpt><trkpt lat="44.80506338385531" lon="14.897827605414097"><ele>311.6666666666667</ele><time>2026-05-01T09:42:22Z</time></trkpt><trkpt lat="44.80489137247907" lon="14.897946820449834"><ele>309.0</ele><time>2026-05-01T09:42:23Z</time></trkpt><trkpt lat="44.80472491583365" lon="14.898093117590236"><ele>309.0</ele><time>2026-05-01T09:42:24Z</time></trkpt><trkpt lat="44.80456475763844" lon="14.898264277077224"><ele>309.0</ele><time>2026-05-01T09:42:25Z</time></trkpt><trkpt lat="44.80442407775093" lon="14.898452245569787"><ele>309.0</ele><time>2026-05-01T09:42:26Z</time></trkpt><trkpt lat="44.804307094146864" lon="14.898655206642026"><ele>309.3333333333333</ele><time>2026-05-01T09:42:27Z</time></trkpt><trkpt lat="44.80420412892747" lon="14.898858755582795"><ele>309.66666666666663</ele><time>2026-05-01T09:42:28Z</time></trkpt><trkpt lat="44.80411653316448" lon="14.899071389773429"><ele>310.0</ele><time>2026-05-01T09:42:29Z</time></trkpt><trkpt lat="44.80403777086431" lon="14.899287777417731"><ele>310.0</ele><time>2026-05-01T09:42:30Z</time></trkpt><trkpt lat="44.80396561644275" lon="14.899507827999711"><ele>310.0</ele><time>2026-05-01T09:42:31Z</time></trkpt><trkpt lat="44.803899857110636" lon="14.899720490363439"><ele>310.0</ele><time>2026-05-01T09:42:32Z</time></trkpt><trkpt lat="44.803836454239715" lon="14.899922514559664"><ele>310.75</ele><time>2026-05-01T09:42:33Z</time></trkpt><trkpt lat="44.80377121200948" lon="14.900108449187453"><ele>311.5</ele><time>2026-05-01T09:42:34Z</time></trkpt><trkpt lat="44.80370214799883" lon="14.90027207312282"><ele>312.25</ele><time>2026-05-01T09:42:35Z</time></trkpt><trkpt lat="44.80362279305625" lon="14.900424719942892"><ele>313.0</ele><time>2026-05-01T09:42:36Z</time></trkpt><trkpt lat="44.80352641873418" lon="14.900548907401847"><ele>305.5</ele><time>2026-05-01T09:42:37Z</time></trkpt><trkpt lat="44.80341185833156" lon="14.900651429744329"><ele>298.0</ele><time>2026-05-01T09:42:38Z</time></trkpt><trkpt lat="44.803279210131684" lon="14.900713849265006"><ele>290.5</ele><time>2026-05-01T09:42:39Z</time></trkpt><trkpt lat="44.80313585050035" lon="14.900740069808874"><ele>283.0</ele><time>2026-05-01T09:42:40Z</time></trkpt><trkpt lat="44.80299205374414" lon="14.900729127508106"><ele>283.0</ele><time>2026-05-01T09:42:41Z</time></trkpt><trkpt lat="44.802847996485994" lon="14.90067669968936"><ele>283.0</ele><time>2026-05-01T09:42:42Z</time></trkpt><trkpt lat="44.80270681040379" lon="14.900583692324105"><ele>283.0</ele><time>2026-05-01T09:42:43Z</time></trkpt><trkpt lat="44.80257274685375" lon="14.900466742129332"><ele>289.0</ele><time>2026-05-01T09:42:44Z</time></trkpt><trkpt lat="44.802450949290396" lon="14.900335311326204"><ele>295.0</ele><time>2026-05-01T09:42:45Z</time></trkpt><trkpt lat="44.80231940943977" lon="14.900201809411996"><ele>301.0</ele><time>2026-05-01T09:42:46Z</time></trkpt><trkpt lat="44.802177111631906" lon="14.900084032425625"><ele>298.3333333333333</ele><time>2026-05-01T09:42:47Z</time></trkpt><trkpt lat="44.80202825859758" lon="14.900000116943867"><ele>295.6666666666667</ele><time>2026-05-01T09:42:48Z</time></trkpt><trkpt lat="44.801873671296214" lon="14.899956090777387"><ele>293.0</ele><time>2026-05-01T09:42:49Z</time></trkpt><trkpt lat="44.80171125399492" lon="14.899968211742657"><ele>293.0</ele><time>2026-05-01T09:42:50Z</time></trkpt><trkpt lat="44.801552126068046" lon="14.900045704877082"><ele>293.0</ele><time>2026-05-01T09:42:51Z</time></trkpt><trkpt lat="44.80139653721519" lon="14.90015607392088"><ele>293.0</ele><time>2026-05-01T09:42:52Z</time></trkpt><trkpt lat="44.80124949842207" lon="14.900305405232595"><ele>292.0</ele><time>2026-05-01T09:42:53Z</time></trkpt><trkpt lat="44.80110910674764" lon="14.900458399665817"><ele>291.0</ele><time>2026-05-01T09:42:54Z</time></trkpt><trkpt lat="44.800942368170666" lon="14.900632316722918"><ele>290.0</ele><time>2026-05-01T09:42:55Z</time></trkpt><trkpt lat="44.800764671074106" lon="14.900820918233157"><ele>295.0</ele><time>2026-05-01T09:42:56Z</time></trkpt><trkpt lat="44.8005720115789" lon="14.901031767931418"><ele>300.0</ele><time>2026-05-01T09:42:57Z</time></trkpt><trkpt lat="44.800340988790374" lon="14.901268669867678"><ele>295.0</ele><time>2026-05-01T09:42:58Z</time></trkpt><trkpt lat="44.80009498164038" lon="14.901512092414814"><ele>290.0</ele><time>2026-05-01T09:42:59Z</time></trkpt><trkpt lat="44.79986571395896" lon="14.901717597638893"><ele>293.5</ele><time>2026-05-01T09:43:00Z</time></trkpt><trkpt lat="44.79965047027616" lon="14.901868204574562"><ele>297.0</ele><time>2026-05-01T09:43:01Z</time></trkpt><trkpt lat="44.79945002058955" lon="14.901980895499152"><ele>296.6666666666667</ele><time>2026-05-01T09:43:02Z</time></trkpt><trkpt lat="44.79926168669448" lon="14.902058582795073"><ele>296.33333333333337</ele><time>2026-05-01T09:43:03Z</time></trkpt><trkpt lat="44.799079489532794" lon="14.902105866511915"><ele>296.0</ele><time>2026-05-01T09:43:04Z</time></trkpt><trkpt lat="44.79890660123655" lon="14.902131451289778"><ele>296.0</ele><time>2026-05-01T09:43:05Z</time></trkpt><trkpt lat="44.79873161643937" lon="14.902139748204178"><ele>296.0</ele><time>2026-05-01T09:43:06Z</time></trkpt><trkpt lat="44.79855071281666" lon="14.90213218408061"><ele>296.0</ele><time>2026-05-01T09:43:07Z</time></trkpt><trkpt lat="44.798371810801314" lon="14.902101884057299"><ele>297.33333333333337</ele><time>2026-05-01T09:43:08Z</time></trkpt><trkpt lat="44.79819612936458" lon="14.902047375332568"><ele>298.6666666666667</ele><time>2026-05-01T09:43:09Z</time></trkpt><trkpt lat="44.79801319936022" lon="14.901980140985673"><ele>300.0</ele><time>2026-05-01T09:43:10Z</time></trkpt><trkpt lat="44.797797054044665" lon="14.901889133765069"><ele>299.0</ele><time>2026-05-01T09:43:11Z</time></trkpt><trkpt lat="44.79754866745978" lon="14.901754754048554"><ele>298.0</ele><time>2026-05-01T09:43:12Z</time></trkpt><trkpt lat="44.79726436480637" lon="14.901586408321545"><ele>298.0</ele><time>2026-05-01T09:43:13Z</time></trkpt><trkpt lat="44.79697477411853" lon="14.901438212120295"><ele>298.0</ele><time>2026-05-01T09:43:14Z</time></trkpt><trkpt lat="44.79668776308094" lon="14.901314054153504"><ele>299.0</ele><time>2026-05-01T09:43:15Z</time></trkpt><trkpt lat="44.79640997270197" lon="14.901204751852013"><ele>300.0</ele><time>2026-05-01T09:43:16Z</time></trkpt><trkpt lat="44.79613409999148" lon="14.901110095051836"><ele>303.0</ele><time>2026-05-01T09:43:17Z</time></trkpt><trkpt lat="44.795870352618294" lon="14.901045846757265"><ele>306.0</ele><time>2026-05-01T09:43:18Z</time></trkpt><trkpt lat="44.795616571716785" lon="14.900995896912793"><ele>306.0</ele><time>2026-05-01T09:43:19Z</time></trkpt><trkpt lat="44.79536391394792" lon="14.900960891212286"><ele>306.0</ele><time>2026-05-01T09:43:20Z</time></trkpt><trkpt lat="44.79512039965085" lon="14.900941795036907"><ele>306.5</ele><time>2026-05-01T09:43:21Z</time></trkpt><trkpt lat="44.79487168024421" lon="14.90093691531204"><ele>307.0</ele><time>2026-05-01T09:43:22Z</time></trkpt><trkpt lat="44.79462714057165" lon="14.90092463730528"><ele>302.5</ele><time>2026-05-01T09:43:23Z</time></trkpt><trkpt lat="44.79438705751481" lon="14.900907520823052"><ele>298.0</ele><time>2026-05-01T09:43:24Z</time></trkpt><trkpt lat="44.79415785203733" lon="14.900890624282864"><ele>295.66666666666663</ele><time>2026-05-01T09:43:25Z</time></trkpt><trkpt lat="44.79393875856335" lon="14.900860451957307"><ele>293.3333333333333</ele><time>2026-05-01T09:43:26Z</time></trkpt><trkpt lat="44.79373336721541" lon="14.900800621631554"><ele>291.0</ele><time>2026-05-01T09:43:27Z</time></trkpt><trkpt lat="44.7935500879069" lon="14.90068168339389"><ele>291.6666666666667</ele><time>2026-05-01T09:43:28Z</time></trkpt><trkpt lat="44.79339555215257" lon="14.900498284228691"><ele>292.33333333333337</ele><time>2026-05-01T09:43:29Z</time></trkpt><trkpt lat="44.79325939470477" lon="14.90027154203166"><ele>293.0</ele><time>2026-05-01T09:43:30Z</time></trkpt><trkpt lat="44.79314656922299" lon="14.900029628243903"><ele>290.33333333333337</ele><time>2026-05-01T09:43:31Z</time></trkpt><trkpt lat="44.793041772702075" lon="14.899796798973904"><ele>287.6666666666667</ele><time>2026-05-01T09:43:32Z</time></trkpt><trkpt lat="44.79292601382374" lon="14.89959147081488"><ele>285.0</ele><time>2026-05-01T09:43:33Z</time></trkpt><trkpt lat="44.79279790758485" lon="14.899419318998453"><ele>284.3333333333333</ele><time>2026-05-01T09:43:34Z</time></trkpt><trkpt lat="44.79263896404057" lon="14.89928725002591"><ele>283.66666666666663</ele><time>2026-05-01T09:43:35Z</time></trkpt><trkpt lat="44.79246321148604" lon="14.899195732527604"><ele>283.0</ele><time>2026-05-01T09:43:36Z</time></trkpt><trkpt lat="44.79227388892029" lon="14.899147573542356"><ele>283.0</ele><time>2026-05-01T09:43:37Z</time></trkpt><trkpt lat="44.79208179405825" lon="14.899149074398856"><ele>283.0</ele><time>2026-05-01T09:43:38Z</time></trkpt><trkpt lat="44.79189022155427" lon="14.899195977535319"><ele>283.0</ele><time>2026-05-01T09:43:39Z</time></trkpt><trkpt lat="44.791711539989954" lon="14.899292610597263"><ele>284.3333333333333</ele><time>2026-05-01T09:43:40Z</time></trkpt><trkpt lat="44.791543184110076" lon="14.899443547320743"><ele>285.6666666666667</ele><time>2026-05-01T09:43:41Z</time></trkpt><trkpt lat="44.791396140485844" lon="14.899637921683556"><ele>287.0</ele><time>2026-05-01T09:43:42Z</time></trkpt><trkpt lat="44.79127547948272" lon="14.899858605925838"><ele>287.0</ele><time>2026-05-01T09:43:43Z</time></trkpt><trkpt lat="44.791170067001225" lon="14.900075867115806"><ele>287.0</ele><time>2026-05-01T09:43:44Z</time></trkpt><trkpt lat="44.79105963704086" lon="14.900298571652092"><ele>287.0</ele><time>2026-05-01T09:43:45Z</time></trkpt><trkpt lat="44.7909472899233" lon="14.90051389155699"><ele>285.33333333333337</ele><time>2026-05-01T09:43:46Z</time></trkpt><trkpt lat="44.79083002945628" lon="14.900722796355472"><ele>283.6666666666667</ele><time>2026-05-01T09:43:47Z</time></trkpt><trkpt lat="44.79069824811276" lon="14.900906775518513"><ele>282.0</ele><time>2026-05-01T09:43:48Z</time></trkpt><trkpt lat="44.79055027979997" lon="14.901035018172994"><ele>282.0</ele><time>2026-05-01T09:43:49Z</time></trkpt><trkpt lat="44.79037903017381" lon="14.90111725512384"><ele>282.0</ele><time>2026-05-01T09:43:50Z</time></trkpt><trkpt lat="44.790197187815814" lon="14.901130060324736"><ele>282.0</ele><time>2026-05-01T09:43:51Z</time></trkpt><trkpt lat="44.79001594257169" lon="14.901064165879362"><ele>281.3333333333333</ele><time>2026-05-01T09:43:52Z</time></trkpt><trkpt lat="44.78985371902824" lon="14.900924541896881"><ele>280.66666666666663</ele><time>2026-05-01T09:43:53Z</time></trkpt><trkpt lat="44.789688262654195" lon="14.9007321576787"><ele>280.0</ele><time>2026-05-01T09:43:54Z</time></trkpt><trkpt lat="44.789536058695326" lon="14.900507811527326"><ele>279.0</ele><time>2026-05-01T09:43:55Z</time></trkpt><trkpt lat="44.78939427991249" lon="14.900271728733951"><ele>278.0</ele><time>2026-05-01T09:43:56Z</time></trkpt><trkpt lat="44.789253860479675" lon="14.90005754057018"><ele>277.0</ele><time>2026-05-01T09:43:57Z</time></trkpt><trkpt lat="44.789107163168936" lon="14.899884505281944"><ele>277.0</ele><time>2026-05-01T09:43:58Z</time></trkpt><trkpt lat="44.78893042570499" lon="14.899751717317221"><ele>277.0</ele><time>2026-05-01T09:43:59Z</time></trkpt><trkpt lat="44.78873060136632" lon="14.8996522671609"><ele>277.0</ele><time>2026-05-01T09:44:00Z</time></trkpt><trkpt lat="44.788526297206204" lon="14.89958240338341"><ele>282.0</ele><time>2026-05-01T09:44:01Z</time></trkpt><trkpt lat="44.78830688171836" lon="14.899541574915668"><ele>287.0</ele><time>2026-05-01T09:44:02Z</time></trkpt><trkpt lat="44.78806699730261" lon="14.899511318369083"><ele>287.0</ele><time>2026-05-01T09:44:03Z</time></trkpt><trkpt lat="44.787824587311675" lon="14.899468756970249"><ele>287.0</ele><time>2026-05-01T09:44:04Z</time></trkpt><trkpt lat="44.7875748935599" lon="14.89941662535277"><ele>289.0</ele><time>2026-05-01T09:44:05Z</time></trkpt><trkpt lat="44.78732748754817" lon="14.89935979343221"><ele>291.0</ele><time>2026-05-01T09:44:06Z</time></trkpt><trkpt lat="44.78707689549239" lon="14.899291359053588"><ele>285.0</ele><time>2026-05-01T09:44:07Z</time></trkpt><trkpt lat="44.786840454782116" lon="14.899201078079386"><ele>279.0</ele><time>2026-05-01T09:44:08Z</time></trkpt><trkpt lat="44.78663096619949" lon="14.89909196587268"><ele>279.0</ele><time>2026-05-01T09:44:09Z</time></trkpt><trkpt lat="44.78643006851069" lon="14.898992357214885"><ele>279.0</ele><time>2026-05-01T09:44:10Z</time></trkpt><trkpt lat="44.7862266997469" lon="14.89891873126955"><ele>279.0</ele><time>2026-05-01T09:44:11Z</time></trkpt><trkpt lat="44.78601236510049" lon="14.898873499043779"><ele>279.5</ele><time>2026-05-01T09:44:12Z</time></trkpt><trkpt lat="44.785788592291176" lon="14.89885955439341"><ele>280.0</ele><time>2026-05-01T09:44:13Z</time></trkpt><trkpt lat="44.78555448729922" lon="14.898878970308209"><ele>280.0</ele><time>2026-05-01T09:44:14Z</time></trkpt><trkpt lat="44.785321303538225" lon="14.89892986257784"><ele>280.0</ele><time>2026-05-01T09:44:15Z</time></trkpt><trkpt lat="44.78508912265963" lon="14.899019401551415"><ele>280.0</ele><time>2026-05-01T09:44:16Z</time></trkpt><trkpt lat="44.784866536839026" lon="14.899146713249966"><ele>280.0</ele><time>2026-05-01T09:44:17Z</time></trkpt><trkpt lat="44.784653761472725" lon="14.899302895182432"><ele>280.5</ele><time>2026-05-01T09:44:18Z</time></trkpt><trkpt lat="44.78444577918476" lon="14.89947025662734"><ele>281.0</ele><time>2026-05-01T09:44:19Z</time></trkpt><trkpt lat="44.78423746722998" lon="14.899641889519811"><ele>281.0</ele><time>2026-05-01T09:44:20Z</time></trkpt><trkpt lat="44.78402948260788" lon="14.899813911231872"><ele>281.0</ele><time>2026-05-01T09:44:21Z</time></trkpt><trkpt lat="44.78382160319082" lon="14.899970364796147"><ele>285.5</ele><time>2026-05-01T09:44:22Z</time></trkpt><trkpt lat="44.78360917873082" lon="14.900102159798228"><ele>290.0</ele><time>2026-05-01T09:44:23Z</time></trkpt><trkpt lat="44.78339650213008" lon="14.900187618345315"><ele>290.0</ele><time>2026-05-01T09:44:24Z</time></trkpt><trkpt lat="44.783172149400045" lon="14.900239565192969"><ele>290.0</ele><time>2026-05-01T09:44:25Z</time></trkpt><trkpt lat="44.78295793734336" lon="14.900256174041969"><ele>290.0</ele><time>2026-05-01T09:44:26Z</time></trkpt><trkpt lat="44.78275135978393" lon="14.90025844627532"><ele>288.0</ele><time>2026-05-01T09:44:27Z</time></trkpt><trkpt lat="44.782549972241554" lon="14.900264376881184"><ele>286.0</ele><time>2026-05-01T09:44:28Z</time></trkpt><trkpt lat="44.782362004945746" lon="14.90028789662014"><ele>284.0</ele><time>2026-05-01T09:44:29Z</time></trkpt><trkpt lat="44.78218630592722" lon="14.900342595870487"><ele>284.0</ele><time>2026-05-01T09:44:30Z</time></trkpt><trkpt lat="44.78202404855821" lon="14.900436807058368"><ele>284.0</ele><time>2026-05-01T09:44:31Z</time></trkpt><trkpt lat="44.781874209448695" lon="14.900582960173082"><ele>284.0</ele><time>2026-05-01T09:44:32Z</time></trkpt><trkpt lat="44.78175501617321" lon="14.900768606561147"><ele>279.6666666666667</ele><time>2026-05-01T09:44:33Z</time></trkpt><trkpt lat="44.781658437819345" lon="14.900982754683065"><ele>275.3333333333333</ele><time>2026-05-01T09:44:34Z</time></trkpt><trkpt lat="44.78159722607915" lon="14.901201603264314"><ele>271.0</ele><time>2026-05-01T09:44:35Z</time></trkpt><trkpt lat="44.78156969450271" lon="14.901418412012646"><ele>271.0</ele><time>2026-05-01T09:44:36Z</time></trkpt><trkpt lat="44.78156377109431" lon="14.901639052599336"><ele>271.0</ele><time>2026-05-01T09:44:37Z</time></trkpt><trkpt lat="44.78158606912597" lon="14.901849363930845"><ele>271.0</ele><time>2026-05-01T09:44:38Z</time></trkpt><trkpt lat="44.78163328201741" lon="14.902048106567458"><ele>270.25</ele><time>2026-05-01T09:44:39Z</time></trkpt><trkpt lat="44.7816965470256" lon="14.902228822117237"><ele>269.5</ele><time>2026-05-01T09:44:40Z</time></trkpt><trkpt lat="44.781766609566134" lon="14.90240552757032"><ele>268.75</ele><time>2026-05-01T09:44:41Z</time></trkpt><trkpt lat="44.78182985169754" lon="14.90256905736538"><ele>268.0</ele><time>2026-05-01T09:44:42Z</time></trkpt><trkpt lat="44.78188369701157" lon="14.902728451944315"><ele>274.75</ele><time>2026-05-01T09:44:43Z</time></trkpt><trkpt lat="44.78192533613239" lon="14.90288544109846"><ele>281.5</ele><time>2026-05-01T09:44:44Z</time></trkpt><trkpt lat="44.781947308715004" lon="14.903058427632498"><ele>288.25</ele><time>2026-05-01T09:44:45Z</time></trkpt><trkpt lat="44.78193993751726" lon="14.903232640611414"><ele>295.0</ele><time>2026-05-01T09:44:46Z</time></trkpt><trkpt lat="44.781904280892284" lon="14.903399911880905"><ele>291.75</ele><time>2026-05-01T09:44:47Z</time></trkpt><trkpt lat="44.781840390162735" lon="14.903552559393084"><ele>288.5</ele><time>2026-05-01T09:44:48Z</time></trkpt><trkpt lat="44.78175548543751" lon="14.90368445061397"><ele>285.25</ele><time>2026-05-01T09:44:49Z</time></trkpt><trkpt lat="44.78165093964391" lon="14.903793265701223"><ele>282.0</ele><time>2026-05-01T09:44:50Z</time></trkpt><trkpt lat="44.78152620291068" lon="14.903858870624813"><ele>282.0</ele><time>2026-05-01T09:44:51Z</time></trkpt><trkpt lat="44.781386569110275" lon="14.903881015840435"><ele>282.0</ele><time>2026-05-01T09:44:52Z</time></trkpt><trkpt lat="44.781235888784195" lon="14.903869446572035"><ele>282.0</ele><time>2026-05-01T09:44:53Z</time></trkpt><trkpt lat="44.781091993877695" lon="14.90384186642079"><ele>282.0</ele><time>2026-05-01T09:44:54Z</time></trkpt><trkpt lat="44.78092350912905" lon="14.903803527121887"><ele>283.0</ele><time>2026-05-01T09:44:55Z</time></trkpt><trkpt lat="44.78076065203289" lon="14.903764098133346"><ele>284.0</ele><time>2026-05-01T09:44:56Z</time></trkpt><trkpt lat="44.78061586518069" lon="14.903687091701444"><ele>285.0</ele><time>2026-05-01T09:44:57Z</time></trkpt><trkpt lat="44.78047865402978" lon="14.903579369603428"><ele>285.0</ele><time>2026-05-01T09:44:58Z</time></trkpt><trkpt lat="44.78036121830229" lon="14.90342939712255"><ele>285.0</ele><time>2026-05-01T09:44:59Z</time></trkpt><trkpt lat="44.78027064634872" lon="14.903235667434313"><ele>285.0</ele><time>2026-05-01T09:45:00Z</time></trkpt><trkpt lat="44.7802001096334" lon="14.903015007097096"><ele>285.0</ele><time>2026-05-01T09:45:01Z</time></trkpt><trkpt lat="44.78014252061984" lon="14.902781928805078"><ele>285.0</ele><time>2026-05-01T09:45:02Z</time></trkpt><trkpt lat="44.78008492415413" lon="14.902539855971765"><ele>285.0</ele><time>2026-05-01T09:45:03Z</time></trkpt><trkpt lat="44.78002218007689" lon="14.902288634896244"><ele>282.6666666666667</ele><time>2026-05-01T09:45:04Z</time></trkpt><trkpt lat="44.77995701387175" lon="14.902042674647475"><ele>280.33333333333337</ele><time>2026-05-01T09:45:05Z</time></trkpt><trkpt lat="44.779890304934995" lon="14.901800200932385"><ele>278.0</ele><time>2026-05-01T09:45:06Z</time></trkpt><trkpt lat="44.779823236386505" lon="14.90156445692488"><ele>276.6666666666667</ele><time>2026-05-01T09:45:07Z</time></trkpt><trkpt lat="44.77973751395717" lon="14.901346267057113"><ele>275.3333333333333</ele><time>2026-05-01T09:45:08Z</time></trkpt><trkpt lat="44.77963329438847" lon="14.901146354665965"><ele>274.0</ele><time>2026-05-01T09:45:09Z</time></trkpt><trkpt lat="44.7795174678062" lon="14.900966871076129"><ele>274.0</ele><time>2026-05-01T09:45:10Z</time></trkpt><trkpt lat="44.77939210266498" lon="14.90079488875009"><ele>274.0</ele><time>2026-05-01T09:45:11Z</time></trkpt><trkpt lat="44.77924961253632" lon="14.900641363724297"><ele>274.0</ele><time>2026-05-01T09:45:12Z</time></trkpt><trkpt lat="44.77909788954122" lon="14.900510005291526"><ele>274.0</ele><time>2026-05-01T09:45:13Z</time></trkpt><trkpt lat="44.778931983120714" lon="14.900396505866732"><ele>274.0</ele><time>2026-05-01T09:45:14Z</time></trkpt><trkpt lat="44.778760922598934" lon="14.900308913090573"><ele>274.0</ele><time>2026-05-01T09:45:15Z</time></trkpt><trkpt lat="44.77857406795855" lon="14.900244099146702"><ele>277.5</ele><time>2026-05-01T09:45:16Z</time></trkpt><trkpt lat="44.7783537350948" lon="14.900186601889484"><ele>281.0</ele><time>2026-05-01T09:45:17Z</time></trkpt><trkpt lat="44.778084961160566" lon="14.900099174668938"><ele>274.0</ele><time>2026-05-01T09:45:18Z</time></trkpt><trkpt lat="44.777775962129674" lon="14.899978779991391"><ele>267.0</ele><time>2026-05-01T09:45:19Z</time></trkpt><trkpt lat="44.777450786798006" lon="14.899844603240236"><ele>266.5</ele><time>2026-05-01T09:45:20Z</time></trkpt><trkpt lat="44.777132555078744" lon="14.899702154696039"><ele>266.0</ele><time>2026-05-01T09:45:21Z</time></trkpt><trkpt lat="44.77683026312429" lon="14.899568225928773"><ele>267.0</ele><time>2026-05-01T09:45:22Z</time></trkpt><trkpt lat="44.77654439099985" lon="14.899443899368295"><ele>268.0</ele><time>2026-05-01T09:45:23Z</time></trkpt><trkpt lat="44.77628025254058" lon="14.89932587740896"><ele>261.5</ele><time>2026-05-01T09:45:24Z</time></trkpt><trkpt lat="44.77603332390158" lon="14.89919847736169"><ele>255.0</ele><time>2026-05-01T09:45:25Z</time></trkpt><trkpt lat="44.77580656709081" lon="14.899068599436193"><ele>255.0</ele><time>2026-05-01T09:45:26Z</time></trkpt><trkpt lat="44.77559751153806" lon="14.89895184388179"><ele>255.0</ele><time>2026-05-01T09:45:27Z</time></trkpt><trkpt lat="44.775391151200864" lon="14.89884686267492"><ele>255.0</ele><time>2026-05-01T09:45:28Z</time></trkpt><trkpt lat="44.775187490098965" lon="14.898766862830216"><ele>255.66666666666669</ele><time>2026-05-01T09:45:29Z</time></trkpt><trkpt lat="44.774972378248954" lon="14.898712481223093"><ele>256.33333333333337</ele><time>2026-05-01T09:45:30Z</time></trkpt><trkpt lat="44.774742757138114" lon="14.898689570889132"><ele>257.0</ele><time>2026-05-01T09:45:31Z</time></trkpt><trkpt lat="44.77451001245833" lon="14.898694275922269"><ele>256.5</ele><time>2026-05-01T09:45:32Z</time></trkpt><trkpt lat="44.77427204272604" lon="14.89872183202333"><ele>256.0</ele><time>2026-05-01T09:45:33Z</time></trkpt><trkpt lat="44.77404108984293" lon="14.89878199932983"><ele>256.0</ele><time>2026-05-01T09:45:34Z</time></trkpt><trkpt lat="44.773787501533654" lon="14.898875214185603"><ele>256.0</ele><time>2026-05-01T09:45:35Z</time></trkpt><trkpt lat="44.77349944973426" lon="14.899014225319611"><ele>253.5</ele><time>2026-05-01T09:45:36Z</time></trkpt><trkpt lat="44.77319563966893" lon="14.89917559330214"><ele>251.0</ele><time>2026-05-01T09:45:37Z</time></trkpt><trkpt lat="44.772876673975354" lon="14.899330337348356"><ele>254.5</ele><time>2026-05-01T09:45:38Z</time></trkpt><trkpt lat="44.77254763143607" lon="14.899464715620692"><ele>258.0</ele><time>2026-05-01T09:45:39Z</time></trkpt><trkpt lat="44.77221848493386" lon="14.899601725836304"><ele>258.0</ele><time>2026-05-01T09:45:40Z</time></trkpt><trkpt lat="44.771890050892765" lon="14.899734272694063"><ele>258.0</ele><time>2026-05-01T09:45:41Z</time></trkpt><trkpt lat="44.771576950129536" lon="14.899868809443719"><ele>256.0</ele><time>2026-05-01T09:45:42Z</time></trkpt><trkpt lat="44.77129687565324" lon="14.89998202032779"><ele>254.0</ele><time>2026-05-01T09:45:43Z</time></trkpt><trkpt lat="44.77104556366433" lon="14.900079981933203"><ele>253.5</ele><time>2026-05-01T09:45:44Z</time></trkpt><trkpt lat="44.770801568691084" lon="14.900163324876493"><ele>253.0</ele><time>2026-05-01T09:45:45Z</time></trkpt><trkpt lat="44.77055251616609" lon="14.900214868054567"><ele>253.0</ele><time>2026-05-01T09:45:46Z</time></trkpt><trkpt lat="44.77029957539193" lon="14.900215336214384"><ele>253.0</ele><time>2026-05-01T09:45:47Z</time></trkpt><trkpt lat="44.77005894704161" lon="14.900156044020262"><ele>253.5</ele><time>2026-05-01T09:45:48Z</time></trkpt><trkpt lat="44.76982985570797" lon="14.90004625321288"><ele>254.0</ele><time>2026-05-01T09:45:49Z</time></trkpt><trkpt lat="44.76961096023939" lon="14.899901503926795"><ele>254.0</ele><time>2026-05-01T09:45:50Z</time></trkpt><trkpt lat="44.76939607557429" lon="14.899729525041018"><ele>254.0</ele><time>2026-05-01T09:45:51Z</time></trkpt><trkpt lat="44.769161481721085" lon="14.89956177379989"><ele>252.5</ele><time>2026-05-01T09:45:52Z</time></trkpt><trkpt lat="44.76891842338141" lon="14.89940220364456"><ele>251.0</ele><time>2026-05-01T09:45:53Z</time></trkpt><trkpt lat="44.76866604603975" lon="14.899239236171981"><ele>253.5</ele><time>2026-05-01T09:45:54Z</time></trkpt><trkpt lat="44.768417096718295" lon="14.89907608266649"><ele>256.0</ele><time>2026-05-01T09:45:55Z</time></trkpt><trkpt lat="44.768183964010994" lon="14.898923818528862"><ele>256.0</ele><time>2026-05-01T09:45:56Z</time></trkpt><trkpt lat="44.767956882432365" lon="14.898783384334706"><ele>256.0</ele><time>2026-05-01T09:45:57Z</time></trkpt><trkpt lat="44.76772021752365" lon="14.898685471615606"><ele>259.0</ele><time>2026-05-01T09:45:58Z</time></trkpt><trkpt lat="44.767473643132554" lon="14.898645460163205"><ele>262.0</ele><time>2026-05-01T09:45:59Z</time></trkpt><trkpt lat="44.7672185894322" lon="14.898644560032603"><ele>262.0</ele><time>2026-05-01T09:46:00Z</time></trkpt><trkpt lat="44.76696807441705" lon="14.898691110226382"><ele>262.0</ele><time>2026-05-01T09:46:01Z</time></trkpt><trkpt lat="44.766715360121694" lon="14.898797442147732"><ele>259.0</ele><time>2026-05-01T09:46:02Z</time></trkpt><trkpt lat="44.766459488937684" lon="14.898945194745865"><ele>256.0</ele><time>2026-05-01T09:46:03Z</time></trkpt><trkpt lat="44.76621180103526" lon="14.899136936195928"><ele>255.0</ele><time>2026-05-01T09:46:04Z</time></trkpt><trkpt lat="44.76595799011779" lon="14.899334911082772"><ele>254.0</ele><time>2026-05-01T09:46:05Z</time></trkpt><trkpt lat="44.76569566108863" lon="14.899492248854477"><ele>254.0</ele><time>2026-05-01T09:46:06Z</time></trkpt><trkpt lat="44.76543201016146" lon="14.899589619936453"><ele>254.0</ele><time>2026-05-01T09:46:07Z</time></trkpt><trkpt lat="44.765173732641905" lon="14.899625563170465"><ele>251.0</ele><time>2026-05-01T09:46:08Z</time></trkpt><trkpt lat="44.764914810715474" lon="14.899620592911804"><ele>248.0</ele><time>2026-05-01T09:46:09Z</time></trkpt><trkpt lat="44.76465828271023" lon="14.899561892934155"><ele>248.0</ele><time>2026-05-01T09:46:10Z</time></trkpt><trkpt lat="44.76440680343867" lon="14.899442677675871"><ele>248.0</ele><time>2026-05-01T09:46:11Z</time></trkpt><trkpt lat="44.76416243015567" lon="14.899330291846772"><ele>245.5</ele><time>2026-05-01T09:46:12Z</time></trkpt><trkpt lat="44.76393682942545" lon="14.899255424663576"><ele>243.0</ele><time>2026-05-01T09:46:13Z</time></trkpt><trkpt lat="44.763715756004714" lon="14.899223495933231"><ele>244.5</ele><time>2026-05-01T09:46:14Z</time></trkpt><trkpt lat="44.763490200298435" lon="14.899246633509517"><ele>246.0</ele><time>2026-05-01T09:46:15Z</time></trkpt><trkpt lat="44.76326337947541" lon="14.899338600982453"><ele>251.5</ele><time>2026-05-01T09:46:16Z</time></trkpt><trkpt lat="44.76305457379424" lon="14.899487861632714"><ele>257.0</ele><time>2026-05-01T09:46:17Z</time></trkpt><trkpt lat="44.762868951396094" lon="14.899684516500397"><ele>257.0</ele><time>2026-05-01T09:46:18Z</time></trkpt><trkpt lat="44.76271147523779" lon="14.899928320429753"><ele>257.0</ele><time>2026-05-01T09:46:19Z</time></trkpt><trkpt lat="44.762584008028035" lon="14.900211351185728"><ele>254.0</ele><time>2026-05-01T09:46:20Z</time></trkpt><trkpt lat="44.7624803882991" lon="14.900523630912176"><ele>251.0</ele><time>2026-05-01T09:46:21Z</time></trkpt><trkpt lat="44.762404371965864" lon="14.90088088019672"><ele>252.5</ele><time>2026-05-01T09:46:22Z</time></trkpt><trkpt lat="44.762328171689" lon="14.901289965592243"><ele>254.0</ele><time>2026-05-01T09:46:23Z</time></trkpt><trkpt lat="44.762241060058884" lon="14.901670870426832"><ele>256.5</ele><time>2026-05-01T09:46:24Z</time></trkpt><trkpt lat="44.76215708635467" lon="14.902005429151313"><ele>259.0</ele><time>2026-05-01T09:46:25Z</time></trkpt><trkpt lat="44.76206853974348" lon="14.90231165143985"><ele>259.0</ele><time>2026-05-01T09:46:26Z</time></trkpt><trkpt lat="44.76195501978285" lon="14.902590951402946"><ele>259.0</ele><time>2026-05-01T09:46:27Z</time></trkpt><trkpt lat="44.761807956843306" lon="14.902819032126821"><ele>259.0</ele><time>2026-05-01T09:46:28Z</time></trkpt><trkpt lat="44.761635560756766" lon="14.903005667624445"><ele>259.0</ele><time>2026-05-01T09:46:29Z</time></trkpt><trkpt lat="44.76143885992393" lon="14.903151428173878"><ele>259.0</ele><time>2026-05-01T09:46:30Z</time></trkpt><trkpt lat="44.761223604280616" lon="14.90325961319881"><ele>255.5</ele><time>2026-05-01T09:46:31Z</time></trkpt><trkpt lat="44.760991573229525" lon="14.903327447034975"><ele>252.0</ele><time>2026-05-01T09:46:32Z</time></trkpt><trkpt lat="44.76073957050693" lon="14.903360104155627"><ele>252.0</ele><time>2026-05-01T09:46:33Z</time></trkpt><trkpt lat="44.76047307512785" lon="14.90338214510056"><ele>252.0</ele><time>2026-05-01T09:46:34Z</time></trkpt><trkpt lat="44.760193939856585" lon="14.90341422941824"><ele>258.5</ele><time>2026-05-01T09:46:35Z</time></trkpt><trkpt lat="44.759909491178206" lon="14.903457079743017"><ele>265.0</ele><time>2026-05-01T09:46:36Z</time></trkpt><trkpt lat="44.75961980224298" lon="14.903503384247331"><ele>262.5</ele><time>2026-05-01T09:46:37Z</time></trkpt><trkpt lat="44.75935620332713" lon="14.903540030470612"><ele>260.0</ele><time>2026-05-01T09:46:38Z</time></trkpt><trkpt lat="44.75910497186838" lon="14.90357351158629"><ele>260.0</ele><time>2026-05-01T09:46:39Z</time></trkpt><trkpt lat="44.75885554877012" lon="14.903606198629518"><ele>260.0</ele><time>2026-05-01T09:46:40Z</time></trkpt><trkpt lat="44.75860188250339" lon="14.903639934632771"><ele>259.5</ele><time>2026-05-01T09:46:41Z</time></trkpt><trkpt lat="44.75834167309706" lon="14.903665602501786"><ele>259.0</ele><time>2026-05-01T09:46:42Z</time></trkpt><trkpt lat="44.75807666663877" lon="14.90365261302118"><ele>259.0</ele><time>2026-05-01T09:46:43Z</time></trkpt><trkpt lat="44.75780945794656" lon="14.903585179097341"><ele>259.0</ele><time>2026-05-01T09:46:44Z</time></trkpt><trkpt lat="44.75754792250661" lon="14.903483265774113"><ele>254.0</ele><time>2026-05-01T09:46:45Z</time></trkpt><trkpt lat="44.75728823491332" lon="14.903364939030466"><ele>249.0</ele><time>2026-05-01T09:46:46Z</time></trkpt><trkpt lat="44.757020013236314" lon="14.903248502350399"><ele>248.0</ele><time>2026-05-01T09:46:47Z</time></trkpt><trkpt lat="44.75674458923675" lon="14.903136869477512"><ele>247.0</ele><time>2026-05-01T09:46:48Z</time></trkpt><trkpt lat="44.75646628492542" lon="14.903027135018709"><ele>247.0</ele><time>2026-05-01T09:46:49Z</time></trkpt><trkpt lat="44.75619351415278" lon="14.902915899910907"><ele>247.0</ele><time>2026-05-01T09:46:50Z</time></trkpt><trkpt lat="44.75592613727244" lon="14.90280158546973"><ele>250.0</ele><time>2026-05-01T09:46:51Z</time></trkpt><trkpt lat="44.755656602215986" lon="14.90269530609047"><ele>253.0</ele><time>2026-05-01T09:46:52Z</time></trkpt><trkpt lat="44.75537982698286" lon="14.902611585668756"><ele>246.5</ele><time>2026-05-01T09:46:53Z</time></trkpt><trkpt lat="44.755096477064654" lon="14.902558247453339"><ele>240.0</ele><time>2026-05-01T09:46:54Z</time></trkpt><trkpt lat="44.75480625734416" lon="14.902540979880703"><ele>240.0</ele><time>2026-05-01T09:46:55Z</time></trkpt><trkpt lat="44.754518908390835" lon="14.902557552238193"><ele>240.0</ele><time>2026-05-01T09:46:56Z</time></trkpt><trkpt lat="44.754233232387776" lon="14.902610615504807"><ele>243.0</ele><time>2026-05-01T09:46:57Z</time></trkpt><trkpt lat="44.75395427339589" lon="14.902698144423804"><ele>246.0</ele><time>2026-05-01T09:46:58Z</time></trkpt><trkpt lat="44.753670845234666" lon="14.902807499197527"><ele>242.5</ele><time>2026-05-01T09:46:59Z</time></trkpt><trkpt lat="44.75339166182798" lon="14.902917139625416"><ele>239.0</ele><time>2026-05-01T09:47:00Z</time></trkpt><trkpt lat="44.75311431923544" lon="14.903024683439059"><ele>239.0</ele><time>2026-05-01T09:47:01Z</time></trkpt><trkpt lat="44.75284220889443" lon="14.903129998491686"><ele>239.0</ele><time>2026-05-01T09:47:02Z</time></trkpt><trkpt lat="44.752572028038394" lon="14.90322917908477"><ele>235.5</ele><time>2026-05-01T09:47:03Z</time></trkpt><trkpt lat="44.75229974563773" lon="14.903313345751243"><ele>232.0</ele><time>2026-05-01T09:47:04Z</time></trkpt><trkpt lat="44.752023015009634" lon="14.90334730494663"><ele>232.0</ele><time>2026-05-01T09:47:05Z</time></trkpt><trkpt lat="44.75174889094655" lon="14.903332883194315"><ele>232.0</ele><time>2026-05-01T09:47:06Z</time></trkpt><trkpt lat="44.75148325165522" lon="14.903292078963554"><ele>232.0</ele><time>2026-05-01T09:47:07Z</time></trkpt><trkpt lat="44.75122133942504" lon="14.903229403495194"><ele>232.0</ele><time>2026-05-01T09:47:08Z</time></trkpt><trkpt lat="44.7509759286039" lon="14.903151881521788"><ele>233.0</ele><time>2026-05-01T09:47:09Z</time></trkpt><trkpt lat="44.750736250316194" lon="14.903101867549482"><ele>234.0</ele><time>2026-05-01T09:47:10Z</time></trkpt><trkpt lat="44.750494842886056" lon="14.903101521415486"><ele>234.0</ele><time>2026-05-01T09:47:11Z</time></trkpt><trkpt lat="44.75026344850663" lon="14.903161192191378"><ele>234.0</ele><time>2026-05-01T09:47:12Z</time></trkpt><trkpt lat="44.75004029832228" lon="14.903287629633642"><ele>236.0</ele><time>2026-05-01T09:47:13Z</time></trkpt><trkpt lat="44.7498346610676" lon="14.90346380103477"><ele>238.0</ele><time>2026-05-01T09:47:14Z</time></trkpt><trkpt lat="44.749647009296105" lon="14.903684899536676"><ele>238.0</ele><time>2026-05-01T09:47:15Z</time></trkpt><trkpt lat="44.749478888374846" lon="14.903956064259074"><ele>238.0</ele><time>2026-05-01T09:47:16Z</time></trkpt><trkpt lat="44.749322962405664" lon="14.904242472666862"><ele>236.5</ele><time>2026-05-01T09:47:17Z</time></trkpt><trkpt lat="44.74916643273084" lon="14.904511495730857"><ele>235.0</ele><time>2026-05-01T09:47:18Z</time></trkpt><trkpt lat="44.74900676978939" lon="14.904752399179877"><ele>235.0</ele><time>2026-05-01T09:47:19Z</time></trkpt><trkpt lat="44.74883253687408" lon="14.904963486946196"><ele>235.0</ele><time>2026-05-01T09:47:20Z</time></trkpt><trkpt lat="44.74863106406405" lon="14.905128766279532"><ele>237.0</ele><time>2026-05-01T09:47:21Z</time></trkpt><trkpt lat="44.74841662522826" lon="14.905243058908919"><ele>239.0</ele><time>2026-05-01T09:47:22Z</time></trkpt><trkpt lat="44.74819314993102" lon="14.905336979510913"><ele>239.0</ele><time>2026-05-01T09:47:23Z</time></trkpt><trkpt lat="44.74796631720341" lon="14.905432269164091"><ele>239.0</ele><time>2026-05-01T09:47:24Z</time></trkpt><trkpt lat="44.74776483268716" lon="14.905577873082478"><ele>239.0</ele><time>2026-05-01T09:47:25Z</time></trkpt><trkpt lat="44.747591556197925" lon="14.905778007332351"><ele>239.0</ele><time>2026-05-01T09:47:26Z</time></trkpt><trkpt lat="44.7474324995918" lon="14.90602168554805"><ele>239.0</ele><time>2026-05-01T09:47:27Z</time></trkpt><trkpt lat="44.747279268119186" lon="14.9062852305949"><ele>239.0</ele><time>2026-05-01T09:47:28Z</time></trkpt><trkpt lat="44.747122675720156" lon="14.906537856361327"><ele>235.0</ele><time>2026-05-01T09:47:29Z</time></trkpt><trkpt lat="44.74696090844848" lon="14.906776343637777"><ele>231.0</ele><time>2026-05-01T09:47:30Z</time></trkpt><trkpt lat="44.74679464024683" lon="14.907015390425201"><ele>231.0</ele><time>2026-05-01T09:47:31Z</time></trkpt><trkpt lat="44.74662888588112" lon="14.907262176935204"><ele>231.0</ele><time>2026-05-01T09:47:32Z</time></trkpt><trkpt lat="44.74646866933955" lon="14.907513264671298"><ele>236.5</ele><time>2026-05-01T09:47:33Z</time></trkpt><trkpt lat="44.74631019502665" lon="14.907772390066189"><ele>242.0</ele><time>2026-05-01T09:47:34Z</time></trkpt><trkpt lat="44.7461658733685" lon="14.908059918287993"><ele>242.0</ele><time>2026-05-01T09:47:35Z</time></trkpt><trkpt lat="44.74604996502009" lon="14.908381485812615"><ele>242.0</ele><time>2026-05-01T09:47:36Z</time></trkpt><trkpt lat="44.74595886946322" lon="14.908727047776686"><ele>242.5</ele><time>2026-05-01T09:47:37Z</time></trkpt><trkpt lat="44.74586576000047" lon="14.909076909246023"><ele>243.0</ele><time>2026-05-01T09:47:38Z</time></trkpt><trkpt lat="44.74576412844033" lon="14.909417372832614"><ele>243.0</ele><time>2026-05-01T09:47:39Z</time></trkpt><trkpt lat="44.745646614143524" lon="14.909734886808232"><ele>243.0</ele><time>2026-05-01T09:47:40Z</time></trkpt><trkpt lat="44.74550988735049" lon="14.910020415400178"><ele>242.0</ele><time>2026-05-01T09:47:41Z</time></trkpt><trkpt lat="44.745349680375405" lon="14.910283260588209"><ele>241.0</ele><time>2026-05-01T09:47:42Z</time></trkpt><trkpt lat="44.74517102111669" lon="14.910524084564402"><ele>241.0</ele><time>2026-05-01T09:47:43Z</time></trkpt><trkpt lat="44.74498451067084" lon="14.910752339678712"><ele>241.0</ele><time>2026-05-01T09:47:44Z</time></trkpt><trkpt lat="44.74477954221317" lon="14.910980083391529"><ele>241.5</ele><time>2026-05-01T09:47:45Z</time></trkpt><trkpt lat="44.74453742582808" lon="14.911199255568544"><ele>242.0</ele><time>2026-05-01T09:47:46Z</time></trkpt><trkpt lat="44.74426327258842" lon="14.911381470975428"><ele>242.0</ele><time>2026-05-01T09:47:47Z</time></trkpt><trkpt lat="44.74396594414056" lon="14.911517152329433"><ele>242.0</ele><time>2026-05-01T09:47:48Z</time></trkpt><trkpt lat="44.7436488329155" lon="14.911626406788342"><ele>247.0</ele><time>2026-05-01T09:47:49Z</time></trkpt><trkpt lat="44.743309114588335" lon="14.91174219661586"><ele>252.0</ele><time>2026-05-01T09:47:50Z</time></trkpt><trkpt lat="44.74294254643331" lon="14.911876947954223"><ele>248.0</ele><time>2026-05-01T09:47:51Z</time></trkpt><trkpt lat="44.74256469612884" lon="14.91202260754159"><ele>244.0</ele><time>2026-05-01T09:47:52Z</time></trkpt><trkpt lat="44.742179880286024" lon="14.91216882786067"><ele>240.5</ele><time>2026-05-01T09:47:53Z</time></trkpt><trkpt lat="44.741825654039346" lon="14.912305790569441"><ele>237.0</ele><time>2026-05-01T09:47:54Z</time></trkpt><trkpt lat="44.74150971869842" lon="14.912423629801163"><ele>237.0</ele><time>2026-05-01T09:47:55Z</time></trkpt><trkpt lat="44.74120840668058" lon="14.912534514716752"><ele>237.0</ele><time>2026-05-01T09:47:56Z</time></trkpt><trkpt lat="44.74092563707923" lon="14.912626987919339"><ele>243.5</ele><time>2026-05-01T09:47:57Z</time></trkpt><trkpt lat="44.740644278073106" lon="14.912703677632944"><ele>250.0</ele><time>2026-05-01T09:47:58Z</time></trkpt><trkpt lat="44.74036473140771" lon="14.912747798953703"><ele>249.0</ele><time>2026-05-01T09:47:59Z</time></trkpt><trkpt lat="44.740086265878475" lon="14.912767345410138"><ele>248.0</ele><time>2026-05-01T09:48:00Z</time></trkpt><trkpt lat="44.73981408762734" lon="14.912762614879892"><ele>248.0</ele><time>2026-05-01T09:48:01Z</time></trkpt><trkpt lat="44.73954566379805" lon="14.912741284137702"><ele>248.0</ele><time>2026-05-01T09:48:02Z</time></trkpt><trkpt lat="44.739285714089156" lon="14.91271041336548"><ele>247.5</ele><time>2026-05-01T09:48:03Z</time></trkpt><trkpt lat="44.73904590206697" lon="14.912686607028833"><ele>247.0</ele><time>2026-05-01T09:48:04Z</time></trkpt><trkpt lat="44.73882951397015" lon="14.912696640763187"><ele>247.0</ele><time>2026-05-01T09:48:05Z</time></trkpt><trkpt lat="44.73864148898305" lon="14.912760360349191"><ele>247.0</ele><time>2026-05-01T09:48:06Z</time></trkpt><trkpt lat="44.73847403472997" lon="14.912877000795495"><ele>247.0</ele><time>2026-05-01T09:48:07Z</time></trkpt><trkpt lat="44.73831170809997" lon="14.913044576530629"><ele>249.0</ele><time>2026-05-01T09:48:08Z</time></trkpt><trkpt lat="44.738163029216786" lon="14.913261710628761"><ele>251.0</ele><time>2026-05-01T09:48:09Z</time></trkpt><trkpt lat="44.73804162585325" lon="14.91350366834556"><ele>253.0</ele><time>2026-05-01T09:48:10Z</time></trkpt><trkpt lat="44.73796182351536" lon="14.913757633765716"><ele>253.0</ele><time>2026-05-01T09:48:11Z</time></trkpt><trkpt lat="44.73791925251826" lon="14.913994699522426"><ele>253.0</ele><time>2026-05-01T09:48:12Z</time></trkpt><trkpt lat="44.737884669844846" lon="14.91420488191451"><ele>253.0</ele><time>2026-05-01T09:48:13Z</time></trkpt><trkpt lat="44.737831705890024" lon="14.9144056959177"><ele>249.0</ele><time>2026-05-01T09:48:14Z</time></trkpt><trkpt lat="44.737753849765745" lon="14.914585087040466"><ele>245.0</ele><time>2026-05-01T09:48:15Z</time></trkpt><trkpt lat="44.7376522173314" lon="14.914745511024222"><ele>241.0</ele><time>2026-05-01T09:48:16Z</time></trkpt><trkpt lat="44.73752614941088" lon="14.914890088170054"><ele>241.0</ele><time>2026-05-01T09:48:17Z</time></trkpt><trkpt lat="44.73737838873604" lon="14.914993609215694"><ele>241.0</ele><time>2026-05-01T09:48:18Z</time></trkpt><trkpt lat="44.73721067959816" lon="14.915032618500826"><ele>241.0</ele><time>2026-05-01T09:48:19Z</time></trkpt><trkpt lat="44.737035761070665" lon="14.915020947053543"><ele>238.66666666666666</ele><time>2026-05-01T09:48:20Z</time></trkpt><trkpt lat="44.736860836872076" lon="14.914957128531348"><ele>236.33333333333331</ele><time>2026-05-01T09:48:21Z</time></trkpt><trkpt lat="44.7366855749857" lon="14.914840589361189"><ele>234.0</ele><time>2026-05-01T09:48:22Z</time></trkpt><trkpt lat="44.73651569289099" lon="14.914666998390071"><ele>234.0</ele><time>2026-05-01T09:48:23Z</time></trkpt><trkpt lat="44.73632669998993" lon="14.914459931171015"><ele>234.0</ele><time>2026-05-01T09:48:24Z</time></trkpt><trkpt lat="44.736119445216" lon="14.914251581190177"><ele>233.5</ele><time>2026-05-01T09:48:25Z</time></trkpt><trkpt lat="44.73591797331585" lon="14.914082277236439"><ele>233.0</ele><time>2026-05-01T09:48:26Z</time></trkpt><trkpt lat="44.735690106298605" lon="14.913942091831043"><ele>233.0</ele><time>2026-05-01T09:48:27Z</time></trkpt><trkpt lat="44.735455361502375" lon="14.913884230048495"><ele>233.0</ele><time>2026-05-01T09:48:28Z</time></trkpt><trkpt lat="44.73523048324156" lon="14.913903114894012"><ele>235.0</ele><time>2026-05-01T09:48:29Z</time></trkpt><trkpt lat="44.735002715825686" lon="14.913965198373843"><ele>237.0</ele><time>2026-05-01T09:48:30Z</time></trkpt><trkpt lat="44.734777147972025" lon="14.91406761243506"><ele>237.0</ele><time>2026-05-01T09:48:31Z</time></trkpt><trkpt lat="44.734553531055454" lon="14.914213008204603"><ele>237.0</ele><time>2026-05-01T09:48:32Z</time></trkpt><trkpt lat="44.73434375575115" lon="14.914370799998037"><ele>240.0</ele><time>2026-05-01T09:48:33Z</time></trkpt><trkpt lat="44.73411806611911" lon="14.914536064427178"><ele>243.0</ele><time>2026-05-01T09:48:34Z</time></trkpt><trkpt lat="44.73386603740787" lon="14.914714849629787"><ele>243.0</ele><time>2026-05-01T09:48:35Z</time></trkpt><trkpt lat="44.73360206920409" lon="14.914892047145964"><ele>243.0</ele><time>2026-05-01T09:48:36Z</time></trkpt><trkpt lat="44.7333419263292" lon="14.915059710986203"><ele>246.0</ele><time>2026-05-01T09:48:37Z</time></trkpt><trkpt lat="44.73307800559453" lon="14.915230587122783"><ele>249.0</ele><time>2026-05-01T09:48:38Z</time></trkpt><trkpt lat="44.7328115560879" lon="14.915402103951754"><ele>247.5</ele><time>2026-05-01T09:48:39Z</time></trkpt><trkpt lat="44.73255784534053" lon="14.915514259266182"><ele>246.0</ele><time>2026-05-01T09:48:40Z</time></trkpt><trkpt lat="44.73231841616346" lon="14.915571396859432"><ele>246.0</ele><time>2026-05-01T09:48:41Z</time></trkpt><trkpt lat="44.73208189985473" lon="14.9155762842404"><ele>246.0</ele><time>2026-05-01T09:48:42Z</time></trkpt><trkpt lat="44.73185405753908" lon="14.915532833494257"><ele>246.0</ele><time>2026-05-01T09:48:43Z</time></trkpt><trkpt lat="44.731630669945176" lon="14.915463157840804"><ele>246.0</ele><time>2026-05-01T09:48:44Z</time></trkpt><trkpt lat="44.731409474235754" lon="14.915371223922845"><ele>246.0</ele><time>2026-05-01T09:48:45Z</time></trkpt><trkpt lat="44.73118873198527" lon="14.915263826745898"><ele>246.0</ele><time>2026-05-01T09:48:46Z</time></trkpt><trkpt lat="44.73096610524064" lon="14.915206058298388"><ele>251.33333333333331</ele><time>2026-05-01T09:48:47Z</time></trkpt><trkpt lat="44.73075647316152" lon="14.915218146530016"><ele>256.66666666666663</ele><time>2026-05-01T09:48:48Z</time></trkpt><trkpt lat="44.73055875190568" lon="14.91528180545541"><ele>262.0</ele><time>2026-05-01T09:48:49Z</time></trkpt><trkpt lat="44.730370488646685" lon="14.915399114678802"><ele>258.0</ele><time>2026-05-01T09:48:50Z</time></trkpt><trkpt lat="44.73019754999808" lon="14.915573756347897"><ele>254.0</ele><time>2026-05-01T09:48:51Z</time></trkpt><trkpt lat="44.73002505587172" lon="14.915745745026623"><ele>250.0</ele><time>2026-05-01T09:48:52Z</time></trkpt><trkpt lat="44.729842622693276" lon="14.915866021166817"><ele>249.66666666666666</ele><time>2026-05-01T09:48:53Z</time></trkpt><trkpt lat="44.729637066505916" lon="14.915938320335542"><ele>249.33333333333331</ele><time>2026-05-01T09:48:54Z</time></trkpt><trkpt lat="44.729409108821486" lon="14.915936382509985"><ele>249.0</ele><time>2026-05-01T09:48:55Z</time></trkpt><trkpt lat="44.72917602963728" lon="14.915876274625651"><ele>249.0</ele><time>2026-05-01T09:48:56Z</time></trkpt><trkpt lat="44.72895487437272" lon="14.915800653851589"><ele>249.0</ele><time>2026-05-01T09:48:57Z</time></trkpt><trkpt lat="44.728748893777386" lon="14.91579693756424"><ele>249.0</ele><time>2026-05-01T09:48:58Z</time></trkpt><trkpt lat="44.72852824287132" lon="14.91586619785114"><ele>257.5</ele><time>2026-05-01T09:48:59Z</time></trkpt><trkpt lat="44.728312381780114" lon="14.91599775077496"><ele>266.0</ele><time>2026-05-01T09:49:00Z</time></trkpt><trkpt lat="44.72810442050422" lon="14.916174320719719"><ele>266.0</ele><time>2026-05-01T09:49:01Z</time></trkpt><trkpt lat="44.72791162529716" lon="14.916350092471927"><ele>266.0</ele><time>2026-05-01T09:49:02Z</time></trkpt><trkpt lat="44.727686972345545" lon="14.916469644567307"><ele>259.0</ele><time>2026-05-01T09:49:03Z</time></trkpt><trkpt lat="44.727451296211996" lon="14.916530570453224"><ele>252.0</ele><time>2026-05-01T09:49:04Z</time></trkpt><trkpt lat="44.72721638122452" lon="14.916549246054545"><ele>252.0</ele><time>2026-05-01T09:49:05Z</time></trkpt><trkpt lat="44.72699076029897" lon="14.916513335556868"><ele>252.0</ele><time>2026-05-01T09:49:06Z</time></trkpt><trkpt lat="44.72677115199063" lon="14.916437269713526"><ele>255.0</ele><time>2026-05-01T09:49:07Z</time></trkpt><trkpt lat="44.726567349836564" lon="14.91630501221635"><ele>258.0</ele><time>2026-05-01T09:49:08Z</time></trkpt><trkpt lat="44.726373078512964" lon="14.91616446418482"><ele>261.0</ele><time>2026-05-01T09:49:09Z</time></trkpt><trkpt lat="44.72615698420321" lon="14.9160550866676"><ele>260.0</ele><time>2026-05-01T09:49:10Z</time></trkpt><trkpt lat="44.72594089212537" lon="14.915992108440374"><ele>259.0</ele><time>2026-05-01T09:49:11Z</time></trkpt><trkpt lat="44.7257212748181" lon="14.915965650806559"><ele>258.0</ele><time>2026-05-01T09:49:12Z</time></trkpt><trkpt lat="44.72550382623748" lon="14.915949757748562"><ele>258.0</ele><time>2026-05-01T09:49:13Z</time></trkpt><trkpt lat="44.725278433357175" lon="14.915942551720262"><ele>258.0</ele><time>2026-05-01T09:49:14Z</time></trkpt><trkpt lat="44.72504796437534" lon="14.91596418823298"><ele>256.5</ele><time>2026-05-01T09:49:15Z</time></trkpt><trkpt lat="44.72482093912077" lon="14.916027157269003"><ele>255.0</ele><time>2026-05-01T09:49:16Z</time></trkpt><trkpt lat="44.7245895177338" lon="14.91613061314148"><ele>254.0</ele><time>2026-05-01T09:49:17Z</time></trkpt><trkpt lat="44.72436810870107" lon="14.916252192037387"><ele>253.0</ele><time>2026-05-01T09:49:18Z</time></trkpt><trkpt lat="44.724162522020315" lon="14.916385997838626"><ele>253.0</ele><time>2026-05-01T09:49:19Z</time></trkpt><trkpt lat="44.72396823798407" lon="14.916533038974457"><ele>253.0</ele><time>2026-05-01T09:49:20Z</time></trkpt><trkpt lat="44.72378647556612" lon="14.916687987881145"><ele>253.0</ele><time>2026-05-01T09:49:21Z</time></trkpt><trkpt lat="44.723612331110736" lon="14.916834810949275"><ele>255.33333333333331</ele><time>2026-05-01T09:49:22Z</time></trkpt><trkpt lat="44.72344656811616" lon="14.916961278552725"><ele>257.6666666666667</ele><time>2026-05-01T09:49:23Z</time></trkpt><trkpt lat="44.72328648600486" lon="14.917067707261305"><ele>260.0</ele><time>2026-05-01T09:49:24Z</time></trkpt><trkpt lat="44.72313241323891" lon="14.917157810178976"><ele>260.0</ele><time>2026-05-01T09:49:25Z</time></trkpt><trkpt lat="44.72298713219513" lon="14.917231528373465"><ele>260.0</ele><time>2026-05-01T09:49:26Z</time></trkpt><trkpt lat="44.72284168293212" lon="14.917302026867567"><ele>260.0</ele><time>2026-05-01T09:49:27Z</time></trkpt><trkpt lat="44.72269904805989" lon="14.917370707418819"><ele>262.0</ele><time>2026-05-01T09:49:28Z</time></trkpt><trkpt lat="44.72256209094832" lon="14.917437742865083"><ele>264.0</ele><time>2026-05-01T09:49:29Z</time></trkpt><trkpt lat="44.72241680761976" lon="14.917508774534948"><ele>266.0</ele><time>2026-05-01T09:49:30Z</time></trkpt><trkpt lat="44.72228044269664" lon="14.917574018533356"><ele>268.0</ele><time>2026-05-01T09:49:31Z</time></trkpt><trkpt lat="44.72215418472782" lon="14.917638811231178"><ele>268.0</ele><time>2026-05-01T09:49:32Z</time></trkpt><trkpt lat="44.72202572380144" lon="14.917708601577194"><ele>268.0</ele><time>2026-05-01T09:49:33Z</time></trkpt><trkpt lat="44.72189858384013" lon="14.917797729832028"><ele>268.0</ele><time>2026-05-01T09:49:34Z</time></trkpt><trkpt lat="44.721773768449964" lon="14.917910893983056"><ele>268.0</ele><time>2026-05-01T09:49:35Z</time></trkpt><trkpt lat="44.72164702655797" lon="14.918041142842835"><ele>268.66666666666663</ele><time>2026-05-01T09:49:36Z</time></trkpt><trkpt lat="44.72151794326562" lon="14.918182969561895"><ele>269.3333333333333</ele><time>2026-05-01T09:49:37Z</time></trkpt><trkpt lat="44.721393604112585" lon="14.918321989074645"><ele>270.0</ele><time>2026-05-01T09:49:38Z</time></trkpt><trkpt lat="44.72128031304245" lon="14.918449252930943"><ele>270.0</ele><time>2026-05-01T09:49:39Z</time></trkpt><trkpt lat="44.72118128850019" lon="14.91857115903867"><ele>270.0</ele><time>2026-05-01T09:49:40Z</time></trkpt><trkpt lat="44.72108296942038" lon="14.918685326327275"><ele>270.0</ele><time>2026-05-01T09:49:41Z</time></trkpt><trkpt lat="44.72098389349387" lon="14.91879088818215"><ele>270.0</ele><time>2026-05-01T09:49:42Z</time></trkpt><trkpt lat="44.72087873297339" lon="14.918886842930261"><ele>264.75</ele><time>2026-05-01T09:49:43Z</time></trkpt><trkpt lat="44.72076492542445" lon="14.91896535587109"><ele>259.5</ele><time>2026-05-01T09:49:44Z</time></trkpt><trkpt lat="44.720648620549746" lon="14.91902207470034"><ele>254.25</ele><time>2026-05-01T09:49:45Z</time></trkpt><trkpt lat="44.72053230095491" lon="14.919081336915571"><ele>249.0</ele><time>2026-05-01T09:49:46Z</time></trkpt><trkpt lat="44.72041541323477" lon="14.919133148417595"><ele>249.0</ele><time>2026-05-01T09:49:47Z</time></trkpt><trkpt lat="44.72028613693398" lon="14.919168971747549"><ele>249.0</ele><time>2026-05-01T09:49:48Z</time></trkpt><trkpt lat="44.72014454621759" lon="14.919192411250515"><ele>249.0</ele><time>2026-05-01T09:49:49Z</time></trkpt><trkpt lat="44.7199937249079" lon="14.919215742971828"><ele>249.0</ele><time>2026-05-01T09:49:50Z</time></trkpt><trkpt lat="44.71984165751037" lon="14.919238087592053"><ele>250.66666666666669</ele><time>2026-05-01T09:49:51Z</time></trkpt><trkpt lat="44.71969360875323" lon="14.919271832730699"><ele>252.33333333333334</ele><time>2026-05-01T09:49:52Z</time></trkpt><trkpt lat="44.71953555866745" lon="14.919306673924712"><ele>254.0</ele><time>2026-05-01T09:49:53Z</time></trkpt><trkpt lat="44.719363556461275" lon="14.919353662812393"><ele>254.0</ele><time>2026-05-01T09:49:54Z</time></trkpt><trkpt lat="44.719180166905915" lon="14.919427391835914"><ele>254.0</ele><time>2026-05-01T09:49:55Z</time></trkpt><trkpt lat="44.71898475506319" lon="14.919526546086102"><ele>254.0</ele><time>2026-05-01T09:49:56Z</time></trkpt><trkpt lat="44.71879423503008" lon="14.919620582431744"><ele>254.0</ele><time>2026-05-01T09:49:57Z</time></trkpt><trkpt lat="44.71860515002404" lon="14.919699843971713"><ele>254.0</ele><time>2026-05-01T09:49:58Z</time></trkpt><trkpt lat="44.718422830538394" lon="14.919773035333465"><ele>254.0</ele><time>2026-05-01T09:49:59Z</time></trkpt><trkpt lat="44.71823519266695" lon="14.919844255770863"><ele>252.33333333333334</ele><time>2026-05-01T09:50:00Z</time></trkpt><trkpt lat="44.71805065704994" lon="14.91991668112776"><ele>250.66666666666669</ele><time>2026-05-01T09:50:01Z</time></trkpt><trkpt lat="44.717884825527086" lon="14.919968544352304"><ele>249.0</ele><time>2026-05-01T09:50:02Z</time></trkpt><trkpt lat="44.71773009022453" lon="14.919983469543277"><ele>247.25</ele><time>2026-05-01T09:50:03Z</time></trkpt><trkpt lat="44.717577809314676" lon="14.919957278247272"><ele>245.5</ele><time>2026-05-01T09:50:04Z</time></trkpt><trkpt lat="44.71744060746448" lon="14.91988180665145"><ele>243.75</ele><time>2026-05-01T09:50:05Z</time></trkpt><trkpt lat="44.71731763058258" lon="14.919769324197107"><ele>242.0</ele><time>2026-05-01T09:50:06Z</time></trkpt><trkpt lat="44.71721602823113" lon="14.919617240752821"><ele>242.0</ele><time>2026-05-01T09:50:07Z</time></trkpt><trkpt lat="44.71714371998135" lon="14.919431846207575"><ele>242.0</ele><time>2026-05-01T09:50:08Z</time></trkpt><trkpt lat="44.717093446874664" lon="14.919228962187441"><ele>242.0</ele><time>2026-05-01T09:50:09Z</time></trkpt><trkpt lat="44.71706151556621" lon="14.919010244693727"><ele>240.0</ele><time>2026-05-01T09:50:10Z</time></trkpt><trkpt lat="44.71704516970871" lon="14.918784858307806"><ele>238.0</ele><time>2026-05-01T09:50:11Z</time></trkpt><trkpt lat="44.71703511446137" lon="14.918564403349109"><ele>236.0</ele><time>2026-05-01T09:50:12Z</time></trkpt><trkpt lat="44.71702243431497" lon="14.918344452935363"><ele>236.0</ele><time>2026-05-01T09:50:13Z</time></trkpt><trkpt lat="44.716997896568905" lon="14.918126349339307"><ele>236.0</ele><time>2026-05-01T09:50:14Z</time></trkpt><trkpt lat="44.716961824993774" lon="14.917914271162658"><ele>236.0</ele><time>2026-05-01T09:50:15Z</time></trkpt><trkpt lat="44.71691496842297" lon="14.917715175750393"><ele>239.66666666666669</ele><time>2026-05-01T09:50:16Z</time></trkpt><trkpt lat="44.716848495735746" lon="14.917545097739643"><ele>243.33333333333331</ele><time>2026-05-01T09:50:17Z</time></trkpt><trkpt lat="44.71675434373356" lon="14.917374067424294"><ele>247.0</ele><time>2026-05-01T09:50:18Z</time></trkpt><trkpt lat="44.71663299714768" lon="14.917214228625925"><ele>247.0</ele><time>2026-05-01T09:50:19Z</time></trkpt><trkpt lat="44.71649551041235" lon="14.91707970118692"><ele>247.0</ele><time>2026-05-01T09:50:20Z</time></trkpt><trkpt lat="44.71635944931537" lon="14.91697995538999"><ele>247.0</ele><time>2026-05-01T09:50:21Z</time></trkpt><trkpt lat="44.71622048392573" lon="14.916909275175502"><ele>247.0</ele><time>2026-05-01T09:50:22Z</time></trkpt><trkpt lat="44.71608361904855" lon="14.916865228498118"><ele>247.0</ele><time>2026-05-01T09:50:23Z</time></trkpt><trkpt lat="44.71594161936672" lon="14.916854925264088"><ele>247.0</ele><time>2026-05-01T09:50:24Z</time></trkpt><trkpt lat="44.715803537326224" lon="14.916870489901305"><ele>247.0</ele><time>2026-05-01T09:50:25Z</time></trkpt><trkpt lat="44.71567041224703" lon="14.916908891307644"><ele>246.75</ele><time>2026-05-01T09:50:26Z</time></trkpt><trkpt lat="44.71553978547474" lon="14.916956353325784"><ele>246.5</ele><time>2026-05-01T09:50:27Z</time></trkpt><trkpt lat="44.71541815943372" lon="14.91701199141343"><ele>246.25</ele><time>2026-05-01T09:50:28Z</time></trkpt><trkpt lat="44.715290502443885" lon="14.917081239832765"><ele>246.0</ele><time>2026-05-01T09:50:29Z</time></trkpt><trkpt lat="44.71516905446205" lon="14.917137394234384"><ele>246.0</ele><time>2026-05-01T09:50:30Z</time></trkpt><trkpt lat="44.71505170302739" lon="14.917190238178225"><ele>246.00000000000003</ele><time>2026-05-01T09:50:31Z</time></trkpt><trkpt lat="44.71494001458885" lon="14.91723575753918"><ele>246.00000000000003</ele><time>2026-05-01T09:50:32Z</time></trkpt><trkpt lat="44.714834447034846" lon="14.917278794571613"><ele>246.0</ele><time>2026-05-01T09:50:33Z</time></trkpt><trkpt lat="44.7147434732143" lon="14.917320096258267"><ele>246.0</ele><time>2026-05-01T09:50:34Z</time></trkpt><trkpt lat="44.714670481671035" lon="14.917349978888653"><ele>246.0</ele><time>2026-05-01T09:50:35Z</time></trkpt><trkpt lat="44.714562351077355" lon="14.917399576297335"><ele>246.0</ele><time>2026-05-01T09:50:37Z</time></trkpt><trkpt lat="44.714499152706836" lon="14.917423691351269"><ele>246.0</ele><time>2026-05-01T09:50:38Z</time></trkpt><trkpt lat="44.71443055916032" lon="14.917449098185982"><ele>246.0</ele><time>2026-05-01T09:50:39Z</time></trkpt><trkpt lat="44.71436330156813" lon="14.917475106205156"><ele>246.0</ele><time>2026-05-01T09:50:40Z</time></trkpt><trkpt lat="44.71428640723039" lon="14.917507297320904"><ele>246.0</ele><time>2026-05-01T09:50:41Z</time></trkpt><trkpt lat="44.714199778728826" lon="14.917544548060706"><ele>247.8</ele><time>2026-05-01T09:50:42Z</time></trkpt><trkpt lat="44.71411026024805" lon="14.917589375285427"><ele>249.60000000000002</ele><time>2026-05-01T09:50:43Z</time></trkpt><trkpt lat="44.71401055280973" lon="14.91765054873799"><ele>251.4</ele><time>2026-05-01T09:50:44Z</time></trkpt><trkpt lat="44.7139011820004" lon="14.917717197734573"><ele>253.2</ele><time>2026-05-01T09:50:45Z</time></trkpt><trkpt lat="44.71378483561125" lon="14.917783891825932"><ele>255.0</ele><time>2026-05-01T09:50:46Z</time></trkpt><trkpt lat="44.713655687920024" lon="14.9178562255662"><ele>251.66666666666669</ele><time>2026-05-01T09:50:47Z</time></trkpt><trkpt lat="44.71351787760345" lon="14.917937749837904"><ele>248.33333333333334</ele><time>2026-05-01T09:50:48Z</time></trkpt><trkpt lat="44.713377441121416" lon="14.918030842731769"><ele>245.0</ele><time>2026-05-01T09:50:49Z</time></trkpt><trkpt lat="44.71322376836474" lon="14.918142744176393"><ele>245.0</ele><time>2026-05-01T09:50:50Z</time></trkpt><trkpt lat="44.71304745370539" lon="14.918272123012274"><ele>245.0</ele><time>2026-05-01T09:50:51Z</time></trkpt><trkpt lat="44.712830177732" lon="14.918427180040634"><ele>245.0</ele><time>2026-05-01T09:50:52Z</time></trkpt><trkpt lat="44.7125808813938" lon="14.918637118414614"><ele>244.0</ele><time>2026-05-01T09:50:53Z</time></trkpt><trkpt lat="44.712311786736926" lon="14.91889982282326"><ele>243.0</ele><time>2026-05-01T09:50:54Z</time></trkpt><trkpt lat="44.71203571647765" lon="14.919180865765235"><ele>242.5</ele><time>2026-05-01T09:50:55Z</time></trkpt><trkpt lat="44.711755594532434" lon="14.919441928314898"><ele>242.0</ele><time>2026-05-01T09:50:56Z</time></trkpt><trkpt lat="44.71149138572804" lon="14.919675885178787"><ele>242.0</ele><time>2026-05-01T09:50:57Z</time></trkpt><trkpt lat="44.71124609103269" lon="14.919894514459527"><ele>242.0</ele><time>2026-05-01T09:50:58Z</time></trkpt><trkpt lat="44.71100287792302" lon="14.920111596239694"><ele>242.5</ele><time>2026-05-01T09:50:59Z</time></trkpt><trkpt lat="44.710756817607475" lon="14.920329918162079"><ele>243.0</ele><time>2026-05-01T09:51:00Z</time></trkpt><trkpt lat="44.710505956210255" lon="14.920530171287627"><ele>243.0</ele><time>2026-05-01T09:51:01Z</time></trkpt><trkpt lat="44.710242149463795" lon="14.920677242905338"><ele>243.0</ele><time>2026-05-01T09:51:02Z</time></trkpt><trkpt lat="44.70996204898405" lon="14.920762065364542"><ele>240.5</ele><time>2026-05-01T09:51:03Z</time></trkpt><trkpt lat="44.70969921880074" lon="14.920799363521537"><ele>238.0</ele><time>2026-05-01T09:51:04Z</time></trkpt><trkpt lat="44.709443355220515" lon="14.920791936924791"><ele>236.5</ele><time>2026-05-01T09:51:05Z</time></trkpt><trkpt lat="44.70919174319215" lon="14.920735804079433"><ele>235.0</ele><time>2026-05-01T09:51:06Z</time></trkpt><trkpt lat="44.708962146819985" lon="14.920644027828626"><ele>235.0</ele><time>2026-05-01T09:51:07Z</time></trkpt><trkpt lat="44.708738263210606" lon="14.920527301767722"><ele>235.0</ele><time>2026-05-01T09:51:08Z</time></trkpt><trkpt lat="44.708516826198085" lon="14.92038853110403"><ele>238.0</ele><time>2026-05-01T09:51:09Z</time></trkpt><trkpt lat="44.70830483901338" lon="14.920232351684636"><ele>241.0</ele><time>2026-05-01T09:51:10Z</time></trkpt><trkpt lat="44.70809328339625" lon="14.920074953998236"><ele>241.0</ele><time>2026-05-01T09:51:11Z</time></trkpt><trkpt lat="44.70786994700305" lon="14.919916498609087"><ele>241.0</ele><time>2026-05-01T09:51:12Z</time></trkpt><trkpt lat="44.70764587211785" lon="14.919750266627675"><ele>241.0</ele><time>2026-05-01T09:51:13Z</time></trkpt><trkpt lat="44.707425391341644" lon="14.919587060573837"><ele>241.0</ele><time>2026-05-01T09:51:14Z</time></trkpt><trkpt lat="44.70720237765669" lon="14.919426346912534"><ele>241.0</ele><time>2026-05-01T09:51:15Z</time></trkpt><trkpt lat="44.70698643562713" lon="14.919266957682929"><ele>241.0</ele><time>2026-05-01T09:51:16Z</time></trkpt><trkpt lat="44.706779256149076" lon="14.919118042975384"><ele>241.33333333333331</ele><time>2026-05-01T09:51:17Z</time></trkpt><trkpt lat="44.70657503842446" lon="14.91898867970052"><ele>241.66666666666669</ele><time>2026-05-01T09:51:18Z</time></trkpt><trkpt lat="44.70637076828179" lon="14.918883784362784"><ele>242.0</ele><time>2026-05-01T09:51:19Z</time></trkpt><trkpt lat="44.706162264684586" lon="14.918831268611738"><ele>241.33333333333334</ele><time>2026-05-01T09:51:20Z</time></trkpt><trkpt lat="44.70594528256484" lon="14.918816177533605"><ele>240.66666666666669</ele><time>2026-05-01T09:51:21Z</time></trkpt><trkpt lat="44.70572332804495" lon="14.918820475811405"><ele>240.0</ele><time>2026-05-01T09:51:22Z</time></trkpt><trkpt lat="44.705493348182934" lon="14.918861374077924"><ele>240.0</ele><time>2026-05-01T09:51:23Z</time></trkpt><trkpt lat="44.705264630927545" lon="14.918928089278639"><ele>240.0</ele><time>2026-05-01T09:51:24Z</time></trkpt><trkpt lat="44.70504538465238" lon="14.919014856468296"><ele>240.33333333333331</ele><time>2026-05-01T09:51:25Z</time></trkpt><trkpt lat="44.70483860172241" lon="14.919134441360871"><ele>240.66666666666666</ele><time>2026-05-01T09:51:26Z</time></trkpt><trkpt lat="44.704644808069624" lon="14.919285855760107"><ele>241.0</ele><time>2026-05-01T09:51:27Z</time></trkpt><trkpt lat="44.70446438767649" lon="14.919457615083672"><ele>242.0</ele><time>2026-05-01T09:51:28Z</time></trkpt><trkpt lat="44.704298529385795" lon="14.91965237540825"><ele>243.0</ele><time>2026-05-01T09:51:29Z</time></trkpt><trkpt lat="44.704144146415864" lon="14.919870009525107"><ele>244.0</ele><time>2026-05-01T09:51:30Z</time></trkpt><trkpt lat="44.70400118743486" lon="14.920106030975628"><ele>244.0</ele><time>2026-05-01T09:51:31Z</time></trkpt><trkpt lat="44.70385890028074" lon="14.920351795888221"><ele>244.0</ele><time>2026-05-01T09:51:32Z</time></trkpt><trkpt lat="44.70370762460879" lon="14.920601972855295"><ele>243.5</ele><time>2026-05-01T09:51:33Z</time></trkpt><trkpt lat="44.70354019325345" lon="14.920879687936496"><ele>243.0</ele><time>2026-05-01T09:51:34Z</time></trkpt><trkpt lat="44.703352706708486" lon="14.921205992059683"><ele>242.5</ele><time>2026-05-01T09:51:35Z</time></trkpt><trkpt lat="44.703143020338985" lon="14.921557675733656"><ele>242.0</ele><time>2026-05-01T09:51:36Z</time></trkpt><trkpt lat="44.7029350326397" lon="14.921883829324205"><ele>242.0</ele><time>2026-05-01T09:51:37Z</time></trkpt><trkpt lat="44.70274362486325" lon="14.92217315136161"><ele>242.0</ele><time>2026-05-01T09:51:38Z</time></trkpt><trkpt lat="44.702570077271496" lon="14.922447918800346"><ele>243.0</ele><time>2026-05-01T09:51:39Z</time></trkpt><trkpt lat="44.702395258318184" lon="14.92270662213938"><ele>244.0</ele><time>2026-05-01T09:51:40Z</time></trkpt><trkpt lat="44.70221053581666" lon="14.922922711249063"><ele>244.0</ele><time>2026-05-01T09:51:41Z</time></trkpt><trkpt lat="44.70200130030243" lon="14.92309459397542"><ele>244.0</ele><time>2026-05-01T09:51:42Z</time></trkpt><trkpt lat="44.70178364370378" lon="14.923221863228088"><ele>244.0</ele><time>2026-05-01T09:51:43Z</time></trkpt><trkpt lat="44.70155560298511" lon="14.92330759389733"><ele>244.0</ele><time>2026-05-01T09:51:44Z</time></trkpt><trkpt lat="44.70132738394361" lon="14.923345134003517"><ele>244.0</ele><time>2026-05-01T09:51:45Z</time></trkpt><trkpt lat="44.70110202476644" lon="14.923342687319622"><ele>244.0</ele><time>2026-05-01T09:51:46Z</time></trkpt><trkpt lat="44.70088304454008" lon="14.923302274927087"><ele>244.0</ele><time>2026-05-01T09:51:47Z</time></trkpt><trkpt lat="44.7006669067671" lon="14.923227388951666"><ele>243.66666666666666</ele><time>2026-05-01T09:51:48Z</time></trkpt><trkpt lat="44.700461020169655" lon="14.923116015423396"><ele>243.33333333333331</ele><time>2026-05-01T09:51:49Z</time></trkpt><trkpt lat="44.700265621072646" lon="14.922972460970707"><ele>243.0</ele><time>2026-05-01T09:51:50Z</time></trkpt><trkpt lat="44.700081704249996" lon="14.922821232261724"><ele>242.66666666666669</ele><time>2026-05-01T09:51:51Z</time></trkpt><trkpt lat="44.69989573892345" lon="14.922675915556635"><ele>242.33333333333334</ele><time>2026-05-01T09:51:52Z</time></trkpt><trkpt lat="44.69971419036208" lon="14.92253102712949"><ele>242.0</ele><time>2026-05-01T09:51:53Z</time></trkpt><trkpt lat="44.69952775098988" lon="14.922386550115345"><ele>246.0</ele><time>2026-05-01T09:51:54Z</time></trkpt><trkpt lat="44.699342711034184" lon="14.922240614573276"><ele>250.0</ele><time>2026-05-01T09:51:55Z</time></trkpt><trkpt lat="44.699157122845925" lon="14.922097237515011"><ele>254.0</ele><time>2026-05-01T09:51:56Z</time></trkpt><trkpt lat="44.698971554317424" lon="14.921956389969326"><ele>254.0</ele><time>2026-05-01T09:51:57Z</time></trkpt><trkpt lat="44.698781140893246" lon="14.921825285922226"><ele>254.0</ele><time>2026-05-01T09:51:58Z</time></trkpt><trkpt lat="44.69857935535798" lon="14.921721402374816"><ele>254.0</ele><time>2026-05-01T09:51:59Z</time></trkpt><trkpt lat="44.698367301205494" lon="14.921652257730193"><ele>253.0</ele><time>2026-05-01T09:52:00Z</time></trkpt><trkpt lat="44.69815008436976" lon="14.921620789316032"><ele>252.0</ele><time>2026-05-01T09:52:01Z</time></trkpt><trkpt lat="44.69793645360378" lon="14.921630931265385"><ele>251.0</ele><time>2026-05-01T09:52:02Z</time></trkpt><trkpt lat="44.697722364702706" lon="14.921683892251673"><ele>253.66666666666669</ele><time>2026-05-01T09:52:03Z</time></trkpt><trkpt lat="44.69751452638623" lon="14.9217706209673"><ele>256.3333333333333</ele><time>2026-05-01T09:52:04Z</time></trkpt><trkpt lat="44.69732048388423" lon="14.921886499807956"><ele>259.0</ele><time>2026-05-01T09:52:05Z</time></trkpt><trkpt lat="44.69712910556647" lon="14.922029111168763"><ele>259.0</ele><time>2026-05-01T09:52:06Z</time></trkpt><trkpt lat="44.696924983872655" lon="14.922224534827155"><ele>259.0</ele><time>2026-05-01T09:52:07Z</time></trkpt><trkpt lat="44.69668760842323" lon="14.922453752010094"><ele>262.5</ele><time>2026-05-01T09:52:08Z</time></trkpt><trkpt lat="44.69641570150186" lon="14.922692039341825"><ele>266.0</ele><time>2026-05-01T09:52:09Z</time></trkpt><trkpt lat="44.69613245033411" lon="14.922925026802469"><ele>262.5</ele><time>2026-05-01T09:52:10Z</time></trkpt><trkpt lat="44.69587031443852" lon="14.92314086829832"><ele>259.0</ele><time>2026-05-01T09:52:11Z</time></trkpt><trkpt lat="44.695632177836494" lon="14.923331314669454"><ele>259.5</ele><time>2026-05-01T09:52:12Z</time></trkpt><trkpt lat="44.695410349874976" lon="14.923506758777751"><ele>260.0</ele><time>2026-05-01T09:52:13Z</time></trkpt><trkpt lat="44.69520245538652" lon="14.923670351403583"><ele>257.5</ele><time>2026-05-01T09:52:14Z</time></trkpt><trkpt lat="44.69500621830668" lon="14.923819801263742"><ele>255.0</ele><time>2026-05-01T09:52:15Z</time></trkpt><trkpt lat="44.694788961476824" lon="14.923972159264054"><ele>255.0</ele><time>2026-05-01T09:52:16Z</time></trkpt><trkpt lat="44.69454553368949" lon="14.924125926853131"><ele>255.0</ele><time>2026-05-01T09:52:17Z</time></trkpt><trkpt lat="44.69427727348606" lon="14.924262315539218"><ele>256.0</ele><time>2026-05-01T09:52:18Z</time></trkpt><trkpt lat="44.69400326008154" lon="14.92436382710406"><ele>257.0</ele><time>2026-05-01T09:52:19Z</time></trkpt><trkpt lat="44.6937544163726" lon="14.924451458104329"><ele>257.5</ele><time>2026-05-01T09:52:20Z</time></trkpt><trkpt lat="44.69353239333765" lon="14.924547942663054"><ele>258.0</ele><time>2026-05-01T09:52:21Z</time></trkpt><trkpt lat="44.69331607582765" lon="14.924653279201163"><ele>258.0</ele><time>2026-05-01T09:52:22Z</time></trkpt><trkpt lat="44.69311125148509" lon="14.924763346388888"><ele>258.0</ele><time>2026-05-01T09:52:23Z</time></trkpt><trkpt lat="44.69292289756731" lon="14.924892315320983"><ele>258.0</ele><time>2026-05-01T09:52:24Z</time></trkpt><trkpt lat="44.69275834332643" lon="14.925046129080577"><ele>258.0</ele><time>2026-05-01T09:52:25Z</time></trkpt><trkpt lat="44.69261308194335" lon="14.92521128143323"><ele>258.0</ele><time>2026-05-01T09:52:26Z</time></trkpt><trkpt lat="44.69246550027331" lon="14.925401644021544"><ele>258.0</ele><time>2026-05-01T09:52:27Z</time></trkpt><trkpt lat="44.69230016431714" lon="14.925655105388499"><ele>257.5</ele><time>2026-05-01T09:52:28Z</time></trkpt><trkpt lat="44.69211090938072" lon="14.925952573414712"><ele>257.0</ele><time>2026-05-01T09:52:29Z</time></trkpt><trkpt lat="44.69191794509166" lon="14.926266703485597"><ele>257.0</ele><time>2026-05-01T09:52:30Z</time></trkpt><trkpt lat="44.69175074470147" lon="14.926551056749213"><ele>257.0</ele><time>2026-05-01T09:52:31Z</time></trkpt><trkpt lat="44.691600560070725" lon="14.926804646254023"><ele>259.0</ele><time>2026-05-01T09:52:32Z</time></trkpt><trkpt lat="44.69145427802205" lon="14.92703860330641"><ele>261.0</ele><time>2026-05-01T09:52:33Z</time></trkpt><trkpt lat="44.69130927071503" lon="14.92725901068755"><ele>263.0</ele><time>2026-05-01T09:52:34Z</time></trkpt><trkpt lat="44.69116196825631" lon="14.927490561510172"><ele>266.5</ele><time>2026-05-01T09:52:35Z</time></trkpt><trkpt lat="44.690998827361284" lon="14.927741603725277"><ele>270.0</ele><time>2026-05-01T09:52:36Z</time></trkpt><trkpt lat="44.690808267296084" lon="14.927987962201792"><ele>270.0</ele><time>2026-05-01T09:52:37Z</time></trkpt><trkpt lat="44.69060258120708" lon="14.928213081785593"><ele>270.0</ele><time>2026-05-01T09:52:38Z</time></trkpt><trkpt lat="44.69039777657399" lon="14.928430101277296"><ele>271.0</ele><time>2026-05-01T09:52:39Z</time></trkpt><trkpt lat="44.69019147688931" lon="14.928650269202787"><ele>272.0</ele><time>2026-05-01T09:52:40Z</time></trkpt><trkpt lat="44.68998124671923" lon="14.928862987206173"><ele>272.0</ele><time>2026-05-01T09:52:41Z</time></trkpt><trkpt lat="44.68977339518097" lon="14.929067433878732"><ele>272.0</ele><time>2026-05-01T09:52:42Z</time></trkpt><trkpt lat="44.689559589920954" lon="14.92928788635853"><ele>273.5</ele><time>2026-05-01T09:52:43Z</time></trkpt><trkpt lat="44.689332070597125" lon="14.929531789873158"><ele>275.0</ele><time>2026-05-01T09:52:44Z</time></trkpt><trkpt lat="44.689102340827034" lon="14.929764107743283"><ele>275.0</ele><time>2026-05-01T09:52:45Z</time></trkpt><trkpt lat="44.68887786358181" lon="14.929980385441661"><ele>275.0</ele><time>2026-05-01T09:52:46Z</time></trkpt><trkpt lat="44.6886643648937" lon="14.930193698430646"><ele>275.5</ele><time>2026-05-01T09:52:47Z</time></trkpt><trkpt lat="44.68844363239265" lon="14.93042537727568"><ele>276.0</ele><time>2026-05-01T09:52:48Z</time></trkpt><trkpt lat="44.68821190823901" lon="14.930670315061136"><ele>275.5</ele><time>2026-05-01T09:52:49Z</time></trkpt><trkpt lat="44.687972317076294" lon="14.9309114788542"><ele>275.0</ele><time>2026-05-01T09:52:50Z</time></trkpt><trkpt lat="44.687729326588936" lon="14.931143181607414"><ele>275.0</ele><time>2026-05-01T09:52:51Z</time></trkpt><trkpt lat="44.68749067695961" lon="14.931375501790818"><ele>275.0</ele><time>2026-05-01T09:52:52Z</time></trkpt><trkpt lat="44.68724913810371" lon="14.931616200289664"><ele>275.5</ele><time>2026-05-01T09:52:53Z</time></trkpt><trkpt lat="44.68701245809389" lon="14.93184822246811"><ele>276.0</ele><time>2026-05-01T09:52:54Z</time></trkpt><trkpt lat="44.68676759918319" lon="14.93207053766706"><ele>273.5</ele><time>2026-05-01T09:52:55Z</time></trkpt><trkpt lat="44.686503528514976" lon="14.932263511503354"><ele>271.0</ele><time>2026-05-01T09:52:56Z</time></trkpt><trkpt lat="44.68620983366122" lon="14.932423225973897"><ele>271.0</ele><time>2026-05-01T09:52:57Z</time></trkpt><trkpt lat="44.685898479667756" lon="14.932558761376294"><ele>271.0</ele><time>2026-05-01T09:52:58Z</time></trkpt><trkpt lat="44.68559329614833" lon="14.932694211980605"><ele>271.0</ele><time>2026-05-01T09:52:59Z</time></trkpt><trkpt lat="44.68531989529263" lon="14.93284577452338"><ele>271.0</ele><time>2026-05-01T09:53:00Z</time></trkpt><trkpt lat="44.685085696407796" lon="14.93303595072299"><ele>271.0</ele><time>2026-05-01T09:53:01Z</time></trkpt><trkpt lat="44.68487964168405" lon="14.933287860339817"><ele>271.0</ele><time>2026-05-01T09:53:02Z</time></trkpt><trkpt lat="44.68468151707159" lon="14.93359646998274"><ele>271.5</ele><time>2026-05-01T09:53:03Z</time></trkpt><trkpt lat="44.684486690571994" lon="14.933928739731623"><ele>272.0</ele><time>2026-05-01T09:53:04Z</time></trkpt><trkpt lat="44.68428326429484" lon="14.934255914820538"><ele>273.0</ele><time>2026-05-01T09:53:05Z</time></trkpt><trkpt lat="44.68407563267882" lon="14.934583450502124"><ele>274.0</ele><time>2026-05-01T09:53:06Z</time></trkpt><trkpt lat="44.68387861822593" lon="14.934887349925011"><ele>275.5</ele><time>2026-05-01T09:53:07Z</time></trkpt><trkpt lat="44.68368941661302" lon="14.935177190058925"><ele>277.0</ele><time>2026-05-01T09:53:08Z</time></trkpt><trkpt lat="44.683508277896706" lon="14.935455975340329"><ele>277.0</ele><time>2026-05-01T09:53:09Z</time></trkpt><trkpt lat="44.68333170568268" lon="14.935723895454993"><ele>277.0</ele><time>2026-05-01T09:53:10Z</time></trkpt><trkpt lat="44.683150075525575" lon="14.93597502766447"><ele>283.5</ele><time>2026-05-01T09:53:11Z</time></trkpt><trkpt lat="44.68296607840218" lon="14.936202465721712"><ele>290.0</ele><time>2026-05-01T09:53:12Z</time></trkpt><trkpt lat="44.682770774554" lon="14.936406749611402"><ele>287.6666666666667</ele><time>2026-05-01T09:53:13Z</time></trkpt><trkpt lat="44.682571519240376" lon="14.936582210607533"><ele>285.3333333333333</ele><time>2026-05-01T09:53:14Z</time></trkpt><trkpt lat="44.68238244668886" lon="14.936724187588409"><ele>283.0</ele><time>2026-05-01T09:53:15Z</time></trkpt><trkpt lat="44.68220140900119" lon="14.936836570498127"><ele>286.66666666666663</ele><time>2026-05-01T09:53:16Z</time></trkpt><trkpt lat="44.68202591725897" lon="14.936943274614833"><ele>290.3333333333333</ele><time>2026-05-01T09:53:17Z</time></trkpt><trkpt lat="44.6818430187102" lon="14.937065355179918"><ele>294.0</ele><time>2026-05-01T09:53:18Z</time></trkpt><trkpt lat="44.68165095494316" lon="14.937210248130052"><ele>294.0</ele><time>2026-05-01T09:53:19Z</time></trkpt><trkpt lat="44.681434791682456" lon="14.937386073227037"><ele>294.0</ele><time>2026-05-01T09:53:20Z</time></trkpt><trkpt lat="44.681191322368505" lon="14.937549620632906"><ele>302.0</ele><time>2026-05-01T09:53:21Z</time></trkpt><trkpt lat="44.680940437937494" lon="14.937701906187115"><ele>310.0</ele><time>2026-05-01T09:53:22Z</time></trkpt><trkpt lat="44.68069371062048" lon="14.937855439401336"><ele>310.0</ele><time>2026-05-01T09:53:23Z</time></trkpt><trkpt lat="44.680460836288574" lon="14.938014028724139"><ele>310.0</ele><time>2026-05-01T09:53:24Z</time></trkpt><trkpt lat="44.6802355839553" lon="14.938174158607398"><ele>312.5</ele><time>2026-05-01T09:53:25Z</time></trkpt><trkpt lat="44.680011686134854" lon="14.938343679708824"><ele>315.0</ele><time>2026-05-01T09:53:26Z</time></trkpt><trkpt lat="44.67979267355362" lon="14.938532469026256"><ele>315.0</ele><time>2026-05-01T09:53:27Z</time></trkpt><trkpt lat="44.67957769535599" lon="14.938742209303948"><ele>315.0</ele><time>2026-05-01T09:53:28Z</time></trkpt><trkpt lat="44.67936393309142" lon="14.938972123141042"><ele>316.5</ele><time>2026-05-01T09:53:29Z</time></trkpt><trkpt lat="44.6791528670317" lon="14.939229771104943"><ele>318.0</ele><time>2026-05-01T09:53:30Z</time></trkpt><trkpt lat="44.678943166812985" lon="14.939520129540607"><ele>318.0</ele><time>2026-05-01T09:53:31Z</time></trkpt><trkpt lat="44.67873399391016" lon="14.939812954919327"><ele>318.0</ele><time>2026-05-01T09:53:32Z</time></trkpt><trkpt lat="44.678534454750604" lon="14.940080780014643"><ele>314.0</ele><time>2026-05-01T09:53:33Z</time></trkpt><trkpt lat="44.67834482647205" lon="14.940328482860227"><ele>310.0</ele><time>2026-05-01T09:53:34Z</time></trkpt><trkpt lat="44.67816216005258" lon="14.940554755961795"><ele>310.0</ele><time>2026-05-01T09:53:35Z</time></trkpt><trkpt lat="44.677979877910715" lon="14.940752900637303"><ele>310.0</ele><time>2026-05-01T09:53:36Z</time></trkpt><trkpt lat="44.67778957737685" lon="14.940919635540512"><ele>310.66666666666663</ele><time>2026-05-01T09:53:37Z</time></trkpt><trkpt lat="44.6775984832291" lon="14.941058728137103"><ele>311.3333333333333</ele><time>2026-05-01T09:53:38Z</time></trkpt><trkpt lat="44.67741771035429" lon="14.941166891009775"><ele>312.0</ele><time>2026-05-01T09:53:39Z</time></trkpt><trkpt lat="44.677241683325654" lon="14.941250308403205"><ele>312.0</ele><time>2026-05-01T09:53:40Z</time></trkpt><trkpt lat="44.67706958309812" lon="14.94131061378881"><ele>312.0</ele><time>2026-05-01T09:53:41Z</time></trkpt><trkpt lat="44.67689210802394" lon="14.941361504507809"><ele>312.0</ele><time>2026-05-01T09:53:42Z</time></trkpt><trkpt lat="44.676721461392006" lon="14.94141771440304"><ele>307.0</ele><time>2026-05-01T09:53:43Z</time></trkpt><trkpt lat="44.67654861921657" lon="14.941476692151193"><ele>302.0</ele><time>2026-05-01T09:53:44Z</time></trkpt><trkpt lat="44.67635855616726" lon="14.9415423527996"><ele>297.0</ele><time>2026-05-01T09:53:45Z</time></trkpt><trkpt lat="44.67615044825971" lon="14.941601163109983"><ele>297.3333333333333</ele><time>2026-05-01T09:53:46Z</time></trkpt><trkpt lat="44.6759439939779" lon="14.941657477981291"><ele>297.66666666666663</ele><time>2026-05-01T09:53:47Z</time></trkpt><trkpt lat="44.67574574713917" lon="14.941708949558953"><ele>298.0</ele><time>2026-05-01T09:53:48Z</time></trkpt><trkpt lat="44.67554114167043" lon="14.941769389078946"><ele>300.5</ele><time>2026-05-01T09:53:49Z</time></trkpt><trkpt lat="44.675331977913324" lon="14.941844098955944"><ele>303.0</ele><time>2026-05-01T09:53:50Z</time></trkpt><trkpt lat="44.67510452645265" lon="14.941940868873159"><ele>303.0</ele><time>2026-05-01T09:53:51Z</time></trkpt><trkpt lat="44.674854144637536" lon="14.942057121379092"><ele>303.0</ele><time>2026-05-01T09:53:52Z</time></trkpt><trkpt lat="44.67460229004149" lon="14.94216783125412"><ele>298.0</ele><time>2026-05-01T09:53:53Z</time></trkpt><trkpt lat="44.674368100643846" lon="14.942268386299327"><ele>293.0</ele><time>2026-05-01T09:53:54Z</time></trkpt><trkpt lat="44.67415674825319" lon="14.942358048637427"><ele>293.0</ele><time>2026-05-01T09:53:55Z</time></trkpt><trkpt lat="44.67397084783277" lon="14.942439324530351"><ele>293.0</ele><time>2026-05-01T09:53:56Z</time></trkpt><trkpt lat="44.6737953826826" lon="14.94251320912483"><ele>293.0</ele><time>2026-05-01T09:53:57Z</time></trkpt><trkpt lat="44.673617203015766" lon="14.942581329214455"><ele>293.6666666666667</ele><time>2026-05-01T09:53:58Z</time></trkpt><trkpt lat="44.67341675239061" lon="14.942650408342203"><ele>294.3333333333333</ele><time>2026-05-01T09:53:59Z</time></trkpt><trkpt lat="44.673198237365874" lon="14.942722093667758"><ele>295.0</ele><time>2026-05-01T09:54:00Z</time></trkpt><trkpt lat="44.672983643343414" lon="14.942774334059662"><ele>295.0</ele><time>2026-05-01T09:54:01Z</time></trkpt><trkpt lat="44.67278656244185" lon="14.942799917926473"><ele>295.0</ele><time>2026-05-01T09:54:02Z</time></trkpt><trkpt lat="44.672598904196384" lon="14.942817801211367"><ele>295.0</ele><time>2026-05-01T09:54:03Z</time></trkpt><trkpt lat="44.67241186342797" lon="14.942840236573742"><ele>293.66666666666663</ele><time>2026-05-01T09:54:04Z</time></trkpt><trkpt lat="44.67223198150603" lon="14.942867469247158"><ele>292.3333333333333</ele><time>2026-05-01T09:54:05Z</time></trkpt><trkpt lat="44.672062013466316" lon="14.942902000516668"><ele>291.0</ele><time>2026-05-01T09:54:06Z</time></trkpt><trkpt lat="44.67190015325129" lon="14.942943408189647"><ele>289.3333333333333</ele><time>2026-05-01T09:54:07Z</time></trkpt><trkpt lat="44.6717465750235" lon="14.942997842170428"><ele>287.66666666666663</ele><time>2026-05-01T09:54:08Z</time></trkpt><trkpt lat="44.67159964051427" lon="14.94307848125868"><ele>286.0</ele><time>2026-05-01T09:54:09Z</time></trkpt><trkpt lat="44.67146044010104" lon="14.943187597154013"><ele>286.0</ele><time>2026-05-01T09:54:10Z</time></trkpt><trkpt lat="44.67133192892522" lon="14.943312530148837"><ele>286.0</ele><time>2026-05-01T09:54:11Z</time></trkpt><trkpt lat="44.671204878913926" lon="14.943437511068135"><ele>286.0</ele><time>2026-05-01T09:54:12Z</time></trkpt><trkpt lat="44.671075080482076" lon="14.943563001017933"><ele>286.3333333333333</ele><time>2026-05-01T09:54:13Z</time></trkpt><trkpt lat="44.67094345574278" lon="14.943678033384248"><ele>286.6666666666667</ele><time>2026-05-01T09:54:14Z</time></trkpt><trkpt lat="44.67080997528909" lon="14.943774787293329"><ele>287.0</ele><time>2026-05-01T09:54:15Z</time></trkpt><trkpt lat="44.67066634778535" lon="14.943844961816039"><ele>287.0</ele><time>2026-05-01T09:54:16Z</time></trkpt><trkpt lat="44.670505109754366" lon="14.943885993427145"><ele>287.0</ele><time>2026-05-01T09:54:17Z</time></trkpt><trkpt lat="44.670329466159316" lon="14.943896118481112"><ele>287.0</ele><time>2026-05-01T09:54:18Z</time></trkpt><trkpt lat="44.67013777989499" lon="14.943882804821722"><ele>281.5</ele><time>2026-05-01T09:54:19Z</time></trkpt><trkpt lat="44.669908487850634" lon="14.943835633523891"><ele>276.0</ele><time>2026-05-01T09:54:20Z</time></trkpt><trkpt lat="44.66967064171424" lon="14.943766195894044"><ele>276.0</ele><time>2026-05-01T09:54:21Z</time></trkpt><trkpt lat="44.66946332801397" lon="14.943705557328872"><ele>276.0</ele><time>2026-05-01T09:54:22Z</time></trkpt><trkpt lat="44.669278802963" lon="14.943653788404552"><ele>276.0</ele><time>2026-05-01T09:54:23Z</time></trkpt><trkpt lat="44.66910646257288" lon="14.943614201452627"><ele>275.6666666666667</ele><time>2026-05-01T09:54:24Z</time></trkpt><trkpt lat="44.66893372000159" lon="14.943580345861958"><ele>275.33333333333337</ele><time>2026-05-01T09:54:25Z</time></trkpt><trkpt lat="44.668755809224024" lon="14.943547009773432"><ele>275.0</ele><time>2026-05-01T09:54:26Z</time></trkpt><trkpt lat="44.66857484179493" lon="14.94352436583926"><ele>273.0</ele><time>2026-05-01T09:54:27Z</time></trkpt><trkpt lat="44.66839826833107" lon="14.94352099086006"><ele>271.0</ele><time>2026-05-01T09:54:28Z</time></trkpt><trkpt lat="44.66821924007302" lon="14.943540940455051"><ele>269.0</ele><time>2026-05-01T09:54:29Z</time></trkpt><trkpt lat="44.66805180807848" lon="14.943571512463476"><ele>269.0</ele><time>2026-05-01T09:54:30Z</time></trkpt><trkpt lat="44.66789205067216" lon="14.943620204819531"><ele>269.0</ele><time>2026-05-01T09:54:31Z</time></trkpt><trkpt lat="44.66772995328165" lon="14.94368022115011"><ele>269.0</ele><time>2026-05-01T09:54:32Z</time></trkpt><trkpt lat="44.66756285063477" lon="14.94376646761581"><ele>266.0</ele><time>2026-05-01T09:54:33Z</time></trkpt><trkpt lat="44.66739858975597" lon="14.9438647183753"><ele>263.0</ele><time>2026-05-01T09:54:34Z</time></trkpt><trkpt lat="44.66724220758981" lon="14.943979880295597"><ele>260.0</ele><time>2026-05-01T09:54:35Z</time></trkpt><trkpt lat="44.66709571690358" lon="14.944109358452794"><ele>259.0</ele><time>2026-05-01T09:54:36Z</time></trkpt><trkpt lat="44.666957719528" lon="14.944246367801453"><ele>258.0</ele><time>2026-05-01T09:54:37Z</time></trkpt><trkpt lat="44.66682576376804" lon="14.944394455312619"><ele>257.0</ele><time>2026-05-01T09:54:38Z</time></trkpt><trkpt lat="44.666710388119924" lon="14.944544001417356"><ele>257.0</ele><time>2026-05-01T09:54:39Z</time></trkpt><trkpt lat="44.66660485309562" lon="14.944703688642852"><ele>257.0</ele><time>2026-05-01T09:54:40Z</time></trkpt><trkpt lat="44.66650860486912" lon="14.94487328103183"><ele>257.0</ele><time>2026-05-01T09:54:41Z</time></trkpt><trkpt lat="44.66641967786717" lon="14.945041220671504"><ele>256.75</ele><time>2026-05-01T09:54:42Z</time></trkpt><trkpt lat="44.66635378805542" lon="14.94523358131434"><ele>256.5</ele><time>2026-05-01T09:54:43Z</time></trkpt><trkpt lat="44.66626487250381" lon="14.945397762255148"><ele>256.25</ele><time>2026-05-01T09:54:44Z</time></trkpt><trkpt lat="44.66617890629964" lon="14.94556287932971"><ele>256.0</ele><time>2026-05-01T09:54:45Z</time></trkpt><trkpt lat="44.66608843400557" lon="14.94572791977951"><ele>255.5</ele><time>2026-05-01T09:54:46Z</time></trkpt><trkpt lat="44.66597893393955" lon="14.945872483508998"><ele>255.0</ele><time>2026-05-01T09:54:47Z</time></trkpt><trkpt lat="44.66585625948058" lon="14.945975697188828"><ele>254.5</ele><time>2026-05-01T09:54:48Z</time></trkpt><trkpt lat="44.66571526104165" lon="14.946028859019728"><ele>254.0</ele><time>2026-05-01T09:54:49Z</time></trkpt><trkpt lat="44.665566703048775" lon="14.9460365308366"><ele>254.0</ele><time>2026-05-01T09:54:50Z</time></trkpt><trkpt lat="44.66542465783823" lon="14.945984563368368"><ele>254.0</ele><time>2026-05-01T09:54:51Z</time></trkpt><trkpt lat="44.66529136897842" lon="14.945891772604977"><ele>254.0</ele><time>2026-05-01T09:54:52Z</time></trkpt><trkpt lat="44.66517959901771" lon="14.945774120704273"><ele>254.0</ele><time>2026-05-01T09:54:53Z</time></trkpt><trkpt lat="44.665076482060414" lon="14.945649922614589"><ele>255.25</ele><time>2026-05-01T09:54:54Z</time></trkpt><trkpt lat="44.66498020453141" lon="14.945536046932707"><ele>256.5</ele><time>2026-05-01T09:54:55Z</time></trkpt><trkpt lat="44.66488593885892" lon="14.945420316465105"><ele>257.75</ele><time>2026-05-01T09:54:56Z</time></trkpt><trkpt lat="44.66478944702549" lon="14.945325731654881"><ele>259.0</ele><time>2026-05-01T09:54:57Z</time></trkpt><trkpt lat="44.664688755022034" lon="14.945220889745714"><ele>259.0</ele><time>2026-05-01T09:54:58Z</time></trkpt><trkpt lat="44.664581994573794" lon="14.94511796703174"><ele>259.0</ele><time>2026-05-01T09:54:59Z</time></trkpt><trkpt lat="44.664465436620034" lon="14.94503439187613"><ele>259.0</ele><time>2026-05-01T09:55:00Z</time></trkpt><trkpt lat="44.66433891534751" lon="14.94497035864836"><ele>259.0</ele><time>2026-05-01T09:55:01Z</time></trkpt><trkpt lat="44.66420283918499" lon="14.944930015954542"><ele>259.25</ele><time>2026-05-01T09:55:02Z</time></trkpt><trkpt lat="44.66405886958229" lon="14.944906877795495"><ele>259.5</ele><time>2026-05-01T09:55:03Z</time></trkpt><trkpt lat="44.663922931553564" lon="14.944899112143672"><ele>259.75</ele><time>2026-05-01T09:55:04Z</time></trkpt><trkpt lat="44.66378280797627" lon="14.94490910785546"><ele>260.0</ele><time>2026-05-01T09:55:05Z</time></trkpt><trkpt lat="44.66364110073299" lon="14.944944566468688"><ele>259.0</ele><time>2026-05-01T09:55:06Z</time></trkpt><trkpt lat="44.66349819557553" lon="14.94499834981278"><ele>258.0</ele><time>2026-05-01T09:55:07Z</time></trkpt><trkpt lat="44.66335501985938" lon="14.945062061049903"><ele>257.0</ele><time>2026-05-01T09:55:08Z</time></trkpt><trkpt lat="44.66321647801672" lon="14.945150021017767"><ele>262.0</ele><time>2026-05-01T09:55:09Z</time></trkpt><trkpt lat="44.663085649427664" lon="14.945272217482477"><ele>267.0</ele><time>2026-05-01T09:55:10Z</time></trkpt><trkpt lat="44.66296597661367" lon="14.945428594495702"><ele>272.0</ele><time>2026-05-01T09:55:11Z</time></trkpt><trkpt lat="44.66286169586988" lon="14.945606063157664"><ele>270.33333333333337</ele><time>2026-05-01T09:55:12Z</time></trkpt><trkpt lat="44.66276961291813" lon="14.94579345440029"><ele>268.6666666666667</ele><time>2026-05-01T09:55:13Z</time></trkpt><trkpt lat="44.66269202967225" lon="14.945995467673088"><ele>267.0</ele><time>2026-05-01T09:55:14Z</time></trkpt><trkpt lat="44.66262643746429" lon="14.946237652781905"><ele>267.0</ele><time>2026-05-01T09:55:15Z</time></trkpt><trkpt lat="44.6625898798211" lon="14.94650765917399"><ele>267.0</ele><time>2026-05-01T09:55:16Z</time></trkpt><trkpt lat="44.66257300843368" lon="14.946779423202965"><ele>267.0</ele><time>2026-05-01T09:55:17Z</time></trkpt><trkpt lat="44.662571429487556" lon="14.94702015627971"><ele>269.0</ele><time>2026-05-01T09:55:18Z</time></trkpt><trkpt lat="44.66257652746089" lon="14.94724245255571"><ele>271.0</ele><time>2026-05-01T09:55:19Z</time></trkpt><trkpt lat="44.66257829562342" lon="14.947450716599151"><ele>273.0</ele><time>2026-05-01T09:55:20Z</time></trkpt><trkpt lat="44.66257252012775" lon="14.947658567237559"><ele>274.0</ele><time>2026-05-01T09:55:21Z</time></trkpt><trkpt lat="44.66253915242261" lon="14.947856360198264"><ele>275.0</ele><time>2026-05-01T09:55:22Z</time></trkpt><trkpt lat="44.66248764727048" lon="14.94804863001394"><ele>276.0</ele><time>2026-05-01T09:55:23Z</time></trkpt><trkpt lat="44.662417416871676" lon="14.9482302830153"><ele>277.0</ele><time>2026-05-01T09:55:24Z</time></trkpt><trkpt lat="44.6623267063078" lon="14.948396948922177"><ele>279.0</ele><time>2026-05-01T09:55:25Z</time></trkpt><trkpt lat="44.66221323544673" lon="14.948555600360757"><ele>281.0</ele><time>2026-05-01T09:55:26Z</time></trkpt><trkpt lat="44.66208651098476" lon="14.948699571857317"><ele>283.0</ele><time>2026-05-01T09:55:27Z</time></trkpt><trkpt lat="44.661940105303465" lon="14.948815442593396"><ele>283.0</ele><time>2026-05-01T09:55:28Z</time></trkpt><trkpt lat="44.661783218617614" lon="14.948896698156396"><ele>283.0</ele><time>2026-05-01T09:55:29Z</time></trkpt><trkpt lat="44.66162355184658" lon="14.948947337328264"><ele>283.0</ele><time>2026-05-01T09:55:30Z</time></trkpt><trkpt lat="44.66144396662691" lon="14.948987453794047"><ele>283.0</ele><time>2026-05-01T09:55:31Z</time></trkpt><trkpt lat="44.66121742942581" lon="14.949037302931817"><ele>283.0</ele><time>2026-05-01T09:55:32Z</time></trkpt><trkpt lat="44.6609465033772" lon="14.949080905207143"><ele>283.5</ele><time>2026-05-01T09:55:33Z</time></trkpt><trkpt lat="44.66063606679117" lon="14.949129065881774"><ele>284.0</ele><time>2026-05-01T09:55:34Z</time></trkpt><trkpt lat="44.6602982060237" lon="14.94918673022492"><ele>287.5</ele><time>2026-05-01T09:55:35Z</time></trkpt><trkpt lat="44.65996918392584" lon="14.9492335240399"><ele>291.0</ele><time>2026-05-01T09:55:36Z</time></trkpt><trkpt lat="44.65968883999509" lon="14.949253893497673"><ele>291.0</ele><time>2026-05-01T09:55:37Z</time></trkpt><trkpt lat="44.65945366440625" lon="14.949311573510053"><ele>291.0</ele><time>2026-05-01T09:55:38Z</time></trkpt><trkpt lat="44.659244810240345" lon="14.94939713619797"><ele>290.3333333333333</ele><time>2026-05-01T09:55:39Z</time></trkpt><trkpt lat="44.659047680876554" lon="14.949494603753893"><ele>289.66666666666663</ele><time>2026-05-01T09:55:40Z</time></trkpt><trkpt lat="44.65887350587002" lon="14.949610020137433"><ele>289.0</ele><time>2026-05-01T09:55:41Z</time></trkpt><trkpt lat="44.65871857445959" lon="14.94973333116024"><ele>288.66666666666663</ele><time>2026-05-01T09:55:42Z</time></trkpt><trkpt lat="44.6585795696505" lon="14.949857741044985"><ele>288.3333333333333</ele><time>2026-05-01T09:55:43Z</time></trkpt><trkpt lat="44.658448828692244" lon="14.949981106561587"><ele>288.0</ele><time>2026-05-01T09:55:44Z</time></trkpt><trkpt lat="44.65832969096597" lon="14.950106000275516"><ele>290.3333333333333</ele><time>2026-05-01T09:55:45Z</time></trkpt><trkpt lat="44.658223395105495" lon="14.950250377491995"><ele>292.66666666666663</ele><time>2026-05-01T09:55:46Z</time></trkpt><trkpt lat="44.65811634730111" lon="14.950408533873905"><ele>295.0</ele><time>2026-05-01T09:55:47Z</time></trkpt><trkpt lat="44.65801103763325" lon="14.950559154640853"><ele>295.0</ele><time>2026-05-01T09:55:48Z</time></trkpt><trkpt lat="44.65790752056865" lon="14.950699744213921"><ele>295.0</ele><time>2026-05-01T09:55:49Z</time></trkpt><trkpt lat="44.65780718179413" lon="14.950845670828478"><ele>295.0</ele><time>2026-05-01T09:55:50Z</time></trkpt><trkpt lat="44.65770119585147" lon="14.950999282457731"><ele>295.0</ele><time>2026-05-01T09:55:51Z</time></trkpt><trkpt lat="44.657587437638206" lon="14.951158914962175"><ele>294.66666666666663</ele><time>2026-05-01T09:55:52Z</time></trkpt><trkpt lat="44.657469233417224" lon="14.951325077434824"><ele>294.3333333333333</ele><time>2026-05-01T09:55:53Z</time></trkpt><trkpt lat="44.65735709231162" lon="14.951481784273971"><ele>294.0</ele><time>2026-05-01T09:55:54Z</time></trkpt><trkpt lat="44.6572521771722" lon="14.951626436713516"><ele>294.0</ele><time>2026-05-01T09:55:55Z</time></trkpt><trkpt lat="44.6571447885941" lon="14.951775150311972"><ele>294.0</ele><time>2026-05-01T09:55:56Z</time></trkpt><trkpt lat="44.65703243269338" lon="14.951922961641039"><ele>294.0</ele><time>2026-05-01T09:55:57Z</time></trkpt><trkpt lat="44.656913344893624" lon="14.952059605879187"><ele>294.0</ele><time>2026-05-01T09:55:58Z</time></trkpt><trkpt lat="44.65679201848434" lon="14.952180174041644"><ele>294.0</ele><time>2026-05-01T09:55:59Z</time></trkpt><trkpt lat="44.65666365299928" lon="14.95228615846887"><ele>294.0</ele><time>2026-05-01T09:56:00Z</time></trkpt><trkpt lat="44.65653092197997" lon="14.952382127409416"><ele>294.0</ele><time>2026-05-01T09:56:01Z</time></trkpt><trkpt lat="44.65639522467566" lon="14.952463640596395"><ele>294.0</ele><time>2026-05-01T09:56:02Z</time></trkpt><trkpt lat="44.65626258048309" lon="14.95253473965232"><ele>294.0</ele><time>2026-05-01T09:56:03Z</time></trkpt><trkpt lat="44.65612779930363" lon="14.952608952230095"><ele>294.0</ele><time>2026-05-01T09:56:04Z</time></trkpt><trkpt lat="44.65598534621591" lon="14.952693469137676"><ele>294.0</ele><time>2026-05-01T09:56:05Z</time></trkpt><trkpt lat="44.655835161452515" lon="14.952786214002643"><ele>295.6666666666667</ele><time>2026-05-01T09:56:06Z</time></trkpt><trkpt lat="44.655669751140984" lon="14.95291535304131"><ele>297.33333333333337</ele><time>2026-05-01T09:56:07Z</time></trkpt><trkpt lat="44.65548191754115" lon="14.953104415862287"><ele>299.0</ele><time>2026-05-01T09:56:08Z</time></trkpt><trkpt lat="44.6552676168321" lon="14.953323995915747"><ele>298.5</ele><time>2026-05-01T09:56:09Z</time></trkpt><trkpt lat="44.65504553274596" lon="14.95354597887397"><ele>298.0</ele><time>2026-05-01T09:56:10Z</time></trkpt><trkpt lat="44.65484662961157" lon="14.953737594041181"><ele>298.0</ele><time>2026-05-01T09:56:11Z</time></trkpt><trkpt lat="44.65466953192953" lon="14.953890857163916"><ele>298.0</ele><time>2026-05-01T09:56:12Z</time></trkpt><trkpt lat="44.654509089291146" lon="14.954020730920757"><ele>298.0</ele><time>2026-05-01T09:56:13Z</time></trkpt><trkpt lat="44.6543571910515" lon="14.954140846072287"><ele>300.66666666666663</ele><time>2026-05-01T09:56:14Z</time></trkpt><trkpt lat="44.65421333655102" lon="14.954250779215776"><ele>303.3333333333333</ele><time>2026-05-01T09:56:15Z</time></trkpt><trkpt lat="44.65407559090532" lon="14.954346878133377"><ele>306.0</ele><time>2026-05-01T09:56:16Z</time></trkpt><trkpt lat="44.65393468883648" lon="14.954436818566291"><ele>306.0</ele><time>2026-05-01T09:56:17Z</time></trkpt><trkpt lat="44.653787634953936" lon="14.954520726717162"><ele>306.0</ele><time>2026-05-01T09:56:18Z</time></trkpt><trkpt lat="44.65363487746399" lon="14.95460308327809"><ele>306.0</ele><time>2026-05-01T09:56:19Z</time></trkpt><trkpt lat="44.65347530584403" lon="14.954679045292604"><ele>296.6666666666667</ele><time>2026-05-01T09:56:20Z</time></trkpt><trkpt lat="44.65331052063804" lon="14.954746561725878"><ele>287.33333333333337</ele><time>2026-05-01T09:56:21Z</time></trkpt><trkpt lat="44.65313714723797" lon="14.954806110290683"><ele>278.0</ele><time>2026-05-01T09:56:22Z</time></trkpt><trkpt lat="44.6529617017473" lon="14.954861815314207"><ele>274.0</ele><time>2026-05-01T09:56:23Z</time></trkpt><trkpt lat="44.65278067265507" lon="14.954911879125593"><ele>270.0</ele><time>2026-05-01T09:56:24Z</time></trkpt><trkpt lat="44.65260383393202" lon="14.95494684153266"><ele>266.0</ele><time>2026-05-01T09:56:25Z</time></trkpt><trkpt lat="44.65243277222107" lon="14.954975480376776"><ele>266.0</ele><time>2026-05-01T09:56:26Z</time></trkpt><trkpt lat="44.65225408967051" lon="14.95500008020809"><ele>266.0</ele><time>2026-05-01T09:56:27Z</time></trkpt><trkpt lat="44.652074558814014" lon="14.955019537827214"><ele>266.0</ele><time>2026-05-01T09:56:28Z</time></trkpt><trkpt lat="44.65190062132545" lon="14.955029661918791"><ele>263.33333333333337</ele><time>2026-05-01T09:56:29Z</time></trkpt><trkpt lat="44.65172453442405" lon="14.95503731784639"><ele>260.6666666666667</ele><time>2026-05-01T09:56:30Z</time></trkpt><trkpt lat="44.651553373662765" lon="14.95506231822181"><ele>258.0</ele><time>2026-05-01T09:56:31Z</time></trkpt><trkpt lat="44.65138234132197" lon="14.955108668244884"><ele>264.3333333333333</ele><time>2026-05-01T09:56:32Z</time></trkpt><trkpt lat="44.65119747324271" lon="14.955170314256414"><ele>270.66666666666663</ele><time>2026-05-01T09:56:33Z</time></trkpt><trkpt lat="44.65100706604416" lon="14.95525868830848"><ele>277.0</ele><time>2026-05-01T09:56:34Z</time></trkpt><trkpt lat="44.6507932870433" lon="14.955357150693231"><ele>277.0</ele><time>2026-05-01T09:56:35Z</time></trkpt><trkpt lat="44.65053158759904" lon="14.955442151284865"><ele>277.0</ele><time>2026-05-01T09:56:36Z</time></trkpt><trkpt lat="44.65026116298216" lon="14.95551046797641"><ele>272.0</ele><time>2026-05-01T09:56:37Z</time></trkpt><trkpt lat="44.650001034224985" lon="14.955546611841067"><ele>267.0</ele><time>2026-05-01T09:56:38Z</time></trkpt><trkpt lat="44.64976452331967" lon="14.955564909334845"><ele>267.0</ele><time>2026-05-01T09:56:39Z</time></trkpt><trkpt lat="44.6495413569072" lon="14.955577785175523"><ele>267.0</ele><time>2026-05-01T09:56:40Z</time></trkpt><trkpt lat="44.64932598667348" lon="14.955591164242172"><ele>267.0</ele><time>2026-05-01T09:56:41Z</time></trkpt><trkpt lat="44.64911743473962" lon="14.955604744445992"><ele>266.0</ele><time>2026-05-01T09:56:42Z</time></trkpt><trkpt lat="44.64891041944982" lon="14.955624805853091"><ele>265.0</ele><time>2026-05-01T09:56:43Z</time></trkpt><trkpt lat="44.64870084672105" lon="14.955654800247203"><ele>264.0</ele><time>2026-05-01T09:56:44Z</time></trkpt><trkpt lat="44.64849753977699" lon="14.955705249431054"><ele>260.6666666666667</ele><time>2026-05-01T09:56:45Z</time></trkpt><trkpt lat="44.6483074097467" lon="14.955783700585751"><ele>257.33333333333337</ele><time>2026-05-01T09:56:46Z</time></trkpt><trkpt lat="44.64812565466918" lon="14.955885727227269"><ele>254.0</ele><time>2026-05-01T09:56:47Z</time></trkpt><trkpt lat="44.64795313688788" lon="14.95600220827579"><ele>261.6666666666667</ele><time>2026-05-01T09:56:48Z</time></trkpt><trkpt lat="44.64778033727074" lon="14.95611354374051"><ele>269.3333333333333</ele><time>2026-05-01T09:56:49Z</time></trkpt><trkpt lat="44.64761042426401" lon="14.95621363333819"><ele>277.0</ele><time>2026-05-01T09:56:50Z</time></trkpt><trkpt lat="44.647432965730175" lon="14.956314872373612"><ele>277.0</ele><time>2026-05-01T09:56:51Z</time></trkpt><trkpt lat="44.64725298062896" lon="14.95640826756617"><ele>277.0</ele><time>2026-05-01T09:56:52Z</time></trkpt><trkpt lat="44.64708458116603" lon="14.956485867269986"><ele>277.0</ele><time>2026-05-01T09:56:53Z</time></trkpt><trkpt lat="44.646928010457074" lon="14.956553163092543"><ele>272.3333333333333</ele><time>2026-05-01T09:56:54Z</time></trkpt><trkpt lat="44.64676812637139" lon="14.956621455690673"><ele>267.6666666666667</ele><time>2026-05-01T09:56:55Z</time></trkpt><trkpt lat="44.646606555698995" lon="14.956688109263442"><ele>263.0</ele><time>2026-05-01T09:56:56Z</time></trkpt><trkpt lat="44.646443988273695" lon="14.956759290281278"><ele>267.0</ele><time>2026-05-01T09:56:57Z</time></trkpt><trkpt lat="44.646285427408536" lon="14.956834937487265"><ele>271.0</ele><time>2026-05-01T09:56:58Z</time></trkpt><trkpt lat="44.64613042303488" lon="14.956912559705678"><ele>275.0</ele><time>2026-05-01T09:56:59Z</time></trkpt><trkpt lat="44.64598184637385" lon="14.956992654774826"><ele>275.0</ele><time>2026-05-01T09:57:00Z</time></trkpt><trkpt lat="44.64583606922577" lon="14.957086335969954"><ele>275.0</ele><time>2026-05-01T09:57:01Z</time></trkpt><trkpt lat="44.645696733688474" lon="14.957196174591529"><ele>275.0</ele><time>2026-05-01T09:57:02Z</time></trkpt><trkpt lat="44.645567368738156" lon="14.957318192566195"><ele>275.0</ele><time>2026-05-01T09:57:03Z</time></trkpt><trkpt lat="44.645443334472176" lon="14.957443121904308"><ele>275.0</ele><time>2026-05-01T09:57:04Z</time></trkpt><trkpt lat="44.6453181953171" lon="14.957567187927733"><ele>275.0</ele><time>2026-05-01T09:57:05Z</time></trkpt><trkpt lat="44.64519251241958" lon="14.95769492021751"><ele>276.33333333333337</ele><time>2026-05-01T09:57:06Z</time></trkpt><trkpt lat="44.64506635572621" lon="14.957819169224603"><ele>277.6666666666667</ele><time>2026-05-01T09:57:07Z</time></trkpt><trkpt lat="44.64494153250952" lon="14.957955296823911"><ele>279.0</ele><time>2026-05-01T09:57:08Z</time></trkpt><trkpt lat="44.64482204695963" lon="14.958096380810147"><ele>279.0</ele><time>2026-05-01T09:57:09Z</time></trkpt><trkpt lat="44.64470144595391" lon="14.958255520047082"><ele>279.0</ele><time>2026-05-01T09:57:10Z</time></trkpt><trkpt lat="44.64457150003335" lon="14.958446270747372"><ele>279.0</ele><time>2026-05-01T09:57:11Z</time></trkpt><trkpt lat="44.64442337619649" lon="14.95866319598488"><ele>279.0</ele><time>2026-05-01T09:57:12Z</time></trkpt><trkpt lat="44.64426304793385" lon="14.95889178996864"><ele>279.0</ele><time>2026-05-01T09:57:13Z</time></trkpt><trkpt lat="44.64409233459958" lon="14.95916172726608"><ele>288.6666666666667</ele><time>2026-05-01T09:57:14Z</time></trkpt><trkpt lat="44.64392873449746" lon="14.959415730479185"><ele>298.33333333333337</ele><time>2026-05-01T09:57:15Z</time></trkpt><trkpt lat="44.64379772312104" lon="14.959620128786352"><ele>308.0</ele><time>2026-05-01T09:57:16Z</time></trkpt><trkpt lat="44.64369334589421" lon="14.959797603709246"><ele>305.33333333333337</ele><time>2026-05-01T09:57:17Z</time></trkpt><trkpt lat="44.64358267678706" lon="14.959991601759512"><ele>302.6666666666667</ele><time>2026-05-01T09:57:18Z</time></trkpt><trkpt lat="44.643465801082776" lon="14.960162063764246"><ele>300.0</ele><time>2026-05-01T09:57:19Z</time></trkpt><trkpt lat="44.64335472881101" lon="14.960305823906566"><ele>300.0</ele><time>2026-05-01T09:57:20Z</time></trkpt><trkpt lat="44.64324774370762" lon="14.960442848128848"><ele>300.0</ele><time>2026-05-01T09:57:21Z</time></trkpt><trkpt lat="44.64313188254864" lon="14.96057810371775"><ele>300.0</ele><time>2026-05-01T09:57:22Z</time></trkpt><trkpt lat="44.643011726659935" lon="14.960706563066283"><ele>300.0</ele><time>2026-05-01T09:57:23Z</time></trkpt><trkpt lat="44.64289381658872" lon="14.960823075092236"><ele>299.75</ele><time>2026-05-01T09:57:24Z</time></trkpt><trkpt lat="44.64277932543807" lon="14.960934367362102"><ele>299.5</ele><time>2026-05-01T09:57:25Z</time></trkpt><trkpt lat="44.64266535147879" lon="14.961050856336078"><ele>299.25</ele><time>2026-05-01T09:57:26Z</time></trkpt><trkpt lat="44.642561639092314" lon="14.961162959329341"><ele>299.0</ele><time>2026-05-01T09:57:27Z</time></trkpt><trkpt lat="44.64246869383891" lon="14.961267450324803"><ele>299.0</ele><time>2026-05-01T09:57:28Z</time></trkpt><trkpt lat="44.64237620005507" lon="14.961377054169942"><ele>299.0</ele><time>2026-05-01T09:57:29Z</time></trkpt><trkpt lat="44.64227802627856" lon="14.96150751717214"><ele>299.0</ele><time>2026-05-01T09:57:30Z</time></trkpt><trkpt lat="44.64217588059166" lon="14.961692782862304"><ele>299.0</ele><time>2026-05-01T09:57:31Z</time></trkpt><trkpt lat="44.64208464260915" lon="14.961910906398716"><ele>294.33333333333337</ele><time>2026-05-01T09:57:32Z</time></trkpt><trkpt lat="44.64199358549179" lon="14.962160223553274"><ele>289.6666666666667</ele><time>2026-05-01T09:57:33Z</time></trkpt><trkpt lat="44.641882620778766" lon="14.962451069376868"><ele>285.0</ele><time>2026-05-01T09:57:34Z</time></trkpt><trkpt lat="44.64176676711939" lon="14.962692834404015"><ele>292.0</ele><time>2026-05-01T09:57:35Z</time></trkpt><trkpt lat="44.6416757015606" lon="14.962880973618928"><ele>299.0</ele><time>2026-05-01T09:57:36Z</time></trkpt><trkpt lat="44.64161494305714" lon="14.96301320403787"><ele>306.0</ele><time>2026-05-01T09:57:37Z</time></trkpt><trkpt lat="44.641552110780594" lon="14.963142046813168"><ele>313.0</ele><time>2026-05-01T09:57:38Z</time></trkpt><trkpt lat="44.641463144922966" lon="14.963313264718561"><ele>313.0</ele><time>2026-05-01T09:57:39Z</time></trkpt><trkpt lat="44.64134725671412" lon="14.963499566804243"><ele>313.0</ele><time>2026-05-01T09:57:40Z</time></trkpt><trkpt lat="44.641213330880916" lon="14.963662089027425"><ele>313.0</ele><time>2026-05-01T09:57:41Z</time></trkpt><trkpt lat="44.64107579369021" lon="14.963798336120714"><ele>313.0</ele><time>2026-05-01T09:57:42Z</time></trkpt><trkpt lat="44.64094990608701" lon="14.963915583070701"><ele>313.0</ele><time>2026-05-01T09:57:43Z</time></trkpt><trkpt lat="44.640825558892764" lon="14.964009467772584"><ele>313.0</ele><time>2026-05-01T09:57:44Z</time></trkpt><trkpt lat="44.640699444681765" lon="14.964086799916506"><ele>313.0</ele><time>2026-05-01T09:57:45Z</time></trkpt><trkpt lat="44.64056645360012" lon="14.964157513924253"><ele>314.25</ele><time>2026-05-01T09:57:46Z</time></trkpt><trkpt lat="44.64042304656572" lon="14.964212589630485"><ele>315.5</ele><time>2026-05-01T09:57:47Z</time></trkpt><trkpt lat="44.640276015828164" lon="14.96424987468487"><ele>316.75</ele><time>2026-05-01T09:57:48Z</time></trkpt><trkpt lat="44.64012941004911" lon="14.964274117999116"><ele>318.0</ele><time>2026-05-01T09:57:49Z</time></trkpt><trkpt lat="44.63997809775036" lon="14.964288406077408"><ele>318.0</ele><time>2026-05-01T09:57:50Z</time></trkpt><trkpt lat="44.6398230533624" lon="14.96429561079519"><ele>318.0</ele><time>2026-05-01T09:57:51Z</time></trkpt><trkpt lat="44.63966389175349" lon="14.964279380127975"><ele>318.0</ele><time>2026-05-01T09:57:52Z</time></trkpt><trkpt lat="44.63950903464903" lon="14.964239640102972"><ele>314.0</ele><time>2026-05-01T09:57:53Z</time></trkpt><trkpt lat="44.63935482136545" lon="14.964185075572257"><ele>310.0</ele><time>2026-05-01T09:57:54Z</time></trkpt><trkpt lat="44.639198495959405" lon="14.96412747697755"><ele>306.0</ele><time>2026-05-01T09:57:55Z</time></trkpt><trkpt lat="44.63903894175266" lon="14.964047507213314"><ele>306.0</ele><time>2026-05-01T09:57:56Z</time></trkpt><trkpt lat="44.638877299914185" lon="14.96398289616503"><ele>306.0</ele><time>2026-05-01T09:57:57Z</time></trkpt><trkpt lat="44.638726796858876" lon="14.963934288190721"><ele>306.0</ele><time>2026-05-01T09:57:58Z</time></trkpt><trkpt lat="44.638585197490954" lon="14.963896712936934"><ele>305.5</ele><time>2026-05-01T09:57:59Z</time></trkpt><trkpt lat="44.638436525342954" lon="14.963868987693246"><ele>305.0</ele><time>2026-05-01T09:58:00Z</time></trkpt><trkpt lat="44.63828742178777" lon="14.963852047673175"><ele>304.5</ele><time>2026-05-01T09:58:01Z</time></trkpt><trkpt lat="44.638144537427536" lon="14.963876682590747"><ele>304.0</ele><time>2026-05-01T09:58:02Z</time></trkpt><trkpt lat="44.63800684758075" lon="14.963940821124075"><ele>304.0</ele><time>2026-05-01T09:58:03Z</time></trkpt><trkpt lat="44.637881049569856" lon="14.964025315908753"><ele>304.0</ele><time>2026-05-01T09:58:04Z</time></trkpt><trkpt lat="44.63776342381944" lon="14.964140866271933"><ele>304.0</ele><time>2026-05-01T09:58:05Z</time></trkpt><trkpt lat="44.63764801122607" lon="14.964307320187183"><ele>304.0</ele><time>2026-05-01T09:58:06Z</time></trkpt><trkpt lat="44.637525016116804" lon="14.964567973981667"><ele>302.5</ele><time>2026-05-01T09:58:07Z</time></trkpt><trkpt lat="44.6373757596641" lon="14.964898660873388"><ele>301.0</ele><time>2026-05-01T09:58:08Z</time></trkpt><trkpt lat="44.63720445622769" lon="14.965254117257608"><ele>306.5</ele><time>2026-05-01T09:58:09Z</time></trkpt><trkpt lat="44.63700606349724" lon="14.965585605038545"><ele>312.0</ele><time>2026-05-01T09:58:10Z</time></trkpt><trkpt lat="44.63677318774562" lon="14.965886446916594"><ele>315.0</ele><time>2026-05-01T09:58:11Z</time></trkpt><trkpt lat="44.636520347498575" lon="14.96616532579098"><ele>318.0</ele><time>2026-05-01T09:58:12Z</time></trkpt><trkpt lat="44.63623235203189" lon="14.966406208939741"><ele>318.0</ele><time>2026-05-01T09:58:13Z</time></trkpt><trkpt lat="44.635929380724164" lon="14.966601887150961"><ele>318.0</ele><time>2026-05-01T09:58:14Z</time></trkpt><trkpt lat="44.6356295590707" lon="14.966721481783425"><ele>318.0</ele><time>2026-05-01T09:58:15Z</time></trkpt><trkpt lat="44.63531925171986" lon="14.966794178147504"><ele>318.0</ele><time>2026-05-01T09:58:16Z</time></trkpt><trkpt lat="44.63498933416527" lon="14.966822689266008"><ele>312.5</ele><time>2026-05-01T09:58:17Z</time></trkpt><trkpt lat="44.634681623360606" lon="14.966838836129721"><ele>307.0</ele><time>2026-05-01T09:58:18Z</time></trkpt><trkpt lat="44.63442473069206" lon="14.966868665146983"><ele>306.0</ele><time>2026-05-01T09:58:19Z</time></trkpt><trkpt lat="44.63420958685021" lon="14.966917824920587"><ele>305.0</ele><time>2026-05-01T09:58:20Z</time></trkpt><trkpt lat="44.63401645939777" lon="14.967013128509913"><ele>304.0</ele><time>2026-05-01T09:58:21Z</time></trkpt><trkpt lat="44.63383542435267" lon="14.967178271755705"><ele>304.0</ele><time>2026-05-01T09:58:22Z</time></trkpt><trkpt lat="44.63368544872908" lon="14.9674136216422"><ele>304.0</ele><time>2026-05-01T09:58:23Z</time></trkpt><trkpt lat="44.63356500800099" lon="14.967715846617066"><ele>307.5</ele><time>2026-05-01T09:58:24Z</time></trkpt><trkpt lat="44.6334487759732" lon="14.968059677794635"><ele>311.0</ele><time>2026-05-01T09:58:25Z</time></trkpt><trkpt lat="44.63330590741149" lon="14.968380969399469"><ele>311.0</ele><time>2026-05-01T09:58:26Z</time></trkpt><trkpt lat="44.6331048021818" lon="14.968617756753172"><ele>311.0</ele><time>2026-05-01T09:58:27Z</time></trkpt><trkpt lat="44.63285421791888" lon="14.96877509392778"><ele>302.5</ele><time>2026-05-01T09:58:28Z</time></trkpt><trkpt lat="44.632559396000545" lon="14.96890357905948"><ele>294.0</ele><time>2026-05-01T09:58:29Z</time></trkpt><trkpt lat="44.632276148393935" lon="14.969043996354104"><ele>292.0</ele><time>2026-05-01T09:58:30Z</time></trkpt><trkpt lat="44.63202835767258" lon="14.969207610910605"><ele>290.0</ele><time>2026-05-01T09:58:31Z</time></trkpt><trkpt lat="44.631798576554615" lon="14.969427727257354"><ele>290.0</ele><time>2026-05-01T09:58:32Z</time></trkpt><trkpt lat="44.63160102316629" lon="14.969696414663895"><ele>290.0</ele><time>2026-05-01T09:58:33Z</time></trkpt><trkpt lat="44.63142486022973" lon="14.97001341282443"><ele>284.5</ele><time>2026-05-01T09:58:34Z</time></trkpt><trkpt lat="44.63124895603593" lon="14.97038095743778"><ele>279.0</ele><time>2026-05-01T09:58:35Z</time></trkpt><trkpt lat="44.63106543996304" lon="14.970782184199544"><ele>281.5</ele><time>2026-05-01T09:58:36Z</time></trkpt><trkpt lat="44.63089234303454" lon="14.971150746248188"><ele>284.0</ele><time>2026-05-01T09:58:37Z</time></trkpt><trkpt lat="44.630715450438785" lon="14.971475657704138"><ele>286.5</ele><time>2026-05-01T09:58:38Z</time></trkpt><trkpt lat="44.630521647494156" lon="14.97174136544569"><ele>289.0</ele><time>2026-05-01T09:58:39Z</time></trkpt><trkpt lat="44.63029358972078" lon="14.971923102510578"><ele>289.0</ele><time>2026-05-01T09:58:40Z</time></trkpt><trkpt lat="44.63005197662825" lon="14.972020498546566"><ele>289.0</ele><time>2026-05-01T09:58:41Z</time></trkpt><trkpt lat="44.62982477548605" lon="14.972032942325955"><ele>289.0</ele><time>2026-05-01T09:58:42Z</time></trkpt><trkpt lat="44.62960995252012" lon="14.97196397394794"><ele>289.0</ele><time>2026-05-01T09:58:43Z</time></trkpt><trkpt lat="44.62939952088593" lon="14.971839128436391"><ele>289.0</ele><time>2026-05-01T09:58:44Z</time></trkpt><trkpt lat="44.62920304514099" lon="14.971663700232689"><ele>284.5</ele><time>2026-05-01T09:58:45Z</time></trkpt><trkpt lat="44.6289977857066" lon="14.971424886243758"><ele>280.0</ele><time>2026-05-01T09:58:46Z</time></trkpt><trkpt lat="44.62878818182223" lon="14.971130495601873"><ele>279.0</ele><time>2026-05-01T09:58:47Z</time></trkpt><trkpt lat="44.6285864708327" lon="14.970815850744442"><ele>278.0</ele><time>2026-05-01T09:58:48Z</time></trkpt><trkpt lat="44.6284057311991" lon="14.970547799203716"><ele>278.0</ele><time>2026-05-01T09:58:49Z</time></trkpt><trkpt lat="44.62824123937531" lon="14.970339206691461"><ele>278.0</ele><time>2026-05-01T09:58:50Z</time></trkpt><trkpt lat="44.62807540182336" lon="14.970183442064902"><ele>278.0</ele><time>2026-05-01T09:58:51Z</time></trkpt><trkpt lat="44.627889090842906" lon="14.970091499021304"><ele>279.0</ele><time>2026-05-01T09:58:52Z</time></trkpt><trkpt lat="44.627681227423615" lon="14.970053898840606"><ele>280.0</ele><time>2026-05-01T09:58:53Z</time></trkpt><trkpt lat="44.62747566682042" lon="14.970082965454871"><ele>281.0</ele><time>2026-05-01T09:58:54Z</time></trkpt><trkpt lat="44.62727560784232" lon="14.970180293867324"><ele>281.0</ele><time>2026-05-01T09:58:55Z</time></trkpt><trkpt lat="44.62708621205077" lon="14.97034041941847"><ele>281.0</ele><time>2026-05-01T09:58:56Z</time></trkpt><trkpt lat="44.62690198897406" lon="14.970540347415279"><ele>278.0</ele><time>2026-05-01T09:58:57Z</time></trkpt><trkpt lat="44.626725848767265" lon="14.970741532129718"><ele>275.0</ele><time>2026-05-01T09:58:58Z</time></trkpt><trkpt lat="44.62655201219995" lon="14.970928183644569"><ele>272.0</ele><time>2026-05-01T09:58:59Z</time></trkpt><trkpt lat="44.626376696684915" lon="14.97110300699014"><ele>272.5</ele><time>2026-05-01T09:59:00Z</time></trkpt><trkpt lat="44.62618300624241" lon="14.971261911934436"><ele>273.0</ele><time>2026-05-01T09:59:01Z</time></trkpt><trkpt lat="44.62597935106194" lon="14.971399463973574"><ele>273.0</ele><time>2026-05-01T09:59:02Z</time></trkpt><trkpt lat="44.625770028593216" lon="14.971533715742542"><ele>273.0</ele><time>2026-05-01T09:59:03Z</time></trkpt><trkpt lat="44.62556117034" lon="14.971658727533224"><ele>271.0</ele><time>2026-05-01T09:59:04Z</time></trkpt><trkpt lat="44.62536536390139" lon="14.971790611754836"><ele>269.0</ele><time>2026-05-01T09:59:05Z</time></trkpt><trkpt lat="44.625187706211854" lon="14.971958286588794"><ele>267.0</ele><time>2026-05-01T09:59:06Z</time></trkpt><trkpt lat="44.62503415370232" lon="14.972157597063953"><ele>267.0</ele><time>2026-05-01T09:59:07Z</time></trkpt><trkpt lat="44.624901548804196" lon="14.972356174101321"><ele>267.0</ele><time>2026-05-01T09:59:08Z</time></trkpt><trkpt lat="44.62476387149202" lon="14.972545913063366"><ele>267.0</ele><time>2026-05-01T09:59:09Z</time></trkpt><trkpt lat="44.624626359049536" lon="14.972718897572285"><ele>265.6666666666667</ele><time>2026-05-01T09:59:10Z</time></trkpt><trkpt lat="44.624483247130684" lon="14.972885065049256"><ele>264.33333333333337</ele><time>2026-05-01T09:59:11Z</time></trkpt><trkpt lat="44.624336901907604" lon="14.973034185484726"><ele>263.0</ele><time>2026-05-01T09:59:12Z</time></trkpt><trkpt lat="44.6241778725165" lon="14.973155323832673"><ele>263.0</ele><time>2026-05-01T09:59:13Z</time></trkpt><trkpt lat="44.62400707541288" lon="14.973253210678482"><ele>263.0</ele><time>2026-05-01T09:59:14Z</time></trkpt><trkpt lat="44.62383814549549" lon="14.973351135406617"><ele>263.0</ele><time>2026-05-01T09:59:15Z</time></trkpt><trkpt lat="44.62367204095464" lon="14.973455057992187"><ele>262.6666666666667</ele><time>2026-05-01T09:59:16Z</time></trkpt><trkpt lat="44.623507379409624" lon="14.97356173582924"><ele>262.3333333333333</ele><time>2026-05-01T09:59:17Z</time></trkpt><trkpt lat="44.6233450060047" lon="14.973664168623424"><ele>262.0</ele><time>2026-05-01T09:59:18Z</time></trkpt><trkpt lat="44.62318523630881" lon="14.973764384144113"><ele>262.0</ele><time>2026-05-01T09:59:19Z</time></trkpt><trkpt lat="44.623024577687275" lon="14.973868105817512"><ele>262.0</ele><time>2026-05-01T09:59:20Z</time></trkpt><trkpt lat="44.62286939645635" lon="14.973974289516999"><ele>262.0</ele><time>2026-05-01T09:59:21Z</time></trkpt><trkpt lat="44.62271088748818" lon="14.974099144484054"><ele>260.66666666666663</ele><time>2026-05-01T09:59:22Z</time></trkpt><trkpt lat="44.62256376562127" lon="14.974236429516129"><ele>259.3333333333333</ele><time>2026-05-01T09:59:23Z</time></trkpt><trkpt lat="44.62242228236924" lon="14.97438987584797"><ele>258.0</ele><time>2026-05-01T09:59:24Z</time></trkpt><trkpt lat="44.622288933000235" lon="14.97456144942237"><ele>258.0</ele><time>2026-05-01T09:59:25Z</time></trkpt><trkpt lat="44.622159349551595" lon="14.97473992730452"><ele>258.0</ele><time>2026-05-01T09:59:26Z</time></trkpt><trkpt lat="44.622033717398736" lon="14.974919903410374"><ele>258.0</ele><time>2026-05-01T09:59:27Z</time></trkpt><trkpt lat="44.62191195709443" lon="14.975095466255304"><ele>255.66666666666669</ele><time>2026-05-01T09:59:28Z</time></trkpt><trkpt lat="44.62178511971452" lon="14.97527653221584"><ele>253.33333333333334</ele><time>2026-05-01T09:59:29Z</time></trkpt><trkpt lat="44.621664627624355" lon="14.975450895162853"><ele>251.0</ele><time>2026-05-01T09:59:30Z</time></trkpt><trkpt lat="44.621538617440756" lon="14.975621038522997"><ele>251.0</ele><time>2026-05-01T09:59:31Z</time></trkpt><trkpt lat="44.62141035817952" lon="14.975776082101115"><ele>251.0</ele><time>2026-05-01T09:59:32Z</time></trkpt><trkpt lat="44.62127580805793" lon="14.975899682215715"><ele>251.0</ele><time>2026-05-01T09:59:33Z</time></trkpt><trkpt lat="44.62112366836906" lon="14.975977778399521"><ele>250.0</ele><time>2026-05-01T09:59:34Z</time></trkpt><trkpt lat="44.62095432248786" lon="14.976005078393747"><ele>249.0</ele><time>2026-05-01T09:59:35Z</time></trkpt><trkpt lat="44.62078189218159" lon="14.97599493782582"><ele>248.0</ele><time>2026-05-01T09:59:36Z</time></trkpt><trkpt lat="44.620611946991595" lon="14.975965849032853"><ele>248.0</ele><time>2026-05-01T09:59:37Z</time></trkpt><trkpt lat="44.62044294102908" lon="14.975900135931983"><ele>248.0</ele><time>2026-05-01T09:59:38Z</time></trkpt><trkpt lat="44.62027261704197" lon="14.975797708011163"><ele>248.0</ele><time>2026-05-01T09:59:39Z</time></trkpt><trkpt lat="44.62010921668208" lon="14.975673723549598"><ele>243.66666666666669</ele><time>2026-05-01T09:59:40Z</time></trkpt><trkpt lat="44.619943184859714" lon="14.975553420912512"><ele>239.33333333333331</ele><time>2026-05-01T09:59:41Z</time></trkpt><trkpt lat="44.61977547620178" lon="14.9754465430736"><ele>235.0</ele><time>2026-05-01T09:59:42Z</time></trkpt><trkpt lat="44.619600008279114" lon="14.975367997788757"><ele>236.33333333333331</ele><time>2026-05-01T09:59:43Z</time></trkpt><trkpt lat="44.61942296886956" lon="14.975316825131866"><ele>237.66666666666669</ele><time>2026-05-01T09:59:44Z</time></trkpt><trkpt lat="44.619252375980125" lon="14.975296797289479"><ele>239.0</ele><time>2026-05-01T09:59:45Z</time></trkpt><trkpt lat="44.61907361111626" lon="14.975313900641732"><ele>239.0</ele><time>2026-05-01T09:59:46Z</time></trkpt><trkpt lat="44.618897933597395" lon="14.975365121273"><ele>239.0</ele><time>2026-05-01T09:59:47Z</time></trkpt><trkpt lat="44.61872311991054" lon="14.975438776390243"><ele>239.0</ele><time>2026-05-01T09:59:48Z</time></trkpt><trkpt lat="44.618549611939976" lon="14.975520566297016"><ele>235.0</ele><time>2026-05-01T09:59:49Z</time></trkpt><trkpt lat="44.61838181964506" lon="14.975596723747081"><ele>231.0</ele><time>2026-05-01T09:59:50Z</time></trkpt><trkpt lat="44.618212507237786" lon="14.975674529365296"><ele>227.0</ele><time>2026-05-01T09:59:51Z</time></trkpt><trkpt lat="44.61804633973502" lon="14.975750809421601"><ele>227.0</ele><time>2026-05-01T09:59:52Z</time></trkpt><trkpt lat="44.617886925543395" lon="14.975821043289642"><ele>227.0</ele><time>2026-05-01T09:59:53Z</time></trkpt><trkpt lat="44.61772869228218" lon="14.97589172844551"><ele>227.0</ele><time>2026-05-01T09:59:54Z</time></trkpt><trkpt lat="44.6175602649183" lon="14.975946853051358"><ele>227.66666666666669</ele><time>2026-05-01T09:59:55Z</time></trkpt><trkpt lat="44.6173875178338" lon="14.975972349061442"><ele>228.33333333333331</ele><time>2026-05-01T09:59:56Z</time></trkpt><trkpt lat="44.61721202504129" lon="14.975973573706932"><ele>229.0</ele><time>2026-05-01T09:59:57Z</time></trkpt><trkpt lat="44.61702983064984" lon="14.975970902190534"><ele>231.0</ele><time>2026-05-01T09:59:58Z</time></trkpt><trkpt lat="44.61685153058944" lon="14.975966956079409"><ele>233.0</ele><time>2026-05-01T09:59:59Z</time></trkpt><trkpt lat="44.61667644951463" lon="14.975965041390532"><ele>235.0</ele><time>2026-05-01T10:00:00Z</time></trkpt><trkpt lat="44.616501051823946" lon="14.975981835610861"><ele>235.0</ele><time>2026-05-01T10:00:01Z</time></trkpt><trkpt lat="44.61633206314198" lon="14.976014597984491"><ele>235.0</ele><time>2026-05-01T10:00:02Z</time></trkpt><trkpt lat="44.61616323084063" lon="14.976063946093932"><ele>235.0</ele><time>2026-05-01T10:00:03Z</time></trkpt><trkpt lat="44.61600164135576" lon="14.976122796408765"><ele>234.0</ele><time>2026-05-01T10:00:04Z</time></trkpt><trkpt lat="44.615844759424924" lon="14.976198544644483"><ele>233.0</ele><time>2026-05-01T10:00:05Z</time></trkpt><trkpt lat="44.615689028085946" lon="14.976296411109187"><ele>232.0</ele><time>2026-05-01T10:00:06Z</time></trkpt><trkpt lat="44.61554119238578" lon="14.97641017434976"><ele>232.0</ele><time>2026-05-01T10:00:07Z</time></trkpt><trkpt lat="44.615402675607676" lon="14.97654506947511"><ele>232.0</ele><time>2026-05-01T10:00:08Z</time></trkpt><trkpt lat="44.6152655246171" lon="14.976686960193508"><ele>232.0</ele><time>2026-05-01T10:00:09Z</time></trkpt><trkpt lat="44.61512513035722" lon="14.976853427436604"><ele>231.33333333333331</ele><time>2026-05-01T10:00:10Z</time></trkpt><trkpt lat="44.614992356861684" lon="14.977048776532236"><ele>230.66666666666669</ele><time>2026-05-01T10:00:11Z</time></trkpt><trkpt lat="44.61486238378849" lon="14.977252040510066"><ele>230.0</ele><time>2026-05-01T10:00:12Z</time></trkpt><trkpt lat="44.61473941004816" lon="14.977443788987918"><ele>228.0</ele><time>2026-05-01T10:00:13Z</time></trkpt><trkpt lat="44.614616406989725" lon="14.977633726489993"><ele>226.0</ele><time>2026-05-01T10:00:14Z</time></trkpt><trkpt lat="44.61449641854229" lon="14.977826536333676"><ele>224.0</ele><time>2026-05-01T10:00:15Z</time></trkpt><trkpt lat="44.6143808689415" lon="14.978015055015888"><ele>224.0</ele><time>2026-05-01T10:00:16Z</time></trkpt><trkpt lat="44.614263654896455" lon="14.978184555618933"><ele>224.0</ele><time>2026-05-01T10:00:17Z</time></trkpt><trkpt lat="44.61413746471515" lon="14.978349932168449"><ele>224.0</ele><time>2026-05-01T10:00:18Z</time></trkpt><trkpt lat="44.61400739513724" lon="14.978509604211622"><ele>223.0</ele><time>2026-05-01T10:00:19Z</time></trkpt><trkpt lat="44.613865416500154" lon="14.978653097548806"><ele>222.0</ele><time>2026-05-01T10:00:20Z</time></trkpt><trkpt lat="44.61371950941101" lon="14.978774938478292"><ele>221.0</ele><time>2026-05-01T10:00:21Z</time></trkpt><trkpt lat="44.61356952363795" lon="14.978896721746116"><ele>221.0</ele><time>2026-05-01T10:00:22Z</time></trkpt><trkpt lat="44.61342889048086" lon="14.979013542746438"><ele>221.0</ele><time>2026-05-01T10:00:23Z</time></trkpt><trkpt lat="44.613285281116895" lon="14.979140621203502"><ele>221.0</ele><time>2026-05-01T10:00:24Z</time></trkpt><trkpt lat="44.61314573050857" lon="14.979267269447247"><ele>220.66666666666669</ele><time>2026-05-01T10:00:25Z</time></trkpt><trkpt lat="44.61301068781307" lon="14.979403154587224"><ele>220.33333333333331</ele><time>2026-05-01T10:00:26Z</time></trkpt><trkpt lat="44.612877059357004" lon="14.979551354743233"><ele>220.0</ele><time>2026-05-01T10:00:27Z</time></trkpt><trkpt lat="44.612751963647014" lon="14.979705914420467"><ele>220.0</ele><time>2026-05-01T10:00:28Z</time></trkpt><trkpt lat="44.612632952588456" lon="14.979873396862992"><ele>220.0</ele><time>2026-05-01T10:00:29Z</time></trkpt><trkpt lat="44.612515586521575" lon="14.980063857259202"><ele>220.0</ele><time>2026-05-01T10:00:30Z</time></trkpt><trkpt lat="44.61240321645666" lon="14.980279241289294"><ele>225.0</ele><time>2026-05-01T10:00:31Z</time></trkpt><trkpt lat="44.61229099605587" lon="14.980504292303097"><ele>230.0</ele><time>2026-05-01T10:00:32Z</time></trkpt><trkpt lat="44.612182735307265" lon="14.980744348824638"><ele>235.0</ele><time>2026-05-01T10:00:33Z</time></trkpt><trkpt lat="44.612063851608895" lon="14.981010981741129"><ele>228.5</ele><time>2026-05-01T10:00:34Z</time></trkpt><trkpt lat="44.611923623114244" lon="14.981301654128735"><ele>222.0</ele><time>2026-05-01T10:00:35Z</time></trkpt><trkpt lat="44.61177418648123" lon="14.981588467274104"><ele>233.0</ele><time>2026-05-01T10:00:36Z</time></trkpt><trkpt lat="44.6116098872652" lon="14.981848830073616"><ele>244.0</ele><time>2026-05-01T10:00:37Z</time></trkpt><trkpt lat="44.61142206769425" lon="14.982076837974123"><ele>244.0</ele><time>2026-05-01T10:00:38Z</time></trkpt><trkpt lat="44.61122804661374" lon="14.982271107345055"><ele>244.0</ele><time>2026-05-01T10:00:39Z</time></trkpt><trkpt lat="44.61102386675628" lon="14.982455900754484"><ele>243.0</ele><time>2026-05-01T10:00:40Z</time></trkpt><trkpt lat="44.61081629605864" lon="14.982650916292094"><ele>242.0</ele><time>2026-05-01T10:00:41Z</time></trkpt><trkpt lat="44.61060908847528" lon="14.982859037575611"><ele>242.0</ele><time>2026-05-01T10:00:42Z</time></trkpt><trkpt lat="44.610409661367946" lon="14.983079004391696"><ele>242.0</ele><time>2026-05-01T10:00:43Z</time></trkpt><trkpt lat="44.61021798112704" lon="14.98331813844251"><ele>237.0</ele><time>2026-05-01T10:00:44Z</time></trkpt><trkpt lat="44.61003093572774" lon="14.983570720335845"><ele>232.0</ele><time>2026-05-01T10:00:45Z</time></trkpt><trkpt lat="44.60985708632682" lon="14.983836638669167"><ele>232.0</ele><time>2026-05-01T10:00:46Z</time></trkpt><trkpt lat="44.60969332713051" lon="14.984096675412347"><ele>232.0</ele><time>2026-05-01T10:00:47Z</time></trkpt><trkpt lat="44.60952444385134" lon="14.984339783229558"><ele>227.5</ele><time>2026-05-01T10:00:48Z</time></trkpt><trkpt lat="44.60934746048321" lon="14.984554505174765"><ele>223.0</ele><time>2026-05-01T10:00:49Z</time></trkpt><trkpt lat="44.60915637595026" lon="14.984737607242774"><ele>223.0</ele><time>2026-05-01T10:00:50Z</time></trkpt><trkpt lat="44.60894224848152" lon="14.984889445829062"><ele>223.0</ele><time>2026-05-01T10:00:51Z</time></trkpt><trkpt lat="44.60871048353995" lon="14.985007391889443"><ele>226.5</ele><time>2026-05-01T10:00:52Z</time></trkpt><trkpt lat="44.60847477536343" lon="14.985125758350057"><ele>230.0</ele><time>2026-05-01T10:00:53Z</time></trkpt><trkpt lat="44.6082393219016" lon="14.985254228131845"><ele>230.0</ele><time>2026-05-01T10:00:54Z</time></trkpt><trkpt lat="44.60800593400992" lon="14.985384463940022"><ele>230.0</ele><time>2026-05-01T10:00:55Z</time></trkpt><trkpt lat="44.607772586320365" lon="14.98551784243566"><ele>223.5</ele><time>2026-05-01T10:00:56Z</time></trkpt><trkpt lat="44.60754089970194" lon="14.985649011633354"><ele>217.0</ele><time>2026-05-01T10:00:57Z</time></trkpt><trkpt lat="44.607309673360255" lon="14.985783785565275"><ele>215.5</ele><time>2026-05-01T10:00:58Z</time></trkpt><trkpt lat="44.6070754778912" lon="14.98592910439494"><ele>214.0</ele><time>2026-05-01T10:00:59Z</time></trkpt><trkpt lat="44.606844589783734" lon="14.986079469192052"><ele>214.0</ele><time>2026-05-01T10:01:00Z</time></trkpt><trkpt lat="44.60661447924707" lon="14.98624217283122"><ele>214.0</ele><time>2026-05-01T10:01:01Z</time></trkpt><trkpt lat="44.60637583336817" lon="14.986427934947603"><ele>213.0</ele><time>2026-05-01T10:01:02Z</time></trkpt><trkpt lat="44.60611459069135" lon="14.986655481435369"><ele>212.0</ele><time>2026-05-01T10:01:03Z</time></trkpt><trkpt lat="44.605834380853885" lon="14.986914443966871"><ele>211.5</ele><time>2026-05-01T10:01:04Z</time></trkpt><trkpt lat="44.6055340439654" lon="14.987194503233587"><ele>211.0</ele><time>2026-05-01T10:01:05Z</time></trkpt><trkpt lat="44.60522606592163" lon="14.98748223110213"><ele>217.0</ele><time>2026-05-01T10:01:06Z</time></trkpt><trkpt lat="44.60493220248517" lon="14.987757621294778"><ele>223.0</ele><time>2026-05-01T10:01:07Z</time></trkpt><trkpt lat="44.604666469257424" lon="14.988011086175975"><ele>224.5</ele><time>2026-05-01T10:01:08Z</time></trkpt><trkpt lat="44.60441927888007" lon="14.988242607822585"><ele>226.0</ele><time>2026-05-01T10:01:09Z</time></trkpt><trkpt lat="44.604191843297464" lon="14.988453393174023"><ele>226.0</ele><time>2026-05-01T10:01:10Z</time></trkpt><trkpt lat="44.60397417966245" lon="14.988645004884521"><ele>226.0</ele><time>2026-05-01T10:01:11Z</time></trkpt><trkpt lat="44.603742052287565" lon="14.988811724949972"><ele>222.0</ele><time>2026-05-01T10:01:12Z</time></trkpt><trkpt lat="44.60350536359705" lon="14.98892224409176"><ele>218.0</ele><time>2026-05-01T10:01:13Z</time></trkpt><trkpt lat="44.60326824160763" lon="14.988995283022481"><ele>218.0</ele><time>2026-05-01T10:01:14Z</time></trkpt><trkpt lat="44.6030359896846" lon="14.989028757292214"><ele>218.0</ele><time>2026-05-01T10:01:15Z</time></trkpt><trkpt lat="44.60280641356249" lon="14.989022701750638"><ele>219.5</ele><time>2026-05-01T10:01:16Z</time></trkpt><trkpt lat="44.6025694950924" lon="14.988987965718527"><ele>221.0</ele><time>2026-05-01T10:01:17Z</time></trkpt><trkpt lat="44.60233813941693" lon="14.988926710768979"><ele>221.0</ele><time>2026-05-01T10:01:18Z</time></trkpt><trkpt lat="44.60210535495011" lon="14.98883433180518"><ele>221.0</ele><time>2026-05-01T10:01:19Z</time></trkpt><trkpt lat="44.60188348118929" lon="14.988698814480358"><ele>217.0</ele><time>2026-05-01T10:01:20Z</time></trkpt><trkpt lat="44.601666805786174" lon="14.988535542586954"><ele>213.0</ele><time>2026-05-01T10:01:21Z</time></trkpt><trkpt lat="44.601465134037575" lon="14.988339427556708"><ele>213.0</ele><time>2026-05-01T10:01:22Z</time></trkpt><trkpt lat="44.60129257122993" lon="14.988107260601758"><ele>213.0</ele><time>2026-05-01T10:01:23Z</time></trkpt><trkpt lat="44.60112894854517" lon="14.987855637876425"><ele>212.66666666666669</ele><time>2026-05-01T10:01:24Z</time></trkpt><trkpt lat="44.600977401969764" lon="14.987617446863338"><ele>212.33333333333334</ele><time>2026-05-01T10:01:25Z</time></trkpt><trkpt lat="44.600835576316896" lon="14.987397771939927"><ele>212.0</ele><time>2026-05-01T10:01:26Z</time></trkpt><trkpt lat="44.60068936220243" lon="14.987217728967192"><ele>212.0</ele><time>2026-05-01T10:01:27Z</time></trkpt><trkpt lat="44.60051649611549" lon="14.987086674361967"><ele>212.0</ele><time>2026-05-01T10:01:28Z</time></trkpt><trkpt lat="44.60032069742788" lon="14.987025257227845"><ele>212.0</ele><time>2026-05-01T10:01:29Z</time></trkpt><trkpt lat="44.60012153011115" lon="14.987028408017805"><ele>212.66666666666669</ele><time>2026-05-01T10:01:30Z</time></trkpt><trkpt lat="44.59992794420279" lon="14.987095130028798"><ele>213.33333333333331</ele><time>2026-05-01T10:01:31Z</time></trkpt><trkpt lat="44.59974461852414" lon="14.987203903213949"><ele>214.0</ele><time>2026-05-01T10:01:32Z</time></trkpt><trkpt lat="44.59957316293398" lon="14.987370819997412"><ele>214.0</ele><time>2026-05-01T10:01:33Z</time></trkpt><trkpt lat="44.59943139883177" lon="14.98757322924258"><ele>214.0</ele><time>2026-05-01T10:01:34Z</time></trkpt><trkpt lat="44.59929614727975" lon="14.98778368631363"><ele>214.0</ele><time>2026-05-01T10:01:35Z</time></trkpt><trkpt lat="44.59913562477722" lon="14.987960788709543"><ele>214.0</ele><time>2026-05-01T10:01:36Z</time></trkpt><trkpt lat="44.59894673840219" lon="14.988083921456345"><ele>214.0</ele><time>2026-05-01T10:01:37Z</time></trkpt><trkpt lat="44.598744656400854" lon="14.988171081792645"><ele>214.0</ele><time>2026-05-01T10:01:38Z</time></trkpt><trkpt lat="44.59855018701297" lon="14.988252848574673"><ele>215.0</ele><time>2026-05-01T10:01:39Z</time></trkpt><trkpt lat="44.59837378184387" lon="14.988357399828828"><ele>216.0</ele><time>2026-05-01T10:01:40Z</time></trkpt><trkpt lat="44.59822044993515" lon="14.988522639171109"><ele>217.0</ele><time>2026-05-01T10:01:41Z</time></trkpt><trkpt lat="44.598098790950054" lon="14.98873513182628"><ele>217.0</ele><time>2026-05-01T10:01:42Z</time></trkpt><trkpt lat="44.597994173913726" lon="14.98896307073102"><ele>217.0</ele><time>2026-05-01T10:01:43Z</time></trkpt><trkpt lat="44.59788627765381" lon="14.989180016618542"><ele>217.0</ele><time>2026-05-01T10:01:44Z</time></trkpt><trkpt lat="44.59775192981581" lon="14.989371309059422"><ele>220.0</ele><time>2026-05-01T10:01:45Z</time></trkpt><trkpt lat="44.59758860226474" lon="14.989525843872027"><ele>223.0</ele><time>2026-05-01T10:01:46Z</time></trkpt><trkpt lat="44.597409163042826" lon="14.989623771438975"><ele>226.0</ele><time>2026-05-01T10:01:47Z</time></trkpt><trkpt lat="44.59721836772741" lon="14.989680993759377"><ele>226.0</ele><time>2026-05-01T10:01:48Z</time></trkpt><trkpt lat="44.59702229810543" lon="14.989686706691053"><ele>226.0</ele><time>2026-05-01T10:01:49Z</time></trkpt><trkpt lat="44.59682579312592" lon="14.98966319362474"><ele>226.0</ele><time>2026-05-01T10:01:50Z</time></trkpt><trkpt lat="44.59661972144908" lon="14.989634288163959"><ele>225.33333333333331</ele><time>2026-05-01T10:01:51Z</time></trkpt><trkpt lat="44.59641109707381" lon="14.989622372160008"><ele>224.66666666666669</ele><time>2026-05-01T10:01:52Z</time></trkpt><trkpt lat="44.59619626769019" lon="14.98966260325466"><ele>224.0</ele><time>2026-05-01T10:01:53Z</time></trkpt><trkpt lat="44.595996361577754" lon="14.989750947907083"><ele>221.66666666666669</ele><time>2026-05-01T10:01:54Z</time></trkpt><trkpt lat="44.5958162247437" lon="14.989874089677114"><ele>219.33333333333331</ele><time>2026-05-01T10:01:55Z</time></trkpt><trkpt lat="44.595630626744324" lon="14.99004298501727"><ele>217.0</ele><time>2026-05-01T10:01:56Z</time></trkpt><trkpt lat="44.59546113237961" lon="14.990240846904555"><ele>216.0</ele><time>2026-05-01T10:01:57Z</time></trkpt><trkpt lat="44.59530846021651" lon="14.990468686073116"><ele>215.0</ele><time>2026-05-01T10:01:58Z</time></trkpt><trkpt lat="44.595161108389604" lon="14.990710461509607"><ele>214.0</ele><time>2026-05-01T10:01:59Z</time></trkpt><trkpt lat="44.59500194595854" lon="14.99096293483124"><ele>222.5</ele><time>2026-05-01T10:02:00Z</time></trkpt><trkpt lat="44.59483189688932" lon="14.991216176446406"><ele>231.0</ele><time>2026-05-01T10:02:01Z</time></trkpt><trkpt lat="44.59466064424963" lon="14.991462177675267"><ele>232.66666666666669</ele><time>2026-05-01T10:02:02Z</time></trkpt><trkpt lat="44.59449514036867" lon="14.991674431415039"><ele>234.33333333333334</ele><time>2026-05-01T10:02:03Z</time></trkpt><trkpt lat="44.59430879711732" lon="14.99183462303143"><ele>236.0</ele><time>2026-05-01T10:02:04Z</time></trkpt><trkpt lat="44.59409448112774" lon="14.991929482652834"><ele>236.0</ele><time>2026-05-01T10:02:05Z</time></trkpt><trkpt lat="44.593892106157945" lon="14.992021990605032"><ele>236.0</ele><time>2026-05-01T10:02:06Z</time></trkpt><trkpt lat="44.59370229055322" lon="14.992133176391109"><ele>236.0</ele><time>2026-05-01T10:02:07Z</time></trkpt><trkpt lat="44.59352229229186" lon="14.992286703486334"><ele>232.0</ele><time>2026-05-01T10:02:08Z</time></trkpt><trkpt lat="44.59335987518441" lon="14.992494845318676"><ele>228.0</ele><time>2026-05-01T10:02:09Z</time></trkpt><trkpt lat="44.59321908422842" lon="14.992749693357993"><ele>228.0</ele><time>2026-05-01T10:02:10Z</time></trkpt><trkpt lat="44.593099395024154" lon="14.993041151680009"><ele>228.0</ele><time>2026-05-01T10:02:11Z</time></trkpt><trkpt lat="44.59297754606432" lon="14.993346857150526"><ele>223.5</ele><time>2026-05-01T10:02:12Z</time></trkpt><trkpt lat="44.59284209829722" lon="14.993635149048654"><ele>219.0</ele><time>2026-05-01T10:02:13Z</time></trkpt><trkpt lat="44.59270571561288" lon="14.993906806161183"><ele>219.0</ele><time>2026-05-01T10:02:14Z</time></trkpt><trkpt lat="44.59255074372757" lon="14.994165582033364"><ele>219.0</ele><time>2026-05-01T10:02:15Z</time></trkpt><trkpt lat="44.592373945953824" lon="14.994398653091737"><ele>223.5</ele><time>2026-05-01T10:02:16Z</time></trkpt><trkpt lat="44.59219276188387" lon="14.994614816151163"><ele>228.0</ele><time>2026-05-01T10:02:17Z</time></trkpt><trkpt lat="44.592013056711515" lon="14.994832692983957"><ele>224.33333333333331</ele><time>2026-05-01T10:02:18Z</time></trkpt><trkpt lat="44.5918506457651" lon="14.995033810625458"><ele>220.66666666666666</ele><time>2026-05-01T10:02:19Z</time></trkpt><trkpt lat="44.591696316832724" lon="14.995228015374831"><ele>217.0</ele><time>2026-05-01T10:02:20Z</time></trkpt><trkpt lat="44.59155503565539" lon="14.995416856438661"><ele>217.0</ele><time>2026-05-01T10:02:21Z</time></trkpt><trkpt lat="44.59143598385078" lon="14.99562779120361"><ele>217.0</ele><time>2026-05-01T10:02:22Z</time></trkpt><trkpt lat="44.59133914534586" lon="14.995883177513688"><ele>217.0</ele><time>2026-05-01T10:02:23Z</time></trkpt><trkpt lat="44.591286287994365" lon="14.99615717925694"><ele>216.66666666666666</ele><time>2026-05-01T10:02:24Z</time></trkpt><trkpt lat="44.5912611341001" lon="14.996433370461256"><ele>216.33333333333331</ele><time>2026-05-01T10:02:25Z</time></trkpt><trkpt lat="44.591236483937756" lon="14.996694495219746"><ele>216.0</ele><time>2026-05-01T10:02:26Z</time></trkpt><trkpt lat="44.59119583549396" lon="14.996923726912879"><ele>213.33333333333331</ele><time>2026-05-01T10:02:27Z</time></trkpt><trkpt lat="44.59112894748033" lon="14.997144975634315"><ele>210.66666666666666</ele><time>2026-05-01T10:02:28Z</time></trkpt><trkpt lat="44.59102803243054" lon="14.997342671861539"><ele>208.0</ele><time>2026-05-01T10:02:29Z</time></trkpt><trkpt lat="44.590889100673145" lon="14.997503585626966"><ele>209.0</ele><time>2026-05-01T10:02:30Z</time></trkpt><trkpt lat="44.59071697504708" lon="14.997625875459784"><ele>210.0</ele><time>2026-05-01T10:02:31Z</time></trkpt><trkpt lat="44.59052884704897" lon="14.99771603789576"><ele>211.0</ele><time>2026-05-01T10:02:32Z</time></trkpt><trkpt lat="44.5903333776759" lon="14.997802156073375"><ele>211.0</ele><time>2026-05-01T10:02:33Z</time></trkpt><trkpt lat="44.59015257817937" lon="14.997920971845215"><ele>211.0</ele><time>2026-05-01T10:02:34Z</time></trkpt><trkpt lat="44.589992558710875" lon="14.998096764196179"><ele>211.0</ele><time>2026-05-01T10:02:35Z</time></trkpt><trkpt lat="44.58986271903408" lon="14.998312015773061"><ele>212.66666666666666</ele><time>2026-05-01T10:02:36Z</time></trkpt><trkpt lat="44.5897532246385" lon="14.998576893067028"><ele>214.33333333333331</ele><time>2026-05-01T10:02:37Z</time></trkpt><trkpt lat="44.589641875571616" lon="14.998844997646353"><ele>216.0</ele><time>2026-05-01T10:02:38Z</time></trkpt><trkpt lat="44.589529452203976" lon="14.999096648450253"><ele>211.33333333333331</ele><time>2026-05-01T10:02:39Z</time></trkpt><trkpt lat="44.58940894216139" lon="14.999335030362174"><ele>206.66666666666666</ele><time>2026-05-01T10:02:40Z</time></trkpt><trkpt lat="44.58929206905285" lon="14.999542353773098"><ele>202.0</ele><time>2026-05-01T10:02:41Z</time></trkpt><trkpt lat="44.589168119687145" lon="14.9997065410457"><ele>202.0</ele><time>2026-05-01T10:02:42Z</time></trkpt><trkpt lat="44.58903441543293" lon="14.999839368502018"><ele>202.0</ele><time>2026-05-01T10:02:43Z</time></trkpt><trkpt lat="44.588897747149055" lon="14.999944137794033"><ele>202.0</ele><time>2026-05-01T10:02:44Z</time></trkpt><trkpt lat="44.58875489229151" lon="15.000031808316981"><ele>200.66666666666666</ele><time>2026-05-01T10:02:45Z</time></trkpt><trkpt lat="44.58859110261586" lon="15.000111105586807"><ele>199.33333333333331</ele><time>2026-05-01T10:02:46Z</time></trkpt><trkpt lat="44.58841618908636" lon="15.000147530648725"><ele>198.0</ele><time>2026-05-01T10:02:47Z</time></trkpt><trkpt lat="44.58823093789668" lon="15.000167237404"><ele>198.0</ele><time>2026-05-01T10:02:48Z</time></trkpt><trkpt lat="44.58804077831196" lon="15.000187434818342"><ele>198.0</ele><time>2026-05-01T10:02:49Z</time></trkpt><trkpt lat="44.5878471352481" lon="15.000219929021371"><ele>198.0</ele><time>2026-05-01T10:02:50Z</time></trkpt><trkpt lat="44.58764046491546" lon="15.000285979001298"><ele>197.33333333333331</ele><time>2026-05-01T10:02:51Z</time></trkpt><trkpt lat="44.58744119360033" lon="15.000386432080397"><ele>196.66666666666666</ele><time>2026-05-01T10:02:52Z</time></trkpt><trkpt lat="44.58725442022161" lon="15.00049755932854"><ele>196.0</ele><time>2026-05-01T10:02:53Z</time></trkpt><trkpt lat="44.58707785296914" lon="15.000599400384232"><ele>193.33333333333331</ele><time>2026-05-01T10:02:54Z</time></trkpt><trkpt lat="44.58690597934243" lon="15.000684873587272"><ele>190.66666666666666</ele><time>2026-05-01T10:02:55Z</time></trkpt><trkpt lat="44.58673093223356" lon="15.000742851270935"><ele>188.0</ele><time>2026-05-01T10:02:56Z</time></trkpt><trkpt lat="44.58655028152603" lon="15.000772468754683"><ele>188.0</ele><time>2026-05-01T10:02:57Z</time></trkpt><trkpt lat="44.58637339084854" lon="15.00076230665262"><ele>188.0</ele><time>2026-05-01T10:02:58Z</time></trkpt><trkpt lat="44.586195593230634" lon="15.000727960302246"><ele>188.0</ele><time>2026-05-01T10:02:59Z</time></trkpt><trkpt lat="44.58602193928278" lon="15.000680690361596"><ele>184.33333333333331</ele><time>2026-05-01T10:03:00Z</time></trkpt><trkpt lat="44.58584294469188" lon="15.000630142895934"><ele>180.66666666666666</ele><time>2026-05-01T10:03:01Z</time></trkpt><trkpt lat="44.585671231759626" lon="15.000584561194678"><ele>177.0</ele><time>2026-05-01T10:03:02Z</time></trkpt><trkpt lat="44.585502893489654" lon="15.000547035388434"><ele>175.66666666666666</ele><time>2026-05-01T10:03:03Z</time></trkpt><trkpt lat="44.58532185554105" lon="15.000517615102849"><ele>174.33333333333331</ele><time>2026-05-01T10:03:04Z</time></trkpt><trkpt lat="44.58514005288666" lon="15.000505295680334"><ele>173.0</ele><time>2026-05-01T10:03:05Z</time></trkpt><trkpt lat="44.58497005921362" lon="15.000518754111804"><ele>173.0</ele><time>2026-05-01T10:03:06Z</time></trkpt><trkpt lat="44.58480430138812" lon="15.000552631790804"><ele>173.0</ele><time>2026-05-01T10:03:07Z</time></trkpt><trkpt lat="44.58463347013121" lon="15.000599041005286"><ele>173.0</ele><time>2026-05-01T10:03:08Z</time></trkpt><trkpt lat="44.58446069365494" lon="15.000663594057086"><ele>174.66666666666666</ele><time>2026-05-01T10:03:09Z</time></trkpt><trkpt lat="44.584281866435866" lon="15.000750276912932"><ele>176.33333333333334</ele><time>2026-05-01T10:03:10Z</time></trkpt><trkpt lat="44.584106952405286" lon="15.000861017013074"><ele>178.0</ele><time>2026-05-01T10:03:11Z</time></trkpt><trkpt lat="44.58394405801474" lon="15.000996987944047"><ele>178.0</ele><time>2026-05-01T10:03:12Z</time></trkpt><trkpt lat="44.583797199736594" lon="15.001149217144967"><ele>178.0</ele><time>2026-05-01T10:03:13Z</time></trkpt><trkpt lat="44.58365701339861" lon="15.001319552580268"><ele>178.0</ele><time>2026-05-01T10:03:14Z</time></trkpt><trkpt lat="44.58351755087549" lon="15.001505424862835"><ele>176.33333333333334</ele><time>2026-05-01T10:03:15Z</time></trkpt><trkpt lat="44.58338817000644" lon="15.001708827468061"><ele>174.66666666666666</ele><time>2026-05-01T10:03:16Z</time></trkpt><trkpt lat="44.58327058725948" lon="15.001930411832523"><ele>173.0</ele><time>2026-05-01T10:03:17Z</time></trkpt><trkpt lat="44.58316111914206" lon="15.002186028006989"><ele>173.0</ele><time>2026-05-01T10:03:18Z</time></trkpt><trkpt lat="44.583053631720844" lon="15.002466262428236"><ele>173.0</ele><time>2026-05-01T10:03:19Z</time></trkpt><trkpt lat="44.58296461502649" lon="15.00271583622493"><ele>173.0</ele><time>2026-05-01T10:03:20Z</time></trkpt><trkpt lat="44.58287339646685" lon="15.002955319267938"><ele>172.0</ele><time>2026-05-01T10:03:21Z</time></trkpt><trkpt lat="44.5827771506022" lon="15.003203836794095"><ele>171.0</ele><time>2026-05-01T10:03:22Z</time></trkpt><trkpt lat="44.582675036116164" lon="15.003452417466656"><ele>170.0</ele><time>2026-05-01T10:03:23Z</time></trkpt><trkpt lat="44.58256349769243" lon="15.003691897926437"><ele>170.0</ele><time>2026-05-01T10:03:24Z</time></trkpt><trkpt lat="44.582440919640696" lon="15.003909474159364"><ele>170.0</ele><time>2026-05-01T10:03:25Z</time></trkpt><trkpt lat="44.58231495381145" lon="15.004116484990712"><ele>170.0</ele><time>2026-05-01T10:03:26Z</time></trkpt><trkpt lat="44.582182676548406" lon="15.004314827205356"><ele>170.66666666666666</ele><time>2026-05-01T10:03:27Z</time></trkpt><trkpt lat="44.58204027551487" lon="15.004509673851265"><ele>171.33333333333334</ele><time>2026-05-01T10:03:28Z</time></trkpt><trkpt lat="44.5819041381862" lon="15.004698182799235"><ele>172.0</ele><time>2026-05-01T10:03:29Z</time></trkpt><trkpt lat="44.58177984973627" lon="15.004889225518895"><ele>170.66666666666669</ele><time>2026-05-01T10:03:30Z</time></trkpt><trkpt lat="44.58166221910318" lon="15.005090390672933"><ele>169.33333333333334</ele><time>2026-05-01T10:03:31Z</time></trkpt><trkpt lat="44.58155935784325" lon="15.005304820098667"><ele>168.0</ele><time>2026-05-01T10:03:32Z</time></trkpt><trkpt lat="44.5814620300778" lon="15.0055271507606"><ele>168.0</ele><time>2026-05-01T10:03:33Z</time></trkpt><trkpt lat="44.58135844998533" lon="15.005742991371836"><ele>168.0</ele><time>2026-05-01T10:03:34Z</time></trkpt><trkpt lat="44.58123579076921" lon="15.005951321716136"><ele>168.0</ele><time>2026-05-01T10:03:35Z</time></trkpt><trkpt lat="44.58110011623108" lon="15.006145301547509"><ele>166.0</ele><time>2026-05-01T10:03:36Z</time></trkpt><trkpt lat="44.58094761249973" lon="15.006320989259377"><ele>164.0</ele><time>2026-05-01T10:03:37Z</time></trkpt><trkpt lat="44.58077761438151" lon="15.006462210575217"><ele>162.0</ele><time>2026-05-01T10:03:38Z</time></trkpt><trkpt lat="44.5805976400956" lon="15.006601256289766"><ele>162.33333333333334</ele><time>2026-05-01T10:03:39Z</time></trkpt><trkpt lat="44.58043047388506" lon="15.00674440953883"><ele>162.66666666666669</ele><time>2026-05-01T10:03:40Z</time></trkpt><trkpt lat="44.58028339133765" lon="15.006894384649634"><ele>163.0</ele><time>2026-05-01T10:03:41Z</time></trkpt><trkpt lat="44.58015561025443" lon="15.00705534114369"><ele>162.0</ele><time>2026-05-01T10:03:42Z</time></trkpt><trkpt lat="44.58003583417891" lon="15.007226596285095"><ele>161.0</ele><time>2026-05-01T10:03:43Z</time></trkpt><trkpt lat="44.57991221686017" lon="15.007404401582562"><ele>160.0</ele><time>2026-05-01T10:03:44Z</time></trkpt><trkpt lat="44.57978216926972" lon="15.007575489813455"><ele>160.0</ele><time>2026-05-01T10:03:45Z</time></trkpt><trkpt lat="44.5796464457201" lon="15.007741913647992"><ele>160.0</ele><time>2026-05-01T10:03:46Z</time></trkpt><trkpt lat="44.57950246226855" lon="15.007910034732316"><ele>160.0</ele><time>2026-05-01T10:03:47Z</time></trkpt><trkpt lat="44.579346741445036" lon="15.008077970843432"><ele>158.0</ele><time>2026-05-01T10:03:48Z</time></trkpt><trkpt lat="44.57918157325075" lon="15.008228472208046"><ele>156.0</ele><time>2026-05-01T10:03:49Z</time></trkpt><trkpt lat="44.57901043034568" lon="15.008354889763716"><ele>154.0</ele><time>2026-05-01T10:03:50Z</time></trkpt><trkpt lat="44.578838465579636" lon="15.008465521146595"><ele>150.33333333333334</ele><time>2026-05-01T10:03:51Z</time></trkpt><trkpt lat="44.57866057144891" lon="15.00858037572294"><ele>146.66666666666666</ele><time>2026-05-01T10:03:52Z</time></trkpt><trkpt lat="44.57848706218081" lon="15.008701196421924"><ele>143.0</ele><time>2026-05-01T10:03:53Z</time></trkpt><trkpt lat="44.57831271871901" lon="15.008825066993387"><ele>143.0</ele><time>2026-05-01T10:03:54Z</time></trkpt><trkpt lat="44.5781392441637" lon="15.008961969804899"><ele>143.0</ele><time>2026-05-01T10:03:55Z</time></trkpt><trkpt lat="44.57798120452394" lon="15.009114833657172"><ele>143.0</ele><time>2026-05-01T10:03:56Z</time></trkpt><trkpt lat="44.577831275049085" lon="15.009287528899339"><ele>142.33333333333331</ele><time>2026-05-01T10:03:57Z</time></trkpt><trkpt lat="44.577686237628015" lon="15.009484346275778"><ele>141.66666666666666</ele><time>2026-05-01T10:03:58Z</time></trkpt><trkpt lat="44.577530580362065" lon="15.009741144172121"><ele>141.0</ele><time>2026-05-01T10:03:59Z</time></trkpt><trkpt lat="44.57734908964344" lon="15.010067960964658"><ele>141.0</ele><time>2026-05-01T10:04:00Z</time></trkpt><trkpt lat="44.577156505762886" lon="15.010393773933572"><ele>141.0</ele><time>2026-05-01T10:04:01Z</time></trkpt><trkpt lat="44.57697977533862" lon="15.010651645445071"><ele>138.0</ele><time>2026-05-01T10:04:02Z</time></trkpt><trkpt lat="44.57680876331393" lon="15.01084440541822"><ele>135.0</ele><time>2026-05-01T10:04:03Z</time></trkpt><trkpt lat="44.57661670829603" lon="15.01098897664355"><ele>132.0</ele><time>2026-05-01T10:04:04Z</time></trkpt><trkpt lat="44.57640561626107" lon="15.011066444299853"><ele>129.0</ele><time>2026-05-01T10:04:05Z</time></trkpt><trkpt lat="44.57618454329473" lon="15.01110173580854"><ele>126.0</ele><time>2026-05-01T10:04:06Z</time></trkpt><trkpt lat="44.575992446575356" lon="15.0111563734216"><ele>123.0</ele><time>2026-05-01T10:04:07Z</time></trkpt><trkpt lat="44.57582349756428" lon="15.01125629978501"><ele>123.0</ele><time>2026-05-01T10:04:08Z</time></trkpt><trkpt lat="44.575668881783734" lon="15.011398042748441"><ele>123.0</ele><time>2026-05-01T10:04:09Z</time></trkpt><trkpt lat="44.5755263791449" lon="15.011570856253405"><ele>123.0</ele><time>2026-05-01T10:04:10Z</time></trkpt><trkpt lat="44.575403495117335" lon="15.011773818254547"><ele>121.66666666666666</ele><time>2026-05-01T10:04:11Z</time></trkpt><trkpt lat="44.575302180926016" lon="15.011997960345157"><ele>120.33333333333333</ele><time>2026-05-01T10:04:12Z</time></trkpt><trkpt lat="44.5752162403103" lon="15.01222767757606"><ele>119.0</ele><time>2026-05-01T10:04:13Z</time></trkpt><trkpt lat="44.575131678765096" lon="15.012453025815452"><ele>120.0</ele><time>2026-05-01T10:04:14Z</time></trkpt><trkpt lat="44.57504429091425" lon="15.01267266296804"><ele>121.0</ele><time>2026-05-01T10:04:15Z</time></trkpt><trkpt lat="44.574949108395366" lon="15.012887111329361"><ele>122.0</ele><time>2026-05-01T10:04:16Z</time></trkpt><trkpt lat="44.574845982891" lon="15.013093584414838"><ele>122.0</ele><time>2026-05-01T10:04:17Z</time></trkpt><trkpt lat="44.57472548496793" lon="15.013270665238394"><ele>122.0</ele><time>2026-05-01T10:04:18Z</time></trkpt><trkpt lat="44.574584052883615" lon="15.013421964547142"><ele>122.0</ele><time>2026-05-01T10:04:19Z</time></trkpt><trkpt lat="44.57442105809155" lon="15.013550798502669"><ele>119.0</ele><time>2026-05-01T10:04:20Z</time></trkpt><trkpt lat="44.57425058041144" lon="15.013643331029492"><ele>116.0</ele><time>2026-05-01T10:04:21Z</time></trkpt><trkpt lat="44.57407029938333" lon="15.013701779092154"><ele>113.0</ele><time>2026-05-01T10:04:22Z</time></trkpt><trkpt lat="44.573877091388475" lon="15.013738811363849"><ele>111.0</ele><time>2026-05-01T10:04:23Z</time></trkpt><trkpt lat="44.573683681413975" lon="15.013772166787234"><ele>109.0</ele><time>2026-05-01T10:04:24Z</time></trkpt><trkpt lat="44.57349580159197" lon="15.013803798743579"><ele>107.0</ele><time>2026-05-01T10:04:25Z</time></trkpt><trkpt lat="44.573313634525306" lon="15.013850538275937"><ele>107.0</ele><time>2026-05-01T10:04:26Z</time></trkpt><trkpt lat="44.57312883894245" lon="15.013929352552953"><ele>107.0</ele><time>2026-05-01T10:04:27Z</time></trkpt><trkpt lat="44.57294467115725" lon="15.014029194157741"><ele>107.0</ele><time>2026-05-01T10:04:28Z</time></trkpt><trkpt lat="44.57276104607285" lon="15.014146265630181"><ele>105.33333333333333</ele><time>2026-05-01T10:04:29Z</time></trkpt><trkpt lat="44.57258288110242" lon="15.014272140075343"><ele>103.66666666666666</ele><time>2026-05-01T10:04:30Z</time></trkpt><trkpt lat="44.572415931920524" lon="15.014412423408162"><ele>102.0</ele><time>2026-05-01T10:04:31Z</time></trkpt><trkpt lat="44.57223655259396" lon="15.014579900927977"><ele>102.0</ele><time>2026-05-01T10:04:32Z</time></trkpt><trkpt lat="44.57203519807405" lon="15.014819862456426"><ele>102.0</ele><time>2026-05-01T10:04:33Z</time></trkpt><trkpt lat="44.57182115257553" lon="15.015118808832314"><ele>97.5</ele><time>2026-05-01T10:04:34Z</time></trkpt><trkpt lat="44.57159602434004" lon="15.015415521828112"><ele>93.0</ele><time>2026-05-01T10:04:35Z</time></trkpt><trkpt lat="44.57137923050074" lon="15.015671910495042"><ele>88.5</ele><time>2026-05-01T10:04:36Z</time></trkpt><trkpt lat="44.57118067789741" lon="15.015891811780481"><ele>84.0</ele><time>2026-05-01T10:04:37Z</time></trkpt><trkpt lat="44.57097730817844" lon="15.016098997804797"><ele>84.0</ele><time>2026-05-01T10:04:38Z</time></trkpt><trkpt lat="44.57076093875619" lon="15.016277390351966"><ele>84.0</ele><time>2026-05-01T10:04:39Z</time></trkpt><trkpt lat="44.570528393260794" lon="15.016417244973372"><ele>81.5</ele><time>2026-05-01T10:04:40Z</time></trkpt><trkpt lat="44.57028740710082" lon="15.016521469138143"><ele>79.0</ele><time>2026-05-01T10:04:41Z</time></trkpt><trkpt lat="44.57004500178347" lon="15.016579152384946"><ele>79.0</ele><time>2026-05-01T10:04:42Z</time></trkpt><trkpt lat="44.569794268760084" lon="15.016602170449808"><ele>79.0</ele><time>2026-05-01T10:04:43Z</time></trkpt><trkpt lat="44.56954422315569" lon="15.016597569194088"><ele>75.5</ele><time>2026-05-01T10:04:44Z</time></trkpt><trkpt lat="44.56930388567834" lon="15.01658374210699"><ele>72.0</ele><time>2026-05-01T10:04:45Z</time></trkpt><trkpt lat="44.56907943371435" lon="15.016573041831627"><ele>72.0</ele><time>2026-05-01T10:04:46Z</time></trkpt><trkpt lat="44.56886843200088" lon="15.016574057677925"><ele>72.0</ele><time>2026-05-01T10:04:47Z</time></trkpt><trkpt lat="44.568675492820134" lon="15.016601798687736"><ele>72.0</ele><time>2026-05-01T10:04:48Z</time></trkpt><trkpt lat="44.568497966293286" lon="15.016670586973015"><ele>68.66666666666667</ele><time>2026-05-01T10:04:49Z</time></trkpt><trkpt lat="44.56833667642581" lon="15.016795638623122"><ele>65.33333333333334</ele><time>2026-05-01T10:04:50Z</time></trkpt><trkpt lat="44.56819282971461" lon="15.01697090583433"><ele>62.0</ele><time>2026-05-01T10:04:51Z</time></trkpt><trkpt lat="44.5680783620432" lon="15.017191532448905"><ele>62.0</ele><time>2026-05-01T10:04:52Z</time></trkpt><trkpt lat="44.56800030557082" lon="15.017445644349966"><ele>62.0</ele><time>2026-05-01T10:04:53Z</time></trkpt><trkpt lat="44.567958897340674" lon="15.017728779601748"><ele>62.0</ele><time>2026-05-01T10:04:54Z</time></trkpt><trkpt lat="44.56795053683268" lon="15.01802115775209"><ele>63.333333333333336</ele><time>2026-05-01T10:04:55Z</time></trkpt><trkpt lat="44.56796798412124" lon="15.018309015758536"><ele>64.66666666666667</ele><time>2026-05-01T10:04:56Z</time></trkpt><trkpt lat="44.56798241694653" lon="15.018583882450367"><ele>66.0</ele><time>2026-05-01T10:04:57Z</time></trkpt><trkpt lat="44.56797824161398" lon="15.018859063048405"><ele>66.0</ele><time>2026-05-01T10:04:58Z</time></trkpt><trkpt lat="44.56794432864857" lon="15.019122893161953"><ele>66.0</ele><time>2026-05-01T10:04:59Z</time></trkpt><trkpt lat="44.567866734826566" lon="15.019366618950706"><ele>66.0</ele><time>2026-05-01T10:05:00Z</time></trkpt><trkpt lat="44.567743092063225" lon="15.019578831307275"><ele>64.0</ele><time>2026-05-01T10:05:01Z</time></trkpt><trkpt lat="44.56759109908608" lon="15.019763761708205"><ele>62.0</ele><time>2026-05-01T10:05:02Z</time></trkpt><trkpt lat="44.567413239413476" lon="15.019911924413702"><ele>60.0</ele><time>2026-05-01T10:05:03Z</time></trkpt><trkpt lat="44.56721535346235" lon="15.020024359426985"><ele>53.333333333333336</ele><time>2026-05-01T10:05:04Z</time></trkpt><trkpt lat="44.567017018538216" lon="15.020124994281487"><ele>46.66666666666667</ele><time>2026-05-01T10:05:05Z</time></trkpt><trkpt lat="44.56683916259894" lon="15.020228499006214"><ele>40.0</ele><time>2026-05-01T10:05:06Z</time></trkpt><trkpt lat="44.56667228632291" lon="15.020363188330355"><ele>40.0</ele><time>2026-05-01T10:05:07Z</time></trkpt><trkpt lat="44.566523485947805" lon="15.020527256116567"><ele>40.0</ele><time>2026-05-01T10:05:08Z</time></trkpt><trkpt lat="44.56638760907609" lon="15.020716370587094"><ele>40.0</ele><time>2026-05-01T10:05:09Z</time></trkpt><trkpt lat="44.56627570432098" lon="15.02092594603442"><ele>37.66666666666667</ele><time>2026-05-01T10:05:10Z</time></trkpt><trkpt lat="44.566181940944205" lon="15.021137418068772"><ele>35.333333333333336</ele><time>2026-05-01T10:05:11Z</time></trkpt><trkpt lat="44.56608327543415" lon="15.021342250192614"><ele>33.0</ele><time>2026-05-01T10:05:12Z</time></trkpt><trkpt lat="44.56597035510721" lon="15.021520791323548"><ele>33.0</ele><time>2026-05-01T10:05:13Z</time></trkpt><trkpt lat="44.56583088816008" lon="15.021645407219491"><ele>33.0</ele><time>2026-05-01T10:05:14Z</time></trkpt><trkpt lat="44.565672172959005" lon="15.021730772844009"><ele>33.0</ele><time>2026-05-01T10:05:15Z</time></trkpt><trkpt lat="44.56549927307174" lon="15.021769746055165"><ele>31.333333333333336</ele><time>2026-05-01T10:05:16Z</time></trkpt><trkpt lat="44.5653171464309" lon="15.021769105153064"><ele>29.666666666666668</ele><time>2026-05-01T10:05:17Z</time></trkpt><trkpt lat="44.565141027079385" lon="15.021752669721803"><ele>28.0</ele><time>2026-05-01T10:05:18Z</time></trkpt><trkpt lat="44.56497005469556" lon="15.021752213119811"><ele>28.0</ele><time>2026-05-01T10:05:19Z</time></trkpt><trkpt lat="44.56480278280679" lon="15.02176880826254"><ele>28.0</ele><time>2026-05-01T10:05:20Z</time></trkpt><trkpt lat="44.56463808345129" lon="15.021817873752164"><ele>28.0</ele><time>2026-05-01T10:05:21Z</time></trkpt><trkpt lat="44.56447356018964" lon="15.021914769826433"><ele>23.0</ele><time>2026-05-01T10:05:22Z</time></trkpt><trkpt lat="44.56431932705105" lon="15.02205253415221"><ele>18.0</ele><time>2026-05-01T10:05:23Z</time></trkpt><trkpt lat="44.56417851526839" lon="15.022226715218833"><ele>13.0</ele><time>2026-05-01T10:05:24Z</time></trkpt><trkpt lat="44.564049102772024" lon="15.022432036325721"><ele>14.666666666666666</ele><time>2026-05-01T10:05:25Z</time></trkpt><trkpt lat="44.563922244594615" lon="15.022641187322062"><ele>16.333333333333332</ele><time>2026-05-01T10:05:26Z</time></trkpt><trkpt lat="44.56378142289045" lon="15.022819818513078"><ele>18.0</ele><time>2026-05-01T10:05:27Z</time></trkpt><trkpt lat="44.56362172622144" lon="15.022963158805632"><ele>18.0</ele><time>2026-05-01T10:05:28Z</time></trkpt><trkpt lat="44.56345166051447" lon="15.023076198062396"><ele>18.0</ele><time>2026-05-01T10:05:29Z</time></trkpt><trkpt lat="44.5632821431822" lon="15.023183626023101"><ele>18.0</ele><time>2026-05-01T10:05:30Z</time></trkpt><trkpt lat="44.563125796723014" lon="15.023324668675484"><ele>20.666666666666664</ele><time>2026-05-01T10:05:31Z</time></trkpt><trkpt lat="44.56299524918312" lon="15.023511397528182"><ele>23.333333333333332</ele><time>2026-05-01T10:05:32Z</time></trkpt><trkpt lat="44.56288636341724" lon="15.02372751581203"><ele>26.0</ele><time>2026-05-01T10:05:33Z</time></trkpt><trkpt lat="44.562799106595634" lon="15.023970351483834"><ele>26.666666666666664</ele><time>2026-05-01T10:05:34Z</time></trkpt><trkpt lat="44.56274827500948" lon="15.024232285154307"><ele>27.333333333333336</ele><time>2026-05-01T10:05:35Z</time></trkpt><trkpt lat="44.56272991948269" lon="15.024528814418879"><ele>28.0</ele><time>2026-05-01T10:05:36Z</time></trkpt><trkpt lat="44.562754068195126" lon="15.02486726412999"><ele>29.0</ele><time>2026-05-01T10:05:37Z</time></trkpt><trkpt lat="44.56282001682211" lon="15.02525848500781"><ele>30.0</ele><time>2026-05-01T10:05:38Z</time></trkpt><trkpt lat="44.56288909871959" lon="15.025601245941395"><ele>29.333333333333336</ele><time>2026-05-01T10:05:39Z</time></trkpt><trkpt lat="44.56290777605408" lon="15.025892337490346"><ele>28.666666666666668</ele><time>2026-05-01T10:05:40Z</time></trkpt><trkpt lat="44.56287521337488" lon="15.026163561622642"><ele>28.0</ele><time>2026-05-01T10:05:41Z</time></trkpt><trkpt lat="44.562813476657176" lon="15.026430570338986"><ele>28.333333333333336</ele><time>2026-05-01T10:05:42Z</time></trkpt><trkpt lat="44.56273312757125" lon="15.026676081620215"><ele>28.666666666666664</ele><time>2026-05-01T10:05:43Z</time></trkpt><trkpt lat="44.56265347322822" lon="15.02692292668847"><ele>29.0</ele><time>2026-05-01T10:05:44Z</time></trkpt><trkpt lat="44.562598392785404" lon="15.027168701253789"><ele>29.0</ele><time>2026-05-01T10:05:45Z</time></trkpt><trkpt lat="44.56257181961229" lon="15.027420118018975"><ele>29.0</ele><time>2026-05-01T10:05:46Z</time></trkpt><trkpt lat="44.56257417143749" lon="15.027674160819094"><ele>29.0</ele><time>2026-05-01T10:05:47Z</time></trkpt><trkpt lat="44.562596258791416" lon="15.027933386574041"><ele>30.333333333333332</ele><time>2026-05-01T10:05:48Z</time></trkpt><trkpt lat="44.56263497924849" lon="15.028181106576016"><ele>31.666666666666664</ele><time>2026-05-01T10:05:49Z</time></trkpt><trkpt lat="44.56267143087658" lon="15.02841957766159"><ele>33.0</ele><time>2026-05-01T10:05:50Z</time></trkpt><trkpt lat="44.56270565513713" lon="15.028657110067387"><ele>33.0</ele><time>2026-05-01T10:05:51Z</time></trkpt><trkpt lat="44.56271866750588" lon="15.028893652963802"><ele>33.0</ele><time>2026-05-01T10:05:52Z</time></trkpt><trkpt lat="44.56269698530571" lon="15.029139596159352"><ele>33.0</ele><time>2026-05-01T10:05:53Z</time></trkpt><trkpt lat="44.5626271488128" lon="15.029371905069496"><ele>33.333333333333336</ele><time>2026-05-01T10:05:54Z</time></trkpt><trkpt lat="44.56251983105492" lon="15.029575285619178"><ele>33.66666666666667</ele><time>2026-05-01T10:05:55Z</time></trkpt><trkpt lat="44.56238934047891" lon="15.029757372019688"><ele>34.0</ele><time>2026-05-01T10:05:56Z</time></trkpt><trkpt lat="44.56223866576131" lon="15.029914736128116"><ele>34.0</ele><time>2026-05-01T10:05:57Z</time></trkpt><trkpt lat="44.562050180005464" lon="15.030056468528011"><ele>34.0</ele><time>2026-05-01T10:05:58Z</time></trkpt><trkpt lat="44.561825687192574" lon="15.0302234799048"><ele>34.0</ele><time>2026-05-01T10:05:59Z</time></trkpt><trkpt lat="44.561569564433945" lon="15.03042221155723"><ele>34.0</ele><time>2026-05-01T10:06:00Z</time></trkpt><trkpt lat="44.56128679361726" lon="15.030653532296343"><ele>37.0</ele><time>2026-05-01T10:06:01Z</time></trkpt><trkpt lat="44.56098464592386" lon="15.030901804663484"><ele>40.0</ele><time>2026-05-01T10:06:02Z</time></trkpt><trkpt lat="44.56070061165339" lon="15.031132019524971"><ele>40.0</ele><time>2026-05-01T10:06:03Z</time></trkpt><trkpt lat="44.560451705256924" lon="15.03133369779269"><ele>40.0</ele><time>2026-05-01T10:06:04Z</time></trkpt><trkpt lat="44.5602216829603" lon="15.031524273094627"><ele>39.5</ele><time>2026-05-01T10:06:05Z</time></trkpt><trkpt lat="44.560003837227214" lon="15.03170390538062"><ele>39.0</ele><time>2026-05-01T10:06:06Z</time></trkpt><trkpt lat="44.55980207572168" lon="15.031870240962741"><ele>39.0</ele><time>2026-05-01T10:06:07Z</time></trkpt><trkpt lat="44.559614200105685" lon="15.032025015896687"><ele>39.0</ele><time>2026-05-01T10:06:08Z</time></trkpt><trkpt lat="44.55943040833309" lon="15.032175618949779"><ele>39.0</ele><time>2026-05-01T10:06:09Z</time></trkpt><trkpt lat="44.559265074209314" lon="15.032314366793342"><ele>38.666666666666664</ele><time>2026-05-01T10:06:10Z</time></trkpt><trkpt lat="44.55911752959003" lon="15.032446651652204"><ele>38.33333333333333</ele><time>2026-05-01T10:06:11Z</time></trkpt><trkpt lat="44.558978690414264" lon="15.032584939584323"><ele>38.0</ele><time>2026-05-01T10:06:12Z</time></trkpt><trkpt lat="44.55884767563907" lon="15.032725734153276"><ele>38.0</ele><time>2026-05-01T10:06:13Z</time></trkpt><trkpt lat="44.55872043464815" lon="15.032873090150163"><ele>38.0</ele><time>2026-05-01T10:06:14Z</time></trkpt><trkpt lat="44.558593640951955" lon="15.033027304904563"><ele>38.0</ele><time>2026-05-01T10:06:15Z</time></trkpt><trkpt lat="44.55846932150911" lon="15.033186248565636"><ele>36.33333333333333</ele><time>2026-05-01T10:06:16Z</time></trkpt><trkpt lat="44.558342200306654" lon="15.033353600020096"><ele>34.666666666666664</ele><time>2026-05-01T10:06:17Z</time></trkpt><trkpt lat="44.55821882181452" lon="15.033524684929423"><ele>33.0</ele><time>2026-05-01T10:06:18Z</time></trkpt><trkpt lat="44.55809683668211" lon="15.03370277214925"><ele>33.0</ele><time>2026-05-01T10:06:19Z</time></trkpt><trkpt lat="44.557972123800866" lon="15.033869740736542"><ele>33.0</ele><time>2026-05-01T10:06:20Z</time></trkpt><trkpt lat="44.55783711748452" lon="15.034014749170245"><ele>33.0</ele><time>2026-05-01T10:06:21Z</time></trkpt><trkpt lat="44.55768277324539" lon="15.034121889899337"><ele>30.0</ele><time>2026-05-01T10:06:22Z</time></trkpt><trkpt lat="44.557510807600615" lon="15.034180661102372"><ele>27.0</ele><time>2026-05-01T10:06:23Z</time></trkpt><trkpt lat="44.55733696029758" lon="15.03419367633692"><ele>24.0</ele><time>2026-05-01T10:06:24Z</time></trkpt><trkpt lat="44.55716354422159" lon="15.034176029793281"><ele>22.0</ele><time>2026-05-01T10:06:25Z</time></trkpt><trkpt lat="44.55698910650654" lon="15.034156862311132"><ele>20.0</ele><time>2026-05-01T10:06:26Z</time></trkpt><trkpt lat="44.556810994069714" lon="15.034163290203985"><ele>18.0</ele><time>2026-05-01T10:06:27Z</time></trkpt><trkpt lat="44.55663283847846" lon="15.034204351183641"><ele>18.0</ele><time>2026-05-01T10:06:28Z</time></trkpt><trkpt lat="44.556464365058055" lon="15.034280598878723"><ele>18.0</ele><time>2026-05-01T10:06:29Z</time></trkpt><trkpt lat="44.55629879127445" lon="15.034396398526635"><ele>18.0</ele><time>2026-05-01T10:06:30Z</time></trkpt><trkpt lat="44.55613347638025" lon="15.03454527225545"><ele>17.666666666666668</ele><time>2026-05-01T10:06:31Z</time></trkpt><trkpt lat="44.55597289241653" lon="15.03472320720967"><ele>17.333333333333336</ele><time>2026-05-01T10:06:32Z</time></trkpt><trkpt lat="44.55581507228652" lon="15.034913472872097"><ele>17.0</ele><time>2026-05-01T10:06:33Z</time></trkpt><trkpt lat="44.555657104999696" lon="15.035097111914654"><ele>17.0</ele><time>2026-05-01T10:06:34Z</time></trkpt><trkpt lat="44.555496063799545" lon="15.035270544258774"><ele>17.0</ele><time>2026-05-01T10:06:35Z</time></trkpt><trkpt lat="44.55533876105539" lon="15.035430469471772"><ele>17.0</ele><time>2026-05-01T10:06:36Z</time></trkpt><trkpt lat="44.55517999256554" lon="15.035583506910745"><ele>14.666666666666668</ele><time>2026-05-01T10:06:37Z</time></trkpt><trkpt lat="44.55502714190531" lon="15.035729861391687"><ele>12.333333333333334</ele><time>2026-05-01T10:06:38Z</time></trkpt><trkpt lat="44.55489075916499" lon="15.035887253910829"><ele>10.0</ele><time>2026-05-01T10:06:39Z</time></trkpt><trkpt lat="44.554778569989786" lon="15.03607163148881"><ele>10.0</ele><time>2026-05-01T10:06:40Z</time></trkpt><trkpt lat="44.55468853191853" lon="15.03627515418318"><ele>10.0</ele><time>2026-05-01T10:06:41Z</time></trkpt><trkpt lat="44.55462058401486" lon="15.036478684760718"><ele>10.0</ele><time>2026-05-01T10:06:42Z</time></trkpt><trkpt lat="44.55456282209138" lon="15.036665916393224"><ele>9.0</ele><time>2026-05-01T10:06:43Z</time></trkpt><trkpt lat="44.554494491635474" lon="15.036838622476788"><ele>8.0</ele><time>2026-05-01T10:06:44Z</time></trkpt><trkpt lat="44.55441317122091" lon="15.037002774461083"><ele>7.0</ele><time>2026-05-01T10:06:45Z</time></trkpt><trkpt lat="44.55431501261422" lon="15.03716307821077"><ele>6.0</ele><time>2026-05-01T10:06:46Z</time></trkpt><trkpt lat="44.55419411335208" lon="15.037298831036319"><ele>6.0</ele><time>2026-05-01T10:06:47Z</time></trkpt><trkpt lat="44.55406150618924" lon="15.037404936013518"><ele>6.0</ele><time>2026-05-01T10:06:48Z</time></trkpt><trkpt lat="44.55392660573333" lon="15.037490237089864"><ele>6.0</ele><time>2026-05-01T10:06:49Z</time></trkpt><trkpt lat="44.55379935275394" lon="15.037564453755165"><ele>6.0</ele><time>2026-05-01T10:06:50Z</time></trkpt><trkpt lat="44.55367885744101" lon="15.037644151182107"><ele>6.25</ele><time>2026-05-01T10:06:51Z</time></trkpt><trkpt lat="44.553560220089615" lon="15.037726298054206"><ele>6.5</ele><time>2026-05-01T10:06:52Z</time></trkpt><trkpt lat="44.55344274197784" lon="15.037822117012544"><ele>6.75</ele><time>2026-05-01T10:06:53Z</time></trkpt><trkpt lat="44.553336096854224" lon="15.037931967414966"><ele>7.0</ele><time>2026-05-01T10:06:54Z</time></trkpt><trkpt lat="44.5532387328882" lon="15.038060127754656"><ele>7.0</ele><time>2026-05-01T10:06:55Z</time></trkpt><trkpt lat="44.55315542495946" lon="15.038201377109115"><ele>7.0</ele><time>2026-05-01T10:06:56Z</time></trkpt><trkpt lat="44.5530762536033" lon="15.038354790306913"><ele>7.0</ele><time>2026-05-01T10:06:57Z</time></trkpt><trkpt lat="44.55300559188598" lon="15.038510040981143"><ele>7.0</ele><time>2026-05-01T10:06:58Z</time></trkpt><trkpt lat="44.55293940372788" lon="15.038680833761331"><ele>7.0</ele><time>2026-05-01T10:06:59Z</time></trkpt><trkpt lat="44.55288578436515" lon="15.038855310465594"><ele>7.0</ele><time>2026-05-01T10:07:00Z</time></trkpt><trkpt lat="44.55284892325696" lon="15.039036096877172"><ele>7.0</ele><time>2026-05-01T10:07:01Z</time></trkpt><trkpt lat="44.552832084077714" lon="15.039213153891085"><ele>7.0</ele><time>2026-05-01T10:07:02Z</time></trkpt><trkpt lat="44.55282928277203" lon="15.039384301020728"><ele>7.0</ele><time>2026-05-01T10:07:03Z</time></trkpt><trkpt lat="44.552827808310894" lon="15.039544570151957"><ele>7.0</ele><time>2026-05-01T10:07:04Z</time></trkpt><trkpt lat="44.55282431029887" lon="15.039708089228766"><ele>7.0</ele><time>2026-05-01T10:07:05Z</time></trkpt><trkpt lat="44.55282209186026" lon="15.039865170885268"><ele>7.0</ele><time>2026-05-01T10:07:06Z</time></trkpt><trkpt lat="44.55282221754121" lon="15.040020969787971"><ele>7.25</ele><time>2026-05-01T10:07:07Z</time></trkpt><trkpt lat="44.55282386267336" lon="15.040179897454816"><ele>7.5</ele><time>2026-05-01T10:07:08Z</time></trkpt><trkpt lat="44.552821649823464" lon="15.040342673569596"><ele>7.75</ele><time>2026-05-01T10:07:09Z</time></trkpt><trkpt lat="44.552816823122335" lon="15.040500532033558"><ele>8.0</ele><time>2026-05-01T10:07:10Z</time></trkpt><trkpt lat="44.55281398763776" lon="15.040658811707774"><ele>7.5</ele><time>2026-05-01T10:07:11Z</time></trkpt><trkpt lat="44.55281464758951" lon="15.040816581500817"><ele>7.0</ele><time>2026-05-01T10:07:12Z</time></trkpt><trkpt lat="44.552814206824635" lon="15.0409821933071"><ele>6.5</ele><time>2026-05-01T10:07:13Z</time></trkpt><trkpt lat="44.55280700463008" lon="15.041158692429399"><ele>6.0</ele><time>2026-05-01T10:07:14Z</time></trkpt><trkpt lat="44.552795646999996" lon="15.041341886906782"><ele>6.0</ele><time>2026-05-01T10:07:15Z</time></trkpt><trkpt lat="44.552777888631006" lon="15.041524726774547"><ele>6.0</ele><time>2026-05-01T10:07:16Z</time></trkpt><trkpt lat="44.55275030040685" lon="15.041707012603787"><ele>6.0</ele><time>2026-05-01T10:07:17Z</time></trkpt><trkpt lat="44.55270956804863" lon="15.04188817963029"><ele>6.0</ele><time>2026-05-01T10:07:18Z</time></trkpt><trkpt lat="44.5526513910021" lon="15.04206473061712"><ele>6.5</ele><time>2026-05-01T10:07:19Z</time></trkpt><trkpt lat="44.552577262321925" lon="15.042229910135505"><ele>7.0</ele><time>2026-05-01T10:07:20Z</time></trkpt><trkpt lat="44.55249417484622" lon="15.042384909433267"><ele>7.5</ele><time>2026-05-01T10:07:21Z</time></trkpt><trkpt lat="44.55240001533131" lon="15.042528892893205"><ele>8.0</ele><time>2026-05-01T10:07:22Z</time></trkpt><trkpt lat="44.55229304901187" lon="15.042664307631568"><ele>7.333333333333333</ele><time>2026-05-01T10:07:23Z</time></trkpt><trkpt lat="44.55216855229061" lon="15.042787416144927"><ele>6.666666666666666</ele><time>2026-05-01T10:07:24Z</time></trkpt><trkpt lat="44.5520316111658" lon="15.042912379227216"><ele>6.0</ele><time>2026-05-01T10:07:25Z</time></trkpt><trkpt lat="44.55188628389374" lon="15.043033386445225"><ele>6.0</ele><time>2026-05-01T10:07:26Z</time></trkpt><trkpt lat="44.55173796801836" lon="15.043157259252668"><ele>6.0</ele><time>2026-05-01T10:07:27Z</time></trkpt><trkpt lat="44.551599668055346" lon="15.043270372094485"><ele>6.0</ele><time>2026-05-01T10:07:28Z</time></trkpt><trkpt lat="44.55147910293364" lon="15.043371665762114"><ele>6.5</ele><time>2026-05-01T10:07:29Z</time></trkpt><trkpt lat="44.55136842728808" lon="15.043464598720183"><ele>7.0</ele><time>2026-05-01T10:07:30Z</time></trkpt><trkpt lat="44.55125978069897" lon="15.043557147892876"><ele>7.5</ele><time>2026-05-01T10:07:31Z</time></trkpt><trkpt lat="44.55115528408343" lon="15.043668821846351"><ele>8.0</ele><time>2026-05-01T10:07:32Z</time></trkpt><trkpt lat="44.55103918179266" lon="15.043806295598676"><ele>8.0</ele><time>2026-05-01T10:07:33Z</time></trkpt><trkpt lat="44.550939584960076" lon="15.04398138024971"><ele>8.0</ele><time>2026-05-01T10:07:34Z</time></trkpt><trkpt lat="44.550859649462524" lon="15.04419120669952"><ele>8.0</ele><time>2026-05-01T10:07:35Z</time></trkpt><trkpt lat="44.55079922863908" lon="15.044423974262251"><ele>9.333333333333332</ele><time>2026-05-01T10:07:36Z</time></trkpt><trkpt lat="44.55075420491108" lon="15.044663011372899"><ele>10.666666666666666</ele><time>2026-05-01T10:07:37Z</time></trkpt><trkpt lat="44.550708586938164" lon="15.044888364817734"><ele>12.0</ele><time>2026-05-01T10:07:38Z</time></trkpt><trkpt lat="44.55065977669848" lon="15.045112389308954"><ele>12.0</ele><time>2026-05-01T10:07:39Z</time></trkpt><trkpt lat="44.55057523565664" lon="15.045319521219332"><ele>12.0</ele><time>2026-05-01T10:07:40Z</time></trkpt><trkpt lat="44.5504601983551" lon="15.045511244526702"><ele>12.0</ele><time>2026-05-01T10:07:41Z</time></trkpt><trkpt lat="44.550314321241565" lon="15.045677705182896"><ele>11.0</ele><time>2026-05-01T10:07:42Z</time></trkpt><trkpt lat="44.550143735965094" lon="15.045819298217284"><ele>10.0</ele><time>2026-05-01T10:07:43Z</time></trkpt><trkpt lat="44.54996378915406" lon="15.045945705723971"><ele>9.0</ele><time>2026-05-01T10:07:44Z</time></trkpt><trkpt lat="44.54978611414764" lon="15.046069849674684"><ele>9.0</ele><time>2026-05-01T10:07:45Z</time></trkpt><trkpt lat="44.5496100056476" lon="15.046190409924337"><ele>9.0</ele><time>2026-05-01T10:07:46Z</time></trkpt><trkpt lat="44.549435463212426" lon="15.04629464115312"><ele>9.0</ele><time>2026-05-01T10:07:47Z</time></trkpt><trkpt lat="44.54925809980775" lon="15.046391837822144"><ele>9.0</ele><time>2026-05-01T10:07:48Z</time></trkpt><trkpt lat="44.54907551606882" lon="15.046481575903863"><ele>9.0</ele><time>2026-05-01T10:07:49Z</time></trkpt><trkpt lat="44.54888360236188" lon="15.046556682940984"><ele>9.0</ele><time>2026-05-01T10:07:50Z</time></trkpt><trkpt lat="44.548688400835566" lon="15.046628612444588"><ele>9.0</ele><time>2026-05-01T10:07:51Z</time></trkpt><trkpt lat="44.54849073594773" lon="15.046696460842407"><ele>9.0</ele><time>2026-05-01T10:07:52Z</time></trkpt><trkpt lat="44.54828922894458" lon="15.04676232558847"><ele>9.0</ele><time>2026-05-01T10:07:53Z</time></trkpt><trkpt lat="44.54807983863153" lon="15.046822703919233"><ele>6.333333333333333</ele><time>2026-05-01T10:07:54Z</time></trkpt><trkpt lat="44.54787334458489" lon="15.046877369406745"><ele>3.6666666666666665</ele><time>2026-05-01T10:07:55Z</time></trkpt><trkpt lat="44.54766153137084" lon="15.046928616642248"><ele>1.0</ele><time>2026-05-01T10:07:56Z</time></trkpt><trkpt lat="44.547448652887724" lon="15.0469810978692"><ele>1.0</ele><time>2026-05-01T10:07:57Z</time></trkpt><trkpt lat="44.54723700565635" lon="15.047029792316991"><ele>1.0</ele><time>2026-05-01T10:07:58Z</time></trkpt><trkpt lat="44.54703047654624" lon="15.04707334381899"><ele>1.0</ele><time>2026-05-01T10:07:59Z</time></trkpt><trkpt lat="44.54682801689559" lon="15.047117407182755"><ele>1.0</ele><time>2026-05-01T10:08:00Z</time></trkpt><trkpt lat="44.54663157696206" lon="15.047155298556387"><ele>1.0</ele><time>2026-05-01T10:08:01Z</time></trkpt><trkpt lat="44.54644574018024" lon="15.04719271906242"><ele>1.0</ele><time>2026-05-01T10:08:02Z</time></trkpt><trkpt lat="44.54625835656765" lon="15.047248277630823"><ele>0.6666666666666666</ele><time>2026-05-01T10:08:03Z</time></trkpt><trkpt lat="44.546078161605244" lon="15.047350191389958"><ele>0.3333333333333333</ele><time>2026-05-01T10:08:04Z</time></trkpt><trkpt lat="44.54591199220493" lon="15.04750526899445"><ele>0.0</ele><time>2026-05-01T10:08:05Z</time></trkpt><trkpt lat="44.54576372377732" lon="15.047698758367922"><ele>0.6666666666666666</ele><time>2026-05-01T10:08:06Z</time></trkpt><trkpt lat="44.54562429159692" lon="15.047917886989973"><ele>1.3333333333333333</ele><time>2026-05-01T10:08:07Z</time></trkpt><trkpt lat="44.54549161896187" lon="15.04815557327269"><ele>2.0</ele><time>2026-05-01T10:08:08Z</time></trkpt><trkpt lat="44.54536163946036" lon="15.048395923507362"><ele>2.0</ele><time>2026-05-01T10:08:09Z</time></trkpt><trkpt lat="44.545231678655966" lon="15.04863607660073"><ele>2.0</ele><time>2026-05-01T10:08:10Z</time></trkpt><trkpt lat="44.545099533554364" lon="15.048885046078377"><ele>2.0</ele><time>2026-05-01T10:08:11Z</time></trkpt><trkpt lat="44.54496701654922" lon="15.049129385930142"><ele>4.666666666666667</ele><time>2026-05-01T10:08:12Z</time></trkpt><trkpt lat="44.54483531034195" lon="15.049364889229375"><ele>7.333333333333334</ele><time>2026-05-01T10:08:13Z</time></trkpt><trkpt lat="44.54470776058029" lon="15.049595539568813"><ele>10.0</ele><time>2026-05-01T10:08:14Z</time></trkpt><trkpt lat="44.54458277735578" lon="15.049826713426587"><ele>7.333333333333334</ele><time>2026-05-01T10:08:15Z</time></trkpt><trkpt lat="44.54446132954725" lon="15.050048352142126"><ele>4.666666666666667</ele><time>2026-05-01T10:08:16Z</time></trkpt><trkpt lat="44.54433317732673" lon="15.05027345531944"><ele>2.0</ele><time>2026-05-01T10:08:17Z</time></trkpt><trkpt lat="44.54419812690401" lon="15.050492492076195"><ele>2.0</ele><time>2026-05-01T10:08:18Z</time></trkpt><trkpt lat="44.54405068201472" lon="15.050693467153266"><ele>2.0</ele><time>2026-05-01T10:08:19Z</time></trkpt><trkpt lat="44.54388718606048" lon="15.050867081235799"><ele>2.0</ele><time>2026-05-01T10:08:20Z</time></trkpt><trkpt lat="44.54371140987764" lon="15.051023478463991"><ele>1.6666666666666665</ele><time>2026-05-01T10:08:21Z</time></trkpt><trkpt lat="44.54352586395041" lon="15.051170928974708"><ele>1.3333333333333333</ele><time>2026-05-01T10:08:22Z</time></trkpt><trkpt lat="44.54333871672598" lon="15.051327934672589"><ele>1.0</ele><time>2026-05-01T10:08:23Z</time></trkpt><trkpt lat="44.54314640774359" lon="15.051513028261397"><ele>1.5</ele><time>2026-05-01T10:08:24Z</time></trkpt><trkpt lat="44.54293592951792" lon="15.051699897507735"><ele>2.0</ele><time>2026-05-01T10:08:25Z</time></trkpt><trkpt lat="44.54271790457121" lon="15.051894758639529"><ele>2.0</ele><time>2026-05-01T10:08:26Z</time></trkpt><trkpt lat="44.54249350064556" lon="15.052094656062021"><ele>2.0</ele><time>2026-05-01T10:08:27Z</time></trkpt><trkpt lat="44.54227018715805" lon="15.052296466746066"><ele>1.5</ele><time>2026-05-01T10:08:28Z</time></trkpt><trkpt lat="44.54205335328861" lon="15.052507222472755"><ele>1.0</ele><time>2026-05-01T10:08:29Z</time></trkpt><trkpt lat="44.5418466022402" lon="15.052756098430203"><ele>1.0</ele><time>2026-05-01T10:08:30Z</time></trkpt><trkpt lat="44.54164555041824" lon="15.053020169162307"><ele>1.0</ele><time>2026-05-01T10:08:31Z</time></trkpt><trkpt lat="44.541447040028274" lon="15.053288184244398"><ele>1.0</ele><time>2026-05-01T10:08:32Z</time></trkpt><trkpt lat="44.54124888527732" lon="15.053550237521108"><ele>1.0</ele><time>2026-05-01T10:08:33Z</time></trkpt><trkpt lat="44.54105925562107" lon="15.053793120836543"><ele>1.0</ele><time>2026-05-01T10:08:34Z</time></trkpt><trkpt lat="44.54087408867335" lon="15.054030068332763"><ele>1.0</ele><time>2026-05-01T10:08:35Z</time></trkpt><trkpt lat="44.54069451777918" lon="15.054259727148555"><ele>0.5</ele><time>2026-05-01T10:08:36Z</time></trkpt><trkpt lat="44.54051850734601" lon="15.054501984612704"><ele>0.0</ele><time>2026-05-01T10:08:37Z</time></trkpt><trkpt lat="44.540340903311" lon="15.054726570162352"><ele>0.0</ele><time>2026-05-01T10:08:38Z</time></trkpt><trkpt lat="44.540166545759185" lon="15.054948433173301"><ele>0.0</ele><time>2026-05-01T10:08:39Z</time></trkpt><trkpt lat="44.53999766955084" lon="15.055159892782212"><ele>0.0</ele><time>2026-05-01T10:08:40Z</time></trkpt><trkpt lat="44.539834322630924" lon="15.055365887954009"><ele>0.0</ele><time>2026-05-01T10:08:41Z</time></trkpt><trkpt lat="44.539674767819825" lon="15.055569951795071"><ele>0.0</ele><time>2026-05-01T10:08:42Z</time></trkpt><trkpt lat="44.539514727519645" lon="15.055771153032586"><ele>1.0</ele><time>2026-05-01T10:08:43Z</time></trkpt><trkpt lat="44.53936291490953" lon="15.055977468778924"><ele>2.0</ele><time>2026-05-01T10:08:44Z</time></trkpt><trkpt lat="44.53922058318397" lon="15.056202491201214"><ele>3.0</ele><time>2026-05-01T10:08:45Z</time></trkpt><trkpt lat="44.539105803315685" lon="15.056459460001903"><ele>6.0</ele><time>2026-05-01T10:08:46Z</time></trkpt><trkpt lat="44.5390299968176" lon="15.05674462310551"><ele>9.0</ele><time>2026-05-01T10:08:47Z</time></trkpt><trkpt lat="44.538969154656776" lon="15.05704635012984"><ele>12.0</ele><time>2026-05-01T10:08:48Z</time></trkpt><trkpt lat="44.53889691606683" lon="15.057339403018908"><ele>9.333333333333334</ele><time>2026-05-01T10:08:49Z</time></trkpt><trkpt lat="44.538796808765156" lon="15.057613411377535"><ele>6.666666666666666</ele><time>2026-05-01T10:08:50Z</time></trkpt><trkpt lat="44.538672245736755" lon="15.057872471769993"><ele>4.0</ele><time>2026-05-01T10:08:51Z</time></trkpt><trkpt lat="44.53854223441767" lon="15.058120042725514"><ele>7.5</ele><time>2026-05-01T10:08:52Z</time></trkpt><trkpt lat="44.53840724395647" lon="15.058366275650418"><ele>11.0</ele><time>2026-05-01T10:08:53Z</time></trkpt><trkpt lat="44.538259375609066" lon="15.058631474352472"><ele>11.0</ele><time>2026-05-01T10:08:54Z</time></trkpt><trkpt lat="44.53808817050324" lon="15.058922453690784"><ele>11.0</ele><time>2026-05-01T10:08:55Z</time></trkpt><trkpt lat="44.537898147042604" lon="15.059251664599424"><ele>12.5</ele><time>2026-05-01T10:08:56Z</time></trkpt><trkpt lat="44.53770363884416" lon="15.059603856819132"><ele>14.0</ele><time>2026-05-01T10:08:57Z</time></trkpt><trkpt lat="44.53751010551665" lon="15.059962862461559"><ele>14.0</ele><time>2026-05-01T10:08:58Z</time></trkpt><trkpt lat="44.537314502905865" lon="15.060323699640863"><ele>14.0</ele><time>2026-05-01T10:08:59Z</time></trkpt><trkpt lat="44.53711481969294" lon="15.060680563962181"><ele>12.5</ele><time>2026-05-01T10:09:00Z</time></trkpt><trkpt lat="44.53691494089084" lon="15.061021370309442"><ele>11.0</ele><time>2026-05-01T10:09:01Z</time></trkpt><trkpt lat="44.53671602141752" lon="15.061346232795502"><ele>14.0</ele><time>2026-05-01T10:09:02Z</time></trkpt><trkpt lat="44.53652941224628" lon="15.061658439602839"><ele>17.0</ele><time>2026-05-01T10:09:03Z</time></trkpt><trkpt lat="44.53635828223682" lon="15.061959006172025"><ele>16.5</ele><time>2026-05-01T10:09:04Z</time></trkpt><trkpt lat="44.53620188098914" lon="15.06223876178535"><ele>16.0</ele><time>2026-05-01T10:09:05Z</time></trkpt><trkpt lat="44.536051455649115" lon="15.062504286246485"><ele>16.0</ele><time>2026-05-01T10:09:06Z</time></trkpt><trkpt lat="44.53590447698126" lon="15.062764113597268"><ele>16.0</ele><time>2026-05-01T10:09:07Z</time></trkpt><trkpt lat="44.53575869738619" lon="15.063010009315875"><ele>16.0</ele><time>2026-05-01T10:09:08Z</time></trkpt><trkpt lat="44.53561521027967" lon="15.063259088188543"><ele>16.0</ele><time>2026-05-01T10:09:09Z</time></trkpt><trkpt lat="44.53547315252897" lon="15.06350847047172"><ele>16.0</ele><time>2026-05-01T10:09:10Z</time></trkpt><trkpt lat="44.53533428366767" lon="15.063754903101144"><ele>16.0</ele><time>2026-05-01T10:09:11Z</time></trkpt><trkpt lat="44.53519716913235" lon="15.063997456230863"><ele>16.0</ele><time>2026-05-01T10:09:12Z</time></trkpt><trkpt lat="44.53506061928108" lon="15.06424162872032"><ele>17.666666666666664</ele><time>2026-05-01T10:09:13Z</time></trkpt><trkpt lat="44.53492269973103" lon="15.064483424338599"><ele>19.333333333333332</ele><time>2026-05-01T10:09:14Z</time></trkpt><trkpt lat="44.534786777032764" lon="15.06471809498558"><ele>21.0</ele><time>2026-05-01T10:09:15Z</time></trkpt><trkpt lat="44.53465369622381" lon="15.064957002031424"><ele>21.666666666666668</ele><time>2026-05-01T10:09:16Z</time></trkpt><trkpt lat="44.534542878946276" lon="15.065192589269415"><ele>22.333333333333336</ele><time>2026-05-01T10:09:17Z</time></trkpt><trkpt lat="44.53446560584489" lon="15.065449141420169"><ele>23.0</ele><time>2026-05-01T10:09:18Z</time></trkpt><trkpt lat="44.53442961697742" lon="15.065721899849827"><ele>22.0</ele><time>2026-05-01T10:09:19Z</time></trkpt><trkpt lat="44.53441610976128" lon="15.065998647243672"><ele>21.0</ele><time>2026-05-01T10:09:20Z</time></trkpt><trkpt lat="44.53439518028377" lon="15.066262113262704"><ele>20.0</ele><time>2026-05-01T10:09:21Z</time></trkpt><trkpt lat="44.53436629159683" lon="15.066530906021544"><ele>20.666666666666668</ele><time>2026-05-01T10:09:22Z</time></trkpt><trkpt lat="44.534335523078376" lon="15.066802912263244"><ele>21.333333333333332</ele><time>2026-05-01T10:09:23Z</time></trkpt><trkpt lat="44.53428896773689" lon="15.067070300331114"><ele>22.0</ele><time>2026-05-01T10:09:24Z</time></trkpt><trkpt lat="44.53421730984883" lon="15.067326575378464"><ele>21.666666666666664</ele><time>2026-05-01T10:09:25Z</time></trkpt><trkpt lat="44.53411970347236" lon="15.0675618822503"><ele>21.333333333333332</ele><time>2026-05-01T10:09:26Z</time></trkpt><trkpt lat="44.53400874554436" lon="15.06778041720731"><ele>21.0</ele><time>2026-05-01T10:09:27Z</time></trkpt><trkpt lat="44.53390655812625" lon="15.06797502558289"><ele>21.0</ele><time>2026-05-01T10:09:28Z</time></trkpt><trkpt lat="44.53380790456898" lon="15.068156680931821"><ele>21.0</ele><time>2026-05-01T10:09:29Z</time></trkpt><trkpt lat="44.53371668402926" lon="15.068330689105155"><ele>21.0</ele><time>2026-05-01T10:09:30Z</time></trkpt><trkpt lat="44.53363248441087" lon="15.068493481154544"><ele>20.25</ele><time>2026-05-01T10:09:31Z</time></trkpt><trkpt lat="44.533553444186005" lon="15.068642620353954"><ele>19.5</ele><time>2026-05-01T10:09:32Z</time></trkpt><trkpt lat="44.5334781764024" lon="15.06878156394153"><ele>18.75</ele><time>2026-05-01T10:09:33Z</time></trkpt><trkpt lat="44.53340522897146" lon="15.068908400717548"><ele>18.0</ele><time>2026-05-01T10:09:34Z</time></trkpt><trkpt lat="44.53332303517611" lon="15.069023139251492"><ele>19.5</ele><time>2026-05-01T10:09:35Z</time></trkpt><trkpt lat="44.533217717971056" lon="15.069118112711386"><ele>21.0</ele><time>2026-05-01T10:09:36Z</time></trkpt><trkpt lat="44.53309492157584" lon="15.069163744896487"><ele>22.5</ele><time>2026-05-01T10:09:37Z</time></trkpt><trkpt lat="44.532961573200936" lon="15.069151526828113"><ele>24.0</ele><time>2026-05-01T10:09:38Z</time></trkpt><trkpt lat="44.5328268107942" lon="15.069097006825123"><ele>24.0</ele><time>2026-05-01T10:09:39Z</time></trkpt><trkpt lat="44.53269597012082" lon="15.068997024675625"><ele>24.0</ele><time>2026-05-01T10:09:40Z</time></trkpt><trkpt lat="44.53257687282483" lon="15.068837316722567"><ele>24.0</ele><time>2026-05-01T10:09:41Z</time></trkpt><trkpt lat="44.532478113202366" lon="15.068619051510465"><ele>24.0</ele><time>2026-05-01T10:09:42Z</time></trkpt><trkpt lat="44.53238974710312" lon="15.068366990763485"><ele>24.0</ele><time>2026-05-01T10:09:43Z</time></trkpt><trkpt lat="44.532306670573014" lon="15.068125487617786"><ele>24.0</ele><time>2026-05-01T10:09:44Z</time></trkpt><trkpt lat="44.53221746895143" lon="15.067902745505059"><ele>23.666666666666668</ele><time>2026-05-01T10:09:45Z</time></trkpt><trkpt lat="44.532133725357475" lon="15.067697823187041"><ele>23.333333333333336</ele><time>2026-05-01T10:09:46Z</time></trkpt><trkpt lat="44.53205446106325" lon="15.067503750175337"><ele>23.0</ele><time>2026-05-01T10:09:47Z</time></trkpt><trkpt lat="44.53197824757023" lon="15.067311706251939"><ele>23.0</ele><time>2026-05-01T10:09:48Z</time></trkpt><trkpt lat="44.53190437371531" lon="15.067123838648028"><ele>23.0</ele><time>2026-05-01T10:09:49Z</time></trkpt><trkpt lat="44.53182736213601" lon="15.06694396616021"><ele>23.0</ele><time>2026-05-01T10:09:50Z</time></trkpt><trkpt lat="44.53173923846551" lon="15.066782332595837"><ele>23.0</ele><time>2026-05-01T10:09:51Z</time></trkpt><trkpt lat="44.53162205580854" lon="15.066673954995093"><ele>23.0</ele><time>2026-05-01T10:09:52Z</time></trkpt><trkpt lat="44.53147030281716" lon="15.066643030131749"><ele>23.0</ele><time>2026-05-01T10:09:53Z</time></trkpt><trkpt lat="44.53132103075995" lon="15.066676504192419"><ele>23.0</ele><time>2026-05-01T10:09:54Z</time></trkpt><trkpt lat="44.53118090272679" lon="15.066763582868413"><ele>23.25</ele><time>2026-05-01T10:09:55Z</time></trkpt><trkpt lat="44.531055239060635" lon="15.066888869132239"><ele>23.5</ele><time>2026-05-01T10:09:56Z</time></trkpt><trkpt lat="44.530945292106956" lon="15.067019520275677"><ele>23.75</ele><time>2026-05-01T10:09:57Z</time></trkpt><trkpt lat="44.530838064279834" lon="15.067129411392363"><ele>24.0</ele><time>2026-05-01T10:09:58Z</time></trkpt><trkpt lat="44.53072371553906" lon="15.0672251415578"><ele>24.0</ele><time>2026-05-01T10:09:59Z</time></trkpt><trkpt lat="44.53060891787024" lon="15.067325051707222"><ele>24.0</ele><time>2026-05-01T10:10:00Z</time></trkpt><trkpt lat="44.53049821772915" lon="15.067429568864698"><ele>24.0</ele><time>2026-05-01T10:10:01Z</time></trkpt><trkpt lat="44.53039001975311" lon="15.067544085331653"><ele>24.0</ele><time>2026-05-01T10:10:02Z</time></trkpt><trkpt lat="44.53028829156163" lon="15.067673602570862"><ele>24.0</ele><time>2026-05-01T10:10:03Z</time></trkpt><trkpt lat="44.530203590679555" lon="15.067832990553288"><ele>24.0</ele><time>2026-05-01T10:10:04Z</time></trkpt><trkpt lat="44.5301374708834" lon="15.068018677386132"><ele>24.0</ele><time>2026-05-01T10:10:05Z</time></trkpt><trkpt lat="44.53009074561325" lon="15.06822909606894"><ele>24.0</ele><time>2026-05-01T10:10:06Z</time></trkpt><trkpt lat="44.53006144513314" lon="15.068451009107246"><ele>24.0</ele><time>2026-05-01T10:10:07Z</time></trkpt><trkpt lat="44.53003741717799" lon="15.068659193705555"><ele>24.0</ele><time>2026-05-01T10:10:08Z</time></trkpt><trkpt lat="44.530016803610536" lon="15.068846333730557"><ele>24.0</ele><time>2026-05-01T10:10:09Z</time></trkpt><trkpt lat="44.52998815808577" lon="15.069022785442103"><ele>24.0</ele><time>2026-05-01T10:10:10Z</time></trkpt><trkpt lat="44.52995643234458" lon="15.069196545529222"><ele>24.25</ele><time>2026-05-01T10:10:11Z</time></trkpt><trkpt lat="44.52991979711137" lon="15.069358485818764"><ele>24.5</ele><time>2026-05-01T10:10:12Z</time></trkpt><trkpt lat="44.5298701155801" lon="15.069504638353983"><ele>24.75</ele><time>2026-05-01T10:10:13Z</time></trkpt><trkpt lat="44.52979538761325" lon="15.069635759495704"><ele>25.0</ele><time>2026-05-01T10:10:14Z</time></trkpt><trkpt lat="44.529687100254634" lon="15.069725045808758"><ele>25.0</ele><time>2026-05-01T10:10:15Z</time></trkpt><trkpt lat="44.529561417381636" lon="15.069785442226687"><ele>25.0</ele><time>2026-05-01T10:10:16Z</time></trkpt><trkpt lat="44.52943498249905" lon="15.069834853014015"><ele>25.0</ele><time>2026-05-01T10:10:17Z</time></trkpt><trkpt lat="44.529320856752015" lon="15.06990519419858"><ele>25.0</ele><time>2026-05-01T10:10:18Z</time></trkpt><trkpt lat="44.52920872856223" lon="15.069970887013161"><ele>22.5</ele><time>2026-05-01T10:10:19Z</time></trkpt><trkpt lat="44.52909861342173" lon="15.070033557933467"><ele>20.0</ele><time>2026-05-01T10:10:20Z</time></trkpt><trkpt lat="44.52898951191381" lon="15.070095524051686"><ele>17.5</ele><time>2026-05-01T10:10:21Z</time></trkpt><trkpt lat="44.52887518391732" lon="15.070157699375548"><ele>15.0</ele><time>2026-05-01T10:10:22Z</time></trkpt><trkpt lat="44.52875864513097" lon="15.070212724900935"><ele>13.25</ele><time>2026-05-01T10:10:23Z</time></trkpt><trkpt lat="44.52863832315537" lon="15.070251109201163"><ele>11.5</ele><time>2026-05-01T10:10:24Z</time></trkpt><trkpt lat="44.52851190009228" lon="15.070255598802163"><ele>9.75</ele><time>2026-05-01T10:10:25Z</time></trkpt><trkpt lat="44.52838591515054" lon="15.070220742226246"><ele>8.0</ele><time>2026-05-01T10:10:26Z</time></trkpt><trkpt lat="44.528269806137786" lon="15.0701450716359"><ele>8.0</ele><time>2026-05-01T10:10:27Z</time></trkpt><trkpt lat="44.52817150137329" lon="15.070040917696918"><ele>8.0</ele><time>2026-05-01T10:10:28Z</time></trkpt><trkpt lat="44.52807008743726" lon="15.069941892114183"><ele>8.0</ele><time>2026-05-01T10:10:29Z</time></trkpt><trkpt lat="44.527961186018466" lon="15.069886573946675"><ele>8.0</ele><time>2026-05-01T10:10:30Z</time></trkpt><trkpt lat="44.52784939636691" lon="15.069879118696347"><ele>7.25</ele><time>2026-05-01T10:10:31Z</time></trkpt><trkpt lat="44.52773623872408" lon="15.069920546931892"><ele>6.5</ele><time>2026-05-01T10:10:32Z</time></trkpt><trkpt lat="44.52763443564781" lon="15.070001865862917"><ele>5.75</ele><time>2026-05-01T10:10:33Z</time></trkpt><trkpt lat="44.52754249950927" lon="15.070110966803854"><ele>5.0</ele><time>2026-05-01T10:10:34Z</time></trkpt><trkpt lat="44.52746250238235" lon="15.070242328006435"><ele>5.0</ele><time>2026-05-01T10:10:35Z</time></trkpt><trkpt lat="44.52739064752922" lon="15.070382724494666"><ele>5.0</ele><time>2026-05-01T10:10:36Z</time></trkpt><trkpt lat="44.52732745890082" lon="15.070530891402795"><ele>5.0</ele><time>2026-05-01T10:10:37Z</time></trkpt><trkpt lat="44.527267953678496" lon="15.070674710896515"><ele>5.0</ele><time>2026-05-01T10:10:38Z</time></trkpt><trkpt lat="44.52720968521895" lon="15.070820991080309"><ele>5.4</ele><time>2026-05-01T10:10:39Z</time></trkpt><trkpt lat="44.52715074729686" lon="15.070960802830886"><ele>5.8</ele><time>2026-05-01T10:10:40Z</time></trkpt><trkpt lat="44.52708963410734" lon="15.071081452530546"><ele>6.199999999999999</ele><time>2026-05-01T10:10:41Z</time></trkpt><trkpt lat="44.527021839461945" lon="15.071185538755946"><ele>6.6</ele><time>2026-05-01T10:10:42Z</time></trkpt><trkpt lat="44.526956174297105" lon="15.071277224774214"><ele>7.0</ele><time>2026-05-01T10:10:43Z</time></trkpt><trkpt lat="44.526886572982654" lon="15.071354956479427"><ele>6.333333333333334</ele><time>2026-05-01T10:10:44Z</time></trkpt><trkpt lat="44.52681973507505" lon="15.071419726099165"><ele>5.666666666666667</ele><time>2026-05-01T10:10:45Z</time></trkpt><trkpt lat="44.52674786541546" lon="15.071475247977782"><ele>5.0</ele><time>2026-05-01T10:10:46Z</time></trkpt><trkpt lat="44.52667002511281" lon="15.071527043243208"><ele>4.333333333333334</ele><time>2026-05-01T10:10:47Z</time></trkpt><trkpt lat="44.52659564139391" lon="15.071575752111361"><ele>3.666666666666667</ele><time>2026-05-01T10:10:48Z</time></trkpt><trkpt lat="44.52652663278629" lon="15.071619889328774"><ele>3.0</ele><time>2026-05-01T10:10:49Z</time></trkpt><trkpt lat="44.52646039043526" lon="15.071655003351063"><ele>3.0</ele><time>2026-05-01T10:10:50Z</time></trkpt><trkpt lat="44.526396301178245" lon="15.071687868693155"><ele>3.0</ele><time>2026-05-01T10:10:51Z</time></trkpt><trkpt lat="44.52632966613199" lon="15.071724521244464"><ele>3.0</ele><time>2026-05-01T10:10:52Z</time></trkpt><trkpt lat="44.5262709629392" lon="15.07176342244857"><ele>3.0</ele><time>2026-05-01T10:10:53Z</time></trkpt><trkpt lat="44.52617461060713" lon="15.071830381015602"><ele>3.0</ele><time>2026-05-01T10:10:55Z</time></trkpt><trkpt lat="44.526097065687516" lon="15.071888158141817"><ele>3.0</ele><time>2026-05-01T10:10:57Z</time></trkpt><trkpt lat="44.52600523815641" lon="15.07195781721553"><ele>2.6666666666666665</ele><time>2026-05-01T10:10:59Z</time></trkpt><trkpt lat="44.52591028667606" lon="15.072029410778372"><ele>2.3333333333333335</ele><time>2026-05-01T10:11:01Z</time></trkpt><trkpt lat="44.52582832788838" lon="15.07209319539642"><ele>2.0</ele><time>2026-05-01T10:11:03Z</time></trkpt><trkpt lat="44.52575785721277" lon="15.07214609653616"><ele>1.6666666666666665</ele><time>2026-05-01T10:11:05Z</time></trkpt><trkpt lat="44.52569808289637" lon="15.072192733506204"><ele>1.3333333333333333</ele><time>2026-05-01T10:11:08Z</time></trkpt><trkpt lat="44.52563733863949" lon="15.072245064346353"><ele>1.0</ele><time>2026-05-01T10:11:14Z</time></trkpt><trkpt lat="44.52556641107085" lon="15.072282606167878"><ele>1.0</ele><time>2026-05-01T10:12:37Z</time></trkpt><trkpt lat="44.52551175494061" lon="15.072341040319252"><ele>1.0</ele><time>2026-05-01T10:12:39Z</time></trkpt><trkpt lat="44.52544878481674" lon="15.072400070111495"><ele>1.0</ele><time>2026-05-01T10:12:41Z</time></trkpt><trkpt lat="44.52536410939484" lon="15.072476484752787"><ele>1.0</ele><time>2026-05-01T10:12:43Z</time></trkpt><trkpt lat="44.525267891697276" lon="15.072555508198684"><ele>1.0</ele><time>2026-05-01T10:12:45Z</time></trkpt><trkpt lat="44.52516943815386" lon="15.072635441184257"><ele>1.1666666666666665</ele><time>2026-05-01T10:12:47Z</time></trkpt><trkpt lat="44.52506090496299" lon="15.072717196603183"><ele>1.3333333333333333</ele><time>2026-05-01T10:12:49Z</time></trkpt><trkpt lat="44.52499419460259" lon="15.072774413475795"><ele>1.5</ele><time>2026-05-01T10:12:50Z</time></trkpt><trkpt lat="44.52492323703388" lon="15.07283313003925"><ele>1.6666666666666665</ele><time>2026-05-01T10:12:51Z</time></trkpt><trkpt lat="44.52485375474431" lon="15.072889403257223"><ele>1.8333333333333333</ele><time>2026-05-01T10:12:52Z</time></trkpt><trkpt lat="44.52478989016835" lon="15.072946894289364"><ele>2.0</ele><time>2026-05-01T10:12:53Z</time></trkpt><trkpt lat="44.524722840006895" lon="15.073007117032967"><ele>1.9999999999999998</ele><time>2026-05-01T10:12:54Z</time></trkpt><trkpt lat="44.52466206625818" lon="15.07305963308796"><ele>2.0</ele><time>2026-05-01T10:12:55Z</time></trkpt><trkpt lat="44.52460480555796" lon="15.073130679713683"><ele>2.0</ele><time>2026-05-01T10:12:56Z</time></trkpt><trkpt lat="44.52454017035335" lon="15.073216972792743"><ele>2.0</ele><time>2026-05-01T10:12:57Z</time></trkpt><trkpt lat="44.524488066025825" lon="15.073313617785697"><ele>1.9999999999999998</ele><time>2026-05-01T10:12:58Z</time></trkpt><trkpt lat="44.524425823803774" lon="15.073408508149328"><ele>2.0</ele><time>2026-05-01T10:12:59Z</time></trkpt><trkpt lat="44.52435629237936" lon="15.073500117032028"><ele>1.8</ele><time>2026-05-01T10:13:00Z</time></trkpt><trkpt lat="44.52427603261485" lon="15.073587064891122"><ele>1.6</ele><time>2026-05-01T10:13:01Z</time></trkpt><trkpt lat="44.52419520435762" lon="15.073675239891982"><ele>1.4000000000000001</ele><time>2026-05-01T10:13:02Z</time></trkpt><trkpt lat="44.524127627484425" lon="15.073785410123454"><ele>1.2000000000000002</ele><time>2026-05-01T10:13:03Z</time></trkpt><trkpt lat="44.524084778690344" lon="15.073913910337994"><ele>1.0</ele><time>2026-05-01T10:13:04Z</time></trkpt><trkpt lat="44.52408490845073" lon="15.074044481377074"><ele>1.2000000000000002</ele><time>2026-05-01T10:13:05Z</time></trkpt><trkpt lat="44.52411525414461" lon="15.074172253017771"><ele>1.4000000000000001</ele><time>2026-05-01T10:13:06Z</time></trkpt><trkpt lat="44.52416964967095" lon="15.074278346786715"><ele>1.6</ele><time>2026-05-01T10:13:07Z</time></trkpt><trkpt lat="44.52424133534358" lon="15.074356875853956"><ele>1.8</ele><time>2026-05-01T10:13:08Z</time></trkpt><trkpt lat="44.524324705509756" lon="15.074423444469652"><ele>2.0</ele><time>2026-05-01T10:13:09Z</time></trkpt><trkpt lat="44.52442145008435" lon="15.074483309278373"><ele>2.0</ele><time>2026-05-01T10:13:10Z</time></trkpt><trkpt lat="44.5245009376139" lon="15.074570769076944"><ele>2.0</ele><time>2026-05-01T10:13:11Z</time></trkpt><trkpt lat="44.52458237452421" lon="15.074659728479846"><ele>2.0</ele><time>2026-05-01T10:13:12Z</time></trkpt><trkpt lat="44.52468576075913" lon="15.07473387594295"><ele>2.0</ele><time>2026-05-01T10:13:13Z</time></trkpt><trkpt lat="44.52478525814082" lon="15.074810337399265"><ele>2.0</ele><time>2026-05-01T10:13:14Z</time></trkpt><trkpt lat="44.52488023815725" lon="15.074893250274476"><ele>3.25</ele><time>2026-05-01T10:13:15Z</time></trkpt><trkpt lat="44.52497765488177" lon="15.074989420255505"><ele>4.5</ele><time>2026-05-01T10:13:16Z</time></trkpt><trkpt lat="44.525084698025715" lon="15.075092300583663"><ele>5.75</ele><time>2026-05-01T10:13:17Z</time></trkpt><trkpt lat="44.52516045816621" lon="15.075213405237372"><ele>7.0</ele><time>2026-05-01T10:13:18Z</time></trkpt><trkpt lat="44.52523557833937" lon="15.075339912840702"><ele>7.0</ele><time>2026-05-01T10:13:19Z</time></trkpt><trkpt lat="44.52533175009547" lon="15.075445356047819"><ele>7.0</ele><time>2026-05-01T10:13:20Z</time></trkpt><trkpt lat="44.52544648201025" lon="15.075509639389058"><ele>7.0</ele><time>2026-05-01T10:13:21Z</time></trkpt><trkpt lat="44.52557424096472" lon="15.075546513642848"><ele>7.0</ele><time>2026-05-01T10:13:22Z</time></trkpt><trkpt lat="44.525697768093075" lon="15.075562944351992"><ele>9.0</ele><time>2026-05-01T10:13:23Z</time></trkpt><trkpt lat="44.52580334864628" lon="15.075602088678647"><ele>11.0</ele><time>2026-05-01T10:13:24Z</time></trkpt><trkpt lat="44.5259018158732" lon="15.07562653280172"><ele>13.0</ele><time>2026-05-01T10:13:25Z</time></trkpt><trkpt lat="44.525988155405855" lon="15.075661142419102"><ele>15.0</ele><time>2026-05-01T10:13:26Z</time></trkpt><trkpt lat="44.52606197176487" lon="15.07571189626616"><ele>17.0</ele><time>2026-05-01T10:13:27Z</time></trkpt><trkpt lat="44.52611781310947" lon="15.075769023423408"><ele>15.4</ele><time>2026-05-01T10:13:28Z</time></trkpt><trkpt lat="44.52613001321312" lon="15.075890724021994"><ele>13.799999999999999</ele><time>2026-05-01T10:13:29Z</time></trkpt><trkpt lat="44.526097592003765" lon="15.076011817565382"><ele>12.2</ele><time>2026-05-01T10:13:30Z</time></trkpt><trkpt lat="44.526039144230886" lon="15.076127554187348"><ele>10.6</ele><time>2026-05-01T10:13:31Z</time></trkpt><trkpt lat="44.52596411514077" lon="15.076247643182528"><ele>9.0</ele><time>2026-05-01T10:13:32Z</time></trkpt><trkpt lat="44.525886568352284" lon="15.076369435906422"><ele>9.0</ele><time>2026-05-01T10:13:33Z</time></trkpt><trkpt lat="44.52582042239112" lon="15.076496502547412"><ele>9.0</ele><time>2026-05-01T10:13:34Z</time></trkpt><trkpt lat="44.525752182872466" lon="15.076633032974243"><ele>9.0</ele><time>2026-05-01T10:13:35Z</time></trkpt><trkpt lat="44.52567811768209" lon="15.07676172849077"><ele>9.0</ele><time>2026-05-01T10:13:36Z</time></trkpt><trkpt lat="44.52560640189305" lon="15.07690908860423"><ele>10.25</ele><time>2026-05-01T10:13:37Z</time></trkpt><trkpt lat="44.52555142089175" lon="15.077074990052932"><ele>11.5</ele><time>2026-05-01T10:13:38Z</time></trkpt><trkpt lat="44.52550951857392" lon="15.077233880302492"><ele>12.75</ele><time>2026-05-01T10:13:39Z</time></trkpt><trkpt lat="44.52547964536634" lon="15.077402147102594"><ele>14.0</ele><time>2026-05-01T10:13:40Z</time></trkpt><trkpt lat="44.52546297040136" lon="15.077581536546054"><ele>15.0</ele><time>2026-05-01T10:13:41Z</time></trkpt><trkpt lat="44.525462656687836" lon="15.077773670063356"><ele>16.0</ele><time>2026-05-01T10:13:42Z</time></trkpt><trkpt lat="44.52548047514719" lon="15.077981397550573"><ele>17.0</ele><time>2026-05-01T10:13:43Z</time></trkpt><trkpt lat="44.525513681675335" lon="15.078189669779517"><ele>18.0</ele><time>2026-05-01T10:13:44Z</time></trkpt><trkpt lat="44.52555992640907" lon="15.07839579353002"><ele>18.0</ele><time>2026-05-01T10:13:45Z</time></trkpt><trkpt lat="44.52561246163047" lon="15.078596046432354"><ele>18.0</ele><time>2026-05-01T10:13:46Z</time></trkpt><trkpt lat="44.525633979408504" lon="15.078797822881215"><ele>18.0</ele><time>2026-05-01T10:13:47Z</time></trkpt><trkpt lat="44.52563166343534" lon="15.078967276887765"><ele>18.0</ele><time>2026-05-01T10:13:48Z</time></trkpt><trkpt lat="44.52560108184415" lon="15.079147260873585"><ele>16.5</ele><time>2026-05-01T10:13:49Z</time></trkpt><trkpt lat="44.5255241495312" lon="15.079299824884227"><ele>15.0</ele><time>2026-05-01T10:13:50Z</time></trkpt><trkpt lat="44.52542271921517" lon="15.079418410485799"><ele>13.5</ele><time>2026-05-01T10:13:51Z</time></trkpt><trkpt lat="44.52530417410762" lon="15.07949735962068"><ele>12.0</ele><time>2026-05-01T10:13:52Z</time></trkpt><trkpt lat="44.525177159098256" lon="15.079536930975632"><ele>11.0</ele><time>2026-05-01T10:13:53Z</time></trkpt><trkpt lat="44.525040101068555" lon="15.079539919862878"><ele>10.0</ele><time>2026-05-01T10:13:54Z</time></trkpt><trkpt lat="44.52490061806618" lon="15.079509089342126"><ele>9.0</ele><time>2026-05-01T10:13:55Z</time></trkpt><trkpt lat="44.524754372614055" lon="15.079467911739311"><ele>8.0</ele><time>2026-05-01T10:13:56Z</time></trkpt><trkpt lat="44.52460180738076" lon="15.07941459854054"><ele>8.666666666666666</ele><time>2026-05-01T10:13:57Z</time></trkpt><trkpt lat="44.524451042027295" lon="15.079355574361117"><ele>9.333333333333334</ele><time>2026-05-01T10:13:58Z</time></trkpt><trkpt lat="44.52430243593573" lon="15.079293105016605"><ele>10.0</ele><time>2026-05-01T10:13:59Z</time></trkpt><trkpt lat="44.524162159881314" lon="15.079231346059862"><ele>10.0</ele><time>2026-05-01T10:14:00Z</time></trkpt><trkpt lat="44.52403382945848" lon="15.079173212407012"><ele>10.0</ele><time>2026-05-01T10:14:01Z</time></trkpt><trkpt lat="44.523907829581674" lon="15.079129324270372"><ele>10.0</ele><time>2026-05-01T10:14:02Z</time></trkpt><trkpt lat="44.52377466019777" lon="15.079120884571912"><ele>10.0</ele><time>2026-05-01T10:14:03Z</time></trkpt><trkpt lat="44.52364116054061" lon="15.07915013222759"><ele>8.333333333333334</ele><time>2026-05-01T10:14:04Z</time></trkpt><trkpt lat="44.52351252316756" lon="15.07921645813125"><ele>6.666666666666667</ele><time>2026-05-01T10:14:05Z</time></trkpt><trkpt lat="44.523392735223965" lon="15.079325937397886"><ele>5.0</ele><time>2026-05-01T10:14:06Z</time></trkpt><trkpt lat="44.52326567753415" lon="15.079488351668857"><ele>5.0</ele><time>2026-05-01T10:14:07Z</time></trkpt><trkpt lat="44.52312506627199" lon="15.07968210246109"><ele>5.0</ele><time>2026-05-01T10:14:08Z</time></trkpt><trkpt lat="44.52295055229109" lon="15.079872481054869"><ele>5.0</ele><time>2026-05-01T10:14:09Z</time></trkpt><trkpt lat="44.52278489549286" lon="15.080087251173811"><ele>5.0</ele><time>2026-05-01T10:14:10Z</time></trkpt><trkpt lat="44.52259886197753" lon="15.080269960305488"><ele>5.0</ele><time>2026-05-01T10:14:11Z</time></trkpt><trkpt lat="44.522411847355016" lon="15.080448276567164"><ele>5.0</ele><time>2026-05-01T10:14:12Z</time></trkpt><trkpt lat="44.522220766550426" lon="15.080617402780137"><ele>5.0</ele><time>2026-05-01T10:14:13Z</time></trkpt><trkpt lat="44.522033255831225" lon="15.080772715596455"><ele>5.0</ele><time>2026-05-01T10:14:14Z</time></trkpt><trkpt lat="44.52184890749999" lon="15.080919972296796"><ele>4.333333333333334</ele><time>2026-05-01T10:14:15Z</time></trkpt><trkpt lat="44.52166851834136" lon="15.081070732076498"><ele>3.666666666666667</ele><time>2026-05-01T10:14:16Z</time></trkpt><trkpt lat="44.52149067377694" lon="15.081222800765309"><ele>3.0</ele><time>2026-05-01T10:14:17Z</time></trkpt><trkpt lat="44.52131285429654" lon="15.081370437028275"><ele>2.3333333333333335</ele><time>2026-05-01T10:14:18Z</time></trkpt><trkpt lat="44.521138986107985" lon="15.081514459411164"><ele>1.6666666666666665</ele><time>2026-05-01T10:14:19Z</time></trkpt><trkpt lat="44.52097443682383" lon="15.081650718410497"><ele>1.0</ele><time>2026-05-01T10:14:20Z</time></trkpt><trkpt lat="44.520814457551936" lon="15.081782367860939"><ele>0.6666666666666666</ele><time>2026-05-01T10:14:21Z</time></trkpt><trkpt lat="44.52065600434865" lon="15.081911086929397"><ele>0.3333333333333333</ele><time>2026-05-01T10:14:22Z</time></trkpt><trkpt lat="44.52050297404777" lon="15.082038908160058"><ele>0.0</ele><time>2026-05-01T10:14:23Z</time></trkpt><trkpt lat="44.52035199825271" lon="15.082168466134586"><ele>0.0</ele><time>2026-05-01T10:14:24Z</time></trkpt><trkpt lat="44.52020363140767" lon="15.082302156906673"><ele>0.0</ele><time>2026-05-01T10:14:25Z</time></trkpt><trkpt lat="44.5200497154487" lon="15.082426868307055"><ele>0.0</ele><time>2026-05-01T10:14:26Z</time></trkpt><trkpt lat="44.51991450318532" lon="15.082619687067801"><ele>2.0</ele><time>2026-05-01T10:14:27Z</time></trkpt><trkpt lat="44.51978538819351" lon="15.082816538261293"><ele>4.0</ele><time>2026-05-01T10:14:28Z</time></trkpt><trkpt lat="44.51967397382749" lon="15.083035744789234"><ele>6.0</ele><time>2026-05-01T10:14:29Z</time></trkpt><trkpt lat="44.51958442371945" lon="15.083263132234025"><ele>4.666666666666667</ele><time>2026-05-01T10:14:30Z</time></trkpt><trkpt lat="44.51951398108475" lon="15.083497236952239"><ele>3.333333333333333</ele><time>2026-05-01T10:14:31Z</time></trkpt><trkpt lat="44.51945958636667" lon="15.08373776035196"><ele>2.0</ele><time>2026-05-01T10:14:32Z</time></trkpt><trkpt lat="44.51942382798331" lon="15.08397600430848"><ele>3.333333333333333</ele><time>2026-05-01T10:14:33Z</time></trkpt><trkpt lat="44.519397446710876" lon="15.084209239847409"><ele>4.666666666666667</ele><time>2026-05-01T10:14:34Z</time></trkpt><trkpt lat="44.51937379484094" lon="15.084433407472757"><ele>6.0</ele><time>2026-05-01T10:14:35Z</time></trkpt><trkpt lat="44.519348361053964" lon="15.084655615451755"><ele>6.0</ele><time>2026-05-01T10:14:36Z</time></trkpt><trkpt lat="44.51930396741651" lon="15.08487223503767"><ele>6.0</ele><time>2026-05-01T10:14:37Z</time></trkpt><trkpt lat="44.5192371787195" lon="15.085081042957958"><ele>6.0</ele><time>2026-05-01T10:14:38Z</time></trkpt><trkpt lat="44.51913638047087" lon="15.085272559930116"><ele>9.333333333333332</ele><time>2026-05-01T10:14:39Z</time></trkpt><trkpt lat="44.51902133486392" lon="15.085440897998232"><ele>12.666666666666666</ele><time>2026-05-01T10:14:40Z</time></trkpt><trkpt lat="44.518895042304436" lon="15.08559355863363"><ele>16.0</ele><time>2026-05-01T10:14:41Z</time></trkpt><trkpt lat="44.51877444937281" lon="15.085758785424265"><ele>12.666666666666666</ele><time>2026-05-01T10:14:42Z</time></trkpt><trkpt lat="44.518654863037305" lon="15.085925584696783"><ele>9.333333333333332</ele><time>2026-05-01T10:14:43Z</time></trkpt><trkpt lat="44.518543594768296" lon="15.086101230513966"><ele>6.0</ele><time>2026-05-01T10:14:44Z</time></trkpt><trkpt lat="44.5184482471106" lon="15.0862947776528"><ele>6.0</ele><time>2026-05-01T10:14:45Z</time></trkpt><trkpt lat="44.51837770614056" lon="15.086512090626787"><ele>6.0</ele><time>2026-05-01T10:14:46Z</time></trkpt><trkpt lat="44.518330968960505" lon="15.086740818049638"><ele>6.0</ele><time>2026-05-01T10:14:47Z</time></trkpt><trkpt lat="44.518272170405474" lon="15.086960583083723"><ele>10.0</ele><time>2026-05-01T10:14:48Z</time></trkpt><trkpt lat="44.51817272518758" lon="15.087147145502394"><ele>14.0</ele><time>2026-05-01T10:14:49Z</time></trkpt><trkpt lat="44.518048328684095" lon="15.087300151390355"><ele>18.0</ele><time>2026-05-01T10:14:50Z</time></trkpt><trkpt lat="44.51792559317903" lon="15.087460898032717"><ele>13.333333333333334</ele><time>2026-05-01T10:14:51Z</time></trkpt><trkpt lat="44.51784069063786" lon="15.087656571148994"><ele>8.666666666666666</ele><time>2026-05-01T10:14:52Z</time></trkpt><trkpt lat="44.51779576638593" lon="15.087882542679012"><ele>4.0</ele><time>2026-05-01T10:14:53Z</time></trkpt><trkpt lat="44.51777805089491" lon="15.088121560091198"><ele>7.666666666666666</ele><time>2026-05-01T10:14:54Z</time></trkpt><trkpt lat="44.51773415133265" lon="15.088354899400127"><ele>11.333333333333334</ele><time>2026-05-01T10:14:55Z</time></trkpt><trkpt lat="44.51766509891168" lon="15.088556106921807"><ele>15.0</ele><time>2026-05-01T10:14:56Z</time></trkpt><trkpt lat="44.51757258921559" lon="15.088744719741715"><ele>15.0</ele><time>2026-05-01T10:14:57Z</time></trkpt><trkpt lat="44.517466444392085" lon="15.088920079321865"><ele>15.0</ele><time>2026-05-01T10:14:58Z</time></trkpt><trkpt lat="44.5173529662849" lon="15.08909078033229"><ele>15.0</ele><time>2026-05-01T10:14:59Z</time></trkpt><trkpt lat="44.51724440185124" lon="15.089258297009666"><ele>12.333333333333334</ele><time>2026-05-01T10:15:00Z</time></trkpt><trkpt lat="44.51713634041611" lon="15.089433686449842"><ele>9.666666666666668</ele><time>2026-05-01T10:15:01Z</time></trkpt><trkpt lat="44.51703523863695" lon="15.089610085271918"><ele>7.0</ele><time>2026-05-01T10:15:02Z</time></trkpt><trkpt lat="44.51694705914068" lon="15.089768934181999"><ele>9.25</ele><time>2026-05-01T10:15:03Z</time></trkpt><trkpt lat="44.51688050632432" lon="15.089926825343314"><ele>11.5</ele><time>2026-05-01T10:15:04Z</time></trkpt><trkpt lat="44.5168523981561" lon="15.090096004256992"><ele>13.75</ele><time>2026-05-01T10:15:05Z</time></trkpt><trkpt lat="44.51685913311585" lon="15.090285117840248"><ele>16.0</ele><time>2026-05-01T10:15:06Z</time></trkpt><trkpt lat="44.516914877312345" lon="15.090465562286957"><ele>16.0</ele><time>2026-05-01T10:15:07Z</time></trkpt><trkpt lat="44.51700356919318" lon="15.090614391194066"><ele>16.0</ele><time>2026-05-01T10:15:08Z</time></trkpt><trkpt lat="44.5170993173005" lon="15.090773819134057"><ele>16.0</ele><time>2026-05-01T10:15:09Z</time></trkpt><trkpt lat="44.51718761259125" lon="15.090935626465276"><ele>16.0</ele><time>2026-05-01T10:15:10Z</time></trkpt><trkpt lat="44.51727758537978" lon="15.091090865553568"><ele>18.0</ele><time>2026-05-01T10:15:11Z</time></trkpt><trkpt lat="44.51736197535957" lon="15.091245497563953"><ele>20.0</ele><time>2026-05-01T10:15:12Z</time></trkpt><trkpt lat="44.51744967680328" lon="15.091394434107897"><ele>22.0</ele><time>2026-05-01T10:15:13Z</time></trkpt><trkpt lat="44.51755563061556" lon="15.091548149150144"><ele>24.0</ele><time>2026-05-01T10:15:14Z</time></trkpt><trkpt lat="44.51766245264539" lon="15.091706787717857"><ele>24.0</ele><time>2026-05-01T10:15:15Z</time></trkpt><trkpt lat="44.51776613239676" lon="15.091867008445943"><ele>24.0</ele><time>2026-05-01T10:15:16Z</time></trkpt><trkpt lat="44.517867339171076" lon="15.092028555313572"><ele>24.0</ele><time>2026-05-01T10:15:17Z</time></trkpt><trkpt lat="44.517968980196926" lon="15.09218552094539"><ele>25.25</ele><time>2026-05-01T10:15:18Z</time></trkpt><trkpt lat="44.5180694236409" lon="15.092337703052983"><ele>26.5</ele><time>2026-05-01T10:15:19Z</time></trkpt><trkpt lat="44.51816478267616" lon="15.092496087518779"><ele>27.75</ele><time>2026-05-01T10:15:20Z</time></trkpt><trkpt lat="44.51824975178945" lon="15.092661534732102"><ele>29.0</ele><time>2026-05-01T10:15:21Z</time></trkpt><trkpt lat="44.51829665844859" lon="15.09284214468437"><ele>29.0</ele><time>2026-05-01T10:15:22Z</time></trkpt><trkpt lat="44.51827523970635" lon="15.093026642144336"><ele>29.0</ele><time>2026-05-01T10:15:23Z</time></trkpt><trkpt lat="44.5181914912675" lon="15.093164024054058"><ele>29.0</ele><time>2026-05-01T10:15:24Z</time></trkpt><trkpt lat="44.518076085704806" lon="15.093219805445221"><ele>29.0</ele><time>2026-05-01T10:15:25Z</time></trkpt><trkpt lat="44.51795720464979" lon="15.09320154066833"><ele>25.5</ele><time>2026-05-01T10:15:26Z</time></trkpt><trkpt lat="44.517843216755125" lon="15.09314487588022"><ele>22.0</ele><time>2026-05-01T10:15:27Z</time></trkpt><trkpt lat="44.517734514424106" lon="15.093065637957663"><ele>18.5</ele><time>2026-05-01T10:15:28Z</time></trkpt><trkpt lat="44.51762122979769" lon="15.09299053832095"><ele>15.0</ele><time>2026-05-01T10:15:29Z</time></trkpt><trkpt lat="44.51750168198887" lon="15.092931670384672"><ele>15.0</ele><time>2026-05-01T10:15:30Z</time></trkpt><trkpt lat="44.517371348608776" lon="15.09288848066128"><ele>15.0</ele><time>2026-05-01T10:15:31Z</time></trkpt><trkpt lat="44.51724474564423" lon="15.092869242207183"><ele>15.0</ele><time>2026-05-01T10:15:32Z</time></trkpt><trkpt lat="44.51711971447411" lon="15.092850359680662"><ele>15.0</ele><time>2026-05-01T10:15:33Z</time></trkpt><trkpt lat="44.51699027952954" lon="15.092840229442164"><ele>15.0</ele><time>2026-05-01T10:15:34Z</time></trkpt><trkpt lat="44.51686097041287" lon="15.0928278624813"><ele>15.0</ele><time>2026-05-01T10:15:35Z</time></trkpt><trkpt lat="44.51673413504068" lon="15.092808241206326"><ele>15.0</ele><time>2026-05-01T10:15:36Z</time></trkpt><trkpt lat="44.51660821541909" lon="15.092787184955426"><ele>15.0</ele><time>2026-05-01T10:15:37Z</time></trkpt><trkpt lat="44.516483773848165" lon="15.092781290213077"><ele>15.0</ele><time>2026-05-01T10:15:38Z</time></trkpt><trkpt lat="44.516359057717054" lon="15.092784870020692"><ele>15.0</ele><time>2026-05-01T10:15:39Z</time></trkpt><trkpt lat="44.516232712981754" lon="15.09279392952521"><ele>15.0</ele><time>2026-05-01T10:15:40Z</time></trkpt><trkpt lat="44.516107345216746" lon="15.092829328505164"><ele>15.0</ele><time>2026-05-01T10:15:41Z</time></trkpt><trkpt lat="44.51598819107702" lon="15.092874018614058"><ele>12.75</ele><time>2026-05-01T10:15:42Z</time></trkpt><trkpt lat="44.5158737426407" lon="15.092935554561516"><ele>10.5</ele><time>2026-05-01T10:15:43Z</time></trkpt><trkpt lat="44.515766218446814" lon="15.09301650226473"><ele>8.25</ele><time>2026-05-01T10:15:44Z</time></trkpt><trkpt lat="44.51565812819632" lon="15.093118082354666"><ele>6.0</ele><time>2026-05-01T10:15:45Z</time></trkpt><trkpt lat="44.515555636194456" lon="15.093215929728675"><ele>5.25</ele><time>2026-05-01T10:15:46Z</time></trkpt><trkpt lat="44.51545426529484" lon="15.093314390142758"><ele>4.5</ele><time>2026-05-01T10:15:47Z</time></trkpt><trkpt lat="44.515350685522804" lon="15.093412462973895"><ele>3.75</ele><time>2026-05-01T10:15:48Z</time></trkpt><trkpt lat="44.51524510170406" lon="15.09351157882769"><ele>3.0</ele><time>2026-05-01T10:15:49Z</time></trkpt><trkpt lat="44.515140717128375" lon="15.093606145527335"><ele>3.0</ele><time>2026-05-01T10:15:50Z</time></trkpt><trkpt lat="44.51503850467245" lon="15.09370129605289"><ele>3.0</ele><time>2026-05-01T10:15:51Z</time></trkpt><trkpt lat="44.51493542886376" lon="15.093799780165643"><ele>3.0</ele><time>2026-05-01T10:15:52Z</time></trkpt><trkpt lat="44.514837465070926" lon="15.093905931711225"><ele>3.0</ele><time>2026-05-01T10:15:53Z</time></trkpt><trkpt lat="44.514745699406234" lon="15.0940197544394"><ele>2.5</ele><time>2026-05-01T10:15:54Z</time></trkpt><trkpt lat="44.51465187838115" lon="15.0941364691552"><ele>2.0</ele><time>2026-05-01T10:15:55Z</time></trkpt><trkpt lat="44.514557468601666" lon="15.094254110872821"><ele>1.5</ele><time>2026-05-01T10:15:56Z</time></trkpt><trkpt lat="44.51446106408091" lon="15.094371221772104"><ele>1.0</ele><time>2026-05-01T10:15:57Z</time></trkpt><trkpt lat="44.51436278734387" lon="15.094482057705868"><ele>1.0</ele><time>2026-05-01T10:15:58Z</time></trkpt><trkpt lat="44.5142715063043" lon="15.094595772083412"><ele>1.0</ele><time>2026-05-01T10:15:59Z</time></trkpt><trkpt lat="44.51417894749593" lon="15.094711857563448"><ele>1.0</ele><time>2026-05-01T10:16:00Z</time></trkpt><trkpt lat="44.514087661422465" lon="15.094828793683796"><ele>1.0</ele><time>2026-05-01T10:16:01Z</time></trkpt><trkpt lat="44.513993784098275" lon="15.094945291780185"><ele>1.0</ele><time>2026-05-01T10:16:02Z</time></trkpt><trkpt lat="44.513902504018304" lon="15.095061253663514"><ele>1.0</ele><time>2026-05-01T10:16:03Z</time></trkpt><trkpt lat="44.51380731496227" lon="15.095177747575205"><ele>1.0</ele><time>2026-05-01T10:16:04Z</time></trkpt><trkpt lat="44.51371585587918" lon="15.095293853033645"><ele>1.0</ele><time>2026-05-01T10:16:05Z</time></trkpt><trkpt lat="44.513627357320686" lon="15.095403541770166"><ele>1.0</ele><time>2026-05-01T10:16:06Z</time></trkpt><trkpt lat="44.513536203753986" lon="15.095528460721198"><ele>1.0</ele><time>2026-05-01T10:16:07Z</time></trkpt><trkpt lat="44.51344127655696" lon="15.095647303064137"><ele>1.0</ele><time>2026-05-01T10:16:08Z</time></trkpt><trkpt lat="44.51335050901077" lon="15.095758249523119"><ele>1.0</ele><time>2026-05-01T10:16:09Z</time></trkpt><trkpt lat="44.513260214651616" lon="15.095877949112642"><ele>3.5</ele><time>2026-05-01T10:16:10Z</time></trkpt><trkpt lat="44.51317279172362" lon="15.096004711147408"><ele>6.0</ele><time>2026-05-01T10:16:11Z</time></trkpt><trkpt lat="44.5130862439396" lon="15.096150117063628"><ele>8.5</ele><time>2026-05-01T10:16:12Z</time></trkpt><trkpt lat="44.5130133160748" lon="15.09628588000584"><ele>11.0</ele><time>2026-05-01T10:16:13Z</time></trkpt><trkpt lat="44.51294238519365" lon="15.09642552682492"><ele>9.5</ele><time>2026-05-01T10:16:14Z</time></trkpt><trkpt lat="44.512867900598835" lon="15.0965706913464"><ele>8.0</ele><time>2026-05-01T10:16:15Z</time></trkpt><trkpt lat="44.51280235359165" lon="15.096715716485333"><ele>6.5</ele><time>2026-05-01T10:16:16Z</time></trkpt><trkpt lat="44.51273639603404" lon="15.096865641239788"><ele>5.0</ele><time>2026-05-01T10:16:17Z</time></trkpt><trkpt lat="44.51266770496791" lon="15.097015679797456"><ele>5.0</ele><time>2026-05-01T10:16:18Z</time></trkpt><trkpt lat="44.512601083573315" lon="15.097164914258725"><ele>5.0</ele><time>2026-05-01T10:16:19Z</time></trkpt><trkpt lat="44.51253963305821" lon="15.097318178030676"><ele>5.0</ele><time>2026-05-01T10:16:20Z</time></trkpt><trkpt lat="44.51249103297879" lon="15.097481982152987"><ele>5.0</ele><time>2026-05-01T10:16:21Z</time></trkpt><trkpt lat="44.51245944398519" lon="15.097653936050856"><ele>6.25</ele><time>2026-05-01T10:16:22Z</time></trkpt><trkpt lat="44.512455278562605" lon="15.097834174778894"><ele>7.5</ele><time>2026-05-01T10:16:23Z</time></trkpt><trkpt lat="44.512473845182896" lon="15.098003972087689"><ele>8.75</ele><time>2026-05-01T10:16:24Z</time></trkpt><trkpt lat="44.51252035536047" lon="15.098165230099664"><ele>10.0</ele><time>2026-05-01T10:16:25Z</time></trkpt><trkpt lat="44.51257814408459" lon="15.098322350694554"><ele>10.0</ele><time>2026-05-01T10:16:26Z</time></trkpt><trkpt lat="44.51264601126954" lon="15.098480137496908"><ele>10.0</ele><time>2026-05-01T10:16:27Z</time></trkpt><trkpt lat="44.51271222816669" lon="15.098631414197424"><ele>10.0</ele><time>2026-05-01T10:16:28Z</time></trkpt><trkpt lat="44.51277766839121" lon="15.098775988349201"><ele>10.0</ele><time>2026-05-01T10:16:29Z</time></trkpt><trkpt lat="44.51284387147096" lon="15.09892328243406"><ele>14.5</ele><time>2026-05-01T10:16:30Z</time></trkpt><trkpt lat="44.51291425760851" lon="15.099069275465476"><ele>19.0</ele><time>2026-05-01T10:16:31Z</time></trkpt><trkpt lat="44.51299450008904" lon="15.09920494175199"><ele>23.5</ele><time>2026-05-01T10:16:32Z</time></trkpt><trkpt lat="44.51308343286167" lon="15.099335090779805"><ele>28.0</ele><time>2026-05-01T10:16:33Z</time></trkpt><trkpt lat="44.51316968843851" lon="15.099456578039076"><ele>28.0</ele><time>2026-05-01T10:16:34Z</time></trkpt><trkpt lat="44.51325632857742" lon="15.0995854818052"><ele>28.0</ele><time>2026-05-01T10:16:35Z</time></trkpt><trkpt lat="44.513347237114395" lon="15.09970303754857"><ele>28.0</ele><time>2026-05-01T10:16:36Z</time></trkpt><trkpt lat="44.51343971335459" lon="15.099823249375746"><ele>28.0</ele><time>2026-05-01T10:16:37Z</time></trkpt><trkpt lat="44.51351603613734" lon="15.09995625567489"><ele>31.25</ele><time>2026-05-01T10:16:38Z</time></trkpt><trkpt lat="44.513608305447086" lon="15.100076136370452"><ele>34.5</ele><time>2026-05-01T10:16:39Z</time></trkpt><trkpt lat="44.51369044428442" lon="15.100197566114177"><ele>37.75</ele><time>2026-05-01T10:16:40Z</time></trkpt><trkpt lat="44.513778643092714" lon="15.10033308606142"><ele>41.0</ele><time>2026-05-01T10:16:41Z</time></trkpt><trkpt lat="44.51387622179367" lon="15.100452440032335"><ele>41.0</ele><time>2026-05-01T10:16:42Z</time></trkpt><trkpt lat="44.5139562784215" lon="15.100586867843658"><ele>41.0</ele><time>2026-05-01T10:16:43Z</time></trkpt><trkpt lat="44.51401615612716" lon="15.10073717596878"><ele>41.0</ele><time>2026-05-01T10:16:44Z</time></trkpt><trkpt lat="44.51401296517628" lon="15.100911300298202"><ele>41.0</ele><time>2026-05-01T10:16:45Z</time></trkpt><trkpt lat="44.5139719552956" lon="15.101061930543"><ele>33.5</ele><time>2026-05-01T10:16:46Z</time></trkpt><trkpt lat="44.51388174194355" lon="15.101175014552947"><ele>26.0</ele><time>2026-05-01T10:16:47Z</time></trkpt><trkpt lat="44.5137714604121" lon="15.101222360999843"><ele>18.5</ele><time>2026-05-01T10:16:48Z</time></trkpt><trkpt lat="44.51362681179698" lon="15.101212553331177"><ele>11.0</ele><time>2026-05-01T10:16:49Z</time></trkpt><trkpt lat="44.51347876275259" lon="15.101180323203351"><ele>10.666666666666666</ele><time>2026-05-01T10:16:50Z</time></trkpt><trkpt lat="44.513332016020335" lon="15.101117753296403"><ele>10.333333333333334</ele><time>2026-05-01T10:16:51Z</time></trkpt><trkpt lat="44.51316955074053" lon="15.101072474442914"><ele>10.0</ele><time>2026-05-01T10:16:52Z</time></trkpt><trkpt lat="44.51300735518537" lon="15.101016636570895"><ele>15.333333333333332</ele><time>2026-05-01T10:16:53Z</time></trkpt><trkpt lat="44.5128405614868" lon="15.100949479580693"><ele>20.666666666666664</ele><time>2026-05-01T10:16:54Z</time></trkpt><trkpt lat="44.51267230903518" lon="15.100838280194605"><ele>26.0</ele><time>2026-05-01T10:16:55Z</time></trkpt><trkpt lat="44.51249291469417" lon="15.100755656635492"><ele>21.666666666666664</ele><time>2026-05-01T10:16:56Z</time></trkpt><trkpt lat="44.51232155528842" lon="15.100640651488426"><ele>17.333333333333332</ele><time>2026-05-01T10:16:57Z</time></trkpt><trkpt lat="44.51214587994216" lon="15.10052774088886"><ele>13.0</ele><time>2026-05-01T10:16:58Z</time></trkpt><trkpt lat="44.51198493600312" lon="15.100426794975158"><ele>13.0</ele><time>2026-05-01T10:16:59Z</time></trkpt><trkpt lat="44.511799601962146" lon="15.100335104691421"><ele>13.0</ele><time>2026-05-01T10:17:00Z</time></trkpt><trkpt lat="44.51164696168409" lon="15.100242054139626"><ele>13.0</ele><time>2026-05-01T10:17:01Z</time></trkpt><trkpt lat="44.51150676957443" lon="15.100178533657637"><ele>9.5</ele><time>2026-05-01T10:17:02Z</time></trkpt><trkpt lat="44.511210783557885" lon="15.100095461219135"><ele>6.0</ele><time>2026-05-01T10:17:04Z</time></trkpt><trkpt lat="44.511048616217" lon="15.100103950599587"><ele>6.0</ele><time>2026-05-01T10:17:05Z</time></trkpt><trkpt lat="44.51088600372801" lon="15.100134661678743"><ele>6.0</ele><time>2026-05-01T10:17:06Z</time></trkpt><trkpt lat="44.510724927894344" lon="15.100193840370087"><ele>6.0</ele><time>2026-05-01T10:17:07Z</time></trkpt><trkpt lat="44.51057956406256" lon="15.10029832027132"><ele>6.0</ele><time>2026-05-01T10:17:08Z</time></trkpt><trkpt lat="44.51045065697432" lon="15.100453331987321"><ele>6.0</ele><time>2026-05-01T10:17:09Z</time></trkpt><trkpt lat="44.51033518140151" lon="15.100637653054571"><ele>6.0</ele><time>2026-05-01T10:17:10Z</time></trkpt><trkpt lat="44.510213339270294" lon="15.10082473533326"><ele>6.666666666666666</ele><time>2026-05-01T10:17:11Z</time></trkpt><trkpt lat="44.51008454706372" lon="15.100994128994225"><ele>7.333333333333333</ele><time>2026-05-01T10:17:12Z</time></trkpt><trkpt lat="44.50995071332501" lon="15.101154804390056"><ele>8.0</ele><time>2026-05-01T10:17:13Z</time></trkpt><trkpt lat="44.509811996699085" lon="15.101298509366947"><ele>8.0</ele><time>2026-05-01T10:17:14Z</time></trkpt><trkpt lat="44.509652978844365" lon="15.101426860335577"><ele>8.0</ele><time>2026-05-01T10:17:15Z</time></trkpt><trkpt lat="44.50949079186268" lon="15.101534925816383"><ele>8.0</ele><time>2026-05-01T10:17:16Z</time></trkpt><trkpt lat="44.509333601230765" lon="15.10163279966845"><ele>9.0</ele><time>2026-05-01T10:17:17Z</time></trkpt><trkpt lat="44.50917478820609" lon="15.10173319042834"><ele>10.0</ele><time>2026-05-01T10:17:18Z</time></trkpt><trkpt lat="44.50901922995822" lon="15.101834684461597"><ele>11.0</ele><time>2026-05-01T10:17:19Z</time></trkpt><trkpt lat="44.5088607437236" lon="15.101929563366918"><ele>8.333333333333332</ele><time>2026-05-01T10:17:20Z</time></trkpt><trkpt lat="44.50869588091045" lon="15.10202123629714"><ele>5.666666666666666</ele><time>2026-05-01T10:17:21Z</time></trkpt><trkpt lat="44.508533042683716" lon="15.10210396250143"><ele>3.0</ele><time>2026-05-01T10:17:22Z</time></trkpt><trkpt lat="44.50837298377472" lon="15.102194368514843"><ele>3.0</ele><time>2026-05-01T10:17:23Z</time></trkpt><trkpt lat="44.5082225691584" lon="15.102314803871982"><ele>3.0</ele><time>2026-05-01T10:17:24Z</time></trkpt><trkpt lat="44.50809687876276" lon="15.102484754906637"><ele>3.0</ele><time>2026-05-01T10:17:25Z</time></trkpt><trkpt lat="44.507963285081054" lon="15.102618551133256"><ele>2.3333333333333335</ele><time>2026-05-01T10:17:26Z</time></trkpt><trkpt lat="44.50791113120623" lon="15.102896456122714"><ele>1.6666666666666665</ele><time>2026-05-01T10:17:27Z</time></trkpt><trkpt lat="44.50782095874576" lon="15.103109433872936"><ele>1.0</ele><time>2026-05-01T10:17:28Z</time></trkpt><trkpt lat="44.50772362387851" lon="15.103315965138863"><ele>3.6666666666666665</ele><time>2026-05-01T10:17:29Z</time></trkpt><trkpt lat="44.50759552935488" lon="15.10352219296146"><ele>6.333333333333333</ele><time>2026-05-01T10:17:30Z</time></trkpt><trkpt lat="44.507425742935006" lon="15.103722953762906"><ele>9.0</ele><time>2026-05-01T10:17:31Z</time></trkpt><trkpt lat="44.50722056351569" lon="15.103909850775866"><ele>7.0</ele><time>2026-05-01T10:17:32Z</time></trkpt><trkpt lat="44.50700127194233" lon="15.104063380472937"><ele>5.0</ele><time>2026-05-01T10:17:33Z</time></trkpt><trkpt lat="44.50680089339404" lon="15.104217649321823"><ele>5.0</ele><time>2026-05-01T10:17:34Z</time></trkpt><trkpt lat="44.50663731345859" lon="15.104380928237623"><ele>5.0</ele><time>2026-05-01T10:17:35Z</time></trkpt><trkpt lat="44.50651413051395" lon="15.10457999573233"><ele>5.0</ele><time>2026-05-01T10:17:36Z</time></trkpt><trkpt lat="44.50643945888689" lon="15.104820705314456"><ele>9.0</ele><time>2026-05-01T10:17:37Z</time></trkpt><trkpt lat="44.50640518751586" lon="15.10510552761946"><ele>13.0</ele><time>2026-05-01T10:17:38Z</time></trkpt><trkpt lat="44.506432046150195" lon="15.105424291720528"><ele>17.0</ele><time>2026-05-01T10:17:39Z</time></trkpt><trkpt lat="44.50650261002067" lon="15.105763559827375"><ele>18.333333333333336</ele><time>2026-05-01T10:17:40Z</time></trkpt><trkpt lat="44.50656607839767" lon="15.106076789704185"><ele>19.666666666666668</ele><time>2026-05-01T10:17:41Z</time></trkpt><trkpt lat="44.50658340547252" lon="15.106349076388522"><ele>21.0</ele><time>2026-05-01T10:17:42Z</time></trkpt><trkpt lat="44.50654067216859" lon="15.10658750246727"><ele>21.333333333333332</ele><time>2026-05-01T10:17:43Z</time></trkpt><trkpt lat="44.50643788472973" lon="15.10679181507397"><ele>21.666666666666664</ele><time>2026-05-01T10:17:44Z</time></trkpt><trkpt lat="44.50627582990533" lon="15.106935918907253"><ele>22.0</ele><time>2026-05-01T10:17:45Z</time></trkpt><trkpt lat="44.506057466529555" lon="15.107045057613448"><ele>12.5</ele><time>2026-05-01T10:17:46Z</time></trkpt><trkpt lat="44.5058041336523" lon="15.107158939441426"><ele>3.0</ele><time>2026-05-01T10:17:47Z</time></trkpt><trkpt lat="44.50556035831592" lon="15.107288946561185"><ele>3.0</ele><time>2026-05-01T10:17:48Z</time></trkpt><trkpt lat="44.50536469256256" lon="15.107411629243947"><ele>3.0</ele><time>2026-05-01T10:17:49Z</time></trkpt><trkpt lat="44.50519887989082" lon="15.10754094367904"><ele>3.0</ele><time>2026-05-01T10:17:50Z</time></trkpt><trkpt lat="44.50506326529926" lon="15.107718310505987"><ele>3.0</ele><time>2026-05-01T10:17:51Z</time></trkpt><trkpt lat="44.50497291897697" lon="15.107943033490908"><ele>3.0</ele><time>2026-05-01T10:17:52Z</time></trkpt><trkpt lat="44.504924661197975" lon="15.108208245669859"><ele>3.0</ele><time>2026-05-01T10:17:53Z</time></trkpt><trkpt lat="44.5049375209116" lon="15.108491175735828"><ele>6.0</ele><time>2026-05-01T10:17:54Z</time></trkpt><trkpt lat="44.50500359867605" lon="15.108768810835159"><ele>9.0</ele><time>2026-05-01T10:17:55Z</time></trkpt><trkpt lat="44.50512397216604" lon="15.109013672667327"><ele>12.0</ele><time>2026-05-01T10:17:56Z</time></trkpt><trkpt lat="44.50526643190106" lon="15.109197372516794"><ele>12.75</ele><time>2026-05-01T10:17:57Z</time></trkpt><trkpt lat="44.50537319518437" lon="15.109362800893186"><ele>13.5</ele><time>2026-05-01T10:17:58Z</time></trkpt><trkpt lat="44.50539816270469" lon="15.109538003124374"><ele>14.25</ele><time>2026-05-01T10:17:59Z</time></trkpt><trkpt lat="44.505349998335014" lon="15.109718384601077"><ele>15.0</ele><time>2026-05-01T10:18:00Z</time></trkpt><trkpt lat="44.50522936004641" lon="15.109854001452575"><ele>15.0</ele><time>2026-05-01T10:18:01Z</time></trkpt><trkpt lat="44.50506746802677" lon="15.109890628140068"><ele>15.0</ele><time>2026-05-01T10:18:02Z</time></trkpt><trkpt lat="44.504856846637104" lon="15.109847732299633"><ele>15.0</ele><time>2026-05-01T10:18:03Z</time></trkpt><trkpt lat="44.504627994262506" lon="15.109750714662738"><ele>12.0</ele><time>2026-05-01T10:18:04Z</time></trkpt><trkpt lat="44.504359363955686" lon="15.109662844600896"><ele>9.0</ele><time>2026-05-01T10:18:05Z</time></trkpt><trkpt lat="44.504064380261745" lon="15.109588855326727"><ele>9.0</ele><time>2026-05-01T10:18:06Z</time></trkpt><trkpt lat="44.50377435984048" lon="15.109486604068364"><ele>9.0</ele><time>2026-05-01T10:18:07Z</time></trkpt><trkpt lat="44.50351755774024" lon="15.109320847753079"><ele>9.333333333333334</ele><time>2026-05-01T10:18:08Z</time></trkpt><trkpt lat="44.50331807384269" lon="15.109122876360454"><ele>9.666666666666668</ele><time>2026-05-01T10:18:09Z</time></trkpt><trkpt lat="44.50315653192081" lon="15.108959167420945"><ele>10.0</ele><time>2026-05-01T10:18:10Z</time></trkpt><trkpt lat="44.503007644244626" lon="15.108867426498442"><ele>6.666666666666667</ele><time>2026-05-01T10:18:11Z</time></trkpt><trkpt lat="44.502837375443676" lon="15.108823197837015"><ele>3.3333333333333335</ele><time>2026-05-01T10:18:12Z</time></trkpt><trkpt lat="44.5026504978579" lon="15.1088480715146"><ele>0.0</ele><time>2026-05-01T10:18:13Z</time></trkpt><trkpt lat="44.5024575207445" lon="15.108955325692309"><ele>0.5</ele><time>2026-05-01T10:18:14Z</time></trkpt><trkpt lat="44.502257195539464" lon="15.109157136817563"><ele>1.0</ele><time>2026-05-01T10:18:15Z</time></trkpt><trkpt lat="44.502060881232566" lon="15.109415213233595"><ele>1.0</ele><time>2026-05-01T10:18:16Z</time></trkpt><trkpt lat="44.50188981742867" lon="15.1096686509109"><ele>1.0</ele><time>2026-05-01T10:18:17Z</time></trkpt><trkpt lat="44.50175360260486" lon="15.109899385164443"><ele>2.3333333333333335</ele><time>2026-05-01T10:18:18Z</time></trkpt><trkpt lat="44.50166904612483" lon="15.110149066742284"><ele>3.666666666666667</ele><time>2026-05-01T10:18:19Z</time></trkpt><trkpt lat="44.501648094354195" lon="15.110425206250826"><ele>5.0</ele><time>2026-05-01T10:18:20Z</time></trkpt><trkpt lat="44.50167359711933" lon="15.110717736689445"><ele>6.666666666666667</ele><time>2026-05-01T10:18:21Z</time></trkpt><trkpt lat="44.50171611655569" lon="15.111005333882805"><ele>8.333333333333334</ele><time>2026-05-01T10:18:22Z</time></trkpt><trkpt lat="44.50171966446429" lon="15.111264761619708"><ele>10.0</ele><time>2026-05-01T10:18:23Z</time></trkpt><trkpt lat="44.501648866465715" lon="15.111516238749417"><ele>9.333333333333334</ele><time>2026-05-01T10:18:24Z</time></trkpt><trkpt lat="44.50151242316144" lon="15.111717868771434"><ele>8.666666666666666</ele><time>2026-05-01T10:18:25Z</time></trkpt><trkpt lat="44.50135708199562" lon="15.11184958584052"><ele>8.0</ele><time>2026-05-01T10:18:26Z</time></trkpt><trkpt lat="44.50124220643279" lon="15.112023695251116"><ele>8.0</ele><time>2026-05-01T10:18:27Z</time></trkpt><trkpt lat="44.50118250610296" lon="15.11225827771564"><ele>8.0</ele><time>2026-05-01T10:18:28Z</time></trkpt><trkpt lat="44.501087672247735" lon="15.112462602349044"><ele>8.0</ele><time>2026-05-01T10:18:29Z</time></trkpt><trkpt lat="44.50094478827603" lon="15.112597253961098"><ele>8.0</ele><time>2026-05-01T10:18:30Z</time></trkpt><trkpt lat="44.50080057652064" lon="15.112654191208637"><ele>8.0</ele><time>2026-05-01T10:18:31Z</time></trkpt><trkpt lat="44.50066136667182" lon="15.112612940568024"><ele>8.0</ele><time>2026-05-01T10:18:32Z</time></trkpt><trkpt lat="44.50055006641453" lon="15.112505087045623"><ele>8.0</ele><time>2026-05-01T10:18:33Z</time></trkpt><trkpt lat="44.50046282168438" lon="15.112347691889136"><ele>10.0</ele><time>2026-05-01T10:18:34Z</time></trkpt><trkpt lat="44.500405130617786" lon="15.112168544494631"><ele>12.0</ele><time>2026-05-01T10:18:35Z</time></trkpt><trkpt lat="44.50034950343725" lon="15.111985722026004"><ele>14.0</ele><time>2026-05-01T10:18:36Z</time></trkpt><trkpt lat="44.50028470651018" lon="15.111801712260856"><ele>16.0</ele><time>2026-05-01T10:18:37Z</time></trkpt><trkpt lat="44.50021097317193" lon="15.111622857197048"><ele>10.666666666666666</ele><time>2026-05-01T10:18:38Z</time></trkpt><trkpt lat="44.50012487515779" lon="15.111459177280645"><ele>5.333333333333333</ele><time>2026-05-01T10:18:39Z</time></trkpt><trkpt lat="44.50000131578237" lon="15.111331995582741"><ele>0.0</ele><time>2026-05-01T10:18:40Z</time></trkpt><trkpt lat="44.49984633110341" lon="15.11128383281621"><ele>0.0</ele><time>2026-05-01T10:18:41Z</time></trkpt><trkpt lat="44.49968375759287" lon="15.111305889837583"><ele>0.0</ele><time>2026-05-01T10:18:42Z</time></trkpt><trkpt lat="44.49952707706472" lon="15.111391951565714"><ele>0.0</ele><time>2026-05-01T10:18:43Z</time></trkpt><trkpt lat="44.49937889265076" lon="15.111541411869771"><ele>3.3333333333333335</ele><time>2026-05-01T10:18:44Z</time></trkpt><trkpt lat="44.49923981938486" lon="15.11172333176244"><ele>6.666666666666667</ele><time>2026-05-01T10:18:45Z</time></trkpt><trkpt lat="44.49911163206954" lon="15.111914094522186"><ele>10.0</ele><time>2026-05-01T10:18:46Z</time></trkpt><trkpt lat="44.4989931631594" lon="15.112087384275297"><ele>10.0</ele><time>2026-05-01T10:18:47Z</time></trkpt><trkpt lat="44.49889865747101" lon="15.112280096058976"><ele>10.0</ele><time>2026-05-01T10:18:48Z</time></trkpt><trkpt lat="44.49883250633923" lon="15.112521775320321"><ele>10.0</ele><time>2026-05-01T10:18:49Z</time></trkpt><trkpt lat="44.49880019177543" lon="15.112779144281113"><ele>8.666666666666668</ele><time>2026-05-01T10:18:50Z</time></trkpt><trkpt lat="44.49877793822977" lon="15.113045001428633"><ele>7.333333333333334</ele><time>2026-05-01T10:18:51Z</time></trkpt><trkpt lat="44.498723441915395" lon="15.113327830156566"><ele>6.0</ele><time>2026-05-01T10:18:52Z</time></trkpt><trkpt lat="44.498606560712226" lon="15.113599603987286"><ele>6.0</ele><time>2026-05-01T10:18:53Z</time></trkpt><trkpt lat="44.498471031685966" lon="15.113851697738891"><ele>6.0</ele><time>2026-05-01T10:18:54Z</time></trkpt><trkpt lat="44.49836430451542" lon="15.114081729450477"><ele>6.0</ele><time>2026-05-01T10:18:55Z</time></trkpt><trkpt lat="44.49831312179902" lon="15.114324104636111"><ele>9.0</ele><time>2026-05-01T10:18:56Z</time></trkpt><trkpt lat="44.498316049428496" lon="15.114581479593737"><ele>12.0</ele><time>2026-05-01T10:18:57Z</time></trkpt><trkpt lat="44.49835622430979" lon="15.114835700330525"><ele>15.0</ele><time>2026-05-01T10:18:58Z</time></trkpt><trkpt lat="44.49839741264471" lon="15.115062402221245"><ele>15.5</ele><time>2026-05-01T10:18:59Z</time></trkpt><trkpt lat="44.49841516824859" lon="15.115251350554002"><ele>16.0</ele><time>2026-05-01T10:19:00Z</time></trkpt><trkpt lat="44.49837987737985" lon="15.115417351475712"><ele>16.5</ele><time>2026-05-01T10:19:01Z</time></trkpt><trkpt lat="44.49829656232019" lon="15.115536268366613"><ele>17.0</ele><time>2026-05-01T10:19:02Z</time></trkpt><trkpt lat="44.49818395285072" lon="15.115590728425747"><ele>17.0</ele><time>2026-05-01T10:19:03Z</time></trkpt><trkpt lat="44.498051551687595" lon="15.115565007617349"><ele>17.0</ele><time>2026-05-01T10:19:04Z</time></trkpt><trkpt lat="44.49792461911022" lon="15.115469395845253"><ele>17.0</ele><time>2026-05-01T10:19:05Z</time></trkpt><trkpt lat="44.49781846546437" lon="15.115344164620238"><ele>17.0</ele><time>2026-05-01T10:19:06Z</time></trkpt><trkpt lat="44.49771689622558" lon="15.115235474695416"><ele>16.0</ele><time>2026-05-01T10:19:07Z</time></trkpt><trkpt lat="44.497602580905635" lon="15.115132348833217"><ele>15.0</ele><time>2026-05-01T10:19:08Z</time></trkpt><trkpt lat="44.49747904245955" lon="15.115018293886811"><ele>14.0</ele><time>2026-05-01T10:19:09Z</time></trkpt><trkpt lat="44.49735014275785" lon="15.114896810586647"><ele>13.0</ele><time>2026-05-01T10:19:10Z</time></trkpt><trkpt lat="44.497218641197534" lon="15.114778801477911"><ele>8.666666666666666</ele><time>2026-05-01T10:19:11Z</time></trkpt><trkpt lat="44.49707202850153" lon="15.114684638750395"><ele>4.333333333333333</ele><time>2026-05-01T10:19:12Z</time></trkpt><trkpt lat="44.496912772991266" lon="15.114634730117963"><ele>0.0</ele><time>2026-05-01T10:19:13Z</time></trkpt><trkpt lat="44.496747226799016" lon="15.114647775367123"><ele>0.0</ele><time>2026-05-01T10:19:14Z</time></trkpt><trkpt lat="44.49658696733599" lon="15.114722298741142"><ele>0.0</ele><time>2026-05-01T10:19:15Z</time></trkpt><trkpt lat="44.49643119205083" lon="15.1148499241156"><ele>0.0</ele><time>2026-05-01T10:19:16Z</time></trkpt><trkpt lat="44.496287734407616" lon="15.115013383249595"><ele>2.6666666666666665</ele><time>2026-05-01T10:19:17Z</time></trkpt><trkpt lat="44.49615808569851" lon="15.115162614228563"><ele>5.333333333333333</ele><time>2026-05-01T10:19:18Z</time></trkpt><trkpt lat="44.49603204350878" lon="15.115297420495438"><ele>8.0</ele><time>2026-05-01T10:19:19Z</time></trkpt><trkpt lat="44.49590637492138" lon="15.115417175338893"><ele>8.0</ele><time>2026-05-01T10:19:20Z</time></trkpt><trkpt lat="44.495786897884976" lon="15.115533978049857"><ele>8.0</ele><time>2026-05-01T10:19:21Z</time></trkpt><trkpt lat="44.495678651171886" lon="15.115646729196929"><ele>8.0</ele><time>2026-05-01T10:19:22Z</time></trkpt><trkpt lat="44.4955784796227" lon="15.11574744918249"><ele>8.0</ele><time>2026-05-01T10:19:23Z</time></trkpt><trkpt lat="44.49547898867199" lon="15.115849655089761"><ele>7.0</ele><time>2026-05-01T10:19:24Z</time></trkpt><trkpt lat="44.49537552807726" lon="15.115962712509171"><ele>6.0</ele><time>2026-05-01T10:19:25Z</time></trkpt><trkpt lat="44.49526464681983" lon="15.116095754345855"><ele>5.0</ele><time>2026-05-01T10:19:26Z</time></trkpt><trkpt lat="44.495153610233764" lon="15.116249289030833"><ele>4.0</ele><time>2026-05-01T10:19:27Z</time></trkpt><trkpt lat="44.49505556683093" lon="15.116418492256162"><ele>7.0</ele><time>2026-05-01T10:19:28Z</time></trkpt><trkpt lat="44.49496679503009" lon="15.116596110667105"><ele>10.0</ele><time>2026-05-01T10:19:29Z</time></trkpt><trkpt lat="44.49487765066268" lon="15.116816832523346"><ele>13.0</ele><time>2026-05-01T10:19:30Z</time></trkpt><trkpt lat="44.494781736841084" lon="15.117112513138816"><ele>13.0</ele><time>2026-05-01T10:19:31Z</time></trkpt><trkpt lat="44.49469974065539" lon="15.117402028382282"><ele>13.0</ele><time>2026-05-01T10:19:32Z</time></trkpt><trkpt lat="44.49463827885269" lon="15.117638988641511"><ele>13.0</ele><time>2026-05-01T10:19:33Z</time></trkpt><trkpt lat="44.49458545019231" lon="15.117826692235589"><ele>14.4</ele><time>2026-05-01T10:19:34Z</time></trkpt><trkpt lat="44.494540881023454" lon="15.11798483194984"><ele>15.8</ele><time>2026-05-01T10:19:35Z</time></trkpt><trkpt lat="44.49450280675164" lon="15.11811162983442"><ele>17.2</ele><time>2026-05-01T10:19:36Z</time></trkpt><trkpt lat="44.494458428052575" lon="15.11821499325682"><ele>18.6</ele><time>2026-05-01T10:19:37Z</time></trkpt><trkpt lat="44.49439082314288" lon="15.118288987182426"><ele>20.0</ele><time>2026-05-01T10:19:38Z</time></trkpt><trkpt lat="44.49430949937753" lon="15.118323063904691"><ele>20.0</ele><time>2026-05-01T10:19:39Z</time></trkpt><trkpt lat="44.49422271649414" lon="15.118305033037771"><ele>20.0</ele><time>2026-05-01T10:19:40Z</time></trkpt><trkpt lat="44.49413863749427" lon="15.118248530505044"><ele>20.0</ele><time>2026-05-01T10:19:41Z</time></trkpt><trkpt lat="44.49406352610798" lon="15.118171182302392"><ele>20.0</ele><time>2026-05-01T10:19:42Z</time></trkpt><trkpt lat="44.49398667530159" lon="15.118086431142897"><ele>20.0</ele><time>2026-05-01T10:19:43Z</time></trkpt><trkpt lat="44.4939004526539" lon="15.117994210438237"><ele>15.75</ele><time>2026-05-01T10:19:44Z</time></trkpt><trkpt lat="44.49380536657095" lon="15.117893749586775"><ele>11.5</ele><time>2026-05-01T10:19:45Z</time></trkpt><trkpt lat="44.49371103274052" lon="15.117797085389553"><ele>7.25</ele><time>2026-05-01T10:19:46Z</time></trkpt><trkpt lat="44.4936055816834" lon="15.117712923383587"><ele>3.0</ele><time>2026-05-01T10:19:47Z</time></trkpt><trkpt lat="44.49349279796949" lon="15.117652693513566"><ele>3.0</ele><time>2026-05-01T10:19:48Z</time></trkpt><trkpt lat="44.49337580146282" lon="15.11761870423455"><ele>3.0</ele><time>2026-05-01T10:19:49Z</time></trkpt><trkpt lat="44.49325875267223" lon="15.117613858649465"><ele>3.0</ele><time>2026-05-01T10:19:50Z</time></trkpt><trkpt lat="44.49313238695759" lon="15.117636047336553"><ele>3.0</ele><time>2026-05-01T10:19:51Z</time></trkpt><trkpt lat="44.49300146458539" lon="15.117697986924515"><ele>2.3333333333333335</ele><time>2026-05-01T10:19:52Z</time></trkpt><trkpt lat="44.49283571057325" lon="15.117844026953655"><ele>1.6666666666666665</ele><time>2026-05-01T10:19:53Z</time></trkpt><trkpt lat="44.49264637307268" lon="15.118045737281365"><ele>1.0</ele><time>2026-05-01T10:19:54Z</time></trkpt><trkpt lat="44.49241546481778" lon="15.118235071630172"><ele>5.5</ele><time>2026-05-01T10:19:55Z</time></trkpt><trkpt lat="44.49217354911452" lon="15.118396980209685"><ele>10.0</ele><time>2026-05-01T10:19:56Z</time></trkpt><trkpt lat="44.491901266368636" lon="15.11848842786607"><ele>10.0</ele><time>2026-05-01T10:19:57Z</time></trkpt><trkpt lat="44.4916444501039" lon="15.118522631907757"><ele>10.0</ele><time>2026-05-01T10:19:58Z</time></trkpt><trkpt lat="44.49142264199248" lon="15.118557882585806"><ele>7.333333333333334</ele><time>2026-05-01T10:19:59Z</time></trkpt><trkpt lat="44.491217723268846" lon="15.118623906853816"><ele>4.666666666666667</ele><time>2026-05-01T10:20:00Z</time></trkpt><trkpt lat="44.49101911773331" lon="15.118747045441179"><ele>2.0</ele><time>2026-05-01T10:20:01Z</time></trkpt><trkpt lat="44.49082191731056" lon="15.118951745337053"><ele>3.5</ele><time>2026-05-01T10:20:02Z</time></trkpt><trkpt lat="44.49062504137968" lon="15.119237604108138"><ele>5.0</ele><time>2026-05-01T10:20:03Z</time></trkpt><trkpt lat="44.49038976115152" lon="15.119511774693407"><ele>5.0</ele><time>2026-05-01T10:20:04Z</time></trkpt><trkpt lat="44.490098588345205" lon="15.119718746632405"><ele>5.0</ele><time>2026-05-01T10:20:05Z</time></trkpt><trkpt lat="44.48980398631157" lon="15.11988395094875"><ele>7.0</ele><time>2026-05-01T10:20:06Z</time></trkpt><trkpt lat="44.48952866160327" lon="15.120066418761171"><ele>9.0</ele><time>2026-05-01T10:20:07Z</time></trkpt><trkpt lat="44.4892687306422" lon="15.120271370668272"><ele>9.0</ele><time>2026-05-01T10:20:08Z</time></trkpt><trkpt lat="44.48901846346899" lon="15.120539781135447"><ele>9.0</ele><time>2026-05-01T10:20:09Z</time></trkpt><trkpt lat="44.488770699524906" lon="15.12086737617085"><ele>10.0</ele><time>2026-05-01T10:20:10Z</time></trkpt><trkpt lat="44.488528363519926" lon="15.121195248260463"><ele>11.0</ele><time>2026-05-01T10:20:11Z</time></trkpt><trkpt lat="44.48831121338187" lon="15.12148048163604"><ele>20.5</ele><time>2026-05-01T10:20:12Z</time></trkpt><trkpt lat="44.48813043413384" lon="15.121715694624703"><ele>30.0</ele><time>2026-05-01T10:20:13Z</time></trkpt><trkpt lat="44.487977524072264" lon="15.121952989826898"><ele>24.0</ele><time>2026-05-01T10:20:14Z</time></trkpt><trkpt lat="44.48786442334016" lon="15.122232916714728"><ele>18.0</ele><time>2026-05-01T10:20:15Z</time></trkpt><trkpt lat="44.4877839062123" lon="15.122561332394655"><ele>18.0</ele><time>2026-05-01T10:20:16Z</time></trkpt><trkpt lat="44.4877200037831" lon="15.122924936493996"><ele>18.0</ele><time>2026-05-01T10:20:17Z</time></trkpt><trkpt lat="44.487650149018855" lon="15.123286192462263"><ele>24.0</ele><time>2026-05-01T10:20:18Z</time></trkpt><trkpt lat="44.48757611144928" lon="15.123632022680807"><ele>30.0</ele><time>2026-05-01T10:20:19Z</time></trkpt><trkpt lat="44.487497126926854" lon="15.12397811800256"><ele>38.5</ele><time>2026-05-01T10:20:20Z</time></trkpt><trkpt lat="44.487415358593324" lon="15.124306909698838"><ele>47.0</ele><time>2026-05-01T10:20:21Z</time></trkpt><trkpt lat="44.48731108739334" lon="15.124583425209366"><ele>47.0</ele><time>2026-05-01T10:20:22Z</time></trkpt><trkpt lat="44.48716686266472" lon="15.124802995822632"><ele>47.0</ele><time>2026-05-01T10:20:23Z</time></trkpt><trkpt lat="44.48697758413335" lon="15.124959142924167"><ele>47.0</ele><time>2026-05-01T10:20:24Z</time></trkpt><trkpt lat="44.48675989376701" lon="15.125034269306557"><ele>48.5</ele><time>2026-05-01T10:20:25Z</time></trkpt><trkpt lat="44.48652171683911" lon="15.125022265893245"><ele>50.0</ele><time>2026-05-01T10:20:26Z</time></trkpt><trkpt lat="44.4862799844439" lon="15.124958462410683"><ele>52.5</ele><time>2026-05-01T10:20:27Z</time></trkpt><trkpt lat="44.486029529147864" lon="15.12489640746553"><ele>55.0</ele><time>2026-05-01T10:20:28Z</time></trkpt><trkpt lat="44.485793523079465" lon="15.124837712223767"><ele>45.33333333333333</ele><time>2026-05-01T10:20:29Z</time></trkpt><trkpt lat="44.485596440438194" lon="15.124769935106501"><ele>35.666666666666664</ele><time>2026-05-01T10:20:30Z</time></trkpt><trkpt lat="44.485434913649634" lon="15.12471431496017"><ele>26.0</ele><time>2026-05-01T10:20:31Z</time></trkpt><trkpt lat="44.48529061121033" lon="15.12469901473294"><ele>26.0</ele><time>2026-05-01T10:20:32Z</time></trkpt><trkpt lat="44.4851349730388" lon="15.124744109991315"><ele>26.0</ele><time>2026-05-01T10:20:33Z</time></trkpt><trkpt lat="44.484978167922655" lon="15.12487378736587"><ele>26.0</ele><time>2026-05-01T10:20:34Z</time></trkpt><trkpt lat="44.48485053956394" lon="15.125081720755137"><ele>33.0</ele><time>2026-05-01T10:20:35Z</time></trkpt><trkpt lat="44.48474159331739" lon="15.125366144203287"><ele>40.0</ele><time>2026-05-01T10:20:36Z</time></trkpt><trkpt lat="44.48464924901549" lon="15.12563584765463"><ele>47.0</ele><time>2026-05-01T10:20:37Z</time></trkpt><trkpt lat="44.48455781710449" lon="15.125863388268634"><ele>47.0</ele><time>2026-05-01T10:20:38Z</time></trkpt><trkpt lat="44.48445526930024" lon="15.126146386251635"><ele>47.0</ele><time>2026-05-01T10:20:39Z</time></trkpt><trkpt lat="44.4843301061512" lon="15.126493691106086"><ele>54.5</ele><time>2026-05-01T10:20:40Z</time></trkpt><trkpt lat="44.48416724238246" lon="15.126853441184611"><ele>62.0</ele><time>2026-05-01T10:20:41Z</time></trkpt><trkpt lat="44.48399270779116" lon="15.127195224498136"><ele>63.5</ele><time>2026-05-01T10:20:42Z</time></trkpt><trkpt lat="44.48384169568321" lon="15.127546891200051"><ele>65.0</ele><time>2026-05-01T10:20:43Z</time></trkpt><trkpt lat="44.48371569924351" lon="15.127897640762125"><ele>60.5</ele><time>2026-05-01T10:20:44Z</time></trkpt><trkpt lat="44.48361252123514" lon="15.128250884552836"><ele>56.0</ele><time>2026-05-01T10:20:45Z</time></trkpt><trkpt lat="44.483526332636686" lon="15.128611989122069"><ele>56.0</ele><time>2026-05-01T10:20:46Z</time></trkpt><trkpt lat="44.48344917533226" lon="15.128976613160823"><ele>56.0</ele><time>2026-05-01T10:20:47Z</time></trkpt><trkpt lat="44.48338267539526" lon="15.129349151482641"><ele>60.5</ele><time>2026-05-01T10:20:48Z</time></trkpt><trkpt lat="44.48333101217509" lon="15.129724562612175"><ele>65.0</ele><time>2026-05-01T10:20:49Z</time></trkpt><trkpt lat="44.48329089392034" lon="15.130102447757597"><ele>68.0</ele><time>2026-05-01T10:20:50Z</time></trkpt><trkpt lat="44.483256926173254" lon="15.130487737989199"><ele>71.0</ele><time>2026-05-01T10:20:51Z</time></trkpt><trkpt lat="44.48322214260932" lon="15.130867229232118"><ele>72.5</ele><time>2026-05-01T10:20:52Z</time></trkpt><trkpt lat="44.48317660275783" lon="15.131233589308307"><ele>74.0</ele><time>2026-05-01T10:20:53Z</time></trkpt><trkpt lat="44.483096462349664" lon="15.131580556775408"><ele>78.0</ele><time>2026-05-01T10:20:54Z</time></trkpt><trkpt lat="44.4829729478074" lon="15.131869305689161"><ele>82.0</ele><time>2026-05-01T10:20:55Z</time></trkpt><trkpt lat="44.48280912530476" lon="15.132107129799408"><ele>80.0</ele><time>2026-05-01T10:20:56Z</time></trkpt><trkpt lat="44.48262063618116" lon="15.132299319516736"><ele>78.0</ele><time>2026-05-01T10:20:57Z</time></trkpt><trkpt lat="44.48242224123154" lon="15.132463004222798"><ele>78.0</ele><time>2026-05-01T10:20:58Z</time></trkpt><trkpt lat="44.48225751663469" lon="15.132674940064557"><ele>78.0</ele><time>2026-05-01T10:20:59Z</time></trkpt><trkpt lat="44.48212994857" lon="15.132951673251245"><ele>74.0</ele><time>2026-05-01T10:21:00Z</time></trkpt><trkpt lat="44.482045709480595" lon="15.133304285403879"><ele>70.0</ele><time>2026-05-01T10:21:01Z</time></trkpt><trkpt lat="44.481975697878525" lon="15.133653405876958"><ele>70.0</ele><time>2026-05-01T10:21:02Z</time></trkpt><trkpt lat="44.48189279231099" lon="15.133987543265173"><ele>70.0</ele><time>2026-05-01T10:21:03Z</time></trkpt><trkpt lat="44.4817762378011" lon="15.134309647213172"><ele>74.0</ele><time>2026-05-01T10:21:04Z</time></trkpt><trkpt lat="44.48162485180672" lon="15.134627370632392"><ele>78.0</ele><time>2026-05-01T10:21:05Z</time></trkpt><trkpt lat="44.48144332607721" lon="15.134934190664636"><ele>75.5</ele><time>2026-05-01T10:21:06Z</time></trkpt><trkpt lat="44.481243080190495" lon="15.135218852680845"><ele>73.0</ele><time>2026-05-01T10:21:07Z</time></trkpt><trkpt lat="44.48104624390182" lon="15.135460766578062"><ele>73.0</ele><time>2026-05-01T10:21:08Z</time></trkpt><trkpt lat="44.48087259808735" lon="15.135673416594427"><ele>73.0</ele><time>2026-05-01T10:21:09Z</time></trkpt><trkpt lat="44.48072781984981" lon="15.13589738203877"><ele>73.0</ele><time>2026-05-01T10:21:10Z</time></trkpt><trkpt lat="44.480621952952056" lon="15.13614803483384"><ele>76.33333333333333</ele><time>2026-05-01T10:21:11Z</time></trkpt><trkpt lat="44.480559279048464" lon="15.136444404624985"><ele>79.66666666666667</ele><time>2026-05-01T10:21:12Z</time></trkpt><trkpt lat="44.48054643974166" lon="15.136756285027198"><ele>83.0</ele><time>2026-05-01T10:21:13Z</time></trkpt><trkpt lat="44.48057932552903" lon="15.137071839696446"><ele>86.0</ele><time>2026-05-01T10:21:14Z</time></trkpt><trkpt lat="44.48064132334972" lon="15.137363526281373"><ele>89.0</ele><time>2026-05-01T10:21:15Z</time></trkpt><trkpt lat="44.480682551793564" lon="15.137630276915619"><ele>92.0</ele><time>2026-05-01T10:21:16Z</time></trkpt><trkpt lat="44.480681868213054" lon="15.137888758551513"><ele>93.0</ele><time>2026-05-01T10:21:17Z</time></trkpt><trkpt lat="44.48062679393001" lon="15.138143867911747"><ele>94.0</ele><time>2026-05-01T10:21:18Z</time></trkpt><trkpt lat="44.480520465848834" lon="15.138363171199599"><ele>95.0</ele><time>2026-05-01T10:21:19Z</time></trkpt><trkpt lat="44.48037936713589" lon="15.138542491226787"><ele>88.0</ele><time>2026-05-01T10:21:20Z</time></trkpt><trkpt lat="44.480212382517" lon="15.13870203690749"><ele>81.0</ele><time>2026-05-01T10:21:21Z</time></trkpt><trkpt lat="44.480051263989004" lon="15.138857304401009"><ele>74.0</ele><time>2026-05-01T10:21:22Z</time></trkpt><trkpt lat="44.479900696902185" lon="15.139035516783032"><ele>75.33333333333334</ele><time>2026-05-01T10:21:23Z</time></trkpt><trkpt lat="44.4797665123666" lon="15.139258847075416"><ele>76.66666666666667</ele><time>2026-05-01T10:21:24Z</time></trkpt><trkpt lat="44.479659802253316" lon="15.139534351417847"><ele>78.0</ele><time>2026-05-01T10:21:25Z</time></trkpt><trkpt lat="44.479599632277115" lon="15.139848820719264"><ele>80.0</ele><time>2026-05-01T10:21:26Z</time></trkpt><trkpt lat="44.479586202650054" lon="15.140176717053743"><ele>82.0</ele><time>2026-05-01T10:21:27Z</time></trkpt><trkpt lat="44.47961313794731" lon="15.140500024310068"><ele>94.33333333333333</ele><time>2026-05-01T10:21:28Z</time></trkpt><trkpt lat="44.4796536873446" lon="15.140817171973344"><ele>106.66666666666666</ele><time>2026-05-01T10:21:29Z</time></trkpt><trkpt lat="44.479678303100734" lon="15.141123035033415"><ele>119.0</ele><time>2026-05-01T10:21:30Z</time></trkpt><trkpt lat="44.479690064467285" lon="15.141399203692435"><ele>118.0</ele><time>2026-05-01T10:21:31Z</time></trkpt><trkpt lat="44.479681608675754" lon="15.141662193036447"><ele>117.0</ele><time>2026-05-01T10:21:32Z</time></trkpt><trkpt lat="44.479640342814776" lon="15.141918666928175"><ele>116.0</ele><time>2026-05-01T10:21:33Z</time></trkpt><trkpt lat="44.47954623768577" lon="15.142163846246161"><ele>114.0</ele><time>2026-05-01T10:21:34Z</time></trkpt><trkpt lat="44.479434842755055" lon="15.142393597082082"><ele>112.0</ele><time>2026-05-01T10:21:35Z</time></trkpt><trkpt lat="44.47932447070456" lon="15.142603951379641"><ele>110.0</ele><time>2026-05-01T10:21:36Z</time></trkpt><trkpt lat="44.47921718113907" lon="15.142820927559875"><ele>110.0</ele><time>2026-05-01T10:21:37Z</time></trkpt><trkpt lat="44.47911894622108" lon="15.143038750413169"><ele>110.0</ele><time>2026-05-01T10:21:38Z</time></trkpt><trkpt lat="44.47902192642313" lon="15.143260022903972"><ele>110.0</ele><time>2026-05-01T10:21:39Z</time></trkpt><trkpt lat="44.47894405874949" lon="15.143331763628467"><ele>111.0</ele><time>2026-05-01T10:21:40Z</time></trkpt><trkpt lat="44.47878518758113" lon="15.143377533555478"><ele>112.0</ele><time>2026-05-01T10:21:41Z</time></trkpt><trkpt lat="44.478629470137335" lon="15.143400439257459"><ele>113.0</ele><time>2026-05-01T10:21:42Z</time></trkpt><trkpt lat="44.478483519855786" lon="15.143302024505905"><ele>107.33333333333333</ele><time>2026-05-01T10:21:43Z</time></trkpt><trkpt lat="44.47834231602924" lon="15.143186456003923"><ele>101.66666666666666</ele><time>2026-05-01T10:21:44Z</time></trkpt><trkpt lat="44.47819083203535" lon="15.143085390550361"><ele>96.0</ele><time>2026-05-01T10:21:45Z</time></trkpt><trkpt lat="44.47804443213503" lon="15.142951759977967"><ele>97.33333333333334</ele><time>2026-05-01T10:21:46Z</time></trkpt><trkpt lat="44.47789112638206" lon="15.142820236049598"><ele>98.66666666666667</ele><time>2026-05-01T10:21:47Z</time></trkpt><trkpt lat="44.47773261315939" lon="15.142690243526355"><ele>100.0</ele><time>2026-05-01T10:21:48Z</time></trkpt><trkpt lat="44.47757397414338" lon="15.142568100996941"><ele>100.0</ele><time>2026-05-01T10:21:49Z</time></trkpt><trkpt lat="44.477421679468186" lon="15.142477551550007"><ele>100.0</ele><time>2026-05-01T10:21:50Z</time></trkpt><trkpt lat="44.47724997116479" lon="15.142448233659335"><ele>100.0</ele><time>2026-05-01T10:21:51Z</time></trkpt><trkpt lat="44.477074526988545" lon="15.142522939250727"><ele>98.66666666666667</ele><time>2026-05-01T10:21:52Z</time></trkpt><trkpt lat="44.47692905501459" lon="15.142684605541778"><ele>97.33333333333334</ele><time>2026-05-01T10:21:53Z</time></trkpt><trkpt lat="44.47683261307293" lon="15.142922954968743"><ele>96.0</ele><time>2026-05-01T10:21:54Z</time></trkpt><trkpt lat="44.47677567751064" lon="15.143225649393047"><ele>100.0</ele><time>2026-05-01T10:21:55Z</time></trkpt><trkpt lat="44.47674330122281" lon="15.143534459996815"><ele>104.0</ele><time>2026-05-01T10:21:56Z</time></trkpt><trkpt lat="44.47670854892688" lon="15.143798813795291"><ele>108.0</ele><time>2026-05-01T10:21:57Z</time></trkpt><trkpt lat="44.476649607392076" lon="15.144031517003915"><ele>112.0</ele><time>2026-05-01T10:21:58Z</time></trkpt><trkpt lat="44.476551239112496" lon="15.14420849980925"><ele>116.0</ele><time>2026-05-01T10:21:59Z</time></trkpt><trkpt lat="44.47643198621408" lon="15.144351312746597"><ele>120.0</ele><time>2026-05-01T10:22:00Z</time></trkpt><trkpt lat="44.47628540183353" lon="15.144459143271257"><ele>116.33333333333334</ele><time>2026-05-01T10:22:01Z</time></trkpt><trkpt lat="44.4761260850131" lon="15.144535079953812"><ele>112.66666666666667</ele><time>2026-05-01T10:22:02Z</time></trkpt><trkpt lat="44.47593743556167" lon="15.144602614844011"><ele>109.0</ele><time>2026-05-01T10:22:03Z</time></trkpt><trkpt lat="44.475757755505605" lon="15.14466615294452"><ele>109.0</ele><time>2026-05-01T10:22:04Z</time></trkpt><trkpt lat="44.47558080685538" lon="15.144748659382977"><ele>109.0</ele><time>2026-05-01T10:22:05Z</time></trkpt><trkpt lat="44.475414158524444" lon="15.144804296745972"><ele>109.0</ele><time>2026-05-01T10:22:06Z</time></trkpt><trkpt lat="44.47526687589432" lon="15.144852644208777"><ele>112.75</ele><time>2026-05-01T10:22:07Z</time></trkpt><trkpt lat="44.47513869151604" lon="15.144895097038766"><ele>116.5</ele><time>2026-05-01T10:22:08Z</time></trkpt><trkpt lat="44.475018843645806" lon="15.144941740420114"><ele>120.25</ele><time>2026-05-01T10:22:09Z</time></trkpt><trkpt lat="44.47490037433875" lon="15.14501701357588"><ele>124.0</ele><time>2026-05-01T10:22:10Z</time></trkpt><trkpt lat="44.47479564631287" lon="15.145122971348032"><ele>124.0</ele><time>2026-05-01T10:22:11Z</time></trkpt><trkpt lat="44.47469979540923" lon="15.14525095604782"><ele>124.0</ele><time>2026-05-01T10:22:12Z</time></trkpt><trkpt lat="44.474621525812445" lon="15.14540642830492"><ele>124.0</ele><time>2026-05-01T10:22:13Z</time></trkpt><trkpt lat="44.47457036056285" lon="15.145574115351016"><ele>124.0</ele><time>2026-05-01T10:22:14Z</time></trkpt><trkpt lat="44.47454172578714" lon="15.145763371627998"><ele>123.33333333333334</ele><time>2026-05-01T10:22:15Z</time></trkpt><trkpt lat="44.474537524123605" lon="15.145968568220814"><ele>122.66666666666666</ele><time>2026-05-01T10:22:16Z</time></trkpt><trkpt lat="44.47456902607874" lon="15.146203354487938"><ele>122.0</ele><time>2026-05-01T10:22:17Z</time></trkpt><trkpt lat="44.474618681818335" lon="15.146487812562496"><ele>127.5</ele><time>2026-05-01T10:22:18Z</time></trkpt><trkpt lat="44.474681368514624" lon="15.146841679201861"><ele>133.0</ele><time>2026-05-01T10:22:19Z</time></trkpt><trkpt lat="44.47475423877579" lon="15.147244483098875"><ele>130.0</ele><time>2026-05-01T10:22:20Z</time></trkpt><trkpt lat="44.474825228852964" lon="15.14762641169678"><ele>127.0</ele><time>2026-05-01T10:22:21Z</time></trkpt><trkpt lat="44.47489058140959" lon="15.14794732880425"><ele>126.33333333333334</ele><time>2026-05-01T10:22:22Z</time></trkpt><trkpt lat="44.47489255190398" lon="15.14823477705304"><ele>125.66666666666666</ele><time>2026-05-01T10:22:23Z</time></trkpt><trkpt lat="44.474866209610596" lon="15.148497231550024"><ele>125.0</ele><time>2026-05-01T10:22:24Z</time></trkpt><trkpt lat="44.47479066410332" lon="15.148723393967607"><ele>125.0</ele><time>2026-05-01T10:22:25Z</time></trkpt><trkpt lat="44.474681516919055" lon="15.148926548034149"><ele>125.0</ele><time>2026-05-01T10:22:26Z</time></trkpt><trkpt lat="44.47452513482713" lon="15.149085574490943"><ele>125.0</ele><time>2026-05-01T10:22:27Z</time></trkpt><trkpt lat="44.474322485449505" lon="15.14918107944796"><ele>123.0</ele><time>2026-05-01T10:22:28Z</time></trkpt><trkpt lat="44.474078639236446" lon="15.149236003482018"><ele>121.0</ele><time>2026-05-01T10:22:29Z</time></trkpt><trkpt lat="44.47380349563389" lon="15.14928494352777"><ele>119.0</ele><time>2026-05-01T10:22:30Z</time></trkpt><trkpt lat="44.473540207295756" lon="15.149315622097365"><ele>117.0</ele><time>2026-05-01T10:22:31Z</time></trkpt><trkpt lat="44.473297468952076" lon="15.149381364678163"><ele>117.0</ele><time>2026-05-01T10:22:32Z</time></trkpt><trkpt lat="44.47306154797692" lon="15.149507374953505"><ele>117.0</ele><time>2026-05-01T10:22:33Z</time></trkpt><trkpt lat="44.47282606433024" lon="15.149689778339216"><ele>121.5</ele><time>2026-05-01T10:22:34Z</time></trkpt><trkpt lat="44.47258588666858" lon="15.149918077517881"><ele>126.0</ele><time>2026-05-01T10:22:35Z</time></trkpt><trkpt lat="44.47232831656649" lon="15.15016918315238"><ele>122.5</ele><time>2026-05-01T10:22:36Z</time></trkpt><trkpt lat="44.47205387267864" lon="15.15041643784128"><ele>119.0</ele><time>2026-05-01T10:22:37Z</time></trkpt><trkpt lat="44.47176667029405" lon="15.150662728181223"><ele>121.5</ele><time>2026-05-01T10:22:38Z</time></trkpt><trkpt lat="44.4714782273831" lon="15.150908054816416"><ele>124.0</ele><time>2026-05-01T10:22:39Z</time></trkpt><trkpt lat="44.47117304749414" lon="15.15117182520907"><ele>124.0</ele><time>2026-05-01T10:22:40Z</time></trkpt><trkpt lat="44.47086663644279" lon="15.151438906759694"><ele>124.0</ele><time>2026-05-01T10:22:41Z</time></trkpt><trkpt lat="44.47059339384206" lon="15.151683856114843"><ele>125.0</ele><time>2026-05-01T10:22:42Z</time></trkpt><trkpt lat="44.47034302308135" lon="15.151901665488081"><ele>126.0</ele><time>2026-05-01T10:22:43Z</time></trkpt><trkpt lat="44.47011337299249" lon="15.152097866144988"><ele>126.0</ele><time>2026-05-01T10:22:44Z</time></trkpt><trkpt lat="44.469907657958835" lon="15.152290013828729"><ele>126.0</ele><time>2026-05-01T10:22:45Z</time></trkpt><trkpt lat="44.46973569151523" lon="15.152499576412117"><ele>125.66666666666666</ele><time>2026-05-01T10:22:46Z</time></trkpt><trkpt lat="44.469616087724" lon="15.152755868863562"><ele>125.33333333333333</ele><time>2026-05-01T10:22:47Z</time></trkpt><trkpt lat="44.469544201748484" lon="15.153051041102005"><ele>125.0</ele><time>2026-05-01T10:22:48Z</time></trkpt><trkpt lat="44.46949705629141" lon="15.153349584347053"><ele>125.0</ele><time>2026-05-01T10:22:49Z</time></trkpt><trkpt lat="44.469419362148614" lon="15.153604812620545"><ele>125.0</ele><time>2026-05-01T10:22:50Z</time></trkpt><trkpt lat="44.46927401644615" lon="15.153782356500798"><ele>125.0</ele><time>2026-05-01T10:22:51Z</time></trkpt><trkpt lat="44.469091172683996" lon="15.153885813600775"><ele>125.0</ele><time>2026-05-01T10:22:52Z</time></trkpt><trkpt lat="44.46888064823075" lon="15.153900160653121"><ele>125.0</ele><time>2026-05-01T10:22:53Z</time></trkpt><trkpt lat="44.46865010046249" lon="15.153913506192483"><ele>125.0</ele><time>2026-05-01T10:22:54Z</time></trkpt><trkpt lat="44.46840200118545" lon="15.153871948723086"><ele>125.5</ele><time>2026-05-01T10:22:55Z</time></trkpt><trkpt lat="44.46815895644793" lon="15.15389727571053"><ele>126.0</ele><time>2026-05-01T10:22:56Z</time></trkpt><trkpt lat="44.46794590741404" lon="15.153958570770055"><ele>129.0</ele><time>2026-05-01T10:22:57Z</time></trkpt><trkpt lat="44.467721011589155" lon="15.154045664990447"><ele>132.0</ele><time>2026-05-01T10:22:58Z</time></trkpt><trkpt lat="44.46749422252775" lon="15.15415611798754"><ele>132.0</ele><time>2026-05-01T10:22:59Z</time></trkpt><trkpt lat="44.46727004743045" lon="15.154292241814533"><ele>132.0</ele><time>2026-05-01T10:23:00Z</time></trkpt><trkpt lat="44.467053727553306" lon="15.15445785842811"><ele>131.0</ele><time>2026-05-01T10:23:01Z</time></trkpt><trkpt lat="44.46684428396503" lon="15.154657060656703"><ele>130.0</ele><time>2026-05-01T10:23:02Z</time></trkpt><trkpt lat="44.466646589101515" lon="15.15489573544548"><ele>127.5</ele><time>2026-05-01T10:23:03Z</time></trkpt><trkpt lat="44.4664563279324" lon="15.15514184198833"><ele>125.0</ele><time>2026-05-01T10:23:04Z</time></trkpt><trkpt lat="44.46626878199756" lon="15.155399857629142"><ele>125.0</ele><time>2026-05-01T10:23:05Z</time></trkpt><trkpt lat="44.466077866227195" lon="15.155650547832257"><ele>125.0</ele><time>2026-05-01T10:23:06Z</time></trkpt><trkpt lat="44.465878286636155" lon="15.155894562091099"><ele>127.5</ele><time>2026-05-01T10:23:07Z</time></trkpt><trkpt lat="44.46567477339491" lon="15.156117514359819"><ele>130.0</ele><time>2026-05-01T10:23:08Z</time></trkpt><trkpt lat="44.46544861037104" lon="15.156263543024952"><ele>124.0</ele><time>2026-05-01T10:23:09Z</time></trkpt><trkpt lat="44.465234911021625" lon="15.156396708805739"><ele>118.0</ele><time>2026-05-01T10:23:10Z</time></trkpt><trkpt lat="44.46503305005411" lon="15.156523367741862"><ele>116.0</ele><time>2026-05-01T10:23:11Z</time></trkpt><trkpt lat="44.46483963903989" lon="15.156631066282067"><ele>114.0</ele><time>2026-05-01T10:23:12Z</time></trkpt><trkpt lat="44.4646553301084" lon="15.156755743534534"><ele>112.0</ele><time>2026-05-01T10:23:13Z</time></trkpt><trkpt lat="44.46447192218433" lon="15.156863660171277"><ele>112.0</ele><time>2026-05-01T10:23:14Z</time></trkpt><trkpt lat="44.46432319678565" lon="15.157061302530579"><ele>112.0</ele><time>2026-05-01T10:23:15Z</time></trkpt><trkpt lat="44.46417791900709" lon="15.157248154815374"><ele>112.0</ele><time>2026-05-01T10:23:16Z</time></trkpt><trkpt lat="44.464052428003136" lon="15.157452470790023"><ele>116.0</ele><time>2026-05-01T10:23:17Z</time></trkpt><trkpt lat="44.46394103796555" lon="15.157673983942614"><ele>120.0</ele><time>2026-05-01T10:23:18Z</time></trkpt><trkpt lat="44.46385101001348" lon="15.157894053676431"><ele>124.0</ele><time>2026-05-01T10:23:19Z</time></trkpt><trkpt lat="44.46377273832189" lon="15.158102333763395"><ele>117.33333333333334</ele><time>2026-05-01T10:23:20Z</time></trkpt><trkpt lat="44.46369420656433" lon="15.158308813904481"><ele>110.66666666666666</ele><time>2026-05-01T10:23:21Z</time></trkpt><trkpt lat="44.463627860307106" lon="15.158510481707895"><ele>104.0</ele><time>2026-05-01T10:23:22Z</time></trkpt><trkpt lat="44.463591725780326" lon="15.158728278933712"><ele>104.0</ele><time>2026-05-01T10:23:23Z</time></trkpt><trkpt lat="44.46360788337093" lon="15.158968534329308"><ele>104.0</ele><time>2026-05-01T10:23:24Z</time></trkpt><trkpt lat="44.463671783204056" lon="15.15920265876057"><ele>104.0</ele><time>2026-05-01T10:23:25Z</time></trkpt><trkpt lat="44.4637750079109" lon="15.159414863173664"><ele>113.0</ele><time>2026-05-01T10:23:26Z</time></trkpt><trkpt lat="44.46387542430192" lon="15.159640536573642"><ele>122.0</ele><time>2026-05-01T10:23:27Z</time></trkpt><trkpt lat="44.46394892217407" lon="15.159872556414749"><ele>131.0</ele><time>2026-05-01T10:23:28Z</time></trkpt><trkpt lat="44.46397261671144" lon="15.160141725093819"><ele>131.0</ele><time>2026-05-01T10:23:29Z</time></trkpt><trkpt lat="44.463979294008915" lon="15.160412003754494"><ele>131.0</ele><time>2026-05-01T10:23:30Z</time></trkpt><trkpt lat="44.46400974254204" lon="15.160642138175424"><ele>131.0</ele><time>2026-05-01T10:23:31Z</time></trkpt><trkpt lat="44.46408592352756" lon="15.160825135315154"><ele>125.0</ele><time>2026-05-01T10:23:32Z</time></trkpt><trkpt lat="44.46420051477014" lon="15.16095468807887"><ele>119.0</ele><time>2026-05-01T10:23:33Z</time></trkpt><trkpt lat="44.46433178706606" lon="15.161034310428535"><ele>113.0</ele><time>2026-05-01T10:23:34Z</time></trkpt><trkpt lat="44.4644573892817" lon="15.16108565967767"><ele>107.0</ele><time>2026-05-01T10:23:35Z</time></trkpt><trkpt lat="44.464581639846585" lon="15.161155383534366"><ele>112.0</ele><time>2026-05-01T10:23:36Z</time></trkpt><trkpt lat="44.46470268977597" lon="15.161260468148928"><ele>117.0</ele><time>2026-05-01T10:23:37Z</time></trkpt><trkpt lat="44.464807328394585" lon="15.161408694089014"><ele>122.0</ele><time>2026-05-01T10:23:38Z</time></trkpt><trkpt lat="44.464875212100864" lon="15.161592188065265"><ele>127.0</ele><time>2026-05-01T10:23:39Z</time></trkpt><trkpt lat="44.46490649091046" lon="15.16180377363972"><ele>127.0</ele><time>2026-05-01T10:23:40Z</time></trkpt><trkpt lat="44.46488829165243" lon="15.162024472393995"><ele>127.0</ele><time>2026-05-01T10:23:41Z</time></trkpt><trkpt lat="44.4648172139418" lon="15.16223320684556"><ele>127.0</ele><time>2026-05-01T10:23:42Z</time></trkpt><trkpt lat="44.46470415466018" lon="15.162409905561395"><ele>114.33333333333334</ele><time>2026-05-01T10:23:43Z</time></trkpt><trkpt lat="44.4645564723771" lon="15.162560274399505"><ele>101.66666666666667</ele><time>2026-05-01T10:23:44Z</time></trkpt><trkpt lat="44.46440224363327" lon="15.162687247051917"><ele>89.0</ele><time>2026-05-01T10:23:45Z</time></trkpt><trkpt lat="44.46425811321656" lon="15.162811874766138"><ele>89.0</ele><time>2026-05-01T10:23:46Z</time></trkpt><trkpt lat="44.46412100605213" lon="15.162935371065599"><ele>89.0</ele><time>2026-05-01T10:23:47Z</time></trkpt><trkpt lat="44.46398683409651" lon="15.163037299187508"><ele>89.0</ele><time>2026-05-01T10:23:48Z</time></trkpt><trkpt lat="44.46384622717564" lon="15.163099835121995"><ele>85.5</ele><time>2026-05-01T10:23:49Z</time></trkpt><trkpt lat="44.46369899840419" lon="15.163116228108992"><ele>82.0</ele><time>2026-05-01T10:23:50Z</time></trkpt><trkpt lat="44.463555656960864" lon="15.163093465366117"><ele>78.5</ele><time>2026-05-01T10:23:51Z</time></trkpt><trkpt lat="44.46341687371818" lon="15.163054470233437"><ele>75.0</ele><time>2026-05-01T10:23:52Z</time></trkpt><trkpt lat="44.46328553731219" lon="15.163017683616323"><ele>75.0</ele><time>2026-05-01T10:23:53Z</time></trkpt><trkpt lat="44.46314190986825" lon="15.162996534298662"><ele>75.0</ele><time>2026-05-01T10:23:54Z</time></trkpt><trkpt lat="44.46298330956505" lon="15.163004229529577"><ele>75.0</ele><time>2026-05-01T10:23:55Z</time></trkpt><trkpt lat="44.462822555700704" lon="15.163074562355757"><ele>69.0</ele><time>2026-05-01T10:23:56Z</time></trkpt><trkpt lat="44.46267085880188" lon="15.163175297855213"><ele>63.0</ele><time>2026-05-01T10:23:57Z</time></trkpt><trkpt lat="44.46253170462876" lon="15.163247062424958"><ele>57.0</ele><time>2026-05-01T10:23:58Z</time></trkpt><trkpt lat="44.46238582967614" lon="15.163292420041627"><ele>65.25</ele><time>2026-05-01T10:23:59Z</time></trkpt><trkpt lat="44.46223476503491" lon="15.163309226234258"><ele>73.5</ele><time>2026-05-01T10:24:00Z</time></trkpt><trkpt lat="44.46208746559515" lon="15.163301430183777"><ele>81.75</ele><time>2026-05-01T10:24:01Z</time></trkpt><trkpt lat="44.46195074206228" lon="15.163288902022572"><ele>90.0</ele><time>2026-05-01T10:24:02Z</time></trkpt><trkpt lat="44.46182365719638" lon="15.163283188590398"><ele>90.0</ele><time>2026-05-01T10:24:03Z</time></trkpt><trkpt lat="44.4617032212912" lon="15.163284698908253"><ele>90.0</ele><time>2026-05-01T10:24:04Z</time></trkpt><trkpt lat="44.46157586147753" lon="15.163293245069633"><ele>90.0</ele><time>2026-05-01T10:24:05Z</time></trkpt><trkpt lat="44.46143088215293" lon="15.163323204153764"><ele>90.0</ele><time>2026-05-01T10:24:06Z</time></trkpt><trkpt lat="44.461272614199466" lon="15.163396770490683"><ele>87.0</ele><time>2026-05-01T10:24:07Z</time></trkpt><trkpt lat="44.46111505454179" lon="15.163501187399039"><ele>84.0</ele><time>2026-05-01T10:24:08Z</time></trkpt><trkpt lat="44.46096294908986" lon="15.163625218051141"><ele>81.0</ele><time>2026-05-01T10:24:09Z</time></trkpt><trkpt lat="44.460817173464974" lon="15.163749376947878"><ele>81.0</ele><time>2026-05-01T10:24:10Z</time></trkpt><trkpt lat="44.46066308231191" lon="15.163891477046425"><ele>81.0</ele><time>2026-05-01T10:24:11Z</time></trkpt><trkpt lat="44.46050225471385" lon="15.164073936931965"><ele>81.0</ele><time>2026-05-01T10:24:12Z</time></trkpt><trkpt lat="44.46033311494265" lon="15.164286450964509"><ele>81.66666666666667</ele><time>2026-05-01T10:24:13Z</time></trkpt><trkpt lat="44.460163105697504" lon="15.164488897509488"><ele>82.33333333333334</ele><time>2026-05-01T10:24:14Z</time></trkpt><trkpt lat="44.45999308200353" lon="15.164679905139247"><ele>83.0</ele><time>2026-05-01T10:24:15Z</time></trkpt><trkpt lat="44.45982681283272" lon="15.164859344837335"><ele>84.0</ele><time>2026-05-01T10:24:16Z</time></trkpt><trkpt lat="44.45967356394623" lon="15.16502632085591"><ele>85.0</ele><time>2026-05-01T10:24:17Z</time></trkpt><trkpt lat="44.45953149585992" lon="15.165193998514296"><ele>86.0</ele><time>2026-05-01T10:24:18Z</time></trkpt><trkpt lat="44.45938262473308" lon="15.165384922190245"><ele>86.0</ele><time>2026-05-01T10:24:19Z</time></trkpt><trkpt lat="44.459237882777614" lon="15.16558430354736"><ele>86.0</ele><time>2026-05-01T10:24:20Z</time></trkpt><trkpt lat="44.459098945040495" lon="15.165784188585189"><ele>86.0</ele><time>2026-05-01T10:24:21Z</time></trkpt><trkpt lat="44.4589617088499" lon="15.165973563267896"><ele>87.33333333333334</ele><time>2026-05-01T10:24:22Z</time></trkpt><trkpt lat="44.45881496440664" lon="15.166157171888303"><ele>88.66666666666667</ele><time>2026-05-01T10:24:23Z</time></trkpt><trkpt lat="44.45865784365693" lon="15.166325901516341"><ele>90.0</ele><time>2026-05-01T10:24:24Z</time></trkpt><trkpt lat="44.45849534304482" lon="15.166473985196506"><ele>87.66666666666667</ele><time>2026-05-01T10:24:25Z</time></trkpt><trkpt lat="44.458340472000835" lon="15.166609514472018"><ele>85.33333333333334</ele><time>2026-05-01T10:24:26Z</time></trkpt><trkpt lat="44.45819788059135" lon="15.166750815760754"><ele>83.0</ele><time>2026-05-01T10:24:27Z</time></trkpt><trkpt lat="44.45807412700006" lon="15.166896869841919"><ele>83.0</ele><time>2026-05-01T10:24:28Z</time></trkpt><trkpt lat="44.457975142169005" lon="15.167061001337839"><ele>83.0</ele><time>2026-05-01T10:24:29Z</time></trkpt><trkpt lat="44.45790767901321" lon="15.167241847350903"><ele>83.0</ele><time>2026-05-01T10:24:30Z</time></trkpt><trkpt lat="44.45786409655301" lon="15.167442677671348"><ele>83.0</ele><time>2026-05-01T10:24:31Z</time></trkpt><trkpt lat="44.45783763729011" lon="15.167678591095486"><ele>79.66666666666667</ele><time>2026-05-01T10:24:32Z</time></trkpt><trkpt lat="44.457818537289285" lon="15.167982022740881"><ele>76.33333333333333</ele><time>2026-05-01T10:24:33Z</time></trkpt><trkpt lat="44.457786488298204" lon="15.168287671703226"><ele>73.0</ele><time>2026-05-01T10:24:34Z</time></trkpt><trkpt lat="44.45774778672352" lon="15.168534828660844"><ele>73.25</ele><time>2026-05-01T10:24:35Z</time></trkpt><trkpt lat="44.45771397051306" lon="15.168737863520168"><ele>73.5</ele><time>2026-05-01T10:24:36Z</time></trkpt><trkpt lat="44.457690014510995" lon="15.168926905494212"><ele>73.75</ele><time>2026-05-01T10:24:37Z</time></trkpt><trkpt lat="44.4576759626676" lon="15.1691195511888"><ele>74.0</ele><time>2026-05-01T10:24:38Z</time></trkpt><trkpt lat="44.457673798566056" lon="15.169320145520182"><ele>74.0</ele><time>2026-05-01T10:24:39Z</time></trkpt><trkpt lat="44.457693373864004" lon="15.169530822823338"><ele>74.0</ele><time>2026-05-01T10:24:40Z</time></trkpt><trkpt lat="44.45775406707913" lon="15.169772573713166"><ele>74.0</ele><time>2026-05-01T10:24:41Z</time></trkpt><trkpt lat="44.457847710188446" lon="15.17006893493162"><ele>71.0</ele><time>2026-05-01T10:24:42Z</time></trkpt><trkpt lat="44.457926756696025" lon="15.170347835219745"><ele>68.0</ele><time>2026-05-01T10:24:43Z</time></trkpt><trkpt lat="44.45799677244277" lon="15.170576045096444"><ele>65.0</ele><time>2026-05-01T10:24:44Z</time></trkpt><trkpt lat="44.45805701053142" lon="15.17077531326378"><ele>72.5</ele><time>2026-05-01T10:24:45Z</time></trkpt><trkpt lat="44.458110854874114" lon="15.17097366957873"><ele>80.0</ele><time>2026-05-01T10:24:46Z</time></trkpt><trkpt lat="44.45815398956475" lon="15.171153136167192"><ele>87.5</ele><time>2026-05-01T10:24:47Z</time></trkpt><trkpt lat="44.45818164213598" lon="15.171319299515824"><ele>95.0</ele><time>2026-05-01T10:24:48Z</time></trkpt><trkpt lat="44.4581863637211" lon="15.171486582063324"><ele>91.75</ele><time>2026-05-01T10:24:49Z</time></trkpt><trkpt lat="44.45815778619078" lon="15.171650141276007"><ele>88.5</ele><time>2026-05-01T10:24:50Z</time></trkpt><trkpt lat="44.45810559799681" lon="15.171794614723279"><ele>85.25</ele><time>2026-05-01T10:24:51Z</time></trkpt><trkpt lat="44.45802247901064" lon="15.171925014655107"><ele>82.0</ele><time>2026-05-01T10:24:52Z</time></trkpt><trkpt lat="44.45791771363051" lon="15.17201232185373"><ele>75.25</ele><time>2026-05-01T10:24:53Z</time></trkpt><trkpt lat="44.45780483265073" lon="15.172053199787925"><ele>68.5</ele><time>2026-05-01T10:24:54Z</time></trkpt><trkpt lat="44.457681743293186" lon="15.172058857875196"><ele>61.75</ele><time>2026-05-01T10:24:55Z</time></trkpt><trkpt lat="44.45755471527684" lon="15.172025463370742"><ele>55.0</ele><time>2026-05-01T10:24:56Z</time></trkpt><trkpt lat="44.45741960102958" lon="15.171960628034933"><ele>55.0</ele><time>2026-05-01T10:24:57Z</time></trkpt><trkpt lat="44.457280082218944" lon="15.171872746680798"><ele>55.0</ele><time>2026-05-01T10:24:58Z</time></trkpt><trkpt lat="44.45713299813393" lon="15.171780949150978"><ele>55.0</ele><time>2026-05-01T10:24:59Z</time></trkpt><trkpt lat="44.45698689379231" lon="15.171687235379308"><ele>55.666666666666664</ele><time>2026-05-01T10:25:00Z</time></trkpt><trkpt lat="44.45683755064332" lon="15.17161101921043"><ele>56.33333333333333</ele><time>2026-05-01T10:25:01Z</time></trkpt><trkpt lat="44.456681264061814" lon="15.171581863860641"><ele>57.0</ele><time>2026-05-01T10:25:02Z</time></trkpt><trkpt lat="44.456520880055734" lon="15.17159864755135"><ele>57.0</ele><time>2026-05-01T10:25:03Z</time></trkpt><trkpt lat="44.456355519996514" lon="15.171653106044255"><ele>57.0</ele><time>2026-05-01T10:25:04Z</time></trkpt><trkpt lat="44.45620782631331" lon="15.171745571096046"><ele>57.0</ele><time>2026-05-01T10:25:05Z</time></trkpt><trkpt lat="44.456078883735394" lon="15.171847265264045"><ele>53.25</ele><time>2026-05-01T10:25:06Z</time></trkpt><trkpt lat="44.455954025793865" lon="15.171924717613065"><ele>49.5</ele><time>2026-05-01T10:25:07Z</time></trkpt><trkpt lat="44.45582046482133" lon="15.171983320073519"><ele>45.75</ele><time>2026-05-01T10:25:08Z</time></trkpt><trkpt lat="44.45567035808578" lon="15.172017277489786"><ele>42.0</ele><time>2026-05-01T10:25:09Z</time></trkpt><trkpt lat="44.455514829367694" lon="15.17200597505263"><ele>40.0</ele><time>2026-05-01T10:25:10Z</time></trkpt><trkpt lat="44.455361726900094" lon="15.17195945847591"><ele>38.0</ele><time>2026-05-01T10:25:11Z</time></trkpt><trkpt lat="44.45521348801115" lon="15.17191142043233"><ele>36.0</ele><time>2026-05-01T10:25:12Z</time></trkpt><trkpt lat="44.455065765696894" lon="15.171874281623232"><ele>36.0</ele><time>2026-05-01T10:25:13Z</time></trkpt><trkpt lat="44.45491052745902" lon="15.171869117141206"><ele>36.0</ele><time>2026-05-01T10:25:14Z</time></trkpt><trkpt lat="44.45472996452364" lon="15.171922442493843"><ele>36.0</ele><time>2026-05-01T10:25:15Z</time></trkpt><trkpt lat="44.4545094462834" lon="15.17201958863882"><ele>32.5</ele><time>2026-05-01T10:25:16Z</time></trkpt><trkpt lat="44.45426370937211" lon="15.17208492414591"><ele>29.0</ele><time>2026-05-01T10:25:17Z</time></trkpt><trkpt lat="44.45401866411184" lon="15.172129224007582"><ele>29.0</ele><time>2026-05-01T10:25:18Z</time></trkpt><trkpt lat="44.45381317418145" lon="15.172193819161832"><ele>29.0</ele><time>2026-05-01T10:25:19Z</time></trkpt><trkpt lat="44.45362065575571" lon="15.172283917133367"><ele>29.0</ele><time>2026-05-01T10:25:20Z</time></trkpt><trkpt lat="44.45343341781894" lon="15.172428436885786"><ele>35.5</ele><time>2026-05-01T10:25:21Z</time></trkpt><trkpt lat="44.45324692826896" lon="15.172629205388054"><ele>42.0</ele><time>2026-05-01T10:25:22Z</time></trkpt><trkpt lat="44.45308674520758" lon="15.172858582998375"><ele>42.0</ele><time>2026-05-01T10:25:23Z</time></trkpt><trkpt lat="44.45295602883463" lon="15.173080212950381"><ele>42.0</ele><time>2026-05-01T10:25:24Z</time></trkpt><trkpt lat="44.45285111242674" lon="15.173296706342331"><ele>42.0</ele><time>2026-05-01T10:25:25Z</time></trkpt><trkpt lat="44.45278884338518" lon="15.173526039893382"><ele>35.666666666666664</ele><time>2026-05-01T10:25:26Z</time></trkpt><trkpt lat="44.452772353482764" lon="15.173775379765555"><ele>29.333333333333336</ele><time>2026-05-01T10:25:27Z</time></trkpt><trkpt lat="44.452796623760946" lon="15.17406065200312"><ele>23.0</ele><time>2026-05-01T10:25:28Z</time></trkpt><trkpt lat="44.452858771760916" lon="15.17436593153244"><ele>22.333333333333336</ele><time>2026-05-01T10:25:29Z</time></trkpt><trkpt lat="44.45292194890133" lon="15.17464467456927"><ele>21.666666666666668</ele><time>2026-05-01T10:25:30Z</time></trkpt><trkpt lat="44.45294121326343" lon="15.174894017595893"><ele>21.0</ele><time>2026-05-01T10:25:31Z</time></trkpt><trkpt lat="44.45290082611328" lon="15.175123005619872"><ele>23.666666666666664</ele><time>2026-05-01T10:25:32Z</time></trkpt><trkpt lat="44.4528042167968" lon="15.175315944595777"><ele>26.333333333333332</ele><time>2026-05-01T10:25:33Z</time></trkpt><trkpt lat="44.45265767546778" lon="15.17544865833748"><ele>29.0</ele><time>2026-05-01T10:25:34Z</time></trkpt><trkpt lat="44.45246895035678" lon="15.175502645130198"><ele>29.0</ele><time>2026-05-01T10:25:35Z</time></trkpt><trkpt lat="44.45224767077949" lon="15.17547424479075"><ele>29.0</ele><time>2026-05-01T10:25:36Z</time></trkpt><trkpt lat="44.45201151322318" lon="15.175365157766507"><ele>28.5</ele><time>2026-05-01T10:25:37Z</time></trkpt><trkpt lat="44.45177705487008" lon="15.175231401212535"><ele>28.0</ele><time>2026-05-01T10:25:38Z</time></trkpt><trkpt lat="44.45154971968324" lon="15.175134875079094"><ele>28.0</ele><time>2026-05-01T10:25:39Z</time></trkpt><trkpt lat="44.45131084001368" lon="15.175092154664387"><ele>28.0</ele><time>2026-05-01T10:25:40Z</time></trkpt><trkpt lat="44.451067647049385" lon="15.175106812001205"><ele>29.5</ele><time>2026-05-01T10:25:41Z</time></trkpt><trkpt lat="44.45083310236106" lon="15.175181144773342"><ele>31.0</ele><time>2026-05-01T10:25:42Z</time></trkpt><trkpt lat="44.450604012753715" lon="15.175304482115445"><ele>32.5</ele><time>2026-05-01T10:25:43Z</time></trkpt><trkpt lat="44.450389306630655" lon="15.175479708114429"><ele>34.0</ele><time>2026-05-01T10:25:44Z</time></trkpt><trkpt lat="44.45019327648592" lon="15.175696870366494"><ele>34.0</ele><time>2026-05-01T10:25:45Z</time></trkpt><trkpt lat="44.45002707010078" lon="15.17590457565641"><ele>34.0</ele><time>2026-05-01T10:25:46Z</time></trkpt><trkpt lat="44.4498835105096" lon="15.176094992012318"><ele>34.0</ele><time>2026-05-01T10:25:47Z</time></trkpt><trkpt lat="44.44975644648273" lon="15.176284882576871"><ele>34.0</ele><time>2026-05-01T10:25:48Z</time></trkpt><trkpt lat="44.44967391469301" lon="15.176505885392814"><ele>34.0</ele><time>2026-05-01T10:25:49Z</time></trkpt><trkpt lat="44.44963807887947" lon="15.176753566592684"><ele>34.0</ele><time>2026-05-01T10:25:50Z</time></trkpt><trkpt lat="44.44966341632208" lon="15.177016145944135"><ele>37.333333333333336</ele><time>2026-05-01T10:25:51Z</time></trkpt><trkpt lat="44.44973219455122" lon="15.177273307612442"><ele>40.666666666666664</ele><time>2026-05-01T10:25:52Z</time></trkpt><trkpt lat="44.44987204494018" lon="15.177544709842538"><ele>44.0</ele><time>2026-05-01T10:25:53Z</time></trkpt><trkpt lat="44.4500430240892" lon="15.177832605510895"><ele>44.0</ele><time>2026-05-01T10:25:54Z</time></trkpt><trkpt lat="44.450218674354836" lon="15.178144661507691"><ele>44.0</ele><time>2026-05-01T10:25:55Z</time></trkpt><trkpt lat="44.45041349059492" lon="15.178445138052812"><ele>50.5</ele><time>2026-05-01T10:25:56Z</time></trkpt><trkpt lat="44.45065879614132" lon="15.178724308679968"><ele>57.0</ele><time>2026-05-01T10:25:57Z</time></trkpt><trkpt lat="44.450913645491624" lon="15.17899351656843"><ele>65.0</ele><time>2026-05-01T10:25:58Z</time></trkpt><trkpt lat="44.45115586664064" lon="15.17931917648137"><ele>73.0</ele><time>2026-05-01T10:25:59Z</time></trkpt><trkpt lat="44.45135955665753" lon="15.179692427250055"><ele>66.5</ele><time>2026-05-01T10:26:00Z</time></trkpt><trkpt lat="44.45152623943577" lon="15.180030467322192"><ele>60.0</ele><time>2026-05-01T10:26:01Z</time></trkpt><trkpt lat="44.45166330410809" lon="15.18030406219433"><ele>60.0</ele><time>2026-05-01T10:26:02Z</time></trkpt><trkpt lat="44.451780557350325" lon="15.180525298724737"><ele>60.0</ele><time>2026-05-01T10:26:03Z</time></trkpt><trkpt lat="44.451870244158954" lon="15.180733484536379"><ele>60.0</ele><time>2026-05-01T10:26:04Z</time></trkpt><trkpt lat="44.45189657328389" lon="15.180935847932533"><ele>53.666666666666664</ele><time>2026-05-01T10:26:05Z</time></trkpt><trkpt lat="44.45185710912976" lon="15.181136679816351"><ele>47.33333333333333</ele><time>2026-05-01T10:26:06Z</time></trkpt><trkpt lat="44.45176000150077" lon="15.181303259965881"><ele>41.0</ele><time>2026-05-01T10:26:07Z</time></trkpt><trkpt lat="44.4516200035339" lon="15.181406789441082"><ele>41.0</ele><time>2026-05-01T10:26:08Z</time></trkpt><trkpt lat="44.451433148843165" lon="15.181440690194126"><ele>41.0</ele><time>2026-05-01T10:26:09Z</time></trkpt><trkpt lat="44.451211492649556" lon="15.181401769023068"><ele>41.0</ele><time>2026-05-01T10:26:10Z</time></trkpt><trkpt lat="44.450976085733025" lon="15.181322519915021"><ele>35.0</ele><time>2026-05-01T10:26:11Z</time></trkpt><trkpt lat="44.45073287574724" lon="15.181247304830116"><ele>29.0</ele><time>2026-05-01T10:26:12Z</time></trkpt><trkpt lat="44.45047742904958" lon="15.181179692467792"><ele>32.5</ele><time>2026-05-01T10:26:13Z</time></trkpt><trkpt lat="44.45023403560161" lon="15.181090108887108"><ele>36.0</ele><time>2026-05-01T10:26:14Z</time></trkpt><trkpt lat="44.450022797860335" lon="15.180972865769734"><ele>36.0</ele><time>2026-05-01T10:26:15Z</time></trkpt><trkpt lat="44.449830908032034" lon="15.180866094540288"><ele>36.0</ele><time>2026-05-01T10:26:16Z</time></trkpt><trkpt lat="44.4496456693515" lon="15.180804009683232"><ele>36.0</ele><time>2026-05-01T10:26:17Z</time></trkpt><trkpt lat="44.44946085278993" lon="15.180809688058044"><ele>34.333333333333336</ele><time>2026-05-01T10:26:18Z</time></trkpt><trkpt lat="44.449280322207315" lon="15.18088569802408"><ele>32.66666666666667</ele><time>2026-05-01T10:26:19Z</time></trkpt><trkpt lat="44.4491190657562" lon="15.181029665087063"><ele>31.0</ele><time>2026-05-01T10:26:20Z</time></trkpt><trkpt lat="44.44896835381725" lon="15.181233834805406"><ele>31.0</ele><time>2026-05-01T10:26:21Z</time></trkpt><trkpt lat="44.44880455938253" lon="15.18145414647823"><ele>31.0</ele><time>2026-05-01T10:26:22Z</time></trkpt><trkpt lat="44.44863066973205" lon="15.181643658982797"><ele>31.0</ele><time>2026-05-01T10:26:23Z</time></trkpt><trkpt lat="44.44845892794702" lon="15.181798846028824"><ele>30.666666666666668</ele><time>2026-05-01T10:26:24Z</time></trkpt><trkpt lat="44.448281857307315" lon="15.181936335219458"><ele>30.333333333333336</ele><time>2026-05-01T10:26:25Z</time></trkpt><trkpt lat="44.448108909354914" lon="15.182064869261872"><ele>30.0</ele><time>2026-05-01T10:26:26Z</time></trkpt><trkpt lat="44.447954985919736" lon="15.182203048629193"><ele>29.0</ele><time>2026-05-01T10:26:27Z</time></trkpt><trkpt lat="44.44781606204819" lon="15.182342576712655"><ele>28.0</ele><time>2026-05-01T10:26:28Z</time></trkpt><trkpt lat="44.447688829698215" lon="15.182476193790128"><ele>27.0</ele><time>2026-05-01T10:26:29Z</time></trkpt><trkpt lat="44.44756823576579" lon="15.182604279246682"><ele>27.0</ele><time>2026-05-01T10:26:30Z</time></trkpt><trkpt lat="44.4474489700394" lon="15.182743593083716"><ele>27.0</ele><time>2026-05-01T10:26:31Z</time></trkpt><trkpt lat="44.44732565156776" lon="15.182869556929923"><ele>27.0</ele><time>2026-05-01T10:26:32Z</time></trkpt><trkpt lat="44.4472188944838" lon="15.182979658115466"><ele>27.0</ele><time>2026-05-01T10:26:33Z</time></trkpt><trkpt lat="44.44712913560703" lon="15.183108411290718"><ele>24.25</ele><time>2026-05-01T10:26:34Z</time></trkpt><trkpt lat="44.44707577308617" lon="15.18326923918596"><ele>21.5</ele><time>2026-05-01T10:26:35Z</time></trkpt><trkpt lat="44.44707865576861" lon="15.183431751419159"><ele>18.75</ele><time>2026-05-01T10:26:36Z</time></trkpt><trkpt lat="44.447134705909036" lon="15.183565213694559"><ele>16.0</ele><time>2026-05-01T10:26:37Z</time></trkpt><trkpt lat="44.447223754242536" lon="15.183652283098931"><ele>20.8</ele><time>2026-05-01T10:26:38Z</time></trkpt><trkpt lat="44.44732940629332" lon="15.183694269700142"><ele>25.6</ele><time>2026-05-01T10:26:39Z</time></trkpt><trkpt lat="44.44743987380624" lon="15.183709461040326"><ele>30.4</ele><time>2026-05-01T10:26:40Z</time></trkpt><trkpt lat="44.4475399523284" lon="15.183703152391312"><ele>35.2</ele><time>2026-05-01T10:26:41Z</time></trkpt><trkpt lat="44.44764267138704" lon="15.183696500297332"><ele>40.0</ele><time>2026-05-01T10:26:42Z</time></trkpt><trkpt lat="44.44774799057083" lon="15.183703496198396"><ele>40.0</ele><time>2026-05-01T10:26:43Z</time></trkpt><trkpt lat="44.44784757939387" lon="15.183738499940084"><ele>40.0</ele><time>2026-05-01T10:26:44Z</time></trkpt><trkpt lat="44.44793344742809" lon="15.183796584595337"><ele>40.0</ele><time>2026-05-01T10:26:45Z</time></trkpt><trkpt lat="44.448027881772255" lon="15.183892681318703"><ele>40.0</ele><time>2026-05-01T10:26:46Z</time></trkpt><trkpt lat="44.44811507624266" lon="15.184008101552996"><ele>40.0</ele><time>2026-05-01T10:26:47Z</time></trkpt><trkpt lat="44.4481854600994" lon="15.18413304851957"><ele>42.25</ele><time>2026-05-01T10:26:48Z</time></trkpt><trkpt lat="44.44821688048996" lon="15.184276648371329"><ele>44.5</ele><time>2026-05-01T10:26:49Z</time></trkpt><trkpt lat="44.448203524291436" lon="15.184427461184477"><ele>46.75</ele><time>2026-05-01T10:26:50Z</time></trkpt><trkpt lat="44.448139981311115" lon="15.184570890106784"><ele>49.0</ele><time>2026-05-01T10:26:51Z</time></trkpt><trkpt lat="44.4480357204532" lon="15.184698791699853"><ele>42.33333333333333</ele><time>2026-05-01T10:26:52Z</time></trkpt><trkpt lat="44.4478960102768" lon="15.18481806252673"><ele>35.666666666666664</ele><time>2026-05-01T10:26:53Z</time></trkpt><trkpt lat="44.44774916077348" lon="15.184952673317165"><ele>29.0</ele><time>2026-05-01T10:26:54Z</time></trkpt><trkpt lat="44.447588400197546" lon="15.18510462795715"><ele>29.0</ele><time>2026-05-01T10:26:55Z</time></trkpt><trkpt lat="44.447422033628754" lon="15.185271721671985"><ele>29.0</ele><time>2026-05-01T10:26:56Z</time></trkpt><trkpt lat="44.4472457760339" lon="15.185446476295482"><ele>29.0</ele><time>2026-05-01T10:26:57Z</time></trkpt><trkpt lat="44.44707187251128" lon="15.185628290755746"><ele>27.666666666666664</ele><time>2026-05-01T10:26:58Z</time></trkpt><trkpt lat="44.44689786923101" lon="15.185809747245566"><ele>26.333333333333336</ele><time>2026-05-01T10:26:59Z</time></trkpt><trkpt lat="44.4467219773102" lon="15.186000703025002"><ele>25.0</ele><time>2026-05-01T10:27:00Z</time></trkpt><trkpt lat="44.446553418756125" lon="15.186201394507892"><ele>25.0</ele><time>2026-05-01T10:27:01Z</time></trkpt><trkpt lat="44.44639652268875" lon="15.18640094724919"><ele>25.0</ele><time>2026-05-01T10:27:02Z</time></trkpt><trkpt lat="44.44624338613928" lon="15.186578606852434"><ele>25.0</ele><time>2026-05-01T10:27:03Z</time></trkpt><trkpt lat="44.446078605983246" lon="15.186706234514007"><ele>28.333333333333336</ele><time>2026-05-01T10:27:04Z</time></trkpt><trkpt lat="44.44589368009589" lon="15.18678365340786"><ele>31.666666666666664</ele><time>2026-05-01T10:27:05Z</time></trkpt><trkpt lat="44.44568806821156" lon="15.186818578950453"><ele>35.0</ele><time>2026-05-01T10:27:06Z</time></trkpt><trkpt lat="44.44547615974994" lon="15.186824997659713"><ele>31.666666666666664</ele><time>2026-05-01T10:27:07Z</time></trkpt><trkpt lat="44.44528100069234" lon="15.18684670027056"><ele>28.333333333333336</ele><time>2026-05-01T10:27:08Z</time></trkpt><trkpt lat="44.4451035423794" lon="15.186910899941804"><ele>25.0</ele><time>2026-05-01T10:27:09Z</time></trkpt><trkpt lat="44.44494939052698" lon="15.18702646910344"><ele>25.0</ele><time>2026-05-01T10:27:10Z</time></trkpt><trkpt lat="44.44481549245652" lon="15.18720005539748"><ele>25.0</ele><time>2026-05-01T10:27:11Z</time></trkpt><trkpt lat="44.444711389364215" lon="15.187420015857809"><ele>25.0</ele><time>2026-05-01T10:27:12Z</time></trkpt><trkpt lat="44.44463170361972" lon="15.187674095093513"><ele>25.666666666666668</ele><time>2026-05-01T10:27:13Z</time></trkpt><trkpt lat="44.44456272591554" lon="15.18794025266211"><ele>26.333333333333336</ele><time>2026-05-01T10:27:14Z</time></trkpt><trkpt lat="44.44448550636978" lon="15.188209992493737"><ele>27.0</ele><time>2026-05-01T10:27:15Z</time></trkpt><trkpt lat="44.44439799738363" lon="15.188480619086414"><ele>31.0</ele><time>2026-05-01T10:27:16Z</time></trkpt><trkpt lat="44.444298324731776" lon="15.18875464101506"><ele>35.0</ele><time>2026-05-01T10:27:17Z</time></trkpt><trkpt lat="44.44418397259283" lon="15.189029962803737"><ele>39.0</ele><time>2026-05-01T10:27:18Z</time></trkpt><trkpt lat="44.44405204256535" lon="15.189300655353906"><ele>43.0</ele><time>2026-05-01T10:27:19Z</time></trkpt><trkpt lat="44.44389908669631" lon="15.189554945946428"><ele>47.0</ele><time>2026-05-01T10:27:20Z</time></trkpt><trkpt lat="44.44372590791234" lon="15.18977962247636"><ele>45.0</ele><time>2026-05-01T10:27:21Z</time></trkpt><trkpt lat="44.44353625964495" lon="15.189979029666826"><ele>43.0</ele><time>2026-05-01T10:27:22Z</time></trkpt><trkpt lat="44.443339403981085" lon="15.19016129881929"><ele>43.0</ele><time>2026-05-01T10:27:23Z</time></trkpt><trkpt lat="44.443134471912096" lon="15.190320011052986"><ele>43.0</ele><time>2026-05-01T10:27:24Z</time></trkpt><trkpt lat="44.44292915992429" lon="15.190446545298418"><ele>33.5</ele><time>2026-05-01T10:27:25Z</time></trkpt><trkpt lat="44.442711594061784" lon="15.19054117949852"><ele>24.0</ele><time>2026-05-01T10:27:26Z</time></trkpt><trkpt lat="44.44248283690283" lon="15.190616998462767"><ele>24.0</ele><time>2026-05-01T10:27:27Z</time></trkpt><trkpt lat="44.44224482975424" lon="15.19067156055496"><ele>24.0</ele><time>2026-05-01T10:27:28Z</time></trkpt><trkpt lat="44.4419783261932" lon="15.19072130323182"><ele>31.0</ele><time>2026-05-01T10:27:29Z</time></trkpt><trkpt lat="44.44165939720421" lon="15.190772134929672"><ele>38.0</ele><time>2026-05-01T10:27:30Z</time></trkpt><trkpt lat="44.441322808131005" lon="15.190800000777065"><ele>39.0</ele><time>2026-05-01T10:27:31Z</time></trkpt><trkpt lat="44.441014584859225" lon="15.190836114877126"><ele>40.0</ele><time>2026-05-01T10:27:32Z</time></trkpt><trkpt lat="44.440729329481094" lon="15.190904650748074"><ele>40.0</ele><time>2026-05-01T10:27:33Z</time></trkpt><trkpt lat="44.44048425323083" lon="15.191010549577028"><ele>40.0</ele><time>2026-05-01T10:27:34Z</time></trkpt><trkpt lat="44.44025742259292" lon="15.191142686403616"><ele>41.0</ele><time>2026-05-01T10:27:35Z</time></trkpt><trkpt lat="44.44004702002428" lon="15.191287064143514"><ele>42.0</ele><time>2026-05-01T10:27:36Z</time></trkpt><trkpt lat="44.43985834083601" lon="15.19142139575281"><ele>43.0</ele><time>2026-05-01T10:27:37Z</time></trkpt><trkpt lat="44.439674820174815" lon="15.191549361573212"><ele>44.0</ele><time>2026-05-01T10:27:38Z</time></trkpt><trkpt lat="44.439484868163724" lon="15.191673243582963"><ele>45.0</ele><time>2026-05-01T10:27:39Z</time></trkpt><trkpt lat="44.439286570380794" lon="15.191793267633372"><ele>46.0</ele><time>2026-05-01T10:27:40Z</time></trkpt><trkpt lat="44.43909230765247" lon="15.191915439742433"><ele>46.0</ele><time>2026-05-01T10:27:41Z</time></trkpt><trkpt lat="44.438904071447304" lon="15.192034461526344"><ele>46.0</ele><time>2026-05-01T10:27:42Z</time></trkpt><trkpt lat="44.4387257280743" lon="15.192148166976107"><ele>46.0</ele><time>2026-05-01T10:27:43Z</time></trkpt><trkpt lat="44.43855330584663" lon="15.192257138671115"><ele>44.66666666666667</ele><time>2026-05-01T10:27:44Z</time></trkpt><trkpt lat="44.43838801316844" lon="15.192360664214002"><ele>43.333333333333336</ele><time>2026-05-01T10:27:45Z</time></trkpt><trkpt lat="44.43823657904545" lon="15.192461368162611"><ele>42.0</ele><time>2026-05-01T10:27:46Z</time></trkpt><trkpt lat="44.43808931121205" lon="15.192560844049888"><ele>37.666666666666664</ele><time>2026-05-01T10:27:47Z</time></trkpt><trkpt lat="44.43794224984055" lon="15.192657581288817"><ele>33.33333333333333</ele><time>2026-05-01T10:27:48Z</time></trkpt><trkpt lat="44.43780069776894" lon="15.192773000525765"><ele>29.0</ele><time>2026-05-01T10:27:49Z</time></trkpt><trkpt lat="44.43767044736763" lon="15.192921331393643"><ele>29.0</ele><time>2026-05-01T10:27:50Z</time></trkpt><trkpt lat="44.43755857039583" lon="15.19311267508029"><ele>29.0</ele><time>2026-05-01T10:27:51Z</time></trkpt><trkpt lat="44.43746964296323" lon="15.19332475653509"><ele>29.0</ele><time>2026-05-01T10:27:52Z</time></trkpt><trkpt lat="44.437392892741855" lon="15.193536561027432"><ele>29.333333333333332</ele><time>2026-05-01T10:27:53Z</time></trkpt><trkpt lat="44.437315298893516" lon="15.1937409037622"><ele>29.666666666666664</ele><time>2026-05-01T10:27:54Z</time></trkpt><trkpt lat="44.437221154372125" lon="15.193938184189841"><ele>30.0</ele><time>2026-05-01T10:27:55Z</time></trkpt><trkpt lat="44.43709571250062" lon="15.194105277047747"><ele>30.0</ele><time>2026-05-01T10:27:56Z</time></trkpt><trkpt lat="44.43694039615467" lon="15.194213252766932"><ele>30.0</ele><time>2026-05-01T10:27:57Z</time></trkpt><trkpt lat="44.436770699277034" lon="15.194246044628388"><ele>30.0</ele><time>2026-05-01T10:27:58Z</time></trkpt><trkpt lat="44.43660406505332" lon="15.194252985828333"><ele>30.0</ele><time>2026-05-01T10:27:59Z</time></trkpt><trkpt lat="44.4364501471191" lon="15.194286237280757"><ele>30.0</ele><time>2026-05-01T10:28:00Z</time></trkpt><trkpt lat="44.43629765023205" lon="15.194373360914376"><ele>30.0</ele><time>2026-05-01T10:28:01Z</time></trkpt><trkpt lat="44.436153612997245" lon="15.194515151975931"><ele>29.333333333333336</ele><time>2026-05-01T10:28:02Z</time></trkpt><trkpt lat="44.43602671656631" lon="15.194707208056785"><ele>28.666666666666668</ele><time>2026-05-01T10:28:03Z</time></trkpt><trkpt lat="44.43591737968957" lon="15.194904672258623"><ele>28.0</ele><time>2026-05-01T10:28:04Z</time></trkpt><trkpt lat="44.435800566015274" lon="15.195075255590819"><ele>28.0</ele><time>2026-05-01T10:28:05Z</time></trkpt><trkpt lat="44.435667278790824" lon="15.195201380043518"><ele>28.0</ele><time>2026-05-01T10:28:06Z</time></trkpt><trkpt lat="44.43551599067436" lon="15.195286657510263"><ele>28.0</ele><time>2026-05-01T10:28:07Z</time></trkpt><trkpt lat="44.435352273110915" lon="15.195351538442107"><ele>22.666666666666668</ele><time>2026-05-01T10:28:08Z</time></trkpt><trkpt lat="44.43519328312456" lon="15.19542683912132"><ele>17.333333333333336</ele><time>2026-05-01T10:28:09Z</time></trkpt><trkpt lat="44.43504348413575" lon="15.195510612154187"><ele>12.0</ele><time>2026-05-01T10:28:10Z</time></trkpt><trkpt lat="44.43489078406805" lon="15.195608111090992"><ele>10.333333333333334</ele><time>2026-05-01T10:28:11Z</time></trkpt><trkpt lat="44.43473792489985" lon="15.195734099348707"><ele>8.666666666666668</ele><time>2026-05-01T10:28:12Z</time></trkpt><trkpt lat="44.43461123470119" lon="15.195916790099147"><ele>7.0</ele><time>2026-05-01T10:28:13Z</time></trkpt><trkpt lat="44.434511422079645" lon="15.196144181431583"><ele>7.0</ele><time>2026-05-01T10:28:14Z</time></trkpt><trkpt lat="44.434440466507624" lon="15.196402499919685"><ele>7.0</ele><time>2026-05-01T10:28:15Z</time></trkpt><trkpt lat="44.43441024936975" lon="15.196673043452568"><ele>7.0</ele><time>2026-05-01T10:28:16Z</time></trkpt><trkpt lat="44.434393981798785" lon="15.196925081402194"><ele>8.666666666666668</ele><time>2026-05-01T10:28:17Z</time></trkpt><trkpt lat="44.434371482088174" lon="15.197172428405652"><ele>10.333333333333334</ele><time>2026-05-01T10:28:18Z</time></trkpt><trkpt lat="44.434317888853876" lon="15.197399964789643"><ele>12.0</ele><time>2026-05-01T10:28:19Z</time></trkpt><trkpt lat="44.43421637225797" lon="15.197612478418574"><ele>12.666666666666668</ele><time>2026-05-01T10:28:20Z</time></trkpt><trkpt lat="44.434080336929426" lon="15.197782433709245"><ele>13.333333333333334</ele><time>2026-05-01T10:28:21Z</time></trkpt><trkpt lat="44.433920755711064" lon="15.197921365104238"><ele>14.0</ele><time>2026-05-01T10:28:22Z</time></trkpt><trkpt lat="44.43375350966611" lon="15.198045711142054"><ele>12.666666666666668</ele><time>2026-05-01T10:28:23Z</time></trkpt><trkpt lat="44.43359456286014" lon="15.19816401598745"><ele>11.333333333333334</ele><time>2026-05-01T10:28:24Z</time></trkpt><trkpt lat="44.433446919821854" lon="15.198290882943331"><ele>10.0</ele><time>2026-05-01T10:28:25Z</time></trkpt><trkpt lat="44.433313475587816" lon="15.198414248877421"><ele>10.0</ele><time>2026-05-01T10:28:26Z</time></trkpt><trkpt lat="44.43319079851376" lon="15.198543041603362"><ele>10.0</ele><time>2026-05-01T10:28:27Z</time></trkpt><trkpt lat="44.43309099663018" lon="15.19870155466499"><ele>10.0</ele><time>2026-05-01T10:28:28Z</time></trkpt><trkpt lat="44.433022158265324" lon="15.198895840033284"><ele>12.0</ele><time>2026-05-01T10:28:29Z</time></trkpt><trkpt lat="44.43298377197297" lon="15.199121335298434"><ele>14.0</ele><time>2026-05-01T10:28:30Z</time></trkpt><trkpt lat="44.43297400185678" lon="15.199358386813241"><ele>16.0</ele><time>2026-05-01T10:28:31Z</time></trkpt><trkpt lat="44.43298572542675" lon="15.199605664351376"><ele>16.333333333333332</ele><time>2026-05-01T10:28:32Z</time></trkpt><trkpt lat="44.43300607076077" lon="15.199871285675266"><ele>16.666666666666668</ele><time>2026-05-01T10:28:33Z</time></trkpt><trkpt lat="44.43302538609108" lon="15.200149367417257"><ele>17.0</ele><time>2026-05-01T10:28:34Z</time></trkpt><trkpt lat="44.43303890691178" lon="15.200428968063427"><ele>18.0</ele><time>2026-05-01T10:28:35Z</time></trkpt><trkpt lat="44.43304762516735" lon="15.200702354117134"><ele>19.0</ele><time>2026-05-01T10:28:36Z</time></trkpt><trkpt lat="44.43304551681223" lon="15.200969062150238"><ele>20.0</ele><time>2026-05-01T10:28:37Z</time></trkpt><trkpt lat="44.433014834206055" lon="15.201234488362301"><ele>15.333333333333334</ele><time>2026-05-01T10:28:38Z</time></trkpt><trkpt lat="44.43295723469605" lon="15.20148371965756"><ele>10.666666666666668</ele><time>2026-05-01T10:28:39Z</time></trkpt><trkpt lat="44.43287044375138" lon="15.201713098242081"><ele>6.0</ele><time>2026-05-01T10:28:40Z</time></trkpt><trkpt lat="44.432763364274805" lon="15.201925768013684"><ele>5.666666666666667</ele><time>2026-05-01T10:28:41Z</time></trkpt><trkpt lat="44.43264833873267" lon="15.202110978579697"><ele>5.333333333333334</ele><time>2026-05-01T10:28:42Z</time></trkpt><trkpt lat="44.43252139365316" lon="15.202283424954153"><ele>5.0</ele><time>2026-05-01T10:28:43Z</time></trkpt><trkpt lat="44.43239106310801" lon="15.202448887598896"><ele>3.666666666666667</ele><time>2026-05-01T10:28:44Z</time></trkpt><trkpt lat="44.432265516141925" lon="15.202621080413822"><ele>2.3333333333333335</ele><time>2026-05-01T10:28:45Z</time></trkpt><trkpt lat="44.4321442925372" lon="15.202801239321966"><ele>1.0</ele><time>2026-05-01T10:28:46Z</time></trkpt><trkpt lat="44.43203629054007" lon="15.202991716710594"><ele>1.6666666666666665</ele><time>2026-05-01T10:28:47Z</time></trkpt><trkpt lat="44.43195324199538" lon="15.20321137352707"><ele>2.3333333333333335</ele><time>2026-05-01T10:28:48Z</time></trkpt><trkpt lat="44.431914317850605" lon="15.203456813347556"><ele>3.0</ele><time>2026-05-01T10:28:49Z</time></trkpt><trkpt lat="44.43191713631247" lon="15.203698639690206"><ele>3.0</ele><time>2026-05-01T10:28:50Z</time></trkpt><trkpt lat="44.43196226207707" lon="15.203923363966945"><ele>3.0</ele><time>2026-05-01T10:28:51Z</time></trkpt><trkpt lat="44.432024105496474" lon="15.204112492076693"><ele>3.0</ele><time>2026-05-01T10:28:52Z</time></trkpt><trkpt lat="44.43207953100088" lon="15.204300948203231"><ele>3.25</ele><time>2026-05-01T10:28:53Z</time></trkpt><trkpt lat="44.43212570560996" lon="15.204477891548342"><ele>3.5</ele><time>2026-05-01T10:28:54Z</time></trkpt><trkpt lat="44.43214368064322" lon="15.204661509818315"><ele>3.75</ele><time>2026-05-01T10:28:55Z</time></trkpt><trkpt lat="44.432125401176485" lon="15.204834222193181"><ele>4.0</ele><time>2026-05-01T10:28:56Z</time></trkpt><trkpt lat="44.43205093370661" lon="15.204975837774592"><ele>5.25</ele><time>2026-05-01T10:28:57Z</time></trkpt><trkpt lat="44.431942321285064" lon="15.205076740271272"><ele>6.5</ele><time>2026-05-01T10:28:58Z</time></trkpt><trkpt lat="44.43181149692165" lon="15.2051211016949"><ele>7.75</ele><time>2026-05-01T10:28:59Z</time></trkpt><trkpt lat="44.4316630087001" lon="15.205119926903992"><ele>9.0</ele><time>2026-05-01T10:29:00Z</time></trkpt><trkpt lat="44.43150766487202" lon="15.205078376109206"><ele>9.0</ele><time>2026-05-01T10:29:01Z</time></trkpt><trkpt lat="44.43135450636166" lon="15.205042456222689"><ele>9.0</ele><time>2026-05-01T10:29:02Z</time></trkpt><trkpt lat="44.431191779939475" lon="15.20503432740566"><ele>9.0</ele><time>2026-05-01T10:29:03Z</time></trkpt><trkpt lat="44.431032257058355" lon="15.205063493457194"><ele>6.666666666666667</ele><time>2026-05-01T10:29:04Z</time></trkpt><trkpt lat="44.43087028550104" lon="15.205140741956026"><ele>4.333333333333333</ele><time>2026-05-01T10:29:05Z</time></trkpt><trkpt lat="44.43072733294901" lon="15.205269443008838"><ele>2.0</ele><time>2026-05-01T10:29:06Z</time></trkpt><trkpt lat="44.43061186011419" lon="15.205442912542537"><ele>2.0</ele><time>2026-05-01T10:29:07Z</time></trkpt><trkpt lat="44.43052776846957" lon="15.205652092619232"><ele>2.0</ele><time>2026-05-01T10:29:08Z</time></trkpt><trkpt lat="44.43046387510137" lon="15.205873112852517"><ele>2.0</ele><time>2026-05-01T10:29:09Z</time></trkpt><trkpt lat="44.43040477521192" lon="15.20609702305463"><ele>1.6666666666666665</ele><time>2026-05-01T10:29:10Z</time></trkpt><trkpt lat="44.430345853922624" lon="15.206317741881747"><ele>1.3333333333333333</ele><time>2026-05-01T10:29:11Z</time></trkpt><trkpt lat="44.430280435365" lon="15.206530037119395"><ele>1.0</ele><time>2026-05-01T10:29:12Z</time></trkpt><trkpt lat="44.43020261384374" lon="15.206729723905896"><ele>2.0</ele><time>2026-05-01T10:29:13Z</time></trkpt><trkpt lat="44.43010148802489" lon="15.206924359708745"><ele>3.0</ele><time>2026-05-01T10:29:14Z</time></trkpt><trkpt lat="44.42998546198501" lon="15.207108592972725"><ele>4.0</ele><time>2026-05-01T10:29:15Z</time></trkpt><trkpt lat="44.42987430654887" lon="15.207296185511003"><ele>7.666666666666666</ele><time>2026-05-01T10:29:16Z</time></trkpt><trkpt lat="44.42976730873441" lon="15.207495440306689"><ele>11.333333333333334</ele><time>2026-05-01T10:29:17Z</time></trkpt><trkpt lat="44.42969361271374" lon="15.207710404498274"><ele>15.0</ele><time>2026-05-01T10:29:18Z</time></trkpt><trkpt lat="44.42964346461675" lon="15.207937609810156"><ele>11.0</ele><time>2026-05-01T10:29:19Z</time></trkpt><trkpt lat="44.429605631857186" lon="15.208176385426063"><ele>7.0</ele><time>2026-05-01T10:29:20Z</time></trkpt><trkpt lat="44.42957058616153" lon="15.208406657682193"><ele>3.0</ele><time>2026-05-01T10:29:21Z</time></trkpt><trkpt lat="44.429513052387364" lon="15.208625809659875"><ele>3.0</ele><time>2026-05-01T10:29:22Z</time></trkpt><trkpt lat="44.429425385147006" lon="15.208824663549949"><ele>3.0</ele><time>2026-05-01T10:29:23Z</time></trkpt><trkpt lat="44.429301215538274" lon="15.208986027118748"><ele>3.0</ele><time>2026-05-01T10:29:24Z</time></trkpt><trkpt lat="44.42915349573551" lon="15.209116386400574"><ele>2.0</ele><time>2026-05-01T10:29:25Z</time></trkpt><trkpt lat="44.429001711791656" lon="15.209244409151772"><ele>1.0</ele><time>2026-05-01T10:29:26Z</time></trkpt><trkpt lat="44.42884677825942" lon="15.209393742321918"><ele>0.0</ele><time>2026-05-01T10:29:27Z</time></trkpt><trkpt lat="44.428711694980514" lon="15.209593178113215"><ele>1.6666666666666667</ele><time>2026-05-01T10:29:28Z</time></trkpt><trkpt lat="44.428596305205524" lon="15.209839576371577"><ele>3.3333333333333335</ele><time>2026-05-01T10:29:29Z</time></trkpt><trkpt lat="44.42849048133281" lon="15.210113968679705"><ele>5.0</ele><time>2026-05-01T10:29:30Z</time></trkpt><trkpt lat="44.42836665010493" lon="15.210429433481918"><ele>9.5</ele><time>2026-05-01T10:29:31Z</time></trkpt><trkpt lat="44.42822034563669" lon="15.210762118953438"><ele>14.0</ele><time>2026-05-01T10:29:32Z</time></trkpt><trkpt lat="44.42805699363408" lon="15.21108504641575"><ele>9.0</ele><time>2026-05-01T10:29:33Z</time></trkpt><trkpt lat="44.4278923950652" lon="15.211389697025298"><ele>4.0</ele><time>2026-05-01T10:29:34Z</time></trkpt><trkpt lat="44.42775610945672" lon="15.211674026781761"><ele>4.0</ele><time>2026-05-01T10:29:35Z</time></trkpt><trkpt lat="44.42765365566948" lon="15.211955677856375"><ele>4.0</ele><time>2026-05-01T10:29:36Z</time></trkpt><trkpt lat="44.427583613643044" lon="15.212241460702892"><ele>4.0</ele><time>2026-05-01T10:29:37Z</time></trkpt><trkpt lat="44.427541774218454" lon="15.212535461988853"><ele>5.666666666666666</ele><time>2026-05-01T10:29:38Z</time></trkpt><trkpt lat="44.42752168290617" lon="15.21283112162061"><ele>7.333333333333333</ele><time>2026-05-01T10:29:39Z</time></trkpt><trkpt lat="44.427503446842714" lon="15.213107394974088"><ele>9.0</ele><time>2026-05-01T10:29:40Z</time></trkpt><trkpt lat="44.42746543197934" lon="15.213388303459096"><ele>9.0</ele><time>2026-05-01T10:29:41Z</time></trkpt><trkpt lat="44.42738940010962" lon="15.213650061417395"><ele>9.0</ele><time>2026-05-01T10:29:42Z</time></trkpt><trkpt lat="44.42725005119418" lon="15.213856117269584"><ele>9.0</ele><time>2026-05-01T10:29:43Z</time></trkpt><trkpt lat="44.427085868800035" lon="15.214007390486456"><ele>7.333333333333333</ele><time>2026-05-01T10:29:44Z</time></trkpt><trkpt lat="44.42690204842764" lon="15.214126557605102"><ele>5.666666666666666</ele><time>2026-05-01T10:29:45Z</time></trkpt><trkpt lat="44.42671797370893" lon="15.214245288518486"><ele>4.0</ele><time>2026-05-01T10:29:46Z</time></trkpt><trkpt lat="44.42654080139676" lon="15.214384917312314"><ele>4.0</ele><time>2026-05-01T10:29:47Z</time></trkpt><trkpt lat="44.426361282782466" lon="15.214526486265143"><ele>4.0</ele><time>2026-05-01T10:29:48Z</time></trkpt><trkpt lat="44.42618275164235" lon="15.214660744097243"><ele>4.0</ele><time>2026-05-01T10:29:49Z</time></trkpt><trkpt lat="44.42600465993538" lon="15.214797410871865"><ele>5.666666666666666</ele><time>2026-05-01T10:29:50Z</time></trkpt><trkpt lat="44.42582816523101" lon="15.214929478532145"><ele>7.333333333333333</ele><time>2026-05-01T10:29:51Z</time></trkpt><trkpt lat="44.425654909321274" lon="15.215068584480864"><ele>9.0</ele><time>2026-05-01T10:29:52Z</time></trkpt><trkpt lat="44.42548637447844" lon="15.215211756203264"><ele>10.0</ele><time>2026-05-01T10:29:53Z</time></trkpt><trkpt lat="44.425326061862236" lon="15.215354284739478"><ele>11.0</ele><time>2026-05-01T10:29:54Z</time></trkpt><trkpt lat="44.42516039686555" lon="15.215508614801777"><ele>12.0</ele><time>2026-05-01T10:29:55Z</time></trkpt><trkpt lat="44.42499385729752" lon="15.215664906468401"><ele>12.0</ele><time>2026-05-01T10:29:56Z</time></trkpt><trkpt lat="44.42482886748369" lon="15.215823144442489"><ele>12.0</ele><time>2026-05-01T10:29:57Z</time></trkpt><trkpt lat="44.424664609407024" lon="15.215978079927535"><ele>12.0</ele><time>2026-05-01T10:29:58Z</time></trkpt><trkpt lat="44.424501115702085" lon="15.216130097990124"><ele>13.666666666666668</ele><time>2026-05-01T10:29:59Z</time></trkpt><trkpt lat="44.424344839331326" lon="15.21627808246588"><ele>15.333333333333334</ele><time>2026-05-01T10:30:00Z</time></trkpt><trkpt lat="44.424194503210074" lon="15.216420806935515"><ele>17.0</ele><time>2026-05-01T10:30:01Z</time></trkpt><trkpt lat="44.42404068840734" lon="15.216567034175752"><ele>17.0</ele><time>2026-05-01T10:30:02Z</time></trkpt><trkpt lat="44.4238942716676" lon="15.21671239593874"><ele>17.0</ele><time>2026-05-01T10:30:03Z</time></trkpt><trkpt lat="44.42374922955142" lon="15.216849570475922"><ele>17.0</ele><time>2026-05-01T10:30:04Z</time></trkpt><trkpt lat="44.423595563464204" lon="15.216985314849374"><ele>17.666666666666668</ele><time>2026-05-01T10:30:05Z</time></trkpt><trkpt lat="44.42344042786934" lon="15.217118060514847"><ele>18.333333333333332</ele><time>2026-05-01T10:30:06Z</time></trkpt><trkpt lat="44.4232863781198" lon="15.2172522199357"><ele>19.0</ele><time>2026-05-01T10:30:07Z</time></trkpt><trkpt lat="44.42312996378325" lon="15.217388810353041"><ele>13.666666666666666</ele><time>2026-05-01T10:30:08Z</time></trkpt><trkpt lat="44.422974567371845" lon="15.21752472675298"><ele>8.333333333333332</ele><time>2026-05-01T10:30:09Z</time></trkpt><trkpt lat="44.422815342340904" lon="15.217664279633116"><ele>3.0</ele><time>2026-05-01T10:30:10Z</time></trkpt><trkpt lat="44.42265433692333" lon="15.21780322816125"><ele>3.0</ele><time>2026-05-01T10:30:11Z</time></trkpt><trkpt lat="44.42249690529642" lon="15.217941507040388"><ele>3.0</ele><time>2026-05-01T10:30:12Z</time></trkpt><trkpt lat="44.42234437858832" lon="15.218077605425787"><ele>3.0</ele><time>2026-05-01T10:30:13Z</time></trkpt><trkpt lat="44.42219431344941" lon="15.218219918028279"><ele>2.6666666666666665</ele><time>2026-05-01T10:30:14Z</time></trkpt><trkpt lat="44.42205099330883" lon="15.21836883644123"><ele>2.333333333333333</ele><time>2026-05-01T10:30:15Z</time></trkpt><trkpt lat="44.42191017879434" lon="15.218521515868158"><ele>2.0</ele><time>2026-05-01T10:30:16Z</time></trkpt><trkpt lat="44.42177417793263" lon="15.218681052296477"><ele>2.0</ele><time>2026-05-01T10:30:17Z</time></trkpt><trkpt lat="44.42163580416809" lon="15.21884476233566"><ele>2.0</ele><time>2026-05-01T10:30:18Z</time></trkpt><trkpt lat="44.42149664026306" lon="15.219020484732898"><ele>2.0</ele><time>2026-05-01T10:30:19Z</time></trkpt><trkpt lat="44.42135627504626" lon="15.219201726746698"><ele>1.6666666666666665</ele><time>2026-05-01T10:30:20Z</time></trkpt><trkpt lat="44.421213191398415" lon="15.219393926516076"><ele>1.3333333333333333</ele><time>2026-05-01T10:30:21Z</time></trkpt><trkpt lat="44.421070637944176" lon="15.21958705281522"><ele>1.0</ele><time>2026-05-01T10:30:22Z</time></trkpt><trkpt lat="44.42092717540372" lon="15.219783884975538"><ele>1.0</ele><time>2026-05-01T10:30:23Z</time></trkpt><trkpt lat="44.42078241825554" lon="15.219977091678654"><ele>1.0</ele><time>2026-05-01T10:30:24Z</time></trkpt><trkpt lat="44.42062618955488" lon="15.220165759007001"><ele>1.0</ele><time>2026-05-01T10:30:25Z</time></trkpt><trkpt lat="44.42045069937273" lon="15.220332942953048"><ele>1.0</ele><time>2026-05-01T10:30:26Z</time></trkpt><trkpt lat="44.42026717414933" lon="15.220479396769937"><ele>1.0</ele><time>2026-05-01T10:30:27Z</time></trkpt><trkpt lat="44.420080401172484" lon="15.220614866556923"><ele>1.0</ele><time>2026-05-01T10:30:28Z</time></trkpt><trkpt lat="44.41990902867588" lon="15.220733737827144"><ele>2.0</ele><time>2026-05-01T10:30:29Z</time></trkpt><trkpt lat="44.41972926747902" lon="15.220863769802945"><ele>3.0</ele><time>2026-05-01T10:30:30Z</time></trkpt><trkpt lat="44.41955187127628" lon="15.221011938358389"><ele>4.0</ele><time>2026-05-01T10:30:31Z</time></trkpt><trkpt lat="44.41935027503626" lon="15.221186162583466"><ele>4.0</ele><time>2026-05-01T10:30:32Z</time></trkpt><trkpt lat="44.41912203488621" lon="15.221369158697435"><ele>4.0</ele><time>2026-05-01T10:30:33Z</time></trkpt><trkpt lat="44.41887363383006" lon="15.22150558164515"><ele>4.0</ele><time>2026-05-01T10:30:34Z</time></trkpt><trkpt lat="44.41864832122277" lon="15.221677393633879"><ele>4.0</ele><time>2026-05-01T10:30:35Z</time></trkpt><trkpt lat="44.41842733418614" lon="15.221828354605975"><ele>4.0</ele><time>2026-05-01T10:30:36Z</time></trkpt><trkpt lat="44.41821432397703" lon="15.221956983181235"><ele>4.0</ele><time>2026-05-01T10:30:37Z</time></trkpt><trkpt lat="44.41800289139579" lon="15.222050835893493"><ele>2.6666666666666665</ele><time>2026-05-01T10:30:38Z</time></trkpt><trkpt lat="44.4177836229849" lon="15.22212110406983"><ele>1.3333333333333333</ele><time>2026-05-01T10:30:39Z</time></trkpt><trkpt lat="44.4175684852908" lon="15.222181541480321"><ele>0.0</ele><time>2026-05-01T10:30:40Z</time></trkpt><trkpt lat="44.417371297376214" lon="15.222262588734893"><ele>1.0</ele><time>2026-05-01T10:30:41Z</time></trkpt><trkpt lat="44.41717853505593" lon="15.22238116890657"><ele>2.0</ele><time>2026-05-01T10:30:42Z</time></trkpt><trkpt lat="44.416993409043116" lon="15.222537520275498"><ele>3.0</ele><time>2026-05-01T10:30:43Z</time></trkpt><trkpt lat="44.41683015256125" lon="15.222726815182556"><ele>3.0</ele><time>2026-05-01T10:30:44Z</time></trkpt><trkpt lat="44.41667151781854" lon="15.22292386257379"><ele>3.0</ele><time>2026-05-01T10:30:45Z</time></trkpt><trkpt lat="44.41651459690386" lon="15.223120369926626"><ele>3.0</ele><time>2026-05-01T10:30:46Z</time></trkpt><trkpt lat="44.416363639960096" lon="15.223303584683318"><ele>3.0</ele><time>2026-05-01T10:30:47Z</time></trkpt><trkpt lat="44.41620464298369" lon="15.223475679545924"><ele>3.0</ele><time>2026-05-01T10:30:48Z</time></trkpt><trkpt lat="44.41603206140653" lon="15.223638518320728"><ele>3.0</ele><time>2026-05-01T10:30:49Z</time></trkpt><trkpt lat="44.415853382428836" lon="15.223767433027433"><ele>3.0</ele><time>2026-05-01T10:30:50Z</time></trkpt><trkpt lat="44.41565919875003" lon="15.223867284710872"><ele>3.0</ele><time>2026-05-01T10:30:51Z</time></trkpt><trkpt lat="44.41546836327649" lon="15.223963613283667"><ele>3.0</ele><time>2026-05-01T10:30:52Z</time></trkpt><trkpt lat="44.41528925520888" lon="15.22407362559401"><ele>3.333333333333333</ele><time>2026-05-01T10:30:53Z</time></trkpt><trkpt lat="44.415126796523055" lon="15.224219225214185"><ele>3.6666666666666665</ele><time>2026-05-01T10:30:54Z</time></trkpt><trkpt lat="44.41498023729132" lon="15.224403691654436"><ele>4.0</ele><time>2026-05-01T10:30:55Z</time></trkpt><trkpt lat="44.41485921270384" lon="15.224632267284253"><ele>3.333333333333333</ele><time>2026-05-01T10:30:56Z</time></trkpt><trkpt lat="44.41477319642958" lon="15.224881725033871"><ele>2.6666666666666665</ele><time>2026-05-01T10:30:57Z</time></trkpt><trkpt lat="44.41469030807364" lon="15.225117345420696"><ele>2.0</ele><time>2026-05-01T10:30:58Z</time></trkpt><trkpt lat="44.41456825541392" lon="15.22530634854372"><ele>2.0</ele><time>2026-05-01T10:30:59Z</time></trkpt><trkpt lat="44.41442076102209" lon="15.225444858875933"><ele>2.0</ele><time>2026-05-01T10:31:00Z</time></trkpt><trkpt lat="44.41425083304831" lon="15.225491506618477"><ele>2.0</ele><time>2026-05-01T10:31:01Z</time></trkpt><trkpt lat="44.41409807511741" lon="15.225483049348009"><ele>2.0</ele><time>2026-05-01T10:31:02Z</time></trkpt><trkpt lat="44.4139550002911" lon="15.225491230086588"><ele>2.0</ele><time>2026-05-01T10:31:03Z</time></trkpt><trkpt lat="44.4138065384959" lon="15.225515860176785"><ele>2.0</ele><time>2026-05-01T10:31:04Z</time></trkpt><trkpt lat="44.413646283191056" lon="15.225548026929742"><ele>1.3333333333333333</ele><time>2026-05-01T10:31:05Z</time></trkpt><trkpt lat="44.41348191816662" lon="15.225599129978637"><ele>0.6666666666666666</ele><time>2026-05-01T10:31:06Z</time></trkpt><trkpt lat="44.41329913950196" lon="15.225688050626143"><ele>0.0</ele><time>2026-05-01T10:31:07Z</time></trkpt><trkpt lat="44.41307502770189" lon="15.22581391314117"><ele>0.0</ele><time>2026-05-01T10:31:08Z</time></trkpt><trkpt lat="44.41283077536673" lon="15.225983560633544"><ele>0.0</ele><time>2026-05-01T10:31:09Z</time></trkpt><trkpt lat="44.412569761194824" lon="15.226221923193725"><ele>0.5</ele><time>2026-05-01T10:31:10Z</time></trkpt><trkpt lat="44.412306982138816" lon="15.226513974602051"><ele>1.0</ele><time>2026-05-01T10:31:11Z</time></trkpt><trkpt lat="44.41205547115471" lon="15.226816442616823"><ele>1.0</ele><time>2026-05-01T10:31:12Z</time></trkpt><trkpt lat="44.411829666683076" lon="15.227081929518114"><ele>1.0</ele><time>2026-05-01T10:31:13Z</time></trkpt><trkpt lat="44.4116228399795" lon="15.227311511368603"><ele>0.5</ele><time>2026-05-01T10:31:14Z</time></trkpt><trkpt lat="44.41143038848779" lon="15.227517599011659"><ele>0.0</ele><time>2026-05-01T10:31:15Z</time></trkpt><trkpt lat="44.411254981985834" lon="15.227713837794097"><ele>0.0</ele><time>2026-05-01T10:31:16Z</time></trkpt><trkpt lat="44.41110037547964" lon="15.227901335366338"><ele>0.0</ele><time>2026-05-01T10:31:17Z</time></trkpt><trkpt lat="44.410978409983066" lon="15.228099147588233"><ele>0.0</ele><time>2026-05-01T10:31:18Z</time></trkpt><trkpt lat="44.410899447642514" lon="15.228324014028303"><ele>1.3333333333333333</ele><time>2026-05-01T10:31:19Z</time></trkpt><trkpt lat="44.410857694334695" lon="15.228589722655693"><ele>2.6666666666666665</ele><time>2026-05-01T10:31:20Z</time></trkpt><trkpt lat="44.4108593706027" lon="15.228886254231899"><ele>4.0</ele><time>2026-05-01T10:31:21Z</time></trkpt><trkpt lat="44.410906526575396" lon="15.229179125768773"><ele>4.666666666666666</ele><time>2026-05-01T10:31:22Z</time></trkpt><trkpt lat="44.41096819123427" lon="15.229447957128908"><ele>5.333333333333333</ele><time>2026-05-01T10:31:23Z</time></trkpt><trkpt lat="44.4110020784841" lon="15.2296899957796"><ele>6.0</ele><time>2026-05-01T10:31:24Z</time></trkpt><trkpt lat="44.41098863248318" lon="15.229909434463648"><ele>6.0</ele><time>2026-05-01T10:31:25Z</time></trkpt><trkpt lat="44.41091223167716" lon="15.230096394594268"><ele>6.0</ele><time>2026-05-01T10:31:26Z</time></trkpt><trkpt lat="44.41079046832059" lon="15.230203900600047"><ele>6.0</ele><time>2026-05-01T10:31:27Z</time></trkpt><trkpt lat="44.410630042991215" lon="15.230240876052278"><ele>4.666666666666667</ele><time>2026-05-01T10:31:28Z</time></trkpt><trkpt lat="44.410439744826256" lon="15.230217937825755"><ele>3.333333333333333</ele><time>2026-05-01T10:31:29Z</time></trkpt><trkpt lat="44.410223658844785" lon="15.230177630550692"><ele>2.0</ele><time>2026-05-01T10:31:30Z</time></trkpt><trkpt lat="44.410021566487266" lon="15.230153401926495"><ele>2.0</ele><time>2026-05-01T10:31:31Z</time></trkpt><trkpt lat="44.409837559280014" lon="15.23015794121203"><ele>2.0</ele><time>2026-05-01T10:31:32Z</time></trkpt><trkpt lat="44.409659309245285" lon="15.230203192610286"><ele>2.0</ele><time>2026-05-01T10:31:33Z</time></trkpt><trkpt lat="44.40948540255057" lon="15.230295636817795"><ele>1.3333333333333333</ele><time>2026-05-01T10:31:34Z</time></trkpt><trkpt lat="44.40931888501338" lon="15.230439626794064"><ele>0.6666666666666666</ele><time>2026-05-01T10:31:35Z</time></trkpt><trkpt lat="44.40916747364127" lon="15.230639336181502"><ele>0.0</ele><time>2026-05-01T10:31:36Z</time></trkpt><trkpt lat="44.40901001351409" lon="15.230862259806923"><ele>0.0</ele><time>2026-05-01T10:31:37Z</time></trkpt><trkpt lat="44.40883524016601" lon="15.231051034939947"><ele>0.0</ele><time>2026-05-01T10:31:38Z</time></trkpt><trkpt lat="44.40866424812071" lon="15.23124757206412"><ele>0.0</ele><time>2026-05-01T10:31:39Z</time></trkpt><trkpt lat="44.40848553266617" lon="15.231455578729792"><ele>0.0</ele><time>2026-05-01T10:31:40Z</time></trkpt><trkpt lat="44.40830514534268" lon="15.23164348999703"><ele>0.0</ele><time>2026-05-01T10:31:41Z</time></trkpt><trkpt lat="44.40814266743243" lon="15.231843776057232"><ele>0.0</ele><time>2026-05-01T10:31:42Z</time></trkpt><trkpt lat="44.407976120886474" lon="15.232020935836532"><ele>0.0</ele><time>2026-05-01T10:31:43Z</time></trkpt><trkpt lat="44.40783242839715" lon="15.232200716239621"><ele>0.0</ele><time>2026-05-01T10:31:44Z</time></trkpt><trkpt lat="44.40769494143181" lon="15.232370166758585"><ele>0.0</ele><time>2026-05-01T10:31:45Z</time></trkpt><trkpt lat="44.40755471169243" lon="15.232517406418893"><ele>1.6666666666666667</ele><time>2026-05-01T10:31:46Z</time></trkpt><trkpt lat="44.4074208455402" lon="15.2327072123182"><ele>3.3333333333333335</ele><time>2026-05-01T10:31:47Z</time></trkpt><trkpt lat="44.40732262981523" lon="15.232923077943058"><ele>5.0</ele><time>2026-05-01T10:31:48Z</time></trkpt><trkpt lat="44.40726684595995" lon="15.233170108844577"><ele>9.333333333333334</ele><time>2026-05-01T10:31:49Z</time></trkpt><trkpt lat="44.40725261379659" lon="15.233439899780054"><ele>13.666666666666666</ele><time>2026-05-01T10:31:50Z</time></trkpt><trkpt lat="44.40726013367983" lon="15.233700228428757"><ele>18.0</ele><time>2026-05-01T10:31:51Z</time></trkpt><trkpt lat="44.40725221146736" lon="15.233926890286092"><ele>15.333333333333334</ele><time>2026-05-01T10:31:52Z</time></trkpt><trkpt lat="44.4072026640563" lon="15.234120534704978"><ele>12.666666666666668</ele><time>2026-05-01T10:31:53Z</time></trkpt><trkpt lat="44.407091313606585" lon="15.23426143330908"><ele>10.0</ele><time>2026-05-01T10:31:54Z</time></trkpt><trkpt lat="44.40694500956535" lon="15.234321934973249"><ele>10.0</ele><time>2026-05-01T10:31:55Z</time></trkpt><trkpt lat="44.4067900965498" lon="15.23431318135955"><ele>10.0</ele><time>2026-05-01T10:31:56Z</time></trkpt><trkpt lat="44.406632746578936" lon="15.234258983032099"><ele>10.0</ele><time>2026-05-01T10:31:57Z</time></trkpt><trkpt lat="44.40648262286058" lon="15.234246802823236"><ele>7.0</ele><time>2026-05-01T10:31:58Z</time></trkpt><trkpt lat="44.40632657303387" lon="15.234270291712917"><ele>4.0</ele><time>2026-05-01T10:31:59Z</time></trkpt><trkpt lat="44.406166108215295" lon="15.234319808416508"><ele>1.0</ele><time>2026-05-01T10:32:00Z</time></trkpt><trkpt lat="44.40601528169026" lon="15.234440869577456"><ele>1.0</ele><time>2026-05-01T10:32:01Z</time></trkpt><trkpt lat="44.4058800826298" lon="15.234627370089656"><ele>1.0</ele><time>2026-05-01T10:32:02Z</time></trkpt><trkpt lat="44.40578009647722" lon="15.23486344798743"><ele>1.0</ele><time>2026-05-01T10:32:03Z</time></trkpt><trkpt lat="44.40573575779839" lon="15.23513307149479"><ele>4.0</ele><time>2026-05-01T10:32:04Z</time></trkpt><trkpt lat="44.40574370037041" lon="15.235416984078908"><ele>7.0</ele><time>2026-05-01T10:32:05Z</time></trkpt><trkpt lat="44.40579400693223" lon="15.235699283950565"><ele>10.0</ele><time>2026-05-01T10:32:06Z</time></trkpt><trkpt lat="44.40586330359031" lon="15.235959663284934"><ele>11.333333333333334</ele><time>2026-05-01T10:32:07Z</time></trkpt><trkpt lat="44.40591700459593" lon="15.236202236893092"><ele>12.666666666666668</ele><time>2026-05-01T10:32:08Z</time></trkpt><trkpt lat="44.40595432829497" lon="15.236428196113765"><ele>14.0</ele><time>2026-05-01T10:32:09Z</time></trkpt><trkpt lat="44.405964226879185" lon="15.236644664446333"><ele>14.0</ele><time>2026-05-01T10:32:10Z</time></trkpt><trkpt lat="44.40592580053863" lon="15.23684133779613"><ele>14.0</ele><time>2026-05-01T10:32:11Z</time></trkpt><trkpt lat="44.40583483656432" lon="15.23699302222416"><ele>14.0</ele><time>2026-05-01T10:32:12Z</time></trkpt><trkpt lat="44.40571216347652" lon="15.237068794507394"><ele>14.0</ele><time>2026-05-01T10:32:13Z</time></trkpt><trkpt lat="44.405568741526494" lon="15.237070954729177"><ele>13.333333333333334</ele><time>2026-05-01T10:32:14Z</time></trkpt><trkpt lat="44.405416202912875" lon="15.237003196554644"><ele>12.666666666666668</ele><time>2026-05-01T10:32:15Z</time></trkpt><trkpt lat="44.40526595096754" lon="15.236892934515424"><ele>12.0</ele><time>2026-05-01T10:32:16Z</time></trkpt><trkpt lat="44.405108513398716" lon="15.236774733593448"><ele>12.0</ele><time>2026-05-01T10:32:17Z</time></trkpt><trkpt lat="44.404935670355115" lon="15.236651794920972"><ele>12.0</ele><time>2026-05-01T10:32:18Z</time></trkpt><trkpt lat="44.40475216632159" lon="15.236527743609754"><ele>12.0</ele><time>2026-05-01T10:32:19Z</time></trkpt><trkpt lat="44.4045670200426" lon="15.236416657959818"><ele>8.0</ele><time>2026-05-01T10:32:20Z</time></trkpt><trkpt lat="44.40438013944703" lon="15.23633789284808"><ele>4.0</ele><time>2026-05-01T10:32:21Z</time></trkpt><trkpt lat="44.404191152669654" lon="15.236312776060496"><ele>0.0</ele><time>2026-05-01T10:32:22Z</time></trkpt><trkpt lat="44.40400141648773" lon="15.236355681608583"><ele>0.0</ele><time>2026-05-01T10:32:23Z</time></trkpt><trkpt lat="44.40381226995322" lon="15.236458155201802"><ele>0.0</ele><time>2026-05-01T10:32:24Z</time></trkpt><trkpt lat="44.40361071927874" lon="15.236631011706384"><ele>0.0</ele><time>2026-05-01T10:32:25Z</time></trkpt><trkpt lat="44.403392006271105" lon="15.236865442271412"><ele>1.0</ele><time>2026-05-01T10:32:26Z</time></trkpt><trkpt lat="44.40319751259803" lon="15.23708309561891"><ele>2.0</ele><time>2026-05-01T10:32:27Z</time></trkpt><trkpt lat="44.40302972750443" lon="15.237275402054895"><ele>2.0</ele><time>2026-05-01T10:32:28Z</time></trkpt><trkpt lat="44.40288808938691" lon="15.237473652905605"><ele>2.0</ele><time>2026-05-01T10:32:29Z</time></trkpt><trkpt lat="44.40278011754768" lon="15.237702094887126"><ele>2.0</ele><time>2026-05-01T10:32:30Z</time></trkpt><trkpt lat="44.4027038536165" lon="15.237938142994496"><ele>2.6666666666666665</ele><time>2026-05-01T10:32:31Z</time></trkpt><trkpt lat="44.402635103203096" lon="15.238193457852534"><ele>3.333333333333333</ele><time>2026-05-01T10:32:32Z</time></trkpt><trkpt lat="44.40257406819458" lon="15.238464933402287"><ele>4.0</ele><time>2026-05-01T10:32:33Z</time></trkpt><trkpt lat="44.402504784584586" lon="15.238744127761551"><ele>5.0</ele><time>2026-05-01T10:32:34Z</time></trkpt><trkpt lat="44.40240645429651" lon="15.239008306003246"><ele>6.0</ele><time>2026-05-01T10:32:35Z</time></trkpt><trkpt lat="44.40226296517565" lon="15.23923529867979"><ele>7.0</ele><time>2026-05-01T10:32:36Z</time></trkpt><trkpt lat="44.40208089745078" lon="15.239413002921935"><ele>4.0</ele><time>2026-05-01T10:32:37Z</time></trkpt><trkpt lat="44.40186304028084" lon="15.23956135902386"><ele>1.0</ele><time>2026-05-01T10:32:38Z</time></trkpt><trkpt lat="44.40164460624745" lon="15.239709108047238"><ele>1.6666666666666665</ele><time>2026-05-01T10:32:39Z</time></trkpt><trkpt lat="44.401445171993416" lon="15.23986205454014"><ele>2.3333333333333335</ele><time>2026-05-01T10:32:40Z</time></trkpt><trkpt lat="44.40125467599404" lon="15.240016312772967"><ele>3.0</ele><time>2026-05-01T10:32:41Z</time></trkpt><trkpt lat="44.40107365631384" lon="15.240165348402725"><ele>3.0</ele><time>2026-05-01T10:32:42Z</time></trkpt><trkpt lat="44.4008908397726" lon="15.240307689004437"><ele>3.0</ele><time>2026-05-01T10:32:43Z</time></trkpt><trkpt lat="44.40070881160177" lon="15.24045090346894"><ele>3.0</ele><time>2026-05-01T10:32:44Z</time></trkpt><trkpt lat="44.40053247667119" lon="15.240590311987035"><ele>3.666666666666667</ele><time>2026-05-01T10:32:45Z</time></trkpt><trkpt lat="44.40038345090652" lon="15.240709880934602"><ele>4.333333333333334</ele><time>2026-05-01T10:32:46Z</time></trkpt><trkpt lat="44.40025732029948" lon="15.240811893528129"><ele>5.0</ele><time>2026-05-01T10:32:47Z</time></trkpt><trkpt lat="44.40013082327246" lon="15.240911257077833"><ele>5.0</ele><time>2026-05-01T10:32:48Z</time></trkpt><trkpt lat="44.40000820521426" lon="15.241009224623125"><ele>5.0</ele><time>2026-05-01T10:32:49Z</time></trkpt><trkpt lat="44.39988958010211" lon="15.241103441032143"><ele>5.0</ele><time>2026-05-01T10:32:50Z</time></trkpt><trkpt lat="44.39976756060654" lon="15.2412002930094"><ele>5.0</ele><time>2026-05-01T10:32:51Z</time></trkpt><trkpt lat="44.399635346760164" lon="15.241297610416295"><ele>3.666666666666667</ele><time>2026-05-01T10:32:52Z</time></trkpt><trkpt lat="44.3995030870657" lon="15.241402315827095"><ele>2.3333333333333335</ele><time>2026-05-01T10:32:53Z</time></trkpt><trkpt lat="44.3993659457982" lon="15.241506814094503"><ele>1.0</ele><time>2026-05-01T10:32:54Z</time></trkpt><trkpt lat="44.3992274589046" lon="15.241618085864918"><ele>1.0</ele><time>2026-05-01T10:32:55Z</time></trkpt><trkpt lat="44.39907912587927" lon="15.241739692197477"><ele>1.0</ele><time>2026-05-01T10:32:56Z</time></trkpt><trkpt lat="44.39891433869651" lon="15.241870566787412"><ele>1.0</ele><time>2026-05-01T10:32:57Z</time></trkpt><trkpt lat="44.39874209262403" lon="15.242012830287562"><ele>1.0</ele><time>2026-05-01T10:32:58Z</time></trkpt><trkpt lat="44.39857088521951" lon="15.242169827658113"><ele>1.0</ele><time>2026-05-01T10:32:59Z</time></trkpt><trkpt lat="44.39840543022979" lon="15.242355355410044"><ele>1.0</ele><time>2026-05-01T10:33:00Z</time></trkpt><trkpt lat="44.398261081442506" lon="15.242585928317203"><ele>2.3333333333333335</ele><time>2026-05-01T10:33:01Z</time></trkpt><trkpt lat="44.398153535644944" lon="15.242844077657576"><ele>3.666666666666667</ele><time>2026-05-01T10:33:02Z</time></trkpt><trkpt lat="44.39807139791469" lon="15.24312141801899"><ele>5.0</ele><time>2026-05-01T10:33:03Z</time></trkpt><trkpt lat="44.39801688867258" lon="15.243404484020914"><ele>4.333333333333334</ele><time>2026-05-01T10:33:04Z</time></trkpt><trkpt lat="44.397996608661146" lon="15.243699621362108"><ele>3.666666666666667</ele><time>2026-05-01T10:33:05Z</time></trkpt><trkpt lat="44.39800024525038" lon="15.243979753504311"><ele>3.0</ele><time>2026-05-01T10:33:06Z</time></trkpt><trkpt lat="44.3980098960062" lon="15.24424141648889"><ele>4.5</ele><time>2026-05-01T10:33:07Z</time></trkpt><trkpt lat="44.39801365394216" lon="15.244492795818674"><ele>6.0</ele><time>2026-05-01T10:33:08Z</time></trkpt><trkpt lat="44.39800046448238" lon="15.244694221379648"><ele>7.5</ele><time>2026-05-01T10:33:09Z</time></trkpt><trkpt lat="44.39793962085373" lon="15.244827670420548"><ele>9.0</ele><time>2026-05-01T10:33:10Z</time></trkpt><trkpt lat="44.39782636885073" lon="15.244891491005545"><ele>9.0</ele><time>2026-05-01T10:33:11Z</time></trkpt><trkpt lat="44.39769910185599" lon="15.244868248123034"><ele>9.0</ele><time>2026-05-01T10:33:12Z</time></trkpt><trkpt lat="44.39758426512707" lon="15.24475299022084"><ele>9.0</ele><time>2026-05-01T10:33:13Z</time></trkpt><trkpt lat="44.3975018384677" lon="15.244574720526389"><ele>9.0</ele><time>2026-05-01T10:33:14Z</time></trkpt><trkpt lat="44.39743378629979" lon="15.244377150625947"><ele>9.0</ele><time>2026-05-01T10:33:15Z</time></trkpt><trkpt lat="44.39734459315969" lon="15.244201559166244"><ele>9.0</ele><time>2026-05-01T10:33:16Z</time></trkpt><trkpt lat="44.39725093384852" lon="15.244032034719133"><ele>9.0</ele><time>2026-05-01T10:33:17Z</time></trkpt><trkpt lat="44.39716406554999" lon="15.243847368489458"><ele>7.666666666666667</ele><time>2026-05-01T10:33:18Z</time></trkpt><trkpt lat="44.39706019853094" lon="15.243675445164204"><ele>6.333333333333334</ele><time>2026-05-01T10:33:19Z</time></trkpt><trkpt lat="44.3969349238249" lon="15.243526276453403"><ele>5.0</ele><time>2026-05-01T10:33:20Z</time></trkpt><trkpt lat="44.3967849609683" lon="15.243412430887258"><ele>5.0</ele><time>2026-05-01T10:33:21Z</time></trkpt><trkpt lat="44.39661381857035" lon="15.24334607272918"><ele>5.0</ele><time>2026-05-01T10:33:22Z</time></trkpt><trkpt lat="44.39642744372658" lon="15.24334288905292"><ele>5.0</ele><time>2026-05-01T10:33:23Z</time></trkpt><trkpt lat="44.39624616429886" lon="15.24341751865941"><ele>3.3333333333333335</ele><time>2026-05-01T10:33:24Z</time></trkpt><trkpt lat="44.39608424736444" lon="15.243549632093755"><ele>1.6666666666666667</ele><time>2026-05-01T10:33:25Z</time></trkpt><trkpt lat="44.395960444151484" lon="15.24372265206325"><ele>0.0</ele><time>2026-05-01T10:33:26Z</time></trkpt><trkpt lat="44.39585938916547" lon="15.243910694889008"><ele>2.6666666666666665</ele><time>2026-05-01T10:33:27Z</time></trkpt><trkpt lat="44.39575863827582" lon="15.244091774351821"><ele>5.333333333333333</ele><time>2026-05-01T10:33:28Z</time></trkpt><trkpt lat="44.3956474510885" lon="15.244269478129869"><ele>8.0</ele><time>2026-05-01T10:33:29Z</time></trkpt><trkpt lat="44.39553321903696" lon="15.244441894643595"><ele>7.333333333333333</ele><time>2026-05-01T10:33:30Z</time></trkpt><trkpt lat="44.395422830179804" lon="15.244608732627315"><ele>6.666666666666666</ele><time>2026-05-01T10:33:31Z</time></trkpt><trkpt lat="44.39531595075757" lon="15.244765398760993"><ele>6.0</ele><time>2026-05-01T10:33:32Z</time></trkpt><trkpt lat="44.39520249572693" lon="15.244916578487363"><ele>6.0</ele><time>2026-05-01T10:33:33Z</time></trkpt><trkpt lat="44.395075744103686" lon="15.245045537250855"><ele>6.0</ele><time>2026-05-01T10:33:34Z</time></trkpt><trkpt lat="44.39494044443991" lon="15.245155763917012"><ele>6.0</ele><time>2026-05-01T10:33:35Z</time></trkpt><trkpt lat="44.39480836334071" lon="15.245262128357654"><ele>6.0</ele><time>2026-05-01T10:33:36Z</time></trkpt><trkpt lat="44.39468309401675" lon="15.245397073776415"><ele>6.0</ele><time>2026-05-01T10:33:37Z</time></trkpt><trkpt lat="44.39457589820529" lon="15.245567520486281"><ele>6.0</ele><time>2026-05-01T10:33:38Z</time></trkpt><trkpt lat="44.394482398816805" lon="15.24577127968311"><ele>5.333333333333333</ele><time>2026-05-01T10:33:39Z</time></trkpt><trkpt lat="44.39439830848434" lon="15.24597751208497"><ele>4.666666666666666</ele><time>2026-05-01T10:33:40Z</time></trkpt><trkpt lat="44.39430059144436" lon="15.246162187699298"><ele>4.0</ele><time>2026-05-01T10:33:41Z</time></trkpt><trkpt lat="44.39416931607171" lon="15.246304848884733"><ele>4.0</ele><time>2026-05-01T10:33:42Z</time></trkpt><trkpt lat="44.393998455774245" lon="15.246406390594874"><ele>4.0</ele><time>2026-05-01T10:33:43Z</time></trkpt><trkpt lat="44.393814988079484" lon="15.246462827833987"><ele>4.0</ele><time>2026-05-01T10:33:44Z</time></trkpt><trkpt lat="44.39363309242626" lon="15.246509026491873"><ele>5.0</ele><time>2026-05-01T10:33:45Z</time></trkpt><trkpt lat="44.393448148230405" lon="15.246570954343357"><ele>6.0</ele><time>2026-05-01T10:33:46Z</time></trkpt><trkpt lat="44.393267523600066" lon="15.24664566707091"><ele>7.0</ele><time>2026-05-01T10:33:47Z</time></trkpt><trkpt lat="44.393084703457305" lon="15.246743843722294"><ele>4.666666666666667</ele><time>2026-05-01T10:33:48Z</time></trkpt><trkpt lat="44.392915027403895" lon="15.246885071404284"><ele>2.3333333333333335</ele><time>2026-05-01T10:33:49Z</time></trkpt><trkpt lat="44.392761198199665" lon="15.247065610626073"><ele>0.0</ele><time>2026-05-01T10:33:50Z</time></trkpt><trkpt lat="44.39261821881478" lon="15.247268779349165"><ele>2.6666666666666665</ele><time>2026-05-01T10:33:51Z</time></trkpt><trkpt lat="44.392493696286984" lon="15.247466839188503"><ele>5.333333333333333</ele><time>2026-05-01T10:33:52Z</time></trkpt><trkpt lat="44.3923663866782" lon="15.247648108832124"><ele>8.0</ele><time>2026-05-01T10:33:53Z</time></trkpt><trkpt lat="44.39223273190367" lon="15.247826419736832"><ele>6.666666666666666</ele><time>2026-05-01T10:33:54Z</time></trkpt><trkpt lat="44.39209113641489" lon="15.248004108228065"><ele>5.333333333333333</ele><time>2026-05-01T10:33:55Z</time></trkpt><trkpt lat="44.391950295706295" lon="15.248165590022595"><ele>4.0</ele><time>2026-05-01T10:33:56Z</time></trkpt><trkpt lat="44.39179954027535" lon="15.248310775781674"><ele>4.0</ele><time>2026-05-01T10:33:57Z</time></trkpt><trkpt lat="44.39164459499864" lon="15.248443720049137"><ele>4.0</ele><time>2026-05-01T10:33:58Z</time></trkpt><trkpt lat="44.391491949948296" lon="15.24857984478831"><ele>4.0</ele><time>2026-05-01T10:33:59Z</time></trkpt><trkpt lat="44.39133879868854" lon="15.248729636075328"><ele>3.333333333333333</ele><time>2026-05-01T10:34:00Z</time></trkpt><trkpt lat="44.39119375867569" lon="15.24889622313059"><ele>2.6666666666666665</ele><time>2026-05-01T10:34:01Z</time></trkpt><trkpt lat="44.39106448855518" lon="15.24909611993097"><ele>2.0</ele><time>2026-05-01T10:34:02Z</time></trkpt><trkpt lat="44.39096086456473" lon="15.249322508865687"><ele>2.0</ele><time>2026-05-01T10:34:03Z</time></trkpt><trkpt lat="44.390890260894" lon="15.249573734496305"><ele>2.0</ele><time>2026-05-01T10:34:04Z</time></trkpt><trkpt lat="44.390850579870694" lon="15.249846819637371"><ele>2.0</ele><time>2026-05-01T10:34:05Z</time></trkpt><trkpt lat="44.390844473240676" lon="15.250136528332948"><ele>4.333333333333333</ele><time>2026-05-01T10:34:06Z</time></trkpt><trkpt lat="44.39086723903675" lon="15.25042613440077"><ele>6.666666666666667</ele><time>2026-05-01T10:34:07Z</time></trkpt><trkpt lat="44.39090181790769" lon="15.250715461708769"><ele>9.0</ele><time>2026-05-01T10:34:08Z</time></trkpt><trkpt lat="44.39092751554253" lon="15.250994345076863"><ele>9.666666666666666</ele><time>2026-05-01T10:34:09Z</time></trkpt><trkpt lat="44.390949444851834" lon="15.251267118650459"><ele>10.333333333333332</ele><time>2026-05-01T10:34:10Z</time></trkpt><trkpt lat="44.3909522017904" lon="15.251533004169824"><ele>11.0</ele><time>2026-05-01T10:34:11Z</time></trkpt><trkpt lat="44.39091999534251" lon="15.251794202540509"><ele>10.666666666666666</ele><time>2026-05-01T10:34:12Z</time></trkpt><trkpt lat="44.390840581818395" lon="15.252042886626334"><ele>10.333333333333334</ele><time>2026-05-01T10:34:13Z</time></trkpt><trkpt lat="44.39071905228147" lon="15.252250563563507"><ele>10.0</ele><time>2026-05-01T10:34:14Z</time></trkpt><trkpt lat="44.39055434286255" lon="15.252427622244875"><ele>10.333333333333334</ele><time>2026-05-01T10:34:15Z</time></trkpt><trkpt lat="44.39035525097168" lon="15.252552510777507"><ele>10.666666666666666</ele><time>2026-05-01T10:34:16Z</time></trkpt><trkpt lat="44.3901363908737" lon="15.252597341318962"><ele>11.0</ele><time>2026-05-01T10:34:17Z</time></trkpt><trkpt lat="44.38991075571213" lon="15.252564836688435"><ele>11.0</ele><time>2026-05-01T10:34:18Z</time></trkpt><trkpt lat="44.38969402502386" lon="15.252509519907981"><ele>11.0</ele><time>2026-05-01T10:34:19Z</time></trkpt><trkpt lat="44.38949402829568" lon="15.252475551216225"><ele>11.0</ele><time>2026-05-01T10:34:20Z</time></trkpt><trkpt lat="44.38930621782172" lon="15.252458705172474"><ele>11.333333333333332</ele><time>2026-05-01T10:34:21Z</time></trkpt><trkpt lat="44.389127015447485" lon="15.252449163429448"><ele>11.666666666666666</ele><time>2026-05-01T10:34:22Z</time></trkpt><trkpt lat="44.388948405296155" lon="15.252461936583872"><ele>12.0</ele><time>2026-05-01T10:34:23Z</time></trkpt><trkpt lat="44.38877084559771" lon="15.252521846901885"><ele>10.333333333333334</ele><time>2026-05-01T10:34:24Z</time></trkpt><trkpt lat="44.38860448393914" lon="15.252642547790177"><ele>8.666666666666668</ele><time>2026-05-01T10:34:25Z</time></trkpt><trkpt lat="44.38845446432614" lon="15.252817725005626"><ele>7.0</ele><time>2026-05-01T10:34:26Z</time></trkpt><trkpt lat="44.38832805363351" lon="15.253018977755831"><ele>11.333333333333334</ele><time>2026-05-01T10:34:27Z</time></trkpt><trkpt lat="44.388238225843196" lon="15.253262444398931"><ele>15.666666666666668</ele><time>2026-05-01T10:34:28Z</time></trkpt><trkpt lat="44.388167473443275" lon="15.253518995960338"><ele>20.0</ele><time>2026-05-01T10:34:29Z</time></trkpt><trkpt lat="44.38811502615347" lon="15.253777681646614"><ele>16.666666666666668</ele><time>2026-05-01T10:34:30Z</time></trkpt><trkpt lat="44.38805780395488" lon="15.254023446691582"><ele>13.333333333333334</ele><time>2026-05-01T10:34:31Z</time></trkpt><trkpt lat="44.387993180843154" lon="15.254258081458207"><ele>10.0</ele><time>2026-05-01T10:34:32Z</time></trkpt><trkpt lat="44.387929841777556" lon="15.254500667144741"><ele>10.0</ele><time>2026-05-01T10:34:33Z</time></trkpt><trkpt lat="44.387869664839684" lon="15.254731920575963"><ele>10.0</ele><time>2026-05-01T10:34:34Z</time></trkpt><trkpt lat="44.3878084698848" lon="15.25496057046871"><ele>10.0</ele><time>2026-05-01T10:34:35Z</time></trkpt><trkpt lat="44.387750980556035" lon="15.25517646935345"><ele>13.0</ele><time>2026-05-01T10:34:36Z</time></trkpt><trkpt lat="44.387693479007126" lon="15.255382273226267"><ele>16.0</ele><time>2026-05-01T10:34:37Z</time></trkpt><trkpt lat="44.38762228130817" lon="15.255573929186859"><ele>19.0</ele><time>2026-05-01T10:34:38Z</time></trkpt><trkpt lat="44.38751037428887" lon="15.255733121668086"><ele>22.0</ele><time>2026-05-01T10:34:39Z</time></trkpt><trkpt lat="44.38736471840827" lon="15.25584195569432"><ele>25.0</ele><time>2026-05-01T10:34:40Z</time></trkpt><trkpt lat="44.38720456698763" lon="15.255904338111291"><ele>28.0</ele><time>2026-05-01T10:34:41Z</time></trkpt><trkpt lat="44.38703708199004" lon="15.255960570477843"><ele>28.0</ele><time>2026-05-01T10:34:42Z</time></trkpt><trkpt lat="44.38687796277073" lon="15.256027647634921"><ele>28.0</ele><time>2026-05-01T10:34:43Z</time></trkpt><trkpt lat="44.386724884460875" lon="15.256104239136935"><ele>28.0</ele><time>2026-05-01T10:34:44Z</time></trkpt><trkpt lat="44.38657285780408" lon="15.25618364971057"><ele>28.0</ele><time>2026-05-01T10:34:45Z</time></trkpt><trkpt lat="44.386425981722134" lon="15.256268944854574"><ele>28.0</ele><time>2026-05-01T10:34:46Z</time></trkpt><trkpt lat="44.3862856331831" lon="15.256376615449131"><ele>28.0</ele><time>2026-05-01T10:34:47Z</time></trkpt><trkpt lat="44.386154818853356" lon="15.256545688220884"><ele>27.333333333333336</ele><time>2026-05-01T10:34:48Z</time></trkpt><trkpt lat="44.38605346926819" lon="15.256775810924486"><ele>26.666666666666664</ele><time>2026-05-01T10:34:49Z</time></trkpt><trkpt lat="44.38598819966727" lon="15.25702046530515"><ele>26.0</ele><time>2026-05-01T10:34:50Z</time></trkpt><trkpt lat="44.38592381186336" lon="15.257255713588584"><ele>27.666666666666664</ele><time>2026-05-01T10:34:51Z</time></trkpt><trkpt lat="44.38585197576305" lon="15.257472237766766"><ele>29.333333333333336</ele><time>2026-05-01T10:34:52Z</time></trkpt><trkpt lat="44.385776371170294" lon="15.257659001203526"><ele>31.0</ele><time>2026-05-01T10:34:53Z</time></trkpt><trkpt lat="44.385690434913556" lon="15.257820033318204"><ele>31.0</ele><time>2026-05-01T10:34:54Z</time></trkpt><trkpt lat="44.385574772847384" lon="15.257937133094003"><ele>31.0</ele><time>2026-05-01T10:34:55Z</time></trkpt><trkpt lat="44.3854232509714" lon="15.257966494266565"><ele>31.0</ele><time>2026-05-01T10:34:56Z</time></trkpt><trkpt lat="44.385264922396686" lon="15.257943285600739"><ele>27.25</ele><time>2026-05-01T10:34:57Z</time></trkpt><trkpt lat="44.38512520982578" lon="15.257925002922752"><ele>23.5</ele><time>2026-05-01T10:34:58Z</time></trkpt><trkpt lat="44.38499751585492" lon="15.257937231650605"><ele>19.75</ele><time>2026-05-01T10:34:59Z</time></trkpt><trkpt lat="44.384875951437344" lon="15.257963042445281"><ele>16.0</ele><time>2026-05-01T10:35:00Z</time></trkpt><trkpt lat="44.38474992122926" lon="15.258003928393642"><ele>16.0</ele><time>2026-05-01T10:35:01Z</time></trkpt><trkpt lat="44.384612641783676" lon="15.258068053456755"><ele>16.0</ele><time>2026-05-01T10:35:02Z</time></trkpt><trkpt lat="44.38447784443745" lon="15.258161648307508"><ele>16.0</ele><time>2026-05-01T10:35:03Z</time></trkpt><trkpt lat="44.38435349356132" lon="15.258278092708963"><ele>16.0</ele><time>2026-05-01T10:35:04Z</time></trkpt><trkpt lat="44.384237102817046" lon="15.258414645017867"><ele>16.0</ele><time>2026-05-01T10:35:05Z</time></trkpt><trkpt lat="44.38413540549912" lon="15.25858284146043"><ele>16.0</ele><time>2026-05-01T10:35:06Z</time></trkpt><trkpt lat="44.38404985388145" lon="15.258765719672835"><ele>16.0</ele><time>2026-05-01T10:35:07Z</time></trkpt><trkpt lat="44.38398267496089" lon="15.25895738155771"><ele>19.666666666666664</ele><time>2026-05-01T10:35:08Z</time></trkpt><trkpt lat="44.383932512456894" lon="15.259161214864648"><ele>23.333333333333332</ele><time>2026-05-01T10:35:09Z</time></trkpt><trkpt lat="44.38390180938739" lon="15.259372707572961"><ele>27.0</ele><time>2026-05-01T10:35:10Z</time></trkpt><trkpt lat="44.38388825981576" lon="15.259592903970475"><ele>28.666666666666664</ele><time>2026-05-01T10:35:11Z</time></trkpt><trkpt lat="44.38389664080363" lon="15.259814024744625"><ele>30.333333333333332</ele><time>2026-05-01T10:35:12Z</time></trkpt><trkpt lat="44.383926791777405" lon="15.260026511663646"><ele>32.0</ele><time>2026-05-01T10:35:13Z</time></trkpt><trkpt lat="44.38395674384429" lon="15.26024138982362"><ele>32.0</ele><time>2026-05-01T10:35:14Z</time></trkpt><trkpt lat="44.38397608217021" lon="15.260442909072646"><ele>32.0</ele><time>2026-05-01T10:35:15Z</time></trkpt><trkpt lat="44.38398414326171" lon="15.26063688558714"><ele>32.0</ele><time>2026-05-01T10:35:16Z</time></trkpt><trkpt lat="44.383971702637496" lon="15.260826853929425"><ele>32.0</ele><time>2026-05-01T10:35:17Z</time></trkpt><trkpt lat="44.3839277115108" lon="15.261008431777851"><ele>25.333333333333332</ele><time>2026-05-01T10:35:18Z</time></trkpt><trkpt lat="44.383840348706904" lon="15.261172470216065"><ele>18.666666666666664</ele><time>2026-05-01T10:35:19Z</time></trkpt><trkpt lat="44.38370905063967" lon="15.261296884417705"><ele>12.0</ele><time>2026-05-01T10:35:20Z</time></trkpt><trkpt lat="44.383556923108266" lon="15.261353129394692"><ele>12.0</ele><time>2026-05-01T10:35:21Z</time></trkpt><trkpt lat="44.38339880515425" lon="15.261344486582"><ele>12.0</ele><time>2026-05-01T10:35:22Z</time></trkpt><trkpt lat="44.383251538271864" lon="15.261297203520645"><ele>12.0</ele><time>2026-05-01T10:35:23Z</time></trkpt><trkpt lat="44.383119475621506" lon="15.261242592458563"><ele>12.0</ele><time>2026-05-01T10:35:24Z</time></trkpt><trkpt lat="44.3829971592648" lon="15.261191424661698"><ele>14.25</ele><time>2026-05-01T10:35:25Z</time></trkpt><trkpt lat="44.38287282987992" lon="15.261145724675574"><ele>16.5</ele><time>2026-05-01T10:35:26Z</time></trkpt><trkpt lat="44.382741769322045" lon="15.261103313295077"><ele>18.75</ele><time>2026-05-01T10:35:27Z</time></trkpt><trkpt lat="44.382608907412" lon="15.26105990811258"><ele>21.0</ele><time>2026-05-01T10:35:28Z</time></trkpt><trkpt lat="44.38246249220818" lon="15.261017786377787"><ele>21.0</ele><time>2026-05-01T10:35:29Z</time></trkpt><trkpt lat="44.382309318248616" lon="15.261014883671054"><ele>21.0</ele><time>2026-05-01T10:35:30Z</time></trkpt><trkpt lat="44.38214970337482" lon="15.261047027820059"><ele>21.0</ele><time>2026-05-01T10:35:31Z</time></trkpt><trkpt lat="44.38198615149862" lon="15.261101192992557"><ele>20.666666666666668</ele><time>2026-05-01T10:35:32Z</time></trkpt><trkpt lat="44.38182222142094" lon="15.261178967943254"><ele>20.333333333333336</ele><time>2026-05-01T10:35:33Z</time></trkpt><trkpt lat="44.38166165916222" lon="15.261284951438423"><ele>20.0</ele><time>2026-05-01T10:35:34Z</time></trkpt><trkpt lat="44.38149479173638" lon="15.261439943553556"><ele>21.0</ele><time>2026-05-01T10:35:35Z</time></trkpt><trkpt lat="44.38132777753153" lon="15.261645707371096"><ele>22.0</ele><time>2026-05-01T10:35:36Z</time></trkpt><trkpt lat="44.381179787674064" lon="15.261895539620173"><ele>22.0</ele><time>2026-05-01T10:35:37Z</time></trkpt><trkpt lat="44.38104838717952" lon="15.2621975345422"><ele>22.0</ele><time>2026-05-01T10:35:38Z</time></trkpt><trkpt lat="44.38093313204733" lon="15.262522338130212"><ele>24.333333333333332</ele><time>2026-05-01T10:35:39Z</time></trkpt><trkpt lat="44.380848707209054" lon="15.262804310988045"><ele>26.666666666666664</ele><time>2026-05-01T10:35:40Z</time></trkpt><trkpt lat="44.38075977527758" lon="15.263058299481994"><ele>29.0</ele><time>2026-05-01T10:35:41Z</time></trkpt><trkpt lat="44.380675931438006" lon="15.263292683560811"><ele>28.333333333333332</ele><time>2026-05-01T10:35:42Z</time></trkpt><trkpt lat="44.38059062300903" lon="15.26352560587366"><ele>27.666666666666664</ele><time>2026-05-01T10:35:43Z</time></trkpt><trkpt lat="44.38050941713507" lon="15.263743677093384"><ele>27.0</ele><time>2026-05-01T10:35:44Z</time></trkpt><trkpt lat="44.38041841408591" lon="15.263965733288945"><ele>27.0</ele><time>2026-05-01T10:35:45Z</time></trkpt><trkpt lat="44.380305308377714" lon="15.264175990313996"><ele>27.0</ele><time>2026-05-01T10:35:46Z</time></trkpt><trkpt lat="44.380159474190215" lon="15.264345671598221"><ele>27.0</ele><time>2026-05-01T10:35:47Z</time></trkpt><trkpt lat="44.3799920101021" lon="15.264465150692697"><ele>27.0</ele><time>2026-05-01T10:35:48Z</time></trkpt><trkpt lat="44.37980896625916" lon="15.264539808749555"><ele>27.0</ele><time>2026-05-01T10:35:49Z</time></trkpt><trkpt lat="44.379617398039535" lon="15.264582818521392"><ele>27.0</ele><time>2026-05-01T10:35:50Z</time></trkpt><trkpt lat="44.37943085201073" lon="15.264627720139009"><ele>29.333333333333336</ele><time>2026-05-01T10:35:51Z</time></trkpt><trkpt lat="44.379241427371795" lon="15.264701487806184"><ele>31.666666666666668</ele><time>2026-05-01T10:35:52Z</time></trkpt><trkpt lat="44.37905117900842" lon="15.264810063289865"><ele>34.0</ele><time>2026-05-01T10:35:53Z</time></trkpt><trkpt lat="44.378870038859866" lon="15.264946285681878"><ele>30.333333333333336</ele><time>2026-05-01T10:35:54Z</time></trkpt><trkpt lat="44.37869760977781" lon="15.26508640051523"><ele>26.666666666666668</ele><time>2026-05-01T10:35:55Z</time></trkpt><trkpt lat="44.378531737888586" lon="15.265217242431843"><ele>23.0</ele><time>2026-05-01T10:35:56Z</time></trkpt><trkpt lat="44.37836735822953" lon="15.265343850981122"><ele>23.0</ele><time>2026-05-01T10:35:57Z</time></trkpt><trkpt lat="44.378210882397" lon="15.265474017219633"><ele>23.0</ele><time>2026-05-01T10:35:58Z</time></trkpt><trkpt lat="44.378077474936184" lon="15.265635817846414"><ele>23.0</ele><time>2026-05-01T10:35:59Z</time></trkpt><trkpt lat="44.37798283159553" lon="15.265837952286368"><ele>22.333333333333336</ele><time>2026-05-01T10:36:00Z</time></trkpt><trkpt lat="44.37793204448631" lon="15.26605315358692"><ele>21.666666666666668</ele><time>2026-05-01T10:36:01Z</time></trkpt><trkpt lat="44.37792154231974" lon="15.266286189462242"><ele>21.0</ele><time>2026-05-01T10:36:02Z</time></trkpt><trkpt lat="44.37793296221279" lon="15.266512527637957"><ele>21.0</ele><time>2026-05-01T10:36:03Z</time></trkpt><trkpt lat="44.37794352276337" lon="15.266728003665216"><ele>21.0</ele><time>2026-05-01T10:36:04Z</time></trkpt><trkpt lat="44.37794104956824" lon="15.2669233591126"><ele>21.0</ele><time>2026-05-01T10:36:05Z</time></trkpt><trkpt lat="44.377916449481894" lon="15.267122774367445"><ele>21.0</ele><time>2026-05-01T10:36:06Z</time></trkpt><trkpt lat="44.37785226706601" lon="15.267319430327495"><ele>24.666666666666664</ele><time>2026-05-01T10:36:07Z</time></trkpt><trkpt lat="44.377752705050995" lon="15.267483480263493"><ele>28.333333333333332</ele><time>2026-05-01T10:36:08Z</time></trkpt><trkpt lat="44.37762690786173" lon="15.267607837032438"><ele>32.0</ele><time>2026-05-01T10:36:09Z</time></trkpt><trkpt lat="44.37746535267539" lon="15.267676270791764"><ele>32.0</ele><time>2026-05-01T10:36:10Z</time></trkpt><trkpt lat="44.377293149202394" lon="15.267701031650983"><ele>32.0</ele><time>2026-05-01T10:36:11Z</time></trkpt><trkpt lat="44.377130517140685" lon="15.267713385742752"><ele>32.0</ele><time>2026-05-01T10:36:12Z</time></trkpt><trkpt lat="44.37696506714665" lon="15.267736845015012"><ele>29.333333333333332</ele><time>2026-05-01T10:36:13Z</time></trkpt><trkpt lat="44.37679135284" lon="15.267778992264084"><ele>26.666666666666664</ele><time>2026-05-01T10:36:14Z</time></trkpt><trkpt lat="44.376611445518925" lon="15.26786286510966"><ele>24.0</ele><time>2026-05-01T10:36:15Z</time></trkpt><trkpt lat="44.37643304756639" lon="15.267997517886997"><ele>24.0</ele><time>2026-05-01T10:36:16Z</time></trkpt><trkpt lat="44.37624327358736" lon="15.268177497371566"><ele>24.0</ele><time>2026-05-01T10:36:17Z</time></trkpt><trkpt lat="44.3760245298065" lon="15.268363605410165"><ele>24.0</ele><time>2026-05-01T10:36:18Z</time></trkpt><trkpt lat="44.37580003557681" lon="15.268535460698521"><ele>24.0</ele><time>2026-05-01T10:36:19Z</time></trkpt><trkpt lat="44.37557474774398" lon="15.268703502638797"><ele>25.0</ele><time>2026-05-01T10:36:20Z</time></trkpt><trkpt lat="44.37534150472786" lon="15.268868689621167"><ele>26.0</ele><time>2026-05-01T10:36:21Z</time></trkpt><trkpt lat="44.37510368003956" lon="15.26903736017176"><ele>26.0</ele><time>2026-05-01T10:36:22Z</time></trkpt><trkpt lat="44.37486100317689" lon="15.26921895531283"><ele>26.0</ele><time>2026-05-01T10:36:23Z</time></trkpt><trkpt lat="44.374616665898934" lon="15.269408848316655"><ele>18.5</ele><time>2026-05-01T10:36:24Z</time></trkpt><trkpt lat="44.37438459745137" lon="15.26959140384771"><ele>11.0</ele><time>2026-05-01T10:36:25Z</time></trkpt><trkpt lat="44.37417113502113" lon="15.269762256699618"><ele>10.0</ele><time>2026-05-01T10:36:26Z</time></trkpt><trkpt lat="44.37397608508042" lon="15.269932443642556"><ele>9.0</ele><time>2026-05-01T10:36:27Z</time></trkpt><trkpt lat="44.37379843729704" lon="15.270137241139315"><ele>9.0</ele><time>2026-05-01T10:36:28Z</time></trkpt><trkpt lat="44.373644905002635" lon="15.270379438259875"><ele>9.0</ele><time>2026-05-01T10:36:29Z</time></trkpt><trkpt lat="44.37351263866922" lon="15.270647905154082"><ele>11.0</ele><time>2026-05-01T10:36:30Z</time></trkpt><trkpt lat="44.373390407196055" lon="15.270932111246843"><ele>13.0</ele><time>2026-05-01T10:36:31Z</time></trkpt><trkpt lat="44.373272212780016" lon="15.271212438186097"><ele>19.0</ele><time>2026-05-01T10:36:32Z</time></trkpt><trkpt lat="44.3731504306836" lon="15.271495553786604"><ele>25.0</ele><time>2026-05-01T10:36:33Z</time></trkpt><trkpt lat="44.37302911126522" lon="15.27177344686218"><ele>21.333333333333336</ele><time>2026-05-01T10:36:34Z</time></trkpt><trkpt lat="44.37290948638528" lon="15.27204324433036"><ele>17.666666666666668</ele><time>2026-05-01T10:36:35Z</time></trkpt><trkpt lat="44.372799217794075" lon="15.272294970659617"><ele>14.0</ele><time>2026-05-01T10:36:36Z</time></trkpt><trkpt lat="44.372683079926894" lon="15.272545011875748"><ele>14.0</ele><time>2026-05-01T10:36:37Z</time></trkpt><trkpt lat="44.37255440731051" lon="15.272787513366179"><ele>14.0</ele><time>2026-05-01T10:36:38Z</time></trkpt><trkpt lat="44.372402729574496" lon="15.273009931155448"><ele>14.0</ele><time>2026-05-01T10:36:39Z</time></trkpt><trkpt lat="44.3722173133114" lon="15.273186250422194"><ele>17.0</ele><time>2026-05-01T10:36:40Z</time></trkpt><trkpt lat="44.372005109176186" lon="15.273291118708315"><ele>20.0</ele><time>2026-05-01T10:36:41Z</time></trkpt><trkpt lat="44.37178105614394" lon="15.273335654806703"><ele>20.0</ele><time>2026-05-01T10:36:42Z</time></trkpt><trkpt lat="44.37157459360582" lon="15.273402064951298"><ele>20.0</ele><time>2026-05-01T10:36:43Z</time></trkpt><trkpt lat="44.37136430415721" lon="15.273492510882917"><ele>20.0</ele><time>2026-05-01T10:36:44Z</time></trkpt><trkpt lat="44.37115764147132" lon="15.273598361173569"><ele>21.0</ele><time>2026-05-01T10:36:45Z</time></trkpt><trkpt lat="44.37096811244627" lon="15.273765073370667"><ele>22.0</ele><time>2026-05-01T10:36:46Z</time></trkpt><trkpt lat="44.37079181506846" lon="15.273965555359746"><ele>22.0</ele><time>2026-05-01T10:36:47Z</time></trkpt><trkpt lat="44.370617034758936" lon="15.274186980280273"><ele>22.0</ele><time>2026-05-01T10:36:48Z</time></trkpt><trkpt lat="44.37043510335717" lon="15.274394552113769"><ele>17.0</ele><time>2026-05-01T10:36:49Z</time></trkpt><trkpt lat="44.37023726875935" lon="15.274591898474519"><ele>12.0</ele><time>2026-05-01T10:36:50Z</time></trkpt><trkpt lat="44.37002632204087" lon="15.274777478582456"><ele>12.0</ele><time>2026-05-01T10:36:51Z</time></trkpt><trkpt lat="44.3697999491233" lon="15.274942474261602"><ele>12.0</ele><time>2026-05-01T10:36:52Z</time></trkpt><trkpt lat="44.369563639347774" lon="15.27508910940035"><ele>10.0</ele><time>2026-05-01T10:36:53Z</time></trkpt><trkpt lat="44.36934556042978" lon="15.275224498262808"><ele>8.0</ele><time>2026-05-01T10:36:54Z</time></trkpt><trkpt lat="44.36914018673658" lon="15.275361471860766"><ele>8.0</ele><time>2026-05-01T10:36:55Z</time></trkpt><trkpt lat="44.36893691818697" lon="15.275496731169904"><ele>8.0</ele><time>2026-05-01T10:36:56Z</time></trkpt><trkpt lat="44.36872005557542" lon="15.275634841726237"><ele>11.0</ele><time>2026-05-01T10:36:57Z</time></trkpt><trkpt lat="44.368490952873316" lon="15.275780385544078"><ele>14.0</ele><time>2026-05-01T10:36:58Z</time></trkpt><trkpt lat="44.36824970304196" lon="15.275936669883173"><ele>7.5</ele><time>2026-05-01T10:36:59Z</time></trkpt><trkpt lat="44.36800870641224" lon="15.276091034469877"><ele>1.0</ele><time>2026-05-01T10:37:00Z</time></trkpt><trkpt lat="44.36776541209565" lon="15.276237704594278"><ele>1.0</ele><time>2026-05-01T10:37:01Z</time></trkpt><trkpt lat="44.36752002775165" lon="15.276406179681846"><ele>1.0</ele><time>2026-05-01T10:37:02Z</time></trkpt><trkpt lat="44.367264616015824" lon="15.27659505864296"><ele>3.0</ele><time>2026-05-01T10:37:03Z</time></trkpt><trkpt lat="44.366991032764844" lon="15.276829388886611"><ele>5.0</ele><time>2026-05-01T10:37:04Z</time></trkpt><trkpt lat="44.36669272005979" lon="15.277103122224723"><ele>5.5</ele><time>2026-05-01T10:37:05Z</time></trkpt><trkpt lat="44.36640058938993" lon="15.27738200489733"><ele>6.0</ele><time>2026-05-01T10:37:06Z</time></trkpt><trkpt lat="44.36613871898984" lon="15.277631395950102"><ele>6.0</ele><time>2026-05-01T10:37:07Z</time></trkpt><trkpt lat="44.36590082773405" lon="15.27786226955714"><ele>6.0</ele><time>2026-05-01T10:37:08Z</time></trkpt><trkpt lat="44.365692322361824" lon="15.27810729576401"><ele>3.5</ele><time>2026-05-01T10:37:09Z</time></trkpt><trkpt lat="44.365508704398714" lon="15.278383971017492"><ele>1.0</ele><time>2026-05-01T10:37:10Z</time></trkpt><trkpt lat="44.36536507833623" lon="15.278676502990093"><ele>4.5</ele><time>2026-05-01T10:37:11Z</time></trkpt><trkpt lat="44.36525552295237" lon="15.278976405216028"><ele>8.0</ele><time>2026-05-01T10:37:12Z</time></trkpt><trkpt lat="44.3651664147775" lon="15.279279340824356"><ele>8.0</ele><time>2026-05-01T10:37:13Z</time></trkpt><trkpt lat="44.365085112913384" lon="15.279570690801187"><ele>8.0</ele><time>2026-05-01T10:37:14Z</time></trkpt><trkpt lat="44.36501546932228" lon="15.279843235641009"><ele>8.0</ele><time>2026-05-01T10:37:15Z</time></trkpt><trkpt lat="44.36496803634605" lon="15.280090128272477"><ele>9.666666666666666</ele><time>2026-05-01T10:37:16Z</time></trkpt><trkpt lat="44.36495895496087" lon="15.280329277736833"><ele>11.333333333333332</ele><time>2026-05-01T10:37:17Z</time></trkpt><trkpt lat="44.365004232948735" lon="15.280547594475523"><ele>13.0</ele><time>2026-05-01T10:37:18Z</time></trkpt><trkpt lat="44.36508947756595" lon="15.280743726304637"><ele>13.0</ele><time>2026-05-01T10:37:19Z</time></trkpt><trkpt lat="44.36519422338546" lon="15.280917082722825"><ele>13.0</ele><time>2026-05-01T10:37:20Z</time></trkpt><trkpt lat="44.36531810405137" lon="15.281075273878193"><ele>13.0</ele><time>2026-05-01T10:37:21Z</time></trkpt><trkpt lat="44.365449564001146" lon="15.281220294537976"><ele>14.333333333333332</ele><time>2026-05-01T10:37:22Z</time></trkpt><trkpt lat="44.36557721529815" lon="15.281358507321817"><ele>15.666666666666668</ele><time>2026-05-01T10:37:23Z</time></trkpt><trkpt lat="44.365705929706394" lon="15.281502389427416"><ele>17.0</ele><time>2026-05-01T10:37:24Z</time></trkpt><trkpt lat="44.365830084379326" lon="15.281649718570968"><ele>17.0</ele><time>2026-05-01T10:37:25Z</time></trkpt><trkpt lat="44.36595040745504" lon="15.281791509933685"><ele>17.0</ele><time>2026-05-01T10:37:26Z</time></trkpt><trkpt lat="44.366063350257825" lon="15.281917977087543"><ele>17.0</ele><time>2026-05-01T10:37:27Z</time></trkpt><trkpt lat="44.36616961868219" lon="15.282037722420203"><ele>17.0</ele><time>2026-05-01T10:37:28Z</time></trkpt><trkpt lat="44.366265054272546" lon="15.282157834061096"><ele>15.0</ele><time>2026-05-01T10:37:29Z</time></trkpt><trkpt lat="44.36633775861936" lon="15.282287704299062"><ele>13.0</ele><time>2026-05-01T10:37:30Z</time></trkpt><trkpt lat="44.36636080606459" lon="15.282414092505126"><ele>11.0</ele><time>2026-05-01T10:37:31Z</time></trkpt><trkpt lat="44.36634804566226" lon="15.282545252683839"><ele>9.0</ele><time>2026-05-01T10:37:32Z</time></trkpt><trkpt lat="44.366310707856975" lon="15.28266707381691"><ele>7.0</ele><time>2026-05-01T10:37:33Z</time></trkpt><trkpt lat="44.36623801479589" lon="15.282767839791193"><ele>7.0</ele><time>2026-05-01T10:37:34Z</time></trkpt><trkpt lat="44.36613697393231" lon="15.282830486092687"><ele>7.0</ele><time>2026-05-01T10:37:35Z</time></trkpt><trkpt lat="44.36602283089786" lon="15.282856325466868"><ele>7.0</ele><time>2026-05-01T10:37:36Z</time></trkpt><trkpt lat="44.365893535778454" lon="15.282837589516557"><ele>7.0</ele><time>2026-05-01T10:37:37Z</time></trkpt><trkpt lat="44.36575760996929" lon="15.282784035847712"><ele>7.0</ele><time>2026-05-01T10:37:38Z</time></trkpt><trkpt lat="44.36560307744452" lon="15.282725258348455"><ele>7.0</ele><time>2026-05-01T10:37:39Z</time></trkpt><trkpt lat="44.36543020407348" lon="15.2826653351617"><ele>7.0</ele><time>2026-05-01T10:37:40Z</time></trkpt><trkpt lat="44.3652659676156" lon="15.282607111512977"><ele>8.666666666666668</ele><time>2026-05-01T10:37:41Z</time></trkpt><trkpt lat="44.365121648106765" lon="15.282558022861792"><ele>10.333333333333334</ele><time>2026-05-01T10:37:42Z</time></trkpt><trkpt lat="44.36497697727252" lon="15.282509342717658"><ele>12.0</ele><time>2026-05-01T10:37:43Z</time></trkpt><trkpt lat="44.364822738573956" lon="15.2824634435933"><ele>12.333333333333332</ele><time>2026-05-01T10:37:44Z</time></trkpt><trkpt lat="44.36466492813727" lon="15.282426611119204"><ele>12.666666666666666</ele><time>2026-05-01T10:37:45Z</time></trkpt><trkpt lat="44.36450818683451" lon="15.282409608119533"><ele>13.0</ele><time>2026-05-01T10:37:46Z</time></trkpt><trkpt lat="44.364349122283855" lon="15.282417936165155"><ele>13.0</ele><time>2026-05-01T10:37:47Z</time></trkpt><trkpt lat="44.36418695771732" lon="15.282446156783971"><ele>13.0</ele><time>2026-05-01T10:37:48Z</time></trkpt><trkpt lat="44.36402403519644" lon="15.282494171218099"><ele>13.0</ele><time>2026-05-01T10:37:49Z</time></trkpt><trkpt lat="44.36386405004668" lon="15.282556336011435"><ele>10.333333333333332</ele><time>2026-05-01T10:37:50Z</time></trkpt><trkpt lat="44.36371524691287" lon="15.282637707329682"><ele>7.666666666666666</ele><time>2026-05-01T10:37:51Z</time></trkpt><trkpt lat="44.363571990192064" lon="15.282738295294369"><ele>5.0</ele><time>2026-05-01T10:37:52Z</time></trkpt><trkpt lat="44.363437787104615" lon="15.282861644256384"><ele>5.0</ele><time>2026-05-01T10:37:53Z</time></trkpt><trkpt lat="44.36330926775694" lon="15.283000720212467"><ele>5.0</ele><time>2026-05-01T10:37:54Z</time></trkpt><trkpt lat="44.363177811780865" lon="15.283158223951723"><ele>5.0</ele><time>2026-05-01T10:37:55Z</time></trkpt><trkpt lat="44.3630363364768" lon="15.283345386448172"><ele>5.5</ele><time>2026-05-01T10:37:56Z</time></trkpt><trkpt lat="44.36287644472617" lon="15.283580396160975"><ele>6.0</ele><time>2026-05-01T10:37:57Z</time></trkpt><trkpt lat="44.36268406613238" lon="15.283823472670926"><ele>8.333333333333332</ele><time>2026-05-01T10:37:58Z</time></trkpt><trkpt lat="44.362504575572345" lon="15.284015611651741"><ele>10.666666666666666</ele><time>2026-05-01T10:37:59Z</time></trkpt><trkpt lat="44.36235361317286" lon="15.284194004219417"><ele>13.0</ele><time>2026-05-01T10:38:00Z</time></trkpt><trkpt lat="44.36221628199436" lon="15.284373202028858"><ele>11.333333333333332</ele><time>2026-05-01T10:38:01Z</time></trkpt><trkpt lat="44.362081770622005" lon="15.284558623528673"><ele>9.666666666666666</ele><time>2026-05-01T10:38:02Z</time></trkpt><trkpt lat="44.36193595243012" lon="15.284746703028377"><ele>8.0</ele><time>2026-05-01T10:38:03Z</time></trkpt><trkpt lat="44.361802724879816" lon="15.284924147828225"><ele>8.0</ele><time>2026-05-01T10:38:04Z</time></trkpt><trkpt lat="44.36168057222444" lon="15.285102050174796"><ele>8.0</ele><time>2026-05-01T10:38:05Z</time></trkpt><trkpt lat="44.36157757224744" lon="15.285293975620958"><ele>8.0</ele><time>2026-05-01T10:38:06Z</time></trkpt><trkpt lat="44.36149786116027" lon="15.285489117535777"><ele>11.0</ele><time>2026-05-01T10:38:07Z</time></trkpt><trkpt lat="44.361443015530035" lon="15.285695123417204"><ele>14.0</ele><time>2026-05-01T10:38:08Z</time></trkpt><trkpt lat="44.361404467581345" lon="15.285898650559806"><ele>17.0</ele><time>2026-05-01T10:38:09Z</time></trkpt><trkpt lat="44.36137550888963" lon="15.28609729042611"><ele>17.75</ele><time>2026-05-01T10:38:10Z</time></trkpt><trkpt lat="44.361362691701615" lon="15.286295530860924"><ele>18.5</ele><time>2026-05-01T10:38:11Z</time></trkpt><trkpt lat="44.361362250240845" lon="15.28649421518406"><ele>19.25</ele><time>2026-05-01T10:38:12Z</time></trkpt><trkpt lat="44.36137282764538" lon="15.28668368798238"><ele>20.0</ele><time>2026-05-01T10:38:13Z</time></trkpt><trkpt lat="44.36139699712892" lon="15.286882657264353"><ele>20.0</ele><time>2026-05-01T10:38:14Z</time></trkpt><trkpt lat="44.36143769935741" lon="15.287085289903173"><ele>20.0</ele><time>2026-05-01T10:38:15Z</time></trkpt><trkpt lat="44.361490285549294" lon="15.287272438874577"><ele>20.0</ele><time>2026-05-01T10:38:16Z</time></trkpt><trkpt lat="44.361560190147316" lon="15.287443640406359"><ele>20.0</ele><time>2026-05-01T10:38:17Z</time></trkpt><trkpt lat="44.36163982253405" lon="15.28760440931849"><ele>19.25</ele><time>2026-05-01T10:38:18Z</time></trkpt><trkpt lat="44.361727440557274" lon="15.287761348817689"><ele>18.5</ele><time>2026-05-01T10:38:19Z</time></trkpt><trkpt lat="44.36182334664343" lon="15.28790749935123"><ele>17.75</ele><time>2026-05-01T10:38:20Z</time></trkpt><trkpt lat="44.36192995320766" lon="15.28803949531414"><ele>17.0</ele><time>2026-05-01T10:38:21Z</time></trkpt><trkpt lat="44.362050264967564" lon="15.288159311179523"><ele>17.0</ele><time>2026-05-01T10:38:22Z</time></trkpt><trkpt lat="44.362172537582616" lon="15.288265899660209"><ele>17.0</ele><time>2026-05-01T10:38:23Z</time></trkpt><trkpt lat="44.36229235795607" lon="15.288367287927253"><ele>17.0</ele><time>2026-05-01T10:38:24Z</time></trkpt><trkpt lat="44.362415026463204" lon="15.288467755687805"><ele>17.0</ele><time>2026-05-01T10:38:25Z</time></trkpt><trkpt lat="44.36253429929777" lon="15.288561854915406"><ele>17.0</ele><time>2026-05-01T10:38:26Z</time></trkpt><trkpt lat="44.362652324117036" lon="15.288654068472427"><ele>17.0</ele><time>2026-05-01T10:38:27Z</time></trkpt><trkpt lat="44.362769108463425" lon="15.28874835314211"><ele>17.0</ele><time>2026-05-01T10:38:28Z</time></trkpt><trkpt lat="44.36287964186424" lon="15.28883927909963"><ele>17.0</ele><time>2026-05-01T10:38:29Z</time></trkpt><trkpt lat="44.362985310393874" lon="15.2889213176264"><ele>16.0</ele><time>2026-05-01T10:38:30Z</time></trkpt><trkpt lat="44.36308110438627" lon="15.288998954407033"><ele>15.0</ele><time>2026-05-01T10:38:31Z</time></trkpt><trkpt lat="44.36317032887793" lon="15.289080121000696"><ele>14.0</ele><time>2026-05-01T10:38:32Z</time></trkpt><trkpt lat="44.36325491107682" lon="15.28916117122258"><ele>13.0</ele><time>2026-05-01T10:38:33Z</time></trkpt><trkpt lat="44.36333622576448" lon="15.289247293636231"><ele>12.0</ele><time>2026-05-01T10:38:34Z</time></trkpt><trkpt lat="44.36340333632686" lon="15.289341194211026"><ele>12.0</ele><time>2026-05-01T10:38:35Z</time></trkpt><trkpt lat="44.36345247205165" lon="15.289445942052925"><ele>12.0</ele><time>2026-05-01T10:38:36Z</time></trkpt><trkpt lat="44.36348583126957" lon="15.28956434437047"><ele>12.0</ele><time>2026-05-01T10:38:37Z</time></trkpt><trkpt lat="44.363503078330695" lon="15.28968270896473"><ele>12.0</ele><time>2026-05-01T10:38:38Z</time></trkpt><trkpt lat="44.36351188696006" lon="15.289807393723638"><ele>12.0</ele><time>2026-05-01T10:38:39Z</time></trkpt><trkpt lat="44.36351389978298" lon="15.289930550758948"><ele>12.0</ele><time>2026-05-01T10:38:40Z</time></trkpt><trkpt lat="44.3635062719125" lon="15.290060575389086"><ele>10.2</ele><time>2026-05-01T10:38:41Z</time></trkpt><trkpt lat="44.36349290743444" lon="15.290189662218154"><ele>8.399999999999999</ele><time>2026-05-01T10:38:42Z</time></trkpt><trkpt lat="44.363468551558995" lon="15.290318172183511"><ele>6.6</ele><time>2026-05-01T10:38:43Z</time></trkpt><trkpt lat="44.36341334553259" lon="15.29042787590754"><ele>4.8</ele><time>2026-05-01T10:38:44Z</time></trkpt><trkpt lat="44.36332878442793" lon="15.290524020428208"><ele>3.0</ele><time>2026-05-01T10:38:45Z</time></trkpt><trkpt lat="44.36322553683298" lon="15.290586010138748"><ele>4.5</ele><time>2026-05-01T10:38:46Z</time></trkpt><trkpt lat="44.36310597708012" lon="15.290622102431666"><ele>6.0</ele><time>2026-05-01T10:38:47Z</time></trkpt><trkpt lat="44.36298235364697" lon="15.290639686498812"><ele>7.5</ele><time>2026-05-01T10:38:48Z</time></trkpt><trkpt lat="44.362861578124516" lon="15.290660666836493"><ele>9.0</ele><time>2026-05-01T10:38:49Z</time></trkpt><trkpt lat="44.36274094870154" lon="15.290690384249025"><ele>9.0</ele><time>2026-05-01T10:38:50Z</time></trkpt><trkpt lat="44.3626175272445" lon="15.290723332585676"><ele>9.0</ele><time>2026-05-01T10:38:51Z</time></trkpt><trkpt lat="44.36250122286606" lon="15.290753627269655"><ele>9.0</ele><time>2026-05-01T10:38:52Z</time></trkpt><trkpt lat="44.362386795032926" lon="15.290776634486964"><ele>9.0</ele><time>2026-05-01T10:38:53Z</time></trkpt><trkpt lat="44.36226951994232" lon="15.290796932708677"><ele>8.0</ele><time>2026-05-01T10:38:54Z</time></trkpt><trkpt lat="44.36214184409885" lon="15.290815291591692"><ele>7.0</ele><time>2026-05-01T10:38:55Z</time></trkpt><trkpt lat="44.36200248134578" lon="15.290828397445248"><ele>6.0</ele><time>2026-05-01T10:38:56Z</time></trkpt><trkpt lat="44.361864207474724" lon="15.290847494441422"><ele>5.0</ele><time>2026-05-01T10:38:57Z</time></trkpt><trkpt lat="44.36173116102195" lon="15.29087028290723"><ele>5.0</ele><time>2026-05-01T10:38:58Z</time></trkpt><trkpt lat="44.361598132428576" lon="15.290893091731231"><ele>5.0</ele><time>2026-05-01T10:38:59Z</time></trkpt><trkpt lat="44.36145908533428" lon="15.290920323181425"><ele>5.0</ele><time>2026-05-01T10:39:00Z</time></trkpt><trkpt lat="44.36132091292259" lon="15.29095057356884"><ele>5.0</ele><time>2026-05-01T10:39:01Z</time></trkpt><trkpt lat="44.361188356484554" lon="15.291008107698111"><ele>5.75</ele><time>2026-05-01T10:39:02Z</time></trkpt><trkpt lat="44.36107021774478" lon="15.291097705853769"><ele>6.5</ele><time>2026-05-01T10:39:03Z</time></trkpt><trkpt lat="44.36097721767675" lon="15.291222455816309"><ele>7.25</ele><time>2026-05-01T10:39:04Z</time></trkpt><trkpt lat="44.36090114061549" lon="15.291367712277824"><ele>8.0</ele><time>2026-05-01T10:39:05Z</time></trkpt><trkpt lat="44.36083674871794" lon="15.291524398302522"><ele>8.0</ele><time>2026-05-01T10:39:06Z</time></trkpt><trkpt lat="44.36077588034271" lon="15.291680735976223"><ele>8.0</ele><time>2026-05-01T10:39:07Z</time></trkpt><trkpt lat="44.36071314794984" lon="15.29183800234369"><ele>8.0</ele><time>2026-05-01T10:39:08Z</time></trkpt><trkpt lat="44.36064621841763" lon="15.291996892736988"><ele>8.0</ele><time>2026-05-01T10:39:09Z</time></trkpt><trkpt lat="44.360570303240785" lon="15.292153571567198"><ele>6.5</ele><time>2026-05-01T10:39:10Z</time></trkpt><trkpt lat="44.36048902243212" lon="15.29230607739965"><ele>5.0</ele><time>2026-05-01T10:39:11Z</time></trkpt><trkpt lat="44.36039841856945" lon="15.292450699865825"><ele>3.5</ele><time>2026-05-01T10:39:12Z</time></trkpt><trkpt lat="44.360302201443545" lon="15.292587942962871"><ele>2.0</ele><time>2026-05-01T10:39:13Z</time></trkpt><trkpt lat="44.36020983343788" lon="15.292721551072963"><ele>2.0</ele><time>2026-05-01T10:39:14Z</time></trkpt><trkpt lat="44.360125631815166" lon="15.292846712084502"><ele>2.0</ele><time>2026-05-01T10:39:15Z</time></trkpt><trkpt lat="44.36004304012754" lon="15.292973574196033"><ele>2.0</ele><time>2026-05-01T10:39:16Z</time></trkpt><trkpt lat="44.35997162702144" lon="15.29310817279368"><ele>2.0</ele><time>2026-05-01T10:39:17Z</time></trkpt><trkpt lat="44.359910829672096" lon="15.293257639862057"><ele>3.25</ele><time>2026-05-01T10:39:18Z</time></trkpt><trkpt lat="44.35986098321012" lon="15.293421515074456"><ele>4.5</ele><time>2026-05-01T10:39:19Z</time></trkpt><trkpt lat="44.359834942529915" lon="15.293599686784153"><ele>5.75</ele><time>2026-05-01T10:39:20Z</time></trkpt><trkpt lat="44.35984361750481" lon="15.293774903777718"><ele>7.0</ele><time>2026-05-01T10:39:21Z</time></trkpt><trkpt lat="44.35988065148335" lon="15.293937225909078"><ele>7.0</ele><time>2026-05-01T10:39:22Z</time></trkpt><trkpt lat="44.35993268582052" lon="15.294090346034924"><ele>7.0</ele><time>2026-05-01T10:39:23Z</time></trkpt><trkpt lat="44.36000381172202" lon="15.294215487060281"><ele>7.0</ele><time>2026-05-01T10:39:24Z</time></trkpt><trkpt lat="44.36009043880948" lon="15.294319918411377"><ele>7.0</ele><time>2026-05-01T10:39:25Z</time></trkpt><trkpt lat="44.36018882625121" lon="15.294385956332025"><ele>7.0</ele><time>2026-05-01T10:39:26Z</time></trkpt><trkpt lat="44.36029849270074" lon="15.294432437193674"><ele>7.0</ele><time>2026-05-01T10:39:27Z</time></trkpt><trkpt lat="44.36040869496892" lon="15.29446674686701"><ele>7.0</ele><time>2026-05-01T10:39:28Z</time></trkpt><trkpt lat="44.36053046834622" lon="15.294486409771507"><ele>7.0</ele><time>2026-05-01T10:39:29Z</time></trkpt><trkpt lat="44.360643968022785" lon="15.294503148793574"><ele>12.0</ele><time>2026-05-01T10:39:30Z</time></trkpt><trkpt lat="44.360763681011" lon="15.294514238935136"><ele>17.0</ele><time>2026-05-01T10:39:31Z</time></trkpt><trkpt lat="44.36088715233199" lon="15.294530752795827"><ele>22.0</ele><time>2026-05-01T10:39:32Z</time></trkpt><trkpt lat="44.361013843923566" lon="15.294559552248101"><ele>27.0</ele><time>2026-05-01T10:39:33Z</time></trkpt><trkpt lat="44.36114253797066" lon="15.294604968936355"><ele>27.0</ele><time>2026-05-01T10:39:34Z</time></trkpt><trkpt lat="44.361271596505205" lon="15.294669275439729"><ele>27.0</ele><time>2026-05-01T10:39:35Z</time></trkpt><trkpt lat="44.361392947632304" lon="15.29475515954942"><ele>27.0</ele><time>2026-05-01T10:39:36Z</time></trkpt><trkpt lat="44.361511907671364" lon="15.29485067717178"><ele>27.0</ele><time>2026-05-01T10:39:37Z</time></trkpt><trkpt lat="44.36162515881902" lon="15.294968757265643"><ele>24.25</ele><time>2026-05-01T10:39:38Z</time></trkpt><trkpt lat="44.36172717362647" lon="15.29509151389935"><ele>21.5</ele><time>2026-05-01T10:39:39Z</time></trkpt><trkpt lat="44.36182392494796" lon="15.295209586451046"><ele>18.75</ele><time>2026-05-01T10:39:40Z</time></trkpt><trkpt lat="44.36190812326501" lon="15.295316407653353"><ele>16.0</ele><time>2026-05-01T10:39:41Z</time></trkpt><trkpt lat="44.361980595358666" lon="15.295421738745569"><ele>16.0</ele><time>2026-05-01T10:39:42Z</time></trkpt><trkpt lat="44.362021844164815" lon="15.295534677337281"><ele>16.0</ele><time>2026-05-01T10:39:43Z</time></trkpt><trkpt lat="44.36203029431273" lon="15.29566033231091"><ele>16.0</ele><time>2026-05-01T10:39:44Z</time></trkpt><trkpt lat="44.36199622495695" lon="15.295778114929426"><ele>16.0</ele><time>2026-05-01T10:39:45Z</time></trkpt><trkpt lat="44.3619360364224" lon="15.295876012527339"><ele>16.0</ele><time>2026-05-01T10:39:46Z</time></trkpt><trkpt lat="44.36185247730338" lon="15.29594235269132"><ele>15.600000000000001</ele><time>2026-05-01T10:39:47Z</time></trkpt><trkpt lat="44.36175831107991" lon="15.295957094501311"><ele>15.200000000000001</ele><time>2026-05-01T10:39:48Z</time></trkpt><trkpt lat="44.36166961784424" lon="15.295945515597028"><ele>14.799999999999999</ele><time>2026-05-01T10:39:49Z</time></trkpt><trkpt lat="44.36158532271371" lon="15.295923738677153"><ele>14.399999999999999</ele><time>2026-05-01T10:39:50Z</time></trkpt><trkpt lat="44.36149286972838" lon="15.295905622765932"><ele>14.0</ele><time>2026-05-01T10:39:51Z</time></trkpt><trkpt lat="44.361396207411" lon="15.295900438657409"><ele>12.5</ele><time>2026-05-01T10:39:52Z</time></trkpt><trkpt lat="44.361290356250336" lon="15.295902860348324"><ele>11.0</ele><time>2026-05-01T10:39:53Z</time></trkpt><trkpt lat="44.36118162918926" lon="15.295936366713265"><ele>9.5</ele><time>2026-05-01T10:39:54Z</time></trkpt><trkpt lat="44.36106626875329" lon="15.296001070922156"><ele>8.0</ele><time>2026-05-01T10:39:55Z</time></trkpt><trkpt lat="44.36096093224371" lon="15.296087680232205"><ele>8.0</ele><time>2026-05-01T10:39:56Z</time></trkpt><trkpt lat="44.36086040271602" lon="15.296176474476775"><ele>8.0</ele><time>2026-05-01T10:39:57Z</time></trkpt><trkpt lat="44.360761561009774" lon="15.29625926442126"><ele>8.0</ele><time>2026-05-01T10:39:58Z</time></trkpt><trkpt lat="44.360661136015224" lon="15.296346119953494"><ele>8.0</ele><time>2026-05-01T10:39:59Z</time></trkpt><trkpt lat="44.36055802877772" lon="15.29643229192024"><ele>7.0</ele><time>2026-05-01T10:40:00Z</time></trkpt><trkpt lat="44.36045914162523" lon="15.296521593340623"><ele>6.0</ele><time>2026-05-01T10:40:01Z</time></trkpt><trkpt lat="44.36036542306387" lon="15.296620794465953"><ele>5.0</ele><time>2026-05-01T10:40:02Z</time></trkpt><trkpt lat="44.36028206439639" lon="15.296734500066538"><ele>4.0</ele><time>2026-05-01T10:40:03Z</time></trkpt><trkpt lat="44.36021313478904" lon="15.29686803488621"><ele>4.0</ele><time>2026-05-01T10:40:04Z</time></trkpt><trkpt lat="44.36016509576849" lon="15.297014039733327"><ele>4.0</ele><time>2026-05-01T10:40:05Z</time></trkpt><trkpt lat="44.36013534847153" lon="15.29717108724574"><ele>4.0</ele><time>2026-05-01T10:40:06Z</time></trkpt><trkpt lat="44.36011882443905" lon="15.297341153384105"><ele>4.0</ele><time>2026-05-01T10:40:07Z</time></trkpt><trkpt lat="44.36011630240723" lon="15.297519542098406"><ele>6.0</ele><time>2026-05-01T10:40:08Z</time></trkpt><trkpt lat="44.36012005114906" lon="15.297704480774145"><ele>8.0</ele><time>2026-05-01T10:40:09Z</time></trkpt><trkpt lat="44.36012183915879" lon="15.297881533459913"><ele>10.0</ele><time>2026-05-01T10:40:10Z</time></trkpt><trkpt lat="44.36011820719592" lon="15.298048059082634"><ele>12.0</ele><time>2026-05-01T10:40:11Z</time></trkpt><trkpt lat="44.360101143972905" lon="15.298198711729373"><ele>12.75</ele><time>2026-05-01T10:40:12Z</time></trkpt><trkpt lat="44.36005578188499" lon="15.298348574176352"><ele>13.5</ele><time>2026-05-01T10:40:13Z</time></trkpt><trkpt lat="44.35997504508803" lon="15.298475789212967"><ele>14.25</ele><time>2026-05-01T10:40:14Z</time></trkpt><trkpt lat="44.359868139606355" lon="15.298566359818299"><ele>15.0</ele><time>2026-05-01T10:40:15Z</time></trkpt><trkpt lat="44.359741943286245" lon="15.298614520112643"><ele>11.75</ele><time>2026-05-01T10:40:16Z</time></trkpt><trkpt lat="44.35960648544629" lon="15.298630920316365"><ele>8.5</ele><time>2026-05-01T10:40:17Z</time></trkpt><trkpt lat="44.35947261858334" lon="15.298656399854115"><ele>5.25</ele><time>2026-05-01T10:40:18Z</time></trkpt><trkpt lat="44.35935182714575" lon="15.298693149395243"><ele>2.0</ele><time>2026-05-01T10:40:19Z</time></trkpt><trkpt lat="44.35923344330299" lon="15.298751750055466"><ele>2.0</ele><time>2026-05-01T10:40:20Z</time></trkpt><trkpt lat="44.35912466964503" lon="15.298844382188392"><ele>2.0</ele><time>2026-05-01T10:40:21Z</time></trkpt><trkpt lat="44.35903886301645" lon="15.29895709591561"><ele>2.0</ele><time>2026-05-01T10:40:22Z</time></trkpt><trkpt lat="44.35896648009436" lon="15.299077786182258"><ele>2.0</ele><time>2026-05-01T10:40:23Z</time></trkpt><trkpt lat="44.35889011311875" lon="15.299237091087774"><ele>1.6666666666666665</ele><time>2026-05-01T10:40:24Z</time></trkpt><trkpt lat="44.35880424423206" lon="15.29944220701255"><ele>1.3333333333333333</ele><time>2026-05-01T10:40:25Z</time></trkpt><trkpt lat="44.35870526595344" lon="15.299670321695945"><ele>1.0</ele><time>2026-05-01T10:40:26Z</time></trkpt><trkpt lat="44.35858766042005" lon="15.299912427592856"><ele>2.5</ele><time>2026-05-01T10:40:27Z</time></trkpt><trkpt lat="44.35845103539874" lon="15.300156286188937"><ele>4.0</ele><time>2026-05-01T10:40:28Z</time></trkpt><trkpt lat="44.35831722899601" lon="15.300431594199754"><ele>8.5</ele><time>2026-05-01T10:40:29Z</time></trkpt><trkpt lat="44.35820521603966" lon="15.300727675757544"><ele>13.0</ele><time>2026-05-01T10:40:30Z</time></trkpt><trkpt lat="44.35811083264526" lon="15.301015455188113"><ele>13.0</ele><time>2026-05-01T10:40:31Z</time></trkpt><trkpt lat="44.3580359887606" lon="15.30127239049612"><ele>13.0</ele><time>2026-05-01T10:40:32Z</time></trkpt><trkpt lat="44.357976084343" lon="15.30150736469015"><ele>13.0</ele><time>2026-05-01T10:40:33Z</time></trkpt><trkpt lat="44.35793163107995" lon="15.30172583572536"><ele>14.333333333333332</ele><time>2026-05-01T10:40:34Z</time></trkpt><trkpt lat="44.35792163518053" lon="15.301939550773984"><ele>15.666666666666668</ele><time>2026-05-01T10:40:35Z</time></trkpt><trkpt lat="44.357959094411946" lon="15.302155228854827"><ele>17.0</ele><time>2026-05-01T10:40:36Z</time></trkpt><trkpt lat="44.358039767898" lon="15.30235760782862"><ele>17.0</ele><time>2026-05-01T10:40:37Z</time></trkpt><trkpt lat="44.35815842932653" lon="15.302538222931016"><ele>17.0</ele><time>2026-05-01T10:40:38Z</time></trkpt><trkpt lat="44.3582977665752" lon="15.302690180100486"><ele>17.0</ele><time>2026-05-01T10:40:39Z</time></trkpt><trkpt lat="44.358436096568994" lon="15.302818310970009"><ele>17.0</ele><time>2026-05-01T10:40:40Z</time></trkpt><trkpt lat="44.358566902061916" lon="15.302948892520082"><ele>17.0</ele><time>2026-05-01T10:40:41Z</time></trkpt><trkpt lat="44.35868584906767" lon="15.30308669436905"><ele>17.0</ele><time>2026-05-01T10:40:42Z</time></trkpt><trkpt lat="44.35878876752592" lon="15.30323452510084"><ele>18.5</ele><time>2026-05-01T10:40:43Z</time></trkpt><trkpt lat="44.35886274442419" lon="15.303394226012852"><ele>20.0</ele><time>2026-05-01T10:40:44Z</time></trkpt><trkpt lat="44.35888901507218" lon="15.303556583724985"><ele>21.5</ele><time>2026-05-01T10:40:45Z</time></trkpt><trkpt lat="44.35886286936669" lon="15.303711638835935"><ele>23.0</ele><time>2026-05-01T10:40:46Z</time></trkpt><trkpt lat="44.35878177463832" lon="15.303827042935218"><ele>19.0</ele><time>2026-05-01T10:40:47Z</time></trkpt><trkpt lat="44.35866594571655" lon="15.303893532687976"><ele>15.0</ele><time>2026-05-01T10:40:48Z</time></trkpt><trkpt lat="44.35853571706617" lon="15.303907996008938"><ele>11.0</ele><time>2026-05-01T10:40:49Z</time></trkpt><trkpt lat="44.35840413433438" lon="15.303895869947956"><ele>7.0</ele><time>2026-05-01T10:40:50Z</time></trkpt><trkpt lat="44.35827051036555" lon="15.30387120176951"><ele>7.0</ele><time>2026-05-01T10:40:51Z</time></trkpt><trkpt lat="44.35813416521509" lon="15.303834721059259"><ele>7.0</ele><time>2026-05-01T10:40:52Z</time></trkpt><trkpt lat="44.35799577177131" lon="15.303799961063563"><ele>7.0</ele><time>2026-05-01T10:40:53Z</time></trkpt><trkpt lat="44.35785795056497" lon="15.303767450785406"><ele>7.0</ele><time>2026-05-01T10:40:54Z</time></trkpt><trkpt lat="44.357713191556776" lon="15.303742185159852"><ele>6.25</ele><time>2026-05-01T10:40:55Z</time></trkpt><trkpt lat="44.35756726438649" lon="15.303732890092663"><ele>5.5</ele><time>2026-05-01T10:40:56Z</time></trkpt><trkpt lat="44.35741750413256" lon="15.303739565807676"><ele>4.75</ele><time>2026-05-01T10:40:57Z</time></trkpt><trkpt lat="44.35726939440999" lon="15.3037792321533"><ele>4.0</ele><time>2026-05-01T10:40:58Z</time></trkpt><trkpt lat="44.35712386025264" lon="15.303853240443289"><ele>5.0</ele><time>2026-05-01T10:40:59Z</time></trkpt><trkpt lat="44.35698366194844" lon="15.303959527010706"><ele>6.0</ele><time>2026-05-01T10:41:00Z</time></trkpt><trkpt lat="44.35686318669187" lon="15.304106300698445"><ele>7.0</ele><time>2026-05-01T10:41:01Z</time></trkpt><trkpt lat="44.35675459464851" lon="15.304274239115765"><ele>7.0</ele><time>2026-05-01T10:41:02Z</time></trkpt><trkpt lat="44.35665939264523" lon="15.304464378871709"><ele>7.0</ele><time>2026-05-01T10:41:03Z</time></trkpt><trkpt lat="44.35658839647518" lon="15.304672896591354"><ele>7.0</ele><time>2026-05-01T10:41:04Z</time></trkpt><trkpt lat="44.35653971829497" lon="15.30490276107868"><ele>8.333333333333334</ele><time>2026-05-01T10:41:05Z</time></trkpt><trkpt lat="44.35651276402631" lon="15.305135626362572"><ele>9.666666666666666</ele><time>2026-05-01T10:41:06Z</time></trkpt><trkpt lat="44.35651132698863" lon="15.305372553482245"><ele>11.0</ele><time>2026-05-01T10:41:07Z</time></trkpt><trkpt lat="44.3565365298909" lon="15.30561245147096"><ele>11.333333333333332</ele><time>2026-05-01T10:41:08Z</time></trkpt><trkpt lat="44.356591827259756" lon="15.305838218186015"><ele>11.666666666666666</ele><time>2026-05-01T10:41:09Z</time></trkpt><trkpt lat="44.35666932975829" lon="15.306054350388765"><ele>12.0</ele><time>2026-05-01T10:41:10Z</time></trkpt><trkpt lat="44.35675481364795" lon="15.3062592884248"><ele>10.666666666666666</ele><time>2026-05-01T10:41:11Z</time></trkpt><trkpt lat="44.35683965859502" lon="15.306465768920152"><ele>9.333333333333332</ele><time>2026-05-01T10:41:12Z</time></trkpt><trkpt lat="44.35690836163664" lon="15.306662551741061"><ele>8.0</ele><time>2026-05-01T10:41:13Z</time></trkpt><trkpt lat="44.35693684426615" lon="15.30686259738066"><ele>8.0</ele><time>2026-05-01T10:41:14Z</time></trkpt><trkpt lat="44.356918911418354" lon="15.307062188275868"><ele>8.0</ele><time>2026-05-01T10:41:15Z</time></trkpt><trkpt lat="44.3568612767858" lon="15.30725889660476"><ele>8.0</ele><time>2026-05-01T10:41:16Z</time></trkpt><trkpt lat="44.35675843696595" lon="15.307406057604462"><ele>8.0</ele><time>2026-05-01T10:41:17Z</time></trkpt><trkpt lat="44.3566182905718" lon="15.307499796234392"><ele>9.333333333333332</ele><time>2026-05-01T10:41:18Z</time></trkpt><trkpt lat="44.356464468557675" lon="15.307540752662376"><ele>10.666666666666666</ele><time>2026-05-01T10:41:19Z</time></trkpt><trkpt lat="44.35631093096943" lon="15.30751396734265"><ele>12.0</ele><time>2026-05-01T10:41:20Z</time></trkpt><trkpt lat="44.356152024970974" lon="15.30744276054846"><ele>13.0</ele><time>2026-05-01T10:41:21Z</time></trkpt><trkpt lat="44.355988517933554" lon="15.307365362530595"><ele>14.0</ele><time>2026-05-01T10:41:22Z</time></trkpt><trkpt lat="44.35580739952144" lon="15.30730649179434"><ele>15.0</ele><time>2026-05-01T10:41:23Z</time></trkpt><trkpt lat="44.35561116573353" lon="15.307270382872243"><ele>14.0</ele><time>2026-05-01T10:41:24Z</time></trkpt><trkpt lat="44.3554193897788" lon="15.30726995833781"><ele>13.0</ele><time>2026-05-01T10:41:25Z</time></trkpt><trkpt lat="44.355236940038914" lon="15.307299453460487"><ele>12.0</ele><time>2026-05-01T10:41:26Z</time></trkpt><trkpt lat="44.35504918202632" lon="15.307360386874661"><ele>12.0</ele><time>2026-05-01T10:41:27Z</time></trkpt><trkpt lat="44.35486724702941" lon="15.307442122217315"><ele>12.0</ele><time>2026-05-01T10:41:28Z</time></trkpt><trkpt lat="44.354690601558204" lon="15.307525346354014"><ele>12.0</ele><time>2026-05-01T10:41:29Z</time></trkpt><trkpt lat="44.3545207145437" lon="15.30760600461144"><ele>11.0</ele><time>2026-05-01T10:41:30Z</time></trkpt><trkpt lat="44.354354037024535" lon="15.307676408736468"><ele>10.0</ele><time>2026-05-01T10:41:31Z</time></trkpt><trkpt lat="44.354197016631076" lon="15.30774217009779"><ele>9.0</ele><time>2026-05-01T10:41:32Z</time></trkpt><trkpt lat="44.354044428448326" lon="15.307813254504788"><ele>9.0</ele><time>2026-05-01T10:41:33Z</time></trkpt><trkpt lat="44.3538934302435" lon="15.307881365242471"><ele>9.0</ele><time>2026-05-01T10:41:34Z</time></trkpt><trkpt lat="44.3537514380705" lon="15.30794407860917"><ele>9.0</ele><time>2026-05-01T10:41:35Z</time></trkpt><trkpt lat="44.35360810451198" lon="15.308005851025932"><ele>7.5</ele><time>2026-05-01T10:41:36Z</time></trkpt><trkpt lat="44.353464749426806" lon="15.308068319782327"><ele>6.0</ele><time>2026-05-01T10:41:37Z</time></trkpt><trkpt lat="44.353323960619974" lon="15.308132452620727"><ele>4.5</ele><time>2026-05-01T10:41:38Z</time></trkpt><trkpt lat="44.353186585238795" lon="15.308193933765246"><ele>3.0</ele><time>2026-05-01T10:41:39Z</time></trkpt><trkpt lat="44.353052036772304" lon="15.308250753479305"><ele>6.75</ele><time>2026-05-01T10:41:40Z</time></trkpt><trkpt lat="44.35292509725817" lon="15.308303045054695"><ele>10.5</ele><time>2026-05-01T10:41:41Z</time></trkpt><trkpt lat="44.35279739802332" lon="15.308356751391772"><ele>14.25</ele><time>2026-05-01T10:41:42Z</time></trkpt><trkpt lat="44.352680206741546" lon="15.308410479845831"><ele>18.0</ele><time>2026-05-01T10:41:43Z</time></trkpt><trkpt lat="44.3525584630129" lon="15.30846286103216"><ele>18.0</ele><time>2026-05-01T10:41:44Z</time></trkpt><trkpt lat="44.352434992739795" lon="15.308516779847828"><ele>18.0</ele><time>2026-05-01T10:41:45Z</time></trkpt><trkpt lat="44.352311245422186" lon="15.308574765457708"><ele>18.0</ele><time>2026-05-01T10:41:46Z</time></trkpt><trkpt lat="44.35218373631361" lon="15.30864303403118"><ele>18.0</ele><time>2026-05-01T10:41:47Z</time></trkpt><trkpt lat="44.352061424547756" lon="15.308733494162551"><ele>18.25</ele><time>2026-05-01T10:41:48Z</time></trkpt><trkpt lat="44.35195909812618" lon="15.30886104260586"><ele>18.5</ele><time>2026-05-01T10:41:49Z</time></trkpt><trkpt lat="44.351900571209896" lon="15.309034191617178"><ele>18.75</ele><time>2026-05-01T10:41:50Z</time></trkpt><trkpt lat="44.35187001293153" lon="15.309219052474615"><ele>19.0</ele><time>2026-05-01T10:41:51Z</time></trkpt><trkpt lat="44.3518772579131" lon="15.309408179601686"><ele>19.0</ele><time>2026-05-01T10:41:52Z</time></trkpt><trkpt lat="44.35191966641315" lon="15.30958651661977"><ele>19.0</ele><time>2026-05-01T10:41:53Z</time></trkpt><trkpt lat="44.351987242812655" lon="15.309747977797572"><ele>19.0</ele><time>2026-05-01T10:41:54Z</time></trkpt><trkpt lat="44.35207853021004" lon="15.309884325617107"><ele>19.0</ele><time>2026-05-01T10:41:55Z</time></trkpt><trkpt lat="44.35218213515363" lon="15.310012216170914"><ele>20.5</ele><time>2026-05-01T10:41:56Z</time></trkpt><trkpt lat="44.352286592849126" lon="15.310140390388822"><ele>22.0</ele><time>2026-05-01T10:41:57Z</time></trkpt><trkpt lat="44.35238639813406" lon="15.31027432654503"><ele>23.5</ele><time>2026-05-01T10:41:58Z</time></trkpt><trkpt lat="44.35249335760083" lon="15.31041547912401"><ele>25.0</ele><time>2026-05-01T10:41:59Z</time></trkpt><trkpt lat="44.35260173013281" lon="15.310559016242992"><ele>21.25</ele><time>2026-05-01T10:42:00Z</time></trkpt><trkpt lat="44.352708391432614" lon="15.310700537128675"><ele>17.5</ele><time>2026-05-01T10:42:01Z</time></trkpt><trkpt lat="44.35281037893004" lon="15.310842866172388"><ele>13.75</ele><time>2026-05-01T10:42:02Z</time></trkpt><trkpt lat="44.35290975906102" lon="15.310981973575597"><ele>10.0</ele><time>2026-05-01T10:42:03Z</time></trkpt><trkpt lat="44.353012503312335" lon="15.311117247862194"><ele>11.5</ele><time>2026-05-01T10:42:04Z</time></trkpt><trkpt lat="44.35311047858972" lon="15.31124476541812"><ele>13.0</ele><time>2026-05-01T10:42:05Z</time></trkpt><trkpt lat="44.35319632889138" lon="15.3113697749574"><ele>14.5</ele><time>2026-05-01T10:42:06Z</time></trkpt><trkpt lat="44.35327317469061" lon="15.311496035346835"><ele>16.0</ele><time>2026-05-01T10:42:07Z</time></trkpt><trkpt lat="44.35333627007014" lon="15.311624582876846"><ele>15.999999999999998</ele><time>2026-05-01T10:42:08Z</time></trkpt><trkpt lat="44.353361399767685" lon="15.311751869405619"><ele>16.0</ele><time>2026-05-01T10:42:09Z</time></trkpt><trkpt lat="44.35337090310907" lon="15.31187228810309"><ele>16.0</ele><time>2026-05-01T10:42:10Z</time></trkpt><trkpt lat="44.35337224171297" lon="15.311979550984299"><ele>16.0</ele><time>2026-05-01T10:42:11Z</time></trkpt><trkpt lat="44.35336018489103" lon="15.312092520918918"><ele>15.999999999999998</ele><time>2026-05-01T10:42:12Z</time></trkpt><trkpt lat="44.353338006376084" lon="15.312207098539663"><ele>16.0</ele><time>2026-05-01T10:42:13Z</time></trkpt><trkpt lat="44.35330993551625" lon="15.312337294965147"><ele>16.0</ele><time>2026-05-01T10:42:14Z</time></trkpt><trkpt lat="44.353279389150615" lon="15.312477143834167"><ele>16.0</ele><time>2026-05-01T10:42:15Z</time></trkpt><trkpt lat="44.353248317419585" lon="15.312606176352052"><ele>16.0</ele><time>2026-05-01T10:42:16Z</time></trkpt><trkpt lat="44.3532072941831" lon="15.31272595349089"><ele>16.0</ele><time>2026-05-01T10:42:17Z</time></trkpt><trkpt lat="44.35315831747208" lon="15.312839033184572"><ele>16.0</ele><time>2026-05-01T10:42:18Z</time></trkpt><trkpt lat="44.353102000508756" lon="15.312951206000193"><ele>14.4</ele><time>2026-05-01T10:42:19Z</time></trkpt><trkpt lat="44.3530361364826" lon="15.313054688224586"><ele>12.8</ele><time>2026-05-01T10:42:20Z</time></trkpt><trkpt lat="44.35296093211062" lon="15.313148067040677"><ele>11.200000000000001</ele><time>2026-05-01T10:42:21Z</time></trkpt><trkpt lat="44.35287393732524" lon="15.313220684979566"><ele>9.600000000000001</ele><time>2026-05-01T10:42:22Z</time></trkpt><trkpt lat="44.35277306221822" lon="15.313268915925041"><ele>8.0</ele><time>2026-05-01T10:42:23Z</time></trkpt><trkpt lat="44.352675698093876" lon="15.313299061232344"><ele>8.0</ele><time>2026-05-01T10:42:24Z</time></trkpt><trkpt lat="44.35257584265209" lon="15.313309781923603"><ele>8.0</ele><time>2026-05-01T10:42:25Z</time></trkpt><trkpt lat="44.352477335672226" lon="15.313306910523496"><ele>8.0</ele><time>2026-05-01T10:42:26Z</time></trkpt><trkpt lat="44.352379228972396" lon="15.313286002585844"><ele>8.0</ele><time>2026-05-01T10:42:27Z</time></trkpt><trkpt lat="44.352285225779646" lon="15.313241951983194"><ele>8.0</ele><time>2026-05-01T10:42:28Z</time></trkpt><trkpt lat="44.35219260859183" lon="15.313178936468235"><ele>9.600000000000001</ele><time>2026-05-01T10:42:29Z</time></trkpt><trkpt lat="44.35210680774652" lon="15.313113472237553"><ele>11.200000000000001</ele><time>2026-05-01T10:42:30Z</time></trkpt><trkpt lat="44.35201797269202" lon="15.31305045765747"><ele>12.8</ele><time>2026-05-01T10:42:31Z</time></trkpt><trkpt lat="44.35192001715211" lon="15.312989852938765"><ele>14.4</ele><time>2026-05-01T10:42:32Z</time></trkpt><trkpt lat="44.3518151151688" lon="15.312939918344311"><ele>16.0</ele><time>2026-05-01T10:42:33Z</time></trkpt><trkpt lat="44.35170264631194" lon="15.312908421744943"><ele>12.0</ele><time>2026-05-01T10:42:34Z</time></trkpt><trkpt lat="44.351593981043756" lon="15.312897786272798"><ele>8.0</ele><time>2026-05-01T10:42:35Z</time></trkpt><trkpt lat="44.35148367594369" lon="15.312906742164497"><ele>4.0</ele><time>2026-05-01T10:42:36Z</time></trkpt><trkpt lat="44.35136875861943" lon="15.312944372459684"><ele>0.0</ele><time>2026-05-01T10:42:37Z</time></trkpt><trkpt lat="44.351247418072234" lon="15.312996309355869"><ele>0.0</ele><time>2026-05-01T10:42:38Z</time></trkpt><trkpt lat="44.35112268320273" lon="15.313048153292812"><ele>0.0</ele><time>2026-05-01T10:42:39Z</time></trkpt><trkpt lat="44.350990226431556" lon="15.313102471332101"><ele>0.0</ele><time>2026-05-01T10:42:40Z</time></trkpt><trkpt lat="44.35086007491096" lon="15.31315985788739"><ele>0.0</ele><time>2026-05-01T10:42:41Z</time></trkpt><trkpt lat="44.35074086669794" lon="15.313218887599511"><ele>0.75</ele><time>2026-05-01T10:42:42Z</time></trkpt><trkpt lat="44.35062907567417" lon="15.313291379983825"><ele>1.5</ele><time>2026-05-01T10:42:43Z</time></trkpt><trkpt lat="44.35052472130474" lon="15.313372186626127"><ele>2.25</ele><time>2026-05-01T10:42:44Z</time></trkpt><trkpt lat="44.35042629449663" lon="15.313450797302536"><ele>3.0</ele><time>2026-05-01T10:42:45Z</time></trkpt><trkpt lat="44.35033253536406" lon="15.313524814275945"><ele>3.0</ele><time>2026-05-01T10:42:46Z</time></trkpt><trkpt lat="44.35023127391514" lon="15.313605827017552"><ele>3.0</ele><time>2026-05-01T10:42:47Z</time></trkpt><trkpt lat="44.35012654976636" lon="15.313698954185908"><ele>3.0</ele><time>2026-05-01T10:42:48Z</time></trkpt><trkpt lat="44.35003207486958" lon="15.313790826007004"><ele>3.0</ele><time>2026-05-01T10:42:49Z</time></trkpt><trkpt lat="44.34994352659116" lon="15.313878881812105"><ele>2.6</ele><time>2026-05-01T10:42:50Z</time></trkpt><trkpt lat="44.349850207545266" lon="15.313973269180249"><ele>2.1999999999999997</ele><time>2026-05-01T10:42:51Z</time></trkpt><trkpt lat="44.34976594847931" lon="15.31406759070768"><ele>1.8</ele><time>2026-05-01T10:42:52Z</time></trkpt><trkpt lat="44.349683937604794" lon="15.314164709120249"><ele>1.4</ele><time>2026-05-01T10:42:53Z</time></trkpt><trkpt lat="44.34960164925454" lon="15.314270112066907"><ele>1.0</ele><time>2026-05-01T10:42:54Z</time></trkpt><trkpt lat="44.349515608790426" lon="15.314373026474701"><ele>1.0</ele><time>2026-05-01T10:42:55Z</time></trkpt><trkpt lat="44.34943366440319" lon="15.314469735464602"><ele>1.0</ele><time>2026-05-01T10:42:56Z</time></trkpt><trkpt lat="44.349359542634296" lon="15.314572764386439"><ele>1.0</ele><time>2026-05-01T10:42:57Z</time></trkpt><trkpt lat="44.34930818196247" lon="15.314688541559205"><ele>1.0</ele><time>2026-05-01T10:42:58Z</time></trkpt><trkpt lat="44.349276679549774" lon="15.314810077026618"><ele>1.0</ele><time>2026-05-01T10:42:59Z</time></trkpt><trkpt lat="44.34927452930873" lon="15.314937896916335"><ele>1.3333333333333333</ele><time>2026-05-01T10:43:00Z</time></trkpt><trkpt lat="44.349287389713034" lon="15.315060284881282"><ele>1.6666666666666665</ele><time>2026-05-01T10:43:01Z</time></trkpt><trkpt lat="44.3493097516255" lon="15.315152271935945"><ele>2.0</ele><time>2026-05-01T10:43:02Z</time></trkpt><trkpt lat="44.34937403777564" lon="15.31526527034701"><ele>2.3333333333333335</ele><time>2026-05-01T10:43:04Z</time></trkpt><trkpt lat="44.34943005451583" lon="15.315361753181277"><ele>2.6666666666666665</ele><time>2026-05-01T10:43:06Z</time></trkpt><trkpt lat="44.34950238197154" lon="15.315448241552156"><ele>3.0</ele><time>2026-05-01T10:43:08Z</time></trkpt><trkpt lat="44.3496008172673" lon="15.315531589236194"><ele>3.0</ele><time>2026-05-01T10:43:10Z</time></trkpt><trkpt lat="44.34968120342164" lon="15.315608617812561"><ele>3.0</ele><time>2026-05-01T10:43:12Z</time></trkpt><trkpt lat="44.34976248216363" lon="15.315698109308713"><ele>3.0</ele><time>2026-05-01T10:43:14Z</time></trkpt><trkpt lat="44.349835694203406" lon="15.315829545425347"><ele>3.0</ele><time>2026-05-01T10:43:16Z</time></trkpt><trkpt lat="44.34986024354765" lon="15.315918624698734"><ele>3.0</ele><time>2026-05-01T10:43:17Z</time></trkpt><trkpt lat="44.34987376123313" lon="15.316018316358655"><ele>3.1428571428571423</ele><time>2026-05-01T10:43:18Z</time></trkpt><trkpt lat="44.34987519910008" lon="15.316120492964236"><ele>3.2857142857142856</ele><time>2026-05-01T10:43:19Z</time></trkpt><trkpt lat="44.34986055799208" lon="15.316219622084798"><ele>3.4285714285714284</ele><time>2026-05-01T10:43:20Z</time></trkpt><trkpt lat="44.34982451191089" lon="15.316305466603062"><ele>3.571428571428571</ele><time>2026-05-01T10:43:21Z</time></trkpt><trkpt lat="44.349770757673106" lon="15.316382677016847"><ele>3.714285714285714</ele><time>2026-05-01T10:43:22Z</time></trkpt><trkpt lat="44.349714599819606" lon="15.316450675929566"><ele>3.8571428571428568</ele><time>2026-05-01T10:43:23Z</time></trkpt><trkpt lat="44.349653015137825" lon="15.316515449959477"><ele>4.0</ele><time>2026-05-01T10:43:24Z</time></trkpt><trkpt lat="44.34958443576049" lon="15.316577606909426"><ele>4.0</ele><time>2026-05-01T10:43:25Z</time></trkpt><trkpt lat="44.34950238411438" lon="15.316643050579462"><ele>4.0</ele><time>2026-05-01T10:43:26Z</time></trkpt><trkpt lat="44.349407961607774" lon="15.316718630947166"><ele>4.0</ele><time>2026-05-01T10:43:27Z</time></trkpt><trkpt lat="44.34930595838439" lon="15.31680542639183"><ele>4.0</ele><time>2026-05-01T10:43:28Z</time></trkpt><trkpt lat="44.34920315866389" lon="15.316893753858425"><ele>4.0</ele><time>2026-05-01T10:43:29Z</time></trkpt><trkpt lat="44.34910455338196" lon="15.316983305001484"><ele>4.0</ele><time>2026-05-01T10:43:30Z</time></trkpt><trkpt lat="44.34901069761885" lon="15.317086298763785"><ele>4.0</ele><time>2026-05-01T10:43:31Z</time></trkpt><trkpt lat="44.348929405059344" lon="15.317207744441648"><ele>4.0</ele><time>2026-05-01T10:43:32Z</time></trkpt><trkpt lat="44.34885709615903" lon="15.317352088316127"><ele>4.0</ele><time>2026-05-01T10:43:33Z</time></trkpt><trkpt lat="44.3488039714129" lon="15.31751204070264"><ele>3.5</ele><time>2026-05-01T10:43:34Z</time></trkpt><trkpt lat="44.34876631454243" lon="15.317684973931609"><ele>3.0</ele><time>2026-05-01T10:43:35Z</time></trkpt><trkpt lat="44.34874464037037" lon="15.31787734035991"><ele>2.5</ele><time>2026-05-01T10:43:36Z</time></trkpt><trkpt lat="44.348742031925426" lon="15.31808018123992"><ele>2.0</ele><time>2026-05-01T10:43:37Z</time></trkpt><trkpt lat="44.34876130987453" lon="15.31828380639318"><ele>2.0</ele><time>2026-05-01T10:43:38Z</time></trkpt><trkpt lat="44.348787991945166" lon="15.318495143700474"><ele>2.0</ele><time>2026-05-01T10:43:39Z</time></trkpt><trkpt lat="44.3488179488658" lon="15.318689171390844"><ele>2.0</ele><time>2026-05-01T10:43:40Z</time></trkpt><trkpt lat="44.34884209314235" lon="15.318884929683573"><ele>2.0</ele><time>2026-05-01T10:43:41Z</time></trkpt><trkpt lat="44.34887093710114" lon="15.31908512079349"><ele>3.5</ele><time>2026-05-01T10:43:42Z</time></trkpt><trkpt lat="44.34890259630028" lon="15.319282296591393"><ele>5.0</ele><time>2026-05-01T10:43:43Z</time></trkpt><trkpt lat="44.34893707698741" lon="15.319457487142502"><ele>6.5</ele><time>2026-05-01T10:43:44Z</time></trkpt><trkpt lat="44.348977862629276" lon="15.319611984591978"><ele>8.0</ele><time>2026-05-01T10:43:45Z</time></trkpt><trkpt lat="44.3490306278156" lon="15.319761861712244"><ele>8.0</ele><time>2026-05-01T10:43:46Z</time></trkpt><trkpt lat="44.349089509986094" lon="15.319920795154319"><ele>8.0</ele><time>2026-05-01T10:43:47Z</time></trkpt><trkpt lat="44.34915882304094" lon="15.320089506432579"><ele>8.0</ele><time>2026-05-01T10:43:48Z</time></trkpt><trkpt lat="44.349233029615405" lon="15.320250032361683"><ele>8.0</ele><time>2026-05-01T10:43:49Z</time></trkpt><trkpt lat="44.34930953346793" lon="15.32040237551757"><ele>8.0</ele><time>2026-05-01T10:43:50Z</time></trkpt><trkpt lat="44.3493826827529" lon="15.320548773136819"><ele>8.0</ele><time>2026-05-01T10:43:51Z</time></trkpt><trkpt lat="44.34945497349197" lon="15.320698666118453"><ele>8.0</ele><time>2026-05-01T10:43:52Z</time></trkpt><trkpt lat="44.34951138064922" lon="15.320844732187858"><ele>8.0</ele><time>2026-05-01T10:43:53Z</time></trkpt><trkpt lat="44.349540720422546" lon="15.320993113797826"><ele>8.200000000000001</ele><time>2026-05-01T10:43:54Z</time></trkpt><trkpt lat="44.34953394010794" lon="15.321141421549754"><ele>8.4</ele><time>2026-05-01T10:43:55Z</time></trkpt><trkpt lat="44.3494956762727" lon="15.321271286838694"><ele>8.600000000000001</ele><time>2026-05-01T10:43:56Z</time></trkpt><trkpt lat="44.34943323172564" lon="15.321393450325502"><ele>8.8</ele><time>2026-05-01T10:43:57Z</time></trkpt><trkpt lat="44.34935416262117" lon="15.321503833353194"><ele>9.0</ele><time>2026-05-01T10:43:58Z</time></trkpt><trkpt lat="44.34925783241472" lon="15.321605292486133"><ele>9.0</ele><time>2026-05-01T10:43:59Z</time></trkpt><trkpt lat="44.349147288373395" lon="15.32170137492448"><ele>9.0</ele><time>2026-05-01T10:44:00Z</time></trkpt><trkpt lat="44.349021044698404" lon="15.32181575789812"><ele>9.0</ele><time>2026-05-01T10:44:01Z</time></trkpt><trkpt lat="44.3488717896935" lon="15.321953203565224"><ele>9.0</ele><time>2026-05-01T10:44:02Z</time></trkpt><trkpt lat="44.348697435469134" lon="15.322109024288144"><ele>9.0</ele><time>2026-05-01T10:44:03Z</time></trkpt><trkpt lat="44.34852304599263" lon="15.322280348248963"><ele>9.0</ele><time>2026-05-01T10:44:04Z</time></trkpt><trkpt lat="44.3483625158865" lon="15.322461604167989"><ele>9.0</ele><time>2026-05-01T10:44:05Z</time></trkpt><trkpt lat="44.348214071351634" lon="15.322654961507238"><ele>9.0</ele><time>2026-05-01T10:44:06Z</time></trkpt><trkpt lat="44.34805993303951" lon="15.322870506876102"><ele>9.0</ele><time>2026-05-01T10:44:07Z</time></trkpt><trkpt lat="44.34788896524313" lon="15.323122160599592"><ele>7.0</ele><time>2026-05-01T10:44:08Z</time></trkpt><trkpt lat="44.34769718277596" lon="15.323360763908491"><ele>5.0</ele><time>2026-05-01T10:44:09Z</time></trkpt><trkpt lat="44.347523140119264" lon="15.323551711223288"><ele>5.0</ele><time>2026-05-01T10:44:10Z</time></trkpt><trkpt lat="44.34739991559593" lon="15.323724086251215"><ele>5.0</ele><time>2026-05-01T10:44:11Z</time></trkpt><trkpt lat="44.347298599222185" lon="15.323900074675896"><ele>5.0</ele><time>2026-05-01T10:44:12Z</time></trkpt><trkpt lat="44.34720058439054" lon="15.324065383788033"><ele>4.75</ele><time>2026-05-01T10:44:13Z</time></trkpt><trkpt lat="44.347107647534706" lon="15.324219134141496"><ele>4.5</ele><time>2026-05-01T10:44:14Z</time></trkpt><trkpt lat="44.347014077102685" lon="15.324366140515883"><ele>4.25</ele><time>2026-05-01T10:44:15Z</time></trkpt><trkpt lat="44.34691438980479" lon="15.324508466079443"><ele>4.0</ele><time>2026-05-01T10:44:16Z</time></trkpt><trkpt lat="44.3468121052472" lon="15.324636216320886"><ele>5.25</ele><time>2026-05-01T10:44:17Z</time></trkpt><trkpt lat="44.34671519669724" lon="15.324751879187048"><ele>6.5</ele><time>2026-05-01T10:44:18Z</time></trkpt><trkpt lat="44.34661893349172" lon="15.324862184294878"><ele>7.75</ele><time>2026-05-01T10:44:19Z</time></trkpt><trkpt lat="44.34652154880514" lon="15.324968671918539"><ele>9.0</ele><time>2026-05-01T10:44:20Z</time></trkpt><trkpt lat="44.34642372620354" lon="15.325079237473172"><ele>7.25</ele><time>2026-05-01T10:44:21Z</time></trkpt><trkpt lat="44.34632692591958" lon="15.325200257501676"><ele>5.5</ele><time>2026-05-01T10:44:22Z</time></trkpt><trkpt lat="44.346245418959164" lon="15.32534025343749"><ele>3.75</ele><time>2026-05-01T10:44:23Z</time></trkpt><trkpt lat="44.3461801557559" lon="15.325493496108711"><ele>2.0</ele><time>2026-05-01T10:44:24Z</time></trkpt><trkpt lat="44.346123384012266" lon="15.32565129576842"><ele>2.0</ele><time>2026-05-01T10:44:25Z</time></trkpt><trkpt lat="44.34606950462824" lon="15.325810609584236"><ele>2.0</ele><time>2026-05-01T10:44:26Z</time></trkpt><trkpt lat="44.346012751763965" lon="15.325965261628411"><ele>2.0</ele><time>2026-05-01T10:44:27Z</time></trkpt><trkpt lat="44.34594988805762" lon="15.326108672841304"><ele>2.0</ele><time>2026-05-01T10:44:28Z</time></trkpt><trkpt lat="44.34587812159957" lon="15.326234253426618"><ele>2.0</ele><time>2026-05-01T10:44:29Z</time></trkpt><trkpt lat="44.34580176548078" lon="15.326342556783938"><ele>2.0</ele><time>2026-05-01T10:44:30Z</time></trkpt><trkpt lat="44.34572372165269" lon="15.32643464659773"><ele>2.0</ele><time>2026-05-01T10:44:31Z</time></trkpt><trkpt lat="44.3456522771038" lon="15.326512317286229"><ele>2.0</ele><time>2026-05-01T10:44:32Z</time></trkpt><trkpt lat="44.34558339562356" lon="15.32659064890099"><ele>2.0</ele><time>2026-05-01T10:44:33Z</time></trkpt><trkpt lat="44.34550689632132" lon="15.326675551715937"><ele>1.6</ele><time>2026-05-01T10:44:34Z</time></trkpt><trkpt lat="44.34542570406841" lon="15.32676828503616"><ele>1.2000000000000002</ele><time>2026-05-01T10:44:35Z</time></trkpt><trkpt lat="44.34533815484045" lon="15.326868134653322"><ele>0.8</ele><time>2026-05-01T10:44:36Z</time></trkpt><trkpt lat="44.345251655189024" lon="15.326973629144033"><ele>0.4</ele><time>2026-05-01T10:44:37Z</time></trkpt><trkpt lat="44.34518223610536" lon="15.327078961320355"><ele>0.0</ele><time>2026-05-01T10:44:38Z</time></trkpt><trkpt lat="44.34512669432919" lon="15.327182733390659"><ele>1.0</ele><time>2026-05-01T10:44:39Z</time></trkpt><trkpt lat="44.34507633067041" lon="15.32728569579073"><ele>2.0</ele><time>2026-05-01T10:44:40Z</time></trkpt><trkpt lat="44.345028846686134" lon="15.327386292018685"><ele>3.0</ele><time>2026-05-01T10:44:41Z</time></trkpt><trkpt lat="44.34497956284643" lon="15.32749187796873"><ele>4.0</ele><time>2026-05-01T10:44:42Z</time></trkpt><trkpt lat="44.34493374259976" lon="15.327599461342537"><ele>5.0</ele><time>2026-05-01T10:44:43Z</time></trkpt><trkpt lat="44.34488851385647" lon="15.327705404278518"><ele>6.0</ele><time>2026-05-01T10:44:44Z</time></trkpt><trkpt lat="44.34484172456493" lon="15.327816450881137"><ele>6.0</ele><time>2026-05-01T10:44:45Z</time></trkpt><trkpt lat="44.34479665513441" lon="15.327920308658921"><ele>6.0</ele><time>2026-05-01T10:44:46Z</time></trkpt><trkpt lat="44.34475296330169" lon="15.32801282037775"><ele>6.0</ele><time>2026-05-01T10:44:47Z</time></trkpt><trkpt lat="44.34471056781486" lon="15.328091530326626"><ele>6.0</ele><time>2026-05-01T10:44:48Z</time></trkpt><trkpt lat="44.34467084659996" lon="15.328162399581187"><ele>6.0</ele><time>2026-05-01T10:44:49Z</time></trkpt><trkpt lat="44.34459611881303" lon="15.328288872154344"><ele>6.0</ele><time>2026-05-01T10:44:51Z</time></trkpt><trkpt lat="44.34455420558874" lon="15.328354701151937"><ele>5.2</ele><time>2026-05-01T10:44:52Z</time></trkpt><trkpt lat="44.34448910359421" lon="15.32845821831313"><ele>4.3999999999999995</ele><time>2026-05-01T10:44:54Z</time></trkpt><trkpt lat="44.34442583447288" lon="15.328565289648072"><ele>3.6</ele><time>2026-05-01T10:44:56Z</time></trkpt><trkpt lat="44.344345388544816" lon="15.328679988158223"><ele>2.8</ele><time>2026-05-01T10:44:58Z</time></trkpt><trkpt lat="44.34430065447926" lon="15.32874994573093"><ele>2.0</ele><time>2026-05-01T10:44:59Z</time></trkpt><trkpt lat="44.34425006131303" lon="15.328823625233092"><ele>2.6</ele><time>2026-05-01T10:45:00Z</time></trkpt><trkpt lat="44.34419984324859" lon="15.328913826956704"><ele>3.2</ele><time>2026-05-01T10:45:01Z</time></trkpt><trkpt lat="44.344142231109196" lon="15.329012518385465"><ele>3.8</ele><time>2026-05-01T10:45:02Z</time></trkpt><trkpt lat="44.34407945937109" lon="15.329120104523971"><ele>4.4</ele><time>2026-05-01T10:45:03Z</time></trkpt><trkpt lat="44.34401612364064" lon="15.329235669079747"><ele>5.0</ele><time>2026-05-01T10:45:04Z</time></trkpt><trkpt lat="44.34395043548096" lon="15.329355028262214"><ele>5.0</ele><time>2026-05-01T10:45:05Z</time></trkpt><trkpt lat="44.343884253443555" lon="15.329492171497568"><ele>5.0</ele><time>2026-05-01T10:45:06Z</time></trkpt><trkpt lat="44.34381688494321" lon="15.329650612394294"><ele>5.0</ele><time>2026-05-01T10:45:07Z</time></trkpt><trkpt lat="44.343748171579314" lon="15.329821513631282"><ele>5.0</ele><time>2026-05-01T10:45:08Z</time></trkpt><trkpt lat="44.34367866080709" lon="15.330004422293559"><ele>5.0</ele><time>2026-05-01T10:45:09Z</time></trkpt><trkpt lat="44.343610403503284" lon="15.33018507545777"><ele>5.0</ele><time>2026-05-01T10:45:10Z</time></trkpt><trkpt lat="44.34354887310067" lon="15.330363139984202"><ele>5.0</ele><time>2026-05-01T10:45:11Z</time></trkpt><trkpt lat="44.343478336577945" lon="15.33055585019661"><ele>5.0</ele><time>2026-05-01T10:45:12Z</time></trkpt><trkpt lat="44.343396332795045" lon="15.330768009511464"><ele>5.0</ele><time>2026-05-01T10:45:13Z</time></trkpt><trkpt lat="44.34330744562851" lon="15.330999612387908"><ele>5.0</ele><time>2026-05-01T10:45:14Z</time></trkpt><trkpt lat="44.34320990967713" lon="15.331226049601776"><ele>5.0</ele><time>2026-05-01T10:45:15Z</time></trkpt><trkpt lat="44.343119274388556" lon="15.331423265953527"><ele>4.0</ele><time>2026-05-01T10:45:16Z</time></trkpt><trkpt lat="44.34303957816135" lon="15.331611548951184"><ele>3.0</ele><time>2026-05-01T10:45:17Z</time></trkpt><trkpt lat="44.34296952481138" lon="15.331788529592172"><ele>2.0</ele><time>2026-05-01T10:45:18Z</time></trkpt><trkpt lat="44.34290117351938" lon="15.331965480947217"><ele>1.0</ele><time>2026-05-01T10:45:19Z</time></trkpt><trkpt lat="44.34283770663475" lon="15.332145595723349"><ele>1.0</ele><time>2026-05-01T10:45:20Z</time></trkpt><trkpt lat="44.3427854564886" lon="15.332349038527152"><ele>1.0</ele><time>2026-05-01T10:45:21Z</time></trkpt><trkpt lat="44.342756639443685" lon="15.332591882183493"><ele>1.0</ele><time>2026-05-01T10:45:22Z</time></trkpt><trkpt lat="44.34274371284741" lon="15.332893812855145"><ele>1.3333333333333333</ele><time>2026-05-01T10:45:23Z</time></trkpt><trkpt lat="44.34272643049153" lon="15.33322010720474"><ele>1.6666666666666665</ele><time>2026-05-01T10:45:24Z</time></trkpt><trkpt lat="44.34269421144082" lon="15.333513837619897"><ele>2.0</ele><time>2026-05-01T10:45:25Z</time></trkpt><trkpt lat="44.342654352365734" lon="15.333790062697485"><ele>3.0</ele><time>2026-05-01T10:45:26Z</time></trkpt><trkpt lat="44.342598059917414" lon="15.334055089997097"><ele>4.0</ele><time>2026-05-01T10:45:27Z</time></trkpt><trkpt lat="44.34251182276146" lon="15.334295394451576"><ele>5.0</ele><time>2026-05-01T10:45:28Z</time></trkpt><trkpt lat="44.342400517129576" lon="15.334511588748924"><ele>5.0</ele><time>2026-05-01T10:45:29Z</time></trkpt><trkpt lat="44.34227455304301" lon="15.334708857842788"><ele>5.0</ele><time>2026-05-01T10:45:30Z</time></trkpt><trkpt lat="44.342144791710666" lon="15.334904103264543"><ele>5.0</ele><time>2026-05-01T10:45:31Z</time></trkpt><trkpt lat="44.34202552888469" lon="15.335102632452735"><ele>4.666666666666667</ele><time>2026-05-01T10:45:32Z</time></trkpt><trkpt lat="44.341914646968974" lon="15.335306830560745"><ele>4.333333333333333</ele><time>2026-05-01T10:45:33Z</time></trkpt><trkpt lat="44.341811770122824" lon="15.335517621210988"><ele>4.0</ele><time>2026-05-01T10:45:34Z</time></trkpt><trkpt lat="44.34171866967915" lon="15.335720497338787"><ele>4.0</ele><time>2026-05-01T10:45:35Z</time></trkpt><trkpt lat="44.34162921291512" lon="15.335912465828265"><ele>4.0</ele><time>2026-05-01T10:45:36Z</time></trkpt><trkpt lat="44.341542173865996" lon="15.336099057384116"><ele>4.0</ele><time>2026-05-01T10:45:37Z</time></trkpt><trkpt lat="44.341451259401815" lon="15.336273424561385"><ele>3.0</ele><time>2026-05-01T10:45:38Z</time></trkpt><trkpt lat="44.34135043622671" lon="15.336433310757252"><ele>2.0</ele><time>2026-05-01T10:45:39Z</time></trkpt><trkpt lat="44.34123764182476" lon="15.336575595071556"><ele>1.0</ele><time>2026-05-01T10:45:40Z</time></trkpt><trkpt lat="44.34110920235853" lon="15.336704664388282"><ele>1.0</ele><time>2026-05-01T10:45:41Z</time></trkpt><trkpt lat="44.3409753268698" lon="15.336820765440402"><ele>1.0</ele><time>2026-05-01T10:45:42Z</time></trkpt><trkpt lat="44.34083196020127" lon="15.336934147721674"><ele>1.0</ele><time>2026-05-01T10:45:43Z</time></trkpt><trkpt lat="44.340690552378355" lon="15.337034454550517"><ele>1.0</ele><time>2026-05-01T10:45:44Z</time></trkpt><trkpt lat="44.34055588322004" lon="15.337132933759529"><ele>1.0</ele><time>2026-05-01T10:45:45Z</time></trkpt><trkpt lat="44.34043242799546" lon="15.337244008605706"><ele>1.0</ele><time>2026-05-01T10:45:46Z</time></trkpt><trkpt lat="44.34032227906576" lon="15.337378024360671"><ele>1.0</ele><time>2026-05-01T10:45:47Z</time></trkpt><trkpt lat="44.34023489814213" lon="15.337531523717002"><ele>0.75</ele><time>2026-05-01T10:45:48Z</time></trkpt><trkpt lat="44.340162464995046" lon="15.337713533807937"><ele>0.5</ele><time>2026-05-01T10:45:49Z</time></trkpt><trkpt lat="44.34010700783463" lon="15.337905299481355"><ele>0.25</ele><time>2026-05-01T10:45:50Z</time></trkpt><trkpt lat="44.3400549298899" lon="15.338105089282413"><ele>0.0</ele><time>2026-05-01T10:45:51Z</time></trkpt><trkpt lat="44.340003005419995" lon="15.338292512350305"><ele>0.0</ele><time>2026-05-01T10:45:52Z</time></trkpt><trkpt lat="44.339947707641535" lon="15.338468590419664"><ele>0.0</ele><time>2026-05-01T10:45:53Z</time></trkpt><trkpt lat="44.339876409735645" lon="15.338611525936471"><ele>0.0</ele><time>2026-05-01T10:45:54Z</time></trkpt><trkpt lat="44.33978907100456" lon="15.33872002727242"><ele>0.0</ele><time>2026-05-01T10:45:55Z</time></trkpt><trkpt lat="44.33969624508323" lon="15.338804725758678"><ele>0.0</ele><time>2026-05-01T10:45:56Z</time></trkpt><trkpt lat="44.339601787821714" lon="15.338869615671562"><ele>0.0</ele><time>2026-05-01T10:45:57Z</time></trkpt><trkpt lat="44.33951369589027" lon="15.338903926752709"><ele>0.0</ele><time>2026-05-01T10:45:58Z</time></trkpt><trkpt lat="44.33942227687736" lon="15.338966863851306"><ele>0.0</ele><time>2026-05-01T10:45:59Z</time></trkpt><trkpt lat="44.339328947866" lon="15.339056803517465"><ele>0.0</ele><time>2026-05-01T10:46:00Z</time></trkpt><trkpt lat="44.33921179874158" lon="15.33914294307339"><ele>0.0</ele><time>2026-05-01T10:46:01Z</time></trkpt><trkpt lat="44.33909887217104" lon="15.339231761868898"><ele>0.0</ele><time>2026-05-01T10:46:02Z</time></trkpt><trkpt lat="44.33898682046408" lon="15.33931989464012"><ele>0.0</ele><time>2026-05-01T10:46:03Z</time></trkpt><trkpt lat="44.33888368280211" lon="15.339420983302515"><ele>0.0</ele><time>2026-05-01T10:46:04Z</time></trkpt><trkpt lat="44.338784485856834" lon="15.339527494406017"><ele>0.0</ele><time>2026-05-01T10:46:05Z</time></trkpt><trkpt lat="44.33869424393749" lon="15.339654046135628"><ele>0.0</ele><time>2026-05-01T10:46:06Z</time></trkpt><trkpt lat="44.33861554763731" lon="15.33979386635507"><ele>0.0</ele><time>2026-05-01T10:46:07Z</time></trkpt><trkpt lat="44.338560132826714" lon="15.339939043947611"><ele>0.0</ele><time>2026-05-01T10:46:08Z</time></trkpt><trkpt lat="44.33851090249115" lon="15.340083661087734"><ele>1.25</ele><time>2026-05-01T10:46:09Z</time></trkpt><trkpt lat="44.338457084532614" lon="15.340234754106513"><ele>2.5</ele><time>2026-05-01T10:46:10Z</time></trkpt><trkpt lat="44.33839865259911" lon="15.340407581518818"><ele>3.75</ele><time>2026-05-01T10:46:11Z</time></trkpt><trkpt lat="44.338336440121275" lon="15.340586527892695"><ele>5.0</ele><time>2026-05-01T10:46:12Z</time></trkpt><trkpt lat="44.33826928635922" lon="15.340761273205395"><ele>5.0</ele><time>2026-05-01T10:46:13Z</time></trkpt><trkpt lat="44.338202812428065" lon="15.34093518769946"><ele>5.0</ele><time>2026-05-01T10:46:14Z</time></trkpt><trkpt lat="44.33813821915708" lon="15.341104449736775"><ele>5.0</ele><time>2026-05-01T10:46:15Z</time></trkpt><trkpt lat="44.33807386627155" lon="15.34127506575231"><ele>5.0</ele><time>2026-05-01T10:46:16Z</time></trkpt><trkpt lat="44.338010597008505" lon="15.34144338791553"><ele>5.0</ele><time>2026-05-01T10:46:17Z</time></trkpt><trkpt lat="44.33795108211675" lon="15.34160427498425"><ele>5.0</ele><time>2026-05-01T10:46:18Z</time></trkpt><trkpt lat="44.33789203315089" lon="15.341768395451547"><ele>5.0</ele><time>2026-05-01T10:46:19Z</time></trkpt><trkpt lat="44.33783549255565" lon="15.341959207927625"><ele>5.0</ele><time>2026-05-01T10:46:20Z</time></trkpt><trkpt lat="44.337762206938045" lon="15.342189122827973"><ele>5.666666666666667</ele><time>2026-05-01T10:46:21Z</time></trkpt><trkpt lat="44.33766404147805" lon="15.342442405019572"><ele>6.333333333333334</ele><time>2026-05-01T10:46:22Z</time></trkpt><trkpt lat="44.33755406006907" lon="15.342716184434865"><ele>7.0</ele><time>2026-05-01T10:46:23Z</time></trkpt><trkpt lat="44.337446988083755" lon="15.34298374065043"><ele>7.333333333333334</ele><time>2026-05-01T10:46:24Z</time></trkpt><trkpt lat="44.33734770242505" lon="15.343245235724712"><ele>7.666666666666666</ele><time>2026-05-01T10:46:25Z</time></trkpt><trkpt lat="44.337259984608565" lon="15.34347954445055"><ele>8.0</ele><time>2026-05-01T10:46:26Z</time></trkpt><trkpt lat="44.337181777971985" lon="15.343696038408517"><ele>7.0</ele><time>2026-05-01T10:46:27Z</time></trkpt><trkpt lat="44.33710454110869" lon="15.343909715618441"><ele>6.0</ele><time>2026-05-01T10:46:28Z</time></trkpt><trkpt lat="44.33702530385229" lon="15.34411514273407"><ele>5.0</ele><time>2026-05-01T10:46:29Z</time></trkpt><trkpt lat="44.33695577714581" lon="15.344299343466044"><ele>5.0</ele><time>2026-05-01T10:46:30Z</time></trkpt><trkpt lat="44.33689379970131" lon="15.344469437212108"><ele>5.0</ele><time>2026-05-01T10:46:31Z</time></trkpt><trkpt lat="44.33682847934228" lon="15.344642941472515"><ele>5.0</ele><time>2026-05-01T10:46:32Z</time></trkpt><trkpt lat="44.336761759721725" lon="15.344825932135432"><ele>5.0</ele><time>2026-05-01T10:46:33Z</time></trkpt><trkpt lat="44.33669306603127" lon="15.345015445963085"><ele>5.75</ele><time>2026-05-01T10:46:34Z</time></trkpt><trkpt lat="44.33661959965369" lon="15.345202526581005"><ele>6.5</ele><time>2026-05-01T10:46:35Z</time></trkpt><trkpt lat="44.33655252846905" lon="15.34538546258266"><ele>7.25</ele><time>2026-05-01T10:46:36Z</time></trkpt><trkpt lat="44.33648862761015" lon="15.345567279438756"><ele>8.0</ele><time>2026-05-01T10:46:37Z</time></trkpt><trkpt lat="44.33641895726416" lon="15.345751994721722"><ele>6.0</ele><time>2026-05-01T10:46:38Z</time></trkpt><trkpt lat="44.33635367850569" lon="15.345938280541207"><ele>4.0</ele><time>2026-05-01T10:46:39Z</time></trkpt><trkpt lat="44.33629545434492" lon="15.346133694218905"><ele>2.0</ele><time>2026-05-01T10:46:40Z</time></trkpt><trkpt lat="44.33624775005453" lon="15.346334106107236"><ele>2.333333333333333</ele><time>2026-05-01T10:46:41Z</time></trkpt><trkpt lat="44.33620135409195" lon="15.346537455137517"><ele>2.6666666666666665</ele><time>2026-05-01T10:46:42Z</time></trkpt><trkpt lat="44.33616342918696" lon="15.34676252331406"><ele>3.0</ele><time>2026-05-01T10:46:43Z</time></trkpt><trkpt lat="44.33612621520052" lon="15.347059707464183"><ele>3.5</ele><time>2026-05-01T10:46:44Z</time></trkpt><trkpt lat="44.33607627578087" lon="15.347423909058325"><ele>4.0</ele><time>2026-05-01T10:46:45Z</time></trkpt><trkpt lat="44.336017614132835" lon="15.347769103822342"><ele>4.0</ele><time>2026-05-01T10:46:46Z</time></trkpt><trkpt lat="44.33597069877978" lon="15.348074844917079"><ele>4.0</ele><time>2026-05-01T10:46:47Z</time></trkpt><trkpt lat="44.33593380274248" lon="15.348366378614763"><ele>4.0</ele><time>2026-05-01T10:46:48Z</time></trkpt><trkpt lat="44.335899414242185" lon="15.34866093780782"><ele>4.666666666666666</ele><time>2026-05-01T10:46:49Z</time></trkpt><trkpt lat="44.33585563181046" lon="15.34894645253846"><ele>5.333333333333333</ele><time>2026-05-01T10:46:50Z</time></trkpt><trkpt lat="44.33580099979897" lon="15.349224740689387"><ele>6.0</ele><time>2026-05-01T10:46:51Z</time></trkpt><trkpt lat="44.33572252237707" lon="15.349495465239828"><ele>7.333333333333334</ele><time>2026-05-01T10:46:52Z</time></trkpt><trkpt lat="44.33562601475918" lon="15.349743416572496"><ele>8.666666666666668</ele><time>2026-05-01T10:46:53Z</time></trkpt><trkpt lat="44.33553808639807" lon="15.349985350041834"><ele>10.0</ele><time>2026-05-01T10:46:54Z</time></trkpt><trkpt lat="44.33546920778891" lon="15.350230935286246"><ele>7.0</ele><time>2026-05-01T10:46:55Z</time></trkpt><trkpt lat="44.3354125459832" lon="15.350480913002547"><ele>4.0</ele><time>2026-05-01T10:46:56Z</time></trkpt><trkpt lat="44.33536116628397" lon="15.35073415111926"><ele>1.0</ele><time>2026-05-01T10:46:57Z</time></trkpt><trkpt lat="44.33530307733157" lon="15.350977142263032"><ele>1.0</ele><time>2026-05-01T10:46:58Z</time></trkpt><trkpt lat="44.335228507355694" lon="15.351202902519235"><ele>1.0</ele><time>2026-05-01T10:46:59Z</time></trkpt><trkpt lat="44.33513654939067" lon="15.351409113225843"><ele>1.0</ele><time>2026-05-01T10:47:00Z</time></trkpt><trkpt lat="44.33503906080866" lon="15.351594986441052"><ele>0.75</ele><time>2026-05-01T10:47:01Z</time></trkpt><trkpt lat="44.33494553333404" lon="15.35175620794719"><ele>0.5</ele><time>2026-05-01T10:47:02Z</time></trkpt><trkpt lat="44.33485711741164" lon="15.351916854460727"><ele>0.25</ele><time>2026-05-01T10:47:03Z</time></trkpt><trkpt lat="44.33477256142727" lon="15.352076687391422"><ele>0.0</ele><time>2026-05-01T10:47:04Z</time></trkpt><trkpt lat="44.3346861879741" lon="15.352241646948412"><ele>0.0</ele><time>2026-05-01T10:47:05Z</time></trkpt><trkpt lat="44.334607690509195" lon="15.352403861799754"><ele>0.0</ele><time>2026-05-01T10:47:06Z</time></trkpt><trkpt lat="44.33453095622347" lon="15.352579860834245"><ele>0.0</ele><time>2026-05-01T10:47:07Z</time></trkpt><trkpt lat="44.3344557399371" lon="15.352779117509256"><ele>0.0</ele><time>2026-05-01T10:47:08Z</time></trkpt><trkpt lat="44.33437495749792" lon="15.352995964204627"><ele>0.6666666666666666</ele><time>2026-05-01T10:47:09Z</time></trkpt><trkpt lat="44.334289696213695" lon="15.353249252429258"><ele>1.3333333333333333</ele><time>2026-05-01T10:47:10Z</time></trkpt><trkpt lat="44.33421167894441" lon="15.353537835490163"><ele>2.0</ele><time>2026-05-01T10:47:11Z</time></trkpt><trkpt lat="44.33413859018683" lon="15.3538649333002"><ele>3.0</ele><time>2026-05-01T10:47:12Z</time></trkpt><trkpt lat="44.33405760810622" lon="15.35423035559008"><ele>4.0</ele><time>2026-05-01T10:47:13Z</time></trkpt><trkpt lat="44.33396418076376" lon="15.35461616118893"><ele>2.0</ele><time>2026-05-01T10:47:14Z</time></trkpt><trkpt lat="44.33387542868473" lon="15.35498131607355"><ele>0.0</ele><time>2026-05-01T10:47:15Z</time></trkpt><trkpt lat="44.33378392477835" lon="15.355306839017445"><ele>1.0</ele><time>2026-05-01T10:47:16Z</time></trkpt><trkpt lat="44.33368803226183" lon="15.355622694355175"><ele>2.0</ele><time>2026-05-01T10:47:17Z</time></trkpt><trkpt lat="44.33358465172461" lon="15.35593050596914"><ele>2.0</ele><time>2026-05-01T10:47:18Z</time></trkpt><trkpt lat="44.33348822275003" lon="15.356214376828518"><ele>2.0</ele><time>2026-05-01T10:47:19Z</time></trkpt><trkpt lat="44.33340337459428" lon="15.35647564166452"><ele>2.0</ele><time>2026-05-01T10:47:20Z</time></trkpt><trkpt lat="44.33332278469605" lon="15.35672732037473"><ele>3.0</ele><time>2026-05-01T10:47:21Z</time></trkpt><trkpt lat="44.33324828303446" lon="15.356959070453037"><ele>4.0</ele><time>2026-05-01T10:47:22Z</time></trkpt><trkpt lat="44.33318312423337" lon="15.357167853620641"><ele>5.0</ele><time>2026-05-01T10:47:23Z</time></trkpt><trkpt lat="44.33312478961735" lon="15.357362828787089"><ele>3.666666666666667</ele><time>2026-05-01T10:47:24Z</time></trkpt><trkpt lat="44.33306048651524" lon="15.357578837716291"><ele>2.3333333333333335</ele><time>2026-05-01T10:47:25Z</time></trkpt><trkpt lat="44.33298317893594" lon="15.357811786958793"><ele>1.0</ele><time>2026-05-01T10:47:26Z</time></trkpt><trkpt lat="44.332903375580386" lon="15.358041265682038"><ele>1.0</ele><time>2026-05-01T10:47:27Z</time></trkpt><trkpt lat="44.332824335207576" lon="15.35827860186861"><ele>1.0</ele><time>2026-05-01T10:47:28Z</time></trkpt><trkpt lat="44.33275116899817" lon="15.358490034542994"><ele>1.0</ele><time>2026-05-01T10:47:29Z</time></trkpt><trkpt lat="44.33268054231132" lon="15.358676783554905"><ele>2.0</ele><time>2026-05-01T10:47:30Z</time></trkpt><trkpt lat="44.33259378506308" lon="15.358871628659447"><ele>3.0</ele><time>2026-05-01T10:47:31Z</time></trkpt><trkpt lat="44.332497282576" lon="15.359050918474196"><ele>4.0</ele><time>2026-05-01T10:47:32Z</time></trkpt><trkpt lat="44.33239407532538" lon="15.359221995129658"><ele>4.0</ele><time>2026-05-01T10:47:33Z</time></trkpt><trkpt lat="44.33229122980597" lon="15.359369577639606"><ele>4.0</ele><time>2026-05-01T10:47:34Z</time></trkpt><trkpt lat="44.33218726655463" lon="15.359517036114404"><ele>4.0</ele><time>2026-05-01T10:47:35Z</time></trkpt><trkpt lat="44.332087477589575" lon="15.359680137492932"><ele>4.0</ele><time>2026-05-01T10:47:36Z</time></trkpt><trkpt lat="44.331996792674424" lon="15.359867853651844"><ele>4.0</ele><time>2026-05-01T10:47:37Z</time></trkpt><trkpt lat="44.331921879624375" lon="15.360079177591718"><ele>4.0</ele><time>2026-05-01T10:47:38Z</time></trkpt><trkpt lat="44.33187491264941" lon="15.360293451851193"><ele>4.0</ele><time>2026-05-01T10:47:39Z</time></trkpt><trkpt lat="44.33185121813414" lon="15.360515783865308"><ele>5.0</ele><time>2026-05-01T10:47:40Z</time></trkpt><trkpt lat="44.33183770774608" lon="15.360777107620224"><ele>6.0</ele><time>2026-05-01T10:47:41Z</time></trkpt><trkpt lat="44.33183170685846" lon="15.361082628247262"><ele>7.0</ele><time>2026-05-01T10:47:42Z</time></trkpt><trkpt lat="44.33180835714125" lon="15.3614211669906"><ele>7.0</ele><time>2026-05-01T10:47:43Z</time></trkpt><trkpt lat="44.33177792585092" lon="15.361804809107667"><ele>7.0</ele><time>2026-05-01T10:47:44Z</time></trkpt><trkpt lat="44.331745838007855" lon="15.362227020885117"><ele>7.5</ele><time>2026-05-01T10:47:45Z</time></trkpt><trkpt lat="44.33170564337721" lon="15.362687900670553"><ele>8.0</ele><time>2026-05-01T10:47:46Z</time></trkpt><trkpt lat="44.33165653065509" lon="15.363144975821848"><ele>9.0</ele><time>2026-05-01T10:47:47Z</time></trkpt><trkpt lat="44.33160619007804" lon="15.363613998306302"><ele>10.0</ele><time>2026-05-01T10:47:48Z</time></trkpt><trkpt lat="44.33154255551545" lon="15.364101861311903"><ele>12.5</ele><time>2026-05-01T10:47:49Z</time></trkpt><trkpt lat="44.33145310748779" lon="15.364590220925209"><ele>15.0</ele><time>2026-05-01T10:47:50Z</time></trkpt><trkpt lat="44.331358340704696" lon="15.365042005862076"><ele>9.0</ele><time>2026-05-01T10:47:51Z</time></trkpt><trkpt lat="44.33127226559235" lon="15.36545484062683"><ele>3.0</ele><time>2026-05-01T10:47:52Z</time></trkpt><trkpt lat="44.33119695415944" lon="15.365834378729991"><ele>3.0</ele><time>2026-05-01T10:47:53Z</time></trkpt><trkpt lat="44.3311288535252" lon="15.36618464138464"><ele>3.0</ele><time>2026-05-01T10:47:54Z</time></trkpt><trkpt lat="44.33107425089392" lon="15.366525416867447"><ele>4.0</ele><time>2026-05-01T10:47:55Z</time></trkpt><trkpt lat="44.33104574756192" lon="15.36686676006778"><ele>5.0</ele><time>2026-05-01T10:47:56Z</time></trkpt><trkpt lat="44.331019755471964" lon="15.367230273679965"><ele>6.0</ele><time>2026-05-01T10:47:57Z</time></trkpt><trkpt lat="44.33097721619609" lon="15.367578964139623"><ele>7.0</ele><time>2026-05-01T10:47:58Z</time></trkpt><trkpt lat="44.33093186733833" lon="15.36789271669364"><ele>7.666666666666667</ele><time>2026-05-01T10:47:59Z</time></trkpt><trkpt lat="44.33088420398073" lon="15.368188833318547"><ele>8.333333333333334</ele><time>2026-05-01T10:48:00Z</time></trkpt><trkpt lat="44.33081635279967" lon="15.368464265023723"><ele>9.0</ele><time>2026-05-01T10:48:01Z</time></trkpt><trkpt lat="44.33071132411033" lon="15.368731440948643"><ele>11.0</ele><time>2026-05-01T10:48:02Z</time></trkpt><trkpt lat="44.330578524760256" lon="15.36897305367455"><ele>13.0</ele><time>2026-05-01T10:48:03Z</time></trkpt><trkpt lat="44.33044508591717" lon="15.369171841718764"><ele>15.0</ele><time>2026-05-01T10:48:04Z</time></trkpt><trkpt lat="44.33032818171411" lon="15.369374564328957"><ele>11.666666666666666</ele><time>2026-05-01T10:48:05Z</time></trkpt><trkpt lat="44.33023933270793" lon="15.369613348112637"><ele>8.333333333333334</ele><time>2026-05-01T10:48:06Z</time></trkpt><trkpt lat="44.33017698007661" lon="15.369886763854343"><ele>5.0</ele><time>2026-05-01T10:48:07Z</time></trkpt><trkpt lat="44.33012226537829" lon="15.370183923272101"><ele>5.0</ele><time>2026-05-01T10:48:08Z</time></trkpt><trkpt lat="44.330062324675424" lon="15.370478490880883"><ele>5.0</ele><time>2026-05-01T10:48:09Z</time></trkpt><trkpt lat="44.32998792272654" lon="15.370755167807783"><ele>5.0</ele><time>2026-05-01T10:48:10Z</time></trkpt><trkpt lat="44.32989420896681" lon="15.371013202927632"><ele>4.333333333333334</ele><time>2026-05-01T10:48:11Z</time></trkpt><trkpt lat="44.329758181774714" lon="15.371249659029505"><ele>3.666666666666667</ele><time>2026-05-01T10:48:12Z</time></trkpt><trkpt lat="44.32959364567304" lon="15.371471850205685"><ele>3.0</ele><time>2026-05-01T10:48:13Z</time></trkpt><trkpt lat="44.329413578437844" lon="15.371687760453845"><ele>3.0</ele><time>2026-05-01T10:48:14Z</time></trkpt><trkpt lat="44.32924496794299" lon="15.371908102993467"><ele>3.0</ele><time>2026-05-01T10:48:15Z</time></trkpt><trkpt lat="44.32908554360265" lon="15.37213297023909"><ele>2.0</ele><time>2026-05-01T10:48:16Z</time></trkpt><trkpt lat="44.328939603854785" lon="15.37236842365393"><ele>1.0</ele><time>2026-05-01T10:48:17Z</time></trkpt><trkpt lat="44.328816716522105" lon="15.372625888613623"><ele>0.0</ele><time>2026-05-01T10:48:18Z</time></trkpt><trkpt lat="44.32872309097443" lon="15.372902886434064"><ele>0.3333333333333333</ele><time>2026-05-01T10:48:19Z</time></trkpt><trkpt lat="44.328671754941816" lon="15.373193600567316"><ele>0.6666666666666666</ele><time>2026-05-01T10:48:20Z</time></trkpt><trkpt lat="44.32865266691442" lon="15.373494222589539"><ele>1.0</ele><time>2026-05-01T10:48:21Z</time></trkpt><trkpt lat="44.328662519117856" lon="15.373818320622755"><ele>1.0</ele><time>2026-05-01T10:48:22Z</time></trkpt><trkpt lat="44.32867654632825" lon="15.374146001829212"><ele>1.0</ele><time>2026-05-01T10:48:23Z</time></trkpt><trkpt lat="44.32866271170898" lon="15.374460966611874"><ele>2.0</ele><time>2026-05-01T10:48:24Z</time></trkpt><trkpt lat="44.328597688039395" lon="15.374754187186927"><ele>3.0</ele><time>2026-05-01T10:48:25Z</time></trkpt><trkpt lat="44.32846861511365" lon="15.375035038618753"><ele>3.0</ele><time>2026-05-01T10:48:26Z</time></trkpt><trkpt lat="44.32829742957317" lon="15.375269216236822"><ele>3.0</ele><time>2026-05-01T10:48:27Z</time></trkpt><trkpt lat="44.32809604555353" lon="15.375459044715237"><ele>4.0</ele><time>2026-05-01T10:48:28Z</time></trkpt><trkpt lat="44.32788790715481" lon="15.375613386900477"><ele>5.0</ele><time>2026-05-01T10:48:29Z</time></trkpt><trkpt lat="44.32769914312811" lon="15.37577293843761"><ele>5.0</ele><time>2026-05-01T10:48:30Z</time></trkpt><trkpt lat="44.32753591340045" lon="15.375979178909994"><ele>5.0</ele><time>2026-05-01T10:48:31Z</time></trkpt><trkpt lat="44.32740768771227" lon="15.376225219389786"><ele>5.0</ele><time>2026-05-01T10:48:32Z</time></trkpt><trkpt lat="44.32731762897996" lon="15.376515437597982"><ele>4.0</ele><time>2026-05-01T10:48:33Z</time></trkpt><trkpt lat="44.32724748304948" lon="15.37680181477076"><ele>3.0</ele><time>2026-05-01T10:48:34Z</time></trkpt><trkpt lat="44.32717958146401" lon="15.377085860764655"><ele>2.0</ele><time>2026-05-01T10:48:35Z</time></trkpt><trkpt lat="44.32711068821347" lon="15.377355546674387"><ele>2.0</ele><time>2026-05-01T10:48:36Z</time></trkpt><trkpt lat="44.32704098512136" lon="15.377612503842963"><ele>2.0</ele><time>2026-05-01T10:48:37Z</time></trkpt><trkpt lat="44.326973664489536" lon="15.377856752552093"><ele>2.0</ele><time>2026-05-01T10:48:38Z</time></trkpt><trkpt lat="44.32691378068154" lon="15.378092249667825"><ele>2.6666666666666665</ele><time>2026-05-01T10:48:39Z</time></trkpt><trkpt lat="44.32687201737826" lon="15.378312061686351"><ele>3.333333333333333</ele><time>2026-05-01T10:48:40Z</time></trkpt><trkpt lat="44.32685467720383" lon="15.378519998397815"><ele>4.0</ele><time>2026-05-01T10:48:41Z</time></trkpt><trkpt lat="44.326868842192454" lon="15.378711661267154"><ele>4.0</ele><time>2026-05-01T10:48:42Z</time></trkpt><trkpt lat="44.32690480174583" lon="15.378911385826557"><ele>4.0</ele><time>2026-05-01T10:48:43Z</time></trkpt><trkpt lat="44.32697158958013" lon="15.37910747193111"><ele>4.0</ele><time>2026-05-01T10:48:44Z</time></trkpt><trkpt lat="44.32705568615378" lon="15.379277659118516"><ele>4.0</ele><time>2026-05-01T10:48:45Z</time></trkpt><trkpt lat="44.32715515865201" lon="15.379419862561287"><ele>4.0</ele><time>2026-05-01T10:48:46Z</time></trkpt><trkpt lat="44.32725989318499" lon="15.379548540105102"><ele>4.0</ele><time>2026-05-01T10:48:47Z</time></trkpt><trkpt lat="44.32735172240492" lon="15.379676767212155"><ele>4.0</ele><time>2026-05-01T10:48:48Z</time></trkpt><trkpt lat="44.32743382721337" lon="15.379805098595298"><ele>7.0</ele><time>2026-05-01T10:48:49Z</time></trkpt><trkpt lat="44.32750734853951" lon="15.379935834023577"><ele>10.0</ele><time>2026-05-01T10:48:50Z</time></trkpt><trkpt lat="44.327563838487976" lon="15.380080849242146"><ele>13.0</ele><time>2026-05-01T10:48:51Z</time></trkpt><trkpt lat="44.32759506377774" lon="15.380245162120262"><ele>16.0</ele><time>2026-05-01T10:48:52Z</time></trkpt><trkpt lat="44.327599273904084" lon="15.38041542591695"><ele>16.25</ele><time>2026-05-01T10:48:53Z</time></trkpt><trkpt lat="44.327578872638306" lon="15.380586219099136"><ele>16.5</ele><time>2026-05-01T10:48:54Z</time></trkpt><trkpt lat="44.3275331457249" lon="15.38074750410521"><ele>16.75</ele><time>2026-05-01T10:48:55Z</time></trkpt><trkpt lat="44.32745445695415" lon="15.380891449134094"><ele>17.0</ele><time>2026-05-01T10:48:56Z</time></trkpt><trkpt lat="44.327348813122995" lon="15.381016797346689"><ele>11.666666666666668</ele><time>2026-05-01T10:48:57Z</time></trkpt><trkpt lat="44.327221966702794" lon="15.381110230585564"><ele>6.333333333333334</ele><time>2026-05-01T10:48:58Z</time></trkpt><trkpt lat="44.32707878141468" lon="15.381190719425893"><ele>1.0</ele><time>2026-05-01T10:48:59Z</time></trkpt><trkpt lat="44.32692300413154" lon="15.381255208078352"><ele>1.0</ele><time>2026-05-01T10:49:00Z</time></trkpt><trkpt lat="44.32676352681667" lon="15.381313866149416"><ele>1.0</ele><time>2026-05-01T10:49:01Z</time></trkpt><trkpt lat="44.326616690199636" lon="15.38137195429027"><ele>1.0</ele><time>2026-05-01T10:49:02Z</time></trkpt><trkpt lat="44.32648424000162" lon="15.38142946255778"><ele>1.75</ele><time>2026-05-01T10:49:03Z</time></trkpt><trkpt lat="44.3263567841342" lon="15.381481576745497"><ele>2.5</ele><time>2026-05-01T10:49:04Z</time></trkpt><trkpt lat="44.32622347451832" lon="15.381536725526251"><ele>3.25</ele><time>2026-05-01T10:49:05Z</time></trkpt><trkpt lat="44.32608778836956" lon="15.381599249052714"><ele>4.0</ele><time>2026-05-01T10:49:06Z</time></trkpt><trkpt lat="44.32595832510259" lon="15.381677117284488"><ele>4.0</ele><time>2026-05-01T10:49:07Z</time></trkpt><trkpt lat="44.325836234274256" lon="15.381782056811353"><ele>4.0</ele><time>2026-05-01T10:49:08Z</time></trkpt><trkpt lat="44.32572558818598" lon="15.3819061921405"><ele>4.0</ele><time>2026-05-01T10:49:09Z</time></trkpt><trkpt lat="44.32563069995595" lon="15.382069348001979"><ele>4.0</ele><time>2026-05-01T10:49:10Z</time></trkpt><trkpt lat="44.32554681740656" lon="15.382251385825759"><ele>3.0</ele><time>2026-05-01T10:49:11Z</time></trkpt><trkpt lat="44.325463885200215" lon="15.382446020456577"><ele>2.0</ele><time>2026-05-01T10:49:12Z</time></trkpt><trkpt lat="44.32537750240551" lon="15.382644433802279"><ele>1.0</ele><time>2026-05-01T10:49:13Z</time></trkpt><trkpt lat="44.325289443720244" lon="15.382843133234504"><ele>2.3333333333333335</ele><time>2026-05-01T10:49:14Z</time></trkpt><trkpt lat="44.32520285530042" lon="15.38303274890665"><ele>3.666666666666667</ele><time>2026-05-01T10:49:15Z</time></trkpt><trkpt lat="44.32511841062611" lon="15.383222977425664"><ele>5.0</ele><time>2026-05-01T10:49:16Z</time></trkpt><trkpt lat="44.32504276344381" lon="15.383413422299697"><ele>5.0</ele><time>2026-05-01T10:49:17Z</time></trkpt><trkpt lat="44.32497569195556" lon="15.383610645125255"><ele>5.0</ele><time>2026-05-01T10:49:18Z</time></trkpt><trkpt lat="44.3249262061323" lon="15.38380903109799"><ele>5.0</ele><time>2026-05-01T10:49:19Z</time></trkpt><trkpt lat="44.32489036145154" lon="15.384010285342212"><ele>7.333333333333334</ele><time>2026-05-01T10:49:20Z</time></trkpt><trkpt lat="44.32486167754247" lon="15.38421421046255"><ele>9.666666666666666</ele><time>2026-05-01T10:49:21Z</time></trkpt><trkpt lat="44.32484566079112" lon="15.384426434526675"><ele>12.0</ele><time>2026-05-01T10:49:22Z</time></trkpt><trkpt lat="44.32484345020581" lon="15.38463979649465"><ele>13.0</ele><time>2026-05-01T10:49:23Z</time></trkpt><trkpt lat="44.32485544934255" lon="15.384848382298042"><ele>14.0</ele><time>2026-05-01T10:49:24Z</time></trkpt><trkpt lat="44.3248771825804" lon="15.385063695288538"><ele>15.0</ele><time>2026-05-01T10:49:25Z</time></trkpt><trkpt lat="44.324915231485946" lon="15.385278926287436"><ele>15.0</ele><time>2026-05-01T10:49:26Z</time></trkpt><trkpt lat="44.32496657184019" lon="15.385472884165935"><ele>15.0</ele><time>2026-05-01T10:49:27Z</time></trkpt><trkpt lat="44.32501945877334" lon="15.38565546533517"><ele>15.0</ele><time>2026-05-01T10:49:28Z</time></trkpt><trkpt lat="44.32507347767154" lon="15.385840940947155"><ele>15.0</ele><time>2026-05-01T10:49:29Z</time></trkpt><trkpt lat="44.32512706342606" lon="15.386018462085373"><ele>15.25</ele><time>2026-05-01T10:49:30Z</time></trkpt><trkpt lat="44.32517707846746" lon="15.386186365063168"><ele>15.5</ele><time>2026-05-01T10:49:31Z</time></trkpt><trkpt lat="44.32521963820976" lon="15.386350198259134"><ele>15.75</ele><time>2026-05-01T10:49:32Z</time></trkpt><trkpt lat="44.325231801449036" lon="15.386506640289687"><ele>16.0</ele><time>2026-05-01T10:49:33Z</time></trkpt><trkpt lat="44.32520634416759" lon="15.386657817142222"><ele>13.25</ele><time>2026-05-01T10:49:34Z</time></trkpt><trkpt lat="44.325149154737105" lon="15.386790734446322"><ele>10.5</ele><time>2026-05-01T10:49:35Z</time></trkpt><trkpt lat="44.32506359380218" lon="15.386899065985952"><ele>7.75</ele><time>2026-05-01T10:49:36Z</time></trkpt><trkpt lat="44.32496260241024" lon="15.386981525180753"><ele>5.0</ele><time>2026-05-01T10:49:37Z</time></trkpt><trkpt lat="44.32484263964658" lon="15.387014357554795"><ele>4.0</ele><time>2026-05-01T10:49:38Z</time></trkpt><trkpt lat="44.32471983217329" lon="15.387026071377333"><ele>3.0</ele><time>2026-05-01T10:49:39Z</time></trkpt><trkpt lat="44.324601138816135" lon="15.387035972020692"><ele>2.0</ele><time>2026-05-01T10:49:40Z</time></trkpt><trkpt lat="44.324477248779004" lon="15.387054052063064"><ele>1.0</ele><time>2026-05-01T10:49:41Z</time></trkpt><trkpt lat="44.32434840991541" lon="15.387077965393445"><ele>1.0</ele><time>2026-05-01T10:49:42Z</time></trkpt><trkpt lat="44.32421919096708" lon="15.38712177451583"><ele>1.0</ele><time>2026-05-01T10:49:43Z</time></trkpt><trkpt lat="44.324099583016014" lon="15.387200601679053"><ele>1.0</ele><time>2026-05-01T10:49:44Z</time></trkpt><trkpt lat="44.32399216177932" lon="15.387309541727287"><ele>1.0</ele><time>2026-05-01T10:49:45Z</time></trkpt><trkpt lat="44.32389058404321" lon="15.387447955142369"><ele>1.0</ele><time>2026-05-01T10:49:46Z</time></trkpt><trkpt lat="44.32380199381803" lon="15.387612502866547"><ele>1.0</ele><time>2026-05-01T10:49:47Z</time></trkpt><trkpt lat="44.323719168285436" lon="15.387812515875625"><ele>1.0</ele><time>2026-05-01T10:49:48Z</time></trkpt><trkpt lat="44.323643807314156" lon="15.388019565160212"><ele>3.0</ele><time>2026-05-01T10:49:49Z</time></trkpt><trkpt lat="44.323576833677485" lon="15.388220036537701"><ele>5.0</ele><time>2026-05-01T10:49:50Z</time></trkpt><trkpt lat="44.32350823411284" lon="15.388410067717247"><ele>7.0</ele><time>2026-05-01T10:49:51Z</time></trkpt><trkpt lat="44.32343458507238" lon="15.38862121859917"><ele>10.0</ele><time>2026-05-01T10:49:52Z</time></trkpt><trkpt lat="44.32334560402367" lon="15.388871344179668"><ele>13.0</ele><time>2026-05-01T10:49:53Z</time></trkpt><trkpt lat="44.32323864417582" lon="15.38916148427944"><ele>16.0</ele><time>2026-05-01T10:49:54Z</time></trkpt><trkpt lat="44.323134875855494" lon="15.389484170550272"><ele>10.0</ele><time>2026-05-01T10:49:55Z</time></trkpt><trkpt lat="44.32303235010774" lon="15.389796836308046"><ele>4.0</ele><time>2026-05-01T10:49:56Z</time></trkpt><trkpt lat="44.32294938440269" lon="15.390087181817767"><ele>4.0</ele><time>2026-05-01T10:49:57Z</time></trkpt><trkpt lat="44.322887864129456" lon="15.390360218557548"><ele>4.0</ele><time>2026-05-01T10:49:58Z</time></trkpt><trkpt lat="44.322838507389044" lon="15.39063335136611"><ele>4.0</ele><time>2026-05-01T10:49:59Z</time></trkpt><trkpt lat="44.32279366550002" lon="15.390927118822548"><ele>4.5</ele><time>2026-05-01T10:50:00Z</time></trkpt><trkpt lat="44.322758559171916" lon="15.391261978796768"><ele>5.0</ele><time>2026-05-01T10:50:01Z</time></trkpt><trkpt lat="44.32272224638303" lon="15.391655297034946"><ele>7.5</ele><time>2026-05-01T10:50:02Z</time></trkpt><trkpt lat="44.322666909325385" lon="15.392058450531419"><ele>10.0</ele><time>2026-05-01T10:50:03Z</time></trkpt><trkpt lat="44.322595661500856" lon="15.392437735760977"><ele>11.5</ele><time>2026-05-01T10:50:04Z</time></trkpt><trkpt lat="44.32253439791303" lon="15.392810307477447"><ele>13.0</ele><time>2026-05-01T10:50:05Z</time></trkpt><trkpt lat="44.32248920181694" lon="15.39317478136295"><ele>15.0</ele><time>2026-05-01T10:50:06Z</time></trkpt><trkpt lat="44.322446200561075" lon="15.393530260632835"><ele>17.0</ele><time>2026-05-01T10:50:07Z</time></trkpt><trkpt lat="44.322401572087514" lon="15.393861153866919"><ele>19.5</ele><time>2026-05-01T10:50:08Z</time></trkpt><trkpt lat="44.322360265122846" lon="15.394181955039409"><ele>22.0</ele><time>2026-05-01T10:50:09Z</time></trkpt><trkpt lat="44.32232373116745" lon="15.394499654932291"><ele>22.5</ele><time>2026-05-01T10:50:10Z</time></trkpt><trkpt lat="44.32230274258635" lon="15.394819438113968"><ele>23.0</ele><time>2026-05-01T10:50:11Z</time></trkpt><trkpt lat="44.32229780023062" lon="15.395146985018911"><ele>23.0</ele><time>2026-05-01T10:50:12Z</time></trkpt><trkpt lat="44.32230851504153" lon="15.395473458566105"><ele>23.0</ele><time>2026-05-01T10:50:13Z</time></trkpt><trkpt lat="44.32232889328579" lon="15.395803644452565"><ele>23.333333333333336</ele><time>2026-05-01T10:50:14Z</time></trkpt><trkpt lat="44.32234595171103" lon="15.396119046614912"><ele>23.666666666666668</ele><time>2026-05-01T10:50:15Z</time></trkpt><trkpt lat="44.32234307505355" lon="15.39643005810129"><ele>24.0</ele><time>2026-05-01T10:50:16Z</time></trkpt><trkpt lat="44.322301738991754" lon="15.3967259900649"><ele>19.333333333333332</ele><time>2026-05-01T10:50:17Z</time></trkpt><trkpt lat="44.32221414987696" lon="15.39700513881721"><ele>14.666666666666668</ele><time>2026-05-01T10:50:18Z</time></trkpt><trkpt lat="44.3221072067391" lon="15.397268809297405"><ele>10.0</ele><time>2026-05-01T10:50:19Z</time></trkpt><trkpt lat="44.32199349582143" lon="15.397522799300093"><ele>10.0</ele><time>2026-05-01T10:50:20Z</time></trkpt><trkpt lat="44.32188076819459" lon="15.397790746528683"><ele>10.0</ele><time>2026-05-01T10:50:21Z</time></trkpt><trkpt lat="44.32176694484821" lon="15.398060416349741"><ele>10.0</ele><time>2026-05-01T10:50:22Z</time></trkpt><trkpt lat="44.32165482859226" lon="15.398319471830694"><ele>10.333333333333334</ele><time>2026-05-01T10:50:23Z</time></trkpt><trkpt lat="44.321542766641" lon="15.398580304066277"><ele>10.666666666666666</ele><time>2026-05-01T10:50:24Z</time></trkpt><trkpt lat="44.32143309909484" lon="15.398843409160998"><ele>11.0</ele><time>2026-05-01T10:50:25Z</time></trkpt><trkpt lat="44.321326656196995" lon="15.39910334931616"><ele>11.0</ele><time>2026-05-01T10:50:26Z</time></trkpt><trkpt lat="44.32122530204874" lon="15.3993607329649"><ele>11.0</ele><time>2026-05-01T10:50:27Z</time></trkpt><trkpt lat="44.32111839551914" lon="15.39961424859096"><ele>11.0</ele><time>2026-05-01T10:50:28Z</time></trkpt><trkpt lat="44.3210098397993" lon="15.399871099264553"><ele>15.333333333333332</ele><time>2026-05-01T10:50:29Z</time></trkpt><trkpt lat="44.320899933277666" lon="15.400140115166725"><ele>19.666666666666668</ele><time>2026-05-01T10:50:30Z</time></trkpt><trkpt lat="44.3207902169692" lon="15.40041306439367"><ele>24.0</ele><time>2026-05-01T10:50:31Z</time></trkpt><trkpt lat="44.32067986042374" lon="15.400676259289444"><ele>18.5</ele><time>2026-05-01T10:50:32Z</time></trkpt><trkpt lat="44.320565531762526" lon="15.400954126733447"><ele>13.0</ele><time>2026-05-01T10:50:33Z</time></trkpt><trkpt lat="44.32044636161844" lon="15.401245895105825"><ele>18.0</ele><time>2026-05-01T10:50:34Z</time></trkpt><trkpt lat="44.3203269993606" lon="15.401542013308621"><ele>23.0</ele><time>2026-05-01T10:50:35Z</time></trkpt><trkpt lat="44.320212367537046" lon="15.40183603246828"><ele>23.0</ele><time>2026-05-01T10:50:36Z</time></trkpt><trkpt lat="44.32010339784554" lon="15.402135856566403"><ele>23.0</ele><time>2026-05-01T10:50:37Z</time></trkpt><trkpt lat="44.31999711444152" lon="15.402440869756889"><ele>29.5</ele><time>2026-05-01T10:50:38Z</time></trkpt><trkpt lat="44.31989318582773" lon="15.40276057565987"><ele>36.0</ele><time>2026-05-01T10:50:39Z</time></trkpt><trkpt lat="44.31978683090749" lon="15.403104098655929"><ele>34.0</ele><time>2026-05-01T10:50:40Z</time></trkpt><trkpt lat="44.31968458761256" lon="15.403468013621932"><ele>32.0</ele><time>2026-05-01T10:50:41Z</time></trkpt><trkpt lat="44.31958627888949" lon="15.403859140283014"><ele>32.0</ele><time>2026-05-01T10:50:42Z</time></trkpt><trkpt lat="44.31948772782998" lon="15.404269120497645"><ele>32.0</ele><time>2026-05-01T10:50:43Z</time></trkpt><trkpt lat="44.31939508986631" lon="15.404670853828671"><ele>35.5</ele><time>2026-05-01T10:50:44Z</time></trkpt><trkpt lat="44.3193017291387" lon="15.405047222851252"><ele>39.0</ele><time>2026-05-01T10:50:45Z</time></trkpt><trkpt lat="44.319214549543204" lon="15.405396241423508"><ele>42.0</ele><time>2026-05-01T10:50:46Z</time></trkpt><trkpt lat="44.31913544471875" lon="15.405739644403385"><ele>45.0</ele><time>2026-05-01T10:50:47Z</time></trkpt><trkpt lat="44.31908297150656" lon="15.406075239206878"><ele>48.0</ele><time>2026-05-01T10:50:48Z</time></trkpt><trkpt lat="44.31905877396086" lon="15.406414152342343"><ele>51.0</ele><time>2026-05-01T10:50:49Z</time></trkpt><trkpt lat="44.31906919018518" lon="15.406757594315929"><ele>51.0</ele><time>2026-05-01T10:50:50Z</time></trkpt><trkpt lat="44.31910703229082" lon="15.407110625398554"><ele>51.0</ele><time>2026-05-01T10:50:51Z</time></trkpt><trkpt lat="44.319172894776344" lon="15.407450471168605"><ele>52.0</ele><time>2026-05-01T10:50:52Z</time></trkpt><trkpt lat="44.319228186701004" lon="15.407790313757397"><ele>53.0</ele><time>2026-05-01T10:50:53Z</time></trkpt><trkpt lat="44.319243339144926" lon="15.408122169809936"><ele>53.66666666666667</ele><time>2026-05-01T10:50:54Z</time></trkpt><trkpt lat="44.31921538672209" lon="15.408430065697875"><ele>54.33333333333333</ele><time>2026-05-01T10:50:55Z</time></trkpt><trkpt lat="44.31915054133634" lon="15.408718892258447"><ele>55.0</ele><time>2026-05-01T10:50:56Z</time></trkpt><trkpt lat="44.31903951081248" lon="15.40899278854077"><ele>51.5</ele><time>2026-05-01T10:50:57Z</time></trkpt><trkpt lat="44.31888474671593" lon="15.409249777061524"><ele>48.0</ele><time>2026-05-01T10:50:58Z</time></trkpt><trkpt lat="44.31871123627132" lon="15.409497363815662"><ele>48.5</ele><time>2026-05-01T10:50:59Z</time></trkpt><trkpt lat="44.31854046557347" lon="15.409751024363354"><ele>49.0</ele><time>2026-05-01T10:51:00Z</time></trkpt><trkpt lat="44.31837632132105" lon="15.410026284035625"><ele>49.0</ele><time>2026-05-01T10:51:01Z</time></trkpt><trkpt lat="44.31820873591236" lon="15.410290526794471"><ele>49.0</ele><time>2026-05-01T10:51:02Z</time></trkpt><trkpt lat="44.31804370216951" lon="15.410552104139699"><ele>52.5</ele><time>2026-05-01T10:51:03Z</time></trkpt><trkpt lat="44.31788351691683" lon="15.410797170249534"><ele>56.0</ele><time>2026-05-01T10:51:04Z</time></trkpt><trkpt lat="44.31771295371541" lon="15.411020892434465"><ele>56.0</ele><time>2026-05-01T10:51:05Z</time></trkpt><trkpt lat="44.31752142255103" lon="15.411213079516035"><ele>56.0</ele><time>2026-05-01T10:51:06Z</time></trkpt><trkpt lat="44.31732088676325" lon="15.41137485115399"><ele>56.0</ele><time>2026-05-01T10:51:07Z</time></trkpt><trkpt lat="44.31711943150551" lon="15.411538454634877"><ele>56.0</ele><time>2026-05-01T10:51:08Z</time></trkpt><trkpt lat="44.31694243105779" lon="15.411741604207721"><ele>56.0</ele><time>2026-05-01T10:51:09Z</time></trkpt><trkpt lat="44.3167986416488" lon="15.41199365345065"><ele>56.0</ele><time>2026-05-01T10:51:10Z</time></trkpt><trkpt lat="44.31669086655419" lon="15.412280735297047"><ele>56.0</ele><time>2026-05-01T10:51:11Z</time></trkpt><trkpt lat="44.31660379465744" lon="15.412602901385085"><ele>56.0</ele><time>2026-05-01T10:51:12Z</time></trkpt><trkpt lat="44.316514864902835" lon="15.412944125469627"><ele>56.0</ele><time>2026-05-01T10:51:13Z</time></trkpt><trkpt lat="44.31642169117082" lon="15.413295197474941"><ele>56.0</ele><time>2026-05-01T10:51:14Z</time></trkpt><trkpt lat="44.31632129654697" lon="15.413644713526482"><ele>54.0</ele><time>2026-05-01T10:51:15Z</time></trkpt><trkpt lat="44.31621958245659" lon="15.413998860327379"><ele>52.0</ele><time>2026-05-01T10:51:16Z</time></trkpt><trkpt lat="44.31611494694323" lon="15.414353243848764"><ele>52.0</ele><time>2026-05-01T10:51:17Z</time></trkpt><trkpt lat="44.3160094383976" lon="15.41471784148667"><ele>52.0</ele><time>2026-05-01T10:51:18Z</time></trkpt><trkpt lat="44.31590738294586" lon="15.415077438951661"><ele>52.0</ele><time>2026-05-01T10:51:19Z</time></trkpt><trkpt lat="44.31580346735822" lon="15.415439850215694"><ele>52.0</ele><time>2026-05-01T10:51:20Z</time></trkpt><trkpt lat="44.315691119773355" lon="15.415803976137266"><ele>54.5</ele><time>2026-05-01T10:51:21Z</time></trkpt><trkpt lat="44.3155831714056" lon="15.41616554745327"><ele>57.0</ele><time>2026-05-01T10:51:22Z</time></trkpt><trkpt lat="44.31547678294281" lon="15.41653460979262"><ele>52.5</ele><time>2026-05-01T10:51:23Z</time></trkpt><trkpt lat="44.31536567735067" lon="15.4169109437744"><ele>48.0</ele><time>2026-05-01T10:51:24Z</time></trkpt><trkpt lat="44.31525458371077" lon="15.417284929348943"><ele>48.0</ele><time>2026-05-01T10:51:25Z</time></trkpt><trkpt lat="44.315143815919185" lon="15.417648752354824"><ele>48.0</ele><time>2026-05-01T10:51:26Z</time></trkpt><trkpt lat="44.315025296226715" lon="15.41799933540548"><ele>48.0</ele><time>2026-05-01T10:51:27Z</time></trkpt><trkpt lat="44.31488408387402" lon="15.418344991237715"><ele>48.0</ele><time>2026-05-01T10:51:28Z</time></trkpt><trkpt lat="44.31472873077541" lon="15.418675654495383"><ele>49.5</ele><time>2026-05-01T10:51:29Z</time></trkpt><trkpt lat="44.31455812573894" lon="15.419003840036233"><ele>51.0</ele><time>2026-05-01T10:51:30Z</time></trkpt><trkpt lat="44.314373484756246" lon="15.419308225513028"><ele>51.0</ele><time>2026-05-01T10:51:31Z</time></trkpt><trkpt lat="44.31417200542077" lon="15.419594651650188"><ele>51.0</ele><time>2026-05-01T10:51:32Z</time></trkpt><trkpt lat="44.31395951870616" lon="15.419865193367357"><ele>47.0</ele><time>2026-05-01T10:51:33Z</time></trkpt><trkpt lat="44.31374124064776" lon="15.42012766259772"><ele>43.0</ele><time>2026-05-01T10:51:34Z</time></trkpt><trkpt lat="44.313518652692295" lon="15.42038866343683"><ele>47.5</ele><time>2026-05-01T10:51:35Z</time></trkpt><trkpt lat="44.31330146754851" lon="15.420652360555748"><ele>52.0</ele><time>2026-05-01T10:51:36Z</time></trkpt><trkpt lat="44.313092796869384" lon="15.420908878342033"><ele>50.0</ele><time>2026-05-01T10:51:37Z</time></trkpt><trkpt lat="44.31289477132458" lon="15.421165206453926"><ele>48.0</ele><time>2026-05-01T10:51:38Z</time></trkpt><trkpt lat="44.31270287937139" lon="15.421433766284398"><ele>48.0</ele><time>2026-05-01T10:51:39Z</time></trkpt><trkpt lat="44.31252692288106" lon="15.42173149175509"><ele>48.0</ele><time>2026-05-01T10:51:40Z</time></trkpt><trkpt lat="44.31236462011053" lon="15.422042987364758"><ele>46.0</ele><time>2026-05-01T10:51:41Z</time></trkpt><trkpt lat="44.31219814014801" lon="15.422339525966143"><ele>44.0</ele><time>2026-05-01T10:51:42Z</time></trkpt><trkpt lat="44.312019561289425" lon="15.422596699273898"><ele>44.0</ele><time>2026-05-01T10:51:43Z</time></trkpt><trkpt lat="44.311832889124005" lon="15.422795940533254"><ele>44.0</ele><time>2026-05-01T10:51:44Z</time></trkpt><trkpt lat="44.311638152646545" lon="15.422969108258929"><ele>44.0</ele><time>2026-05-01T10:51:45Z</time></trkpt><trkpt lat="44.311438039178405" lon="15.423097548294146"><ele>44.0</ele><time>2026-05-01T10:51:46Z</time></trkpt><trkpt lat="44.31122206609541" lon="15.423197507189641"><ele>44.0</ele><time>2026-05-01T10:51:47Z</time></trkpt><trkpt lat="44.31099027299032" lon="15.423286695600469"><ele>44.0</ele><time>2026-05-01T10:51:48Z</time></trkpt><trkpt lat="44.31075142120176" lon="15.423380307135922"><ele>44.0</ele><time>2026-05-01T10:51:49Z</time></trkpt><trkpt lat="44.31051487855933" lon="15.423487472324274"><ele>39.0</ele><time>2026-05-01T10:51:50Z</time></trkpt><trkpt lat="44.310283435715" lon="15.423584358712791"><ele>34.0</ele><time>2026-05-01T10:51:51Z</time></trkpt><trkpt lat="44.310055306826484" lon="15.423689054490536"><ele>34.0</ele><time>2026-05-01T10:51:52Z</time></trkpt><trkpt lat="44.30983853048664" lon="15.423779991535739"><ele>34.0</ele><time>2026-05-01T10:51:53Z</time></trkpt><trkpt lat="44.30962224627404" lon="15.423863922231304"><ele>38.5</ele><time>2026-05-01T10:51:54Z</time></trkpt><trkpt lat="44.309401231987614" lon="15.423930570053901"><ele>43.0</ele><time>2026-05-01T10:51:55Z</time></trkpt><trkpt lat="44.30917614223224" lon="15.42394820731921"><ele>43.0</ele><time>2026-05-01T10:51:56Z</time></trkpt><trkpt lat="44.3089613283382" lon="15.423922866151202"><ele>43.0</ele><time>2026-05-01T10:51:57Z</time></trkpt><trkpt lat="44.308754803713484" lon="15.423878900478446"><ele>43.0</ele><time>2026-05-01T10:51:58Z</time></trkpt><trkpt lat="44.30854839857298" lon="15.423845536504174"><ele>42.0</ele><time>2026-05-01T10:51:59Z</time></trkpt><trkpt lat="44.30834574672417" lon="15.42385339031174"><ele>41.0</ele><time>2026-05-01T10:52:00Z</time></trkpt><trkpt lat="44.30814641216955" lon="15.423895878454427"><ele>40.0</ele><time>2026-05-01T10:52:01Z</time></trkpt><trkpt lat="44.30795138190577" lon="15.423966737247655"><ele>36.66666666666667</ele><time>2026-05-01T10:52:02Z</time></trkpt><trkpt lat="44.30777660192427" lon="15.424051806926634"><ele>33.333333333333336</ele><time>2026-05-01T10:52:03Z</time></trkpt><trkpt lat="44.307614926253784" lon="15.424152028923535"><ele>30.0</ele><time>2026-05-01T10:52:04Z</time></trkpt><trkpt lat="44.30746684216424" lon="15.424269135148695"><ele>30.0</ele><time>2026-05-01T10:52:05Z</time></trkpt><trkpt lat="44.30733678397508" lon="15.424402122357819"><ele>30.0</ele><time>2026-05-01T10:52:06Z</time></trkpt><trkpt lat="44.30722080510945" lon="15.424536644479916"><ele>30.0</ele><time>2026-05-01T10:52:07Z</time></trkpt><trkpt lat="44.30711387797439" lon="15.424669159209152"><ele>27.666666666666668</ele><time>2026-05-01T10:52:08Z</time></trkpt><trkpt lat="44.30700554972302" lon="15.424815279514558"><ele>25.333333333333336</ele><time>2026-05-01T10:52:09Z</time></trkpt><trkpt lat="44.306900573705356" lon="15.424976945404413"><ele>23.0</ele><time>2026-05-01T10:52:10Z</time></trkpt><trkpt lat="44.306789391282805" lon="15.425152168672424"><ele>23.0</ele><time>2026-05-01T10:52:11Z</time></trkpt><trkpt lat="44.30667636187706" lon="15.425331852237361"><ele>23.0</ele><time>2026-05-01T10:52:12Z</time></trkpt><trkpt lat="44.306560636118746" lon="15.425515943949835"><ele>23.0</ele><time>2026-05-01T10:52:13Z</time></trkpt><trkpt lat="44.30643542992503" lon="15.42570769115248"><ele>19.666666666666668</ele><time>2026-05-01T10:52:14Z</time></trkpt><trkpt lat="44.306309333355586" lon="15.425899302571306"><ele>16.333333333333332</ele><time>2026-05-01T10:52:15Z</time></trkpt><trkpt lat="44.30618152719502" lon="15.426093877437607"><ele>13.0</ele><time>2026-05-01T10:52:16Z</time></trkpt><trkpt lat="44.30605707660483" lon="15.426290239364297"><ele>17.0</ele><time>2026-05-01T10:52:17Z</time></trkpt><trkpt lat="44.30592852090254" lon="15.426489274415928"><ele>21.0</ele><time>2026-05-01T10:52:18Z</time></trkpt><trkpt lat="44.30580201250931" lon="15.426688659841322"><ele>25.0</ele><time>2026-05-01T10:52:19Z</time></trkpt><trkpt lat="44.30567262327862" lon="15.426886707885025"><ele>21.666666666666668</ele><time>2026-05-01T10:52:20Z</time></trkpt><trkpt lat="44.305547740405935" lon="15.42707960645421"><ele>18.333333333333336</ele><time>2026-05-01T10:52:21Z</time></trkpt><trkpt lat="44.305418702428454" lon="15.427282718677366"><ele>15.0</ele><time>2026-05-01T10:52:22Z</time></trkpt><trkpt lat="44.30530239010666" lon="15.427497942694762"><ele>15.0</ele><time>2026-05-01T10:52:23Z</time></trkpt><trkpt lat="44.30520564878579" lon="15.427717530614425"><ele>15.0</ele><time>2026-05-01T10:52:24Z</time></trkpt><trkpt lat="44.30511813635327" lon="15.427952414566054"><ele>15.0</ele><time>2026-05-01T10:52:25Z</time></trkpt><trkpt lat="44.30502922161739" lon="15.428176383646218"><ele>13.0</ele><time>2026-05-01T10:52:26Z</time></trkpt><trkpt lat="44.30492543073761" lon="15.428384405150627"><ele>11.0</ele><time>2026-05-01T10:52:27Z</time></trkpt><trkpt lat="44.304812758797326" lon="15.428560878953894"><ele>9.0</ele><time>2026-05-01T10:52:28Z</time></trkpt><trkpt lat="44.304671301175354" lon="15.42870997682692"><ele>13.666666666666668</ele><time>2026-05-01T10:52:29Z</time></trkpt><trkpt lat="44.30451524247565" lon="15.428810176699198"><ele>18.333333333333336</ele><time>2026-05-01T10:52:30Z</time></trkpt><trkpt lat="44.30435316123002" lon="15.428883858537452"><ele>23.0</ele><time>2026-05-01T10:52:31Z</time></trkpt><trkpt lat="44.30420029077579" lon="15.428961921950698"><ele>23.0</ele><time>2026-05-01T10:52:32Z</time></trkpt><trkpt lat="44.30405029716133" lon="15.429054153588144"><ele>23.0</ele><time>2026-05-01T10:52:33Z</time></trkpt><trkpt lat="44.303905371114794" lon="15.429164008050893"><ele>23.0</ele><time>2026-05-01T10:52:34Z</time></trkpt><trkpt lat="44.3037690213208" lon="15.429295804004097"><ele>21.0</ele><time>2026-05-01T10:52:35Z</time></trkpt><trkpt lat="44.303648798959564" lon="15.429461549386835"><ele>19.0</ele><time>2026-05-01T10:52:36Z</time></trkpt><trkpt lat="44.303545344504194" lon="15.429641212201421"><ele>17.0</ele><time>2026-05-01T10:52:37Z</time></trkpt><trkpt lat="44.303450178691946" lon="15.42983381342627"><ele>17.0</ele><time>2026-05-01T10:52:38Z</time></trkpt><trkpt lat="44.303348720764205" lon="15.430020320853126"><ele>17.0</ele><time>2026-05-01T10:52:39Z</time></trkpt><trkpt lat="44.30324486194676" lon="15.430210592568374"><ele>17.0</ele><time>2026-05-01T10:52:40Z</time></trkpt><trkpt lat="44.30313143417118" lon="15.430390961387323"><ele>17.666666666666668</ele><time>2026-05-01T10:52:41Z</time></trkpt><trkpt lat="44.30300967051325" lon="15.430556900892633"><ele>18.333333333333332</ele><time>2026-05-01T10:52:42Z</time></trkpt><trkpt lat="44.30288455592698" lon="15.43068846378249"><ele>19.0</ele><time>2026-05-01T10:52:43Z</time></trkpt><trkpt lat="44.302756075189116" lon="15.430805527372046"><ele>19.0</ele><time>2026-05-01T10:52:44Z</time></trkpt><trkpt lat="44.30262680375272" lon="15.43089358164242"><ele>19.0</ele><time>2026-05-01T10:52:45Z</time></trkpt><trkpt lat="44.30249512731752" lon="15.430973726957193"><ele>19.0</ele><time>2026-05-01T10:52:46Z</time></trkpt><trkpt lat="44.30235977371633" lon="15.431055090407082"><ele>19.0</ele><time>2026-05-01T10:52:47Z</time></trkpt><trkpt lat="44.302220518240986" lon="15.431135397201931"><ele>19.75</ele><time>2026-05-01T10:52:48Z</time></trkpt><trkpt lat="44.302082036883924" lon="15.431216198015829"><ele>20.5</ele><time>2026-05-01T10:52:49Z</time></trkpt><trkpt lat="44.301949122448626" lon="15.431302433602493"><ele>21.25</ele><time>2026-05-01T10:52:50Z</time></trkpt><trkpt lat="44.30181608602088" lon="15.43138423800247"><ele>22.0</ele><time>2026-05-01T10:52:51Z</time></trkpt><trkpt lat="44.301685107902436" lon="15.43146595638646"><ele>22.0</ele><time>2026-05-01T10:52:52Z</time></trkpt><trkpt lat="44.30155688579702" lon="15.431541972659367"><ele>22.0</ele><time>2026-05-01T10:52:53Z</time></trkpt><trkpt lat="44.30143610354282" lon="15.431619492653976"><ele>22.0</ele><time>2026-05-01T10:52:54Z</time></trkpt><trkpt lat="44.30130886702775" lon="15.43169572352168"><ele>22.0</ele><time>2026-05-01T10:52:55Z</time></trkpt><trkpt lat="44.30119127707779" lon="15.431767132976546"><ele>21.400000000000002</ele><time>2026-05-01T10:52:56Z</time></trkpt><trkpt lat="44.30107903432809" lon="15.431835329742555"><ele>20.8</ele><time>2026-05-01T10:52:57Z</time></trkpt><trkpt lat="44.300975119141214" lon="15.431897294576252"><ele>20.2</ele><time>2026-05-01T10:52:58Z</time></trkpt><trkpt lat="44.300877550434976" lon="15.431956320403767"><ele>19.6</ele><time>2026-05-01T10:52:59Z</time></trkpt><trkpt lat="44.300795364149884" lon="15.43199686776842"><ele>19.0</ele><time>2026-05-01T10:53:00Z</time></trkpt><trkpt lat="44.30071878938785" lon="15.43203309426946"><ele>19.0</ele><time>2026-05-01T10:53:01Z</time></trkpt><trkpt lat="44.30063296387844" lon="15.432071673670462"><ele>19.0</ele><time>2026-05-01T10:53:03Z</time></trkpt><trkpt lat="44.30056227754523" lon="15.432084600278177"><ele>19.0</ele><time>2026-05-01T10:55:08Z</time></trkpt><trkpt lat="44.30048256989727" lon="15.432177883284307"><ele>19.0</ele><time>2026-05-01T10:55:10Z</time></trkpt><trkpt lat="44.30041241528835" lon="15.432240203298164"><ele>19.0</ele><time>2026-05-01T10:55:11Z</time></trkpt><trkpt lat="44.30031808863117" lon="15.432308262753939"><ele>18.25</ele><time>2026-05-01T10:55:12Z</time></trkpt><trkpt lat="44.30021149139568" lon="15.432380976624664"><ele>17.5</ele><time>2026-05-01T10:55:13Z</time></trkpt><trkpt lat="44.300099639488" lon="15.432461923047113"><ele>16.75</ele><time>2026-05-01T10:55:14Z</time></trkpt><trkpt lat="44.2999838874347" lon="15.432550525488608"><ele>16.0</ele><time>2026-05-01T10:55:15Z</time></trkpt><trkpt lat="44.299857365751" lon="15.43265319195823"><ele>15.333333333333332</ele><time>2026-05-01T10:55:16Z</time></trkpt><trkpt lat="44.299719757980725" lon="15.432776146590081"><ele>14.666666666666668</ele><time>2026-05-01T10:55:17Z</time></trkpt><trkpt lat="44.29958020835092" lon="15.432913191977443"><ele>14.0</ele><time>2026-05-01T10:55:18Z</time></trkpt><trkpt lat="44.29943400297921" lon="15.433062752496241"><ele>14.0</ele><time>2026-05-01T10:55:19Z</time></trkpt><trkpt lat="44.2992925816611" lon="15.433219278883724"><ele>14.0</ele><time>2026-05-01T10:55:20Z</time></trkpt><trkpt lat="44.29916319170333" lon="15.433381369701793"><ele>14.0</ele><time>2026-05-01T10:55:21Z</time></trkpt><trkpt lat="44.299036701923164" lon="15.433553678397033"><ele>13.0</ele><time>2026-05-01T10:55:22Z</time></trkpt><trkpt lat="44.29890690224274" lon="15.43370744936158"><ele>12.0</ele><time>2026-05-01T10:55:23Z</time></trkpt><trkpt lat="44.298787213034394" lon="15.433864312133037"><ele>11.0</ele><time>2026-05-01T10:55:24Z</time></trkpt><trkpt lat="44.298673926633285" lon="15.43401250995671"><ele>11.0</ele><time>2026-05-01T10:55:25Z</time></trkpt><trkpt lat="44.298565311784884" lon="15.434155669266374"><ele>11.0</ele><time>2026-05-01T10:55:26Z</time></trkpt><trkpt lat="44.29846503878095" lon="15.434316337453842"><ele>11.0</ele><time>2026-05-01T10:55:27Z</time></trkpt><trkpt lat="44.29835409307387" lon="15.434461432550368"><ele>11.0</ele><time>2026-05-01T10:55:28Z</time></trkpt><trkpt lat="44.298247958732" lon="15.43459936417544"><ele>11.0</ele><time>2026-05-01T10:55:29Z</time></trkpt><trkpt lat="44.29814185598395" lon="15.434730329327184"><ele>11.0</ele><time>2026-05-01T10:55:30Z</time></trkpt><trkpt lat="44.29803326251696" lon="15.434868004932344"><ele>11.0</ele><time>2026-05-01T10:55:31Z</time></trkpt><trkpt lat="44.29791992756452" lon="15.43500924066605"><ele>11.25</ele><time>2026-05-01T10:55:32Z</time></trkpt><trkpt lat="44.29780806661829" lon="15.435148766344371"><ele>11.5</ele><time>2026-05-01T10:55:33Z</time></trkpt><trkpt lat="44.297695202738595" lon="15.435288084744375"><ele>11.75</ele><time>2026-05-01T10:55:34Z</time></trkpt><trkpt lat="44.29758628911741" lon="15.435425711801916"><ele>12.0</ele><time>2026-05-01T10:55:35Z</time></trkpt><trkpt lat="44.297482450925045" lon="15.43555675697261"><ele>12.0</ele><time>2026-05-01T10:55:36Z</time></trkpt><trkpt lat="44.297378871048835" lon="15.43568670525321"><ele>12.0</ele><time>2026-05-01T10:55:37Z</time></trkpt><trkpt lat="44.297277162515634" lon="15.435810045685937"><ele>12.0</ele><time>2026-05-01T10:55:38Z</time></trkpt><trkpt lat="44.29718298045429" lon="15.43592516485545"><ele>12.0</ele><time>2026-05-01T10:55:39Z</time></trkpt><trkpt lat="44.2970954462558" lon="15.436030940482102"><ele>11.75</ele><time>2026-05-01T10:55:40Z</time></trkpt><trkpt lat="44.297004882765265" lon="15.436141741006757"><ele>11.5</ele><time>2026-05-01T10:55:41Z</time></trkpt><trkpt lat="44.29691826981031" lon="15.43624548848559"><ele>11.25</ele><time>2026-05-01T10:55:42Z</time></trkpt><trkpt lat="44.296830575619644" lon="15.436353968291558"><ele>11.0</ele><time>2026-05-01T10:55:43Z</time></trkpt><trkpt lat="44.29674153162527" lon="15.436459613029836"><ele>11.0</ele><time>2026-05-01T10:55:44Z</time></trkpt><trkpt lat="44.29665436698383" lon="15.436566919365122"><ele>11.0</ele><time>2026-05-01T10:55:45Z</time></trkpt><trkpt lat="44.29656337857846" lon="15.436677511352775"><ele>11.0</ele><time>2026-05-01T10:55:46Z</time></trkpt><trkpt lat="44.296472721274355" lon="15.436788074959704"><ele>11.0</ele><time>2026-05-01T10:55:47Z</time></trkpt><trkpt lat="44.296384349412456" lon="15.436894035139234"><ele>9.8</ele><time>2026-05-01T10:55:48Z</time></trkpt><trkpt lat="44.29630114645838" lon="15.436996018228626"><ele>8.600000000000001</ele><time>2026-05-01T10:55:49Z</time></trkpt><trkpt lat="44.296215595742375" lon="15.437097395234058"><ele>7.4</ele><time>2026-05-01T10:55:50Z</time></trkpt><trkpt lat="44.296130722302266" lon="15.43720020766684"><ele>6.2</ele><time>2026-05-01T10:55:51Z</time></trkpt><trkpt lat="44.296049896786705" lon="15.437297109638445"><ele>5.0</ele><time>2026-05-01T10:55:52Z</time></trkpt><trkpt lat="44.29596847890358" lon="15.437397469335275"><ele>4.8</ele><time>2026-05-01T10:55:53Z</time></trkpt><trkpt lat="44.29588665090251" lon="15.437497185531914"><ele>4.6</ele><time>2026-05-01T10:55:54Z</time></trkpt><trkpt lat="44.29580546222999" lon="15.437599282030176"><ele>4.4</ele><time>2026-05-01T10:55:55Z</time></trkpt><trkpt lat="44.29572120829991" lon="15.437698975898353"><ele>4.2</ele><time>2026-05-01T10:55:56Z</time></trkpt><trkpt lat="44.295636616076976" lon="15.437802768873006"><ele>4.0</ele><time>2026-05-01T10:55:57Z</time></trkpt><trkpt lat="44.29555458950342" lon="15.437903678163938"><ele>3.2</ele><time>2026-05-01T10:55:58Z</time></trkpt><trkpt lat="44.29547208550697" lon="15.438006908274156"><ele>2.4000000000000004</ele><time>2026-05-01T10:55:59Z</time></trkpt><trkpt lat="44.29539415944436" lon="15.438111267235048"><ele>1.6</ele><time>2026-05-01T10:56:00Z</time></trkpt><trkpt lat="44.29531714772561" lon="15.43820653390239"><ele>0.8</ele><time>2026-05-01T10:56:01Z</time></trkpt><trkpt lat="44.29524587574364" lon="15.438302496694314"><ele>0.0</ele><time>2026-05-01T10:56:02Z</time></trkpt><trkpt lat="44.29517906640326" lon="15.438392081544562"><ele>0.0</ele><time>2026-05-01T10:56:03Z</time></trkpt><trkpt lat="44.29511423490582" lon="15.438480275741847"><ele>0.0</ele><time>2026-05-01T10:56:04Z</time></trkpt><trkpt lat="44.295053538436804" lon="15.438563539384829"><ele>0.0</ele><time>2026-05-01T10:56:05Z</time></trkpt><trkpt lat="44.29499689046773" lon="15.438637621623275"><ele>0.0</ele><time>2026-05-01T10:56:06Z</time></trkpt><trkpt lat="44.29494168079847" lon="15.438711927319916"><ele>0.0</ele><time>2026-05-01T10:56:07Z</time></trkpt><trkpt lat="44.29489679480652" lon="15.43877782255546"><ele>0.0</ele><time>2026-05-01T10:56:08Z</time></trkpt><trkpt lat="44.29482760013792" lon="15.438860973772112"><ele>1.0</ele><time>2026-05-01T10:56:10Z</time></trkpt><trkpt lat="44.294775615243154" lon="15.438932672562613"><ele>1.0</ele><time>2026-05-01T10:58:02Z</time></trkpt><trkpt lat="44.29477535381209" lon="15.438840602216146"><ele>1.0</ele><time>2026-05-01T10:58:21Z</time></trkpt></trkseg><trkseg><trkpt lat="44.294584182151745" lon="15.43903357437699"><ele>-1.0</ele><time>2026-05-01T12:43:17Z</time></trkpt><trkpt lat="44.294631879394515" lon="15.43923528632939"><ele>-1.0</ele><time>2026-05-01T12:43:37Z</time></trkpt><trkpt lat="44.29453518040525" lon="15.439384558057514"><ele>-1.0</ele><time>2026-05-01T12:43:57Z</time></trkpt><trkpt lat="44.29445966363111" lon="15.439524811540089"><ele>-1.0</ele><time>2026-05-01T12:43:59Z</time></trkpt><trkpt lat="44.29442142326787" lon="15.439598733029756"><ele>-0.7142857142857142</ele><time>2026-05-01T12:44:00Z</time></trkpt><trkpt lat="44.29437509405083" lon="15.43967647748514"><ele>-0.4285714285714285</ele><time>2026-05-01T12:44:01Z</time></trkpt><trkpt lat="44.29433197774253" lon="15.439759052885922"><ele>-0.14285714285714285</ele><time>2026-05-01T12:44:02Z</time></trkpt><trkpt lat="44.294289869032966" lon="15.439837399250836"><ele>0.14285714285714285</ele><time>2026-05-01T12:44:03Z</time></trkpt><trkpt lat="44.29424722832929" lon="15.439919450576607"><ele>0.4285714285714285</ele><time>2026-05-01T12:44:04Z</time></trkpt><trkpt lat="44.29421237987956" lon="15.44000471311873"><ele>0.7142857142857142</ele><time>2026-05-01T12:44:05Z</time></trkpt><trkpt lat="44.29417275053077" lon="15.44008810538222"><ele>1.0</ele><time>2026-05-01T12:44:06Z</time></trkpt><trkpt lat="44.29412734991605" lon="15.440167135575042"><ele>1.0</ele><time>2026-05-01T12:44:07Z</time></trkpt><trkpt lat="44.29407435814506" lon="15.440257200928588"><ele>1.0</ele><time>2026-05-01T12:44:08Z</time></trkpt><trkpt lat="44.29402080598652" lon="15.440352922108973"><ele>1.0</ele><time>2026-05-01T12:44:09Z</time></trkpt><trkpt lat="44.29396354356355" lon="15.440452679394662"><ele>1.0</ele><time>2026-05-01T12:44:10Z</time></trkpt><trkpt lat="44.29390030822508" lon="15.44055446364277"><ele>1.0</ele><time>2026-05-01T12:44:11Z</time></trkpt><trkpt lat="44.2938263439545" lon="15.440664920937339"><ele>0.8</ele><time>2026-05-01T12:44:12Z</time></trkpt><trkpt lat="44.293755979642306" lon="15.440764587394472"><ele>0.6000000000000001</ele><time>2026-05-01T12:44:13Z</time></trkpt><trkpt lat="44.29368170050915" lon="15.440864279805956"><ele>0.4</ele><time>2026-05-01T12:44:14Z</time></trkpt><trkpt lat="44.29360648227748" lon="15.440966563075454"><ele>0.2</ele><time>2026-05-01T12:44:15Z</time></trkpt><trkpt lat="44.29351983773861" lon="15.441063547264525"><ele>0.0</ele><time>2026-05-01T12:44:16Z</time></trkpt><trkpt lat="44.29342831354661" lon="15.441158695202102"><ele>0.0</ele><time>2026-05-01T12:44:17Z</time></trkpt><trkpt lat="44.29333202654294" lon="15.441240544465952"><ele>0.0</ele><time>2026-05-01T12:44:18Z</time></trkpt><trkpt lat="44.29323554753089" lon="15.441325288429907"><ele>0.0</ele><time>2026-05-01T12:44:19Z</time></trkpt><trkpt lat="44.293131788009" lon="15.44141127886696"><ele>0.0</ele><time>2026-05-01T12:44:20Z</time></trkpt><trkpt lat="44.29302346156759" lon="15.441492284785138"><ele>0.5</ele><time>2026-05-01T12:44:21Z</time></trkpt><trkpt lat="44.29290420568088" lon="15.441568059170887"><ele>1.0</ele><time>2026-05-01T12:44:22Z</time></trkpt><trkpt lat="44.29277794976582" lon="15.44163300351673"><ele>1.5</ele><time>2026-05-01T12:44:23Z</time></trkpt><trkpt lat="44.29264782899913" lon="15.44168476746651"><ele>2.0</ele><time>2026-05-01T12:44:24Z</time></trkpt><trkpt lat="44.29251754408129" lon="15.441735752918362"><ele>2.0</ele><time>2026-05-01T12:44:25Z</time></trkpt><trkpt lat="44.29238518841016" lon="15.441796024135355"><ele>2.0</ele><time>2026-05-01T12:44:26Z</time></trkpt><trkpt lat="44.29225587430476" lon="15.441855369016825"><ele>2.0</ele><time>2026-05-01T12:44:27Z</time></trkpt><trkpt lat="44.292127976960245" lon="15.441922328591614"><ele>2.0</ele><time>2026-05-01T12:44:28Z</time></trkpt><trkpt lat="44.29199408409271" lon="15.44199716881601"><ele>1.75</ele><time>2026-05-01T12:44:29Z</time></trkpt><trkpt lat="44.29186915872572" lon="15.442072695377181"><ele>1.5</ele><time>2026-05-01T12:44:30Z</time></trkpt><trkpt lat="44.291741186974974" lon="15.442160023005156"><ele>1.25</ele><time>2026-05-01T12:44:31Z</time></trkpt><trkpt lat="44.291618302567" lon="15.442237511300151"><ele>1.0</ele><time>2026-05-01T12:44:32Z</time></trkpt><trkpt lat="44.29149786159567" lon="15.442336567419762"><ele>0.6666666666666666</ele><time>2026-05-01T12:44:33Z</time></trkpt><trkpt lat="44.291374345549066" lon="15.442441581393824"><ele>0.3333333333333333</ele><time>2026-05-01T12:44:34Z</time></trkpt><trkpt lat="44.29125456070516" lon="15.442565027784068"><ele>0.0</ele><time>2026-05-01T12:44:35Z</time></trkpt><trkpt lat="44.29112990387891" lon="15.442697310301577"><ele>0.0</ele><time>2026-05-01T12:44:36Z</time></trkpt><trkpt lat="44.29100337106247" lon="15.442848269012293"><ele>0.0</ele><time>2026-05-01T12:44:37Z</time></trkpt><trkpt lat="44.29087890689838" lon="15.44299335705799"><ele>0.0</ele><time>2026-05-01T12:44:38Z</time></trkpt><trkpt lat="44.290773046315856" lon="15.443114065163138"><ele>0.0</ele><time>2026-05-01T12:44:39Z</time></trkpt><trkpt lat="44.29067477137344" lon="15.44322812806305"><ele>0.0</ele><time>2026-05-01T12:44:40Z</time></trkpt><trkpt lat="44.29058168073029" lon="15.443340737422659"><ele>0.0</ele><time>2026-05-01T12:44:41Z</time></trkpt><trkpt lat="44.29047943555349" lon="15.443464756799147"><ele>0.0</ele><time>2026-05-01T12:44:42Z</time></trkpt><trkpt lat="44.29036754667634" lon="15.443588729624395"><ele>0.0</ele><time>2026-05-01T12:44:43Z</time></trkpt><trkpt lat="44.290253618084876" lon="15.443713033977446"><ele>0.0</ele><time>2026-05-01T12:44:44Z</time></trkpt><trkpt lat="44.29014089309469" lon="15.443842641421561"><ele>0.0</ele><time>2026-05-01T12:44:45Z</time></trkpt><trkpt lat="44.29002466572142" lon="15.443975037210052"><ele>0.0</ele><time>2026-05-01T12:44:46Z</time></trkpt><trkpt lat="44.289902060019315" lon="15.444110105546862"><ele>0.0</ele><time>2026-05-01T12:44:47Z</time></trkpt><trkpt lat="44.28978327495676" lon="15.444244505979524"><ele>0.0</ele><time>2026-05-01T12:44:48Z</time></trkpt><trkpt lat="44.289663368620694" lon="15.444381986966222"><ele>0.0</ele><time>2026-05-01T12:44:49Z</time></trkpt><trkpt lat="44.28954100327065" lon="15.444514859317565"><ele>0.25</ele><time>2026-05-01T12:44:50Z</time></trkpt><trkpt lat="44.289423125925765" lon="15.444648163284201"><ele>0.5</ele><time>2026-05-01T12:44:51Z</time></trkpt><trkpt lat="44.28930804883913" lon="15.444782109099462"><ele>0.75</ele><time>2026-05-01T12:44:52Z</time></trkpt><trkpt lat="44.28919212252313" lon="15.444890899687438"><ele>1.0</ele><time>2026-05-01T12:44:53Z</time></trkpt><trkpt lat="44.2890808706458" lon="15.445014877317055"><ele>1.0</ele><time>2026-05-01T12:44:54Z</time></trkpt><trkpt lat="44.288971399166186" lon="15.445146617200374"><ele>1.0</ele><time>2026-05-01T12:44:55Z</time></trkpt><trkpt lat="44.288871851177596" lon="15.445281676817304"><ele>1.0</ele><time>2026-05-01T12:44:56Z</time></trkpt><trkpt lat="44.28877762510909" lon="15.44543045470701"><ele>1.0</ele><time>2026-05-01T12:44:57Z</time></trkpt><trkpt lat="44.28869354067765" lon="15.445596698980852"><ele>1.5</ele><time>2026-05-01T12:44:58Z</time></trkpt><trkpt lat="44.28863401032837" lon="15.445772746621627"><ele>2.0</ele><time>2026-05-01T12:44:59Z</time></trkpt><trkpt lat="44.288597897361846" lon="15.445955747910109"><ele>2.5</ele><time>2026-05-01T12:45:00Z</time></trkpt><trkpt lat="44.28858309009129" lon="15.446138068465073"><ele>3.0</ele><time>2026-05-01T12:45:01Z</time></trkpt><trkpt lat="44.28856842259601" lon="15.446306982228199"><ele>3.25</ele><time>2026-05-01T12:45:02Z</time></trkpt><trkpt lat="44.28855387893716" lon="15.44647299188076"><ele>3.5</ele><time>2026-05-01T12:45:03Z</time></trkpt><trkpt lat="44.2885336830185" lon="15.44666221163223"><ele>3.75</ele><time>2026-05-01T12:45:04Z</time></trkpt><trkpt lat="44.28850774554669" lon="15.446867184968246"><ele>4.0</ele><time>2026-05-01T12:45:05Z</time></trkpt><trkpt lat="44.288475233910724" lon="15.447079765034545"><ele>4.5</ele><time>2026-05-01T12:45:06Z</time></trkpt><trkpt lat="44.28843797613252" lon="15.447294249422834"><ele>5.0</ele><time>2026-05-01T12:45:07Z</time></trkpt><trkpt lat="44.28839123675704" lon="15.447480180898898"><ele>5.5</ele><time>2026-05-01T12:45:08Z</time></trkpt><trkpt lat="44.28833986348519" lon="15.447643972457623"><ele>6.0</ele><time>2026-05-01T12:45:09Z</time></trkpt><trkpt lat="44.28829284783224" lon="15.44778162887369"><ele>6.0</ele><time>2026-05-01T12:45:10Z</time></trkpt><trkpt lat="44.2882476823143" lon="15.447897784029134"><ele>6.0</ele><time>2026-05-01T12:45:11Z</time></trkpt><trkpt lat="44.28820068671945" lon="15.448002075940323"><ele>6.0</ele><time>2026-05-01T12:45:12Z</time></trkpt><trkpt lat="44.288144203037184" lon="15.448112785867375"><ele>6.0</ele><time>2026-05-01T12:45:13Z</time></trkpt><trkpt lat="44.28808255213874" lon="15.44822779247866"><ele>6.0</ele><time>2026-05-01T12:45:14Z</time></trkpt><trkpt lat="44.28801199660418" lon="15.448351524911565"><ele>6.25</ele><time>2026-05-01T12:45:15Z</time></trkpt><trkpt lat="44.287932553609984" lon="15.448477241751752"><ele>6.5</ele><time>2026-05-01T12:45:16Z</time></trkpt><trkpt lat="44.2878458764322" lon="15.448603710242269"><ele>6.75</ele><time>2026-05-01T12:45:17Z</time></trkpt><trkpt lat="44.287758581384864" lon="15.448728428048582"><ele>7.0</ele><time>2026-05-01T12:45:18Z</time></trkpt><trkpt lat="44.287676200658495" lon="15.448856678509628"><ele>7.0</ele><time>2026-05-01T12:45:19Z</time></trkpt><trkpt lat="44.28759135754603" lon="15.448983314163186"><ele>7.0</ele><time>2026-05-01T12:45:20Z</time></trkpt><trkpt lat="44.28750420202325" lon="15.449116487485588"><ele>7.0</ele><time>2026-05-01T12:45:21Z</time></trkpt><trkpt lat="44.287414169629514" lon="15.449251905881214"><ele>7.0</ele><time>2026-05-01T12:45:22Z</time></trkpt><trkpt lat="44.28732338432499" lon="15.449394194759241"><ele>6.75</ele><time>2026-05-01T12:45:23Z</time></trkpt><trkpt lat="44.28723105833372" lon="15.449537938498535"><ele>6.5</ele><time>2026-05-01T12:45:24Z</time></trkpt><trkpt lat="44.2871350902323" lon="15.449690344225383"><ele>6.25</ele><time>2026-05-01T12:45:25Z</time></trkpt><trkpt lat="44.287033196875115" lon="15.449841434663872"><ele>6.0</ele><time>2026-05-01T12:45:26Z</time></trkpt><trkpt lat="44.28692696931967" lon="15.449994975818637"><ele>6.0</ele><time>2026-05-01T12:45:27Z</time></trkpt><trkpt lat="44.28682388953444" lon="15.450148096090784"><ele>6.0</ele><time>2026-05-01T12:45:28Z</time></trkpt><trkpt lat="44.286718983792845" lon="15.450305939966809"><ele>6.0</ele><time>2026-05-01T12:45:29Z</time></trkpt><trkpt lat="44.28661104161219" lon="15.450459457180148"><ele>6.333333333333334</ele><time>2026-05-01T12:45:30Z</time></trkpt><trkpt lat="44.28650239851797" lon="15.450613398141654"><ele>6.666666666666667</ele><time>2026-05-01T12:45:31Z</time></trkpt><trkpt lat="44.28639944697221" lon="15.450764442752405"><ele>7.0</ele><time>2026-05-01T12:45:32Z</time></trkpt><trkpt lat="44.28630280065536" lon="15.450921060233217"><ele>6.75</ele><time>2026-05-01T12:45:33Z</time></trkpt><trkpt lat="44.2862089644405" lon="15.451079101200232"><ele>6.5</ele><time>2026-05-01T12:45:34Z</time></trkpt><trkpt lat="44.28611929429493" lon="15.451246375586473"><ele>6.25</ele><time>2026-05-01T12:45:35Z</time></trkpt><trkpt lat="44.28602957712193" lon="15.45141376330795"><ele>6.0</ele><time>2026-05-01T12:45:36Z</time></trkpt><trkpt lat="44.2859306594161" lon="15.451573370356146"><ele>6.0</ele><time>2026-05-01T12:45:37Z</time></trkpt><trkpt lat="44.2858293279122" lon="15.451730071514312"><ele>6.0</ele><time>2026-05-01T12:45:38Z</time></trkpt><trkpt lat="44.285738541482374" lon="15.45189477119189"><ele>6.0</ele><time>2026-05-01T12:45:39Z</time></trkpt><trkpt lat="44.28565540866083" lon="15.45206936833215"><ele>6.0</ele><time>2026-05-01T12:45:40Z</time></trkpt><trkpt lat="44.28557541024135" lon="15.452245977615155"><ele>6.0</ele><time>2026-05-01T12:45:41Z</time></trkpt><trkpt lat="44.2854979199648" lon="15.452421303149311"><ele>6.0</ele><time>2026-05-01T12:45:42Z</time></trkpt><trkpt lat="44.28542449438077" lon="15.452605070688369"><ele>6.0</ele><time>2026-05-01T12:45:43Z</time></trkpt><trkpt lat="44.28535938411894" lon="15.452794803465089"><ele>6.333333333333334</ele><time>2026-05-01T12:45:44Z</time></trkpt><trkpt lat="44.285296400681396" lon="15.452994027697478"><ele>6.666666666666667</ele><time>2026-05-01T12:45:45Z</time></trkpt><trkpt lat="44.28522730073367" lon="15.453208755829504"><ele>7.0</ele><time>2026-05-01T12:45:46Z</time></trkpt><trkpt lat="44.285160576902584" lon="15.453441435745312"><ele>7.0</ele><time>2026-05-01T12:45:47Z</time></trkpt><trkpt lat="44.28509988470225" lon="15.453699151793137"><ele>7.0</ele><time>2026-05-01T12:45:48Z</time></trkpt><trkpt lat="44.28504148815863" lon="15.453960578373557"><ele>7.0</ele><time>2026-05-01T12:45:49Z</time></trkpt><trkpt lat="44.284990891867764" lon="15.454218576537755"><ele>7.0</ele><time>2026-05-01T12:45:50Z</time></trkpt><trkpt lat="44.28494630959332" lon="15.454476565162581"><ele>7.0</ele><time>2026-05-01T12:45:51Z</time></trkpt><trkpt lat="44.28490651835348" lon="15.454726233724418"><ele>7.0</ele><time>2026-05-01T12:45:52Z</time></trkpt><trkpt lat="44.28486601406847" lon="15.454968854367532"><ele>6.333333333333334</ele><time>2026-05-01T12:45:53Z</time></trkpt><trkpt lat="44.284823731851866" lon="15.455211012576735"><ele>5.666666666666667</ele><time>2026-05-01T12:45:54Z</time></trkpt><trkpt lat="44.2847793456763" lon="15.455446978732637"><ele>5.0</ele><time>2026-05-01T12:45:55Z</time></trkpt><trkpt lat="44.28473518278557" lon="15.455671884603545"><ele>5.0</ele><time>2026-05-01T12:45:56Z</time></trkpt><trkpt lat="44.2846932274176" lon="15.455897960056655"><ele>5.0</ele><time>2026-05-01T12:45:57Z</time></trkpt><trkpt lat="44.28464299569852" lon="15.456115103396233"><ele>5.0</ele><time>2026-05-01T12:45:58Z</time></trkpt><trkpt lat="44.28458671017795" lon="15.456331335744776"><ele>5.0</ele><time>2026-05-01T12:45:59Z</time></trkpt><trkpt lat="44.28452673618276" lon="15.45653857533855"><ele>5.0</ele><time>2026-05-01T12:46:00Z</time></trkpt><trkpt lat="44.28446389700214" lon="15.456748073171942"><ele>5.0</ele><time>2026-05-01T12:46:01Z</time></trkpt><trkpt lat="44.284400292096834" lon="15.4569524668152"><ele>4.666666666666667</ele><time>2026-05-01T12:46:02Z</time></trkpt><trkpt lat="44.28434023932043" lon="15.457154431804598"><ele>4.333333333333333</ele><time>2026-05-01T12:46:03Z</time></trkpt><trkpt lat="44.28427903584343" lon="15.457363100928301"><ele>4.0</ele><time>2026-05-01T12:46:04Z</time></trkpt><trkpt lat="44.28422539912553" lon="15.457581060239656"><ele>4.0</ele><time>2026-05-01T12:46:05Z</time></trkpt><trkpt lat="44.284177091982556" lon="15.457802254897267"><ele>4.0</ele><time>2026-05-01T12:46:06Z</time></trkpt><trkpt lat="44.28412872357875" lon="15.458028544406586"><ele>4.0</ele><time>2026-05-01T12:46:07Z</time></trkpt><trkpt lat="44.284078766494396" lon="15.458257968003716"><ele>3.333333333333333</ele><time>2026-05-01T12:46:08Z</time></trkpt><trkpt lat="44.284036553249464" lon="15.458488323574057"><ele>2.6666666666666665</ele><time>2026-05-01T12:46:09Z</time></trkpt><trkpt lat="44.28399664985559" lon="15.458722893296914"><ele>2.0</ele><time>2026-05-01T12:46:10Z</time></trkpt><trkpt lat="44.28396140300535" lon="15.458958466299382"><ele>0.6666666666666666</ele><time>2026-05-01T12:46:11Z</time></trkpt><trkpt lat="44.28393003363229" lon="15.459200422025683"><ele>-0.6666666666666666</ele><time>2026-05-01T12:46:12Z</time></trkpt><trkpt lat="44.28390539116032" lon="15.45944116010186"><ele>-2.0</ele><time>2026-05-01T12:46:13Z</time></trkpt><trkpt lat="44.28388465807846" lon="15.459689935089072"><ele>-2.333333333333333</ele><time>2026-05-01T12:46:14Z</time></trkpt><trkpt lat="44.28386666832353" lon="15.459946829699865"><ele>-2.6666666666666665</ele><time>2026-05-01T12:46:15Z</time></trkpt><trkpt lat="44.283848130761385" lon="15.460200740195239"><ele>-3.0</ele><time>2026-05-01T12:46:16Z</time></trkpt><trkpt lat="44.283836099941226" lon="15.460458093172022"><ele>-2.3333333333333335</ele><time>2026-05-01T12:46:17Z</time></trkpt><trkpt lat="44.283829664687026" lon="15.460718352355439"><ele>-1.6666666666666665</ele><time>2026-05-01T12:46:18Z</time></trkpt><trkpt lat="44.28382992357022" lon="15.460978860126723"><ele>-1.0</ele><time>2026-05-01T12:46:19Z</time></trkpt><trkpt lat="44.28383759047707" lon="15.461244143779783"><ele>-1.0</ele><time>2026-05-01T12:46:20Z</time></trkpt><trkpt lat="44.283850373277325" lon="15.461502962779255"><ele>-1.0</ele><time>2026-05-01T12:46:21Z</time></trkpt><trkpt lat="44.283869575924406" lon="15.46175708707332"><ele>-1.0</ele><time>2026-05-01T12:46:22Z</time></trkpt><trkpt lat="44.2838921175442" lon="15.462009650267726"><ele>-0.6666666666666666</ele><time>2026-05-01T12:46:23Z</time></trkpt><trkpt lat="44.28391481945469" lon="15.462261211185407"><ele>-0.3333333333333333</ele><time>2026-05-01T12:46:24Z</time></trkpt><trkpt lat="44.28394227749136" lon="15.462504313459425"><ele>0.0</ele><time>2026-05-01T12:46:25Z</time></trkpt><trkpt lat="44.28397128646568" lon="15.46274920088742"><ele>0.3333333333333333</ele><time>2026-05-01T12:46:26Z</time></trkpt><trkpt lat="44.28400210559065" lon="15.462991512019173"><ele>0.6666666666666666</ele><time>2026-05-01T12:46:27Z</time></trkpt><trkpt lat="44.28404198852001" lon="15.46322469451684"><ele>1.0</ele><time>2026-05-01T12:46:28Z</time></trkpt><trkpt lat="44.28408186267675" lon="15.463454687611762"><ele>1.0</ele><time>2026-05-01T12:46:29Z</time></trkpt><trkpt lat="44.284123366761435" lon="15.463682130439388"><ele>1.0</ele><time>2026-05-01T12:46:30Z</time></trkpt><trkpt lat="44.28415895733861" lon="15.463910146455712"><ele>1.0</ele><time>2026-05-01T12:46:31Z</time></trkpt><trkpt lat="44.28418736325117" lon="15.4641433156654"><ele>1.3333333333333333</ele><time>2026-05-01T12:46:32Z</time></trkpt><trkpt lat="44.284206383926595" lon="15.464377600315999"><ele>1.6666666666666665</ele><time>2026-05-01T12:46:33Z</time></trkpt><trkpt lat="44.28421960215606" lon="15.464614290317726"><ele>2.0</ele><time>2026-05-01T12:46:34Z</time></trkpt><trkpt lat="44.28422788187033" lon="15.464854875455039"><ele>2.0</ele><time>2026-05-01T12:46:35Z</time></trkpt><trkpt lat="44.284226972823916" lon="15.46509740864433"><ele>2.0</ele><time>2026-05-01T12:46:36Z</time></trkpt><trkpt lat="44.28422219874982" lon="15.465344210898195"><ele>2.0</ele><time>2026-05-01T12:46:37Z</time></trkpt><trkpt lat="44.28420952993858" lon="15.465584085929175"><ele>1.3333333333333333</ele><time>2026-05-01T12:46:38Z</time></trkpt><trkpt lat="44.28418748857465" lon="15.465828844769186"><ele>0.6666666666666666</ele><time>2026-05-01T12:46:39Z</time></trkpt><trkpt lat="44.284158451839275" lon="15.46607583123552"><ele>0.0</ele><time>2026-05-01T12:46:40Z</time></trkpt><trkpt lat="44.28412065513096" lon="15.466321041027403"><ele>-0.3333333333333333</ele><time>2026-05-01T12:46:41Z</time></trkpt><trkpt lat="44.284071237158564" lon="15.466566638025364"><ele>-0.6666666666666666</ele><time>2026-05-01T12:46:42Z</time></trkpt><trkpt lat="44.284012426035964" lon="15.466815704598892"><ele>-1.0</ele><time>2026-05-01T12:46:43Z</time></trkpt><trkpt lat="44.283950000617956" lon="15.467060039790308"><ele>-1.0</ele><time>2026-05-01T12:46:44Z</time></trkpt><trkpt lat="44.283875722497065" lon="15.467310587070541"><ele>-1.0</ele><time>2026-05-01T12:46:45Z</time></trkpt><trkpt lat="44.2837935822646" lon="15.46755551119189"><ele>-1.0</ele><time>2026-05-01T12:46:46Z</time></trkpt><trkpt lat="44.28369513707018" lon="15.46779507356645"><ele>-0.3333333333333333</ele><time>2026-05-01T12:46:47Z</time></trkpt><trkpt lat="44.283594043448396" lon="15.468030175348746"><ele>0.3333333333333333</ele><time>2026-05-01T12:46:48Z</time></trkpt><trkpt lat="44.28349093900492" lon="15.46826325853077"><ele>1.0</ele><time>2026-05-01T12:46:49Z</time></trkpt><trkpt lat="44.28338721384594" lon="15.46848857848862"><ele>1.0</ele><time>2026-05-01T12:46:50Z</time></trkpt><trkpt lat="44.2832784875736" lon="15.468704319007594"><ele>1.0</ele><time>2026-05-01T12:46:51Z</time></trkpt><trkpt lat="44.283169703288976" lon="15.468908071179017"><ele>1.0</ele><time>2026-05-01T12:46:52Z</time></trkpt><trkpt lat="44.28305803708949" lon="15.469107079731062"><ele>0.6666666666666666</ele><time>2026-05-01T12:46:53Z</time></trkpt><trkpt lat="44.28295134370304" lon="15.469298980465991"><ele>0.3333333333333333</ele><time>2026-05-01T12:46:54Z</time></trkpt><trkpt lat="44.2828420829053" lon="15.469483180341015"><ele>0.0</ele><time>2026-05-01T12:46:55Z</time></trkpt><trkpt lat="44.28272737054095" lon="15.469657664141193"><ele>0.6666666666666666</ele><time>2026-05-01T12:46:56Z</time></trkpt><trkpt lat="44.28261289456439" lon="15.4698237193483"><ele>1.3333333333333333</ele><time>2026-05-01T12:46:57Z</time></trkpt><trkpt lat="44.282505027987106" lon="15.469975990905168"><ele>2.0</ele><time>2026-05-01T12:46:58Z</time></trkpt><trkpt lat="44.28240069589402" lon="15.470122196415842"><ele>2.0</ele><time>2026-05-01T12:46:59Z</time></trkpt><trkpt lat="44.282301344827836" lon="15.470258581710596"><ele>2.0</ele><time>2026-05-01T12:47:00Z</time></trkpt><trkpt lat="44.28220420526586" lon="15.470383430025766"><ele>2.0</ele><time>2026-05-01T12:47:01Z</time></trkpt><trkpt lat="44.28210668577791" lon="15.470500548681851"><ele>2.0</ele><time>2026-05-01T12:47:02Z</time></trkpt><trkpt lat="44.282012824532345" lon="15.470615680897465"><ele>2.2</ele><time>2026-05-01T12:47:03Z</time></trkpt><trkpt lat="44.28192511537394" lon="15.470719031118412"><ele>2.4000000000000004</ele><time>2026-05-01T12:47:04Z</time></trkpt><trkpt lat="44.28184001306389" lon="15.470811942575976"><ele>2.5999999999999996</ele><time>2026-05-01T12:47:05Z</time></trkpt><trkpt lat="44.28174356050554" lon="15.470906678078688"><ele>2.8</ele><time>2026-05-01T12:47:06Z</time></trkpt><trkpt lat="44.28166208083551" lon="15.471002252307526"><ele>3.0</ele><time>2026-05-01T12:47:07Z</time></trkpt><trkpt lat="44.28157315093849" lon="15.471100673095425"><ele>3.0</ele><time>2026-05-01T12:47:08Z</time></trkpt><trkpt lat="44.28147513181304" lon="15.471197572156587"><ele>3.0</ele><time>2026-05-01T12:47:09Z</time></trkpt><trkpt lat="44.28137324059688" lon="15.471294936221845"><ele>3.0</ele><time>2026-05-01T12:47:10Z</time></trkpt><trkpt lat="44.281271265943374" lon="15.471391659369422"><ele>3.0</ele><time>2026-05-01T12:47:11Z</time></trkpt><trkpt lat="44.281163488061964" lon="15.47148817841128"><ele>3.25</ele><time>2026-05-01T12:47:12Z</time></trkpt><trkpt lat="44.28105423917269" lon="15.471580680279997"><ele>3.5</ele><time>2026-05-01T12:47:13Z</time></trkpt><trkpt lat="44.28094825547972" lon="15.47167808083517"><ele>3.75</ele><time>2026-05-01T12:47:14Z</time></trkpt><trkpt lat="44.28083713407416" lon="15.471778409993716"><ele>4.0</ele><time>2026-05-01T12:47:15Z</time></trkpt><trkpt lat="44.28072548444638" lon="15.471876667223665"><ele>4.0</ele><time>2026-05-01T12:47:16Z</time></trkpt><trkpt lat="44.28061995867242" lon="15.471973293347553"><ele>4.0</ele><time>2026-05-01T12:47:17Z</time></trkpt><trkpt lat="44.280519933243696" lon="15.472066950625711"><ele>4.0</ele><time>2026-05-01T12:47:18Z</time></trkpt><trkpt lat="44.28040895217788" lon="15.472166251092013"><ele>4.0</ele><time>2026-05-01T12:47:19Z</time></trkpt><trkpt lat="44.280297426637844" lon="15.472263462805946"><ele>3.75</ele><time>2026-05-01T12:47:20Z</time></trkpt><trkpt lat="44.280189878927516" lon="15.472354318339027"><ele>3.5</ele><time>2026-05-01T12:47:21Z</time></trkpt><trkpt lat="44.28007999857853" lon="15.472449160544597"><ele>3.25</ele><time>2026-05-01T12:47:22Z</time></trkpt><trkpt lat="44.27997878127119" lon="15.472536700066701"><ele>3.0</ele><time>2026-05-01T12:47:23Z</time></trkpt><trkpt lat="44.27988125198642" lon="15.472624358088238"><ele>3.0</ele><time>2026-05-01T12:47:24Z</time></trkpt><trkpt lat="44.279773504370326" lon="15.472717043527323"><ele>3.0</ele><time>2026-05-01T12:47:25Z</time></trkpt><trkpt lat="44.27965606731823" lon="15.472817965789416"><ele>3.0</ele><time>2026-05-01T12:47:26Z</time></trkpt><trkpt lat="44.27954063496655" lon="15.47292277683893"><ele>3.0</ele><time>2026-05-01T12:47:27Z</time></trkpt><trkpt lat="44.279420319759055" lon="15.473032780268108"><ele>3.0</ele><time>2026-05-01T12:47:28Z</time></trkpt><trkpt lat="44.279291535516364" lon="15.473152314450491"><ele>3.0</ele><time>2026-05-01T12:47:29Z</time></trkpt><trkpt lat="44.27916067882902" lon="15.47327051500151"><ele>3.0</ele><time>2026-05-01T12:47:30Z</time></trkpt><trkpt lat="44.279045520006584" lon="15.47337092475073"><ele>3.0</ele><time>2026-05-01T12:47:31Z</time></trkpt><trkpt lat="44.27893712360592" lon="15.47347017575076"><ele>2.5</ele><time>2026-05-01T12:47:32Z</time></trkpt><trkpt lat="44.278840380272385" lon="15.473560233655185"><ele>2.0</ele><time>2026-05-01T12:47:33Z</time></trkpt><trkpt lat="44.27874239049741" lon="15.473650908148056"><ele>1.5</ele><time>2026-05-01T12:47:34Z</time></trkpt><trkpt lat="44.27864042748369" lon="15.473746817590627"><ele>1.0</ele><time>2026-05-01T12:47:35Z</time></trkpt><trkpt lat="44.2785476370509" lon="15.473848072714885"><ele>1.0</ele><time>2026-05-01T12:47:36Z</time></trkpt><trkpt lat="44.278462839822865" lon="15.47395977773119"><ele>1.0</ele><time>2026-05-01T12:47:37Z</time></trkpt><trkpt lat="44.27838568910372" lon="15.474084827761837"><ele>1.0</ele><time>2026-05-01T12:47:38Z</time></trkpt><trkpt lat="44.27831070351253" lon="15.474224350558377"><ele>1.0</ele><time>2026-05-01T12:47:39Z</time></trkpt><trkpt lat="44.278249509099275" lon="15.474368749887264"><ele>1.0</ele><time>2026-05-01T12:47:40Z</time></trkpt><trkpt lat="44.278197885089796" lon="15.474510748445708"><ele>1.0</ele><time>2026-05-01T12:47:41Z</time></trkpt><trkpt lat="44.278153462058214" lon="15.474662167846347"><ele>1.0</ele><time>2026-05-01T12:47:42Z</time></trkpt><trkpt lat="44.27812070549266" lon="15.474818736078007"><ele>1.0</ele><time>2026-05-01T12:47:43Z</time></trkpt><trkpt lat="44.27809813359838" lon="15.474959174326127"><ele>0.8</ele><time>2026-05-01T12:47:44Z</time></trkpt><trkpt lat="44.27807610039433" lon="15.47510950174165"><ele>0.6000000000000001</ele><time>2026-05-01T12:47:45Z</time></trkpt><trkpt lat="44.27805011437051" lon="15.475263734202958"><ele>0.4</ele><time>2026-05-01T12:47:46Z</time></trkpt><trkpt lat="44.27800803432408" lon="15.47540349857659"><ele>0.2</ele><time>2026-05-01T12:47:47Z</time></trkpt><trkpt lat="44.27796682808379" lon="15.475531388840682"><ele>0.0</ele><time>2026-05-01T12:47:48Z</time></trkpt><trkpt lat="44.27793444537416" lon="15.475673003466458"><ele>0.0</ele><time>2026-05-01T12:47:49Z</time></trkpt><trkpt lat="44.27788806352505" lon="15.47581648712921"><ele>0.0</ele><time>2026-05-01T12:47:50Z</time></trkpt><trkpt lat="44.277829346620244" lon="15.475951450656837"><ele>0.0</ele><time>2026-05-01T12:47:51Z</time></trkpt><trkpt lat="44.277754162815114" lon="15.476072730720944"><ele>0.0</ele><time>2026-05-01T12:47:52Z</time></trkpt><trkpt lat="44.277662346805556" lon="15.476175464663896"><ele>0.0</ele><time>2026-05-01T12:47:53Z</time></trkpt><trkpt lat="44.27756372608076" lon="15.476268726793435"><ele>0.0</ele><time>2026-05-01T12:47:54Z</time></trkpt><trkpt lat="44.277460762202026" lon="15.476352491244377"><ele>0.0</ele><time>2026-05-01T12:47:55Z</time></trkpt><trkpt lat="44.27736239234029" lon="15.476435466784157"><ele>0.0</ele><time>2026-05-01T12:47:56Z</time></trkpt><trkpt lat="44.27726789611044" lon="15.476522400832016"><ele>0.0</ele><time>2026-05-01T12:47:57Z</time></trkpt><trkpt lat="44.27716256588097" lon="15.476591825844459"><ele>0.0</ele><time>2026-05-01T12:47:58Z</time></trkpt><trkpt lat="44.27705859089773" lon="15.476660258609858"><ele>0.0</ele><time>2026-05-01T12:47:59Z</time></trkpt><trkpt lat="44.276957521741586" lon="15.476742206403221"><ele>0.0</ele><time>2026-05-01T12:48:00Z</time></trkpt><trkpt lat="44.27685635953957" lon="15.476830121738416"><ele>0.0</ele><time>2026-05-01T12:48:01Z</time></trkpt><trkpt lat="44.276757329819986" lon="15.476916757513584"><ele>0.0</ele><time>2026-05-01T12:48:02Z</time></trkpt><trkpt lat="44.276657465081854" lon="15.477007636604805"><ele>0.0</ele><time>2026-05-01T12:48:03Z</time></trkpt><trkpt lat="44.276555541176386" lon="15.477099530873165"><ele>0.0</ele><time>2026-05-01T12:48:04Z</time></trkpt><trkpt lat="44.27645293308124" lon="15.47718183984001"><ele>0.4</ele><time>2026-05-01T12:48:05Z</time></trkpt><trkpt lat="44.276363152463055" lon="15.477274923466553"><ele>0.8</ele><time>2026-05-01T12:48:06Z</time></trkpt><trkpt lat="44.276267114777205" lon="15.477356744689132"><ele>1.2000000000000002</ele><time>2026-05-01T12:48:07Z</time></trkpt><trkpt lat="44.27617487323698" lon="15.477427688523598"><ele>1.6</ele><time>2026-05-01T12:48:08Z</time></trkpt><trkpt lat="44.27609162968148" lon="15.47749996652847"><ele>2.0</ele><time>2026-05-01T12:48:09Z</time></trkpt><trkpt lat="44.276008644741495" lon="15.477573786589186"><ele>2.0</ele><time>2026-05-01T12:48:10Z</time></trkpt><trkpt lat="44.2759213239088" lon="15.477651275308574"><ele>2.0</ele><time>2026-05-01T12:48:11Z</time></trkpt><trkpt lat="44.27583881062082" lon="15.477725949315808"><ele>2.0</ele><time>2026-05-01T12:48:12Z</time></trkpt><trkpt lat="44.275749162501235" lon="15.477814187194308"><ele>2.0</ele><time>2026-05-01T12:48:13Z</time></trkpt><trkpt lat="44.27564787224774" lon="15.477906086488856"><ele>2.0</ele><time>2026-05-01T12:48:14Z</time></trkpt><trkpt lat="44.27554732697095" lon="15.47800458982796"><ele>2.5</ele><time>2026-05-01T12:48:15Z</time></trkpt><trkpt lat="44.27545412962423" lon="15.478115482174081"><ele>3.0</ele><time>2026-05-01T12:48:16Z</time></trkpt><trkpt lat="44.275360201989976" lon="15.4782285287686"><ele>3.5</ele><time>2026-05-01T12:48:17Z</time></trkpt><trkpt lat="44.27527477632139" lon="15.478351915178072"><ele>4.0</ele><time>2026-05-01T12:48:18Z</time></trkpt><trkpt lat="44.275190982719955" lon="15.478487218983071"><ele>4.0</ele><time>2026-05-01T12:48:19Z</time></trkpt><trkpt lat="44.275117850509496" lon="15.478621155765916"><ele>4.0</ele><time>2026-05-01T12:48:20Z</time></trkpt><trkpt lat="44.27504755433711" lon="15.47875908907129"><ele>4.0</ele><time>2026-05-01T12:48:21Z</time></trkpt><trkpt lat="44.27497719773117" lon="15.478904547873137"><ele>4.0</ele><time>2026-05-01T12:48:22Z</time></trkpt><trkpt lat="44.2749087154387" lon="15.479064518175637"><ele>4.0</ele><time>2026-05-01T12:48:23Z</time></trkpt><trkpt lat="44.27485552822573" lon="15.479239185929764"><ele>4.0</ele><time>2026-05-01T12:48:24Z</time></trkpt><trkpt lat="44.27480126546064" lon="15.479424297412448"><ele>4.0</ele><time>2026-05-01T12:48:25Z</time></trkpt><trkpt lat="44.27474827297535" lon="15.479615300676674"><ele>4.0</ele><time>2026-05-01T12:48:26Z</time></trkpt><trkpt lat="44.27470567622243" lon="15.479818179791572"><ele>4.0</ele><time>2026-05-01T12:48:27Z</time></trkpt><trkpt lat="44.27466700166567" lon="15.480017257283691"><ele>4.0</ele><time>2026-05-01T12:48:28Z</time></trkpt><trkpt lat="44.2746312009762" lon="15.48022156485809"><ele>4.0</ele><time>2026-05-01T12:48:29Z</time></trkpt><trkpt lat="44.27459553473651" lon="15.48042241785943"><ele>4.0</ele><time>2026-05-01T12:48:30Z</time></trkpt><trkpt lat="44.27456343145984" lon="15.480617655014138"><ele>3.75</ele><time>2026-05-01T12:48:31Z</time></trkpt><trkpt lat="44.274534242811036" lon="15.480811229656169"><ele>3.5</ele><time>2026-05-01T12:48:32Z</time></trkpt><trkpt lat="44.2745025398882" lon="15.481008504693188"><ele>3.25</ele><time>2026-05-01T12:48:33Z</time></trkpt><trkpt lat="44.274468620915265" lon="15.481201685996465"><ele>3.0</ele><time>2026-05-01T12:48:34Z</time></trkpt><trkpt lat="44.274431928617936" lon="15.481394167949881"><ele>3.5</ele><time>2026-05-01T12:48:35Z</time></trkpt><trkpt lat="44.27439011564445" lon="15.481589398199148"><ele>4.0</ele><time>2026-05-01T12:48:36Z</time></trkpt><trkpt lat="44.27434046092079" lon="15.481781672947466"><ele>4.5</ele><time>2026-05-01T12:48:37Z</time></trkpt><trkpt lat="44.27429045943144" lon="15.481969941097397"><ele>5.0</ele><time>2026-05-01T12:48:38Z</time></trkpt><trkpt lat="44.27422575136692" lon="15.482158247919527"><ele>5.75</ele><time>2026-05-01T12:48:39Z</time></trkpt><trkpt lat="44.27415607419321" lon="15.482340773357393"><ele>6.5</ele><time>2026-05-01T12:48:40Z</time></trkpt><trkpt lat="44.27408851134736" lon="15.482518787657302"><ele>7.25</ele><time>2026-05-01T12:48:41Z</time></trkpt><trkpt lat="44.27401885198422" lon="15.482700842818238"><ele>8.0</ele><time>2026-05-01T12:48:42Z</time></trkpt><trkpt lat="44.27394989802834" lon="15.482880140302797"><ele>7.75</ele><time>2026-05-01T12:48:43Z</time></trkpt><trkpt lat="44.27387542719029" lon="15.48306022808425"><ele>7.5</ele><time>2026-05-01T12:48:44Z</time></trkpt><trkpt lat="44.2738076972844" lon="15.483248964127887"><ele>7.25</ele><time>2026-05-01T12:48:45Z</time></trkpt><trkpt lat="44.27374882853463" lon="15.483434916889948"><ele>7.0</ele><time>2026-05-01T12:48:46Z</time></trkpt><trkpt lat="44.27369405929634" lon="15.483631187162207"><ele>7.0</ele><time>2026-05-01T12:48:47Z</time></trkpt><trkpt lat="44.27363869101253" lon="15.483840206286493"><ele>7.0</ele><time>2026-05-01T12:48:48Z</time></trkpt><trkpt lat="44.27359206826929" lon="15.48405876385442"><ele>7.0</ele><time>2026-05-01T12:48:49Z</time></trkpt><trkpt lat="44.2735675576995" lon="15.484278428512582"><ele>7.0</ele><time>2026-05-01T12:48:50Z</time></trkpt><trkpt lat="44.273561239371105" lon="15.484509762138764"><ele>7.0</ele><time>2026-05-01T12:48:51Z</time></trkpt><trkpt lat="44.27355756130337" lon="15.48472597478909"><ele>7.0</ele><time>2026-05-01T12:48:52Z</time></trkpt><trkpt lat="44.27355532388802" lon="15.484948508133812"><ele>7.0</ele><time>2026-05-01T12:48:53Z</time></trkpt><trkpt lat="44.27355445305296" lon="15.485176606605016"><ele>7.0</ele><time>2026-05-01T12:48:54Z</time></trkpt><trkpt lat="44.273551622003275" lon="15.485404066439521"><ele>7.0</ele><time>2026-05-01T12:48:55Z</time></trkpt><trkpt lat="44.27354690363246" lon="15.485633202730416"><ele>8.0</ele><time>2026-05-01T12:48:56Z</time></trkpt><trkpt lat="44.27353863834228" lon="15.485870066636696"><ele>9.0</ele><time>2026-05-01T12:48:57Z</time></trkpt><trkpt lat="44.27352658791041" lon="15.486107707720814"><ele>10.0</ele><time>2026-05-01T12:48:58Z</time></trkpt><trkpt lat="44.27350642236938" lon="15.486351124675897"><ele>10.666666666666668</ele><time>2026-05-01T12:48:59Z</time></trkpt><trkpt lat="44.27347861604602" lon="15.486593436448135"><ele>11.333333333333334</ele><time>2026-05-01T12:49:00Z</time></trkpt><trkpt lat="44.27344264011924" lon="15.486837792755026"><ele>12.0</ele><time>2026-05-01T12:49:01Z</time></trkpt><trkpt lat="44.27339700336895" lon="15.487082177063312"><ele>12.666666666666668</ele><time>2026-05-01T12:49:02Z</time></trkpt><trkpt lat="44.27334846330849" lon="15.487317897598613"><ele>13.333333333333334</ele><time>2026-05-01T12:49:03Z</time></trkpt><trkpt lat="44.273300450000804" lon="15.487539811109391"><ele>14.0</ele><time>2026-05-01T12:49:04Z</time></trkpt><trkpt lat="44.273253436800324" lon="15.487755436892458"><ele>14.0</ele><time>2026-05-01T12:49:05Z</time></trkpt><trkpt lat="44.27320253072151" lon="15.487974558255937"><ele>14.0</ele><time>2026-05-01T12:49:06Z</time></trkpt><trkpt lat="44.27315379518669" lon="15.488191481565835"><ele>14.0</ele><time>2026-05-01T12:49:07Z</time></trkpt><trkpt lat="44.27310523143065" lon="15.488408014664968"><ele>13.333333333333334</ele><time>2026-05-01T12:49:08Z</time></trkpt><trkpt lat="44.27305725129268" lon="15.488623365982058"><ele>12.666666666666668</ele><time>2026-05-01T12:49:09Z</time></trkpt><trkpt lat="44.273007703747815" lon="15.48884201155603"><ele>12.0</ele><time>2026-05-01T12:49:10Z</time></trkpt><trkpt lat="44.272962188338035" lon="15.489061056614213"><ele>11.666666666666666</ele><time>2026-05-01T12:49:11Z</time></trkpt><trkpt lat="44.272918118989345" lon="15.48927951518154"><ele>11.333333333333332</ele><time>2026-05-01T12:49:12Z</time></trkpt><trkpt lat="44.2728731665134" lon="15.489505326714099"><ele>11.0</ele><time>2026-05-01T12:49:13Z</time></trkpt><trkpt lat="44.27282349864715" lon="15.489731507650768"><ele>11.0</ele><time>2026-05-01T12:49:14Z</time></trkpt><trkpt lat="44.2727731052538" lon="15.489956021964066"><ele>11.0</ele><time>2026-05-01T12:49:15Z</time></trkpt><trkpt lat="44.27271949621791" lon="15.490196650454163"><ele>11.0</ele><time>2026-05-01T12:49:16Z</time></trkpt><trkpt lat="44.272666160254076" lon="15.490445773851352"><ele>11.333333333333332</ele><time>2026-05-01T12:49:17Z</time></trkpt><trkpt lat="44.27261241359587" lon="15.49070114284174"><ele>11.666666666666666</ele><time>2026-05-01T12:49:18Z</time></trkpt><trkpt lat="44.27256070044527" lon="15.490954576612259"><ele>12.0</ele><time>2026-05-01T12:49:19Z</time></trkpt><trkpt lat="44.27250595612283" lon="15.49121518530415"><ele>11.333333333333334</ele><time>2026-05-01T12:49:20Z</time></trkpt><trkpt lat="44.27245639594736" lon="15.491485463958401"><ele>10.666666666666668</ele><time>2026-05-01T12:49:21Z</time></trkpt><trkpt lat="44.272440721005964" lon="15.491778643786233"><ele>10.0</ele><time>2026-05-01T12:49:22Z</time></trkpt><trkpt lat="44.27244129823026" lon="15.492055671543529"><ele>9.666666666666668</ele><time>2026-05-01T12:49:23Z</time></trkpt><trkpt lat="44.272455356688006" lon="15.492318137004613"><ele>9.333333333333334</ele><time>2026-05-01T12:49:24Z</time></trkpt><trkpt lat="44.272489975196265" lon="15.492573293286348"><ele>9.0</ele><time>2026-05-01T12:49:25Z</time></trkpt><trkpt lat="44.27253246470006" lon="15.49282261603244"><ele>9.0</ele><time>2026-05-01T12:49:26Z</time></trkpt><trkpt lat="44.272586065439086" lon="15.493080812577475"><ele>9.0</ele><time>2026-05-01T12:49:27Z</time></trkpt><trkpt lat="44.27266151641529" lon="15.49333208941467"><ele>9.0</ele><time>2026-05-01T12:49:28Z</time></trkpt><trkpt lat="44.27274736562614" lon="15.493568849245378"><ele>9.0</ele><time>2026-05-01T12:49:29Z</time></trkpt><trkpt lat="44.27284141848942" lon="15.49381081792046"><ele>9.0</ele><time>2026-05-01T12:49:30Z</time></trkpt><trkpt lat="44.272934271390945" lon="15.49404129874145"><ele>9.0</ele><time>2026-05-01T12:49:31Z</time></trkpt><trkpt lat="44.2730226104329" lon="15.494263131010662"><ele>10.0</ele><time>2026-05-01T12:49:32Z</time></trkpt><trkpt lat="44.27311299811762" lon="15.494488808657628"><ele>11.0</ele><time>2026-05-01T12:49:33Z</time></trkpt><trkpt lat="44.27320599913326" lon="15.494723922013076"><ele>12.0</ele><time>2026-05-01T12:49:34Z</time></trkpt><trkpt lat="44.273298980974495" lon="15.494961304823084"><ele>12.0</ele><time>2026-05-01T12:49:35Z</time></trkpt><trkpt lat="44.27339214973204" lon="15.49519891770519"><ele>12.0</ele><time>2026-05-01T12:49:36Z</time></trkpt><trkpt lat="44.273482786859944" lon="15.495432972101641"><ele>12.0</ele><time>2026-05-01T12:49:37Z</time></trkpt><trkpt lat="44.27356728502447" lon="15.495662372417234"><ele>11.666666666666666</ele><time>2026-05-01T12:49:38Z</time></trkpt><trkpt lat="44.27364616735135" lon="15.495889644321714"><ele>11.333333333333332</ele><time>2026-05-01T12:49:39Z</time></trkpt><trkpt lat="44.273721372178166" lon="15.496121887838237"><ele>11.0</ele><time>2026-05-01T12:49:40Z</time></trkpt><trkpt lat="44.273788677193146" lon="15.496360335852055"><ele>10.666666666666666</ele><time>2026-05-01T12:49:41Z</time></trkpt><trkpt lat="44.27383988799758" lon="15.496606190293837"><ele>10.333333333333334</ele><time>2026-05-01T12:49:42Z</time></trkpt><trkpt lat="44.273879157342904" lon="15.496863807714323"><ele>10.0</ele><time>2026-05-01T12:49:43Z</time></trkpt><trkpt lat="44.27391191485611" lon="15.497117261118596"><ele>10.666666666666668</ele><time>2026-05-01T12:49:44Z</time></trkpt><trkpt lat="44.27393604168711" lon="15.497371447364772"><ele>11.333333333333334</ele><time>2026-05-01T12:49:45Z</time></trkpt><trkpt lat="44.273953160866554" lon="15.497626605879706"><ele>12.0</ele><time>2026-05-01T12:49:46Z</time></trkpt><trkpt lat="44.27395949420835" lon="15.497886886877508"><ele>12.333333333333332</ele><time>2026-05-01T12:49:47Z</time></trkpt><trkpt lat="44.273957612040356" lon="15.49814754137953"><ele>12.666666666666666</ele><time>2026-05-01T12:49:48Z</time></trkpt><trkpt lat="44.27394789606011" lon="15.498408384307643"><ele>13.0</ele><time>2026-05-01T12:49:49Z</time></trkpt><trkpt lat="44.27392903408526" lon="15.498669110969146"><ele>12.333333333333332</ele><time>2026-05-01T12:49:50Z</time></trkpt><trkpt lat="44.273905718835586" lon="15.498936974248606"><ele>11.666666666666666</ele><time>2026-05-01T12:49:51Z</time></trkpt><trkpt lat="44.27388426877256" lon="15.499212287456634"><ele>11.0</ele><time>2026-05-01T12:49:52Z</time></trkpt><trkpt lat="44.27385597466488" lon="15.499496969521001"><ele>10.0</ele><time>2026-05-01T12:49:53Z</time></trkpt><trkpt lat="44.27383078760967" lon="15.499780320221554"><ele>9.0</ele><time>2026-05-01T12:49:54Z</time></trkpt><trkpt lat="44.273810440290255" lon="15.500068783346235"><ele>8.0</ele><time>2026-05-01T12:49:55Z</time></trkpt><trkpt lat="44.27379183492157" lon="15.500355689707071"><ele>7.333333333333333</ele><time>2026-05-01T12:49:56Z</time></trkpt><trkpt lat="44.27377414349257" lon="15.500634925418707"><ele>6.666666666666666</ele><time>2026-05-01T12:49:57Z</time></trkpt><trkpt lat="44.273764456998194" lon="15.50091906181107"><ele>6.0</ele><time>2026-05-01T12:49:58Z</time></trkpt><trkpt lat="44.27377080185491" lon="15.501197630079634"><ele>5.0</ele><time>2026-05-01T12:49:59Z</time></trkpt><trkpt lat="44.273786352200645" lon="15.501476150670937"><ele>4.0</ele><time>2026-05-01T12:50:00Z</time></trkpt><trkpt lat="44.273813626616054" lon="15.501740625187146"><ele>3.0</ele><time>2026-05-01T12:50:01Z</time></trkpt><trkpt lat="44.273845465500976" lon="15.501997386402406"><ele>2.6666666666666665</ele><time>2026-05-01T12:50:02Z</time></trkpt><trkpt lat="44.27388090678559" lon="15.502249971854983"><ele>2.333333333333333</ele><time>2026-05-01T12:50:03Z</time></trkpt><trkpt lat="44.27392184311723" lon="15.502502136275139"><ele>2.0</ele><time>2026-05-01T12:50:04Z</time></trkpt><trkpt lat="44.27397019507019" lon="15.502744936537773"><ele>2.333333333333333</ele><time>2026-05-01T12:50:05Z</time></trkpt><trkpt lat="44.274015730086234" lon="15.502982288466756"><ele>2.6666666666666665</ele><time>2026-05-01T12:50:06Z</time></trkpt><trkpt lat="44.27405507927196" lon="15.503210697339064"><ele>3.0</ele><time>2026-05-01T12:50:07Z</time></trkpt><trkpt lat="44.274091027096446" lon="15.503432533418842"><ele>3.0</ele><time>2026-05-01T12:50:08Z</time></trkpt><trkpt lat="44.27412230808514" lon="15.503651613665863"><ele>3.0</ele><time>2026-05-01T12:50:09Z</time></trkpt><trkpt lat="44.27413893630066" lon="15.503868160486071"><ele>3.0</ele><time>2026-05-01T12:50:10Z</time></trkpt><trkpt lat="44.27414530867068" lon="15.50409183614628"><ele>2.3333333333333335</ele><time>2026-05-01T12:50:11Z</time></trkpt><trkpt lat="44.27414286681064" lon="15.504322047969275"><ele>1.6666666666666665</ele><time>2026-05-01T12:50:12Z</time></trkpt><trkpt lat="44.27413134704026" lon="15.504549587806482"><ele>1.0</ele><time>2026-05-01T12:50:13Z</time></trkpt><trkpt lat="44.274108882539046" lon="15.504786433239449"><ele>1.0</ele><time>2026-05-01T12:50:14Z</time></trkpt><trkpt lat="44.2740752866877" lon="15.505026072532598"><ele>1.0</ele><time>2026-05-01T12:50:15Z</time></trkpt><trkpt lat="44.27403363960126" lon="15.50526789397827"><ele>1.0</ele><time>2026-05-01T12:50:16Z</time></trkpt><trkpt lat="44.273987120050116" lon="15.505500333715732"><ele>1.0</ele><time>2026-05-01T12:50:17Z</time></trkpt><trkpt lat="44.273938609625546" lon="15.505720033251286"><ele>1.0</ele><time>2026-05-01T12:50:18Z</time></trkpt><trkpt lat="44.273892065138924" lon="15.505938000648817"><ele>1.0</ele><time>2026-05-01T12:50:19Z</time></trkpt><trkpt lat="44.273850988881655" lon="15.506152972813409"><ele>0.6666666666666666</ele><time>2026-05-01T12:50:20Z</time></trkpt><trkpt lat="44.27381438960214" lon="15.506364481757531"><ele>0.3333333333333333</ele><time>2026-05-01T12:50:21Z</time></trkpt><trkpt lat="44.27377476366758" lon="15.50657734400457"><ele>0.0</ele><time>2026-05-01T12:50:22Z</time></trkpt><trkpt lat="44.27373348146481" lon="15.50677921734506"><ele>0.0</ele><time>2026-05-01T12:50:23Z</time></trkpt><trkpt lat="44.27369286817592" lon="15.506982038895881"><ele>0.0</ele><time>2026-05-01T12:50:24Z</time></trkpt><trkpt lat="44.27365305208022" lon="15.507197995840347"><ele>0.0</ele><time>2026-05-01T12:50:25Z</time></trkpt><trkpt lat="44.27361691477495" lon="15.507424325557675"><ele>0.0</ele><time>2026-05-01T12:50:26Z</time></trkpt><trkpt lat="44.27358550689506" lon="15.507661616263375"><ele>0.0</ele><time>2026-05-01T12:50:27Z</time></trkpt><trkpt lat="44.27356276711612" lon="15.507921691882844"><ele>0.0</ele><time>2026-05-01T12:50:28Z</time></trkpt><trkpt lat="44.273559931383296" lon="15.508211585648713"><ele>0.0</ele><time>2026-05-01T12:50:29Z</time></trkpt><trkpt lat="44.273570328096895" lon="15.508517016241633"><ele>0.0</ele><time>2026-05-01T12:50:30Z</time></trkpt><trkpt lat="44.273579425510825" lon="15.508837597630915"><ele>0.0</ele><time>2026-05-01T12:50:31Z</time></trkpt><trkpt lat="44.27357964651923" lon="15.509162385123256"><ele>0.0</ele><time>2026-05-01T12:50:32Z</time></trkpt><trkpt lat="44.27355637147294" lon="15.509483874554318"><ele>0.0</ele><time>2026-05-01T12:50:33Z</time></trkpt><trkpt lat="44.27349402385587" lon="15.509795711188623"><ele>1.5</ele><time>2026-05-01T12:50:34Z</time></trkpt><trkpt lat="44.27339655131545" lon="15.51009037452495"><ele>3.0</ele><time>2026-05-01T12:50:35Z</time></trkpt><trkpt lat="44.27327336208173" lon="15.51037171405899"><ele>2.0</ele><time>2026-05-01T12:50:36Z</time></trkpt><trkpt lat="44.27313990680263" lon="15.510650680940914"><ele>1.0</ele><time>2026-05-01T12:50:37Z</time></trkpt><trkpt lat="44.27300510234479" lon="15.5109233433074"><ele>1.0</ele><time>2026-05-01T12:50:38Z</time></trkpt><trkpt lat="44.272877309802624" lon="15.511193155489984"><ele>1.0</ele><time>2026-05-01T12:50:39Z</time></trkpt><trkpt lat="44.27275655129964" lon="15.511457801222143"><ele>2.6666666666666665</ele><time>2026-05-01T12:50:40Z</time></trkpt><trkpt lat="44.27263903744656" lon="15.511715417436218"><ele>4.333333333333333</ele><time>2026-05-01T12:50:41Z</time></trkpt><trkpt lat="44.27253103803156" lon="15.511958211162806"><ele>6.0</ele><time>2026-05-01T12:50:42Z</time></trkpt><trkpt lat="44.272426382405996" lon="15.51219754407715"><ele>4.333333333333333</ele><time>2026-05-01T12:50:43Z</time></trkpt><trkpt lat="44.27232836584692" lon="15.512425413286092"><ele>2.6666666666666665</ele><time>2026-05-01T12:50:44Z</time></trkpt><trkpt lat="44.2722397336098" lon="15.512645854386447"><ele>1.0</ele><time>2026-05-01T12:50:45Z</time></trkpt><trkpt lat="44.2721620389679" lon="15.51287043216663"><ele>1.6666666666666665</ele><time>2026-05-01T12:50:46Z</time></trkpt><trkpt lat="44.27209518411608" lon="15.513094970958578"><ele>2.3333333333333335</ele><time>2026-05-01T12:50:47Z</time></trkpt><trkpt lat="44.27203454452348" lon="15.513315403949775"><ele>3.0</ele><time>2026-05-01T12:50:48Z</time></trkpt><trkpt lat="44.271969910094036" lon="15.513532994751728"><ele>4.0</ele><time>2026-05-01T12:50:49Z</time></trkpt><trkpt lat="44.27190237899724" lon="15.513745332211762"><ele>5.0</ele><time>2026-05-01T12:50:50Z</time></trkpt><trkpt lat="44.271826914051395" lon="15.513961270492041"><ele>6.0</ele><time>2026-05-01T12:50:51Z</time></trkpt><trkpt lat="44.27174142453871" lon="15.514166373903887"><ele>6.0</ele><time>2026-05-01T12:50:52Z</time></trkpt><trkpt lat="44.2716515499879" lon="15.514355528232596"><ele>6.0</ele><time>2026-05-01T12:50:53Z</time></trkpt><trkpt lat="44.27156333972703" lon="15.51454260269097"><ele>6.0</ele><time>2026-05-01T12:50:54Z</time></trkpt><trkpt lat="44.2714866497775" lon="15.51472475865852"><ele>4.5</ele><time>2026-05-01T12:50:55Z</time></trkpt><trkpt lat="44.27141815375975" lon="15.51490525867166"><ele>3.0</ele><time>2026-05-01T12:50:56Z</time></trkpt><trkpt lat="44.27136775002976" lon="15.515091230174018"><ele>1.5</ele><time>2026-05-01T12:50:57Z</time></trkpt><trkpt lat="44.27134058237419" lon="15.515284177033477"><ele>0.0</ele><time>2026-05-01T12:50:58Z</time></trkpt><trkpt lat="44.27133824613519" lon="15.515493247142853"><ele>0.0</ele><time>2026-05-01T12:50:59Z</time></trkpt><trkpt lat="44.27135597569483" lon="15.515699531777457"><ele>0.0</ele><time>2026-05-01T12:51:00Z</time></trkpt><trkpt lat="44.27138240462298" lon="15.515904878782466"><ele>0.0</ele><time>2026-05-01T12:51:01Z</time></trkpt><trkpt lat="44.271403414773" lon="15.516103645583948"><ele>0.0</ele><time>2026-05-01T12:51:02Z</time></trkpt><trkpt lat="44.27141743577613" lon="15.516305528256588"><ele>0.0</ele><time>2026-05-01T12:51:03Z</time></trkpt><trkpt lat="44.27142847057482" lon="15.516513593602376"><ele>0.0</ele><time>2026-05-01T12:51:04Z</time></trkpt><trkpt lat="44.27143063014839" lon="15.516724726503504"><ele>0.0</ele><time>2026-05-01T12:51:05Z</time></trkpt><trkpt lat="44.27141097101969" lon="15.516935041072557"><ele>0.0</ele><time>2026-05-01T12:51:06Z</time></trkpt><trkpt lat="44.27136268727888" lon="15.517137390135185"><ele>0.0</ele><time>2026-05-01T12:51:07Z</time></trkpt><trkpt lat="44.27129781504336" lon="15.517334244731062"><ele>0.0</ele><time>2026-05-01T12:51:08Z</time></trkpt><trkpt lat="44.27122648855672" lon="15.51751913958549"><ele>0.0</ele><time>2026-05-01T12:51:09Z</time></trkpt><trkpt lat="44.27116102441784" lon="15.517694942515961"><ele>0.0</ele><time>2026-05-01T12:51:10Z</time></trkpt><trkpt lat="44.2711026536554" lon="15.517868223993673"><ele>0.0</ele><time>2026-05-01T12:51:11Z</time></trkpt><trkpt lat="44.271056439438944" lon="15.518043072271139"><ele>0.0</ele><time>2026-05-01T12:51:12Z</time></trkpt><trkpt lat="44.27102665030541" lon="15.518219159482662"><ele>0.0</ele><time>2026-05-01T12:51:13Z</time></trkpt><trkpt lat="44.271010273798375" lon="15.518400144715129"><ele>0.0</ele><time>2026-05-01T12:51:14Z</time></trkpt><trkpt lat="44.27100545788543" lon="15.518577503325805"><ele>0.0</ele><time>2026-05-01T12:51:15Z</time></trkpt><trkpt lat="44.27100362556949" lon="15.518751716964086"><ele>0.0</ele><time>2026-05-01T12:51:16Z</time></trkpt><trkpt lat="44.270997541499774" lon="15.518923933939183"><ele>0.25</ele><time>2026-05-01T12:51:17Z</time></trkpt><trkpt lat="44.27098103528883" lon="15.51909516077164"><ele>0.5</ele><time>2026-05-01T12:51:18Z</time></trkpt><trkpt lat="44.27095179677344" lon="15.519276127448734"><ele>0.75</ele><time>2026-05-01T12:51:19Z</time></trkpt><trkpt lat="44.27090366507433" lon="15.51945977911132"><ele>1.0</ele><time>2026-05-01T12:51:20Z</time></trkpt><trkpt lat="44.27083423520598" lon="15.519638883776985"><ele>0.6666666666666666</ele><time>2026-05-01T12:51:21Z</time></trkpt><trkpt lat="44.270752450431516" lon="15.519817436165388"><ele>0.3333333333333333</ele><time>2026-05-01T12:51:22Z</time></trkpt><trkpt lat="44.27066901770626" lon="15.520003804179675"><ele>0.0</ele><time>2026-05-01T12:51:23Z</time></trkpt><trkpt lat="44.270587377827994" lon="15.520202227716853"><ele>0.0</ele><time>2026-05-01T12:51:24Z</time></trkpt><trkpt lat="44.270508186432465" lon="15.520409818530883"><ele>0.0</ele><time>2026-05-01T12:51:25Z</time></trkpt><trkpt lat="44.27043085434061" lon="15.520626668348411"><ele>0.0</ele><time>2026-05-01T12:51:26Z</time></trkpt><trkpt lat="44.27035691561177" lon="15.520852056398377"><ele>0.0</ele><time>2026-05-01T12:51:27Z</time></trkpt><trkpt lat="44.270285550719294" lon="15.521081042040777"><ele>0.0</ele><time>2026-05-01T12:51:28Z</time></trkpt><trkpt lat="44.27022053605292" lon="15.521312293720827"><ele>0.0</ele><time>2026-05-01T12:51:29Z</time></trkpt><trkpt lat="44.27015790295012" lon="15.52154748846578"><ele>2.0</ele><time>2026-05-01T12:51:30Z</time></trkpt><trkpt lat="44.27010047074448" lon="15.521782773301041"><ele>4.0</ele><time>2026-05-01T12:51:31Z</time></trkpt><trkpt lat="44.27004690594153" lon="15.522027441566138"><ele>6.0</ele><time>2026-05-01T12:51:32Z</time></trkpt><trkpt lat="44.27000082416225" lon="15.522268308700744"><ele>7.666666666666666</ele><time>2026-05-01T12:51:33Z</time></trkpt><trkpt lat="44.26996128190316" lon="15.522491234636053"><ele>9.333333333333332</ele><time>2026-05-01T12:51:34Z</time></trkpt><trkpt lat="44.269928405658376" lon="15.522707891488933"><ele>11.0</ele><time>2026-05-01T12:51:35Z</time></trkpt><trkpt lat="44.269897624213606" lon="15.522920089064474"><ele>11.666666666666666</ele><time>2026-05-01T12:51:36Z</time></trkpt><trkpt lat="44.269873607647966" lon="15.523142936015718"><ele>12.333333333333332</ele><time>2026-05-01T12:51:37Z</time></trkpt><trkpt lat="44.269849985762896" lon="15.523375303087498"><ele>13.0</ele><time>2026-05-01T12:51:38Z</time></trkpt><trkpt lat="44.26982595021658" lon="15.523616185692687"><ele>12.0</ele><time>2026-05-01T12:51:39Z</time></trkpt><trkpt lat="44.26980040570582" lon="15.523862121193922"><ele>11.0</ele><time>2026-05-01T12:51:40Z</time></trkpt><trkpt lat="44.26976966219754" lon="15.524107844387112"><ele>10.0</ele><time>2026-05-01T12:51:41Z</time></trkpt><trkpt lat="44.269734601300804" lon="15.524355811141668"><ele>6.666666666666667</ele><time>2026-05-01T12:51:42Z</time></trkpt><trkpt lat="44.26968925407331" lon="15.524607471053677"><ele>3.3333333333333335</ele><time>2026-05-01T12:51:43Z</time></trkpt><trkpt lat="44.2696315436062" lon="15.524854847965429"><ele>0.0</ele><time>2026-05-01T12:51:44Z</time></trkpt><trkpt lat="44.26955601210135" lon="15.525100811874355"><ele>0.0</ele><time>2026-05-01T12:51:45Z</time></trkpt><trkpt lat="44.26946672983788" lon="15.525334968558836"><ele>0.0</ele><time>2026-05-01T12:51:46Z</time></trkpt><trkpt lat="44.269367705094616" lon="15.525549541806543"><ele>0.0</ele><time>2026-05-01T12:51:47Z</time></trkpt><trkpt lat="44.269255135825595" lon="15.52574286825466"><ele>1.3333333333333333</ele><time>2026-05-01T12:51:48Z</time></trkpt><trkpt lat="44.26913694871417" lon="15.525925785831939"><ele>2.6666666666666665</ele><time>2026-05-01T12:51:49Z</time></trkpt><trkpt lat="44.269021368387925" lon="15.526107186457443"><ele>4.0</ele><time>2026-05-01T12:51:50Z</time></trkpt><trkpt lat="44.26889200445598" lon="15.526256093877334"><ele>4.0</ele><time>2026-05-01T12:51:51Z</time></trkpt><trkpt lat="44.26876649607702" lon="15.52639812462864"><ele>4.0</ele><time>2026-05-01T12:51:52Z</time></trkpt><trkpt lat="44.268633286181945" lon="15.526521933924567"><ele>4.0</ele><time>2026-05-01T12:51:53Z</time></trkpt><trkpt lat="44.26848767818315" lon="15.5266249267676"><ele>4.0</ele><time>2026-05-01T12:51:54Z</time></trkpt><trkpt lat="44.268337016619036" lon="15.526730780253548"><ele>4.0</ele><time>2026-05-01T12:51:55Z</time></trkpt><trkpt lat="44.26818568203636" lon="15.526820207947038"><ele>4.0</ele><time>2026-05-01T12:51:56Z</time></trkpt><trkpt lat="44.26803520999485" lon="15.526896766032658"><ele>2.6666666666666665</ele><time>2026-05-01T12:51:57Z</time></trkpt><trkpt lat="44.26788240155384" lon="15.526963056181334"><ele>1.3333333333333333</ele><time>2026-05-01T12:51:58Z</time></trkpt><trkpt lat="44.267735451053085" lon="15.527016118927131"><ele>0.0</ele><time>2026-05-01T12:51:59Z</time></trkpt><trkpt lat="44.26758703223518" lon="15.527054789732547"><ele>2.0</ele><time>2026-05-01T12:52:00Z</time></trkpt><trkpt lat="44.26745155118901" lon="15.527118130561256"><ele>4.0</ele><time>2026-05-01T12:52:01Z</time></trkpt><trkpt lat="44.267308648076444" lon="15.527170224945795"><ele>6.0</ele><time>2026-05-01T12:52:02Z</time></trkpt><trkpt lat="44.26717740375846" lon="15.527233270988336"><ele>8.0</ele><time>2026-05-01T12:52:03Z</time></trkpt><trkpt lat="44.26705130851179" lon="15.52732344377595"><ele>8.0</ele><time>2026-05-01T12:52:04Z</time></trkpt><trkpt lat="44.26693473340925" lon="15.527416784154411"><ele>8.0</ele><time>2026-05-01T12:52:05Z</time></trkpt><trkpt lat="44.26682326591056" lon="15.527526722645291"><ele>8.0</ele><time>2026-05-01T12:52:06Z</time></trkpt><trkpt lat="44.266726176348485" lon="15.527661796176856"><ele>8.0</ele><time>2026-05-01T12:52:07Z</time></trkpt><trkpt lat="44.26663967685232" lon="15.527808375325879"><ele>6.5</ele><time>2026-05-01T12:52:08Z</time></trkpt><trkpt lat="44.266556932933625" lon="15.527958641579762"><ele>5.0</ele><time>2026-05-01T12:52:09Z</time></trkpt><trkpt lat="44.26647454470474" lon="15.528111712878168"><ele>3.5</ele><time>2026-05-01T12:52:10Z</time></trkpt><trkpt lat="44.26639630510286" lon="15.528274935773695"><ele>2.0</ele><time>2026-05-01T12:52:11Z</time></trkpt><trkpt lat="44.26631858235463" lon="15.528447843740206"><ele>2.0</ele><time>2026-05-01T12:52:12Z</time></trkpt><trkpt lat="44.26623968997712" lon="15.528621494839692"><ele>2.0</ele><time>2026-05-01T12:52:13Z</time></trkpt><trkpt lat="44.266150483084274" lon="15.528803375821154"><ele>2.0</ele><time>2026-05-01T12:52:14Z</time></trkpt><trkpt lat="44.26604511181125" lon="15.528995574348238"><ele>1.3333333333333333</ele><time>2026-05-01T12:52:15Z</time></trkpt><trkpt lat="44.26592014638743" lon="15.529185511159913"><ele>0.6666666666666666</ele><time>2026-05-01T12:52:16Z</time></trkpt><trkpt lat="44.26577175100463" lon="15.529364241221236"><ele>0.0</ele><time>2026-05-01T12:52:17Z</time></trkpt><trkpt lat="44.265604164900374" lon="15.529528785303556"><ele>3.0</ele><time>2026-05-01T12:52:18Z</time></trkpt><trkpt lat="44.265421808853844" lon="15.529682079982376"><ele>6.0</ele><time>2026-05-01T12:52:19Z</time></trkpt><trkpt lat="44.26523439751614" lon="15.529809589476507"><ele>9.0</ele><time>2026-05-01T12:52:20Z</time></trkpt><trkpt lat="44.265046057438404" lon="15.529910537179317"><ele>9.0</ele><time>2026-05-01T12:52:21Z</time></trkpt><trkpt lat="44.264849005395156" lon="15.530006365135606"><ele>9.0</ele><time>2026-05-01T12:52:22Z</time></trkpt><trkpt lat="44.264658978593424" lon="15.530097294489705"><ele>9.0</ele><time>2026-05-01T12:52:23Z</time></trkpt><trkpt lat="44.26447404134404" lon="15.530196864400487"><ele>11.0</ele><time>2026-05-01T12:52:24Z</time></trkpt><trkpt lat="44.26430175777546" lon="15.530297425031158"><ele>13.0</ele><time>2026-05-01T12:52:25Z</time></trkpt><trkpt lat="44.26415347229364" lon="15.530399155244003"><ele>15.0</ele><time>2026-05-01T12:52:26Z</time></trkpt><trkpt lat="44.26401584366178" lon="15.530507769662796"><ele>10.333333333333334</ele><time>2026-05-01T12:52:27Z</time></trkpt><trkpt lat="44.26388442880702" lon="15.530641844096463"><ele>5.666666666666667</ele><time>2026-05-01T12:52:28Z</time></trkpt><trkpt lat="44.263764017732235" lon="15.530777194593709"><ele>1.0</ele><time>2026-05-01T12:52:29Z</time></trkpt><trkpt lat="44.263658400099004" lon="15.530904442136235"><ele>1.0</ele><time>2026-05-01T12:52:30Z</time></trkpt><trkpt lat="44.26355582265803" lon="15.531038158513566"><ele>1.0</ele><time>2026-05-01T12:52:31Z</time></trkpt><trkpt lat="44.263450740076514" lon="15.53117529976954"><ele>1.0</ele><time>2026-05-01T12:52:32Z</time></trkpt><trkpt lat="44.26334069617523" lon="15.531319830693592"><ele>1.0</ele><time>2026-05-01T12:52:33Z</time></trkpt><trkpt lat="44.26322111207661" lon="15.531459161412371"><ele>3.5</ele><time>2026-05-01T12:52:34Z</time></trkpt><trkpt lat="44.26309863724118" lon="15.53156312494126"><ele>6.0</ele><time>2026-05-01T12:52:35Z</time></trkpt><trkpt lat="44.26297687708727" lon="15.53162999393712"><ele>8.5</ele><time>2026-05-01T12:52:36Z</time></trkpt><trkpt lat="44.26284685763722" lon="15.531669663117237"><ele>11.0</ele><time>2026-05-01T12:52:37Z</time></trkpt><trkpt lat="44.262708418573844" lon="15.531672572120083"><ele>11.0</ele><time>2026-05-01T12:52:38Z</time></trkpt><trkpt lat="44.262561601097715" lon="15.5316546969797"><ele>11.0</ele><time>2026-05-01T12:52:39Z</time></trkpt><trkpt lat="44.26241510319232" lon="15.531619760753808"><ele>11.0</ele><time>2026-05-01T12:52:40Z</time></trkpt><trkpt lat="44.2622662999239" lon="15.531579276894286"><ele>11.0</ele><time>2026-05-01T12:52:41Z</time></trkpt><trkpt lat="44.2621155948664" lon="15.531528439451455"><ele>13.333333333333332</ele><time>2026-05-01T12:52:42Z</time></trkpt><trkpt lat="44.26194048122389" lon="15.531464068225574"><ele>15.666666666666666</ele><time>2026-05-01T12:52:43Z</time></trkpt><trkpt lat="44.26170478046718" lon="15.531406845081941"><ele>18.0</ele><time>2026-05-01T12:52:44Z</time></trkpt><trkpt lat="44.2614306906591" lon="15.53130426887523"><ele>9.0</ele><time>2026-05-01T12:52:45Z</time></trkpt><trkpt lat="44.26116101410359" lon="15.531179124405417"><ele>0.0</ele><time>2026-05-01T12:52:46Z</time></trkpt><trkpt lat="44.26093710937799" lon="15.531071478818244"><ele>0.0</ele><time>2026-05-01T12:52:47Z</time></trkpt><trkpt lat="44.26073203301954" lon="15.531001759060445"><ele>0.0</ele><time>2026-05-01T12:52:48Z</time></trkpt><trkpt lat="44.26054039296974" lon="15.530960952789792"><ele>0.0</ele><time>2026-05-01T12:52:49Z</time></trkpt><trkpt lat="44.26036450195608" lon="15.530978162021562"><ele>0.0</ele><time>2026-05-01T12:52:50Z</time></trkpt><trkpt lat="44.26020755695788" lon="15.531055637440453"><ele>0.0</ele><time>2026-05-01T12:52:51Z</time></trkpt><trkpt lat="44.26007484289782" lon="15.531192044135928"><ele>0.0</ele><time>2026-05-01T12:52:52Z</time></trkpt><trkpt lat="44.259978228263925" lon="15.531376006339357"><ele>2.3333333333333335</ele><time>2026-05-01T12:52:53Z</time></trkpt><trkpt lat="44.259906179364826" lon="15.5316074562257"><ele>4.666666666666667</ele><time>2026-05-01T12:52:54Z</time></trkpt><trkpt lat="44.259871941636575" lon="15.531876917640217"><ele>7.0</ele><time>2026-05-01T12:52:55Z</time></trkpt><trkpt lat="44.2598625481911" lon="15.532199011163293"><ele>11.0</ele><time>2026-05-01T12:52:56Z</time></trkpt><trkpt lat="44.25986174942275" lon="15.53255558318336"><ele>15.0</ele><time>2026-05-01T12:52:57Z</time></trkpt><trkpt lat="44.25985648851899" lon="15.532925723055621"><ele>15.0</ele><time>2026-05-01T12:52:58Z</time></trkpt><trkpt lat="44.25984300186247" lon="15.53329566517339"><ele>15.0</ele><time>2026-05-01T12:52:59Z</time></trkpt><trkpt lat="44.259830216225545" lon="15.5336429528687"><ele>14.666666666666668</ele><time>2026-05-01T12:53:00Z</time></trkpt><trkpt lat="44.259819440696184" lon="15.533948056463634"><ele>14.333333333333334</ele><time>2026-05-01T12:53:01Z</time></trkpt><trkpt lat="44.25981093726956" lon="15.534243578096541"><ele>14.0</ele><time>2026-05-01T12:53:02Z</time></trkpt><trkpt lat="44.25980596664092" lon="15.534516863680741"><ele>13.333333333333334</ele><time>2026-05-01T12:53:03Z</time></trkpt><trkpt lat="44.25980999131496" lon="15.534770879489539"><ele>12.666666666666668</ele><time>2026-05-01T12:53:04Z</time></trkpt><trkpt lat="44.25983751474387" lon="15.535004556410174"><ele>12.0</ele><time>2026-05-01T12:53:05Z</time></trkpt><trkpt lat="44.25989271510359" lon="15.535222985640962"><ele>8.333333333333334</ele><time>2026-05-01T12:53:06Z</time></trkpt><trkpt lat="44.2599854325094" lon="15.535437983774214"><ele>4.666666666666667</ele><time>2026-05-01T12:53:07Z</time></trkpt><trkpt lat="44.260110245061604" lon="15.535621704070316"><ele>1.0</ele><time>2026-05-01T12:53:08Z</time></trkpt><trkpt lat="44.26026120187" lon="15.535776581887665"><ele>1.0</ele><time>2026-05-01T12:53:09Z</time></trkpt><trkpt lat="44.260432791850114" lon="15.535895319602476"><ele>1.0</ele><time>2026-05-01T12:53:10Z</time></trkpt><trkpt lat="44.26061781991706" lon="15.536001095240758"><ele>1.0</ele><time>2026-05-01T12:53:11Z</time></trkpt><trkpt lat="44.2608021058255" lon="15.536105601451856"><ele>1.0</ele><time>2026-05-01T12:53:12Z</time></trkpt><trkpt lat="44.26096614760808" lon="15.5362111470334"><ele>1.0</ele><time>2026-05-01T12:53:13Z</time></trkpt><trkpt lat="44.26110999403423" lon="15.536322589471977"><ele>1.0</ele><time>2026-05-01T12:53:14Z</time></trkpt><trkpt lat="44.26122749636655" lon="15.53645690405484"><ele>1.0</ele><time>2026-05-01T12:53:15Z</time></trkpt><trkpt lat="44.26131684951531" lon="15.536620972931972"><ele>1.0</ele><time>2026-05-01T12:53:16Z</time></trkpt><trkpt lat="44.261372231522856" lon="15.536811008330195"><ele>1.0</ele><time>2026-05-01T12:53:17Z</time></trkpt><trkpt lat="44.26139551049543" lon="15.537015510262457"><ele>1.0</ele><time>2026-05-01T12:53:18Z</time></trkpt><trkpt lat="44.261377450524925" lon="15.537230358723075"><ele>1.3333333333333333</ele><time>2026-05-01T12:53:19Z</time></trkpt><trkpt lat="44.261319540130096" lon="15.537442632099385"><ele>1.6666666666666665</ele><time>2026-05-01T12:53:20Z</time></trkpt><trkpt lat="44.26122004378459" lon="15.537627290700335"><ele>2.0</ele><time>2026-05-01T12:53:21Z</time></trkpt><trkpt lat="44.26108717573613" lon="15.537768240876089"><ele>2.0</ele><time>2026-05-01T12:53:22Z</time></trkpt><trkpt lat="44.26093665415629" lon="15.537838236309724"><ele>2.0</ele><time>2026-05-01T12:53:23Z</time></trkpt><trkpt lat="44.260781401841925" lon="15.537859189595379"><ele>2.0</ele><time>2026-05-01T12:53:24Z</time></trkpt><trkpt lat="44.26062733164296" lon="15.537853474038098"><ele>1.6666666666666665</ele><time>2026-05-01T12:53:25Z</time></trkpt><trkpt lat="44.26047431295401" lon="15.537830399892446"><ele>1.3333333333333333</ele><time>2026-05-01T12:53:26Z</time></trkpt><trkpt lat="44.26031928380856" lon="15.537802476839328"><ele>1.0</ele><time>2026-05-01T12:53:27Z</time></trkpt><trkpt lat="44.260164984331276" lon="15.537759307806041"><ele>1.0</ele><time>2026-05-01T12:53:28Z</time></trkpt><trkpt lat="44.26000978642314" lon="15.537722957627043"><ele>1.0</ele><time>2026-05-01T12:53:29Z</time></trkpt><trkpt lat="44.259856883850425" lon="15.537709107087585"><ele>1.0</ele><time>2026-05-01T12:53:30Z</time></trkpt><trkpt lat="44.259708633890185" lon="15.537717899787113"><ele>0.75</ele><time>2026-05-01T12:53:31Z</time></trkpt><trkpt lat="44.259562763033365" lon="15.53775460419433"><ele>0.5</ele><time>2026-05-01T12:53:32Z</time></trkpt><trkpt lat="44.25942555638236" lon="15.537820834563547"><ele>0.25</ele><time>2026-05-01T12:53:33Z</time></trkpt><trkpt lat="44.259299144445656" lon="15.537916773362362"><ele>0.0</ele><time>2026-05-01T12:53:34Z</time></trkpt><trkpt lat="44.25917971514783" lon="15.53804974410184"><ele>-1.0</ele><time>2026-05-01T12:53:35Z</time></trkpt><trkpt lat="44.25907161396049" lon="15.538218477457114"><ele>-2.0</ele><time>2026-05-01T12:53:36Z</time></trkpt><trkpt lat="44.25897751640527" lon="15.538426657617284"><ele>-3.0</ele><time>2026-05-01T12:53:37Z</time></trkpt><trkpt lat="44.25890571058532" lon="15.538672742814926"><ele>-0.5</ele><time>2026-05-01T12:53:38Z</time></trkpt><trkpt lat="44.25885836648966" lon="15.538983238606862"><ele>2.0</ele><time>2026-05-01T12:53:39Z</time></trkpt><trkpt lat="44.25883919953654" lon="15.539308059443872"><ele>2.6666666666666665</ele><time>2026-05-01T12:53:40Z</time></trkpt><trkpt lat="44.25882602015061" lon="15.539607401514967"><ele>3.333333333333333</ele><time>2026-05-01T12:53:41Z</time></trkpt><trkpt lat="44.25879627013429" lon="15.53988346945602"><ele>4.0</ele><time>2026-05-01T12:53:42Z</time></trkpt><trkpt lat="44.25877900448108" lon="15.540141802880699"><ele>4.0</ele><time>2026-05-01T12:53:43Z</time></trkpt><trkpt lat="44.258790223935975" lon="15.540384839554873"><ele>4.0</ele><time>2026-05-01T12:53:44Z</time></trkpt><trkpt lat="44.25881623045783" lon="15.540619226554904"><ele>4.0</ele><time>2026-05-01T12:53:45Z</time></trkpt><trkpt lat="44.25884347852739" lon="15.54083809546459"><ele>4.0</ele><time>2026-05-01T12:53:46Z</time></trkpt><trkpt lat="44.258858482623204" lon="15.541047278888609"><ele>4.0</ele><time>2026-05-01T12:53:47Z</time></trkpt><trkpt lat="44.258853270210146" lon="15.541254534033643"><ele>4.0</ele><time>2026-05-01T12:53:48Z</time></trkpt><trkpt lat="44.25880853778205" lon="15.541444038991497"><ele>4.0</ele><time>2026-05-01T12:53:49Z</time></trkpt><trkpt lat="44.25872148865021" lon="15.541606473622055"><ele>3.75</ele><time>2026-05-01T12:53:50Z</time></trkpt><trkpt lat="44.25859990037401" lon="15.541717416604369"><ele>3.5</ele><time>2026-05-01T12:53:51Z</time></trkpt><trkpt lat="44.25845152640312" lon="15.541764124194682"><ele>3.25</ele><time>2026-05-01T12:53:52Z</time></trkpt><trkpt lat="44.25830166365927" lon="15.541735839520747"><ele>3.0</ele><time>2026-05-01T12:53:53Z</time></trkpt><trkpt lat="44.258170076353395" lon="15.541651315144966"><ele>8.25</ele><time>2026-05-01T12:53:54Z</time></trkpt><trkpt lat="44.25807122320677" lon="15.541511413566665"><ele>13.5</ele><time>2026-05-01T12:53:55Z</time></trkpt><trkpt lat="44.25800158662069" lon="15.541340774768976"><ele>18.75</ele><time>2026-05-01T12:53:56Z</time></trkpt><trkpt lat="44.25797064587052" lon="15.541155250516438"><ele>24.0</ele><time>2026-05-01T12:53:57Z</time></trkpt><trkpt lat="44.257976488628664" lon="15.540969176291828"><ele>25.0</ele><time>2026-05-01T12:53:58Z</time></trkpt><trkpt lat="44.2579842318496" lon="15.54077877030832"><ele>26.0</ele><time>2026-05-01T12:53:59Z</time></trkpt><trkpt lat="44.25799823322196" lon="15.540577993229444"><ele>27.0</ele><time>2026-05-01T12:54:00Z</time></trkpt><trkpt lat="44.258016029317226" lon="15.540361334084"><ele>28.0</ele><time>2026-05-01T12:54:01Z</time></trkpt><trkpt lat="44.2580191477547" lon="15.540101838535671"><ele>28.0</ele><time>2026-05-01T12:54:02Z</time></trkpt><trkpt lat="44.25799906668714" lon="15.539780718847862"><ele>28.0</ele><time>2026-05-01T12:54:03Z</time></trkpt><trkpt lat="44.25794871252826" lon="15.539431570164535"><ele>26.0</ele><time>2026-05-01T12:54:04Z</time></trkpt><trkpt lat="44.25790104452545" lon="15.5390662100406"><ele>24.0</ele><time>2026-05-01T12:54:05Z</time></trkpt><trkpt lat="44.25789196912277" lon="15.538704352434875"><ele>21.0</ele><time>2026-05-01T12:54:06Z</time></trkpt><trkpt lat="44.25789194745222" lon="15.538356433806118"><ele>18.0</ele><time>2026-05-01T12:54:07Z</time></trkpt><trkpt lat="44.257863927739365" lon="15.53800843465243"><ele>16.0</ele><time>2026-05-01T12:54:08Z</time></trkpt><trkpt lat="44.25782877532674" lon="15.537677017232214"><ele>14.0</ele><time>2026-05-01T12:54:09Z</time></trkpt><trkpt lat="44.25779912568154" lon="15.537360777972278"><ele>14.0</ele><time>2026-05-01T12:54:10Z</time></trkpt><trkpt lat="44.25776964605431" lon="15.537057496838283"><ele>14.0</ele><time>2026-05-01T12:54:11Z</time></trkpt><trkpt lat="44.2577309523087" lon="15.536768540532975"><ele>14.0</ele><time>2026-05-01T12:54:12Z</time></trkpt><trkpt lat="44.257659428687525" lon="15.536506414351196"><ele>14.0</ele><time>2026-05-01T12:54:13Z</time></trkpt><trkpt lat="44.25756185303049" lon="15.536246306638489"><ele>14.0</ele><time>2026-05-01T12:54:14Z</time></trkpt><trkpt lat="44.257423629619375" lon="15.536002806610501"><ele>14.0</ele><time>2026-05-01T12:54:15Z</time></trkpt><trkpt lat="44.25725192392796" lon="15.535780284377964"><ele>14.0</ele><time>2026-05-01T12:54:16Z</time></trkpt><trkpt lat="44.25705337576598" lon="15.53559591682041"><ele>14.0</ele><time>2026-05-01T12:54:17Z</time></trkpt><trkpt lat="44.25683565406968" lon="15.535455774578223"><ele>12.0</ele><time>2026-05-01T12:54:18Z</time></trkpt><trkpt lat="44.25660699677887" lon="15.535363248552482"><ele>10.0</ele><time>2026-05-01T12:54:19Z</time></trkpt><trkpt lat="44.25637615995211" lon="15.535327900875565"><ele>10.0</ele><time>2026-05-01T12:54:20Z</time></trkpt><trkpt lat="44.25615761626716" lon="15.535347599625908"><ele>10.0</ele><time>2026-05-01T12:54:21Z</time></trkpt><trkpt lat="44.25595120880027" lon="15.53540910371006"><ele>10.0</ele><time>2026-05-01T12:54:22Z</time></trkpt><trkpt lat="44.255760610617415" lon="15.535509702739356"><ele>11.0</ele><time>2026-05-01T12:54:23Z</time></trkpt><trkpt lat="44.25557921995414" lon="15.535627500556174"><ele>12.0</ele><time>2026-05-01T12:54:24Z</time></trkpt><trkpt lat="44.25540711456564" lon="15.53578035397562"><ele>13.0</ele><time>2026-05-01T12:54:25Z</time></trkpt><trkpt lat="44.25525762376523" lon="15.535970355520917"><ele>13.0</ele><time>2026-05-01T12:54:26Z</time></trkpt><trkpt lat="44.25511845692018" lon="15.536184944813247"><ele>13.0</ele><time>2026-05-01T12:54:27Z</time></trkpt><trkpt lat="44.25498383525745" lon="15.536402489058224"><ele>13.0</ele><time>2026-05-01T12:54:28Z</time></trkpt><trkpt lat="44.25484914125475" lon="15.536609507420902"><ele>13.333333333333332</ele><time>2026-05-01T12:54:29Z</time></trkpt><trkpt lat="44.25471356520134" lon="15.536805859691937"><ele>13.666666666666668</ele><time>2026-05-01T12:54:30Z</time></trkpt><trkpt lat="44.25458046106807" lon="15.536993096082613"><ele>14.0</ele><time>2026-05-01T12:54:31Z</time></trkpt><trkpt lat="44.25444855145142" lon="15.537180706508392"><ele>16.333333333333336</ele><time>2026-05-01T12:54:32Z</time></trkpt><trkpt lat="44.25431426057284" lon="15.537373423266093"><ele>18.666666666666668</ele><time>2026-05-01T12:54:33Z</time></trkpt><trkpt lat="44.254177759198654" lon="15.537573454048406"><ele>21.0</ele><time>2026-05-01T12:54:34Z</time></trkpt><trkpt lat="44.254037568607984" lon="15.537778606578298"><ele>21.666666666666668</ele><time>2026-05-01T12:54:35Z</time></trkpt><trkpt lat="44.25389052743089" lon="15.537988564288556"><ele>22.333333333333336</ele><time>2026-05-01T12:54:36Z</time></trkpt><trkpt lat="44.253734380555066" lon="15.53821045614161"><ele>23.0</ele><time>2026-05-01T12:54:37Z</time></trkpt><trkpt lat="44.25358254720233" lon="15.538432433197046"><ele>23.0</ele><time>2026-05-01T12:54:38Z</time></trkpt><trkpt lat="44.25342984953462" lon="15.538653678229236"><ele>23.0</ele><time>2026-05-01T12:54:39Z</time></trkpt><trkpt lat="44.253279224250115" lon="15.538876421388085"><ele>23.0</ele><time>2026-05-01T12:54:40Z</time></trkpt><trkpt lat="44.25312730988461" lon="15.539096695696246"><ele>22.666666666666668</ele><time>2026-05-01T12:54:41Z</time></trkpt><trkpt lat="44.25297927966636" lon="15.539316172935596"><ele>22.333333333333332</ele><time>2026-05-01T12:54:42Z</time></trkpt><trkpt lat="44.252829105697664" lon="15.539532536860902"><ele>22.0</ele><time>2026-05-01T12:54:43Z</time></trkpt><trkpt lat="44.25267035574724" lon="15.539745934049696"><ele>23.0</ele><time>2026-05-01T12:54:44Z</time></trkpt><trkpt lat="44.252512385294374" lon="15.539934369438859"><ele>24.0</ele><time>2026-05-01T12:54:45Z</time></trkpt><trkpt lat="44.25235041439702" lon="15.540095182038135"><ele>25.0</ele><time>2026-05-01T12:54:46Z</time></trkpt><trkpt lat="44.25217994465013" lon="15.54023376362548"><ele>25.0</ele><time>2026-05-01T12:54:47Z</time></trkpt><trkpt lat="44.25200234090786" lon="15.540353405184073"><ele>25.0</ele><time>2026-05-01T12:54:48Z</time></trkpt><trkpt lat="44.251810469369275" lon="15.54045793419622"><ele>25.0</ele><time>2026-05-01T12:54:49Z</time></trkpt><trkpt lat="44.25161221009725" lon="15.540544265086295"><ele>27.666666666666668</ele><time>2026-05-01T12:54:50Z</time></trkpt><trkpt lat="44.25141367548194" lon="15.540614563131125"><ele>30.333333333333336</ele><time>2026-05-01T12:54:51Z</time></trkpt><trkpt lat="44.251234512407784" lon="15.54067919142801"><ele>33.0</ele><time>2026-05-01T12:54:52Z</time></trkpt><trkpt lat="44.2510566965314" lon="15.540747446341019"><ele>33.0</ele><time>2026-05-01T12:54:53Z</time></trkpt><trkpt lat="44.25088168275793" lon="15.540812306128059"><ele>33.0</ele><time>2026-05-01T12:54:54Z</time></trkpt><trkpt lat="44.25070575744688" lon="15.54088188894094"><ele>33.0</ele><time>2026-05-01T12:54:55Z</time></trkpt><trkpt lat="44.250529503028034" lon="15.54095335864034"><ele>32.0</ele><time>2026-05-01T12:54:56Z</time></trkpt><trkpt lat="44.25035595353316" lon="15.541021586563796"><ele>31.0</ele><time>2026-05-01T12:54:57Z</time></trkpt><trkpt lat="44.25018201842891" lon="15.541104571461863"><ele>30.0</ele><time>2026-05-01T12:54:58Z</time></trkpt><trkpt lat="44.250005565464086" lon="15.541208828800709"><ele>32.0</ele><time>2026-05-01T12:54:59Z</time></trkpt><trkpt lat="44.24982609793931" lon="15.54133520707079"><ele>34.0</ele><time>2026-05-01T12:55:00Z</time></trkpt><trkpt lat="44.24963835279833" lon="15.541478857208192"><ele>36.0</ele><time>2026-05-01T12:55:01Z</time></trkpt><trkpt lat="44.24945074728793" lon="15.541642372594266"><ele>36.0</ele><time>2026-05-01T12:55:02Z</time></trkpt><trkpt lat="44.24926679739186" lon="15.541827393634625"><ele>36.0</ele><time>2026-05-01T12:55:03Z</time></trkpt><trkpt lat="44.24908241365951" lon="15.542029129752807"><ele>40.0</ele><time>2026-05-01T12:55:04Z</time></trkpt><trkpt lat="44.2488974501239" lon="15.54222925644548"><ele>44.0</ele><time>2026-05-01T12:55:05Z</time></trkpt><trkpt lat="44.24870777866239" lon="15.542415079069405"><ele>44.0</ele><time>2026-05-01T12:55:06Z</time></trkpt><trkpt lat="44.24851079341816" lon="15.542585854416865"><ele>44.0</ele><time>2026-05-01T12:55:07Z</time></trkpt><trkpt lat="44.248306205867785" lon="15.5427297161108"><ele>42.33333333333333</ele><time>2026-05-01T12:55:08Z</time></trkpt><trkpt lat="44.24809617636874" lon="15.542856126055879"><ele>40.666666666666664</ele><time>2026-05-01T12:55:09Z</time></trkpt><trkpt lat="44.24789889253545" lon="15.542958606668302"><ele>39.0</ele><time>2026-05-01T12:55:10Z</time></trkpt><trkpt lat="44.24770697048823" lon="15.543038020359338"><ele>43.66666666666667</ele><time>2026-05-01T12:55:11Z</time></trkpt><trkpt lat="44.24751992030035" lon="15.543100994262776"><ele>48.333333333333336</ele><time>2026-05-01T12:55:12Z</time></trkpt><trkpt lat="44.24733005928473" lon="15.54314870911769"><ele>53.0</ele><time>2026-05-01T12:55:13Z</time></trkpt><trkpt lat="44.2471397995913" lon="15.543181064705204"><ele>53.0</ele><time>2026-05-01T12:55:14Z</time></trkpt><trkpt lat="44.246946504797876" lon="15.543202363089437"><ele>53.0</ele><time>2026-05-01T12:55:15Z</time></trkpt><trkpt lat="44.246763345577506" lon="15.543216181046864"><ele>53.0</ele><time>2026-05-01T12:55:16Z</time></trkpt><trkpt lat="44.2465798988357" lon="15.543232408358604"><ele>54.0</ele><time>2026-05-01T12:55:17Z</time></trkpt><trkpt lat="44.24640269553088" lon="15.543252514078675"><ele>55.0</ele><time>2026-05-01T12:55:18Z</time></trkpt><trkpt lat="44.24622611324792" lon="15.543266660762182"><ele>56.0</ele><time>2026-05-01T12:55:19Z</time></trkpt><trkpt lat="44.246047640622635" lon="15.543281941183828"><ele>56.0</ele><time>2026-05-01T12:55:20Z</time></trkpt><trkpt lat="44.245869981032456" lon="15.543292545268445"><ele>56.0</ele><time>2026-05-01T12:55:21Z</time></trkpt><trkpt lat="44.245692107239805" lon="15.543308130988681"><ele>56.0</ele><time>2026-05-01T12:55:22Z</time></trkpt><trkpt lat="44.245517448475695" lon="15.543324269106721"><ele>56.66666666666667</ele><time>2026-05-01T12:55:23Z</time></trkpt><trkpt lat="44.245343738147625" lon="15.54334451181029"><ele>57.33333333333333</ele><time>2026-05-01T12:55:24Z</time></trkpt><trkpt lat="44.24516612966917" lon="15.543364416624796"><ele>58.0</ele><time>2026-05-01T12:55:25Z</time></trkpt><trkpt lat="44.24498367396967" lon="15.543384344620723"><ele>58.0</ele><time>2026-05-01T12:55:26Z</time></trkpt><trkpt lat="44.244799972204255" lon="15.543400584203052"><ele>58.0</ele><time>2026-05-01T12:55:27Z</time></trkpt><trkpt lat="44.244619949297366" lon="15.543397911568924"><ele>58.0</ele><time>2026-05-01T12:55:28Z</time></trkpt><trkpt lat="44.2444394092963" lon="15.543368355864114"><ele>59.33333333333333</ele><time>2026-05-01T12:55:29Z</time></trkpt><trkpt lat="44.24425838939957" lon="15.54330912805058"><ele>60.66666666666667</ele><time>2026-05-01T12:55:30Z</time></trkpt><trkpt lat="44.24408067866727" lon="15.543214300324765"><ele>62.0</ele><time>2026-05-01T12:55:31Z</time></trkpt><trkpt lat="44.243915863010336" lon="15.543073099858166"><ele>62.66666666666667</ele><time>2026-05-01T12:55:32Z</time></trkpt><trkpt lat="44.243766015773055" lon="15.542888329339288"><ele>63.33333333333333</ele><time>2026-05-01T12:55:33Z</time></trkpt><trkpt lat="44.24362469612592" lon="15.542689354386654"><ele>64.0</ele><time>2026-05-01T12:55:34Z</time></trkpt><trkpt lat="44.243495784686594" lon="15.542465886224727"><ele>62.33333333333333</ele><time>2026-05-01T12:55:35Z</time></trkpt><trkpt lat="44.24338629966845" lon="15.54221870377046"><ele>60.66666666666667</ele><time>2026-05-01T12:55:36Z</time></trkpt><trkpt lat="44.24326230396468" lon="15.541970122099825"><ele>59.0</ele><time>2026-05-01T12:55:37Z</time></trkpt><trkpt lat="44.24313002940053" lon="15.54172221743778"><ele>65.5</ele><time>2026-05-01T12:55:38Z</time></trkpt><trkpt lat="44.242989908490735" lon="15.541472459707329"><ele>72.0</ele><time>2026-05-01T12:55:39Z</time></trkpt><trkpt lat="44.24282215942695" lon="15.541261250666912"><ele>65.0</ele><time>2026-05-01T12:55:40Z</time></trkpt><trkpt lat="44.242634432009496" lon="15.541063746680171"><ele>58.0</ele><time>2026-05-01T12:55:41Z</time></trkpt><trkpt lat="44.242439843766064" lon="15.540870201964047"><ele>65.5</ele><time>2026-05-01T12:55:42Z</time></trkpt><trkpt lat="44.24224322659668" lon="15.540676755212623"><ele>73.0</ele><time>2026-05-01T12:55:43Z</time></trkpt><trkpt lat="44.242044527826366" lon="15.540481206694603"><ele>67.5</ele><time>2026-05-01T12:55:44Z</time></trkpt><trkpt lat="44.24184989826265" lon="15.540289528750046"><ele>62.0</ele><time>2026-05-01T12:55:45Z</time></trkpt><trkpt lat="44.24165756511979" lon="15.540091783645696"><ele>62.0</ele><time>2026-05-01T12:55:46Z</time></trkpt><trkpt lat="44.241471144346505" lon="15.539895217324231"><ele>62.0</ele><time>2026-05-01T12:55:47Z</time></trkpt><trkpt lat="44.24129809560254" lon="15.53970780867638"><ele>63.0</ele><time>2026-05-01T12:55:48Z</time></trkpt><trkpt lat="44.24114378354193" lon="15.539509149704255"><ele>64.0</ele><time>2026-05-01T12:55:49Z</time></trkpt><trkpt lat="44.24101718170448" lon="15.539288327369812"><ele>65.0</ele><time>2026-05-01T12:55:50Z</time></trkpt><trkpt lat="44.24091574671276" lon="15.5390547249186"><ele>65.0</ele><time>2026-05-01T12:55:51Z</time></trkpt><trkpt lat="44.240830581924286" lon="15.53880599030612"><ele>65.0</ele><time>2026-05-01T12:55:52Z</time></trkpt><trkpt lat="44.240768239710064" lon="15.538555104666754"><ele>65.0</ele><time>2026-05-01T12:55:53Z</time></trkpt><trkpt lat="44.24073021839554" lon="15.538291789600745"><ele>63.66666666666667</ele><time>2026-05-01T12:55:54Z</time></trkpt><trkpt lat="44.24070722330627" lon="15.538032383990902"><ele>62.33333333333333</ele><time>2026-05-01T12:55:55Z</time></trkpt><trkpt lat="44.24068527595788" lon="15.537776421079297"><ele>61.0</ele><time>2026-05-01T12:55:56Z</time></trkpt><trkpt lat="44.24066214528726" lon="15.537509294925627"><ele>60.0</ele><time>2026-05-01T12:55:57Z</time></trkpt><trkpt lat="44.24064368939132" lon="15.537245206637088"><ele>59.0</ele><time>2026-05-01T12:55:58Z</time></trkpt><trkpt lat="44.24062642602228" lon="15.53698880393756"><ele>58.0</ele><time>2026-05-01T12:55:59Z</time></trkpt><trkpt lat="44.240615236877915" lon="15.536736471888696"><ele>63.0</ele><time>2026-05-01T12:56:00Z</time></trkpt><trkpt lat="44.240608391273014" lon="15.53648637670228"><ele>68.0</ele><time>2026-05-01T12:56:01Z</time></trkpt><trkpt lat="44.2406005485751" lon="15.536245676747685"><ele>73.0</ele><time>2026-05-01T12:56:02Z</time></trkpt><trkpt lat="44.24059268072391" lon="15.53601810875447"><ele>73.0</ele><time>2026-05-01T12:56:03Z</time></trkpt><trkpt lat="44.24058651442698" lon="15.535789975609507"><ele>73.0</ele><time>2026-05-01T12:56:04Z</time></trkpt><trkpt lat="44.24058249776479" lon="15.535557650673598"><ele>73.0</ele><time>2026-05-01T12:56:05Z</time></trkpt><trkpt lat="44.24057277183408" lon="15.535327643171655"><ele>72.0</ele><time>2026-05-01T12:56:06Z</time></trkpt><trkpt lat="44.240560864866104" lon="15.535097992840539"><ele>71.0</ele><time>2026-05-01T12:56:07Z</time></trkpt><trkpt lat="44.24054226094839" lon="15.534874490740712"><ele>70.0</ele><time>2026-05-01T12:56:08Z</time></trkpt><trkpt lat="44.24051694112504" lon="15.53465323317078"><ele>68.66666666666666</ele><time>2026-05-01T12:56:09Z</time></trkpt><trkpt lat="44.240489714381496" lon="15.534434760228873"><ele>67.33333333333333</ele><time>2026-05-01T12:56:10Z</time></trkpt><trkpt lat="44.24045857054408" lon="15.534222104123097"><ele>66.0</ele><time>2026-05-01T12:56:11Z</time></trkpt><trkpt lat="44.2404251065542" lon="15.534018590151964"><ele>66.0</ele><time>2026-05-01T12:56:12Z</time></trkpt><trkpt lat="44.24039037155942" lon="15.533827740686258"><ele>66.0</ele><time>2026-05-01T12:56:13Z</time></trkpt><trkpt lat="44.24035792713014" lon="15.533647304703704"><ele>66.0</ele><time>2026-05-01T12:56:14Z</time></trkpt><trkpt lat="44.240333156833735" lon="15.533475671503625"><ele>66.0</ele><time>2026-05-01T12:56:15Z</time></trkpt><trkpt lat="44.24031708358855" lon="15.533321498301767"><ele>65.83333333333333</ele><time>2026-05-01T12:56:16Z</time></trkpt><trkpt lat="44.240308252124805" lon="15.533185003011004"><ele>65.66666666666667</ele><time>2026-05-01T12:56:17Z</time></trkpt><trkpt lat="44.24029857364636" lon="15.533057355769655"><ele>65.5</ele><time>2026-05-01T12:56:18Z</time></trkpt><trkpt lat="44.240283085862096" lon="15.532941759867164"><ele>65.33333333333334</ele><time>2026-05-01T12:56:19Z</time></trkpt><trkpt lat="44.2402656882589" lon="15.532845865557825"><ele>65.16666666666667</ele><time>2026-05-01T12:56:20Z</time></trkpt><trkpt lat="44.2402414104757" lon="15.532761800521907"><ele>65.0</ele><time>2026-05-01T12:56:21Z</time></trkpt><trkpt lat="44.24019877530079" lon="15.532617464342042"><ele>64.33333333333334</ele><time>2026-05-01T12:56:23Z</time></trkpt><trkpt lat="44.2401769926732" lon="15.53251343584291"><ele>63.66666666666667</ele><time>2026-05-01T12:56:25Z</time></trkpt><trkpt lat="44.240153426637335" lon="15.53241545287718"><ele>63.0</ele><time>2026-05-01T12:56:30Z</time></trkpt><trkpt lat="44.240158282324764" lon="15.532325782052938"><ele>62.33333333333333</ele><time>2026-05-01T12:57:07Z</time></trkpt><trkpt lat="44.24015283360853" lon="15.532230841481564"><ele>61.666666666666664</ele><time>2026-05-01T12:57:26Z</time></trkpt><trkpt lat="44.24013637586417" lon="15.532138664067666"><ele>61.0</ele><time>2026-05-01T12:57:28Z</time></trkpt><trkpt lat="44.24010064109358" lon="15.532010402055642"><ele>60.8</ele><time>2026-05-01T12:57:30Z</time></trkpt><trkpt lat="44.24007343135653" lon="15.531851356229241"><ele>60.599999999999994</ele><time>2026-05-01T12:57:32Z</time></trkpt><trkpt lat="44.24004594784767" lon="15.531677337116014"><ele>60.4</ele><time>2026-05-01T12:57:34Z</time></trkpt><trkpt lat="44.24003056853967" lon="15.531582467835415"><ele>60.2</ele><time>2026-05-01T12:57:35Z</time></trkpt><trkpt lat="44.24001259882458" lon="15.531493753256322"><ele>60.0</ele><time>2026-05-01T12:57:36Z</time></trkpt><trkpt lat="44.23998166902223" lon="15.531351024125945"><ele>60.0</ele><time>2026-05-01T12:57:38Z</time></trkpt><trkpt lat="44.23995962188598" lon="15.53126674522845"><ele>60.0</ele><time>2026-05-01T12:57:41Z</time></trkpt><trkpt lat="44.23991898974714" lon="15.531153323817948"><ele>60.0</ele><time>2026-05-01T12:59:28Z</time></trkpt><trkpt lat="44.23988313833296" lon="15.531038155569583"><ele>60.0</ele><time>2026-05-01T12:59:30Z</time></trkpt><trkpt lat="44.23984133465397" lon="15.530896173579587"><ele>60.0</ele><time>2026-05-01T12:59:32Z</time></trkpt><trkpt lat="44.239822738326716" lon="15.530792958692661"><ele>60.0</ele><time>2026-05-01T12:59:33Z</time></trkpt><trkpt lat="44.23980492751286" lon="15.530670048076027"><ele>62.0</ele><time>2026-05-01T12:59:34Z</time></trkpt><trkpt lat="44.23978657413257" lon="15.530538874465769"><ele>64.0</ele><time>2026-05-01T12:59:35Z</time></trkpt><trkpt lat="44.23976248845508" lon="15.530398831442596"><ele>66.0</ele><time>2026-05-01T12:59:36Z</time></trkpt><trkpt lat="44.239734715735906" lon="15.53024543190507"><ele>68.0</ele><time>2026-05-01T12:59:37Z</time></trkpt><trkpt lat="44.239702983628874" lon="15.530085328217414"><ele>70.0</ele><time>2026-05-01T12:59:38Z</time></trkpt><trkpt lat="44.23967202292496" lon="15.529930751581109"><ele>70.0</ele><time>2026-05-01T12:59:39Z</time></trkpt><trkpt lat="44.23961577615742" lon="15.529652962626695"><ele>70.0</ele><time>2026-05-01T12:59:41Z</time></trkpt><trkpt lat="44.23958180486146" lon="15.529518783171774"><ele>70.0</ele><time>2026-05-01T12:59:42Z</time></trkpt><trkpt lat="44.23954346858395" lon="15.529382179263472"><ele>70.0</ele><time>2026-05-01T12:59:43Z</time></trkpt><trkpt lat="44.239500877099246" lon="15.529250699452229"><ele>70.0</ele><time>2026-05-01T12:59:44Z</time></trkpt><trkpt lat="44.23944469377287" lon="15.529114746710658"><ele>70.0</ele><time>2026-05-01T12:59:45Z</time></trkpt><trkpt lat="44.239371119751105" lon="15.528983948335997"><ele>70.0</ele><time>2026-05-01T12:59:46Z</time></trkpt><trkpt lat="44.239282712444" lon="15.528850444518733"><ele>70.0</ele><time>2026-05-01T12:59:47Z</time></trkpt><trkpt lat="44.2391820205023" lon="15.528719380819998"><ele>70.25</ele><time>2026-05-01T12:59:48Z</time></trkpt><trkpt lat="44.239070090403395" lon="15.5285910274622"><ele>70.5</ele><time>2026-05-01T12:59:49Z</time></trkpt><trkpt lat="44.238952353037774" lon="15.528473730898282"><ele>70.75</ele><time>2026-05-01T12:59:50Z</time></trkpt><trkpt lat="44.238819909146116" lon="15.52836158895764"><ele>71.0</ele><time>2026-05-01T12:59:51Z</time></trkpt><trkpt lat="44.238675820009995" lon="15.5282452569199"><ele>73.33333333333334</ele><time>2026-05-01T12:59:52Z</time></trkpt><trkpt lat="44.23852449144953" lon="15.528125927062987"><ele>75.66666666666667</ele><time>2026-05-01T12:59:53Z</time></trkpt><trkpt lat="44.238374793004255" lon="15.527992781017323"><ele>78.0</ele><time>2026-05-01T12:59:54Z</time></trkpt><trkpt lat="44.238228073462544" lon="15.527830312425248"><ele>79.66666666666667</ele><time>2026-05-01T12:59:55Z</time></trkpt><trkpt lat="44.23810513955603" lon="15.527639537694041"><ele>81.33333333333334</ele><time>2026-05-01T12:59:56Z</time></trkpt><trkpt lat="44.238001145589486" lon="15.527419437530565"><ele>83.0</ele><time>2026-05-01T12:59:57Z</time></trkpt><trkpt lat="44.237912270930366" lon="15.527181040241668"><ele>82.66666666666667</ele><time>2026-05-01T12:59:58Z</time></trkpt><trkpt lat="44.237845587899955" lon="15.526916644117824"><ele>82.33333333333333</ele><time>2026-05-01T12:59:59Z</time></trkpt><trkpt lat="44.23778997371145" lon="15.526647238240946"><ele>82.0</ele><time>2026-05-01T13:00:00Z</time></trkpt><trkpt lat="44.23773120999223" lon="15.526383604484367"><ele>82.33333333333333</ele><time>2026-05-01T13:00:01Z</time></trkpt><trkpt lat="44.23766875914963" lon="15.526109278706842"><ele>82.66666666666667</ele><time>2026-05-01T13:00:02Z</time></trkpt><trkpt lat="44.237606174652285" lon="15.525830801408102"><ele>83.0</ele><time>2026-05-01T13:00:03Z</time></trkpt><trkpt lat="44.23754440116562" lon="15.525562161717492"><ele>82.33333333333334</ele><time>2026-05-01T13:00:04Z</time></trkpt><trkpt lat="44.23748544869253" lon="15.525303576632027"><ele>81.66666666666667</ele><time>2026-05-01T13:00:05Z</time></trkpt><trkpt lat="44.237428430809466" lon="15.525047677869411"><ele>81.0</ele><time>2026-05-01T13:00:06Z</time></trkpt><trkpt lat="44.23736947678468" lon="15.524789682029768"><ele>71.66666666666667</ele><time>2026-05-01T13:00:07Z</time></trkpt><trkpt lat="44.23730903946089" lon="15.52451845923045"><ele>62.333333333333336</ele><time>2026-05-01T13:00:08Z</time></trkpt><trkpt lat="44.237250500065244" lon="15.52424015181862"><ele>53.0</ele><time>2026-05-01T13:00:09Z</time></trkpt><trkpt lat="44.23719116124062" lon="15.523959374779064"><ele>37.66666666666667</ele><time>2026-05-01T13:00:10Z</time></trkpt><trkpt lat="44.237127444725495" lon="15.523676084450411"><ele>22.333333333333336</ele><time>2026-05-01T13:00:11Z</time></trkpt><trkpt lat="44.23706706722922" lon="15.523393201188826"><ele>7.0</ele><time>2026-05-01T13:00:12Z</time></trkpt><trkpt lat="44.23700799336857" lon="15.523111581743136"><ele>4.666666666666667</ele><time>2026-05-01T13:00:13Z</time></trkpt><trkpt lat="44.23694497643513" lon="15.52282896016036"><ele>2.3333333333333335</ele><time>2026-05-01T13:00:14Z</time></trkpt><trkpt lat="44.23688360516622" lon="15.522543641996657"><ele>0.0</ele><time>2026-05-01T13:00:15Z</time></trkpt><trkpt lat="44.23682410737826" lon="15.522260833758647"><ele>1.0</ele><time>2026-05-01T13:00:16Z</time></trkpt><trkpt lat="44.236762529364064" lon="15.521983374935454"><ele>2.0</ele><time>2026-05-01T13:00:17Z</time></trkpt><trkpt lat="44.23670329941654" lon="15.521710379662359"><ele>3.0</ele><time>2026-05-01T13:00:18Z</time></trkpt><trkpt lat="44.236643227163995" lon="15.521438443209433"><ele>16.0</ele><time>2026-05-01T13:00:19Z</time></trkpt><trkpt lat="44.23658425590028" lon="15.521160050681072"><ele>29.0</ele><time>2026-05-01T13:00:20Z</time></trkpt><trkpt lat="44.23652451099454" lon="15.520875286023264"><ele>42.0</ele><time>2026-05-01T13:00:21Z</time></trkpt><trkpt lat="44.23646387743864" lon="15.520587530084788"><ele>54.33333333333333</ele><time>2026-05-01T13:00:22Z</time></trkpt><trkpt lat="44.236404505397594" lon="15.520303065061933"><ele>66.66666666666666</ele><time>2026-05-01T13:00:23Z</time></trkpt><trkpt lat="44.236346204390635" lon="15.520025772805107"><ele>79.0</ele><time>2026-05-01T13:00:24Z</time></trkpt><trkpt lat="44.236287328310034" lon="15.519753142063626"><ele>82.66666666666666</ele><time>2026-05-01T13:00:25Z</time></trkpt><trkpt lat="44.23622644106817" lon="15.519477737537688"><ele>86.33333333333333</ele><time>2026-05-01T13:00:26Z</time></trkpt><trkpt lat="44.236163597519834" lon="15.519194648533558"><ele>90.0</ele><time>2026-05-01T13:00:27Z</time></trkpt><trkpt lat="44.236097354524915" lon="15.518907785370146"><ele>90.0</ele><time>2026-05-01T13:00:28Z</time></trkpt><trkpt lat="44.2360280500177" lon="15.518617962148904"><ele>90.0</ele><time>2026-05-01T13:00:29Z</time></trkpt><trkpt lat="44.23595624567712" lon="15.51833280850578"><ele>90.0</ele><time>2026-05-01T13:00:30Z</time></trkpt><trkpt lat="44.23587754421276" lon="15.518040400298807"><ele>88.5</ele><time>2026-05-01T13:00:31Z</time></trkpt><trkpt lat="44.235792703723874" lon="15.517746473457208"><ele>87.0</ele><time>2026-05-01T13:00:32Z</time></trkpt><trkpt lat="44.235700998934895" lon="15.517450798508346"><ele>89.0</ele><time>2026-05-01T13:00:33Z</time></trkpt><trkpt lat="44.23559655723971" lon="15.517138226933252"><ele>91.0</ele><time>2026-05-01T13:00:34Z</time></trkpt><trkpt lat="44.23547885456132" lon="15.516814210260346"><ele>91.0</ele><time>2026-05-01T13:00:35Z</time></trkpt><trkpt lat="44.23535022292816" lon="15.516482208305382"><ele>91.0</ele><time>2026-05-01T13:00:36Z</time></trkpt><trkpt lat="44.23521269820015" lon="15.516147492554996"><ele>91.5</ele><time>2026-05-01T13:00:37Z</time></trkpt><trkpt lat="44.235060997685764" lon="15.515818777132305"><ele>92.0</ele><time>2026-05-01T13:00:38Z</time></trkpt><trkpt lat="44.23490641935407" lon="15.515492512286329"><ele>91.5</ele><time>2026-05-01T13:00:39Z</time></trkpt><trkpt lat="44.23473967614759" lon="15.515174582877117"><ele>91.0</ele><time>2026-05-01T13:00:40Z</time></trkpt><trkpt lat="44.2345725083152" lon="15.514860557192389"><ele>91.0</ele><time>2026-05-01T13:00:41Z</time></trkpt><trkpt lat="44.23438906171835" lon="15.514546808864072"><ele>91.0</ele><time>2026-05-01T13:00:42Z</time></trkpt><trkpt lat="44.23418991798866" lon="15.514228705351615"><ele>91.0</ele><time>2026-05-01T13:00:43Z</time></trkpt><trkpt lat="44.23398576667689" lon="15.51391975779969"><ele>91.0</ele><time>2026-05-01T13:00:44Z</time></trkpt><trkpt lat="44.23377885475687" lon="15.51362679665571"><ele>88.5</ele><time>2026-05-01T13:00:45Z</time></trkpt><trkpt lat="44.23356630587042" lon="15.513348364821297"><ele>86.0</ele><time>2026-05-01T13:00:46Z</time></trkpt><trkpt lat="44.2333469136079" lon="15.513076447385007"><ele>86.5</ele><time>2026-05-01T13:00:47Z</time></trkpt><trkpt lat="44.23312457348808" lon="15.512819781019873"><ele>87.0</ele><time>2026-05-01T13:00:48Z</time></trkpt><trkpt lat="44.232898276302215" lon="15.512572830418035"><ele>87.0</ele><time>2026-05-01T13:00:49Z</time></trkpt><trkpt lat="44.23266541286816" lon="15.512334749661266"><ele>87.0</ele><time>2026-05-01T13:00:50Z</time></trkpt><trkpt lat="44.23242716332131" lon="15.512109057098233"><ele>91.0</ele><time>2026-05-01T13:00:51Z</time></trkpt><trkpt lat="44.23218461316651" lon="15.511897572217679"><ele>95.0</ele><time>2026-05-01T13:00:52Z</time></trkpt><trkpt lat="44.23193968404957" lon="15.511696418333488"><ele>95.0</ele><time>2026-05-01T13:00:53Z</time></trkpt><trkpt lat="44.231690294743906" lon="15.511505670302899"><ele>95.0</ele><time>2026-05-01T13:00:54Z</time></trkpt><trkpt lat="44.23143782227536" lon="15.511320376801313"><ele>98.0</ele><time>2026-05-01T13:00:55Z</time></trkpt><trkpt lat="44.231179196281175" lon="15.511143192241484"><ele>101.0</ele><time>2026-05-01T13:00:56Z</time></trkpt><trkpt lat="44.23091968568042" lon="15.510979531250195"><ele>101.0</ele><time>2026-05-01T13:00:57Z</time></trkpt><trkpt lat="44.23064829067391" lon="15.510829956758514"><ele>101.0</ele><time>2026-05-01T13:00:58Z</time></trkpt><trkpt lat="44.230365669791055" lon="15.510690961226983"><ele>102.5</ele><time>2026-05-01T13:00:59Z</time></trkpt><trkpt lat="44.23007228725163" lon="15.510565327547258"><ele>104.0</ele><time>2026-05-01T13:01:00Z</time></trkpt><trkpt lat="44.22977066459952" lon="15.51043903479492"><ele>107.5</ele><time>2026-05-01T13:01:01Z</time></trkpt><trkpt lat="44.22946143838062" lon="15.510317290801087"><ele>111.0</ele><time>2026-05-01T13:01:02Z</time></trkpt><trkpt lat="44.22915374825744" lon="15.51019577764453"><ele>109.0</ele><time>2026-05-01T13:01:03Z</time></trkpt><trkpt lat="44.22884951257083" lon="15.510071225859438"><ele>107.0</ele><time>2026-05-01T13:01:04Z</time></trkpt><trkpt lat="44.228550405238494" lon="15.509941607962455"><ele>107.0</ele><time>2026-05-01T13:01:05Z</time></trkpt><trkpt lat="44.2282558327349" lon="15.509805608604712"><ele>107.0</ele><time>2026-05-01T13:01:06Z</time></trkpt><trkpt lat="44.22796608135844" lon="15.509661989180604"><ele>108.0</ele><time>2026-05-01T13:01:07Z</time></trkpt><trkpt lat="44.22767883352019" lon="15.509510283074148"><ele>109.0</ele><time>2026-05-01T13:01:08Z</time></trkpt><trkpt lat="44.22739778108173" lon="15.509355707153926"><ele>107.0</ele><time>2026-05-01T13:01:09Z</time></trkpt><trkpt lat="44.22711981709124" lon="15.509192244262412"><ele>105.0</ele><time>2026-05-01T13:01:10Z</time></trkpt><trkpt lat="44.22684292090871" lon="15.509018789320603"><ele>105.0</ele><time>2026-05-01T13:01:11Z</time></trkpt><trkpt lat="44.22657164822043" lon="15.508833238124824"><ele>105.0</ele><time>2026-05-01T13:01:12Z</time></trkpt><trkpt lat="44.22630661609864" lon="15.50863455968947"><ele>106.0</ele><time>2026-05-01T13:01:13Z</time></trkpt><trkpt lat="44.22604488218605" lon="15.508427442319569"><ele>107.0</ele><time>2026-05-01T13:01:14Z</time></trkpt><trkpt lat="44.22578888274122" lon="15.508213167209975"><ele>105.5</ele><time>2026-05-01T13:01:15Z</time></trkpt><trkpt lat="44.22553709502758" lon="15.50798805205894"><ele>104.0</ele><time>2026-05-01T13:01:16Z</time></trkpt><trkpt lat="44.22529130275992" lon="15.50775089074724"><ele>104.0</ele><time>2026-05-01T13:01:17Z</time></trkpt><trkpt lat="44.22504890182312" lon="15.507505095413634"><ele>104.0</ele><time>2026-05-01T13:01:18Z</time></trkpt><trkpt lat="44.22481414831548" lon="15.507250914496373"><ele>101.5</ele><time>2026-05-01T13:01:19Z</time></trkpt><trkpt lat="44.22458145717302" lon="15.506982211710012"><ele>99.0</ele><time>2026-05-01T13:01:20Z</time></trkpt><trkpt lat="44.22435385791176" lon="15.506706069191713"><ele>99.0</ele><time>2026-05-01T13:01:21Z</time></trkpt><trkpt lat="44.22412606493644" lon="15.506421283056493"><ele>99.0</ele><time>2026-05-01T13:01:22Z</time></trkpt><trkpt lat="44.223905792307995" lon="15.506126715628895"><ele>96.5</ele><time>2026-05-01T13:01:23Z</time></trkpt><trkpt lat="44.22369163618754" lon="15.505822915603419"><ele>94.0</ele><time>2026-05-01T13:01:24Z</time></trkpt><trkpt lat="44.223485420438415" lon="15.50551006367388"><ele>95.0</ele><time>2026-05-01T13:01:25Z</time></trkpt><trkpt lat="44.22328057033888" lon="15.505183226366038"><ele>96.0</ele><time>2026-05-01T13:01:26Z</time></trkpt><trkpt lat="44.22308281622209" lon="15.504851864910908"><ele>93.5</ele><time>2026-05-01T13:01:27Z</time></trkpt><trkpt lat="44.22289293445494" lon="15.504512900918707"><ele>91.0</ele><time>2026-05-01T13:01:28Z</time></trkpt><trkpt lat="44.222706364395904" lon="15.504168859660062"><ele>91.0</ele><time>2026-05-01T13:01:29Z</time></trkpt><trkpt lat="44.22252129266501" lon="15.503817846684404"><ele>91.0</ele><time>2026-05-01T13:01:30Z</time></trkpt><trkpt lat="44.222337180585384" lon="15.503466894115899"><ele>92.0</ele><time>2026-05-01T13:01:31Z</time></trkpt><trkpt lat="44.222153793149104" lon="15.50311863427347"><ele>93.0</ele><time>2026-05-01T13:01:32Z</time></trkpt><trkpt lat="44.22196719299354" lon="15.502776042919763"><ele>93.0</ele><time>2026-05-01T13:01:33Z</time></trkpt><trkpt lat="44.221772504524154" lon="15.502435116569238"><ele>93.0</ele><time>2026-05-01T13:01:34Z</time></trkpt><trkpt lat="44.22157546669066" lon="15.502102389926856"><ele>92.0</ele><time>2026-05-01T13:01:35Z</time></trkpt><trkpt lat="44.22137861280298" lon="15.50177476603029"><ele>91.0</ele><time>2026-05-01T13:01:36Z</time></trkpt><trkpt lat="44.22118058222551" lon="15.501447573817211"><ele>92.0</ele><time>2026-05-01T13:01:37Z</time></trkpt><trkpt lat="44.220979145373974" lon="15.501126133918271"><ele>93.0</ele><time>2026-05-01T13:01:38Z</time></trkpt><trkpt lat="44.22077771649223" lon="15.500813596768545"><ele>93.5</ele><time>2026-05-01T13:01:39Z</time></trkpt><trkpt lat="44.22057431683483" lon="15.500503359572441"><ele>94.0</ele><time>2026-05-01T13:01:40Z</time></trkpt><trkpt lat="44.22036855668534" lon="15.50019737332788"><ele>94.0</ele><time>2026-05-01T13:01:41Z</time></trkpt><trkpt lat="44.2201642583081" lon="15.499886416910938"><ele>94.0</ele><time>2026-05-01T13:01:42Z</time></trkpt><trkpt lat="44.21996028137833" lon="15.499568249315319"><ele>94.5</ele><time>2026-05-01T13:01:43Z</time></trkpt><trkpt lat="44.21975981203747" lon="15.499246947919781"><ele>95.0</ele><time>2026-05-01T13:01:44Z</time></trkpt><trkpt lat="44.219563007997024" lon="15.498924504872209"><ele>98.0</ele><time>2026-05-01T13:01:45Z</time></trkpt><trkpt lat="44.21937152605932" lon="15.49859913100741"><ele>101.0</ele><time>2026-05-01T13:01:46Z</time></trkpt><trkpt lat="44.2191863901261" lon="15.498267965716497"><ele>101.0</ele><time>2026-05-01T13:01:47Z</time></trkpt><trkpt lat="44.21901185370966" lon="15.497928100202069"><ele>101.0</ele><time>2026-05-01T13:01:48Z</time></trkpt><trkpt lat="44.21884657697752" lon="15.497576051833272"><ele>101.5</ele><time>2026-05-01T13:01:49Z</time></trkpt><trkpt lat="44.21869095137196" lon="15.497216944953307"><ele>102.0</ele><time>2026-05-01T13:01:50Z</time></trkpt><trkpt lat="44.21854432101612" lon="15.496853042696786"><ele>103.5</ele><time>2026-05-01T13:01:51Z</time></trkpt><trkpt lat="44.21840341169453" lon="15.496474720982786"><ele>105.0</ele><time>2026-05-01T13:01:52Z</time></trkpt><trkpt lat="44.218272200074644" lon="15.496092569239098"><ele>105.0</ele><time>2026-05-01T13:01:53Z</time></trkpt><trkpt lat="44.21814581876301" lon="15.495701058044128"><ele>105.0</ele><time>2026-05-01T13:01:54Z</time></trkpt><trkpt lat="44.21802583658694" lon="15.495300115343353"><ele>106.5</ele><time>2026-05-01T13:01:55Z</time></trkpt><trkpt lat="44.21791054936412" lon="15.494888045943222"><ele>108.0</ele><time>2026-05-01T13:01:56Z</time></trkpt><trkpt lat="44.21780208189367" lon="15.49446900215549"><ele>108.5</ele><time>2026-05-01T13:01:57Z</time></trkpt><trkpt lat="44.21769919846348" lon="15.494048579717136"><ele>109.0</ele><time>2026-05-01T13:01:58Z</time></trkpt><trkpt lat="44.217604796731784" lon="15.493625205348254"><ele>109.0</ele><time>2026-05-01T13:01:59Z</time></trkpt><trkpt lat="44.21751604342642" lon="15.493201439222997"><ele>109.0</ele><time>2026-05-01T13:02:00Z</time></trkpt><trkpt lat="44.21743470452483" lon="15.492777517599059"><ele>109.5</ele><time>2026-05-01T13:02:01Z</time></trkpt><trkpt lat="44.21735737756023" lon="15.492348890346761"><ele>110.0</ele><time>2026-05-01T13:02:02Z</time></trkpt><trkpt lat="44.21728647443953" lon="15.491922146334568"><ele>104.0</ele><time>2026-05-01T13:02:03Z</time></trkpt><trkpt lat="44.217219846463735" lon="15.491490278096924"><ele>98.0</ele><time>2026-05-01T13:02:04Z</time></trkpt><trkpt lat="44.21716074711779" lon="15.491065256178773"><ele>98.0</ele><time>2026-05-01T13:02:05Z</time></trkpt><trkpt lat="44.21710564076373" lon="15.490638701909957"><ele>98.0</ele><time>2026-05-01T13:02:06Z</time></trkpt><trkpt lat="44.21705707651851" lon="15.490211764270953"><ele>97.0</ele><time>2026-05-01T13:02:07Z</time></trkpt><trkpt lat="44.21701171713288" lon="15.489781942951952"><ele>96.0</ele><time>2026-05-01T13:02:08Z</time></trkpt><trkpt lat="44.216968749654065" lon="15.489340741256186"><ele>96.0</ele><time>2026-05-01T13:02:09Z</time></trkpt><trkpt lat="44.21692836241137" lon="15.48887235289242"><ele>96.0</ele><time>2026-05-01T13:02:10Z</time></trkpt><trkpt lat="44.2168932584113" lon="15.488388302875581"><ele>95.0</ele><time>2026-05-01T13:02:11Z</time></trkpt><trkpt lat="44.21686803672602" lon="15.487906529186965"><ele>94.0</ele><time>2026-05-01T13:02:12Z</time></trkpt><trkpt lat="44.21685305864385" lon="15.487435903056857"><ele>92.0</ele><time>2026-05-01T13:02:13Z</time></trkpt><trkpt lat="44.21684490446324" lon="15.48697637257287"><ele>90.0</ele><time>2026-05-01T13:02:14Z</time></trkpt><trkpt lat="44.21684330075885" lon="15.486523504435128"><ele>89.5</ele><time>2026-05-01T13:02:15Z</time></trkpt><trkpt lat="44.21685062557172" lon="15.486073745745541"><ele>89.0</ele><time>2026-05-01T13:02:16Z</time></trkpt><trkpt lat="44.21686189375746" lon="15.48562239562321"><ele>88.0</ele><time>2026-05-01T13:02:17Z</time></trkpt><trkpt lat="44.21687331421992" lon="15.485172382388825"><ele>87.0</ele><time>2026-05-01T13:02:18Z</time></trkpt><trkpt lat="44.21689071337736" lon="15.484731964173468"><ele>85.0</ele><time>2026-05-01T13:02:19Z</time></trkpt><trkpt lat="44.216910866562664" lon="15.484289056291626"><ele>83.0</ele><time>2026-05-01T13:02:20Z</time></trkpt><trkpt lat="44.21693591202167" lon="15.483848436873972"><ele>81.5</ele><time>2026-05-01T13:02:21Z</time></trkpt><trkpt lat="44.21696932681132" lon="15.483412947735765"><ele>80.0</ele><time>2026-05-01T13:02:22Z</time></trkpt><trkpt lat="44.217011285694284" lon="15.482986825610487"><ele>78.0</ele><time>2026-05-01T13:02:23Z</time></trkpt><trkpt lat="44.21705535783399" lon="15.482571176891241"><ele>76.0</ele><time>2026-05-01T13:02:24Z</time></trkpt><trkpt lat="44.217104419460036" lon="15.482142798391157"><ele>73.0</ele><time>2026-05-01T13:02:25Z</time></trkpt><trkpt lat="44.21715732294086" lon="15.481706473909355"><ele>70.0</ele><time>2026-05-01T13:02:26Z</time></trkpt><trkpt lat="44.21721399637349" lon="15.48126552418539"><ele>69.5</ele><time>2026-05-01T13:02:27Z</time></trkpt><trkpt lat="44.21727440215412" lon="15.480829099691805"><ele>69.0</ele><time>2026-05-01T13:02:28Z</time></trkpt><trkpt lat="44.21734386481794" lon="15.480389802800048"><ele>69.0</ele><time>2026-05-01T13:02:29Z</time></trkpt><trkpt lat="44.21742068973294" lon="15.479949509712789"><ele>69.0</ele><time>2026-05-01T13:02:30Z</time></trkpt><trkpt lat="44.21751129997965" lon="15.47951011307971"><ele>68.0</ele><time>2026-05-01T13:02:31Z</time></trkpt><trkpt lat="44.21760760805826" lon="15.479072022042976"><ele>67.0</ele><time>2026-05-01T13:02:32Z</time></trkpt><trkpt lat="44.217707040000484" lon="15.478643194843459"><ele>65.0</ele><time>2026-05-01T13:02:33Z</time></trkpt><trkpt lat="44.21780842713415" lon="15.478222992246906"><ele>63.0</ele><time>2026-05-01T13:02:34Z</time></trkpt><trkpt lat="44.21791429797026" lon="15.477802805340982"><ele>60.5</ele><time>2026-05-01T13:02:35Z</time></trkpt><trkpt lat="44.21802405386863" lon="15.477389820569286"><ele>58.0</ele><time>2026-05-01T13:02:36Z</time></trkpt><trkpt lat="44.218141514962916" lon="15.476981303649607"><ele>60.5</ele><time>2026-05-01T13:02:37Z</time></trkpt><trkpt lat="44.21826029796767" lon="15.476577821227641"><ele>63.0</ele><time>2026-05-01T13:02:38Z</time></trkpt><trkpt lat="44.21838160430109" lon="15.476175925972084"><ele>63.0</ele><time>2026-05-01T13:02:39Z</time></trkpt><trkpt lat="44.21850884641683" lon="15.47577571217712"><ele>63.0</ele><time>2026-05-01T13:02:40Z</time></trkpt><trkpt lat="44.21863448361242" lon="15.47537742318357"><ele>60.5</ele><time>2026-05-01T13:02:41Z</time></trkpt><trkpt lat="44.2187537367794" lon="15.474979285245531"><ele>58.0</ele><time>2026-05-01T13:02:42Z</time></trkpt><trkpt lat="44.21886729128686" lon="15.474581860810721"><ele>60.0</ele><time>2026-05-01T13:02:43Z</time></trkpt><trkpt lat="44.21897547873538" lon="15.474183777449957"><ele>62.0</ele><time>2026-05-01T13:02:44Z</time></trkpt><trkpt lat="44.219076852812464" lon="15.4737843216031"><ele>61.5</ele><time>2026-05-01T13:02:45Z</time></trkpt><trkpt lat="44.21917393823795" lon="15.473379412166953"><ele>61.0</ele><time>2026-05-01T13:02:46Z</time></trkpt><trkpt lat="44.21926339024569" lon="15.47297353664859"><ele>61.5</ele><time>2026-05-01T13:02:47Z</time></trkpt><trkpt lat="44.21934664687952" lon="15.472568984405136"><ele>62.0</ele><time>2026-05-01T13:02:48Z</time></trkpt><trkpt lat="44.219427076300015" lon="15.472161365437032"><ele>62.5</ele><time>2026-05-01T13:02:49Z</time></trkpt><trkpt lat="44.21950396714079" lon="15.471754416990848"><ele>63.0</ele><time>2026-05-01T13:02:50Z</time></trkpt><trkpt lat="44.219575596910516" lon="15.471340685943257"><ele>63.5</ele><time>2026-05-01T13:02:51Z</time></trkpt><trkpt lat="44.219642562410776" lon="15.470924457672758"><ele>64.0</ele><time>2026-05-01T13:02:52Z</time></trkpt><trkpt lat="44.21970272912338" lon="15.470509212359712"><ele>63.0</ele><time>2026-05-01T13:02:53Z</time></trkpt><trkpt lat="44.219759308178325" lon="15.470097724756787"><ele>62.0</ele><time>2026-05-01T13:02:54Z</time></trkpt><trkpt lat="44.21981085972207" lon="15.469682812040329"><ele>66.0</ele><time>2026-05-01T13:02:55Z</time></trkpt><trkpt lat="44.21985058232047" lon="15.469261080629014"><ele>70.0</ele><time>2026-05-01T13:02:56Z</time></trkpt><trkpt lat="44.21988328932895" lon="15.468847600706516"><ele>69.0</ele><time>2026-05-01T13:02:57Z</time></trkpt><trkpt lat="44.21990871760391" lon="15.468444224371218"><ele>68.0</ele><time>2026-05-01T13:02:58Z</time></trkpt><trkpt lat="44.21992897794212" lon="15.468037210597194"><ele>68.5</ele><time>2026-05-01T13:02:59Z</time></trkpt><trkpt lat="44.219945786306326" lon="15.467632705448878"><ele>69.0</ele><time>2026-05-01T13:03:00Z</time></trkpt><trkpt lat="44.21995940364967" lon="15.467227887536431"><ele>67.0</ele><time>2026-05-01T13:03:01Z</time></trkpt><trkpt lat="44.21996812514051" lon="15.466821672532458"><ele>65.0</ele><time>2026-05-01T13:03:02Z</time></trkpt><trkpt lat="44.219969727422246" lon="15.466419037892788"><ele>62.5</ele><time>2026-05-01T13:03:03Z</time></trkpt><trkpt lat="44.21996886032914" lon="15.466012943382061"><ele>60.0</ele><time>2026-05-01T13:03:04Z</time></trkpt><trkpt lat="44.21995716640082" lon="15.465608475934937"><ele>59.5</ele><time>2026-05-01T13:03:05Z</time></trkpt><trkpt lat="44.21994004723867" lon="15.465199269875555"><ele>59.0</ele><time>2026-05-01T13:03:06Z</time></trkpt><trkpt lat="44.21991849625564" lon="15.464785123273211"><ele>59.0</ele><time>2026-05-01T13:03:07Z</time></trkpt><trkpt lat="44.21988797527478" lon="15.46437018096292"><ele>59.0</ele><time>2026-05-01T13:03:08Z</time></trkpt><trkpt lat="44.219851864623685" lon="15.463950567256623"><ele>51.5</ele><time>2026-05-01T13:03:09Z</time></trkpt><trkpt lat="44.21980609293198" lon="15.463528082417922"><ele>44.0</ele><time>2026-05-01T13:03:10Z</time></trkpt><trkpt lat="44.21975265155268" lon="15.463105237849716"><ele>44.0</ele><time>2026-05-01T13:03:11Z</time></trkpt><trkpt lat="44.21969468405096" lon="15.462687154741765"><ele>44.0</ele><time>2026-05-01T13:03:12Z</time></trkpt><trkpt lat="44.21963511812505" lon="15.4622762966467"><ele>43.5</ele><time>2026-05-01T13:03:13Z</time></trkpt><trkpt lat="44.21957007618737" lon="15.46187328669055"><ele>43.0</ele><time>2026-05-01T13:03:14Z</time></trkpt><trkpt lat="44.21950231932821" lon="15.461480624396621"><ele>41.5</ele><time>2026-05-01T13:03:15Z</time></trkpt><trkpt lat="44.21943151988505" lon="15.461089745775983"><ele>40.0</ele><time>2026-05-01T13:03:16Z</time></trkpt><trkpt lat="44.21935363756956" lon="15.46067499999098"><ele>39.0</ele><time>2026-05-01T13:03:17Z</time></trkpt><trkpt lat="44.21926895223538" lon="15.46024878976012"><ele>38.0</ele><time>2026-05-01T13:03:18Z</time></trkpt><trkpt lat="44.21918328647486" lon="15.459825935973813"><ele>37.0</ele><time>2026-05-01T13:03:19Z</time></trkpt><trkpt lat="44.21909235252796" lon="15.459422071476988"><ele>36.0</ele><time>2026-05-01T13:03:20Z</time></trkpt><trkpt lat="44.21899843759001" lon="15.459041481883952"><ele>33.0</ele><time>2026-05-01T13:03:21Z</time></trkpt><trkpt lat="44.218905080376125" lon="15.45867801055513"><ele>30.0</ele><time>2026-05-01T13:03:22Z</time></trkpt><trkpt lat="44.218809691355325" lon="15.458313866235251"><ele>30.0</ele><time>2026-05-01T13:03:23Z</time></trkpt><trkpt lat="44.218713036883734" lon="15.457968182696835"><ele>30.0</ele><time>2026-05-01T13:03:24Z</time></trkpt><trkpt lat="44.21861476232113" lon="15.457633910035245"><ele>31.5</ele><time>2026-05-01T13:03:25Z</time></trkpt><trkpt lat="44.21851233681374" lon="15.457305770941018"><ele>33.0</ele><time>2026-05-01T13:03:26Z</time></trkpt><trkpt lat="44.21840859275861" lon="15.456984871246654"><ele>33.5</ele><time>2026-05-01T13:03:27Z</time></trkpt><trkpt lat="44.21830257859381" lon="15.456663796345296"><ele>34.0</ele><time>2026-05-01T13:03:28Z</time></trkpt><trkpt lat="44.218191039435126" lon="15.45635090999123"><ele>31.0</ele><time>2026-05-01T13:03:29Z</time></trkpt><trkpt lat="44.21807681817489" lon="15.45604437280987"><ele>28.0</ele><time>2026-05-01T13:03:30Z</time></trkpt><trkpt lat="44.217962775565525" lon="15.455754841249668"><ele>28.0</ele><time>2026-05-01T13:03:31Z</time></trkpt><trkpt lat="44.2178500487267" lon="15.455476316442077"><ele>28.0</ele><time>2026-05-01T13:03:32Z</time></trkpt><trkpt lat="44.21773777573035" lon="15.455214085154246"><ele>28.0</ele><time>2026-05-01T13:03:33Z</time></trkpt><trkpt lat="44.217629556470705" lon="15.454965597899582"><ele>28.333333333333336</ele><time>2026-05-01T13:03:34Z</time></trkpt><trkpt lat="44.217532210347265" lon="15.454729083175403"><ele>28.666666666666664</ele><time>2026-05-01T13:03:35Z</time></trkpt><trkpt lat="44.21745546826396" lon="15.4545142778597"><ele>29.0</ele><time>2026-05-01T13:03:36Z</time></trkpt><trkpt lat="44.21740476070032" lon="15.454326361223963"><ele>29.5</ele><time>2026-05-01T13:03:37Z</time></trkpt><trkpt lat="44.21738300361991" lon="15.454148578973504"><ele>30.0</ele><time>2026-05-01T13:03:38Z</time></trkpt><trkpt lat="44.21738508195038" lon="15.453971196043414"><ele>30.5</ele><time>2026-05-01T13:03:39Z</time></trkpt><trkpt lat="44.21741678962923" lon="15.453806080068599"><ele>31.0</ele><time>2026-05-01T13:03:40Z</time></trkpt><trkpt lat="44.217473891834274" lon="15.453653762864956"><ele>31.0</ele><time>2026-05-01T13:03:41Z</time></trkpt><trkpt lat="44.21755357608833" lon="15.453524234306046"><ele>31.0</ele><time>2026-05-01T13:03:42Z</time></trkpt><trkpt lat="44.21765591928483" lon="15.453425055298917"><ele>31.0</ele><time>2026-05-01T13:03:43Z</time></trkpt><trkpt lat="44.217779640304656" lon="15.453367002849951"><ele>31.0</ele><time>2026-05-01T13:03:44Z</time></trkpt><trkpt lat="44.21791418814139" lon="15.453363978834668"><ele>31.0</ele><time>2026-05-01T13:03:45Z</time></trkpt><trkpt lat="44.218044507818206" lon="15.45341126927013"><ele>31.0</ele><time>2026-05-01T13:03:46Z</time></trkpt><trkpt lat="44.21815729321117" lon="15.453500167998698"><ele>31.0</ele><time>2026-05-01T13:03:47Z</time></trkpt><trkpt lat="44.21825176472517" lon="15.453624787003788"><ele>31.0</ele><time>2026-05-01T13:03:48Z</time></trkpt><trkpt lat="44.21832117975757" lon="15.453778989208397"><ele>32.5</ele><time>2026-05-01T13:03:49Z</time></trkpt><trkpt lat="44.21836338488063" lon="15.453946855719279"><ele>34.0</ele><time>2026-05-01T13:03:50Z</time></trkpt><trkpt lat="44.21839550925371" lon="15.454126834157844"><ele>35.5</ele><time>2026-05-01T13:03:51Z</time></trkpt><trkpt lat="44.218420857563316" lon="15.454302450020995"><ele>37.0</ele><time>2026-05-01T13:03:52Z</time></trkpt><trkpt lat="44.21844362854753" lon="15.45447791204158"><ele>36.800000000000004</ele><time>2026-05-01T13:03:53Z</time></trkpt><trkpt lat="44.21846479950009" lon="15.454651947788715"><ele>36.6</ele><time>2026-05-01T13:03:54Z</time></trkpt><trkpt lat="44.21848085040251" lon="15.454814490333531"><ele>36.400000000000006</ele><time>2026-05-01T13:03:55Z</time></trkpt><trkpt lat="44.21848659590686" lon="15.454956006006952"><ele>36.2</ele><time>2026-05-01T13:03:56Z</time></trkpt><trkpt lat="44.21849093651666" lon="15.455083922487997"><ele>36.0</ele><time>2026-05-01T13:03:57Z</time></trkpt><trkpt lat="44.2184969862835" lon="15.455200301703059"><ele>36.0</ele><time>2026-05-01T13:03:58Z</time></trkpt><trkpt lat="44.21850694759212" lon="15.455305164429038"><ele>36.0</ele><time>2026-05-01T13:03:59Z</time></trkpt><trkpt lat="44.21852001683191" lon="15.455399660251603"><ele>36.0</ele><time>2026-05-01T13:04:00Z</time></trkpt><trkpt lat="44.21854307059241" lon="15.455556356147301"><ele>36.0</ele><time>2026-05-01T13:04:02Z</time></trkpt><trkpt lat="44.21855631190707" lon="15.455663709032347"><ele>36.0</ele><time>2026-05-01T13:04:04Z</time></trkpt><trkpt lat="44.21854666366164" lon="15.455759402800531"><ele>36.0</ele><time>2026-05-01T13:04:51Z</time></trkpt><trkpt lat="44.21857371791516" lon="15.455861569683957"><ele>35.5</ele><time>2026-05-01T13:04:53Z</time></trkpt><trkpt lat="44.218583344055595" lon="15.456022790501441"><ele>35.0</ele><time>2026-05-01T13:04:55Z</time></trkpt><trkpt lat="44.2185953797386" lon="15.456177830276834"><ele>34.5</ele><time>2026-05-01T13:04:57Z</time></trkpt><trkpt lat="44.21860622571135" lon="15.45635047259642"><ele>34.0</ele><time>2026-05-01T13:04:59Z</time></trkpt><trkpt lat="44.218634146018374" lon="15.456520799655387"><ele>33.99999999999999</ele><time>2026-05-01T13:05:01Z</time></trkpt><trkpt lat="44.21865368573124" lon="15.456604841737482"><ele>34.0</ele><time>2026-05-01T13:05:02Z</time></trkpt><trkpt lat="44.21867070305668" lon="15.456692073020365"><ele>34.0</ele><time>2026-05-01T13:05:03Z</time></trkpt><trkpt lat="44.21868296202951" lon="15.456782897948393"><ele>34.0</ele><time>2026-05-01T13:05:04Z</time></trkpt><trkpt lat="44.218694312516135" lon="15.456882605143019"><ele>34.0</ele><time>2026-05-01T13:05:05Z</time></trkpt><trkpt lat="44.21870611122087" lon="15.456995787816085"><ele>33.99999999999999</ele><time>2026-05-01T13:05:06Z</time></trkpt><trkpt lat="44.21872199773575" lon="15.457125812890842"><ele>34.0</ele><time>2026-05-01T13:05:07Z</time></trkpt><trkpt lat="44.21874122116611" lon="15.45726921082052"><ele>33.8</ele><time>2026-05-01T13:05:08Z</time></trkpt><trkpt lat="44.2187652359434" lon="15.457412980326191"><ele>33.599999999999994</ele><time>2026-05-01T13:05:09Z</time></trkpt><trkpt lat="44.21879648629266" lon="15.457563496337087"><ele>33.4</ele><time>2026-05-01T13:05:10Z</time></trkpt><trkpt lat="44.21883517770363" lon="15.457704641988832"><ele>33.199999999999996</ele><time>2026-05-01T13:05:11Z</time></trkpt><trkpt lat="44.21888708024332" lon="15.457824230534964"><ele>33.0</ele><time>2026-05-01T13:05:12Z</time></trkpt><trkpt lat="44.21894644222417" lon="15.457910854773433"><ele>34.0</ele><time>2026-05-01T13:05:13Z</time></trkpt><trkpt lat="44.219005753581655" lon="15.457969525998605"><ele>35.0</ele><time>2026-05-01T13:05:14Z</time></trkpt><trkpt lat="44.21909989411338" lon="15.458030287247828"><ele>36.0</ele><time>2026-05-01T13:05:16Z</time></trkpt><trkpt lat="44.219177554802826" lon="15.458063540733406"><ele>37.0</ele><time>2026-05-01T13:05:19Z</time></trkpt><trkpt lat="44.21926237979137" lon="15.458096496569134"><ele>38.0</ele><time>2026-05-01T13:05:23Z</time></trkpt><trkpt lat="44.2193490531969" lon="15.458020633140448"><ele>39.0</ele><time>2026-05-01T13:05:25Z</time></trkpt><trkpt lat="44.21937487515076" lon="15.45791616586085"><ele>39.2</ele><time>2026-05-01T13:05:26Z</time></trkpt><trkpt lat="44.219400748992776" lon="15.457801035604268"><ele>39.4</ele><time>2026-05-01T13:05:27Z</time></trkpt><trkpt lat="44.219429590677" lon="15.457670450590461"><ele>39.6</ele><time>2026-05-01T13:05:28Z</time></trkpt><trkpt lat="44.219453616844994" lon="15.457521440535983"><ele>39.8</ele><time>2026-05-01T13:05:29Z</time></trkpt><trkpt lat="44.219480564319234" lon="15.457367159722445"><ele>40.0</ele><time>2026-05-01T13:05:30Z</time></trkpt><trkpt lat="44.2195067252814" lon="15.457199330653745"><ele>40.5</ele><time>2026-05-01T13:05:31Z</time></trkpt><trkpt lat="44.21953651496487" lon="15.45702777440205"><ele>41.0</ele><time>2026-05-01T13:05:32Z</time></trkpt><trkpt lat="44.219569653399674" lon="15.45685224655888"><ele>41.5</ele><time>2026-05-01T13:05:33Z</time></trkpt><trkpt lat="44.21960894760675" lon="15.456666047911815"><ele>42.0</ele><time>2026-05-01T13:05:34Z</time></trkpt><trkpt lat="44.21965005060411" lon="15.456474178339777"><ele>42.0</ele><time>2026-05-01T13:05:35Z</time></trkpt><trkpt lat="44.21968941417721" lon="15.456278459482766"><ele>42.0</ele><time>2026-05-01T13:05:36Z</time></trkpt><trkpt lat="44.21973176045491" lon="15.456069914719277"><ele>42.0</ele><time>2026-05-01T13:05:37Z</time></trkpt><trkpt lat="44.21977688217513" lon="15.455848179241107"><ele>45.33333333333333</ele><time>2026-05-01T13:05:38Z</time></trkpt><trkpt lat="44.21982264269019" lon="15.455622279639291"><ele>48.666666666666664</ele><time>2026-05-01T13:05:39Z</time></trkpt><trkpt lat="44.219868189171756" lon="15.45539945337244"><ele>52.0</ele><time>2026-05-01T13:05:40Z</time></trkpt><trkpt lat="44.21991014749735" lon="15.455186224724118"><ele>52.0</ele><time>2026-05-01T13:05:41Z</time></trkpt><trkpt lat="44.219953127254804" lon="15.454979662140346"><ele>52.0</ele><time>2026-05-01T13:05:42Z</time></trkpt><trkpt lat="44.219995290683016" lon="15.45477802165696"><ele>52.0</ele><time>2026-05-01T13:05:43Z</time></trkpt><trkpt lat="44.22003875368396" lon="15.454581044171674"><ele>52.0</ele><time>2026-05-01T13:05:44Z</time></trkpt><trkpt lat="44.2200823521075" lon="15.454384424387877"><ele>52.0</ele><time>2026-05-01T13:05:45Z</time></trkpt><trkpt lat="44.22012403988978" lon="15.454187175104824"><ele>52.0</ele><time>2026-05-01T13:05:46Z</time></trkpt><trkpt lat="44.220163188827996" lon="15.453983309049898"><ele>52.0</ele><time>2026-05-01T13:05:47Z</time></trkpt><trkpt lat="44.2202011453158" lon="15.453776738561631"><ele>52.33333333333333</ele><time>2026-05-01T13:05:48Z</time></trkpt><trkpt lat="44.220237761400575" lon="15.453571061191806"><ele>52.66666666666667</ele><time>2026-05-01T13:05:49Z</time></trkpt><trkpt lat="44.22027693656916" lon="15.453358005193895"><ele>53.0</ele><time>2026-05-01T13:05:50Z</time></trkpt><trkpt lat="44.22031705726406" lon="15.453144003283459"><ele>53.66666666666667</ele><time>2026-05-01T13:05:51Z</time></trkpt><trkpt lat="44.22036072015341" lon="15.452928371419969"><ele>54.33333333333333</ele><time>2026-05-01T13:05:52Z</time></trkpt><trkpt lat="44.220405360290194" lon="15.452722506268646"><ele>55.0</ele><time>2026-05-01T13:05:53Z</time></trkpt><trkpt lat="44.22044891016556" lon="15.45251588230735"><ele>55.0</ele><time>2026-05-01T13:05:54Z</time></trkpt><trkpt lat="44.22049260720242" lon="15.45230828722992"><ele>55.0</ele><time>2026-05-01T13:05:55Z</time></trkpt><trkpt lat="44.220532482338704" lon="15.452095606208287"><ele>55.0</ele><time>2026-05-01T13:05:56Z</time></trkpt><trkpt lat="44.22057287318906" lon="15.451872785000512"><ele>56.0</ele><time>2026-05-01T13:05:57Z</time></trkpt><trkpt lat="44.22061555865482" lon="15.451643526290392"><ele>57.0</ele><time>2026-05-01T13:05:58Z</time></trkpt><trkpt lat="44.220662453703504" lon="15.451413278980775"><ele>58.0</ele><time>2026-05-01T13:05:59Z</time></trkpt><trkpt lat="44.22071109165669" lon="15.451176652209176"><ele>60.0</ele><time>2026-05-01T13:06:00Z</time></trkpt><trkpt lat="44.220762846963105" lon="15.450929867803037"><ele>62.0</ele><time>2026-05-01T13:06:01Z</time></trkpt><trkpt lat="44.220816473544645" lon="15.450680410525532"><ele>64.0</ele><time>2026-05-01T13:06:02Z</time></trkpt><trkpt lat="44.220869696660266" lon="15.450421403956247"><ele>64.33333333333333</ele><time>2026-05-01T13:06:03Z</time></trkpt><trkpt lat="44.220924660692155" lon="15.450163561432058"><ele>64.66666666666667</ele><time>2026-05-01T13:06:04Z</time></trkpt><trkpt lat="44.220989399676355" lon="15.449899669699853"><ele>65.0</ele><time>2026-05-01T13:06:05Z</time></trkpt><trkpt lat="44.22106715431348" lon="15.449640406818759"><ele>65.0</ele><time>2026-05-01T13:06:06Z</time></trkpt><trkpt lat="44.22115630731182" lon="15.449381528254177"><ele>65.0</ele><time>2026-05-01T13:06:07Z</time></trkpt><trkpt lat="44.221252567447706" lon="15.449129348174012"><ele>65.0</ele><time>2026-05-01T13:06:08Z</time></trkpt><trkpt lat="44.221351953469636" lon="15.448880280588778"><ele>64.33333333333334</ele><time>2026-05-01T13:06:09Z</time></trkpt><trkpt lat="44.22144565862289" lon="15.44863171856397"><ele>63.66666666666667</ele><time>2026-05-01T13:06:10Z</time></trkpt><trkpt lat="44.22153546076342" lon="15.448392819049158"><ele>63.0</ele><time>2026-05-01T13:06:11Z</time></trkpt><trkpt lat="44.221623689519355" lon="15.448163738154559"><ele>63.66666666666667</ele><time>2026-05-01T13:06:12Z</time></trkpt><trkpt lat="44.22170928222447" lon="15.44793764727607"><ele>64.33333333333334</ele><time>2026-05-01T13:06:13Z</time></trkpt><trkpt lat="44.221795013699904" lon="15.447707446192268"><ele>65.0</ele><time>2026-05-01T13:06:14Z</time></trkpt><trkpt lat="44.221887034172745" lon="15.447473087566003"><ele>65.0</ele><time>2026-05-01T13:06:15Z</time></trkpt><trkpt lat="44.2219808377474" lon="15.447231466335099"><ele>65.0</ele><time>2026-05-01T13:06:16Z</time></trkpt><trkpt lat="44.22207598247552" lon="15.446978898670716"><ele>65.0</ele><time>2026-05-01T13:06:17Z</time></trkpt><trkpt lat="44.22217589547342" lon="15.44671018364562"><ele>64.5</ele><time>2026-05-01T13:06:18Z</time></trkpt><trkpt lat="44.22228786157525" lon="15.446408035007059"><ele>64.0</ele><time>2026-05-01T13:06:19Z</time></trkpt><trkpt lat="44.222415198602455" lon="15.446065498379303"><ele>68.0</ele><time>2026-05-01T13:06:20Z</time></trkpt><trkpt lat="44.22254744196703" lon="15.44571600372581"><ele>72.0</ele><time>2026-05-01T13:06:21Z</time></trkpt><trkpt lat="44.222682512625845" lon="15.445364415410937"><ele>72.5</ele><time>2026-05-01T13:06:22Z</time></trkpt><trkpt lat="44.22281041621897" lon="15.445029357414892"><ele>73.0</ele><time>2026-05-01T13:06:23Z</time></trkpt><trkpt lat="44.222931639138864" lon="15.444711374147758"><ele>72.0</ele><time>2026-05-01T13:06:24Z</time></trkpt><trkpt lat="44.22304955418289" lon="15.444398388605013"><ele>71.0</ele><time>2026-05-01T13:06:25Z</time></trkpt><trkpt lat="44.223171667585085" lon="15.444069947252993"><ele>75.0</ele><time>2026-05-01T13:06:26Z</time></trkpt><trkpt lat="44.2233014586988" lon="15.443707863396575"><ele>79.0</ele><time>2026-05-01T13:06:27Z</time></trkpt><trkpt lat="44.22345866003307" lon="15.443329152446623"><ele>77.5</ele><time>2026-05-01T13:06:28Z</time></trkpt><trkpt lat="44.22361924180217" lon="15.442902624726067"><ele>76.0</ele><time>2026-05-01T13:06:29Z</time></trkpt><trkpt lat="44.22379072361998" lon="15.44245230451105"><ele>75.0</ele><time>2026-05-01T13:06:30Z</time></trkpt><trkpt lat="44.22396201580825" lon="15.4420034046532"><ele>74.0</ele><time>2026-05-01T13:06:31Z</time></trkpt><trkpt lat="44.22411311303346" lon="15.441569655198524"><ele>78.0</ele><time>2026-05-01T13:06:32Z</time></trkpt><trkpt lat="44.224276359840445" lon="15.44116972947551"><ele>82.0</ele><time>2026-05-01T13:06:33Z</time></trkpt><trkpt lat="44.2244255179503" lon="15.44077925543315"><ele>82.0</ele><time>2026-05-01T13:06:34Z</time></trkpt><trkpt lat="44.22455388524718" lon="15.440404719851966"><ele>82.0</ele><time>2026-05-01T13:06:35Z</time></trkpt><trkpt lat="44.224668903847814" lon="15.440053360762006"><ele>82.0</ele><time>2026-05-01T13:06:36Z</time></trkpt><trkpt lat="44.22478048241309" lon="15.439717745632171"><ele>82.0</ele><time>2026-05-01T13:06:37Z</time></trkpt><trkpt lat="44.22488907227899" lon="15.439400374596632"><ele>89.0</ele><time>2026-05-01T13:06:38Z</time></trkpt><trkpt lat="44.22499934665102" lon="15.439084880348505"><ele>96.0</ele><time>2026-05-01T13:06:39Z</time></trkpt><trkpt lat="44.2251081950438" lon="15.438773030117742"><ele>96.5</ele><time>2026-05-01T13:06:40Z</time></trkpt><trkpt lat="44.22521380581065" lon="15.438456385891536"><ele>97.0</ele><time>2026-05-01T13:06:41Z</time></trkpt><trkpt lat="44.22531677114171" lon="15.438142822980849"><ele>97.5</ele><time>2026-05-01T13:06:42Z</time></trkpt><trkpt lat="44.225414541385994" lon="15.437833781115208"><ele>98.0</ele><time>2026-05-01T13:06:43Z</time></trkpt><trkpt lat="44.22550232307688" lon="15.437542770246365"><ele>98.0</ele><time>2026-05-01T13:06:44Z</time></trkpt><trkpt lat="44.225583139806744" lon="15.437275639040209"><ele>98.0</ele><time>2026-05-01T13:06:45Z</time></trkpt><trkpt lat="44.225653998137666" lon="15.437029077304185"><ele>98.0</ele><time>2026-05-01T13:06:46Z</time></trkpt><trkpt lat="44.22571882577099" lon="15.436799837589065"><ele>102.0</ele><time>2026-05-01T13:06:47Z</time></trkpt><trkpt lat="44.225790189727014" lon="15.436562983802814"><ele>106.0</ele><time>2026-05-01T13:06:48Z</time></trkpt><trkpt lat="44.22586127286199" lon="15.43632665011528"><ele>110.0</ele><time>2026-05-01T13:06:49Z</time></trkpt><trkpt lat="44.22593499320412" lon="15.436086344457037"><ele>110.33333333333333</ele><time>2026-05-01T13:06:50Z</time></trkpt><trkpt lat="44.22600683120251" lon="15.435838299612264"><ele>110.66666666666666</ele><time>2026-05-01T13:06:51Z</time></trkpt><trkpt lat="44.226077132170715" lon="15.435591055377586"><ele>111.0</ele><time>2026-05-01T13:06:52Z</time></trkpt><trkpt lat="44.22614560668143" lon="15.435354103661888"><ele>111.0</ele><time>2026-05-01T13:06:53Z</time></trkpt><trkpt lat="44.22620793655847" lon="15.435124343699053"><ele>111.0</ele><time>2026-05-01T13:06:54Z</time></trkpt><trkpt lat="44.22627517909912" lon="15.434881653557822"><ele>111.0</ele><time>2026-05-01T13:06:55Z</time></trkpt><trkpt lat="44.226343535703094" lon="15.434631822782654"><ele>110.66666666666666</ele><time>2026-05-01T13:06:56Z</time></trkpt><trkpt lat="44.226415082433675" lon="15.434369423166645"><ele>110.33333333333333</ele><time>2026-05-01T13:06:57Z</time></trkpt><trkpt lat="44.2264921250479" lon="15.434094651595517"><ele>110.0</ele><time>2026-05-01T13:06:58Z</time></trkpt><trkpt lat="44.22657379597004" lon="15.433787469441446"><ele>108.0</ele><time>2026-05-01T13:06:59Z</time></trkpt><trkpt lat="44.226659948973264" lon="15.433451089892587"><ele>106.0</ele><time>2026-05-01T13:07:00Z</time></trkpt><trkpt lat="44.22675040652149" lon="15.433095765900372"><ele>106.0</ele><time>2026-05-01T13:07:01Z</time></trkpt><trkpt lat="44.22684642506975" lon="15.432736762558852"><ele>106.0</ele><time>2026-05-01T13:07:02Z</time></trkpt><trkpt lat="44.22694806049191" lon="15.432391342752238"><ele>105.0</ele><time>2026-05-01T13:07:03Z</time></trkpt><trkpt lat="44.22705290628639" lon="15.432052661507333"><ele>104.0</ele><time>2026-05-01T13:07:04Z</time></trkpt><trkpt lat="44.22715468372278" lon="15.431714816876413"><ele>104.0</ele><time>2026-05-01T13:07:05Z</time></trkpt><trkpt lat="44.22724744460073" lon="15.43138745350202"><ele>104.0</ele><time>2026-05-01T13:07:06Z</time></trkpt><trkpt lat="44.227340308348474" lon="15.4310564958018"><ele>102.5</ele><time>2026-05-01T13:07:07Z</time></trkpt><trkpt lat="44.22743085117812" lon="15.430731106652935"><ele>101.0</ele><time>2026-05-01T13:07:08Z</time></trkpt><trkpt lat="44.22752101025286" lon="15.430403331066106"><ele>99.5</ele><time>2026-05-01T13:07:09Z</time></trkpt><trkpt lat="44.22761397794611" lon="15.430070592541082"><ele>98.0</ele><time>2026-05-01T13:07:10Z</time></trkpt><trkpt lat="44.227705931589526" lon="15.42974400701457"><ele>97.5</ele><time>2026-05-01T13:07:11Z</time></trkpt><trkpt lat="44.22779827078066" lon="15.429409847907127"><ele>97.0</ele><time>2026-05-01T13:07:12Z</time></trkpt><trkpt lat="44.22789314558895" lon="15.429057810615951"><ele>96.0</ele><time>2026-05-01T13:07:13Z</time></trkpt><trkpt lat="44.22798847509438" lon="15.428685229720747"><ele>95.0</ele><time>2026-05-01T13:07:14Z</time></trkpt><trkpt lat="44.22808436195549" lon="15.428289713050487"><ele>95.0</ele><time>2026-05-01T13:07:15Z</time></trkpt><trkpt lat="44.22818686587853" lon="15.427870515535181"><ele>95.0</ele><time>2026-05-01T13:07:16Z</time></trkpt><trkpt lat="44.22831231777374" lon="15.4274125647553"><ele>94.5</ele><time>2026-05-01T13:07:17Z</time></trkpt><trkpt lat="44.22845500688929" lon="15.42692553220421"><ele>94.0</ele><time>2026-05-01T13:07:18Z</time></trkpt><trkpt lat="44.22860701690459" lon="15.426422095223186"><ele>93.5</ele><time>2026-05-01T13:07:19Z</time></trkpt><trkpt lat="44.228747443009595" lon="15.425940235604385"><ele>93.0</ele><time>2026-05-01T13:07:20Z</time></trkpt><trkpt lat="44.22887207712921" lon="15.42548675924462"><ele>93.5</ele><time>2026-05-01T13:07:21Z</time></trkpt><trkpt lat="44.22898906510493" lon="15.425057249455541"><ele>94.0</ele><time>2026-05-01T13:07:22Z</time></trkpt><trkpt lat="44.229100542863655" lon="15.424656290336058"><ele>94.0</ele><time>2026-05-01T13:07:23Z</time></trkpt><trkpt lat="44.229207568142165" lon="15.424277203209332"><ele>94.0</ele><time>2026-05-01T13:07:24Z</time></trkpt><trkpt lat="44.22931016421386" lon="15.423908578758509"><ele>95.0</ele><time>2026-05-01T13:07:25Z</time></trkpt><trkpt lat="44.22940948503571" lon="15.423543450659812"><ele>96.0</ele><time>2026-05-01T13:07:26Z</time></trkpt><trkpt lat="44.22950673226545" lon="15.423181830875805"><ele>96.0</ele><time>2026-05-01T13:07:27Z</time></trkpt><trkpt lat="44.229605135997275" lon="15.422826438581145"><ele>96.0</ele><time>2026-05-01T13:07:28Z</time></trkpt><trkpt lat="44.22970353365997" lon="15.422475310712711"><ele>96.0</ele><time>2026-05-01T13:07:29Z</time></trkpt><trkpt lat="44.229799135426504" lon="15.422128706615121"><ele>96.0</ele><time>2026-05-01T13:07:30Z</time></trkpt><trkpt lat="44.22989508828159" lon="15.42178207305534"><ele>98.0</ele><time>2026-05-01T13:07:31Z</time></trkpt><trkpt lat="44.229991043383905" lon="15.421441485503259"><ele>100.0</ele><time>2026-05-01T13:07:32Z</time></trkpt><trkpt lat="44.23008296113304" lon="15.421111263651612"><ele>100.0</ele><time>2026-05-01T13:07:33Z</time></trkpt><trkpt lat="44.23017284044904" lon="15.420786362998482"><ele>100.0</ele><time>2026-05-01T13:07:34Z</time></trkpt><trkpt lat="44.23026061466869" lon="15.42047203544237"><ele>101.0</ele><time>2026-05-01T13:07:35Z</time></trkpt><trkpt lat="44.2303452261599" lon="15.42016857970087"><ele>102.0</ele><time>2026-05-01T13:07:36Z</time></trkpt><trkpt lat="44.23042512583763" lon="15.419885392306877"><ele>102.66666666666666</ele><time>2026-05-01T13:07:37Z</time></trkpt><trkpt lat="44.23049663923635" lon="15.41962459660341"><ele>103.33333333333333</ele><time>2026-05-01T13:07:38Z</time></trkpt><trkpt lat="44.23056285771443" lon="15.419381480418455"><ele>104.0</ele><time>2026-05-01T13:07:39Z</time></trkpt><trkpt lat="44.230633003242744" lon="15.41912712591754"><ele>103.66666666666666</ele><time>2026-05-01T13:07:40Z</time></trkpt><trkpt lat="44.230701712950186" lon="15.418848889202733"><ele>103.33333333333334</ele><time>2026-05-01T13:07:41Z</time></trkpt><trkpt lat="44.23076816612611" lon="15.41856391427551"><ele>103.0</ele><time>2026-05-01T13:07:42Z</time></trkpt><trkpt lat="44.23085066649715" lon="15.418245817577521"><ele>107.0</ele><time>2026-05-01T13:07:43Z</time></trkpt><trkpt lat="44.23094611758657" lon="15.417902770564135"><ele>111.0</ele><time>2026-05-01T13:07:44Z</time></trkpt><trkpt lat="44.23104796028202" lon="15.4175607544033"><ele>111.0</ele><time>2026-05-01T13:07:45Z</time></trkpt><trkpt lat="44.23114947859107" lon="15.417227146959892"><ele>111.0</ele><time>2026-05-01T13:07:46Z</time></trkpt><trkpt lat="44.23124711950375" lon="15.416910407375017"><ele>112.5</ele><time>2026-05-01T13:07:47Z</time></trkpt><trkpt lat="44.231335741353504" lon="15.416592097063683"><ele>114.0</ele><time>2026-05-01T13:07:48Z</time></trkpt><trkpt lat="44.23141723626571" lon="15.416275953697424"><ele>113.5</ele><time>2026-05-01T13:07:49Z</time></trkpt><trkpt lat="44.23149874555026" lon="15.415964999255586"><ele>113.0</ele><time>2026-05-01T13:07:50Z</time></trkpt><trkpt lat="44.23158070536372" lon="15.415661646171086"><ele>114.0</ele><time>2026-05-01T13:07:51Z</time></trkpt><trkpt lat="44.23166243727627" lon="15.415362420672905"><ele>115.0</ele><time>2026-05-01T13:07:52Z</time></trkpt><trkpt lat="44.231742696759774" lon="15.415063716995963"><ele>115.0</ele><time>2026-05-01T13:07:53Z</time></trkpt><trkpt lat="44.231831322233056" lon="15.41476693743416"><ele>115.0</ele><time>2026-05-01T13:07:54Z</time></trkpt><trkpt lat="44.23191337015575" lon="15.414462648449334"><ele>115.5</ele><time>2026-05-01T13:07:55Z</time></trkpt><trkpt lat="44.2320004481241" lon="15.414154648923144"><ele>116.0</ele><time>2026-05-01T13:07:56Z</time></trkpt><trkpt lat="44.23208679444123" lon="15.413849078448797"><ele>116.0</ele><time>2026-05-01T13:07:57Z</time></trkpt><trkpt lat="44.23217065618987" lon="15.413550050566293"><ele>116.0</ele><time>2026-05-01T13:07:58Z</time></trkpt><trkpt lat="44.232250863652624" lon="15.413255188735665"><ele>117.5</ele><time>2026-05-01T13:07:59Z</time></trkpt><trkpt lat="44.232329716658136" lon="15.41295414885479"><ele>119.0</ele><time>2026-05-01T13:08:00Z</time></trkpt><trkpt lat="44.232410090928695" lon="15.412654380886696"><ele>119.0</ele><time>2026-05-01T13:08:01Z</time></trkpt><trkpt lat="44.23249249879851" lon="15.412346287728962"><ele>119.0</ele><time>2026-05-01T13:08:02Z</time></trkpt><trkpt lat="44.23257838816178" lon="15.412036544515791"><ele>120.0</ele><time>2026-05-01T13:08:03Z</time></trkpt><trkpt lat="44.23266903243616" lon="15.41172233613297"><ele>121.0</ele><time>2026-05-01T13:08:04Z</time></trkpt><trkpt lat="44.232760530018155" lon="15.411407967811241"><ele>120.0</ele><time>2026-05-01T13:08:05Z</time></trkpt><trkpt lat="44.23285140081772" lon="15.411089225656298"><ele>119.0</ele><time>2026-05-01T13:08:06Z</time></trkpt><trkpt lat="44.23294443218284" lon="15.410766147127621"><ele>119.0</ele><time>2026-05-01T13:08:07Z</time></trkpt><trkpt lat="44.233040049284824" lon="15.410442893329003"><ele>119.0</ele><time>2026-05-01T13:08:08Z</time></trkpt><trkpt lat="44.23313850687587" lon="15.410118123190154"><ele>120.5</ele><time>2026-05-01T13:08:09Z</time></trkpt><trkpt lat="44.23323728537195" lon="15.409789153487447"><ele>122.0</ele><time>2026-05-01T13:08:10Z</time></trkpt><trkpt lat="44.23333578807051" lon="15.409459540336057"><ele>122.0</ele><time>2026-05-01T13:08:11Z</time></trkpt><trkpt lat="44.233435457898295" lon="15.409133158793068"><ele>122.0</ele><time>2026-05-01T13:08:12Z</time></trkpt><trkpt lat="44.23353357636064" lon="15.408806162873887"><ele>121.0</ele><time>2026-05-01T13:08:13Z</time></trkpt><trkpt lat="44.233622413776956" lon="15.408477094325656"><ele>120.0</ele><time>2026-05-01T13:08:14Z</time></trkpt><trkpt lat="44.233687392975526" lon="15.408125076169743"><ele>118.0</ele><time>2026-05-01T13:08:15Z</time></trkpt><trkpt lat="44.23372642535655" lon="15.407754454782545"><ele>116.0</ele><time>2026-05-01T13:08:16Z</time></trkpt><trkpt lat="44.23376243159032" lon="15.40738344357487"><ele>114.0</ele><time>2026-05-01T13:08:17Z</time></trkpt><trkpt lat="44.23380445674568" lon="15.40702255689456"><ele>112.0</ele><time>2026-05-01T13:08:18Z</time></trkpt><trkpt lat="44.23388016920765" lon="15.406692770910878"><ele>112.0</ele><time>2026-05-01T13:08:19Z</time></trkpt><trkpt lat="44.23397553757791" lon="15.406398756984931"><ele>112.0</ele><time>2026-05-01T13:08:20Z</time></trkpt><trkpt lat="44.2340985896619" lon="15.406120607768544"><ele>111.0</ele><time>2026-05-01T13:08:21Z</time></trkpt><trkpt lat="44.23425212464767" lon="15.405853557873899"><ele>110.0</ele><time>2026-05-01T13:08:22Z</time></trkpt><trkpt lat="44.23440103274475" lon="15.405552473770156"><ele>111.5</ele><time>2026-05-01T13:08:23Z</time></trkpt><trkpt lat="44.234579045262976" lon="15.40525948218229"><ele>113.0</ele><time>2026-05-01T13:08:24Z</time></trkpt><trkpt lat="44.23476596615179" lon="15.404934135973956"><ele>116.0</ele><time>2026-05-01T13:08:25Z</time></trkpt><trkpt lat="44.23496174550544" lon="15.404590196925993"><ele>119.0</ele><time>2026-05-01T13:08:26Z</time></trkpt><trkpt lat="44.23516746515937" lon="15.404222197169002"><ele>121.0</ele><time>2026-05-01T13:08:27Z</time></trkpt><trkpt lat="44.23539278018111" lon="15.403821062156334"><ele>123.0</ele><time>2026-05-01T13:08:28Z</time></trkpt><trkpt lat="44.23562837127889" lon="15.40340633997453"><ele>126.0</ele><time>2026-05-01T13:08:29Z</time></trkpt><trkpt lat="44.23587204988846" lon="15.402978536908432"><ele>129.0</ele><time>2026-05-01T13:08:30Z</time></trkpt><trkpt lat="44.2361103978922" lon="15.402562478782029"><ele>129.0</ele><time>2026-05-01T13:08:31Z</time></trkpt><trkpt lat="44.23633722038744" lon="15.402180148556312"><ele>129.0</ele><time>2026-05-01T13:08:32Z</time></trkpt><trkpt lat="44.23654546520274" lon="15.401842883705964"><ele>133.0</ele><time>2026-05-01T13:08:33Z</time></trkpt><trkpt lat="44.236734805925714" lon="15.401535594200103"><ele>137.0</ele><time>2026-05-01T13:08:34Z</time></trkpt><trkpt lat="44.236910695382335" lon="15.401257965138477"><ele>137.0</ele><time>2026-05-01T13:08:35Z</time></trkpt><trkpt lat="44.23707216762312" lon="15.401001207725862"><ele>137.0</ele><time>2026-05-01T13:08:36Z</time></trkpt><trkpt lat="44.2372279481982" lon="15.400755820740248"><ele>138.66666666666666</ele><time>2026-05-01T13:08:37Z</time></trkpt><trkpt lat="44.237375515813255" lon="15.400518432360752"><ele>140.33333333333334</ele><time>2026-05-01T13:08:38Z</time></trkpt><trkpt lat="44.23751957384679" lon="15.400286201549553"><ele>142.0</ele><time>2026-05-01T13:08:39Z</time></trkpt><trkpt lat="44.237660019319314" lon="15.400060519154515"><ele>142.0</ele><time>2026-05-01T13:08:40Z</time></trkpt><trkpt lat="44.23779880488923" lon="15.399843838866122"><ele>142.0</ele><time>2026-05-01T13:08:41Z</time></trkpt><trkpt lat="44.23793456114868" lon="15.39963093603233"><ele>142.0</ele><time>2026-05-01T13:08:42Z</time></trkpt><trkpt lat="44.23805483165552" lon="15.39944350645727"><ele>143.25</ele><time>2026-05-01T13:08:43Z</time></trkpt><trkpt lat="44.23816463070628" lon="15.399278474245586"><ele>144.5</ele><time>2026-05-01T13:08:44Z</time></trkpt><trkpt lat="44.238270690296105" lon="15.399136525115376"><ele>145.75</ele><time>2026-05-01T13:08:45Z</time></trkpt><trkpt lat="44.2383916703714" lon="15.399044214806086"><ele>147.0</ele><time>2026-05-01T13:08:46Z</time></trkpt><trkpt lat="44.238507439461316" lon="15.39892497593475"><ele>147.0</ele><time>2026-05-01T13:08:47Z</time></trkpt><trkpt lat="44.23863454216716" lon="15.398839222464067"><ele>147.0</ele><time>2026-05-01T13:08:48Z</time></trkpt><trkpt lat="44.2387525854674" lon="15.398765742957595"><ele>147.0</ele><time>2026-05-01T13:08:49Z</time></trkpt><trkpt lat="44.23886187640572" lon="15.39869774072496"><ele>147.0</ele><time>2026-05-01T13:08:50Z</time></trkpt><trkpt lat="44.23896818273026" lon="15.3986317476218"><ele>147.0</ele><time>2026-05-01T13:08:51Z</time></trkpt><trkpt lat="44.23908272786324" lon="15.398549721691909"><ele>147.0</ele><time>2026-05-01T13:08:52Z</time></trkpt><trkpt lat="44.23920499351429" lon="15.398452646875537"><ele>147.0</ele><time>2026-05-01T13:08:53Z</time></trkpt><trkpt lat="44.23933568506954" lon="15.39833420772888"><ele>147.0</ele><time>2026-05-01T13:08:54Z</time></trkpt><trkpt lat="44.23946446657983" lon="15.39819311212076"><ele>147.0</ele><time>2026-05-01T13:08:55Z</time></trkpt><trkpt lat="44.23959237928865" lon="15.398037355287485"><ele>147.0</ele><time>2026-05-01T13:08:56Z</time></trkpt><trkpt lat="44.239716759485276" lon="15.397881985189269"><ele>147.0</ele><time>2026-05-01T13:08:57Z</time></trkpt><trkpt lat="44.2398352536666" lon="15.397736167526299"><ele>146.25</ele><time>2026-05-01T13:08:58Z</time></trkpt><trkpt lat="44.23994556833057" lon="15.397600572432628"><ele>145.5</ele><time>2026-05-01T13:08:59Z</time></trkpt><trkpt lat="44.240055420210155" lon="15.397470655123735"><ele>144.75</ele><time>2026-05-01T13:09:00Z</time></trkpt><trkpt lat="44.240173338508015" lon="15.397349010770023"><ele>144.0</ele><time>2026-05-01T13:09:01Z</time></trkpt><trkpt lat="44.240297241546806" lon="15.397247627075478"><ele>144.0</ele><time>2026-05-01T13:09:02Z</time></trkpt><trkpt lat="44.24043317351452" lon="15.39717580625218"><ele>144.0</ele><time>2026-05-01T13:09:03Z</time></trkpt><trkpt lat="44.240576479062064" lon="15.39712589850731"><ele>144.0</ele><time>2026-05-01T13:09:04Z</time></trkpt><trkpt lat="44.24072216160815" lon="15.39708874005928"><ele>144.0</ele><time>2026-05-01T13:09:05Z</time></trkpt><trkpt lat="44.24086977089" lon="15.397056378959038"><ele>141.66666666666666</ele><time>2026-05-01T13:09:06Z</time></trkpt><trkpt lat="44.24102822010517" lon="15.397021189214328"><ele>139.33333333333331</ele><time>2026-05-01T13:09:07Z</time></trkpt><trkpt lat="44.24118404727462" lon="15.396959718022478"><ele>137.0</ele><time>2026-05-01T13:09:08Z</time></trkpt><trkpt lat="44.24133545016087" lon="15.396874905024951"><ele>138.66666666666666</ele><time>2026-05-01T13:09:09Z</time></trkpt><trkpt lat="44.24149038914482" lon="15.396758342790697"><ele>140.33333333333334</ele><time>2026-05-01T13:09:10Z</time></trkpt><trkpt lat="44.24165994886274" lon="15.396604104628121"><ele>142.0</ele><time>2026-05-01T13:09:11Z</time></trkpt><trkpt lat="44.241841490027" lon="15.396417578331484"><ele>141.0</ele><time>2026-05-01T13:09:12Z</time></trkpt><trkpt lat="44.24205355576436" lon="15.396238556594989"><ele>140.0</ele><time>2026-05-01T13:09:13Z</time></trkpt><trkpt lat="44.242269698800904" lon="15.396041487481357"><ele>143.5</ele><time>2026-05-01T13:09:14Z</time></trkpt><trkpt lat="44.24250054613311" lon="15.395829826497382"><ele>147.0</ele><time>2026-05-01T13:09:15Z</time></trkpt><trkpt lat="44.24272095528593" lon="15.395618630571597"><ele>143.5</ele><time>2026-05-01T13:09:16Z</time></trkpt><trkpt lat="44.24293502215719" lon="15.39542073660304"><ele>140.0</ele><time>2026-05-01T13:09:17Z</time></trkpt><trkpt lat="44.24312565211981" lon="15.39522295132837"><ele>141.33333333333331</ele><time>2026-05-01T13:09:18Z</time></trkpt><trkpt lat="44.24330222878785" lon="15.3950156191325"><ele>142.66666666666666</ele><time>2026-05-01T13:09:19Z</time></trkpt><trkpt lat="44.24345759492265" lon="15.394804572880533"><ele>144.0</ele><time>2026-05-01T13:09:20Z</time></trkpt><trkpt lat="44.24360130753895" lon="15.394596955569245"><ele>144.0</ele><time>2026-05-01T13:09:21Z</time></trkpt><trkpt lat="44.24374237725174" lon="15.394397013478038"><ele>144.0</ele><time>2026-05-01T13:09:22Z</time></trkpt><trkpt lat="44.243877459380506" lon="15.394206836304866"><ele>144.0</ele><time>2026-05-01T13:09:23Z</time></trkpt><trkpt lat="44.24400735573219" lon="15.394018096471255"><ele>148.33333333333334</ele><time>2026-05-01T13:09:24Z</time></trkpt><trkpt lat="44.24412775293861" lon="15.393822555871262"><ele>152.66666666666669</ele><time>2026-05-01T13:09:25Z</time></trkpt><trkpt lat="44.24422811471991" lon="15.393626361565557"><ele>157.0</ele><time>2026-05-01T13:09:26Z</time></trkpt><trkpt lat="44.244317926950295" lon="15.393421005182866"><ele>157.0</ele><time>2026-05-01T13:09:27Z</time></trkpt><trkpt lat="44.24441026051838" lon="15.393212335195955"><ele>157.0</ele><time>2026-05-01T13:09:28Z</time></trkpt><trkpt lat="44.244507573275676" lon="15.393009483186763"><ele>157.0</ele><time>2026-05-01T13:09:29Z</time></trkpt><trkpt lat="44.24461388691398" lon="15.392816934539114"><ele>157.66666666666669</ele><time>2026-05-01T13:09:30Z</time></trkpt><trkpt lat="44.24475046622251" lon="15.392675205758845"><ele>158.33333333333334</ele><time>2026-05-01T13:09:31Z</time></trkpt><trkpt lat="44.24489072764909" lon="15.392541241249384"><ele>159.0</ele><time>2026-05-01T13:09:32Z</time></trkpt><trkpt lat="44.2450437101661" lon="15.392425994617875"><ele>159.0</ele><time>2026-05-01T13:09:33Z</time></trkpt><trkpt lat="44.24519673545865" lon="15.39230299772302"><ele>159.0</ele><time>2026-05-01T13:09:34Z</time></trkpt><trkpt lat="44.245362145279266" lon="15.392219195458797"><ele>159.0</ele><time>2026-05-01T13:09:35Z</time></trkpt><trkpt lat="44.245513176071796" lon="15.392093401810255"><ele>160.0</ele><time>2026-05-01T13:09:36Z</time></trkpt><trkpt lat="44.245657360599424" lon="15.39197597611424"><ele>161.0</ele><time>2026-05-01T13:09:37Z</time></trkpt><trkpt lat="44.245777354118175" lon="15.391823541495429"><ele>162.0</ele><time>2026-05-01T13:09:38Z</time></trkpt><trkpt lat="44.24587431181209" lon="15.39163519730737"><ele>162.0</ele><time>2026-05-01T13:09:39Z</time></trkpt><trkpt lat="44.24596649137462" lon="15.391432637988606"><ele>162.0</ele><time>2026-05-01T13:09:40Z</time></trkpt><trkpt lat="44.24606155608684" lon="15.391237495085178"><ele>162.0</ele><time>2026-05-01T13:09:41Z</time></trkpt><trkpt lat="44.24616793372755" lon="15.391039019752249"><ele>160.33333333333334</ele><time>2026-05-01T13:09:42Z</time></trkpt><trkpt lat="44.24627684629745" lon="15.390842858757368"><ele>158.66666666666669</ele><time>2026-05-01T13:09:43Z</time></trkpt><trkpt lat="44.24638858013342" lon="15.390645125974185"><ele>157.0</ele><time>2026-05-01T13:09:44Z</time></trkpt><trkpt lat="44.24651018423027" lon="15.390441107108638"><ele>161.0</ele><time>2026-05-01T13:09:45Z</time></trkpt><trkpt lat="44.246640096557805" lon="15.390233170625555"><ele>165.0</ele><time>2026-05-01T13:09:46Z</time></trkpt><trkpt lat="44.24677487952219" lon="15.390029843159814"><ele>169.0</ele><time>2026-05-01T13:09:47Z</time></trkpt><trkpt lat="44.24690892658682" lon="15.389823190244071"><ele>169.0</ele><time>2026-05-01T13:09:48Z</time></trkpt><trkpt lat="44.247041050613056" lon="15.389611606224735"><ele>169.0</ele><time>2026-05-01T13:09:49Z</time></trkpt><trkpt lat="44.24717418131858" lon="15.3893970114118"><ele>169.0</ele><time>2026-05-01T13:09:50Z</time></trkpt><trkpt lat="44.24731039903025" lon="15.389180330839576"><ele>169.0</ele><time>2026-05-01T13:09:51Z</time></trkpt><trkpt lat="44.24745293506536" lon="15.388977023345921"><ele>169.0</ele><time>2026-05-01T13:09:52Z</time></trkpt><trkpt lat="44.247621388867614" lon="15.388807786807169"><ele>169.0</ele><time>2026-05-01T13:09:53Z</time></trkpt><trkpt lat="44.24779818507109" lon="15.388645450708882"><ele>167.66666666666669</ele><time>2026-05-01T13:09:54Z</time></trkpt><trkpt lat="44.247975597331916" lon="15.388485223529548"><ele>166.33333333333334</ele><time>2026-05-01T13:09:55Z</time></trkpt><trkpt lat="44.24816611571995" lon="15.388342428147375"><ele>165.0</ele><time>2026-05-01T13:09:56Z</time></trkpt><trkpt lat="44.24833245592649" lon="15.388170550360911"><ele>162.66666666666666</ele><time>2026-05-01T13:09:57Z</time></trkpt><trkpt lat="44.24847597835031" lon="15.387954095437284"><ele>160.33333333333331</ele><time>2026-05-01T13:09:58Z</time></trkpt><trkpt lat="44.24858773502189" lon="15.387713811411658"><ele>158.0</ele><time>2026-05-01T13:09:59Z</time></trkpt><trkpt lat="44.248680373040905" lon="15.387478777959508"><ele>158.0</ele><time>2026-05-01T13:10:00Z</time></trkpt><trkpt lat="44.24876896502749" lon="15.387265272393204"><ele>158.0</ele><time>2026-05-01T13:10:01Z</time></trkpt><trkpt lat="44.24885780229983" lon="15.387068728748046"><ele>158.0</ele><time>2026-05-01T13:10:02Z</time></trkpt><trkpt lat="44.24894445196822" lon="15.386888788428594"><ele>159.5</ele><time>2026-05-01T13:10:03Z</time></trkpt><trkpt lat="44.24901803826976" lon="15.386735587639459"><ele>161.0</ele><time>2026-05-01T13:10:04Z</time></trkpt><trkpt lat="44.24909360871798" lon="15.386603454447124"><ele>162.5</ele><time>2026-05-01T13:10:05Z</time></trkpt><trkpt lat="44.24917380312458" lon="15.386499747524544"><ele>164.0</ele><time>2026-05-01T13:10:06Z</time></trkpt><trkpt lat="44.24926477726801" lon="15.386417909031808"><ele>164.0</ele><time>2026-05-01T13:10:07Z</time></trkpt><trkpt lat="44.249359738446536" lon="15.386350732183965"><ele>164.0</ele><time>2026-05-01T13:10:08Z</time></trkpt><trkpt lat="44.24945487489107" lon="15.386282264080059"><ele>164.0</ele><time>2026-05-01T13:10:09Z</time></trkpt><trkpt lat="44.24955741543795" lon="15.38622263524401"><ele>164.0</ele><time>2026-05-01T13:10:10Z</time></trkpt><trkpt lat="44.24965671072439" lon="15.386163989521549"><ele>164.0</ele><time>2026-05-01T13:10:11Z</time></trkpt><trkpt lat="44.24975622439081" lon="15.386101265383923"><ele>162.79999999999998</ele><time>2026-05-01T13:10:12Z</time></trkpt><trkpt lat="44.24985414685349" lon="15.38603114368019"><ele>161.6</ele><time>2026-05-01T13:10:13Z</time></trkpt><trkpt lat="44.24994953578362" lon="15.38595710280996"><ele>160.4</ele><time>2026-05-01T13:10:14Z</time></trkpt><trkpt lat="44.25004630663977" lon="15.385876852587312"><ele>159.2</ele><time>2026-05-01T13:10:15Z</time></trkpt><trkpt lat="44.25014457912325" lon="15.38579600838481"><ele>158.0</ele><time>2026-05-01T13:10:16Z</time></trkpt><trkpt lat="44.25024160650041" lon="15.38571628511914"><ele>158.0</ele><time>2026-05-01T13:10:17Z</time></trkpt><trkpt lat="44.25033385072082" lon="15.385639824242133"><ele>158.0</ele><time>2026-05-01T13:10:18Z</time></trkpt><trkpt lat="44.250434046438954" lon="15.38555677364823"><ele>158.0</ele><time>2026-05-01T13:10:19Z</time></trkpt><trkpt lat="44.25052717583921" lon="15.385472189301185"><ele>158.0</ele><time>2026-05-01T13:10:20Z</time></trkpt><trkpt lat="44.25062372765452" lon="15.385391317644773"><ele>158.0</ele><time>2026-05-01T13:10:21Z</time></trkpt><trkpt lat="44.25072448613701" lon="15.385304682713826"><ele>156.0</ele><time>2026-05-01T13:10:22Z</time></trkpt><trkpt lat="44.25082472397138" lon="15.3852162522253"><ele>154.0</ele><time>2026-05-01T13:10:23Z</time></trkpt><trkpt lat="44.25092270269883" lon="15.385125993156747"><ele>152.0</ele><time>2026-05-01T13:10:24Z</time></trkpt><trkpt lat="44.25101984274037" lon="15.385032316823827"><ele>150.0</ele><time>2026-05-01T13:10:25Z</time></trkpt><trkpt lat="44.25111705495518" lon="15.384935191257874"><ele>150.0</ele><time>2026-05-01T13:10:26Z</time></trkpt><trkpt lat="44.251212849776984" lon="15.384832464022153"><ele>150.0</ele><time>2026-05-01T13:10:27Z</time></trkpt><trkpt lat="44.25130612450518" lon="15.384728912978437"><ele>150.0</ele><time>2026-05-01T13:10:28Z</time></trkpt><trkpt lat="44.25139567167173" lon="15.384623585876815"><ele>150.0</ele><time>2026-05-01T13:10:29Z</time></trkpt><trkpt lat="44.25148499633697" lon="15.384515008982314"><ele>149.2</ele><time>2026-05-01T13:10:30Z</time></trkpt><trkpt lat="44.25157063922042" lon="15.384409207104037"><ele>148.4</ele><time>2026-05-01T13:10:31Z</time></trkpt><trkpt lat="44.25165462192966" lon="15.38430982037379"><ele>147.6</ele><time>2026-05-01T13:10:32Z</time></trkpt><trkpt lat="44.251734021086804" lon="15.384216233892777"><ele>146.8</ele><time>2026-05-01T13:10:33Z</time></trkpt><trkpt lat="44.251816387631756" lon="15.384118182155165"><ele>146.0</ele><time>2026-05-01T13:10:34Z</time></trkpt><trkpt lat="44.251898124109786" lon="15.384023975423561"><ele>146.0</ele><time>2026-05-01T13:10:35Z</time></trkpt><trkpt lat="44.25198210155377" lon="15.38392428110148"><ele>146.0</ele><time>2026-05-01T13:10:36Z</time></trkpt><trkpt lat="44.252066104595386" lon="15.38382519756173"><ele>146.0</ele><time>2026-05-01T13:10:37Z</time></trkpt><trkpt lat="44.25215327484671" lon="15.383725279835824"><ele>146.0</ele><time>2026-05-01T13:10:38Z</time></trkpt><trkpt lat="44.252239277349034" lon="15.383621820956876"><ele>146.0</ele><time>2026-05-01T13:10:39Z</time></trkpt><trkpt lat="44.25232431081647" lon="15.383516400055534"><ele>145.75</ele><time>2026-05-01T13:10:40Z</time></trkpt><trkpt lat="44.25240739322446" lon="15.383407774573612"><ele>145.5</ele><time>2026-05-01T13:10:41Z</time></trkpt><trkpt lat="44.252484320158366" lon="15.383288197105244"><ele>145.25</ele><time>2026-05-01T13:10:42Z</time></trkpt><trkpt lat="44.25255544351968" lon="15.383160899375175"><ele>145.0</ele><time>2026-05-01T13:10:43Z</time></trkpt><trkpt lat="44.25262620864768" lon="15.383026862207492"><ele>144.75</ele><time>2026-05-01T13:10:44Z</time></trkpt><trkpt lat="44.252688985746495" lon="15.382882074303245"><ele>144.5</ele><time>2026-05-01T13:10:45Z</time></trkpt><trkpt lat="44.25275034829072" lon="15.382723633784279"><ele>144.25</ele><time>2026-05-01T13:10:46Z</time></trkpt><trkpt lat="44.252813322097005" lon="15.382561633789367"><ele>144.0</ele><time>2026-05-01T13:10:47Z</time></trkpt><trkpt lat="44.25288002978644" lon="15.382392443583097"><ele>144.0</ele><time>2026-05-01T13:10:48Z</time></trkpt><trkpt lat="44.2529507562947" lon="15.382204593502909"><ele>144.0</ele><time>2026-05-01T13:10:49Z</time></trkpt><trkpt lat="44.253023910707164" lon="15.382004567265882"><ele>144.0</ele><time>2026-05-01T13:10:50Z</time></trkpt><trkpt lat="44.253103521988784" lon="15.381794523695193"><ele>144.0</ele><time>2026-05-01T13:10:51Z</time></trkpt><trkpt lat="44.25319270626922" lon="15.381566195218442"><ele>144.0</ele><time>2026-05-01T13:10:52Z</time></trkpt><trkpt lat="44.25329548731137" lon="15.38129419157369"><ele>144.0</ele><time>2026-05-01T13:10:53Z</time></trkpt><trkpt lat="44.25341206918449" lon="15.380978487777805"><ele>144.0</ele><time>2026-05-01T13:10:54Z</time></trkpt><trkpt lat="44.25353684930751" lon="15.380642089266686"><ele>144.0</ele><time>2026-05-01T13:10:55Z</time></trkpt><trkpt lat="44.253663737916035" lon="15.380305321405993"><ele>144.5</ele><time>2026-05-01T13:10:56Z</time></trkpt><trkpt lat="44.25378573208856" lon="15.379981191265816"><ele>145.0</ele><time>2026-05-01T13:10:57Z</time></trkpt><trkpt lat="44.25390905236614" lon="15.379653383256352"><ele>148.0</ele><time>2026-05-01T13:10:58Z</time></trkpt><trkpt lat="44.25403131678636" lon="15.379324218872176"><ele>151.0</ele><time>2026-05-01T13:10:59Z</time></trkpt><trkpt lat="44.2541499760888" lon="15.379003613622242"><ele>150.5</ele><time>2026-05-01T13:11:00Z</time></trkpt><trkpt lat="44.254265072007925" lon="15.378699223383084"><ele>150.0</ele><time>2026-05-01T13:11:01Z</time></trkpt><trkpt lat="44.25437489786738" lon="15.378415313732368"><ele>150.0</ele><time>2026-05-01T13:11:02Z</time></trkpt><trkpt lat="44.254489757143794" lon="15.378140923285006"><ele>150.0</ele><time>2026-05-01T13:11:03Z</time></trkpt><trkpt lat="44.25461317748616" lon="15.377887633311056"><ele>150.0</ele><time>2026-05-01T13:11:04Z</time></trkpt><trkpt lat="44.25474731093169" lon="15.377646057860847"><ele>149.5</ele><time>2026-05-01T13:11:05Z</time></trkpt><trkpt lat="44.25489085282673" lon="15.377404015762663"><ele>149.0</ele><time>2026-05-01T13:11:06Z</time></trkpt><trkpt lat="44.25504324389426" lon="15.377156523773932"><ele>146.5</ele><time>2026-05-01T13:11:07Z</time></trkpt><trkpt lat="44.255204518945945" lon="15.376904263849616"><ele>144.0</ele><time>2026-05-01T13:11:08Z</time></trkpt><trkpt lat="44.25535934381759" lon="15.37664908606404"><ele>144.0</ele><time>2026-05-01T13:11:09Z</time></trkpt><trkpt lat="44.25550434479633" lon="15.376399652279533"><ele>144.0</ele><time>2026-05-01T13:11:10Z</time></trkpt><trkpt lat="44.25565049783517" lon="15.376148075446986"><ele>142.0</ele><time>2026-05-01T13:11:11Z</time></trkpt><trkpt lat="44.255796632087545" lon="15.375905617864207"><ele>140.0</ele><time>2026-05-01T13:11:12Z</time></trkpt><trkpt lat="44.25593479034696" lon="15.375675683548758"><ele>138.0</ele><time>2026-05-01T13:11:13Z</time></trkpt><trkpt lat="44.25606037916346" lon="15.375448744026786"><ele>136.66666666666666</ele><time>2026-05-01T13:11:14Z</time></trkpt><trkpt lat="44.2561629840488" lon="15.375207838523265"><ele>135.33333333333331</ele><time>2026-05-01T13:11:15Z</time></trkpt><trkpt lat="44.2562257618029" lon="15.37495218911396"><ele>134.0</ele><time>2026-05-01T13:11:16Z</time></trkpt><trkpt lat="44.25624660178277" lon="15.374689550375335"><ele>134.0</ele><time>2026-05-01T13:11:17Z</time></trkpt><trkpt lat="44.25623904860067" lon="15.37443129585436"><ele>134.0</ele><time>2026-05-01T13:11:18Z</time></trkpt><trkpt lat="44.25621536888163" lon="15.374172671033758"><ele>134.0</ele><time>2026-05-01T13:11:19Z</time></trkpt><trkpt lat="44.256181057339774" lon="15.37391428679893"><ele>135.0</ele><time>2026-05-01T13:11:20Z</time></trkpt><trkpt lat="44.256147537699" lon="15.373646088890512"><ele>136.0</ele><time>2026-05-01T13:11:21Z</time></trkpt><trkpt lat="44.25613220286889" lon="15.373364694357699"><ele>137.0</ele><time>2026-05-01T13:11:22Z</time></trkpt><trkpt lat="44.25618133010022" lon="15.373081019379633"><ele>136.0</ele><time>2026-05-01T13:11:23Z</time></trkpt><trkpt lat="44.25625480769815" lon="15.372806988678523"><ele>135.0</ele><time>2026-05-01T13:11:24Z</time></trkpt><trkpt lat="44.25636402515259" lon="15.372560242681336"><ele>134.0</ele><time>2026-05-01T13:11:25Z</time></trkpt><trkpt lat="44.256500878104205" lon="15.372340268825534"><ele>134.0</ele><time>2026-05-01T13:11:26Z</time></trkpt><trkpt lat="44.25664255054383" lon="15.372126550737747"><ele>134.0</ele><time>2026-05-01T13:11:27Z</time></trkpt><trkpt lat="44.256781507288224" lon="15.371917368437359"><ele>134.0</ele><time>2026-05-01T13:11:28Z</time></trkpt><trkpt lat="44.25692752022318" lon="15.371726832534955"><ele>134.0</ele><time>2026-05-01T13:11:29Z</time></trkpt><trkpt lat="44.25706310314903" lon="15.371523283008642"><ele>134.0</ele><time>2026-05-01T13:11:30Z</time></trkpt><trkpt lat="44.25719591293846" lon="15.371320350839033"><ele>134.0</ele><time>2026-05-01T13:11:31Z</time></trkpt><trkpt lat="44.25732791829187" lon="15.371111209434963"><ele>133.66666666666666</ele><time>2026-05-01T13:11:32Z</time></trkpt><trkpt lat="44.2574500832464" lon="15.37089669432239"><ele>133.33333333333334</ele><time>2026-05-01T13:11:33Z</time></trkpt><trkpt lat="44.257563951025" lon="15.370675320186123"><ele>133.0</ele><time>2026-05-01T13:11:34Z</time></trkpt><trkpt lat="44.257690268796615" lon="15.37046629088615"><ele>133.0</ele><time>2026-05-01T13:11:35Z</time></trkpt><trkpt lat="44.25781294323803" lon="15.370247994598913"><ele>133.0</ele><time>2026-05-01T13:11:36Z</time></trkpt><trkpt lat="44.25788229975105" lon="15.369978014360004"><ele>133.0</ele><time>2026-05-01T13:11:37Z</time></trkpt><trkpt lat="44.2579863803156" lon="15.369752994174913"><ele>132.33333333333334</ele><time>2026-05-01T13:11:38Z</time></trkpt><trkpt lat="44.25808684871595" lon="15.369533977092773"><ele>131.66666666666666</ele><time>2026-05-01T13:11:39Z</time></trkpt><trkpt lat="44.258185921087374" lon="15.369319446103734"><ele>131.0</ele><time>2026-05-01T13:11:40Z</time></trkpt><trkpt lat="44.25827971835056" lon="15.369115234043075"><ele>134.0</ele><time>2026-05-01T13:11:41Z</time></trkpt><trkpt lat="44.25836949007067" lon="15.36892192776371"><ele>137.0</ele><time>2026-05-01T13:11:42Z</time></trkpt><trkpt lat="44.25845926334786" lon="15.368727684906707"><ele>140.0</ele><time>2026-05-01T13:11:43Z</time></trkpt><trkpt lat="44.25854845752098" lon="15.368532002900015"><ele>140.0</ele><time>2026-05-01T13:11:44Z</time></trkpt><trkpt lat="44.25863337005279" lon="15.368344404940407"><ele>140.0</ele><time>2026-05-01T13:11:45Z</time></trkpt><trkpt lat="44.258717973374615" lon="15.368163131722694"><ele>140.0</ele><time>2026-05-01T13:11:46Z</time></trkpt><trkpt lat="44.25880700135729" lon="15.36798409809895"><ele>140.33333333333331</ele><time>2026-05-01T13:11:47Z</time></trkpt><trkpt lat="44.25889997421429" lon="15.367804279460202"><ele>140.66666666666666</ele><time>2026-05-01T13:11:48Z</time></trkpt><trkpt lat="44.25899675295385" lon="15.367626991857838"><ele>141.0</ele><time>2026-05-01T13:11:49Z</time></trkpt><trkpt lat="44.2590945569084" lon="15.367455182802882"><ele>141.0</ele><time>2026-05-01T13:11:50Z</time></trkpt><trkpt lat="44.259194147400876" lon="15.367287163686141"><ele>141.0</ele><time>2026-05-01T13:11:51Z</time></trkpt><trkpt lat="44.25930307098895" lon="15.367109187202104"><ele>141.0</ele><time>2026-05-01T13:11:52Z</time></trkpt><trkpt lat="44.25941782379308" lon="15.366922867784002"><ele>139.33333333333334</ele><time>2026-05-01T13:11:53Z</time></trkpt><trkpt lat="44.25953890424937" lon="15.366727603176981"><ele>137.66666666666669</ele><time>2026-05-01T13:11:54Z</time></trkpt><trkpt lat="44.25965970023872" lon="15.366532103826628"><ele>136.0</ele><time>2026-05-01T13:11:55Z</time></trkpt><trkpt lat="44.25978188134326" lon="15.366334712963932"><ele>134.66666666666669</ele><time>2026-05-01T13:11:56Z</time></trkpt><trkpt lat="44.25990386799023" lon="15.366138311595819"><ele>133.33333333333334</ele><time>2026-05-01T13:11:57Z</time></trkpt><trkpt lat="44.26002309305703" lon="15.36594075457393"><ele>132.0</ele><time>2026-05-01T13:11:58Z</time></trkpt><trkpt lat="44.260142055765435" lon="15.365746016308083"><ele>132.0</ele><time>2026-05-01T13:11:59Z</time></trkpt><trkpt lat="44.26025996725107" lon="15.36555243795448"><ele>132.0</ele><time>2026-05-01T13:12:00Z</time></trkpt><trkpt lat="44.2603792360253" lon="15.365354457029154"><ele>132.0</ele><time>2026-05-01T13:12:01Z</time></trkpt><trkpt lat="44.26049882996312" lon="15.365160885594092"><ele>132.33333333333334</ele><time>2026-05-01T13:12:02Z</time></trkpt><trkpt lat="44.260620548663965" lon="15.364964097702435"><ele>132.66666666666669</ele><time>2026-05-01T13:12:03Z</time></trkpt><trkpt lat="44.2607427886893" lon="15.364770280951234"><ele>133.0</ele><time>2026-05-01T13:12:04Z</time></trkpt><trkpt lat="44.260865800328624" lon="15.364568756053277"><ele>133.0</ele><time>2026-05-01T13:12:05Z</time></trkpt><trkpt lat="44.2609909182113" lon="15.364357440690892"><ele>133.0</ele><time>2026-05-01T13:12:06Z</time></trkpt><trkpt lat="44.261125979134704" lon="15.36412749629955"><ele>133.0</ele><time>2026-05-01T13:12:07Z</time></trkpt><trkpt lat="44.26127926422355" lon="15.363865592055404"><ele>131.5</ele><time>2026-05-01T13:12:08Z</time></trkpt><trkpt lat="44.26144601169118" lon="15.363573315436035"><ele>130.0</ele><time>2026-05-01T13:12:09Z</time></trkpt><trkpt lat="44.26163298698456" lon="15.363268940924348"><ele>128.5</ele><time>2026-05-01T13:12:10Z</time></trkpt><trkpt lat="44.261840042627874" lon="15.36293700409753"><ele>127.0</ele><time>2026-05-01T13:12:11Z</time></trkpt><trkpt lat="44.262049879823415" lon="15.362597655828795"><ele>127.0</ele><time>2026-05-01T13:12:12Z</time></trkpt><trkpt lat="44.26224345487296" lon="15.36230008233008"><ele>127.0</ele><time>2026-05-01T13:12:13Z</time></trkpt><trkpt lat="44.262423067887006" lon="15.362042906050108"><ele>126.0</ele><time>2026-05-01T13:12:14Z</time></trkpt><trkpt lat="44.262580883146704" lon="15.361790484710147"><ele>125.0</ele><time>2026-05-01T13:12:15Z</time></trkpt><trkpt lat="44.262711944768526" lon="15.361547996692776"><ele>124.66666666666666</ele><time>2026-05-01T13:12:16Z</time></trkpt><trkpt lat="44.26282201454095" lon="15.361314472807313"><ele>124.33333333333334</ele><time>2026-05-01T13:12:17Z</time></trkpt><trkpt lat="44.262917845142454" lon="15.361049316744277"><ele>124.0</ele><time>2026-05-01T13:12:18Z</time></trkpt><trkpt lat="44.26301642632882" lon="15.360722820100065"><ele>121.0</ele><time>2026-05-01T13:12:19Z</time></trkpt><trkpt lat="44.26314824100914" lon="15.360340001905227"><ele>118.0</ele><time>2026-05-01T13:12:20Z</time></trkpt><trkpt lat="44.26331115697241" lon="15.359921044819691"><ele>117.5</ele><time>2026-05-01T13:12:21Z</time></trkpt><trkpt lat="44.26347817184025" lon="15.359485055597728"><ele>117.0</ele><time>2026-05-01T13:12:22Z</time></trkpt><trkpt lat="44.263637995540286" lon="15.359084280768625"><ele>116.5</ele><time>2026-05-01T13:12:23Z</time></trkpt><trkpt lat="44.263792435092064" lon="15.358718613678903"><ele>116.0</ele><time>2026-05-01T13:12:24Z</time></trkpt><trkpt lat="44.263936026686565" lon="15.35836927829004"><ele>116.0</ele><time>2026-05-01T13:12:25Z</time></trkpt><trkpt lat="44.26406723273213" lon="15.358022551359117"><ele>116.0</ele><time>2026-05-01T13:12:26Z</time></trkpt><trkpt lat="44.26419293387894" lon="15.357690203505966"><ele>116.0</ele><time>2026-05-01T13:12:27Z</time></trkpt><trkpt lat="44.26431335282514" lon="15.357370960451183"><ele>116.0</ele><time>2026-05-01T13:12:28Z</time></trkpt><trkpt lat="44.26443442103254" lon="15.357061731487969"><ele>116.5</ele><time>2026-05-01T13:12:29Z</time></trkpt><trkpt lat="44.2645613233057" lon="15.356745809231361"><ele>117.0</ele><time>2026-05-01T13:12:30Z</time></trkpt><trkpt lat="44.26469677618249" lon="15.356407686298208"><ele>112.0</ele><time>2026-05-01T13:12:31Z</time></trkpt><trkpt lat="44.2648383658263" lon="15.356060137553872"><ele>107.0</ele><time>2026-05-01T13:12:32Z</time></trkpt><trkpt lat="44.26497947330361" lon="15.355715820300253"><ele>106.5</ele><time>2026-05-01T13:12:33Z</time></trkpt><trkpt lat="44.26512284956288" lon="15.355379854495956"><ele>106.0</ele><time>2026-05-01T13:12:34Z</time></trkpt><trkpt lat="44.265255812111576" lon="15.355061749178605"><ele>106.0</ele><time>2026-05-01T13:12:35Z</time></trkpt><trkpt lat="44.265382783297866" lon="15.35475137383632"><ele>106.0</ele><time>2026-05-01T13:12:36Z</time></trkpt><trkpt lat="44.26550620199239" lon="15.354451721755177"><ele>104.5</ele><time>2026-05-01T13:12:37Z</time></trkpt><trkpt lat="44.26562517789482" lon="15.354161795612042"><ele>103.0</ele><time>2026-05-01T13:12:38Z</time></trkpt><trkpt lat="44.26573931712158" lon="15.353883773051251"><ele>102.66666666666667</ele><time>2026-05-01T13:12:39Z</time></trkpt><trkpt lat="44.26585031573224" lon="15.35361839350355"><ele>102.33333333333334</ele><time>2026-05-01T13:12:40Z</time></trkpt><trkpt lat="44.2659625250093" lon="15.35334864869168"><ele>102.0</ele><time>2026-05-01T13:12:41Z</time></trkpt><trkpt lat="44.266076326854005" lon="15.353080645842743"><ele>102.0</ele><time>2026-05-01T13:12:42Z</time></trkpt><trkpt lat="44.266186541259096" lon="15.35281326207607"><ele>102.0</ele><time>2026-05-01T13:12:43Z</time></trkpt><trkpt lat="44.266300432701485" lon="15.352540114549393"><ele>102.0</ele><time>2026-05-01T13:12:44Z</time></trkpt><trkpt lat="44.266410451239345" lon="15.352268368880548"><ele>101.5</ele><time>2026-05-01T13:12:45Z</time></trkpt><trkpt lat="44.266522289612084" lon="15.351995035623274"><ele>101.0</ele><time>2026-05-01T13:12:46Z</time></trkpt><trkpt lat="44.26663645984036" lon="15.351722670375715"><ele>101.0</ele><time>2026-05-01T13:12:47Z</time></trkpt><trkpt lat="44.26674698028281" lon="15.351457243086363"><ele>101.0</ele><time>2026-05-01T13:12:48Z</time></trkpt><trkpt lat="44.26685982802276" lon="15.351190787984919"><ele>101.0</ele><time>2026-05-01T13:12:49Z</time></trkpt><trkpt lat="44.26697513855002" lon="15.350920162945972"><ele>103.0</ele><time>2026-05-01T13:12:50Z</time></trkpt><trkpt lat="44.267093034727154" lon="15.35063648921056"><ele>105.0</ele><time>2026-05-01T13:12:51Z</time></trkpt><trkpt lat="44.267206222419304" lon="15.350351172973497"><ele>102.0</ele><time>2026-05-01T13:12:52Z</time></trkpt><trkpt lat="44.26732643722978" lon="15.35006388052804"><ele>99.0</ele><time>2026-05-01T13:12:53Z</time></trkpt><trkpt lat="44.26745348991926" lon="15.34977374694549"><ele>99.5</ele><time>2026-05-01T13:12:54Z</time></trkpt><trkpt lat="44.26757586461659" lon="15.349489850318411"><ele>100.0</ele><time>2026-05-01T13:12:55Z</time></trkpt><trkpt lat="44.26768623230232" lon="15.349216230281119"><ele>100.0</ele><time>2026-05-01T13:12:56Z</time></trkpt><trkpt lat="44.267790044450436" lon="15.348954864806712"><ele>100.0</ele><time>2026-05-01T13:12:57Z</time></trkpt><trkpt lat="44.267896053094944" lon="15.34869757734863"><ele>100.0</ele><time>2026-05-01T13:12:58Z</time></trkpt><trkpt lat="44.268003273325114" lon="15.348439895826038"><ele>99.66666666666667</ele><time>2026-05-01T13:12:59Z</time></trkpt><trkpt lat="44.26811215378459" lon="15.348175550656238"><ele>99.33333333333334</ele><time>2026-05-01T13:13:00Z</time></trkpt><trkpt lat="44.26822196015539" lon="15.347908148272218"><ele>99.0</ele><time>2026-05-01T13:13:01Z</time></trkpt><trkpt lat="44.268327505712776" lon="15.347653687151231"><ele>99.0</ele><time>2026-05-01T13:13:02Z</time></trkpt><trkpt lat="44.26842411493299" lon="15.347414896975613"><ele>99.0</ele><time>2026-05-01T13:13:03Z</time></trkpt><trkpt lat="44.268526395541336" lon="15.347166251144916"><ele>99.0</ele><time>2026-05-01T13:13:04Z</time></trkpt><trkpt lat="44.26863051294514" lon="15.34691990515736"><ele>99.66666666666666</ele><time>2026-05-01T13:13:05Z</time></trkpt><trkpt lat="44.268739545069714" lon="15.346671126980002"><ele>100.33333333333333</ele><time>2026-05-01T13:13:06Z</time></trkpt><trkpt lat="44.26884715838832" lon="15.346415954356862"><ele>101.0</ele><time>2026-05-01T13:13:07Z</time></trkpt><trkpt lat="44.26895595562801" lon="15.346149878968758"><ele>101.0</ele><time>2026-05-01T13:13:08Z</time></trkpt><trkpt lat="44.26906028597899" lon="15.345889117946154"><ele>101.0</ele><time>2026-05-01T13:13:09Z</time></trkpt><trkpt lat="44.269164957152746" lon="15.345632798389046"><ele>101.0</ele><time>2026-05-01T13:13:10Z</time></trkpt><trkpt lat="44.26926618433317" lon="15.34538342376885"><ele>102.33333333333333</ele><time>2026-05-01T13:13:11Z</time></trkpt><trkpt lat="44.269367155187396" lon="15.345145661608147"><ele>103.66666666666666</ele><time>2026-05-01T13:13:12Z</time></trkpt><trkpt lat="44.26947076809999" lon="15.344912535953817"><ele>105.0</ele><time>2026-05-01T13:13:13Z</time></trkpt><trkpt lat="44.26957203123716" lon="15.344677381830918"><ele>105.33333333333334</ele><time>2026-05-01T13:13:14Z</time></trkpt><trkpt lat="44.269669563761006" lon="15.344436943600432"><ele>105.66666666666667</ele><time>2026-05-01T13:13:15Z</time></trkpt><trkpt lat="44.269765242950214" lon="15.344201975475508"><ele>106.0</ele><time>2026-05-01T13:13:16Z</time></trkpt><trkpt lat="44.26986295892584" lon="15.343968811470557"><ele>105.0</ele><time>2026-05-01T13:13:17Z</time></trkpt><trkpt lat="44.269963630850384" lon="15.343732755469954"><ele>104.0</ele><time>2026-05-01T13:13:18Z</time></trkpt><trkpt lat="44.270069854375684" lon="15.343499239905324"><ele>103.0</ele><time>2026-05-01T13:13:19Z</time></trkpt><trkpt lat="44.27017529159426" lon="15.34326707357811"><ele>102.33333333333334</ele><time>2026-05-01T13:13:20Z</time></trkpt><trkpt lat="44.2702801860058" lon="15.343035842496121"><ele>101.66666666666666</ele><time>2026-05-01T13:13:21Z</time></trkpt><trkpt lat="44.270384282619794" lon="15.342808805693402"><ele>101.0</ele><time>2026-05-01T13:13:22Z</time></trkpt><trkpt lat="44.27048923926967" lon="15.34258408174707"><ele>101.0</ele><time>2026-05-01T13:13:23Z</time></trkpt><trkpt lat="44.27059269701446" lon="15.342358431596972"><ele>101.0</ele><time>2026-05-01T13:13:24Z</time></trkpt><trkpt lat="44.27069505968427" lon="15.342131347469968"><ele>101.0</ele><time>2026-05-01T13:13:25Z</time></trkpt><trkpt lat="44.270790230993995" lon="15.341908331752997"><ele>99.0</ele><time>2026-05-01T13:13:26Z</time></trkpt><trkpt lat="44.270883168601934" lon="15.341692027041"><ele>97.0</ele><time>2026-05-01T13:13:27Z</time></trkpt><trkpt lat="44.27098042834792" lon="15.341480036718263"><ele>95.0</ele><time>2026-05-01T13:13:28Z</time></trkpt><trkpt lat="44.271075148081444" lon="15.341269107002523"><ele>94.33333333333334</ele><time>2026-05-01T13:13:29Z</time></trkpt><trkpt lat="44.27116890378836" lon="15.341066433088937"><ele>93.66666666666667</ele><time>2026-05-01T13:13:30Z</time></trkpt><trkpt lat="44.27126094977889" lon="15.340867511205525"><ele>93.0</ele><time>2026-05-01T13:13:31Z</time></trkpt><trkpt lat="44.2713496805737" lon="15.340674451265539"><ele>93.0</ele><time>2026-05-01T13:13:32Z</time></trkpt><trkpt lat="44.27143603369773" lon="15.340485922054773"><ele>93.0</ele><time>2026-05-01T13:13:33Z</time></trkpt><trkpt lat="44.27152022096297" lon="15.340304262725171"><ele>93.0</ele><time>2026-05-01T13:13:34Z</time></trkpt><trkpt lat="44.271603993140765" lon="15.340120900862736"><ele>93.0</ele><time>2026-05-01T13:13:35Z</time></trkpt><trkpt lat="44.271685468033894" lon="15.339946784321638"><ele>93.0</ele><time>2026-05-01T13:13:36Z</time></trkpt><trkpt lat="44.27176442118396" lon="15.339779662284835"><ele>93.0</ele><time>2026-05-01T13:13:37Z</time></trkpt><trkpt lat="44.271839029217624" lon="15.339622060811585"><ele>93.0</ele><time>2026-05-01T13:13:38Z</time></trkpt><trkpt lat="44.271911736104485" lon="15.339468653229472"><ele>91.75</ele><time>2026-05-01T13:13:39Z</time></trkpt><trkpt lat="44.27197893582034" lon="15.339324744744937"><ele>90.5</ele><time>2026-05-01T13:13:40Z</time></trkpt><trkpt lat="44.27204568408635" lon="15.339186634563568"><ele>89.25</ele><time>2026-05-01T13:13:41Z</time></trkpt><trkpt lat="44.27211036544035" lon="15.339054772718931"><ele>88.0</ele><time>2026-05-01T13:13:42Z</time></trkpt><trkpt lat="44.27217471768078" lon="15.338933847573793"><ele>87.80000000000001</ele><time>2026-05-01T13:13:43Z</time></trkpt><trkpt lat="44.27224132653758" lon="15.3388215480938"><ele>87.6</ele><time>2026-05-01T13:13:44Z</time></trkpt><trkpt lat="44.27231008032756" lon="15.338726439777977"><ele>87.4</ele><time>2026-05-01T13:13:45Z</time></trkpt><trkpt lat="44.27238511351311" lon="15.338642398189062"><ele>87.19999999999999</ele><time>2026-05-01T13:13:46Z</time></trkpt><trkpt lat="44.27242937850638" lon="15.338535318582082"><ele>87.0</ele><time>2026-05-01T13:13:47Z</time></trkpt><trkpt lat="44.27248110861642" lon="15.338432837670602"><ele>86.75</ele><time>2026-05-01T13:13:48Z</time></trkpt><trkpt lat="44.272508633900536" lon="15.338295574552838"><ele>86.5</ele><time>2026-05-01T13:13:49Z</time></trkpt><trkpt lat="44.27253545518291" lon="15.338132551744357"><ele>86.25</ele><time>2026-05-01T13:13:50Z</time></trkpt><trkpt lat="44.272608461811835" lon="15.337968279515449"><ele>86.0</ele><time>2026-05-01T13:13:51Z</time></trkpt><trkpt lat="44.272710654603095" lon="15.337776716134869"><ele>85.66666666666667</ele><time>2026-05-01T13:13:52Z</time></trkpt><trkpt lat="44.27282003960196" lon="15.337557446812747"><ele>85.33333333333333</ele><time>2026-05-01T13:13:53Z</time></trkpt><trkpt lat="44.27293623725292" lon="15.337313655458335"><ele>85.0</ele><time>2026-05-01T13:13:54Z</time></trkpt><trkpt lat="44.27305592406942" lon="15.337063274885258"><ele>84.66666666666666</ele><time>2026-05-01T13:13:55Z</time></trkpt><trkpt lat="44.27317368535306" lon="15.336821430874561"><ele>84.33333333333333</ele><time>2026-05-01T13:13:56Z</time></trkpt><trkpt lat="44.27328457092655" lon="15.33659604755963"><ele>84.0</ele><time>2026-05-01T13:13:57Z</time></trkpt><trkpt lat="44.27339160531228" lon="15.336379118157865"><ele>83.33333333333333</ele><time>2026-05-01T13:13:58Z</time></trkpt><trkpt lat="44.27350011203299" lon="15.33616577167711"><ele>82.66666666666666</ele><time>2026-05-01T13:13:59Z</time></trkpt><trkpt lat="44.27360691551977" lon="15.335953460189867"><ele>82.0</ele><time>2026-05-01T13:14:00Z</time></trkpt><trkpt lat="44.273713422404605" lon="15.335742880109859"><ele>81.33333333333333</ele><time>2026-05-01T13:14:01Z</time></trkpt><trkpt lat="44.27381580374729" lon="15.335539695772813"><ele>80.66666666666667</ele><time>2026-05-01T13:14:02Z</time></trkpt><trkpt lat="44.27391776043239" lon="15.335337452984438"><ele>80.0</ele><time>2026-05-01T13:14:03Z</time></trkpt><trkpt lat="44.27402080291572" lon="15.33513174791611"><ele>80.0</ele><time>2026-05-01T13:14:04Z</time></trkpt><trkpt lat="44.27412433945415" lon="15.334924734615019"><ele>80.0</ele><time>2026-05-01T13:14:05Z</time></trkpt><trkpt lat="44.27423045259914" lon="15.334712759308001"><ele>80.0</ele><time>2026-05-01T13:14:06Z</time></trkpt><trkpt lat="44.27434000883137" lon="15.334498159253748"><ele>78.0</ele><time>2026-05-01T13:14:07Z</time></trkpt><trkpt lat="44.27445085558049" lon="15.334283203503652"><ele>76.0</ele><time>2026-05-01T13:14:08Z</time></trkpt><trkpt lat="44.274561787746684" lon="15.334067299892933"><ele>74.0</ele><time>2026-05-01T13:14:09Z</time></trkpt><trkpt lat="44.27466988043772" lon="15.333849797922314"><ele>73.0</ele><time>2026-05-01T13:14:10Z</time></trkpt><trkpt lat="44.27477516583059" lon="15.333631001489973"><ele>72.0</ele><time>2026-05-01T13:14:11Z</time></trkpt><trkpt lat="44.27487956116431" lon="15.33341984924546"><ele>71.0</ele><time>2026-05-01T13:14:12Z</time></trkpt><trkpt lat="44.274988248524046" lon="15.333202378140653"><ele>69.0</ele><time>2026-05-01T13:14:13Z</time></trkpt><trkpt lat="44.275098724271636" lon="15.33297749122408"><ele>67.0</ele><time>2026-05-01T13:14:14Z</time></trkpt><trkpt lat="44.27521158896838" lon="15.332756249898152"><ele>65.0</ele><time>2026-05-01T13:14:15Z</time></trkpt><trkpt lat="44.27532426912917" lon="15.332537124633904"><ele>65.0</ele><time>2026-05-01T13:14:16Z</time></trkpt><trkpt lat="44.27543475409318" lon="15.332319423176779"><ele>65.0</ele><time>2026-05-01T13:14:17Z</time></trkpt><trkpt lat="44.275547942821284" lon="15.332094307492657"><ele>65.0</ele><time>2026-05-01T13:14:18Z</time></trkpt><trkpt lat="44.27566366458282" lon="15.331862275305353"><ele>64.0</ele><time>2026-05-01T13:14:19Z</time></trkpt><trkpt lat="44.27577769960907" lon="15.331624280060604"><ele>63.0</ele><time>2026-05-01T13:14:20Z</time></trkpt><trkpt lat="44.275886283255204" lon="15.331375261271987"><ele>62.0</ele><time>2026-05-01T13:14:21Z</time></trkpt><trkpt lat="44.27598301712768" lon="15.331108930414965"><ele>62.0</ele><time>2026-05-01T13:14:22Z</time></trkpt><trkpt lat="44.27605907476752" lon="15.330832835872393"><ele>62.0</ele><time>2026-05-01T13:14:23Z</time></trkpt><trkpt lat="44.27612590169005" lon="15.330549760767742"><ele>62.0</ele><time>2026-05-01T13:14:24Z</time></trkpt><trkpt lat="44.27619074533284" lon="15.33027105337147"><ele>62.0</ele><time>2026-05-01T13:14:25Z</time></trkpt><trkpt lat="44.27625979512313" lon="15.330006514958713"><ele>62.0</ele><time>2026-05-01T13:14:26Z</time></trkpt><trkpt lat="44.27633330511159" lon="15.329747506842885"><ele>62.0</ele><time>2026-05-01T13:14:27Z</time></trkpt><trkpt lat="44.27642048219825" lon="15.329486098246067"><ele>62.333333333333336</ele><time>2026-05-01T13:14:28Z</time></trkpt><trkpt lat="44.27652338051316" lon="15.32923995481465"><ele>62.66666666666667</ele><time>2026-05-01T13:14:29Z</time></trkpt><trkpt lat="44.27664136505232" lon="15.32900170718996"><ele>63.0</ele><time>2026-05-01T13:14:30Z</time></trkpt><trkpt lat="44.27676831675737" lon="15.328758853377137"><ele>63.0</ele><time>2026-05-01T13:14:31Z</time></trkpt><trkpt lat="44.27689586393712" lon="15.328519045135144"><ele>63.0</ele><time>2026-05-01T13:14:32Z</time></trkpt><trkpt lat="44.27701915876858" lon="15.328290315661686"><ele>63.0</ele><time>2026-05-01T13:14:33Z</time></trkpt><trkpt lat="44.277142042838335" lon="15.328056318959186"><ele>63.33333333333333</ele><time>2026-05-01T13:14:34Z</time></trkpt><trkpt lat="44.27726007484825" lon="15.327830213115943"><ele>63.666666666666664</ele><time>2026-05-01T13:14:35Z</time></trkpt><trkpt lat="44.27737935086555" lon="15.327602192793838"><ele>64.0</ele><time>2026-05-01T13:14:36Z</time></trkpt><trkpt lat="44.27749598183599" lon="15.327373375408396"><ele>62.33333333333333</ele><time>2026-05-01T13:14:37Z</time></trkpt><trkpt lat="44.27761169798928" lon="15.327148811264587"><ele>60.66666666666667</ele><time>2026-05-01T13:14:38Z</time></trkpt><trkpt lat="44.27772697995942" lon="15.326922458402432"><ele>59.0</ele><time>2026-05-01T13:14:39Z</time></trkpt><trkpt lat="44.277844321256524" lon="15.3266924467219"><ele>59.0</ele><time>2026-05-01T13:14:40Z</time></trkpt><trkpt lat="44.27796181589647" lon="15.326462561175457"><ele>59.0</ele><time>2026-05-01T13:14:41Z</time></trkpt><trkpt lat="44.27807838953117" lon="15.32623614748987"><ele>59.0</ele><time>2026-05-01T13:14:42Z</time></trkpt><trkpt lat="44.27819580931798" lon="15.326002849775714"><ele>57.66666666666667</ele><time>2026-05-01T13:14:43Z</time></trkpt><trkpt lat="44.27830895793981" lon="15.325775658002366"><ele>56.33333333333333</ele><time>2026-05-01T13:14:44Z</time></trkpt><trkpt lat="44.278420225988974" lon="15.325555648042943"><ele>55.0</ele><time>2026-05-01T13:14:45Z</time></trkpt><trkpt lat="44.278528489934146" lon="15.325343330135318"><ele>53.0</ele><time>2026-05-01T13:14:46Z</time></trkpt><trkpt lat="44.278637956182884" lon="15.325134897100376"><ele>51.0</ele><time>2026-05-01T13:14:47Z</time></trkpt><trkpt lat="44.278755130174545" lon="15.324912043653828"><ele>49.0</ele><time>2026-05-01T13:14:48Z</time></trkpt><trkpt lat="44.27887291225464" lon="15.324684544609397"><ele>47.666666666666664</ele><time>2026-05-01T13:14:49Z</time></trkpt><trkpt lat="44.278986254506975" lon="15.32446352902628"><ele>46.33333333333333</ele><time>2026-05-01T13:14:50Z</time></trkpt><trkpt lat="44.27910227950664" lon="15.324246675956232"><ele>45.0</ele><time>2026-05-01T13:14:51Z</time></trkpt><trkpt lat="44.27922611340889" lon="15.324033658089416"><ele>43.666666666666664</ele><time>2026-05-01T13:14:52Z</time></trkpt><trkpt lat="44.27935680125464" lon="15.323830081575053"><ele>42.33333333333333</ele><time>2026-05-01T13:14:53Z</time></trkpt><trkpt lat="44.279491205743" lon="15.323632497586042"><ele>41.0</ele><time>2026-05-01T13:14:54Z</time></trkpt><trkpt lat="44.27962991869565" lon="15.323430637799074"><ele>40.666666666666664</ele><time>2026-05-01T13:14:55Z</time></trkpt><trkpt lat="44.27976792825658" lon="15.3232271729279"><ele>40.333333333333336</ele><time>2026-05-01T13:14:56Z</time></trkpt><trkpt lat="44.27990988348923" lon="15.323015792665572"><ele>40.0</ele><time>2026-05-01T13:14:57Z</time></trkpt><trkpt lat="44.28005131324344" lon="15.322808433439485"><ele>40.0</ele><time>2026-05-01T13:14:58Z</time></trkpt><trkpt lat="44.28019283990389" lon="15.322597769040623"><ele>40.0</ele><time>2026-05-01T13:14:59Z</time></trkpt><trkpt lat="44.28033374887314" lon="15.32239096269196"><ele>40.0</ele><time>2026-05-01T13:15:00Z</time></trkpt><trkpt lat="44.28047283070219" lon="15.322182663835346"><ele>39.66666666666667</ele><time>2026-05-01T13:15:01Z</time></trkpt><trkpt lat="44.280612374630664" lon="15.321973279441776"><ele>39.333333333333336</ele><time>2026-05-01T13:15:02Z</time></trkpt><trkpt lat="44.28074660777081" lon="15.321772088921936"><ele>39.0</ele><time>2026-05-01T13:15:03Z</time></trkpt><trkpt lat="44.28087943028881" lon="15.321583496435384"><ele>39.0</ele><time>2026-05-01T13:15:04Z</time></trkpt><trkpt lat="44.281015172177675" lon="15.321406393490854"><ele>39.0</ele><time>2026-05-01T13:15:05Z</time></trkpt><trkpt lat="44.281165079044314" lon="15.321260207095065"><ele>39.0</ele><time>2026-05-01T13:15:06Z</time></trkpt><trkpt lat="44.28133261283215" lon="15.321143458692136"><ele>36.333333333333336</ele><time>2026-05-01T13:15:07Z</time></trkpt><trkpt lat="44.281520517935576" lon="15.32109905037686"><ele>33.66666666666667</ele><time>2026-05-01T13:15:08Z</time></trkpt><trkpt lat="44.28170353474143" lon="15.321043175215841"><ele>31.0</ele><time>2026-05-01T13:15:09Z</time></trkpt><trkpt lat="44.281893616793" lon="15.321031116800967"><ele>31.0</ele><time>2026-05-01T13:15:10Z</time></trkpt><trkpt lat="44.282087538405506" lon="15.321015822623055"><ele>31.0</ele><time>2026-05-01T13:15:11Z</time></trkpt><trkpt lat="44.28227772880885" lon="15.320988720564035"><ele>31.0</ele><time>2026-05-01T13:15:12Z</time></trkpt><trkpt lat="44.282469692282184" lon="15.320942409556322"><ele>31.666666666666668</ele><time>2026-05-01T13:15:13Z</time></trkpt><trkpt lat="44.28266092186824" lon="15.320859743538062"><ele>32.333333333333336</ele><time>2026-05-01T13:15:14Z</time></trkpt><trkpt lat="44.28283877658689" lon="15.32072836605801"><ele>33.0</ele><time>2026-05-01T13:15:15Z</time></trkpt><trkpt lat="44.28299377878957" lon="15.32055164468492"><ele>34.666666666666664</ele><time>2026-05-01T13:15:16Z</time></trkpt><trkpt lat="44.2831260397492" lon="15.32034224106948"><ele>36.33333333333333</ele><time>2026-05-01T13:15:17Z</time></trkpt><trkpt lat="44.283233995851226" lon="15.320102584410979"><ele>38.0</ele><time>2026-05-01T13:15:18Z</time></trkpt><trkpt lat="44.28332941260433" lon="15.319851447983764"><ele>37.0</ele><time>2026-05-01T13:15:19Z</time></trkpt><trkpt lat="44.28342576620055" lon="15.319600367169457"><ele>36.0</ele><time>2026-05-01T13:15:20Z</time></trkpt><trkpt lat="44.283521937746855" lon="15.319351894348964"><ele>35.0</ele><time>2026-05-01T13:15:21Z</time></trkpt><trkpt lat="44.28361588571761" lon="15.319123378146015"><ele>34.666666666666664</ele><time>2026-05-01T13:15:22Z</time></trkpt><trkpt lat="44.28371091811503" lon="15.318898071775239"><ele>34.333333333333336</ele><time>2026-05-01T13:15:23Z</time></trkpt><trkpt lat="44.28381133274123" lon="15.318659194959116"><ele>34.0</ele><time>2026-05-01T13:15:24Z</time></trkpt><trkpt lat="44.283904910111474" lon="15.318430147736017"><ele>35.66666666666667</ele><time>2026-05-01T13:15:25Z</time></trkpt><trkpt lat="44.28399669183682" lon="15.318204943226002"><ele>37.333333333333336</ele><time>2026-05-01T13:15:26Z</time></trkpt><trkpt lat="44.28408650290306" lon="15.31797680931954"><ele>39.0</ele><time>2026-05-01T13:15:27Z</time></trkpt><trkpt lat="44.28417831647895" lon="15.317756527586145"><ele>39.0</ele><time>2026-05-01T13:15:28Z</time></trkpt><trkpt lat="44.28427549232938" lon="15.317535360922246"><ele>39.0</ele><time>2026-05-01T13:15:29Z</time></trkpt><trkpt lat="44.28437162831957" lon="15.317309735796972"><ele>39.0</ele><time>2026-05-01T13:15:30Z</time></trkpt><trkpt lat="44.28446726100444" lon="15.317087307151025"><ele>38.666666666666664</ele><time>2026-05-01T13:15:31Z</time></trkpt><trkpt lat="44.284561554668784" lon="15.316863932247893"><ele>38.33333333333333</ele><time>2026-05-01T13:15:32Z</time></trkpt><trkpt lat="44.28465403681068" lon="15.316643893289093"><ele>38.0</ele><time>2026-05-01T13:15:33Z</time></trkpt><trkpt lat="44.28474963061809" lon="15.31642840286111"><ele>40.666666666666664</ele><time>2026-05-01T13:15:34Z</time></trkpt><trkpt lat="44.284846788029945" lon="15.316222367774321"><ele>43.333333333333336</ele><time>2026-05-01T13:15:35Z</time></trkpt><trkpt lat="44.28494549085007" lon="15.316033025112171"><ele>46.0</ele><time>2026-05-01T13:15:36Z</time></trkpt><trkpt lat="44.285045989361755" lon="15.315855884575527"><ele>46.0</ele><time>2026-05-01T13:15:37Z</time></trkpt><trkpt lat="44.28514844735766" lon="15.315694084728868"><ele>46.0</ele><time>2026-05-01T13:15:38Z</time></trkpt><trkpt lat="44.28524835874505" lon="15.315542701997346"><ele>46.0</ele><time>2026-05-01T13:15:39Z</time></trkpt><trkpt lat="44.28535489119894" lon="15.315384359081017"><ele>45.25</ele><time>2026-05-01T13:15:40Z</time></trkpt><trkpt lat="44.28546296493251" lon="15.315230485582584"><ele>44.5</ele><time>2026-05-01T13:15:41Z</time></trkpt><trkpt lat="44.28556632471699" lon="15.315081607894118"><ele>43.75</ele><time>2026-05-01T13:15:42Z</time></trkpt><trkpt lat="44.28566556237625" lon="15.314942392440447"><ele>43.0</ele><time>2026-05-01T13:15:43Z</time></trkpt><trkpt lat="44.28577300977754" lon="15.314824167715816"><ele>41.5</ele><time>2026-05-01T13:15:44Z</time></trkpt><trkpt lat="44.2858779121554" lon="15.314729922019843"><ele>40.0</ele><time>2026-05-01T13:15:45Z</time></trkpt><trkpt lat="44.285985803362216" lon="15.314656768571888"><ele>38.5</ele><time>2026-05-01T13:15:46Z</time></trkpt><trkpt lat="44.28609921711624" lon="15.31460068184735"><ele>37.0</ele><time>2026-05-01T13:15:47Z</time></trkpt><trkpt lat="44.28621151385684" lon="15.314560302548632"><ele>37.0</ele><time>2026-05-01T13:15:48Z</time></trkpt><trkpt lat="44.28630743050141" lon="15.31452898615368"><ele>37.0</ele><time>2026-05-01T13:15:49Z</time></trkpt><trkpt lat="44.286373161148646" lon="15.3145115578702"><ele>37.0</ele><time>2026-05-01T13:15:50Z</time></trkpt><trkpt lat="44.28647101581906" lon="15.314464875888133"><ele>37.0</ele><time>2026-05-01T13:15:52Z</time></trkpt><trkpt lat="44.28653630211302" lon="15.314433787620073"><ele>37.0</ele><time>2026-05-01T13:15:53Z</time></trkpt><trkpt lat="44.28661128528979" lon="15.314401239645157"><ele>37.0</ele><time>2026-05-01T13:15:54Z</time></trkpt><trkpt lat="44.286687524220035" lon="15.314357669744243"><ele>37.0</ele><time>2026-05-01T13:15:55Z</time></trkpt><trkpt lat="44.2867705503326" lon="15.314306849518028"><ele>37.0</ele><time>2026-05-01T13:15:56Z</time></trkpt><trkpt lat="44.286853257484836" lon="15.31425341965859"><ele>37.0</ele><time>2026-05-01T13:15:57Z</time></trkpt><trkpt lat="44.2869338765459" lon="15.314186147460784"><ele>37.0</ele><time>2026-05-01T13:15:58Z</time></trkpt><trkpt lat="44.287009190329485" lon="15.314109095975377"><ele>37.0</ele><time>2026-05-01T13:15:59Z</time></trkpt><trkpt lat="44.28708127955461" lon="15.314020953693829"><ele>37.0</ele><time>2026-05-01T13:16:00Z</time></trkpt><trkpt lat="44.287149170658154" lon="15.313927221133241"><ele>37.0</ele><time>2026-05-01T13:16:01Z</time></trkpt><trkpt lat="44.28721126109764" lon="15.313824159482358"><ele>37.0</ele><time>2026-05-01T13:16:02Z</time></trkpt><trkpt lat="44.28727226014806" lon="15.313710479283287"><ele>37.0</ele><time>2026-05-01T13:16:03Z</time></trkpt><trkpt lat="44.28733916809226" lon="15.313592997662475"><ele>37.0</ele><time>2026-05-01T13:16:04Z</time></trkpt><trkpt lat="44.28741130197743" lon="15.313463038096241"><ele>36.75</ele><time>2026-05-01T13:16:05Z</time></trkpt><trkpt lat="44.28748527625406" lon="15.3133350404333"><ele>36.5</ele><time>2026-05-01T13:16:06Z</time></trkpt><trkpt lat="44.28755893136147" lon="15.313208406011691"><ele>36.25</ele><time>2026-05-01T13:16:07Z</time></trkpt><trkpt lat="44.28763367734998" lon="15.313082595890915"><ele>36.0</ele><time>2026-05-01T13:16:08Z</time></trkpt><trkpt lat="44.287708162836594" lon="15.31294888814585"><ele>36.0</ele><time>2026-05-01T13:16:09Z</time></trkpt><trkpt lat="44.287784851553916" lon="15.31281343117513"><ele>36.0</ele><time>2026-05-01T13:16:10Z</time></trkpt><trkpt lat="44.28786744387662" lon="15.312670582457152"><ele>36.0</ele><time>2026-05-01T13:16:11Z</time></trkpt><trkpt lat="44.28794887441463" lon="15.312529715214968"><ele>36.0</ele><time>2026-05-01T13:16:12Z</time></trkpt><trkpt lat="44.288031681317015" lon="15.31238528826427"><ele>37.0</ele><time>2026-05-01T13:16:13Z</time></trkpt><trkpt lat="44.288117516840266" lon="15.31223571114747"><ele>38.0</ele><time>2026-05-01T13:16:14Z</time></trkpt><trkpt lat="44.28820569658655" lon="15.31208348997532"><ele>39.0</ele><time>2026-05-01T13:16:15Z</time></trkpt><trkpt lat="44.28829396238488" lon="15.311925997963368"><ele>40.0</ele><time>2026-05-01T13:16:16Z</time></trkpt><trkpt lat="44.288385413289284" lon="15.311767129463869"><ele>40.0</ele><time>2026-05-01T13:16:17Z</time></trkpt><trkpt lat="44.28847524846946" lon="15.311604477027672"><ele>40.0</ele><time>2026-05-01T13:16:18Z</time></trkpt><trkpt lat="44.28857190188404" lon="15.311441654085826"><ele>40.0</ele><time>2026-05-01T13:16:19Z</time></trkpt><trkpt lat="44.28866787011635" lon="15.311264468776423"><ele>40.0</ele><time>2026-05-01T13:16:20Z</time></trkpt><trkpt lat="44.2887714830009" lon="15.311082938673168"><ele>40.0</ele><time>2026-05-01T13:16:21Z</time></trkpt><trkpt lat="44.28888168269167" lon="15.310889077070557"><ele>40.0</ele><time>2026-05-01T13:16:22Z</time></trkpt><trkpt lat="44.28899308605133" lon="15.31068703665976"><ele>38.66666666666667</ele><time>2026-05-01T13:16:23Z</time></trkpt><trkpt lat="44.28910344616643" lon="15.310489806203364"><ele>37.333333333333336</ele><time>2026-05-01T13:16:24Z</time></trkpt><trkpt lat="44.289212988263266" lon="15.310295562644937"><ele>36.0</ele><time>2026-05-01T13:16:25Z</time></trkpt><trkpt lat="44.28932744849423" lon="15.310100368689282"><ele>36.0</ele><time>2026-05-01T13:16:26Z</time></trkpt><trkpt lat="44.2894441557693" lon="15.309902850782395"><ele>36.0</ele><time>2026-05-01T13:16:27Z</time></trkpt><trkpt lat="44.28955693100091" lon="15.309707696326102"><ele>36.0</ele><time>2026-05-01T13:16:28Z</time></trkpt><trkpt lat="44.289666673883865" lon="15.309516188506485"><ele>37.0</ele><time>2026-05-01T13:16:29Z</time></trkpt><trkpt lat="44.28977913090819" lon="15.309318025151345"><ele>38.0</ele><time>2026-05-01T13:16:30Z</time></trkpt><trkpt lat="44.289892257444" lon="15.30911911747979"><ele>39.0</ele><time>2026-05-01T13:16:31Z</time></trkpt><trkpt lat="44.29000585279501" lon="15.308921640582664"><ele>37.333333333333336</ele><time>2026-05-01T13:16:32Z</time></trkpt><trkpt lat="44.290121062714" lon="15.30872449589056"><ele>35.66666666666667</ele><time>2026-05-01T13:16:33Z</time></trkpt><trkpt lat="44.29023358196847" lon="15.308526286045183"><ele>34.0</ele><time>2026-05-01T13:16:34Z</time></trkpt><trkpt lat="44.29034366444382" lon="15.308333741672477"><ele>34.0</ele><time>2026-05-01T13:16:35Z</time></trkpt><trkpt lat="44.29044750002406" lon="15.308144165172054"><ele>34.0</ele><time>2026-05-01T13:16:36Z</time></trkpt><trkpt lat="44.29055348160495" lon="15.307954438368267"><ele>34.0</ele><time>2026-05-01T13:16:37Z</time></trkpt><trkpt lat="44.29065831022917" lon="15.307772393182917"><ele>36.0</ele><time>2026-05-01T13:16:38Z</time></trkpt><trkpt lat="44.2907583635502" lon="15.307597428343636"><ele>38.0</ele><time>2026-05-01T13:16:39Z</time></trkpt><trkpt lat="44.29085812000514" lon="15.30742527020032"><ele>40.0</ele><time>2026-05-01T13:16:40Z</time></trkpt><trkpt lat="44.29095589702431" lon="15.30726706680002"><ele>39.0</ele><time>2026-05-01T13:16:41Z</time></trkpt><trkpt lat="44.29104242026042" lon="15.307116509696716"><ele>38.0</ele><time>2026-05-01T13:16:42Z</time></trkpt><trkpt lat="44.29112263475979" lon="15.306976673522705"><ele>37.0</ele><time>2026-05-01T13:16:43Z</time></trkpt><trkpt lat="44.29119998428742" lon="15.306849469951127"><ele>36.0</ele><time>2026-05-01T13:16:44Z</time></trkpt><trkpt lat="44.291280069062346" lon="15.306740784854899"><ele>36.0</ele><time>2026-05-01T13:16:45Z</time></trkpt><trkpt lat="44.291350626251834" lon="15.306664651495076"><ele>36.0</ele><time>2026-05-01T13:16:46Z</time></trkpt><trkpt lat="44.29140696802949" lon="15.306610923737628"><ele>36.0</ele><time>2026-05-01T13:16:47Z</time></trkpt><trkpt lat="44.29146613131325" lon="15.306555765983832"><ele>36.0</ele><time>2026-05-01T13:16:48Z</time></trkpt><trkpt lat="44.291527127255385" lon="15.306506000081704"><ele>36.0</ele><time>2026-05-01T13:16:49Z</time></trkpt><trkpt lat="44.29162560486574" lon="15.306442565143039"><ele>36.0</ele><time>2026-05-01T13:16:51Z</time></trkpt><trkpt lat="44.291611044055635" lon="15.306247362179876"><ele>35.6</ele><time>2026-05-01T13:16:57Z</time></trkpt><trkpt lat="44.29162826297983" lon="15.306125890675123"><ele>35.2</ele><time>2026-05-01T13:16:59Z</time></trkpt><trkpt lat="44.291657046583026" lon="15.305977957759291"><ele>34.8</ele><time>2026-05-01T13:17:01Z</time></trkpt><trkpt lat="44.291709420058005" lon="15.305827732473794"><ele>34.4</ele><time>2026-05-01T13:17:03Z</time></trkpt><trkpt lat="44.29176759099212" lon="15.305668024535613"><ele>34.0</ele><time>2026-05-01T13:17:05Z</time></trkpt><trkpt lat="44.29179936472443" lon="15.305588968363656"><ele>32.5</ele><time>2026-05-01T13:17:06Z</time></trkpt><trkpt lat="44.29182994175506" lon="15.305507430683509"><ele>31.0</ele><time>2026-05-01T13:17:07Z</time></trkpt><trkpt lat="44.29186147217018" lon="15.30542891687528"><ele>29.5</ele><time>2026-05-01T13:17:08Z</time></trkpt><trkpt lat="44.29191005608783" lon="15.305279371182603"><ele>28.0</ele><time>2026-05-01T13:17:10Z</time></trkpt><trkpt lat="44.29191838002193" lon="15.305141651473104"><ele>26.500000000000004</ele><time>2026-05-01T13:17:12Z</time></trkpt><trkpt lat="44.291886045101144" lon="15.305044583649721"><ele>25.0</ele><time>2026-05-01T13:17:17Z</time></trkpt><trkpt lat="44.291860632587095" lon="15.30496042606216"><ele>25.000000000000004</ele><time>2026-05-01T13:17:19Z</time></trkpt><trkpt lat="44.291761688181055" lon="15.304891140603354"><ele>25.0</ele><time>2026-05-01T13:17:21Z</time></trkpt><trkpt lat="44.291668388834715" lon="15.304799606821637"><ele>25.0</ele><time>2026-05-01T13:17:23Z</time></trkpt><trkpt lat="44.291613837845176" lon="15.30474959959568"><ele>25.0</ele><time>2026-05-01T13:17:24Z</time></trkpt><trkpt lat="44.29156036304122" lon="15.304698697625584"><ele>25.000000000000004</ele><time>2026-05-01T13:17:25Z</time></trkpt><trkpt lat="44.29150846649786" lon="15.304646142771038"><ele>25.0</ele><time>2026-05-01T13:17:26Z</time></trkpt><trkpt lat="44.29145744099933" lon="15.304593080056565"><ele>22.714285714285715</ele><time>2026-05-01T13:17:27Z</time></trkpt><trkpt lat="44.2914030583221" lon="15.304532294742135"><ele>20.42857142857143</ele><time>2026-05-01T13:17:28Z</time></trkpt><trkpt lat="44.291350494434695" lon="15.304468017726613"><ele>18.142857142857146</ele><time>2026-05-01T13:17:29Z</time></trkpt><trkpt lat="44.29129863556033" lon="15.30440633259401"><ele>15.857142857142858</ele><time>2026-05-01T13:17:30Z</time></trkpt><trkpt lat="44.29124375715514" lon="15.304340868399185"><ele>13.571428571428573</ele><time>2026-05-01T13:17:31Z</time></trkpt><trkpt lat="44.291190965729605" lon="15.304281383552102"><ele>11.285714285714286</ele><time>2026-05-01T13:17:32Z</time></trkpt><trkpt lat="44.29113426332513" lon="15.304211276811962"><ele>9.0</ele><time>2026-05-01T13:17:33Z</time></trkpt><trkpt lat="44.291081514447455" lon="15.304135536038919"><ele>9.0</ele><time>2026-05-01T13:17:34Z</time></trkpt><trkpt lat="44.29103124694216" lon="15.304063674202656"><ele>9.0</ele><time>2026-05-01T13:17:35Z</time></trkpt><trkpt lat="44.29099017928622" lon="15.303995332673832"><ele>9.0</ele><time>2026-05-01T13:17:36Z</time></trkpt><trkpt lat="44.29092542243028" lon="15.303870090971714"><ele>9.0</ele><time>2026-05-01T13:17:38Z</time></trkpt><trkpt lat="44.29086113949013" lon="15.303755572977915"><ele>9.0</ele><time>2026-05-01T13:17:40Z</time></trkpt><trkpt lat="44.29081283007881" lon="15.303664734632227"><ele>9.0</ele><time>2026-05-01T13:17:42Z</time></trkpt><trkpt lat="44.29077995389502" lon="15.303587010339871"><ele>7.833333333333333</ele><time>2026-05-01T13:17:44Z</time></trkpt><trkpt lat="44.290785188281" lon="15.303464489926307"><ele>6.666666666666667</ele><time>2026-05-01T13:17:47Z</time></trkpt><trkpt lat="44.29085241149893" lon="15.303385808395229"><ele>5.5</ele><time>2026-05-01T13:17:49Z</time></trkpt><trkpt lat="44.290932568632" lon="15.303317777198428"><ele>4.333333333333333</ele><time>2026-05-01T13:17:51Z</time></trkpt><trkpt lat="44.291005858620316" lon="15.303261318853506"><ele>3.1666666666666665</ele><time>2026-05-01T13:17:53Z</time></trkpt><trkpt lat="44.29107505333124" lon="15.303193089294238"><ele>2.0</ele><time>2026-05-01T13:17:55Z</time></trkpt><trkpt lat="44.29113436411434" lon="15.30311460779512"><ele>1.9999999999999998</ele><time>2026-05-01T13:17:57Z</time></trkpt><trkpt lat="44.29119405841321" lon="15.303038455577699"><ele>2.0</ele><time>2026-05-01T13:17:59Z</time></trkpt><trkpt lat="44.29125771037346" lon="15.302962376449461"><ele>2.0</ele><time>2026-05-01T13:18:01Z</time></trkpt><trkpt lat="44.2913241166745" lon="15.302884349162797"><ele>2.0</ele><time>2026-05-01T13:18:03Z</time></trkpt><trkpt lat="44.29138729016364" lon="15.30280672715303"><ele>1.9999999999999998</ele><time>2026-05-01T13:18:05Z</time></trkpt><trkpt lat="44.29146015863732" lon="15.302735429006269"><ele>2.0</ele><time>2026-05-01T13:18:07Z</time></trkpt><trkpt lat="44.29153866418743" lon="15.302642282379969"><ele>2.0</ele><time>2026-05-01T13:18:09Z</time></trkpt><trkpt lat="44.29160743778272" lon="15.302511874605148"><ele>2.0</ele><time>2026-05-01T13:18:11Z</time></trkpt><trkpt lat="44.29166204649372" lon="15.302360246651878"><ele>2.0</ele><time>2026-05-01T13:18:13Z</time></trkpt><trkpt lat="44.29169352235719" lon="15.30223175637355"><ele>2.0</ele><time>2026-05-01T13:18:15Z</time></trkpt><trkpt lat="44.291726433496194" lon="15.302128561050827"><ele>2.0</ele><time>2026-05-01T13:18:17Z</time></trkpt><trkpt lat="44.291745062221096" lon="15.302036061491597"><ele>1.6666666666666665</ele><time>2026-05-01T13:18:19Z</time></trkpt><trkpt lat="44.291784846765204" lon="15.301951242212548"><ele>1.3333333333333333</ele><time>2026-05-01T13:18:22Z</time></trkpt><trkpt lat="44.29183937987603" lon="15.301865325334006"><ele>1.0</ele><time>2026-05-01T13:18:26Z</time></trkpt><trkpt lat="44.2919069407865" lon="15.301761278040576"><ele>0.6666666666666666</ele><time>2026-05-01T13:18:29Z</time></trkpt><trkpt lat="44.29196275731313" lon="15.301683377413072"><ele>0.3333333333333333</ele><time>2026-05-01T13:18:31Z</time></trkpt><trkpt lat="44.29204991624292" lon="15.301670045336992"><ele>0.0</ele><time>2026-05-01T13:18:33Z</time></trkpt><trkpt lat="44.2921189439319" lon="15.301765623325029"><ele>0.0</ele><time>2026-05-01T13:18:35Z</time></trkpt><trkpt lat="44.29215167551939" lon="15.301856505857819"><ele>0.0</ele><time>2026-05-01T13:18:36Z</time></trkpt><trkpt lat="44.29220980149953" lon="15.301950032996219"><ele>0.0</ele><time>2026-05-01T13:18:37Z</time></trkpt><trkpt lat="44.29224870045604" lon="15.302046245663895"><ele>0.0</ele><time>2026-05-01T13:18:38Z</time></trkpt><trkpt lat="44.292280054017695" lon="15.302130684661842"><ele>0.0</ele><time>2026-05-01T13:18:39Z</time></trkpt><trkpt lat="44.2923424415727" lon="15.30226437224833"><ele>0.0</ele><time>2026-05-01T13:18:41Z</time></trkpt><trkpt lat="44.29243694245697" lon="15.302345316920313"><ele>2.2</ele><time>2026-05-01T13:18:43Z</time></trkpt><trkpt lat="44.29255988013158" lon="15.30238517318429"><ele>4.4</ele><time>2026-05-01T13:18:45Z</time></trkpt><trkpt lat="44.29268730539019" lon="15.302455329374698"><ele>6.6000000000000005</ele><time>2026-05-01T13:18:47Z</time></trkpt><trkpt lat="44.29276346592535" lon="15.302499057043368"><ele>8.8</ele><time>2026-05-01T13:18:48Z</time></trkpt><trkpt lat="44.29284411379312" lon="15.30254987274199"><ele>11.0</ele><time>2026-05-01T13:18:49Z</time></trkpt><trkpt lat="44.29292329106825" lon="15.302614152099078"><ele>11.0</ele><time>2026-05-01T13:18:50Z</time></trkpt><trkpt lat="44.2929981941031" lon="15.302682161625814"><ele>11.0</ele><time>2026-05-01T13:18:51Z</time></trkpt><trkpt lat="44.29307692113995" lon="15.302748677219933"><ele>11.0</ele><time>2026-05-01T13:18:52Z</time></trkpt><trkpt lat="44.29314802360928" lon="15.302799533254188"><ele>11.0</ele><time>2026-05-01T13:18:53Z</time></trkpt><trkpt lat="44.29320541081063" lon="15.302837602065651"><ele>11.0</ele><time>2026-05-01T13:18:54Z</time></trkpt><trkpt lat="44.29326052393042" lon="15.302883678972597"><ele>11.0</ele><time>2026-05-01T13:18:56Z</time></trkpt><trkpt lat="44.293336506469494" lon="15.30291427054385"><ele>13.0</ele><time>2026-05-01T13:18:59Z</time></trkpt><trkpt lat="44.29340806331752" lon="15.303056068500833"><ele>15.0</ele><time>2026-05-01T13:19:01Z</time></trkpt><trkpt lat="44.29346361777759" lon="15.30314969643554"><ele>17.0</ele><time>2026-05-01T13:19:02Z</time></trkpt><trkpt lat="44.29352026820295" lon="15.303237640528277"><ele>19.0</ele><time>2026-05-01T13:19:03Z</time></trkpt><trkpt lat="44.293561194329875" lon="15.303330351534552"><ele>21.0</ele><time>2026-05-01T13:19:04Z</time></trkpt><trkpt lat="44.29360794351162" lon="15.303416287540948"><ele>21.5</ele><time>2026-05-01T13:19:05Z</time></trkpt><trkpt lat="44.29366570900346" lon="15.303566598610216"><ele>22.0</ele><time>2026-05-01T13:19:07Z</time></trkpt><trkpt lat="44.29368330898525" lon="15.303651167408566"><ele>22.5</ele><time>2026-05-01T13:19:08Z</time></trkpt><trkpt lat="44.29372984900709" lon="15.303722886559061"><ele>23.0</ele><time>2026-05-01T13:19:09Z</time></trkpt><trkpt lat="44.29376067867506" lon="15.30380885551897"><ele>23.5</ele><time>2026-05-01T13:19:10Z</time></trkpt><trkpt lat="44.29380801283439" lon="15.303899143103912"><ele>24.0</ele><time>2026-05-01T13:19:11Z</time></trkpt><trkpt lat="44.293844101898564" lon="15.303997131556349"><ele>25.0</ele><time>2026-05-01T13:19:12Z</time></trkpt><trkpt lat="44.29388787933612" lon="15.304075891111568"><ele>26.0</ele><time>2026-05-01T13:19:13Z</time></trkpt><trkpt lat="44.293938091927075" lon="15.304146746236677"><ele>27.0</ele><time>2026-05-01T13:19:14Z</time></trkpt><trkpt lat="44.29401184327531" lon="15.304186818838634"><ele>28.0</ele><time>2026-05-01T13:19:15Z</time></trkpt><trkpt lat="44.294078228026024" lon="15.304223605232766"><ele>29.000000000000004</ele><time>2026-05-01T13:19:16Z</time></trkpt><trkpt lat="44.29414770964113" lon="15.30423929636437"><ele>30.0</ele><time>2026-05-01T13:19:17Z</time></trkpt><trkpt lat="44.294208609091704" lon="15.304299091026447"><ele>31.0</ele><time>2026-05-01T13:19:18Z</time></trkpt><trkpt lat="44.29428472488785" lon="15.304318839815636"><ele>32.25</ele><time>2026-05-01T13:19:19Z</time></trkpt><trkpt lat="44.29435984418224" lon="15.304381365137093"><ele>33.5</ele><time>2026-05-01T13:19:21Z</time></trkpt><trkpt lat="44.294292908041584" lon="15.30457838068642"><ele>34.75</ele><time>2026-05-01T13:19:56Z</time></trkpt><trkpt lat="44.294225736988594" lon="15.304715929676732"><ele>36.0</ele><time>2026-05-01T13:19:58Z</time></trkpt><trkpt lat="44.29416419655948" lon="15.304853529295093"><ele>36.0</ele><time>2026-05-01T13:20:00Z</time></trkpt><trkpt lat="44.29409470802227" lon="15.304994845162994"><ele>36.0</ele><time>2026-05-01T13:20:02Z</time></trkpt><trkpt lat="44.2940566345294" lon="15.305073595291072"><ele>36.0</ele><time>2026-05-01T13:20:03Z</time></trkpt><trkpt lat="44.294013908604434" lon="15.305160232075503"><ele>36.0</ele><time>2026-05-01T13:20:04Z</time></trkpt><trkpt lat="44.293963986732265" lon="15.305253002203724"><ele>36.0</ele><time>2026-05-01T13:20:05Z</time></trkpt><trkpt lat="44.29389931800355" lon="15.305345968921623"><ele>36.0</ele><time>2026-05-01T13:20:06Z</time></trkpt><trkpt lat="44.293828314119665" lon="15.30542994742047"><ele>36.0</ele><time>2026-05-01T13:20:07Z</time></trkpt><trkpt lat="44.2937393069096" lon="15.305512172177007"><ele>36.0</ele><time>2026-05-01T13:20:08Z</time></trkpt><trkpt lat="44.29363751161038" lon="15.30558478414421"><ele>36.0</ele><time>2026-05-01T13:20:09Z</time></trkpt><trkpt lat="44.29352852594838" lon="15.305649057387797"><ele>36.0</ele><time>2026-05-01T13:20:10Z</time></trkpt><trkpt lat="44.293404791707815" lon="15.305708292247521"><ele>36.0</ele><time>2026-05-01T13:20:11Z</time></trkpt><trkpt lat="44.293268285151136" lon="15.305757734094517"><ele>36.0</ele><time>2026-05-01T13:20:12Z</time></trkpt><trkpt lat="44.293121711875045" lon="15.305809641658467"><ele>36.0</ele><time>2026-05-01T13:20:13Z</time></trkpt><trkpt lat="44.29297212752031" lon="15.305863138169592"><ele>36.0</ele><time>2026-05-01T13:20:14Z</time></trkpt><trkpt lat="44.29282074529995" lon="15.305919463134419"><ele>36.0</ele><time>2026-05-01T13:20:15Z</time></trkpt><trkpt lat="44.2926746193161" lon="15.305976471854342"><ele>36.0</ele><time>2026-05-01T13:20:16Z</time></trkpt><trkpt lat="44.29252558557352" lon="15.306033648124613"><ele>36.0</ele><time>2026-05-01T13:20:17Z</time></trkpt><trkpt lat="44.29237210957635" lon="15.306098592667198"><ele>35.333333333333336</ele><time>2026-05-01T13:20:18Z</time></trkpt><trkpt lat="44.29222410702802" lon="15.30615504442719"><ele>34.66666666666667</ele><time>2026-05-01T13:20:19Z</time></trkpt><trkpt lat="44.292073151739935" lon="15.306200740132887"><ele>34.0</ele><time>2026-05-01T13:20:20Z</time></trkpt><trkpt lat="44.2919359981081" lon="15.306251670092418"><ele>34.0</ele><time>2026-05-01T13:20:21Z</time></trkpt><trkpt lat="44.291809098901005" lon="15.306297295923496"><ele>34.0</ele><time>2026-05-01T13:20:22Z</time></trkpt><trkpt lat="44.291689744354755" lon="15.306349124555902"><ele>34.0</ele><time>2026-05-01T13:20:23Z</time></trkpt><trkpt lat="44.29158855394393" lon="15.30639945824525"><ele>34.0</ele><time>2026-05-01T13:20:24Z</time></trkpt><trkpt lat="44.291505710378196" lon="15.306454405381027"><ele>34.333333333333336</ele><time>2026-05-01T13:20:25Z</time></trkpt><trkpt lat="44.29143668646825" lon="15.306500558349162"><ele>34.66666666666667</ele><time>2026-05-01T13:20:26Z</time></trkpt><trkpt lat="44.29135820328015" lon="15.30652191993551"><ele>35.0</ele><time>2026-05-01T13:20:28Z</time></trkpt><trkpt lat="44.29128950924071" lon="15.306551089688092"><ele>35.333333333333336</ele><time>2026-05-01T13:20:30Z</time></trkpt><trkpt lat="44.29117759295925" lon="15.306429984645483"><ele>35.666666666666664</ele><time>2026-05-01T13:20:31Z</time></trkpt><trkpt lat="44.29111275116" lon="15.306407273136857"><ele>36.0</ele><time>2026-05-01T13:20:32Z</time></trkpt><trkpt lat="44.29104603760122" lon="15.306376717750917"><ele>34.666666666666664</ele><time>2026-05-01T13:20:33Z</time></trkpt><trkpt lat="44.290977164096645" lon="15.306346721905905"><ele>33.333333333333336</ele><time>2026-05-01T13:20:34Z</time></trkpt><trkpt lat="44.290902762890575" lon="15.306322283471962"><ele>32.0</ele><time>2026-05-01T13:20:35Z</time></trkpt><trkpt lat="44.29082178400227" lon="15.306310678279958"><ele>30.666666666666668</ele><time>2026-05-01T13:20:36Z</time></trkpt><trkpt lat="44.2907390886505" lon="15.306317076473375"><ele>29.333333333333336</ele><time>2026-05-01T13:20:37Z</time></trkpt><trkpt lat="44.290654886322855" lon="15.306334210816367"><ele>28.0</ele><time>2026-05-01T13:20:38Z</time></trkpt><trkpt lat="44.29057399164604" lon="15.306323211480288"><ele>28.166666666666668</ele><time>2026-05-01T13:20:39Z</time></trkpt><trkpt lat="44.290493636071695" lon="15.306364189949768"><ele>28.333333333333336</ele><time>2026-05-01T13:20:40Z</time></trkpt><trkpt lat="44.29041397167438" lon="15.30638837811159"><ele>28.5</ele><time>2026-05-01T13:20:41Z</time></trkpt><trkpt lat="44.29033231705638" lon="15.306414909212059"><ele>28.666666666666664</ele><time>2026-05-01T13:20:42Z</time></trkpt><trkpt lat="44.29025777320529" lon="15.306444068223229"><ele>28.833333333333332</ele><time>2026-05-01T13:20:43Z</time></trkpt><trkpt lat="44.29018173425443" lon="15.306481315704643"><ele>29.0</ele><time>2026-05-01T13:20:44Z</time></trkpt><trkpt lat="44.290111233727764" lon="15.306529706247213"><ele>28.999999999999996</ele><time>2026-05-01T13:20:45Z</time></trkpt><trkpt lat="44.2900449101714" lon="15.306587048170343"><ele>29.0</ele><time>2026-05-01T13:20:46Z</time></trkpt><trkpt lat="44.289978159550095" lon="15.306645162852027"><ele>29.0</ele><time>2026-05-01T13:20:47Z</time></trkpt><trkpt lat="44.289910507438414" lon="15.306709794652075"><ele>29.0</ele><time>2026-05-01T13:20:48Z</time></trkpt><trkpt lat="44.289847521948424" lon="15.306779731431044"><ele>28.999999999999996</ele><time>2026-05-01T13:20:49Z</time></trkpt><trkpt lat="44.28979501789282" lon="15.306856361473535"><ele>29.0</ele><time>2026-05-01T13:20:50Z</time></trkpt><trkpt lat="44.28973434213108" lon="15.30693016000541"><ele>28.499999999999996</ele><time>2026-05-01T13:20:51Z</time></trkpt><trkpt lat="44.28968657410598" lon="15.307020265732588"><ele>28.0</ele><time>2026-05-01T13:20:52Z</time></trkpt><trkpt lat="44.289636566972845" lon="15.307115137647605"><ele>27.5</ele><time>2026-05-01T13:20:53Z</time></trkpt><trkpt lat="44.2896016924909" lon="15.307220224449644"><ele>27.0</ele><time>2026-05-01T13:20:54Z</time></trkpt><trkpt lat="44.28954235507279" lon="15.307293704349268"><ele>26.499999999999996</ele><time>2026-05-01T13:20:55Z</time></trkpt><trkpt lat="44.28950244913358" lon="15.307368507596125"><ele>26.0</ele><time>2026-05-01T13:20:56Z</time></trkpt><trkpt lat="44.28945772306063" lon="15.307452346025364"><ele>26.0</ele><time>2026-05-01T13:20:57Z</time></trkpt><trkpt lat="44.289400766219245" lon="15.307561308623898"><ele>26.0</ele><time>2026-05-01T13:20:58Z</time></trkpt><trkpt lat="44.28933374656984" lon="15.307688384773856"><ele>26.0</ele><time>2026-05-01T13:20:59Z</time></trkpt><trkpt lat="44.289265735954714" lon="15.30781389701325"><ele>26.0</ele><time>2026-05-01T13:21:00Z</time></trkpt><trkpt lat="44.28920559281521" lon="15.307918109742024"><ele>26.0</ele><time>2026-05-01T13:21:01Z</time></trkpt><trkpt lat="44.28915344264287" lon="15.307997947379638"><ele>26.0</ele><time>2026-05-01T13:21:02Z</time></trkpt><trkpt lat="44.28910439514729" lon="15.308058785552214"><ele>26.0</ele><time>2026-05-01T13:21:03Z</time></trkpt><trkpt lat="44.28900602347827" lon="15.3081554651505"><ele>26.0</ele><time>2026-05-01T13:21:05Z</time></trkpt><trkpt lat="44.28890492546237" lon="15.3082844785235"><ele>26.0</ele><time>2026-05-01T13:21:07Z</time></trkpt><trkpt lat="44.28887387583127" lon="15.308390623812368"><ele>26.0</ele><time>2026-05-01T13:21:08Z</time></trkpt><trkpt lat="44.28882587625705" lon="15.308468508114144"><ele>24.999999999999996</ele><time>2026-05-01T13:21:09Z</time></trkpt><trkpt lat="44.28877774601317" lon="15.308535831916542"><ele>24.0</ele><time>2026-05-01T13:21:10Z</time></trkpt><trkpt lat="44.288718700061146" lon="15.308592223516996"><ele>23.0</ele><time>2026-05-01T13:21:11Z</time></trkpt><trkpt lat="44.28864643033664" lon="15.308622557570896"><ele>22.0</ele><time>2026-05-01T13:21:12Z</time></trkpt><trkpt lat="44.28856608326649" lon="15.308613399633554"><ele>21.0</ele><time>2026-05-01T13:21:13Z</time></trkpt><trkpt lat="44.288488390607704" lon="15.30858008409763"><ele>20.0</ele><time>2026-05-01T13:21:14Z</time></trkpt><trkpt lat="44.28840868713955" lon="15.30854693437987"><ele>20.0</ele><time>2026-05-01T13:21:15Z</time></trkpt><trkpt lat="44.28833036960644" lon="15.308497991779069"><ele>20.0</ele><time>2026-05-01T13:21:16Z</time></trkpt><trkpt lat="44.2882584846047" lon="15.308440643091734"><ele>20.0</ele><time>2026-05-01T13:21:17Z</time></trkpt><trkpt lat="44.288203241185194" lon="15.308375330403296"><ele>20.0</ele><time>2026-05-01T13:21:18Z</time></trkpt><trkpt lat="44.28814536439572" lon="15.30831465753407"><ele>20.0</ele><time>2026-05-01T13:21:19Z</time></trkpt><trkpt lat="44.288072955519546" lon="15.308269193838964"><ele>20.0</ele><time>2026-05-01T13:21:20Z</time></trkpt><trkpt lat="44.28800563746227" lon="15.308231382676682"><ele>19.0</ele><time>2026-05-01T13:21:21Z</time></trkpt><trkpt lat="44.28793262583116" lon="15.30820028494391"><ele>18.0</ele><time>2026-05-01T13:21:22Z</time></trkpt><trkpt lat="44.28785466426775" lon="15.308180205530052"><ele>17.0</ele><time>2026-05-01T13:21:23Z</time></trkpt><trkpt lat="44.287778665370425" lon="15.308160537659456"><ele>16.0</ele><time>2026-05-01T13:21:24Z</time></trkpt><trkpt lat="44.287701067595044" lon="15.308137902751916"><ele>15.000000000000002</ele><time>2026-05-01T13:21:25Z</time></trkpt><trkpt lat="44.28762371399229" lon="15.30811332365552"><ele>14.0</ele><time>2026-05-01T13:21:26Z</time></trkpt><trkpt lat="44.287553989009766" lon="15.308091515141898"><ele>13.166666666666668</ele><time>2026-05-01T13:21:27Z</time></trkpt><trkpt lat="44.28748007962618" lon="15.30807052808982"><ele>12.333333333333334</ele><time>2026-05-01T13:21:28Z</time></trkpt><trkpt lat="44.287402538972266" lon="15.308061783689313"><ele>11.5</ele><time>2026-05-01T13:21:29Z</time></trkpt><trkpt lat="44.287319718713405" lon="15.30806685688808"><ele>10.666666666666668</ele><time>2026-05-01T13:21:30Z</time></trkpt><trkpt lat="44.2872284714562" lon="15.308083350014822"><ele>9.833333333333334</ele><time>2026-05-01T13:21:31Z</time></trkpt><trkpt lat="44.287133413240504" lon="15.308080431110811"><ele>9.0</ele><time>2026-05-01T13:21:32Z</time></trkpt><trkpt lat="44.28704671669484" lon="15.30812012012258"><ele>9.0</ele><time>2026-05-01T13:21:33Z</time></trkpt><trkpt lat="44.28696539911554" lon="15.308139614560558"><ele>9.0</ele><time>2026-05-01T13:21:34Z</time></trkpt><trkpt lat="44.28689737685604" lon="15.308151830344748"><ele>9.0</ele><time>2026-05-01T13:21:35Z</time></trkpt><trkpt lat="44.28682199934693" lon="15.308158196902887"><ele>9.0</ele><time>2026-05-01T13:21:36Z</time></trkpt><trkpt lat="44.28674311378766" lon="15.308146583464524"><ele>9.0</ele><time>2026-05-01T13:21:37Z</time></trkpt><trkpt lat="44.28664955489517" lon="15.308130194013163"><ele>9.0</ele><time>2026-05-01T13:21:38Z</time></trkpt><trkpt lat="44.28655314628471" lon="15.308105416366148"><ele>9.0</ele><time>2026-05-01T13:21:39Z</time></trkpt><trkpt lat="44.286462810912155" lon="15.308105241967045"><ele>9.0</ele><time>2026-05-01T13:21:40Z</time></trkpt><trkpt lat="44.28637073090817" lon="15.30812500464502"><ele>9.0</ele><time>2026-05-01T13:21:41Z</time></trkpt><trkpt lat="44.286281734619536" lon="15.308159075469476"><ele>9.0</ele><time>2026-05-01T13:21:42Z</time></trkpt><trkpt lat="44.28619131378097" lon="15.308188417538126"><ele>9.0</ele><time>2026-05-01T13:21:43Z</time></trkpt><trkpt lat="44.286100439066395" lon="15.308207709200301"><ele>7.833333333333333</ele><time>2026-05-01T13:21:44Z</time></trkpt><trkpt lat="44.28601033353146" lon="15.308208939871992"><ele>6.666666666666667</ele><time>2026-05-01T13:21:45Z</time></trkpt><trkpt lat="44.28592861898647" lon="15.308202822399874"><ele>5.5</ele><time>2026-05-01T13:21:46Z</time></trkpt><trkpt lat="44.285851388619314" lon="15.308212678463624"><ele>4.333333333333333</ele><time>2026-05-01T13:21:47Z</time></trkpt><trkpt lat="44.28578273121826" lon="15.308233777189992"><ele>3.1666666666666665</ele><time>2026-05-01T13:21:48Z</time></trkpt><trkpt lat="44.28571524167875" lon="15.308205772758994"><ele>2.0</ele><time>2026-05-01T13:21:49Z</time></trkpt><trkpt lat="44.28564929845776" lon="15.30815284029551"><ele>1.6666666666666665</ele><time>2026-05-01T13:21:50Z</time></trkpt><trkpt lat="44.28557583766434" lon="15.308094740636966"><ele>1.3333333333333333</ele><time>2026-05-01T13:21:51Z</time></trkpt><trkpt lat="44.28550027782729" lon="15.308032989203468"><ele>1.0</ele><time>2026-05-01T13:21:52Z</time></trkpt><trkpt lat="44.28542381197359" lon="15.307972093085976"><ele>0.6666666666666666</ele><time>2026-05-01T13:21:53Z</time></trkpt><trkpt lat="44.2853517241721" lon="15.307915699478388"><ele>0.3333333333333333</ele><time>2026-05-01T13:21:54Z</time></trkpt><trkpt lat="44.28528144968881" lon="15.307856529220754"><ele>0.0</ele><time>2026-05-01T13:21:55Z</time></trkpt><trkpt lat="44.285211121598515" lon="15.307800594903417"><ele>0.0</ele><time>2026-05-01T13:21:56Z</time></trkpt><trkpt lat="44.28514770115768" lon="15.307754851059093"><ele>0.0</ele><time>2026-05-01T13:21:57Z</time></trkpt><trkpt lat="44.285087913110935" lon="15.307708874268855"><ele>0.0</ele><time>2026-05-01T13:21:58Z</time></trkpt><trkpt lat="44.28503075657528" lon="15.307668566446777"><ele>0.0</ele><time>2026-05-01T13:21:59Z</time></trkpt><trkpt lat="44.284927879633884" lon="15.307600000225285"><ele>0.0</ele><time>2026-05-01T13:22:01Z</time></trkpt><trkpt lat="44.28480633421532" lon="15.307571904652473"><ele>0.0</ele><time>2026-05-01T13:22:03Z</time></trkpt><trkpt lat="44.28472892279284" lon="15.307576883662286"><ele>-0.2</ele><time>2026-05-01T13:22:04Z</time></trkpt><trkpt lat="44.28464429981577" lon="15.30759558910709"><ele>-0.4</ele><time>2026-05-01T13:22:05Z</time></trkpt><trkpt lat="44.28455420102972" lon="15.307574471013089"><ele>-0.6000000000000001</ele><time>2026-05-01T13:22:06Z</time></trkpt><trkpt lat="44.28444758879137" lon="15.307572258111108"><ele>-0.8</ele><time>2026-05-01T13:22:07Z</time></trkpt><trkpt lat="44.28432252525627" lon="15.307561914154102"><ele>-1.0</ele><time>2026-05-01T13:22:08Z</time></trkpt><trkpt lat="44.28418552791487" lon="15.307568240645555"><ele>-1.0</ele><time>2026-05-01T13:22:09Z</time></trkpt><trkpt lat="44.28403231246523" lon="15.307550584219944"><ele>-1.0</ele><time>2026-05-01T13:22:10Z</time></trkpt><trkpt lat="44.28387964136256" lon="15.307522782130832"><ele>-1.0</ele><time>2026-05-01T13:22:11Z</time></trkpt><trkpt lat="44.28373269110451" lon="15.307512063859251"><ele>-1.0</ele><time>2026-05-01T13:22:12Z</time></trkpt><trkpt lat="44.283582850935716" lon="15.307520044791492"><ele>-1.0</ele><time>2026-05-01T13:22:13Z</time></trkpt><trkpt lat="44.28343470324084" lon="15.307480401614397"><ele>-1.0</ele><time>2026-05-01T13:22:14Z</time></trkpt><trkpt lat="44.283293268785926" lon="15.307461387951044"><ele>-1.0</ele><time>2026-05-01T13:22:15Z</time></trkpt><trkpt lat="44.283153599224974" lon="15.307447780865942"><ele>-1.0</ele><time>2026-05-01T13:22:16Z</time></trkpt><trkpt lat="44.2830290757263" lon="15.30743220015758"><ele>-1.0</ele><time>2026-05-01T13:22:17Z</time></trkpt><trkpt lat="44.28291064194345" lon="15.307406237806"><ele>-1.0</ele><time>2026-05-01T13:22:18Z</time></trkpt><trkpt lat="44.282795545079765" lon="15.30736730504715"><ele>-1.0</ele><time>2026-05-01T13:22:19Z</time></trkpt><trkpt lat="44.282683130777514" lon="15.307337923864536"><ele>-1.0</ele><time>2026-05-01T13:22:20Z</time></trkpt><trkpt lat="44.282569210173634" lon="15.307304444085597"><ele>-1.0</ele><time>2026-05-01T13:22:21Z</time></trkpt><trkpt lat="44.28246170091518" lon="15.307263703441336"><ele>-1.0</ele><time>2026-05-01T13:22:22Z</time></trkpt><trkpt lat="44.28236058139266" lon="15.307219508775354"><ele>-1.0</ele><time>2026-05-01T13:22:23Z</time></trkpt><trkpt lat="44.28226135155678" lon="15.307163189961654"><ele>-1.0</ele><time>2026-05-01T13:22:24Z</time></trkpt><trkpt lat="44.28217812562046" lon="15.307085268983846"><ele>-0.8333333333333333</ele><time>2026-05-01T13:22:25Z</time></trkpt><trkpt lat="44.28208870708936" lon="15.307044000989867"><ele>-0.6666666666666666</ele><time>2026-05-01T13:22:26Z</time></trkpt><trkpt lat="44.28201584993247" lon="15.306978244604473"><ele>-0.5</ele><time>2026-05-01T13:22:27Z</time></trkpt><trkpt lat="44.2819431515322" lon="15.306929987903864"><ele>-0.3333333333333333</ele><time>2026-05-01T13:22:28Z</time></trkpt><trkpt lat="44.28187951012344" lon="15.306876424719873"><ele>-0.16666666666666666</ele><time>2026-05-01T13:22:29Z</time></trkpt><trkpt lat="44.28182981599422" lon="15.306816862619373"><ele>0.0</ele><time>2026-05-01T13:22:30Z</time></trkpt><trkpt lat="44.28173996275305" lon="15.306743477321387"><ele>0.0</ele><time>2026-05-01T13:22:32Z</time></trkpt><trkpt lat="44.28167065878968" lon="15.306685136388797"><ele>0.0</ele><time>2026-05-01T13:22:34Z</time></trkpt><trkpt lat="44.28161484204388" lon="15.306636172189723"><ele>0.0</ele><time>2026-05-01T13:22:36Z</time></trkpt><trkpt lat="44.28154731112443" lon="15.306575673354555"><ele>0.0</ele><time>2026-05-01T13:22:39Z</time></trkpt><trkpt lat="44.28147481270178" lon="15.306510724291602"><ele>0.0</ele><time>2026-05-01T13:23:45Z</time></trkpt><trkpt lat="44.281422894736224" lon="15.306460685113796"><ele>0.0</ele><time>2026-05-01T13:23:47Z</time></trkpt><trkpt lat="44.2813520053256" lon="15.306434200677822"><ele>-1.0</ele><time>2026-05-01T13:23:49Z</time></trkpt><trkpt lat="44.281128597705646" lon="15.306711315826028"><ele>-2.0</ele><time>2026-05-01T13:23:51Z</time></trkpt><trkpt lat="44.2810658312078" lon="15.306724134847924"><ele>-3.0</ele><time>2026-05-01T13:23:52Z</time></trkpt><trkpt lat="44.28097457555858" lon="15.306734434611203"><ele>-3.0</ele><time>2026-05-01T13:23:53Z</time></trkpt><trkpt lat="44.2808876162095" lon="15.30675918888482"><ele>-3.0</ele><time>2026-05-01T13:23:54Z</time></trkpt><trkpt lat="44.280797600480156" lon="15.306799832801136"><ele>-3.0</ele><time>2026-05-01T13:23:55Z</time></trkpt><trkpt lat="44.28071728666627" lon="15.306840323134528"><ele>-3.0</ele><time>2026-05-01T13:23:56Z</time></trkpt><trkpt lat="44.28064420492476" lon="15.306879923614796"><ele>-3.0</ele><time>2026-05-01T13:23:57Z</time></trkpt><trkpt lat="44.280570478993425" lon="15.306912006339292"><ele>-3.0</ele><time>2026-05-01T13:23:58Z</time></trkpt><trkpt lat="44.280499905267845" lon="15.306947221920863"><ele>-3.2</ele><time>2026-05-01T13:23:59Z</time></trkpt><trkpt lat="44.28043503304101" lon="15.30699233831932"><ele>-3.4</ele><time>2026-05-01T13:24:00Z</time></trkpt><trkpt lat="44.280366839806156" lon="15.30704383504083"><ele>-3.6000000000000005</ele><time>2026-05-01T13:24:01Z</time></trkpt><trkpt lat="44.280230724398166" lon="15.307076728224903"><ele>-3.8000000000000003</ele><time>2026-05-01T13:24:03Z</time></trkpt><trkpt lat="44.28014696212189" lon="15.307048290290195"><ele>-4.0</ele><time>2026-05-01T13:24:04Z</time></trkpt><trkpt lat="44.280057658794824" lon="15.307005080200161"><ele>-4.0</ele><time>2026-05-01T13:24:05Z</time></trkpt><trkpt lat="44.279970096033004" lon="15.306966189268488"><ele>-4.0</ele><time>2026-05-01T13:24:06Z</time></trkpt><trkpt lat="44.27987843763011" lon="15.306923065315809"><ele>-4.0</ele><time>2026-05-01T13:24:07Z</time></trkpt><trkpt lat="44.279792520836736" lon="15.30686182602885"><ele>-4.0</ele><time>2026-05-01T13:24:08Z</time></trkpt><trkpt lat="44.279707205784874" lon="15.306805658218678"><ele>-4.0</ele><time>2026-05-01T13:24:09Z</time></trkpt><trkpt lat="44.27962820806254" lon="15.306778632720507"><ele>-3.6666666666666665</ele><time>2026-05-01T13:24:10Z</time></trkpt><trkpt lat="44.27955493380543" lon="15.306764956932971"><ele>-3.333333333333333</ele><time>2026-05-01T13:24:11Z</time></trkpt><trkpt lat="44.27947126033863" lon="15.306732115312283"><ele>-3.0</ele><time>2026-05-01T13:24:13Z</time></trkpt><trkpt lat="44.27940613751434" lon="15.306744287957237"><ele>-2.6666666666666665</ele><time>2026-05-01T13:24:15Z</time></trkpt><trkpt lat="44.279317709795954" lon="15.306766640160518"><ele>-2.333333333333333</ele><time>2026-05-01T13:24:17Z</time></trkpt><trkpt lat="44.27922154854455" lon="15.30677824686746"><ele>-2.0</ele><time>2026-05-01T13:24:19Z</time></trkpt><trkpt lat="44.27910380440621" lon="15.306832008563934"><ele>-1.9999999999999998</ele><time>2026-05-01T13:24:21Z</time></trkpt><trkpt lat="44.27898955032592" lon="15.30691216193325"><ele>-2.0</ele><time>2026-05-01T13:24:23Z</time></trkpt><trkpt lat="44.2789320190935" lon="15.306969953826107"><ele>-2.0</ele><time>2026-05-01T13:24:24Z</time></trkpt><trkpt lat="44.278868773353004" lon="15.30703075821302"><ele>-2.0</ele><time>2026-05-01T13:24:25Z</time></trkpt><trkpt lat="44.27879904714706" lon="15.30708659742967"><ele>-1.9999999999999998</ele><time>2026-05-01T13:24:26Z</time></trkpt><trkpt lat="44.2787476755504" lon="15.307156806426178"><ele>-2.0</ele><time>2026-05-01T13:24:27Z</time></trkpt><trkpt lat="44.27870580379906" lon="15.307225922259759"><ele>-1.6666666666666665</ele><time>2026-05-01T13:24:28Z</time></trkpt><trkpt lat="44.278664262037765" lon="15.307296915785608"><ele>-1.3333333333333333</ele><time>2026-05-01T13:24:29Z</time></trkpt><trkpt lat="44.27862858612217" lon="15.307370640382132"><ele>-1.0</ele><time>2026-05-01T13:24:30Z</time></trkpt><trkpt lat="44.27859202068014" lon="15.30744558535726"><ele>-0.6666666666666666</ele><time>2026-05-01T13:24:31Z</time></trkpt><trkpt lat="44.2785108964039" lon="15.307555935447393"><ele>-0.3333333333333333</ele><time>2026-05-01T13:24:33Z</time></trkpt><trkpt lat="44.278420163061526" lon="15.307659059081518"><ele>0.0</ele><time>2026-05-01T13:24:35Z</time></trkpt><trkpt lat="44.278328478834084" lon="15.307748102868212"><ele>0.0</ele><time>2026-05-01T13:24:37Z</time></trkpt><trkpt lat="44.27823810326414" lon="15.307819844282882"><ele>0.0</ele><time>2026-05-01T13:24:39Z</time></trkpt><trkpt lat="44.278147923205616" lon="15.30792719912675"><ele>0.0</ele><time>2026-05-01T13:24:41Z</time></trkpt><trkpt lat="44.27805557016361" lon="15.308027530336142"><ele>0.0</ele><time>2026-05-01T13:24:43Z</time></trkpt><trkpt lat="44.27799752566108" lon="15.30807029647668"><ele>0.0</ele><time>2026-05-01T13:24:44Z</time></trkpt><trkpt lat="44.27790274227482" lon="15.308181409086528"><ele>-0.3333333333333333</ele><time>2026-05-01T13:24:46Z</time></trkpt><trkpt lat="44.27781344341509" lon="15.308304446395962"><ele>-0.6666666666666666</ele><time>2026-05-01T13:24:48Z</time></trkpt><trkpt lat="44.277771621721655" lon="15.308381270052234"><ele>-1.0</ele><time>2026-05-01T13:24:49Z</time></trkpt><trkpt lat="44.277720019728875" lon="15.308436829495554"><ele>-1.3333333333333333</ele><time>2026-05-01T13:24:50Z</time></trkpt><trkpt lat="44.277659475985246" lon="15.308461363599925"><ele>-1.6666666666666665</ele><time>2026-05-01T13:24:51Z</time></trkpt><trkpt lat="44.277596170056455" lon="15.308474895809407"><ele>-2.0</ele><time>2026-05-01T13:24:52Z</time></trkpt><trkpt lat="44.27752730346682" lon="15.308493845307408"><ele>-1.9999999999999998</ele><time>2026-05-01T13:24:53Z</time></trkpt><trkpt lat="44.277420741987264" lon="15.308555535988024"><ele>-2.0</ele><time>2026-05-01T13:24:55Z</time></trkpt><trkpt lat="44.277365701413565" lon="15.308599147525744"><ele>-2.0</ele><time>2026-05-01T13:24:56Z</time></trkpt><trkpt lat="44.277261447650694" lon="15.308678147286615"><ele>-2.0</ele><time>2026-05-01T13:24:58Z</time></trkpt><trkpt lat="44.27720699875877" lon="15.30872900505717"><ele>-1.9999999999999998</ele><time>2026-05-01T13:24:59Z</time></trkpt><trkpt lat="44.27715167710526" lon="15.308772401700844"><ele>-2.0</ele><time>2026-05-01T13:25:00Z</time></trkpt><trkpt lat="44.27704151253632" lon="15.308828820372996"><ele>-1.6</ele><time>2026-05-01T13:25:02Z</time></trkpt><trkpt lat="44.276919541836726" lon="15.3088746319163"><ele>-1.2000000000000002</ele><time>2026-05-01T13:25:04Z</time></trkpt><trkpt lat="44.276847559386695" lon="15.308875477154345"><ele>-0.8</ele><time>2026-05-01T13:25:05Z</time></trkpt><trkpt lat="44.27677764583835" lon="15.308869973675817"><ele>-0.4</ele><time>2026-05-01T13:25:06Z</time></trkpt><trkpt lat="44.276658099739386" lon="15.308883246871442"><ele>0.0</ele><time>2026-05-01T13:25:08Z</time></trkpt><trkpt lat="44.276592385955986" lon="15.308908761482353"><ele>0.0</ele><time>2026-05-01T13:25:09Z</time></trkpt><trkpt lat="44.27652533431691" lon="15.308916569011528"><ele>0.0</ele><time>2026-05-01T13:25:10Z</time></trkpt><trkpt lat="44.27645465691168" lon="15.308901926878411"><ele>0.0</ele><time>2026-05-01T13:25:11Z</time></trkpt><trkpt lat="44.276391652754405" lon="15.308887038031648"><ele>0.0</ele><time>2026-05-01T13:25:12Z</time></trkpt><trkpt lat="44.27632496342667" lon="15.308884264282241"><ele>0.0</ele><time>2026-05-01T13:25:13Z</time></trkpt><trkpt lat="44.27621562841857" lon="15.308872690653573"><ele>0.0</ele><time>2026-05-01T13:25:15Z</time></trkpt><trkpt lat="44.27610530586057" lon="15.308879507851001"><ele>-0.16666666666666666</ele><time>2026-05-01T13:25:17Z</time></trkpt><trkpt lat="44.27603778021543" lon="15.308974162372118"><ele>-0.3333333333333333</ele><time>2026-05-01T13:25:19Z</time></trkpt><trkpt lat="44.27598579220306" lon="15.309059848650806"><ele>-0.5</ele><time>2026-05-01T13:25:21Z</time></trkpt><trkpt lat="44.27593779684488" lon="15.309171927844254"><ele>-0.6666666666666666</ele><time>2026-05-01T13:25:23Z</time></trkpt><trkpt lat="44.275908359881655" lon="15.309301724334496"><ele>-0.8333333333333333</ele><time>2026-05-01T13:25:25Z</time></trkpt><trkpt lat="44.27591526302845" lon="15.30940910053533"><ele>-1.0</ele><time>2026-05-01T13:25:39Z</time></trkpt><trkpt lat="44.275930983637224" lon="15.309521377973493"><ele>-0.9999999999999999</ele><time>2026-05-01T13:25:41Z</time></trkpt><trkpt lat="44.2759439121512" lon="15.30964485696139"><ele>-1.0</ele><time>2026-05-01T13:25:43Z</time></trkpt><trkpt lat="44.275949247824606" lon="15.309745932600524"><ele>-1.0</ele><time>2026-05-01T13:25:45Z</time></trkpt><trkpt lat="44.275984119909644" lon="15.30984034477859"><ele>-1.0</ele><time>2026-05-01T13:25:48Z</time></trkpt><trkpt lat="44.27605315836216" lon="15.309907206527662"><ele>-0.9999999999999999</ele><time>2026-05-01T13:25:50Z</time></trkpt><trkpt lat="44.27612537809838" lon="15.30994452476207"><ele>-1.0</ele><time>2026-05-01T13:25:52Z</time></trkpt><trkpt lat="44.276186152762875" lon="15.310005974427119"><ele>-0.8</ele><time>2026-05-01T13:25:54Z</time></trkpt><trkpt lat="44.27624628953979" lon="15.310112803120736"><ele>-0.6000000000000001</ele><time>2026-05-01T13:25:56Z</time></trkpt><trkpt lat="44.27630948390333" lon="15.310210367005174"><ele>-0.4</ele><time>2026-05-01T13:25:58Z</time></trkpt><trkpt lat="44.276351541321986" lon="15.310302499945903"><ele>-0.2</ele><time>2026-05-01T13:26:00Z</time></trkpt><trkpt lat="44.276377488493154" lon="15.310425396079031"><ele>0.0</ele><time>2026-05-01T13:26:02Z</time></trkpt><trkpt lat="44.27638035129847" lon="15.310565347128502"><ele>0.3333333333333333</ele><time>2026-05-01T13:26:04Z</time></trkpt><trkpt lat="44.276380665806315" lon="15.310687154266509"><ele>0.6666666666666666</ele><time>2026-05-01T13:26:06Z</time></trkpt><trkpt lat="44.276339002549186" lon="15.310798224269513"><ele>1.0</ele><time>2026-05-01T13:26:18Z</time></trkpt><trkpt lat="44.276280818781984" lon="15.310899605745993"><ele>1.3333333333333333</ele><time>2026-05-01T13:26:20Z</time></trkpt><trkpt lat="44.27621715827002" lon="15.310991174256772"><ele>1.6666666666666665</ele><time>2026-05-01T13:26:23Z</time></trkpt><trkpt lat="44.27614075676427" lon="15.310989504633358"><ele>2.0</ele><time>2026-05-01T13:26:25Z</time></trkpt><trkpt lat="44.27607573921366" lon="15.310985428336634"><ele>1.9999999999999998</ele><time>2026-05-01T13:26:27Z</time></trkpt><trkpt lat="44.27599654220785" lon="15.311039270855389"><ele>2.0</ele><time>2026-05-01T13:26:29Z</time></trkpt><trkpt lat="44.275956847205755" lon="15.311116100437747"><ele>2.0</ele><time>2026-05-01T13:26:30Z</time></trkpt><trkpt lat="44.27590839332861" lon="15.311208080291049"><ele>2.0</ele><time>2026-05-01T13:26:31Z</time></trkpt><trkpt lat="44.27586651008127" lon="15.311325085323057"><ele>1.9999999999999998</ele><time>2026-05-01T13:26:32Z</time></trkpt><trkpt lat="44.27581558333277" lon="15.311468977968548"><ele>2.0</ele><time>2026-05-01T13:26:33Z</time></trkpt><trkpt lat="44.27576530814551" lon="15.311597722318014"><ele>2.333333333333333</ele><time>2026-05-01T13:26:34Z</time></trkpt><trkpt lat="44.27572134014686" lon="15.311699874965388"><ele>2.6666666666666665</ele><time>2026-05-01T13:26:35Z</time></trkpt><trkpt lat="44.27566639178912" lon="15.311835344666708"><ele>3.0</ele><time>2026-05-01T13:26:37Z</time></trkpt><trkpt lat="44.27565227090858" lon="15.311921743132036"><ele>3.333333333333333</ele><time>2026-05-01T13:26:41Z</time></trkpt><trkpt lat="44.27570328027235" lon="15.311809576691463"><ele>3.6666666666666665</ele><time>2026-05-01T13:27:57Z</time></trkpt><trkpt lat="44.27574235659517" lon="15.311700092924266"><ele>4.0</ele><time>2026-05-01T13:27:58Z</time></trkpt><trkpt lat="44.27578794119569" lon="15.311585417306668"><ele>3.9999999999999996</ele><time>2026-05-01T13:27:59Z</time></trkpt><trkpt lat="44.27582516941933" lon="15.311501349628196"><ele>4.0</ele><time>2026-05-01T13:28:00Z</time></trkpt><trkpt lat="44.27585947689489" lon="15.311416435088857"><ele>4.0</ele><time>2026-05-01T13:28:01Z</time></trkpt><trkpt lat="44.275897114640046" lon="15.311323741985067"><ele>4.0</ele><time>2026-05-01T13:28:02Z</time></trkpt><trkpt lat="44.27593320126512" lon="15.311231198532045"><ele>3.9999999999999996</ele><time>2026-05-01T13:28:03Z</time></trkpt><trkpt lat="44.27596821166714" lon="15.31113814528834"><ele>4.0</ele><time>2026-05-01T13:28:04Z</time></trkpt><trkpt lat="44.276034462897954" lon="15.311003278495212"><ele>3.6666666666666665</ele><time>2026-05-01T13:28:06Z</time></trkpt><trkpt lat="44.27610599045931" lon="15.310976959696491"><ele>3.333333333333333</ele><time>2026-05-01T13:28:08Z</time></trkpt><trkpt lat="44.27619185328474" lon="15.311020670750016"><ele>3.0</ele><time>2026-05-01T13:28:10Z</time></trkpt><trkpt lat="44.276248612822826" lon="15.311081319993226"><ele>2.6666666666666665</ele><time>2026-05-01T13:28:12Z</time></trkpt><trkpt lat="44.27632138094733" lon="15.311156177295153"><ele>2.333333333333333</ele><time>2026-05-01T13:28:14Z</time></trkpt><trkpt lat="44.2763972683783" lon="15.31124661329173"><ele>2.0</ele><time>2026-05-01T13:28:16Z</time></trkpt><trkpt lat="44.27641787298803" lon="15.311370504134414"><ele>2.333333333333333</ele><time>2026-05-01T13:28:18Z</time></trkpt><trkpt lat="44.276358303569154" lon="15.311479692493364"><ele>2.6666666666666665</ele><time>2026-05-01T13:28:20Z</time></trkpt><trkpt lat="44.27632056047777" lon="15.311558372167331"><ele>3.0</ele><time>2026-05-01T13:28:21Z</time></trkpt><trkpt lat="44.27628652032176" lon="15.311655015058419"><ele>3.333333333333333</ele><time>2026-05-01T13:28:22Z</time></trkpt><trkpt lat="44.276250179153635" lon="15.311744411463193"><ele>3.6666666666666665</ele><time>2026-05-01T13:28:23Z</time></trkpt><trkpt lat="44.27621050805793" lon="15.311831899322277"><ele>4.0</ele><time>2026-05-01T13:28:24Z</time></trkpt><trkpt lat="44.27617367634789" lon="15.31191487551351"><ele>3.9999999999999996</ele><time>2026-05-01T13:28:25Z</time></trkpt><trkpt lat="44.27613851034189" lon="15.311990673814575"><ele>4.0</ele><time>2026-05-01T13:28:26Z</time></trkpt><trkpt lat="44.276123208022874" lon="15.312082296375458"><ele>4.0</ele><time>2026-05-01T13:28:27Z</time></trkpt><trkpt lat="44.27608193098667" lon="15.312249830508495"><ele>4.0</ele><time>2026-05-01T13:28:29Z</time></trkpt><trkpt lat="44.27606290412009" lon="15.312343918470214"><ele>3.9999999999999996</ele><time>2026-05-01T13:28:30Z</time></trkpt><trkpt lat="44.27604444779068" lon="15.312433152927037"><ele>4.0</ele><time>2026-05-01T13:28:31Z</time></trkpt><trkpt lat="44.276008716290946" lon="15.312598092095051"><ele>4.166666666666666</ele><time>2026-05-01T13:28:33Z</time></trkpt><trkpt lat="44.27598587014999" lon="15.312774345173453"><ele>4.333333333333333</ele><time>2026-05-01T13:28:35Z</time></trkpt><trkpt lat="44.27597258271211" lon="15.312875722679692"><ele>4.5</ele><time>2026-05-01T13:28:36Z</time></trkpt><trkpt lat="44.27596321420913" lon="15.31296921678525"><ele>4.666666666666667</ele><time>2026-05-01T13:28:37Z</time></trkpt><trkpt lat="44.27596812940983" lon="15.313061214421888"><ele>4.833333333333334</ele><time>2026-05-01T13:28:38Z</time></trkpt><trkpt lat="44.27597326826575" lon="15.31315410846165"><ele>5.0</ele><time>2026-05-01T13:28:39Z</time></trkpt><trkpt lat="44.2759516345677" lon="15.313237185375353"><ele>5.0</ele><time>2026-05-01T13:28:40Z</time></trkpt><trkpt lat="44.275906373396126" lon="15.313329629990372"><ele>5.0</ele><time>2026-05-01T13:28:41Z</time></trkpt><trkpt lat="44.27584670563233" lon="15.313416058197873"><ele>5.0</ele><time>2026-05-01T13:28:42Z</time></trkpt><trkpt lat="44.27577511243466" lon="15.313502475350496"><ele>5.0</ele><time>2026-05-01T13:28:43Z</time></trkpt><trkpt lat="44.27570398753767" lon="15.313580665414529"><ele>5.0</ele><time>2026-05-01T13:28:44Z</time></trkpt><trkpt lat="44.27563951174936" lon="15.313634221020184"><ele>5.0</ele><time>2026-05-01T13:28:45Z</time></trkpt><trkpt lat="44.27554516598051" lon="15.313699769855681"><ele>5.4</ele><time>2026-05-01T13:28:47Z</time></trkpt><trkpt lat="44.27547544912839" lon="15.313747302643078"><ele>5.8</ele><time>2026-05-01T13:28:49Z</time></trkpt><trkpt lat="44.27535539469039" lon="15.313766045183788"><ele>6.199999999999999</ele><time>2026-05-01T13:28:51Z</time></trkpt><trkpt lat="44.27527560092899" lon="15.313682336688865"><ele>6.6</ele><time>2026-05-01T13:28:52Z</time></trkpt><trkpt lat="44.27516226982709" lon="15.313651373745165"><ele>7.0</ele><time>2026-05-01T13:28:53Z</time></trkpt><trkpt lat="44.275032972771236" lon="15.313617763110802"><ele>7.0</ele><time>2026-05-01T13:28:54Z</time></trkpt><trkpt lat="44.27492238929915" lon="15.313590758754987"><ele>6.999999999999999</ele><time>2026-05-01T13:28:55Z</time></trkpt><trkpt lat="44.27482133746321" lon="15.313571674766104"><ele>6.999999999999999</ele><time>2026-05-01T13:28:56Z</time></trkpt><trkpt lat="44.274721847606294" lon="15.31355378952437"><ele>7.0</ele><time>2026-05-01T13:28:57Z</time></trkpt><trkpt lat="44.27463317074921" lon="15.313536055398387"><ele>7.0</ele><time>2026-05-01T13:28:58Z</time></trkpt><trkpt lat="44.27455681158071" lon="15.313515910176935"><ele>6.833333333333334</ele><time>2026-05-01T13:28:59Z</time></trkpt><trkpt lat="44.274494867239895" lon="15.313476689905187"><ele>6.666666666666667</ele><time>2026-05-01T13:29:00Z</time></trkpt><trkpt lat="44.27437333621183" lon="15.31343668668241"><ele>6.5</ele><time>2026-05-01T13:29:02Z</time></trkpt><trkpt lat="44.27426783059959" lon="15.313398609821704"><ele>6.333333333333334</ele><time>2026-05-01T13:29:04Z</time></trkpt><trkpt lat="44.274198245447906" lon="15.313371092771078"><ele>6.166666666666667</ele><time>2026-05-01T13:29:05Z</time></trkpt><trkpt lat="44.27413485802654" lon="15.313342731360791"><ele>6.0</ele><time>2026-05-01T13:29:06Z</time></trkpt><trkpt lat="44.27404652994378" lon="15.3133101166128"><ele>6.0</ele><time>2026-05-01T13:29:08Z</time></trkpt><trkpt lat="44.27394864735297" lon="15.313246887450266"><ele>6.0</ele><time>2026-05-01T13:29:10Z</time></trkpt><trkpt lat="44.27388433658572" lon="15.313210486177107"><ele>6.0</ele><time>2026-05-01T13:29:11Z</time></trkpt><trkpt lat="44.27379704436566" lon="15.313159412244591"><ele>6.0</ele><time>2026-05-01T13:29:12Z</time></trkpt><trkpt lat="44.27372095617744" lon="15.313112774833906"><ele>6.0</ele><time>2026-05-01T13:29:13Z</time></trkpt><trkpt lat="44.27365039244242" lon="15.313069620658887"><ele>6.0</ele><time>2026-05-01T13:29:14Z</time></trkpt><trkpt lat="44.27353758630115" lon="15.313000410631174"><ele>5.833333333333333</ele><time>2026-05-01T13:29:16Z</time></trkpt><trkpt lat="44.273479510972564" lon="15.312952383654505"><ele>5.666666666666667</ele><time>2026-05-01T13:29:17Z</time></trkpt><trkpt lat="44.27340661940413" lon="15.312920936050146"><ele>5.5</ele><time>2026-05-01T13:29:18Z</time></trkpt><trkpt lat="44.27333725315957" lon="15.312880911473705"><ele>5.333333333333334</ele><time>2026-05-01T13:29:19Z</time></trkpt><trkpt lat="44.273266938474194" lon="15.312859115144148"><ele>5.166666666666667</ele><time>2026-05-01T13:29:20Z</time></trkpt><trkpt lat="44.27320926751107" lon="15.312814713611616"><ele>5.0</ele><time>2026-05-01T13:29:21Z</time></trkpt><trkpt lat="44.273094729206136" lon="15.312783208361154"><ele>6.5</ele><time>2026-05-01T13:29:23Z</time></trkpt><trkpt lat="44.273038756316616" lon="15.312734978735383"><ele>8.0</ele><time>2026-05-01T13:29:24Z</time></trkpt><trkpt lat="44.272943244622816" lon="15.312698268592065"><ele>9.5</ele><time>2026-05-01T13:29:26Z</time></trkpt><trkpt lat="44.272874960421134" lon="15.312662748164511"><ele>11.0</ele><time>2026-05-01T13:29:27Z</time></trkpt><trkpt lat="44.27281027628809" lon="15.312634218122641"><ele>12.500000000000002</ele><time>2026-05-01T13:29:28Z</time></trkpt><trkpt lat="44.272731023022516" lon="15.312596948653233"><ele>14.0</ele><time>2026-05-01T13:29:30Z</time></trkpt><trkpt lat="44.27263480754405" lon="15.312597732815291"><ele>14.000000000000002</ele><time>2026-05-01T13:29:32Z</time></trkpt><trkpt lat="44.27255583841086" lon="15.31259317089319"><ele>14.0</ele><time>2026-05-01T13:29:34Z</time></trkpt><trkpt lat="44.2724609514391" lon="15.312590350796853"><ele>14.0</ele><time>2026-05-01T13:33:34Z</time></trkpt><trkpt lat="44.272394052151114" lon="15.312586200605887"><ele>14.0</ele><time>2026-05-01T13:33:36Z</time></trkpt><trkpt lat="44.272329338238734" lon="15.31265606558684"><ele>14.000000000000002</ele><time>2026-05-01T13:33:39Z</time></trkpt><trkpt lat="44.272304429985525" lon="15.31276835879702"><ele>14.0</ele><time>2026-05-01T13:33:42Z</time></trkpt><trkpt lat="44.27228081071819" lon="15.312885590063134"><ele>16.833333333333336</ele><time>2026-05-01T13:33:45Z</time></trkpt><trkpt lat="44.27222492375804" lon="15.31299424962405"><ele>19.666666666666668</ele><time>2026-05-01T13:33:48Z</time></trkpt><trkpt lat="44.27218916710425" lon="15.313069551253196"><ele>22.5</ele><time>2026-05-01T13:33:50Z</time></trkpt><trkpt lat="44.27214359293115" lon="15.313135953776074"><ele>25.333333333333336</ele><time>2026-05-01T13:33:52Z</time></trkpt><trkpt lat="44.27207673886634" lon="15.313204359943036"><ele>28.166666666666668</ele><time>2026-05-01T13:33:54Z</time></trkpt><trkpt lat="44.27204413458734" lon="15.313333222333366"><ele>31.0</ele><time>2026-05-01T13:33:56Z</time></trkpt><trkpt lat="44.272018486007596" lon="15.31345385142186"><ele>31.166666666666668</ele><time>2026-05-01T13:33:58Z</time></trkpt><trkpt lat="44.2719787334689" lon="15.313563347497022"><ele>31.333333333333336</ele><time>2026-05-01T13:34:01Z</time></trkpt><trkpt lat="44.27194512860558" lon="15.313648355106043"><ele>31.5</ele><time>2026-05-01T13:34:03Z</time></trkpt><trkpt lat="44.271913786151494" lon="15.313724843231785"><ele>31.666666666666664</ele><time>2026-05-01T13:34:05Z</time></trkpt><trkpt lat="44.27189215546984" lon="15.313823830637109"><ele>31.833333333333332</ele><time>2026-05-01T13:34:13Z</time></trkpt><trkpt lat="44.27185060481756" lon="15.313926000114662"><ele>32.0</ele><time>2026-05-01T13:34:20Z</time></trkpt><trkpt lat="44.27180052438701" lon="15.31403135256719"><ele>31.999999999999996</ele><time>2026-05-01T13:34:23Z</time></trkpt><trkpt lat="44.27175660922354" lon="15.314111917564954"><ele>32.0</ele><time>2026-05-01T13:34:32Z</time></trkpt><trkpt lat="44.27171265649709" lon="15.314209361323194"><ele>32.0</ele><time>2026-05-01T13:34:35Z</time></trkpt><trkpt lat="44.27165200194743" lon="15.314286894643251"><ele>32.0</ele><time>2026-05-01T13:34:38Z</time></trkpt><trkpt lat="44.271598913561476" lon="15.314368585240029"><ele>31.999999999999996</ele><time>2026-05-01T13:35:00Z</time></trkpt><trkpt lat="44.27152611935187" lon="15.314443145521645"><ele>32.0</ele><time>2026-05-01T13:35:03Z</time></trkpt><trkpt lat="44.271470686021495" lon="15.314493344317752"><ele>33.0</ele><time>2026-05-01T13:35:05Z</time></trkpt><trkpt lat="44.27141413357832" lon="15.314539677344717"><ele>34.0</ele><time>2026-05-01T13:35:07Z</time></trkpt><trkpt lat="44.271309912588215" lon="15.314610134932929"><ele>35.0</ele><time>2026-05-01T13:35:10Z</time></trkpt><trkpt lat="44.27123110762997" lon="15.31464300717738"><ele>36.0</ele><time>2026-05-01T13:35:12Z</time></trkpt><trkpt lat="44.271156594732425" lon="15.314677899834821"><ele>37.0</ele><time>2026-05-01T13:35:14Z</time></trkpt><trkpt lat="44.27111101630196" lon="15.314752882986316"><ele>38.0</ele><time>2026-05-01T13:35:17Z</time></trkpt><trkpt lat="44.2710388508815" lon="15.314832062846872"><ele>38.0</ele><time>2026-05-01T13:37:36Z</time></trkpt><trkpt lat="44.27097176898122" lon="15.314868769347061"><ele>38.0</ele><time>2026-05-01T13:37:38Z</time></trkpt><trkpt lat="44.27089683073458" lon="15.314848528367255"><ele>38.0</ele><time>2026-05-01T13:37:40Z</time></trkpt><trkpt lat="44.2708149538899" lon="15.314815389463897"><ele>38.0</ele><time>2026-05-01T13:37:42Z</time></trkpt><trkpt lat="44.2706952639132" lon="15.314790142514562"><ele>38.0</ele><time>2026-05-01T13:37:44Z</time></trkpt><trkpt lat="44.27058344357029" lon="15.31477845219337"><ele>40.0</ele><time>2026-05-01T13:37:46Z</time></trkpt><trkpt lat="44.27046580173251" lon="15.314792294360199"><ele>42.0</ele><time>2026-05-01T13:37:48Z</time></trkpt><trkpt lat="44.27039659693986" lon="15.314799246900012"><ele>44.0</ele><time>2026-05-01T13:37:49Z</time></trkpt><trkpt lat="44.27032649293417" lon="15.314815168551233"><ele>46.0</ele><time>2026-05-01T13:37:50Z</time></trkpt><trkpt lat="44.2702316749698" lon="15.314846326810635"><ele>48.0</ele><time>2026-05-01T13:37:52Z</time></trkpt><trkpt lat="44.27009876193853" lon="15.31489317244586"><ele>48.0</ele><time>2026-05-01T13:37:54Z</time></trkpt><trkpt lat="44.270022457141174" lon="15.31492287097815"><ele>48.0</ele><time>2026-05-01T13:37:55Z</time></trkpt><trkpt lat="44.26994723800308" lon="15.314950454822062"><ele>48.0</ele><time>2026-05-01T13:37:56Z</time></trkpt><trkpt lat="44.26982332396935" lon="15.315005568773387"><ele>48.0</ele><time>2026-05-01T13:37:58Z</time></trkpt><trkpt lat="44.26971269540767" lon="15.314996244748134"><ele>48.0</ele><time>2026-05-01T13:38:00Z</time></trkpt><trkpt lat="44.26960898543896" lon="15.314939488149781"><ele>49.42857142857142</ele><time>2026-05-01T13:38:02Z</time></trkpt><trkpt lat="44.2695500439552" lon="15.314887659738655"><ele>50.85714285714286</ele><time>2026-05-01T13:38:03Z</time></trkpt><trkpt lat="44.26950166601339" lon="15.314826901455904"><ele>52.28571428571429</ele><time>2026-05-01T13:38:04Z</time></trkpt><trkpt lat="44.26944967423423" lon="15.31475051687408"><ele>53.714285714285715</ele><time>2026-05-01T13:38:05Z</time></trkpt><trkpt lat="44.26940098792118" lon="15.31467762830095"><ele>55.142857142857146</ele><time>2026-05-01T13:38:06Z</time></trkpt><trkpt lat="44.26935029266546" lon="15.31460272924654"><ele>56.57142857142858</ele><time>2026-05-01T13:38:07Z</time></trkpt><trkpt lat="44.269301067655334" lon="15.314534839198352"><ele>58.00000000000001</ele><time>2026-05-01T13:38:08Z</time></trkpt><trkpt lat="44.26924768445804" lon="15.31446115894913"><ele>58.4</ele><time>2026-05-01T13:38:09Z</time></trkpt><trkpt lat="44.2691938734412" lon="15.314386837258237"><ele>58.8</ele><time>2026-05-01T13:38:10Z</time></trkpt><trkpt lat="44.269144420591836" lon="15.314317899933366"><ele>59.2</ele><time>2026-05-01T13:38:11Z</time></trkpt><trkpt lat="44.269097768774074" lon="15.31425355571993"><ele>59.6</ele><time>2026-05-01T13:38:12Z</time></trkpt><trkpt lat="44.269008149066444" lon="15.314135764196932"><ele>60.0</ele><time>2026-05-01T13:38:14Z</time></trkpt><trkpt lat="44.26897963732277" lon="15.313970684774187"><ele>60.6</ele><time>2026-05-01T13:38:16Z</time></trkpt><trkpt lat="44.268950521871425" lon="15.313817342014854"><ele>61.2</ele><time>2026-05-01T13:38:18Z</time></trkpt><trkpt lat="44.268939335496526" lon="15.313708999471508"><ele>61.8</ele><time>2026-05-01T13:38:20Z</time></trkpt><trkpt lat="44.268927837768594" lon="15.313583459763997"><ele>62.4</ele><time>2026-05-01T13:38:22Z</time></trkpt><trkpt lat="44.268903889181566" lon="15.313440744414887"><ele>63.0</ele><time>2026-05-01T13:38:24Z</time></trkpt><trkpt lat="44.26888058546731" lon="15.313311843905836"><ele>63.0</ele><time>2026-05-01T13:38:26Z</time></trkpt><trkpt lat="44.26886599707433" lon="15.313157426056248"><ele>63.0</ele><time>2026-05-01T13:38:28Z</time></trkpt><trkpt lat="44.26886659266846" lon="15.313012440288343"><ele>63.0</ele><time>2026-05-01T13:38:30Z</time></trkpt><trkpt lat="44.26884861659861" lon="15.312887695048389"><ele>63.0</ele><time>2026-05-01T13:38:32Z</time></trkpt><trkpt lat="44.2688393525291" lon="15.312778441883081"><ele>63.0</ele><time>2026-05-01T13:38:34Z</time></trkpt><trkpt lat="44.26889823312903" lon="15.312670702405304"><ele>64.0</ele><time>2026-05-01T13:38:36Z</time></trkpt><trkpt lat="44.2689345691377" lon="15.312550104263487"><ele>65.0</ele><time>2026-05-01T13:38:38Z</time></trkpt><trkpt lat="44.26892624732803" lon="15.312433774251991"><ele>66.0</ele><time>2026-05-01T13:38:40Z</time></trkpt><trkpt lat="44.26892660201141" lon="15.312322885112009"><ele>67.0</ele><time>2026-05-01T13:38:42Z</time></trkpt><trkpt lat="44.2688832073619" lon="15.31221800139426"><ele>68.0</ele><time>2026-05-01T13:38:44Z</time></trkpt><trkpt lat="44.268839516267754" lon="15.312057234706124"><ele>69.33333333333334</ele><time>2026-05-01T13:38:46Z</time></trkpt><trkpt lat="44.26879715832673" lon="15.311976734280785"><ele>70.66666666666667</ele><time>2026-05-01T13:38:47Z</time></trkpt><trkpt lat="44.268753338735" lon="15.31189821838542"><ele>72.0</ele><time>2026-05-01T13:38:48Z</time></trkpt><trkpt lat="44.268708749992214" lon="15.31181533335945"><ele>73.33333333333333</ele><time>2026-05-01T13:38:49Z</time></trkpt><trkpt lat="44.26865984056203" lon="15.311717514445222"><ele>74.66666666666666</ele><time>2026-05-01T13:38:50Z</time></trkpt><trkpt lat="44.26860075333041" lon="15.31164098699064"><ele>76.0</ele><time>2026-05-01T13:38:51Z</time></trkpt><trkpt lat="44.26855435097731" lon="15.311558959789386"><ele>76.0</ele><time>2026-05-01T13:38:52Z</time></trkpt><trkpt lat="44.26849299288818" lon="15.311467647573924"><ele>76.0</ele><time>2026-05-01T13:38:53Z</time></trkpt><trkpt lat="44.26845061037383" lon="15.311395825865588"><ele>76.0</ele><time>2026-05-01T13:38:54Z</time></trkpt><trkpt lat="44.268398589976655" lon="15.31132491657029"><ele>76.0</ele><time>2026-05-01T13:38:55Z</time></trkpt><trkpt lat="44.26834359367354" lon="15.311244275290608"><ele>76.0</ele><time>2026-05-01T13:38:56Z</time></trkpt><trkpt lat="44.26830202110769" lon="15.311167257856013"><ele>76.0</ele><time>2026-05-01T13:38:57Z</time></trkpt><trkpt lat="44.268245997585154" lon="15.311087979086183"><ele>76.0</ele><time>2026-05-01T13:38:58Z</time></trkpt><trkpt lat="44.26818271354259" lon="15.31098974546019"><ele>76.0</ele><time>2026-05-01T13:38:59Z</time></trkpt><trkpt lat="44.26813200232345" lon="15.310911727228902"><ele>76.0</ele><time>2026-05-01T13:39:00Z</time></trkpt><trkpt lat="44.26807238379805" lon="15.310818718281055"><ele>76.0</ele><time>2026-05-01T13:39:01Z</time></trkpt><trkpt lat="44.26801540757837" lon="15.310729817429507"><ele>76.0</ele><time>2026-05-01T13:39:02Z</time></trkpt><trkpt lat="44.2679612045968" lon="15.310647470903382"><ele>76.0</ele><time>2026-05-01T13:39:03Z</time></trkpt><trkpt lat="44.26790820583736" lon="15.310562024339438"><ele>76.66666666666666</ele><time>2026-05-01T13:39:04Z</time></trkpt><trkpt lat="44.26786098802395" lon="15.310471229517658"><ele>77.33333333333333</ele><time>2026-05-01T13:39:05Z</time></trkpt><trkpt lat="44.267807499696545" lon="15.310379900272086"><ele>78.0</ele><time>2026-05-01T13:39:06Z</time></trkpt><trkpt lat="44.267752086798644" lon="15.310282084037455"><ele>78.66666666666667</ele><time>2026-05-01T13:39:07Z</time></trkpt><trkpt lat="44.26770485623077" lon="15.310198899922785"><ele>79.33333333333334</ele><time>2026-05-01T13:39:08Z</time></trkpt><trkpt lat="44.267648963469505" lon="15.310069873685253"><ele>80.0</ele><time>2026-05-01T13:39:10Z</time></trkpt><trkpt lat="44.26758159929564" lon="15.309966278952428"><ele>80.0</ele><time>2026-05-01T13:39:12Z</time></trkpt><trkpt lat="44.26753628671404" lon="15.309873587993614"><ele>80.0</ele><time>2026-05-01T13:39:14Z</time></trkpt><trkpt lat="44.26748831805533" lon="15.309757933326779"><ele>80.0</ele><time>2026-05-01T13:39:16Z</time></trkpt><trkpt lat="44.267447655426295" lon="15.30966253048937"><ele>80.0</ele><time>2026-05-01T13:39:18Z</time></trkpt><trkpt lat="44.2673977385113" lon="15.309605548874123"><ele>80.0</ele><time>2026-05-01T13:40:03Z</time></trkpt><trkpt lat="44.267321425038475" lon="15.309512708139529"><ele>80.0</ele><time>2026-05-01T13:40:06Z</time></trkpt><trkpt lat="44.26723392797485" lon="15.309457217747706"><ele>80.4</ele><time>2026-05-01T13:40:08Z</time></trkpt><trkpt lat="44.26713706243431" lon="15.309379446654473"><ele>80.8</ele><time>2026-05-01T13:40:10Z</time></trkpt><trkpt lat="44.26703262915391" lon="15.309319209947072"><ele>81.19999999999999</ele><time>2026-05-01T13:40:12Z</time></trkpt><trkpt lat="44.26698409219438" lon="15.30925492630625"><ele>81.6</ele><time>2026-05-01T13:40:13Z</time></trkpt><trkpt lat="44.266927047111466" lon="15.309208490570983"><ele>82.0</ele><time>2026-05-01T13:40:14Z</time></trkpt><trkpt lat="44.26683701935972" lon="15.30913224117019"><ele>82.0</ele><time>2026-05-01T13:40:16Z</time></trkpt><trkpt lat="44.26674493476869" lon="15.309078208377409"><ele>82.0</ele><time>2026-05-01T13:40:18Z</time></trkpt><trkpt lat="44.2666567605939" lon="15.309029459955267"><ele>82.0</ele><time>2026-05-01T13:40:20Z</time></trkpt><trkpt lat="44.26657516404064" lon="15.309015741295317"><ele>82.0</ele><time>2026-05-01T13:40:22Z</time></trkpt><trkpt lat="44.266497263288066" lon="15.309063238994307"><ele>82.0</ele><time>2026-05-01T13:40:24Z</time></trkpt><trkpt lat="44.26642520758729" lon="15.309177844272568"><ele>82.39999999999999</ele><time>2026-05-01T13:40:26Z</time></trkpt><trkpt lat="44.26634832603319" lon="15.309293541297833"><ele>82.8</ele><time>2026-05-01T13:40:28Z</time></trkpt><trkpt lat="44.26626084181807" lon="15.309374995819484"><ele>83.2</ele><time>2026-05-01T13:40:30Z</time></trkpt><trkpt lat="44.26617116292045" lon="15.309372677087689"><ele>83.6</ele><time>2026-05-01T13:40:32Z</time></trkpt><trkpt lat="44.266074541464576" lon="15.309307362908976"><ele>84.0</ele><time>2026-05-01T13:40:34Z</time></trkpt><trkpt lat="44.26597026686966" lon="15.309220796494627"><ele>84.0</ele><time>2026-05-01T13:40:36Z</time></trkpt><trkpt lat="44.265918759659684" lon="15.30914816098839"><ele>84.0</ele><time>2026-05-01T13:40:37Z</time></trkpt><trkpt lat="44.265856365235564" lon="15.30908092236281"><ele>84.0</ele><time>2026-05-01T13:40:38Z</time></trkpt><trkpt lat="44.265811897319686" lon="15.309004887050408"><ele>84.0</ele><time>2026-05-01T13:40:39Z</time></trkpt><trkpt lat="44.265738142841336" lon="15.308918637246684"><ele>84.0</ele><time>2026-05-01T13:40:41Z</time></trkpt><trkpt lat="44.26567271306249" lon="15.308879482702014"><ele>84.0</ele><time>2026-05-01T13:40:45Z</time></trkpt><trkpt lat="44.26560627303878" lon="15.30887100658752"><ele>82.2</ele><time>2026-05-01T13:40:48Z</time></trkpt><trkpt lat="44.26555444074687" lon="15.308986717474406"><ele>80.4</ele><time>2026-05-01T13:40:51Z</time></trkpt><trkpt lat="44.26550366860923" lon="15.309079966767852"><ele>78.6</ele><time>2026-05-01T13:40:54Z</time></trkpt><trkpt lat="44.265458337330394" lon="15.309197247275058"><ele>76.8</ele><time>2026-05-01T13:40:56Z</time></trkpt><trkpt lat="44.26544104676455" lon="15.309354834249286"><ele>75.0</ele><time>2026-05-01T13:40:58Z</time></trkpt><trkpt lat="44.26538518086031" lon="15.309486859183863"><ele>75.0</ele><time>2026-05-01T13:41:00Z</time></trkpt><trkpt lat="44.265327047924906" lon="15.309582421942308"><ele>75.0</ele><time>2026-05-01T13:41:02Z</time></trkpt><trkpt lat="44.26528009057555" lon="15.309651490244883"><ele>75.0</ele><time>2026-05-01T13:41:04Z</time></trkpt><trkpt lat="44.26521252548605" lon="15.309625808847489"><ele>75.0</ele><time>2026-05-01T13:41:08Z</time></trkpt><trkpt lat="44.26514942364988" lon="15.309528815493444"><ele>75.0</ele><time>2026-05-01T13:41:12Z</time></trkpt><trkpt lat="44.26508162855425" lon="15.309445185957333"><ele>75.0</ele><time>2026-05-01T13:41:15Z</time></trkpt><trkpt lat="44.26503968184059" lon="15.309348125666588"><ele>75.0</ele><time>2026-05-01T13:41:17Z</time></trkpt><trkpt lat="44.26500300204932" lon="15.309222674497242"><ele>75.0</ele><time>2026-05-01T13:41:19Z</time></trkpt><trkpt lat="44.265016475152144" lon="15.309077950327657"><ele>75.0</ele><time>2026-05-01T13:41:21Z</time></trkpt><trkpt lat="44.26504745295419" lon="15.308900219071196"><ele>75.0</ele><time>2026-05-01T13:41:23Z</time></trkpt><trkpt lat="44.26506056893842" lon="15.308811552611647"><ele>75.0</ele><time>2026-05-01T13:41:24Z</time></trkpt><trkpt lat="44.265076382736865" lon="15.308722352728116"><ele>74.42857142857142</ele><time>2026-05-01T13:41:25Z</time></trkpt><trkpt lat="44.265088978443984" lon="15.308629028018181"><ele>73.85714285714286</ele><time>2026-05-01T13:41:26Z</time></trkpt><trkpt lat="44.26509684253706" lon="15.308525682057143"><ele>73.28571428571428</ele><time>2026-05-01T13:41:27Z</time></trkpt><trkpt lat="44.26510543873712" lon="15.308423034373186"><ele>72.71428571428571</ele><time>2026-05-01T13:41:28Z</time></trkpt><trkpt lat="44.26511194863228" lon="15.308324017932597"><ele>72.14285714285714</ele><time>2026-05-01T13:41:29Z</time></trkpt><trkpt lat="44.26511377122918" lon="15.3082329444477"><ele>71.57142857142857</ele><time>2026-05-01T13:41:30Z</time></trkpt><trkpt lat="44.26511358524334" lon="15.308140039434532"><ele>71.0</ele><time>2026-05-01T13:41:31Z</time></trkpt><trkpt lat="44.2650692501248" lon="15.308009919399005"><ele>71.0</ele><time>2026-05-01T13:41:33Z</time></trkpt><trkpt lat="44.265002461277966" lon="15.308000193664418"><ele>71.0</ele><time>2026-05-01T13:41:34Z</time></trkpt><trkpt lat="44.2649295798131" lon="15.308059722906103"><ele>71.0</ele><time>2026-05-01T13:41:35Z</time></trkpt><trkpt lat="44.26490590286713" lon="15.308187502037715"><ele>71.0</ele><time>2026-05-01T13:41:36Z</time></trkpt><trkpt lat="44.2648359144762" lon="15.308306094449684"><ele>71.0</ele><time>2026-05-01T13:41:38Z</time></trkpt><trkpt lat="44.264734339826475" lon="15.30828507032718"><ele>68.5</ele><time>2026-05-01T13:41:40Z</time></trkpt><trkpt lat="44.264686206955204" lon="15.308215654256916"><ele>66.0</ele><time>2026-05-01T13:41:41Z</time></trkpt><trkpt lat="44.26463877631617" lon="15.308152950634707"><ele>63.5</ele><time>2026-05-01T13:41:42Z</time></trkpt><trkpt lat="44.26458405027767" lon="15.308091423047049"><ele>61.0</ele><time>2026-05-01T13:41:43Z</time></trkpt><trkpt lat="44.264511931499534" lon="15.308048678682944"><ele>58.50000000000001</ele><time>2026-05-01T13:41:44Z</time></trkpt><trkpt lat="44.26442765288864" lon="15.308006750278018"><ele>56.0</ele><time>2026-05-01T13:41:45Z</time></trkpt><trkpt lat="44.264335462223485" lon="15.30796857561653"><ele>54.599999999999994</ele><time>2026-05-01T13:41:46Z</time></trkpt><trkpt lat="44.26424162933438" lon="15.307907288506717"><ele>53.199999999999996</ele><time>2026-05-01T13:41:47Z</time></trkpt><trkpt lat="44.26415734914635" lon="15.307814704114787"><ele>51.8</ele><time>2026-05-01T13:41:48Z</time></trkpt><trkpt lat="44.264082694488955" lon="15.307711007817254"><ele>50.400000000000006</ele><time>2026-05-01T13:41:49Z</time></trkpt><trkpt lat="44.26400327629479" lon="15.307613914774631"><ele>49.0</ele><time>2026-05-01T13:41:50Z</time></trkpt><trkpt lat="44.26391249723569" lon="15.307534827707919"><ele>47.0</ele><time>2026-05-01T13:41:51Z</time></trkpt><trkpt lat="44.26382072850942" lon="15.307453057270175"><ele>45.0</ele><time>2026-05-01T13:41:52Z</time></trkpt><trkpt lat="44.263727631633266" lon="15.307376601157037"><ele>43.0</ele><time>2026-05-01T13:41:53Z</time></trkpt><trkpt lat="44.2636361505574" lon="15.307300777884896"><ele>41.0</ele><time>2026-05-01T13:41:54Z</time></trkpt><trkpt lat="44.2635535433982" lon="15.307225579309138"><ele>39.0</ele><time>2026-05-01T13:41:55Z</time></trkpt><trkpt lat="44.26347070201377" lon="15.307137278541004"><ele>37.25</ele><time>2026-05-01T13:41:56Z</time></trkpt><trkpt lat="44.26338870753106" lon="15.307034700219571"><ele>35.5</ele><time>2026-05-01T13:41:57Z</time></trkpt><trkpt lat="44.26330467431069" lon="15.306918713662514"><ele>33.75</ele><time>2026-05-01T13:41:58Z</time></trkpt><trkpt lat="44.26322367376894" lon="15.306797922981634"><ele>32.0</ele><time>2026-05-01T13:41:59Z</time></trkpt><trkpt lat="44.263144295507686" lon="15.306674053875456"><ele>31.25</ele><time>2026-05-01T13:42:00Z</time></trkpt><trkpt lat="44.26306088931298" lon="15.30654438087198"><ele>30.5</ele><time>2026-05-01T13:42:01Z</time></trkpt><trkpt lat="44.26297952577228" lon="15.30641491873648"><ele>29.75</ele><time>2026-05-01T13:42:02Z</time></trkpt><trkpt lat="44.26289373976088" lon="15.306289807624536"><ele>29.0</ele><time>2026-05-01T13:42:03Z</time></trkpt><trkpt lat="44.26279530275464" lon="15.306179834569239"><ele>28.25</ele><time>2026-05-01T13:42:04Z</time></trkpt><trkpt lat="44.26268578509255" lon="15.306088490071613"><ele>27.5</ele><time>2026-05-01T13:42:05Z</time></trkpt><trkpt lat="44.262573803886326" lon="15.306012997077985"><ele>26.75</ele><time>2026-05-01T13:42:06Z</time></trkpt><trkpt lat="44.26246594630714" lon="15.30593756906912"><ele>26.0</ele><time>2026-05-01T13:42:07Z</time></trkpt><trkpt lat="44.26235961892815" lon="15.305854232196952"><ele>25.75</ele><time>2026-05-01T13:42:08Z</time></trkpt><trkpt lat="44.262259669702566" lon="15.305766302694165"><ele>25.5</ele><time>2026-05-01T13:42:09Z</time></trkpt><trkpt lat="44.2621642743383" lon="15.30567198765577"><ele>25.25</ele><time>2026-05-01T13:42:10Z</time></trkpt><trkpt lat="44.26207301951912" lon="15.305572405661668"><ele>25.0</ele><time>2026-05-01T13:42:11Z</time></trkpt><trkpt lat="44.261975381146314" lon="15.305470790229093"><ele>24.0</ele><time>2026-05-01T13:42:12Z</time></trkpt><trkpt lat="44.26188551445238" lon="15.30536786045795"><ele>23.0</ele><time>2026-05-01T13:42:13Z</time></trkpt><trkpt lat="44.261796049235706" lon="15.305269605942373"><ele>22.0</ele><time>2026-05-01T13:42:14Z</time></trkpt><trkpt lat="44.261705160497726" lon="15.305174147528362"><ele>21.0</ele><time>2026-05-01T13:42:15Z</time></trkpt><trkpt lat="44.261629249199615" lon="15.305056635323007"><ele>21.0</ele><time>2026-05-01T13:42:16Z</time></trkpt><trkpt lat="44.26154741018185" lon="15.304950761935583"><ele>21.0</ele><time>2026-05-01T13:42:17Z</time></trkpt><trkpt lat="44.26145566059765" lon="15.304846476432331"><ele>21.0</ele><time>2026-05-01T13:42:18Z</time></trkpt><trkpt lat="44.2613787194746" lon="15.304730219109395"><ele>21.0</ele><time>2026-05-01T13:42:19Z</time></trkpt><trkpt lat="44.26130319956705" lon="15.304632480394599"><ele>21.0</ele><time>2026-05-01T13:42:20Z</time></trkpt><trkpt lat="44.26122764938147" lon="15.30455140732201"><ele>20.166666666666668</ele><time>2026-05-01T13:42:21Z</time></trkpt><trkpt lat="44.26117319681404" lon="15.304478225530266"><ele>19.333333333333332</ele><time>2026-05-01T13:42:22Z</time></trkpt><trkpt lat="44.26114117046167" lon="15.30438497641393"><ele>18.5</ele><time>2026-05-01T13:42:23Z</time></trkpt><trkpt lat="44.26114557949383" lon="15.304272790290817"><ele>17.666666666666664</ele><time>2026-05-01T13:42:24Z</time></trkpt><trkpt lat="44.26120706750191" lon="15.30417154342083"><ele>16.833333333333332</ele><time>2026-05-01T13:42:25Z</time></trkpt><trkpt lat="44.261251537981046" lon="15.304049238902989"><ele>16.0</ele><time>2026-05-01T13:42:26Z</time></trkpt><trkpt lat="44.26127861753357" lon="15.303903376615061"><ele>15.75</ele><time>2026-05-01T13:42:27Z</time></trkpt><trkpt lat="44.26131981905361" lon="15.303757043950922"><ele>15.5</ele><time>2026-05-01T13:42:28Z</time></trkpt><trkpt lat="44.26135562596333" lon="15.303594970204013"><ele>15.25</ele><time>2026-05-01T13:42:29Z</time></trkpt><trkpt lat="44.26139418937376" lon="15.303428640321657"><ele>15.0</ele><time>2026-05-01T13:42:30Z</time></trkpt><trkpt lat="44.261434631574836" lon="15.303249250595353"><ele>15.25</ele><time>2026-05-01T13:42:31Z</time></trkpt><trkpt lat="44.26147193857371" lon="15.303076828516298"><ele>15.5</ele><time>2026-05-01T13:42:32Z</time></trkpt><trkpt lat="44.26150174191263" lon="15.302903410035734"><ele>15.75</ele><time>2026-05-01T13:42:33Z</time></trkpt><trkpt lat="44.26151847630089" lon="15.302726682420397"><ele>16.0</ele><time>2026-05-01T13:42:34Z</time></trkpt><trkpt lat="44.26152463250665" lon="15.302546072921814"><ele>16.0</ele><time>2026-05-01T13:42:35Z</time></trkpt><trkpt lat="44.261536215939536" lon="15.302370844086317"><ele>16.0</ele><time>2026-05-01T13:42:36Z</time></trkpt><trkpt lat="44.26154850387915" lon="15.302206584035934"><ele>16.0</ele><time>2026-05-01T13:42:37Z</time></trkpt><trkpt lat="44.261561501862" lon="15.302060703692566"><ele>16.0</ele><time>2026-05-01T13:42:38Z</time></trkpt><trkpt lat="44.26157452886159" lon="15.30192451615745"><ele>16.0</ele><time>2026-05-01T13:42:39Z</time></trkpt><trkpt lat="44.26158398114518" lon="15.301794423248221"><ele>15.4</ele><time>2026-05-01T13:42:40Z</time></trkpt><trkpt lat="44.261587188964015" lon="15.301665275298701"><ele>14.8</ele><time>2026-05-01T13:42:41Z</time></trkpt><trkpt lat="44.26159030049768" lon="15.30153278681237"><ele>14.200000000000001</ele><time>2026-05-01T13:42:42Z</time></trkpt><trkpt lat="44.261584848183354" lon="15.301404285905521"><ele>13.600000000000001</ele><time>2026-05-01T13:42:43Z</time></trkpt><trkpt lat="44.26157504074219" lon="15.301279304127233"><ele>13.0</ele><time>2026-05-01T13:42:44Z</time></trkpt><trkpt lat="44.26155650426276" lon="15.301161317061107"><ele>12.8</ele><time>2026-05-01T13:42:45Z</time></trkpt><trkpt lat="44.26152355766896" lon="15.30103375559556"><ele>12.600000000000001</ele><time>2026-05-01T13:42:46Z</time></trkpt><trkpt lat="44.261478724200096" lon="15.300902984313813"><ele>12.399999999999999</ele><time>2026-05-01T13:42:47Z</time></trkpt><trkpt lat="44.2614311510347" lon="15.300764887878803"><ele>12.2</ele><time>2026-05-01T13:42:48Z</time></trkpt><trkpt lat="44.26137739955603" lon="15.300627413668431"><ele>12.0</ele><time>2026-05-01T13:42:49Z</time></trkpt><trkpt lat="44.261336956356025" lon="15.300500003973443"><ele>11.333333333333334</ele><time>2026-05-01T13:42:50Z</time></trkpt><trkpt lat="44.26131193760866" lon="15.300365863386308"><ele>10.666666666666666</ele><time>2026-05-01T13:42:51Z</time></trkpt><trkpt lat="44.26130468513288" lon="15.300237814174142"><ele>10.0</ele><time>2026-05-01T13:42:52Z</time></trkpt><trkpt lat="44.26130345713169" lon="15.300118185029222"><ele>9.333333333333332</ele><time>2026-05-01T13:42:53Z</time></trkpt><trkpt lat="44.26130578003483" lon="15.300005205863854"><ele>8.666666666666666</ele><time>2026-05-01T13:42:54Z</time></trkpt><trkpt lat="44.26130730930008" lon="15.29989396035235"><ele>8.0</ele><time>2026-05-01T13:42:55Z</time></trkpt><trkpt lat="44.26130742547208" lon="15.299799351245268"><ele>7.666666666666666</ele><time>2026-05-01T13:42:56Z</time></trkpt><trkpt lat="44.26130363298199" lon="15.299635941209575"><ele>7.333333333333333</ele><time>2026-05-01T13:42:58Z</time></trkpt><trkpt lat="44.26132273912373" lon="15.299466373428237"><ele>7.0</ele><time>2026-05-01T13:43:00Z</time></trkpt><trkpt lat="44.261319886054245" lon="15.299377777357156"><ele>6.666666666666666</ele><time>2026-05-01T13:43:01Z</time></trkpt><trkpt lat="44.261294258252505" lon="15.299286153069964"><ele>6.333333333333333</ele><time>2026-05-01T13:43:02Z</time></trkpt><trkpt lat="44.26128264546841" lon="15.299187944155294"><ele>6.0</ele><time>2026-05-01T13:43:03Z</time></trkpt><trkpt lat="44.26126237385407" lon="15.299089394459683"><ele>5.999999999999999</ele><time>2026-05-01T13:43:04Z</time></trkpt><trkpt lat="44.26123680593061" lon="15.298983775232964"><ele>6.0</ele><time>2026-05-01T13:43:05Z</time></trkpt><trkpt lat="44.26120918019578" lon="15.298881685244638"><ele>6.0</ele><time>2026-05-01T13:43:06Z</time></trkpt><trkpt lat="44.261179989732746" lon="15.298776881577322"><ele>6.0</ele><time>2026-05-01T13:43:07Z</time></trkpt><trkpt lat="44.261159842804744" lon="15.298680133766274"><ele>6.0</ele><time>2026-05-01T13:43:08Z</time></trkpt><trkpt lat="44.26114975766966" lon="15.298588571863425"><ele>5.999999999999999</ele><time>2026-05-01T13:43:09Z</time></trkpt><trkpt lat="44.26112684574842" lon="15.298505823415454"><ele>6.0</ele><time>2026-05-01T13:43:10Z</time></trkpt><trkpt lat="44.26109326998617" lon="15.298346498952586"><ele>6.0</ele><time>2026-05-01T13:43:12Z</time></trkpt><trkpt lat="44.26106359492091" lon="15.29816823990003"><ele>6.0</ele><time>2026-05-01T13:43:14Z</time></trkpt><trkpt lat="44.26104877523324" lon="15.298053722071185"><ele>6.0</ele><time>2026-05-01T13:43:15Z</time></trkpt><trkpt lat="44.26102286655134" lon="15.297937088385499"><ele>6.0</ele><time>2026-05-01T13:43:16Z</time></trkpt><trkpt lat="44.26097742504202" lon="15.297814863756507"><ele>6.0</ele><time>2026-05-01T13:43:17Z</time></trkpt><trkpt lat="44.260960580871775" lon="15.297675979238173"><ele>6.0</ele><time>2026-05-01T13:43:18Z</time></trkpt><trkpt lat="44.26092659178062" lon="15.297554668565237"><ele>6.0</ele><time>2026-05-01T13:43:19Z</time></trkpt><trkpt lat="44.260892203008375" lon="15.297457349737936"><ele>6.0</ele><time>2026-05-01T13:43:20Z</time></trkpt><trkpt lat="44.26083858411787" lon="15.297392019912628"><ele>6.0</ele><time>2026-05-01T13:43:21Z</time></trkpt><trkpt lat="44.260795629784745" lon="15.297306975152129"><ele>6.0</ele><time>2026-05-01T13:43:25Z</time></trkpt><trkpt lat="44.260699159264156" lon="15.297550225035558"><ele>6.0</ele><time>2026-05-01T13:43:29Z</time></trkpt><trkpt lat="44.26067669237945" lon="15.297660693309973"><ele>6.0</ele><time>2026-05-01T13:43:30Z</time></trkpt><trkpt lat="44.26063142212041" lon="15.297784411240793"><ele>6.0</ele><time>2026-05-01T13:43:31Z</time></trkpt><trkpt lat="44.26058059729285" lon="15.29789001315333"><ele>6.0</ele><time>2026-05-01T13:43:32Z</time></trkpt><trkpt lat="44.26052375790141" lon="15.297975384836807"><ele>6.0</ele><time>2026-05-01T13:43:33Z</time></trkpt><trkpt lat="44.260452599096084" lon="15.298075866877282"><ele>5.75</ele><time>2026-05-01T13:43:34Z</time></trkpt><trkpt lat="44.26037087095209" lon="15.298174896382726"><ele>5.5</ele><time>2026-05-01T13:43:35Z</time></trkpt><trkpt lat="44.26027187849705" lon="15.298298662332066"><ele>5.25</ele><time>2026-05-01T13:43:36Z</time></trkpt><trkpt lat="44.26014699151493" lon="15.29840484272159"><ele>5.0</ele><time>2026-05-01T13:43:37Z</time></trkpt><trkpt lat="44.260022566540734" lon="15.298526865335296"><ele>5.0</ele><time>2026-05-01T13:43:38Z</time></trkpt><trkpt lat="44.259888528258664" lon="15.298654700762448"><ele>5.0</ele><time>2026-05-01T13:43:39Z</time></trkpt><trkpt lat="44.25975471914134" lon="15.298790926016627"><ele>5.0</ele><time>2026-05-01T13:43:40Z</time></trkpt><trkpt lat="44.259609850632174" lon="15.298900004201673"><ele>5.333333333333334</ele><time>2026-05-01T13:43:41Z</time></trkpt><trkpt lat="44.259470423519694" lon="15.299010959620773"><ele>5.666666666666667</ele><time>2026-05-01T13:43:42Z</time></trkpt><trkpt lat="44.259326809864355" lon="15.299122676910988"><ele>6.0</ele><time>2026-05-01T13:43:43Z</time></trkpt><trkpt lat="44.2591884357657" lon="15.299234924869264"><ele>6.0</ele><time>2026-05-01T13:43:44Z</time></trkpt><trkpt lat="44.259055857896385" lon="15.299349972635872"><ele>6.0</ele><time>2026-05-01T13:43:45Z</time></trkpt><trkpt lat="44.25892780470032" lon="15.29947086889678"><ele>6.0</ele><time>2026-05-01T13:43:46Z</time></trkpt><trkpt lat="44.258813458438226" lon="15.299619277862249"><ele>5.333333333333333</ele><time>2026-05-01T13:43:47Z</time></trkpt><trkpt lat="44.258711838812495" lon="15.299791925889814"><ele>4.666666666666666</ele><time>2026-05-01T13:43:48Z</time></trkpt><trkpt lat="44.25862747034843" lon="15.299989305166013"><ele>4.0</ele><time>2026-05-01T13:43:49Z</time></trkpt><trkpt lat="44.258537761482636" lon="15.3001729493471"><ele>4.0</ele><time>2026-05-01T13:43:50Z</time></trkpt><trkpt lat="44.25848223945302" lon="15.300379065027114"><ele>4.0</ele><time>2026-05-01T13:43:51Z</time></trkpt><trkpt lat="44.258404746762324" lon="15.30056993317791"><ele>4.0</ele><time>2026-05-01T13:43:52Z</time></trkpt><trkpt lat="44.258315435613206" lon="15.300771965534523"><ele>4.333333333333333</ele><time>2026-05-01T13:43:53Z</time></trkpt><trkpt lat="44.25820315007667" lon="15.300967657400802"><ele>4.666666666666667</ele><time>2026-05-01T13:43:54Z</time></trkpt><trkpt lat="44.25807268005652" lon="15.301150998152815"><ele>5.0</ele><time>2026-05-01T13:43:55Z</time></trkpt><trkpt lat="44.25792068616268" lon="15.301325597976845"><ele>5.666666666666667</ele><time>2026-05-01T13:43:56Z</time></trkpt><trkpt lat="44.257760618688856" lon="15.301486155658433"><ele>6.333333333333334</ele><time>2026-05-01T13:43:57Z</time></trkpt><trkpt lat="44.257600587037906" lon="15.301609910343778"><ele>7.0</ele><time>2026-05-01T13:43:58Z</time></trkpt><trkpt lat="44.25744159956667" lon="15.301693994591119"><ele>7.0</ele><time>2026-05-01T13:43:59Z</time></trkpt><trkpt lat="44.2572875106616" lon="15.301757217444072"><ele>7.0</ele><time>2026-05-01T13:44:00Z</time></trkpt><trkpt lat="44.257134319883065" lon="15.301812709878241"><ele>7.0</ele><time>2026-05-01T13:44:01Z</time></trkpt><trkpt lat="44.256972803421526" lon="15.301850115390726"><ele>6.0</ele><time>2026-05-01T13:44:02Z</time></trkpt><trkpt lat="44.25680714510008" lon="15.301863325629007"><ele>5.0</ele><time>2026-05-01T13:44:03Z</time></trkpt><trkpt lat="44.256642832379775" lon="15.301860901911583"><ele>4.0</ele><time>2026-05-01T13:44:04Z</time></trkpt><trkpt lat="44.25647860220226" lon="15.301859118112713"><ele>2.6666666666666665</ele><time>2026-05-01T13:44:05Z</time></trkpt><trkpt lat="44.25631284625362" lon="15.301866000819784"><ele>1.3333333333333333</ele><time>2026-05-01T13:44:06Z</time></trkpt><trkpt lat="44.256150554686194" lon="15.301875633899572"><ele>0.0</ele><time>2026-05-01T13:44:07Z</time></trkpt><trkpt lat="44.25598796542568" lon="15.301882384025287"><ele>0.0</ele><time>2026-05-01T13:44:08Z</time></trkpt><trkpt lat="44.25582131055293" lon="15.30189692133793"><ele>0.0</ele><time>2026-05-01T13:44:09Z</time></trkpt><trkpt lat="44.255638969533514" lon="15.301939525354943"><ele>0.0</ele><time>2026-05-01T13:44:10Z</time></trkpt><trkpt lat="44.255456824311196" lon="15.30202438365977"><ele>0.3333333333333333</ele><time>2026-05-01T13:44:11Z</time></trkpt><trkpt lat="44.255274208324224" lon="15.30213209493154"><ele>0.6666666666666666</ele><time>2026-05-01T13:44:12Z</time></trkpt><trkpt lat="44.25508477107482" lon="15.302245441844532"><ele>1.0</ele><time>2026-05-01T13:44:13Z</time></trkpt><trkpt lat="44.254902130882186" lon="15.302342061295647"><ele>1.6666666666666665</ele><time>2026-05-01T13:44:14Z</time></trkpt><trkpt lat="44.25472784449281" lon="15.302424851033189"><ele>2.3333333333333335</ele><time>2026-05-01T13:44:15Z</time></trkpt><trkpt lat="44.254557791794625" lon="15.302499235631089"><ele>3.0</ele><time>2026-05-01T13:44:16Z</time></trkpt><trkpt lat="44.25441000724396" lon="15.302552021318887"><ele>3.0</ele><time>2026-05-01T13:44:17Z</time></trkpt><trkpt lat="44.254270467675404" lon="15.30257312078632"><ele>3.0</ele><time>2026-05-01T13:44:18Z</time></trkpt><trkpt lat="44.25415516778202" lon="15.30256747203342"><ele>3.0</ele><time>2026-05-01T13:44:19Z</time></trkpt><trkpt lat="44.25406733675533" lon="15.30256066723848"><ele>3.0</ele><time>2026-05-01T13:44:20Z</time></trkpt><trkpt lat="44.2539621617334" lon="15.30255921642231"><ele>3.0</ele><time>2026-05-01T13:44:22Z</time></trkpt><trkpt lat="44.25392506184383" lon="15.30282366547073"><ele>4.0</ele><time>2026-05-01T13:44:23Z</time></trkpt><trkpt lat="44.25390456983839" lon="15.302981650347476"><ele>5.0</ele><time>2026-05-01T13:44:24Z</time></trkpt><trkpt lat="44.25387856479026" lon="15.303156614195084"><ele>6.0</ele><time>2026-05-01T13:44:25Z</time></trkpt><trkpt lat="44.253846418060974" lon="15.303348181936153"><ele>7.0</ele><time>2026-05-01T13:44:26Z</time></trkpt><trkpt lat="44.253805035265394" lon="15.303549062905464"><ele>7.25</ele><time>2026-05-01T13:44:27Z</time></trkpt><trkpt lat="44.25375428504632" lon="15.30374560930832"><ele>7.5</ele><time>2026-05-01T13:44:28Z</time></trkpt><trkpt lat="44.2536983004548" lon="15.303932709739495"><ele>7.75</ele><time>2026-05-01T13:44:29Z</time></trkpt><trkpt lat="44.253635208036336" lon="15.304116880817011"><ele>8.0</ele><time>2026-05-01T13:44:30Z</time></trkpt><trkpt lat="44.25356365998686" lon="15.304303504052497"><ele>8.333333333333332</ele><time>2026-05-01T13:44:31Z</time></trkpt><trkpt lat="44.25346799972701" lon="15.30450320301405"><ele>8.666666666666666</ele><time>2026-05-01T13:44:32Z</time></trkpt><trkpt lat="44.2533706657758" lon="15.304730767497642"><ele>9.0</ele><time>2026-05-01T13:44:33Z</time></trkpt><trkpt lat="44.25326630517458" lon="15.304974036028696"><ele>9.0</ele><time>2026-05-01T13:44:34Z</time></trkpt><trkpt lat="44.2531603435081" lon="15.305219877408362"><ele>9.0</ele><time>2026-05-01T13:44:35Z</time></trkpt><trkpt lat="44.253053332761304" lon="15.305469421371559"><ele>9.0</ele><time>2026-05-01T13:44:36Z</time></trkpt><trkpt lat="44.252945808604295" lon="15.305719732890791"><ele>9.666666666666666</ele><time>2026-05-01T13:44:37Z</time></trkpt><trkpt lat="44.25284024643594" lon="15.305965477163289"><ele>10.333333333333332</ele><time>2026-05-01T13:44:38Z</time></trkpt><trkpt lat="44.25274607245674" lon="15.306215760737524"><ele>11.0</ele><time>2026-05-01T13:44:39Z</time></trkpt><trkpt lat="44.25262798569834" lon="15.306445020884858"><ele>11.333333333333332</ele><time>2026-05-01T13:44:40Z</time></trkpt><trkpt lat="44.252484838911144" lon="15.306648968478326"><ele>11.666666666666666</ele><time>2026-05-01T13:44:41Z</time></trkpt><trkpt lat="44.252312673122866" lon="15.306812454525742"><ele>12.0</ele><time>2026-05-01T13:44:42Z</time></trkpt><trkpt lat="44.25217242194844" lon="15.30701570912235"><ele>12.333333333333332</ele><time>2026-05-01T13:44:43Z</time></trkpt><trkpt lat="44.252029553059195" lon="15.307221812571006"><ele>12.666666666666666</ele><time>2026-05-01T13:44:44Z</time></trkpt><trkpt lat="44.25190488792415" lon="15.307454233454852"><ele>13.0</ele><time>2026-05-01T13:44:45Z</time></trkpt><trkpt lat="44.25179320981108" lon="15.307692489098548"><ele>13.333333333333332</ele><time>2026-05-01T13:44:46Z</time></trkpt><trkpt lat="44.25169423664625" lon="15.307941744338835"><ele>13.666666666666668</ele><time>2026-05-01T13:44:47Z</time></trkpt><trkpt lat="44.251606208319664" lon="15.30819705812407"><ele>14.0</ele><time>2026-05-01T13:44:48Z</time></trkpt><trkpt lat="44.25152138623348" lon="15.308465390756048"><ele>15.5</ele><time>2026-05-01T13:44:49Z</time></trkpt><trkpt lat="44.25138779433926" lon="15.308720525900345"><ele>17.0</ele><time>2026-05-01T13:44:50Z</time></trkpt><trkpt lat="44.251214494488416" lon="15.308981137770456"><ele>18.5</ele><time>2026-05-01T13:44:51Z</time></trkpt><trkpt lat="44.251033505887456" lon="15.309268462709559"><ele>20.0</ele><time>2026-05-01T13:44:52Z</time></trkpt><trkpt lat="44.250848873300455" lon="15.309534576532968"><ele>20.5</ele><time>2026-05-01T13:44:53Z</time></trkpt><trkpt lat="44.25069296063675" lon="15.309803365945461"><ele>21.0</ele><time>2026-05-01T13:44:54Z</time></trkpt><trkpt lat="44.250549278309734" lon="15.310068837662325"><ele>22.5</ele><time>2026-05-01T13:44:55Z</time></trkpt><trkpt lat="44.250403207933665" lon="15.310330774999155"><ele>24.0</ele><time>2026-05-01T13:44:56Z</time></trkpt><trkpt lat="44.250253253619846" lon="15.310586258734839"><ele>24.666666666666664</ele><time>2026-05-01T13:44:57Z</time></trkpt><trkpt lat="44.25011290057596" lon="15.310820469574821"><ele>25.333333333333332</ele><time>2026-05-01T13:44:58Z</time></trkpt><trkpt lat="44.24999643885073" lon="15.311033988650058"><ele>26.0</ele><time>2026-05-01T13:44:59Z</time></trkpt><trkpt lat="44.24992035013083" lon="15.311244393179939"><ele>26.75</ele><time>2026-05-01T13:45:00Z</time></trkpt><trkpt lat="44.249891071478054" lon="15.311455007435569"><ele>27.5</ele><time>2026-05-01T13:45:01Z</time></trkpt><trkpt lat="44.24990206978235" lon="15.31165225354523"><ele>28.25</ele><time>2026-05-01T13:45:02Z</time></trkpt><trkpt lat="44.24995193761707" lon="15.311849010859374"><ele>29.0</ele><time>2026-05-01T13:45:03Z</time></trkpt><trkpt lat="44.25000483378175" lon="15.312054021611065"><ele>29.666666666666664</ele><time>2026-05-01T13:45:04Z</time></trkpt><trkpt lat="44.250032835531236" lon="15.312272004554238"><ele>30.333333333333336</ele><time>2026-05-01T13:45:05Z</time></trkpt><trkpt lat="44.250082361856826" lon="15.312498588817446"><ele>31.0</ele><time>2026-05-01T13:45:06Z</time></trkpt><trkpt lat="44.25012894146609" lon="15.312733707852361"><ele>31.0</ele><time>2026-05-01T13:45:07Z</time></trkpt><trkpt lat="44.25016728151147" lon="15.312964580475066"><ele>31.0</ele><time>2026-05-01T13:45:08Z</time></trkpt><trkpt lat="44.2501649778266" lon="15.31319959083966"><ele>31.0</ele><time>2026-05-01T13:45:09Z</time></trkpt><trkpt lat="44.25016256343205" lon="15.313440999374576"><ele>30.5</ele><time>2026-05-01T13:45:10Z</time></trkpt><trkpt lat="44.25015670754529" lon="15.313672029655757"><ele>30.0</ele><time>2026-05-01T13:45:11Z</time></trkpt><trkpt lat="44.25010981483372" lon="15.313866673353346"><ele>29.5</ele><time>2026-05-01T13:45:12Z</time></trkpt><trkpt lat="44.25007203571707" lon="15.314027410282506"><ele>29.0</ele><time>2026-05-01T13:45:13Z</time></trkpt><trkpt lat="44.25003429173103" lon="15.314138446246083"><ele>28.799999999999997</ele><time>2026-05-01T13:45:14Z</time></trkpt><trkpt lat="44.24999831669122" lon="15.31424707021436"><ele>28.599999999999998</ele><time>2026-05-01T13:45:16Z</time></trkpt><trkpt lat="44.249939482198386" lon="15.31434879805729"><ele>28.4</ele><time>2026-05-01T13:45:52Z</time></trkpt><trkpt lat="44.24986526402792" lon="15.314335351793993"><ele>28.2</ele><time>2026-05-01T13:45:53Z</time></trkpt><trkpt lat="44.24977374949183" lon="15.314285133470344"><ele>28.0</ele><time>2026-05-01T13:45:54Z</time></trkpt><trkpt lat="44.24966192209047" lon="15.314242978445481"><ele>27.75</ele><time>2026-05-01T13:45:55Z</time></trkpt><trkpt lat="44.24953173527524" lon="15.314205507295696"><ele>27.5</ele><time>2026-05-01T13:45:56Z</time></trkpt><trkpt lat="44.249388782912824" lon="15.31416608294246"><ele>27.25</ele><time>2026-05-01T13:45:57Z</time></trkpt><trkpt lat="44.24924493597056" lon="15.314126954863392"><ele>27.0</ele><time>2026-05-01T13:45:58Z</time></trkpt><trkpt lat="44.249098003050236" lon="15.314080394908066"><ele>27.333333333333336</ele><time>2026-05-01T13:45:59Z</time></trkpt><trkpt lat="44.248939958628064" lon="15.314023511450962"><ele>27.666666666666668</ele><time>2026-05-01T13:46:00Z</time></trkpt><trkpt lat="44.248774882774846" lon="15.313956046031054"><ele>28.0</ele><time>2026-05-01T13:46:01Z</time></trkpt><trkpt lat="44.248604649729494" lon="15.313876924059269"><ele>28.0</ele><time>2026-05-01T13:46:02Z</time></trkpt><trkpt lat="44.24842054821686" lon="15.31377868230547"><ele>28.0</ele><time>2026-05-01T13:46:03Z</time></trkpt><trkpt lat="44.24822841096136" lon="15.313654769133207"><ele>28.0</ele><time>2026-05-01T13:46:04Z</time></trkpt><trkpt lat="44.248021560967054" lon="15.313515439968299"><ele>24.0</ele><time>2026-05-01T13:46:05Z</time></trkpt><trkpt lat="44.24778843239308" lon="15.313373867498658"><ele>20.0</ele><time>2026-05-01T13:46:06Z</time></trkpt><trkpt lat="44.24754699259655" lon="15.313228249945386"><ele>20.0</ele><time>2026-05-01T13:46:07Z</time></trkpt><trkpt lat="44.24732108228244" lon="15.313086007330282"><ele>20.0</ele><time>2026-05-01T13:46:08Z</time></trkpt><trkpt lat="44.247109872844874" lon="15.312953438980477"><ele>18.0</ele><time>2026-05-01T13:46:09Z</time></trkpt><trkpt lat="44.24690172647354" lon="15.312833364808899"><ele>16.0</ele><time>2026-05-01T13:46:10Z</time></trkpt><trkpt lat="44.246688201071755" lon="15.312740654886463"><ele>14.0</ele><time>2026-05-01T13:46:11Z</time></trkpt><trkpt lat="44.24647556102335" lon="15.312696782386332"><ele>13.333333333333334</ele><time>2026-05-01T13:46:12Z</time></trkpt><trkpt lat="44.246264139500234" lon="15.31270226619968"><ele>12.666666666666668</ele><time>2026-05-01T13:46:13Z</time></trkpt><trkpt lat="44.24605387401362" lon="15.312741674727123"><ele>12.0</ele><time>2026-05-01T13:46:14Z</time></trkpt><trkpt lat="44.24584498620364" lon="15.312802000084389"><ele>12.0</ele><time>2026-05-01T13:46:15Z</time></trkpt><trkpt lat="44.24563025623754" lon="15.312864817874608"><ele>12.0</ele><time>2026-05-01T13:46:16Z</time></trkpt><trkpt lat="44.245407558833286" lon="15.312922778389364"><ele>12.0</ele><time>2026-05-01T13:46:17Z</time></trkpt><trkpt lat="44.24518553358444" lon="15.312975676371657"><ele>12.333333333333332</ele><time>2026-05-01T13:46:18Z</time></trkpt><trkpt lat="44.244970299501944" lon="15.313015481892235"><ele>12.666666666666666</ele><time>2026-05-01T13:46:19Z</time></trkpt><trkpt lat="44.24476074432406" lon="15.313031576245905"><ele>13.0</ele><time>2026-05-01T13:46:20Z</time></trkpt><trkpt lat="44.244560819697" lon="15.312974076397948"><ele>13.0</ele><time>2026-05-01T13:46:21Z</time></trkpt><trkpt lat="44.244385569294906" lon="15.312876687230544"><ele>13.0</ele><time>2026-05-01T13:46:22Z</time></trkpt><trkpt lat="44.2442374843819" lon="15.312744916527425"><ele>13.0</ele><time>2026-05-01T13:46:23Z</time></trkpt><trkpt lat="44.2441311051653" lon="15.312521294061048"><ele>13.0</ele><time>2026-05-01T13:46:24Z</time></trkpt><trkpt lat="44.2440083189359" lon="15.31230159944757"><ele>13.0</ele><time>2026-05-01T13:46:25Z</time></trkpt><trkpt lat="44.243911016133765" lon="15.312037459378619"><ele>13.0</ele><time>2026-05-01T13:46:26Z</time></trkpt><trkpt lat="44.24380436749362" lon="15.311759793502695"><ele>13.333333333333332</ele><time>2026-05-01T13:46:27Z</time></trkpt><trkpt lat="44.24369984779156" lon="15.311491396946701"><ele>13.666666666666668</ele><time>2026-05-01T13:46:28Z</time></trkpt><trkpt lat="44.24359232773351" lon="15.311211687239409"><ele>14.0</ele><time>2026-05-01T13:46:29Z</time></trkpt><trkpt lat="44.24348551585326" lon="15.310931594784698"><ele>14.0</ele><time>2026-05-01T13:46:30Z</time></trkpt><trkpt lat="44.243375844941" lon="15.310649336701115"><ele>14.0</ele><time>2026-05-01T13:46:31Z</time></trkpt><trkpt lat="44.24326631566344" lon="15.310368491793023"><ele>14.5</ele><time>2026-05-01T13:46:32Z</time></trkpt><trkpt lat="44.24315510388131" lon="15.310085913762608"><ele>15.0</ele><time>2026-05-01T13:46:33Z</time></trkpt><trkpt lat="44.24304551349156" lon="15.309804948621741"><ele>18.0</ele><time>2026-05-01T13:46:34Z</time></trkpt><trkpt lat="44.242936385240164" lon="15.309531694592446"><ele>21.0</ele><time>2026-05-01T13:46:35Z</time></trkpt><trkpt lat="44.24283143902439" lon="15.309256123506385"><ele>24.0</ele><time>2026-05-01T13:46:36Z</time></trkpt><trkpt lat="44.242730618200035" lon="15.308983512630409"><ele>23.333333333333332</ele><time>2026-05-01T13:46:37Z</time></trkpt><trkpt lat="44.242627039515064" lon="15.308717199490575"><ele>22.666666666666664</ele><time>2026-05-01T13:46:38Z</time></trkpt><trkpt lat="44.24252602430494" lon="15.308453998478825"><ele>22.0</ele><time>2026-05-01T13:46:39Z</time></trkpt><trkpt lat="44.242430841730815" lon="15.308189152878489"><ele>20.666666666666664</ele><time>2026-05-01T13:46:40Z</time></trkpt><trkpt lat="44.24235295526814" lon="15.307917378315583"><ele>19.333333333333332</ele><time>2026-05-01T13:46:41Z</time></trkpt><trkpt lat="44.242320112359735" lon="15.307628735545414"><ele>18.0</ele><time>2026-05-01T13:46:42Z</time></trkpt><trkpt lat="44.242281927206186" lon="15.307337201479239"><ele>24.333333333333336</ele><time>2026-05-01T13:46:43Z</time></trkpt><trkpt lat="44.24226961956171" lon="15.307031736203284"><ele>30.666666666666668</ele><time>2026-05-01T13:46:44Z</time></trkpt><trkpt lat="44.242256540952646" lon="15.306732278672403"><ele>37.0</ele><time>2026-05-01T13:46:45Z</time></trkpt><trkpt lat="44.242237200316424" lon="15.306421812849317"><ele>36.5</ele><time>2026-05-01T13:46:46Z</time></trkpt><trkpt lat="44.24221135971053" lon="15.30609117962308"><ele>36.0</ele><time>2026-05-01T13:46:47Z</time></trkpt><trkpt lat="44.24218299987415" lon="15.305755132640428"><ele>34.5</ele><time>2026-05-01T13:46:48Z</time></trkpt><trkpt lat="44.24215710577077" lon="15.305412280738723"><ele>33.0</ele><time>2026-05-01T13:46:49Z</time></trkpt><trkpt lat="44.24212869397998" lon="15.305061292538396"><ele>31.5</ele><time>2026-05-01T13:46:50Z</time></trkpt><trkpt lat="44.24210358743993" lon="15.304711326984657"><ele>30.0</ele><time>2026-05-01T13:46:51Z</time></trkpt><trkpt lat="44.24207460548478" lon="15.304357356742385"><ele>30.0</ele><time>2026-05-01T13:46:52Z</time></trkpt><trkpt lat="44.2420440573708" lon="15.304004689634864"><ele>30.0</ele><time>2026-05-01T13:46:53Z</time></trkpt><trkpt lat="44.24201540329463" lon="15.30365276553997"><ele>27.5</ele><time>2026-05-01T13:46:54Z</time></trkpt><trkpt lat="44.24198666630127" lon="15.303301582088055"><ele>25.0</ele><time>2026-05-01T13:46:55Z</time></trkpt><trkpt lat="44.241950096373856" lon="15.302943874411081"><ele>22.0</ele><time>2026-05-01T13:46:56Z</time></trkpt><trkpt lat="44.24190198379044" lon="15.302596227903253"><ele>19.0</ele><time>2026-05-01T13:46:57Z</time></trkpt><trkpt lat="44.241836982991714" lon="15.302269208088555"><ele>16.0</ele><time>2026-05-01T13:46:58Z</time></trkpt><trkpt lat="44.2417476969392" lon="15.301960355763168"><ele>13.0</ele><time>2026-05-01T13:46:59Z</time></trkpt><trkpt lat="44.24163780409231" lon="15.301661230050893"><ele>11.5</ele><time>2026-05-01T13:47:00Z</time></trkpt><trkpt lat="44.24152453728292" lon="15.301371443341548"><ele>10.0</ele><time>2026-05-01T13:47:01Z</time></trkpt><trkpt lat="44.24141387932315" lon="15.301085812574442"><ele>13.666666666666668</ele><time>2026-05-01T13:47:02Z</time></trkpt><trkpt lat="44.2413166859048" lon="15.300814414269537"><ele>17.333333333333332</ele><time>2026-05-01T13:47:03Z</time></trkpt><trkpt lat="44.241229177549776" lon="15.300565361225901"><ele>21.0</ele><time>2026-05-01T13:47:04Z</time></trkpt><trkpt lat="44.241146731789414" lon="15.300335381379234"><ele>21.0</ele><time>2026-05-01T13:47:05Z</time></trkpt><trkpt lat="44.241072941354176" lon="15.300141961849741"><ele>21.0</ele><time>2026-05-01T13:47:06Z</time></trkpt><trkpt lat="44.241003270187896" lon="15.299972320598512"><ele>21.0</ele><time>2026-05-01T13:47:07Z</time></trkpt><trkpt lat="44.24092618058554" lon="15.299830127314797"><ele>21.0</ele><time>2026-05-01T13:47:08Z</time></trkpt><trkpt lat="44.240833114178486" lon="15.299707717209094"><ele>20.25</ele><time>2026-05-01T13:47:09Z</time></trkpt><trkpt lat="44.24072366975081" lon="15.299615915924958"><ele>19.5</ele><time>2026-05-01T13:47:10Z</time></trkpt><trkpt lat="44.240598422297865" lon="15.299555374122978"><ele>18.75</ele><time>2026-05-01T13:47:11Z</time></trkpt><trkpt lat="44.24046362511537" lon="15.299537307553344"><ele>18.0</ele><time>2026-05-01T13:47:12Z</time></trkpt><trkpt lat="44.24032248063168" lon="15.299564945012412"><ele>18.0</ele><time>2026-05-01T13:47:13Z</time></trkpt><trkpt lat="44.24017925580629" lon="15.299640867353022"><ele>18.0</ele><time>2026-05-01T13:47:14Z</time></trkpt><trkpt lat="44.24003542697254" lon="15.2997649863071"><ele>18.0</ele><time>2026-05-01T13:47:15Z</time></trkpt><trkpt lat="44.23988227247" lon="15.299928812309783"><ele>23.0</ele><time>2026-05-01T13:47:16Z</time></trkpt><trkpt lat="44.23971477630496" lon="15.300119274139924"><ele>28.0</ele><time>2026-05-01T13:47:17Z</time></trkpt><trkpt lat="44.239520388568884" lon="15.300341414643007"><ele>28.0</ele><time>2026-05-01T13:47:18Z</time></trkpt><trkpt lat="44.23930374861378" lon="15.30057754269032"><ele>28.0</ele><time>2026-05-01T13:47:19Z</time></trkpt><trkpt lat="44.23908382724256" lon="15.300814104783358"><ele>30.5</ele><time>2026-05-01T13:47:20Z</time></trkpt><trkpt lat="44.23886101994999" lon="15.301049855707726"><ele>33.0</ele><time>2026-05-01T13:47:21Z</time></trkpt><trkpt lat="44.2386410782863" lon="15.30128501370865"><ele>38.5</ele><time>2026-05-01T13:47:22Z</time></trkpt><trkpt lat="44.23842837339514" lon="15.301512985124754"><ele>44.0</ele><time>2026-05-01T13:47:23Z</time></trkpt><trkpt lat="44.23822132679136" lon="15.301729068183402"><ele>42.5</ele><time>2026-05-01T13:47:24Z</time></trkpt><trkpt lat="44.23801867952211" lon="15.301892377409414"><ele>41.0</ele><time>2026-05-01T13:47:25Z</time></trkpt><trkpt lat="44.23781690736588" lon="15.302018239862758"><ele>41.0</ele><time>2026-05-01T13:47:26Z</time></trkpt><trkpt lat="44.237603828800644" lon="15.302114556874038"><ele>41.0</ele><time>2026-05-01T13:47:27Z</time></trkpt><trkpt lat="44.23738598398472" lon="15.302179520536216"><ele>41.0</ele><time>2026-05-01T13:47:28Z</time></trkpt><trkpt lat="44.23715853591136" lon="15.302223032848305"><ele>47.5</ele><time>2026-05-01T13:47:29Z</time></trkpt><trkpt lat="44.236918892355206" lon="15.302260909391332"><ele>54.0</ele><time>2026-05-01T13:47:30Z</time></trkpt><trkpt lat="44.23667562918599" lon="15.302295926372121"><ele>55.0</ele><time>2026-05-01T13:47:31Z</time></trkpt><trkpt lat="44.236430639561505" lon="15.302329481877335"><ele>56.0</ele><time>2026-05-01T13:47:32Z</time></trkpt><trkpt lat="44.236180297020056" lon="15.302367140373057"><ele>56.0</ele><time>2026-05-01T13:47:33Z</time></trkpt><trkpt lat="44.23593179462767" lon="15.302409323315443"><ele>56.0</ele><time>2026-05-01T13:47:34Z</time></trkpt><trkpt lat="44.23569012218663" lon="15.302453019980014"><ele>58.0</ele><time>2026-05-01T13:47:35Z</time></trkpt><trkpt lat="44.235456932235564" lon="15.30249494066947"><ele>60.0</ele><time>2026-05-01T13:47:36Z</time></trkpt><trkpt lat="44.23522460049806" lon="15.30253418191298"><ele>60.0</ele><time>2026-05-01T13:47:37Z</time></trkpt><trkpt lat="44.234993397111836" lon="15.30256511570049"><ele>60.0</ele><time>2026-05-01T13:47:38Z</time></trkpt><trkpt lat="44.23476777571296" lon="15.302572073312216"><ele>60.66666666666667</ele><time>2026-05-01T13:47:39Z</time></trkpt><trkpt lat="44.23454312278418" lon="15.302552861606431"><ele>61.333333333333336</ele><time>2026-05-01T13:47:40Z</time></trkpt><trkpt lat="44.23432385922477" lon="15.302509639951532"><ele>62.0</ele><time>2026-05-01T13:47:41Z</time></trkpt><trkpt lat="44.234105671777805" lon="15.302454221417713"><ele>64.0</ele><time>2026-05-01T13:47:42Z</time></trkpt><trkpt lat="44.2338925059226" lon="15.30239937616807"><ele>66.0</ele><time>2026-05-01T13:47:43Z</time></trkpt><trkpt lat="44.233687678916084" lon="15.30234368202173"><ele>68.0</ele><time>2026-05-01T13:47:44Z</time></trkpt><trkpt lat="44.23350072247114" lon="15.302276123841507"><ele>67.66666666666667</ele><time>2026-05-01T13:47:45Z</time></trkpt><trkpt lat="44.233327401257945" lon="15.302186123249266"><ele>67.33333333333333</ele><time>2026-05-01T13:47:46Z</time></trkpt><trkpt lat="44.23317010900085" lon="15.302062705891094"><ele>67.0</ele><time>2026-05-01T13:47:47Z</time></trkpt><trkpt lat="44.23302920447082" lon="15.301905210072691"><ele>67.0</ele><time>2026-05-01T13:47:48Z</time></trkpt><trkpt lat="44.23290764377711" lon="15.301723468262391"><ele>67.0</ele><time>2026-05-01T13:47:49Z</time></trkpt><trkpt lat="44.232804505481894" lon="15.301523459941984"><ele>67.0</ele><time>2026-05-01T13:47:50Z</time></trkpt><trkpt lat="44.232709420075665" lon="15.301323339534429"><ele>66.66666666666666</ele><time>2026-05-01T13:47:51Z</time></trkpt><trkpt lat="44.23260465911137" lon="15.301140523548664"><ele>66.33333333333333</ele><time>2026-05-01T13:47:52Z</time></trkpt><trkpt lat="44.232476256042744" lon="15.300971938832689"><ele>66.0</ele><time>2026-05-01T13:47:53Z</time></trkpt><trkpt lat="44.23233297621865" lon="15.300814152724573"><ele>65.66666666666667</ele><time>2026-05-01T13:47:54Z</time></trkpt><trkpt lat="44.23217377917677" lon="15.300669632388585"><ele>65.33333333333334</ele><time>2026-05-01T13:47:55Z</time></trkpt><trkpt lat="44.23199324781753" lon="15.300532852309756"><ele>65.0</ele><time>2026-05-01T13:47:56Z</time></trkpt><trkpt lat="44.23178875401208" lon="15.300408857789876"><ele>63.5</ele><time>2026-05-01T13:47:57Z</time></trkpt><trkpt lat="44.231561641310485" lon="15.300289426135057"><ele>62.0</ele><time>2026-05-01T13:47:58Z</time></trkpt><trkpt lat="44.231326553643896" lon="15.300158242727727"><ele>61.0</ele><time>2026-05-01T13:47:59Z</time></trkpt><trkpt lat="44.23109448226839" lon="15.300015341332832"><ele>60.0</ele><time>2026-05-01T13:48:00Z</time></trkpt><trkpt lat="44.23086240522047" lon="15.29987207197006"><ele>58.5</ele><time>2026-05-01T13:48:01Z</time></trkpt><trkpt lat="44.230630649580334" lon="15.299732549782936"><ele>57.0</ele><time>2026-05-01T13:48:02Z</time></trkpt><trkpt lat="44.23039663610945" lon="15.299589592662631"><ele>57.0</ele><time>2026-05-01T13:48:03Z</time></trkpt><trkpt lat="44.23016188442939" lon="15.29944396202033"><ele>57.0</ele><time>2026-05-01T13:48:04Z</time></trkpt><trkpt lat="44.229928761294325" lon="15.299298034732383"><ele>56.5</ele><time>2026-05-01T13:48:05Z</time></trkpt><trkpt lat="44.22969323715207" lon="15.299155451849474"><ele>56.0</ele><time>2026-05-01T13:48:06Z</time></trkpt><trkpt lat="44.229465249952646" lon="15.299013846251379"><ele>55.0</ele><time>2026-05-01T13:48:07Z</time></trkpt><trkpt lat="44.22924103381923" lon="15.298871273853608"><ele>54.0</ele><time>2026-05-01T13:48:08Z</time></trkpt><trkpt lat="44.22901540854874" lon="15.298729928726992"><ele>53.5</ele><time>2026-05-01T13:48:09Z</time></trkpt><trkpt lat="44.228784548333856" lon="15.298596440858244"><ele>53.0</ele><time>2026-05-01T13:48:10Z</time></trkpt><trkpt lat="44.22854681615936" lon="15.298473545502832"><ele>53.0</ele><time>2026-05-01T13:48:11Z</time></trkpt><trkpt lat="44.228303170849884" lon="15.298375705879796"><ele>53.0</ele><time>2026-05-01T13:48:12Z</time></trkpt><trkpt lat="44.228053618879976" lon="15.298303542471249"><ele>52.5</ele><time>2026-05-01T13:48:13Z</time></trkpt><trkpt lat="44.227796139543536" lon="15.298261210967375"><ele>52.0</ele><time>2026-05-01T13:48:14Z</time></trkpt><trkpt lat="44.22753740366785" lon="15.29823872105952"><ele>52.0</ele><time>2026-05-01T13:48:15Z</time></trkpt><trkpt lat="44.22727973955632" lon="15.298221408034706"><ele>52.0</ele><time>2026-05-01T13:48:16Z</time></trkpt><trkpt lat="44.227018203963375" lon="15.298196923065236"><ele>52.0</ele><time>2026-05-01T13:48:17Z</time></trkpt><trkpt lat="44.22675558877982" lon="15.298168102799478"><ele>52.0</ele><time>2026-05-01T13:48:18Z</time></trkpt><trkpt lat="44.22649330959425" lon="15.298133289434928"><ele>52.0</ele><time>2026-05-01T13:48:19Z</time></trkpt><trkpt lat="44.226231752939626" lon="15.29810310341686"><ele>52.0</ele><time>2026-05-01T13:48:20Z</time></trkpt><trkpt lat="44.22597102012767" lon="15.298076042714582"><ele>52.5</ele><time>2026-05-01T13:48:21Z</time></trkpt><trkpt lat="44.22571052630979" lon="15.298054036143078"><ele>53.0</ele><time>2026-05-01T13:48:22Z</time></trkpt><trkpt lat="44.225450261649264" lon="15.298029542673438"><ele>53.5</ele><time>2026-05-01T13:48:23Z</time></trkpt><trkpt lat="44.22519483639769" lon="15.298002950148753"><ele>54.0</ele><time>2026-05-01T13:48:24Z</time></trkpt><trkpt lat="44.22493704349313" lon="15.297977333836162"><ele>53.5</ele><time>2026-05-01T13:48:25Z</time></trkpt><trkpt lat="44.22468037472366" lon="15.297952157146065"><ele>53.0</ele><time>2026-05-01T13:48:26Z</time></trkpt><trkpt lat="44.22441969884017" lon="15.297927529075462"><ele>53.0</ele><time>2026-05-01T13:48:27Z</time></trkpt><trkpt lat="44.22416294948472" lon="15.297902883843227"><ele>53.0</ele><time>2026-05-01T13:48:28Z</time></trkpt><trkpt lat="44.22390441148322" lon="15.297878118542611"><ele>51.5</ele><time>2026-05-01T13:48:29Z</time></trkpt><trkpt lat="44.22364178586115" lon="15.29785283981253"><ele>50.0</ele><time>2026-05-01T13:48:30Z</time></trkpt><trkpt lat="44.22337671798787" lon="15.297824067891861"><ele>49.0</ele><time>2026-05-01T13:48:31Z</time></trkpt><trkpt lat="44.22310937061022" lon="15.297793985169953"><ele>48.0</ele><time>2026-05-01T13:48:32Z</time></trkpt><trkpt lat="44.22284407330629" lon="15.297766839251778"><ele>48.0</ele><time>2026-05-01T13:48:33Z</time></trkpt><trkpt lat="44.22257760088164" lon="15.29774519197033"><ele>48.0</ele><time>2026-05-01T13:48:34Z</time></trkpt><trkpt lat="44.22230616565016" lon="15.297721351557449"><ele>48.5</ele><time>2026-05-01T13:48:35Z</time></trkpt><trkpt lat="44.222031876066815" lon="15.297691557551115"><ele>49.0</ele><time>2026-05-01T13:48:36Z</time></trkpt><trkpt lat="44.22175298306423" lon="15.297654868424411"><ele>48.5</ele><time>2026-05-01T13:48:37Z</time></trkpt><trkpt lat="44.2214733468147" lon="15.297593986692231"><ele>48.0</ele><time>2026-05-01T13:48:38Z</time></trkpt><trkpt lat="44.221201699526844" lon="15.297453557486488"><ele>48.0</ele><time>2026-05-01T13:48:39Z</time></trkpt><trkpt lat="44.220918045944764" lon="15.297307886288184"><ele>48.0</ele><time>2026-05-01T13:48:40Z</time></trkpt><trkpt lat="44.22061765442108" lon="15.297169527413827"><ele>49.5</ele><time>2026-05-01T13:48:41Z</time></trkpt><trkpt lat="44.22031759009534" lon="15.297000125576782"><ele>51.0</ele><time>2026-05-01T13:48:42Z</time></trkpt><trkpt lat="44.220021746342404" lon="15.296841361440016"><ele>52.5</ele><time>2026-05-01T13:48:43Z</time></trkpt><trkpt lat="44.21973362868191" lon="15.296691252832186"><ele>54.0</ele><time>2026-05-01T13:48:44Z</time></trkpt><trkpt lat="44.21945359706123" lon="15.296548163967204"><ele>54.5</ele><time>2026-05-01T13:48:45Z</time></trkpt><trkpt lat="44.21917625955525" lon="15.296407794716783"><ele>55.0</ele><time>2026-05-01T13:48:46Z</time></trkpt><trkpt lat="44.218906436426224" lon="15.29626816340978"><ele>57.0</ele><time>2026-05-01T13:48:47Z</time></trkpt><trkpt lat="44.21864125306928" lon="15.296126707520527"><ele>59.0</ele><time>2026-05-01T13:48:48Z</time></trkpt><trkpt lat="44.21838400717918" lon="15.295988598886343"><ele>59.0</ele><time>2026-05-01T13:48:49Z</time></trkpt><trkpt lat="44.21812845870968" lon="15.29585159203597"><ele>59.0</ele><time>2026-05-01T13:48:50Z</time></trkpt><trkpt lat="44.21786866932822" lon="15.295714028651599"><ele>58.0</ele><time>2026-05-01T13:48:51Z</time></trkpt><trkpt lat="44.21760224876547" lon="15.295571674531352"><ele>57.0</ele><time>2026-05-01T13:48:52Z</time></trkpt><trkpt lat="44.217325819026755" lon="15.295418312883974"><ele>56.5</ele><time>2026-05-01T13:48:53Z</time></trkpt><trkpt lat="44.21702717424636" lon="15.295254797793843"><ele>56.0</ele><time>2026-05-01T13:48:54Z</time></trkpt><trkpt lat="44.21670789096528" lon="15.295083398133754"><ele>57.0</ele><time>2026-05-01T13:48:55Z</time></trkpt><trkpt lat="44.216360595398896" lon="15.294899064648398"><ele>58.0</ele><time>2026-05-01T13:48:56Z</time></trkpt><trkpt lat="44.21599462434609" lon="15.294702729832721"><ele>56.0</ele><time>2026-05-01T13:48:57Z</time></trkpt><trkpt lat="44.21560909112889" lon="15.29449652046781"><ele>54.0</ele><time>2026-05-01T13:48:58Z</time></trkpt><trkpt lat="44.21523293035674" lon="15.294292269024176"><ele>54.0</ele><time>2026-05-01T13:48:59Z</time></trkpt><trkpt lat="44.214891325983025" lon="15.29410501099651"><ele>54.0</ele><time>2026-05-01T13:49:00Z</time></trkpt><trkpt lat="44.214566649165505" lon="15.29392823391065"><ele>54.0</ele><time>2026-05-01T13:49:01Z</time></trkpt><trkpt lat="44.21425239914374" lon="15.293760721727697"><ele>54.0</ele><time>2026-05-01T13:49:02Z</time></trkpt><trkpt lat="44.213962458477276" lon="15.293605672728127"><ele>52.0</ele><time>2026-05-01T13:49:03Z</time></trkpt><trkpt lat="44.21371673602367" lon="15.293470557755741"><ele>50.0</ele><time>2026-05-01T13:49:04Z</time></trkpt><trkpt lat="44.2134974107548" lon="15.293349644455791"><ele>50.0</ele><time>2026-05-01T13:49:05Z</time></trkpt><trkpt lat="44.21329208399038" lon="15.29324522456766"><ele>50.0</ele><time>2026-05-01T13:49:06Z</time></trkpt><trkpt lat="44.213103353029894" lon="15.293140912463377"><ele>50.0</ele><time>2026-05-01T13:49:07Z</time></trkpt><trkpt lat="44.21291478103814" lon="15.29303962878164"><ele>49.333333333333336</ele><time>2026-05-01T13:49:08Z</time></trkpt><trkpt lat="44.21273786330922" lon="15.29294254583221"><ele>48.66666666666667</ele><time>2026-05-01T13:49:09Z</time></trkpt><trkpt lat="44.212556329922286" lon="15.292845513395912"><ele>48.0</ele><time>2026-05-01T13:49:10Z</time></trkpt><trkpt lat="44.212382979228096" lon="15.292751542564016"><ele>47.333333333333336</ele><time>2026-05-01T13:49:11Z</time></trkpt><trkpt lat="44.21222268013623" lon="15.292666164735335"><ele>46.66666666666667</ele><time>2026-05-01T13:49:12Z</time></trkpt><trkpt lat="44.21207779723366" lon="15.292588072268765"><ele>46.0</ele><time>2026-05-01T13:49:13Z</time></trkpt><trkpt lat="44.2119447689427" lon="15.29251788168825"><ele>46.0</ele><time>2026-05-01T13:49:14Z</time></trkpt><trkpt lat="44.21181456893619" lon="15.29245007832768"><ele>46.0</ele><time>2026-05-01T13:49:15Z</time></trkpt><trkpt lat="44.211681529280206" lon="15.29238543035761"><ele>46.0</ele><time>2026-05-01T13:49:16Z</time></trkpt><trkpt lat="44.21154516101566" lon="15.292310615493305"><ele>46.0</ele><time>2026-05-01T13:49:17Z</time></trkpt><trkpt lat="44.21140527484761" lon="15.292237649385521"><ele>44.66666666666667</ele><time>2026-05-01T13:49:18Z</time></trkpt><trkpt lat="44.21126449853656" lon="15.292162318774208"><ele>43.333333333333336</ele><time>2026-05-01T13:49:19Z</time></trkpt><trkpt lat="44.21111863995932" lon="15.292091318756137"><ele>42.0</ele><time>2026-05-01T13:49:20Z</time></trkpt><trkpt lat="44.21096524348651" lon="15.292015621729766"><ele>42.0</ele><time>2026-05-01T13:49:21Z</time></trkpt><trkpt lat="44.21080589918923" lon="15.29193407605863"><ele>42.0</ele><time>2026-05-01T13:49:22Z</time></trkpt><trkpt lat="44.210643074978925" lon="15.29185190804646"><ele>42.0</ele><time>2026-05-01T13:49:23Z</time></trkpt><trkpt lat="44.21047302411233" lon="15.291763520874039"><ele>40.666666666666664</ele><time>2026-05-01T13:49:24Z</time></trkpt><trkpt lat="44.210292780545025" lon="15.291669704527838"><ele>39.33333333333333</ele><time>2026-05-01T13:49:25Z</time></trkpt><trkpt lat="44.21010363806892" lon="15.291572443103442"><ele>38.0</ele><time>2026-05-01T13:49:26Z</time></trkpt><trkpt lat="44.20991245853176" lon="15.291474218887709"><ele>37.0</ele><time>2026-05-01T13:49:27Z</time></trkpt><trkpt lat="44.20971137629108" lon="15.291376215854955"><ele>36.0</ele><time>2026-05-01T13:49:28Z</time></trkpt><trkpt lat="44.209497645332156" lon="15.291270056341668"><ele>35.0</ele><time>2026-05-01T13:49:29Z</time></trkpt><trkpt lat="44.20927057154577" lon="15.29115697057176"><ele>35.0</ele><time>2026-05-01T13:49:30Z</time></trkpt><trkpt lat="44.209024858713256" lon="15.291034060337243"><ele>35.0</ele><time>2026-05-01T13:49:31Z</time></trkpt><trkpt lat="44.20875912635348" lon="15.290898731582878"><ele>35.5</ele><time>2026-05-01T13:49:32Z</time></trkpt><trkpt lat="44.20848708651576" lon="15.290758030588021"><ele>36.0</ele><time>2026-05-01T13:49:33Z</time></trkpt><trkpt lat="44.20822243046885" lon="15.290621265443924"><ele>36.0</ele><time>2026-05-01T13:49:34Z</time></trkpt><trkpt lat="44.20796895091376" lon="15.29049348627656"><ele>36.0</ele><time>2026-05-01T13:49:35Z</time></trkpt><trkpt lat="44.20773054653374" lon="15.290374380811482"><ele>36.0</ele><time>2026-05-01T13:49:36Z</time></trkpt><trkpt lat="44.20750878222505" lon="15.290261597506046"><ele>36.0</ele><time>2026-05-01T13:49:37Z</time></trkpt><trkpt lat="44.20729897228876" lon="15.29015478314688"><ele>37.0</ele><time>2026-05-01T13:49:38Z</time></trkpt><trkpt lat="44.20709195701472" lon="15.290049131648658"><ele>38.0</ele><time>2026-05-01T13:49:39Z</time></trkpt><trkpt lat="44.20689183349281" lon="15.28995100595722"><ele>39.0</ele><time>2026-05-01T13:49:40Z</time></trkpt><trkpt lat="44.20669706734753" lon="15.28984955988723"><ele>38.666666666666664</ele><time>2026-05-01T13:49:41Z</time></trkpt><trkpt lat="44.206513534100715" lon="15.289750984441762"><ele>38.33333333333333</ele><time>2026-05-01T13:49:42Z</time></trkpt><trkpt lat="44.206347397856675" lon="15.28965109849256"><ele>38.0</ele><time>2026-05-01T13:49:43Z</time></trkpt><trkpt lat="44.20618648867891" lon="15.289536069396046"><ele>39.0</ele><time>2026-05-01T13:49:44Z</time></trkpt><trkpt lat="44.20603696998757" lon="15.289412926085618"><ele>40.0</ele><time>2026-05-01T13:49:45Z</time></trkpt><trkpt lat="44.20588533850658" lon="15.289288952798094"><ele>41.0</ele><time>2026-05-01T13:49:46Z</time></trkpt><trkpt lat="44.20573803767653" lon="15.28917568038873"><ele>41.33333333333333</ele><time>2026-05-01T13:49:47Z</time></trkpt><trkpt lat="44.20559201782112" lon="15.289071984968805"><ele>41.666666666666664</ele><time>2026-05-01T13:49:48Z</time></trkpt><trkpt lat="44.2054410198374" lon="15.288969125368157"><ele>42.0</ele><time>2026-05-01T13:49:49Z</time></trkpt><trkpt lat="44.20529700704866" lon="15.288866940934595"><ele>42.0</ele><time>2026-05-01T13:49:50Z</time></trkpt><trkpt lat="44.205155650236" lon="15.28876812738135"><ele>42.0</ele><time>2026-05-01T13:49:51Z</time></trkpt><trkpt lat="44.20501665023131" lon="15.288673941875498"><ele>42.0</ele><time>2026-05-01T13:49:52Z</time></trkpt><trkpt lat="44.20487804397518" lon="15.288590194476779"><ele>42.25</ele><time>2026-05-01T13:49:53Z</time></trkpt><trkpt lat="44.20474191798187" lon="15.288514412054273"><ele>42.5</ele><time>2026-05-01T13:49:54Z</time></trkpt><trkpt lat="44.204603829382556" lon="15.288446435388519"><ele>42.75</ele><time>2026-05-01T13:49:55Z</time></trkpt><trkpt lat="44.20446373594424" lon="15.28837875714548"><ele>43.0</ele><time>2026-05-01T13:49:56Z</time></trkpt><trkpt lat="44.204323625819846" lon="15.288303622059953"><ele>43.0</ele><time>2026-05-01T13:49:57Z</time></trkpt><trkpt lat="44.20417971469308" lon="15.288224915931744"><ele>43.0</ele><time>2026-05-01T13:49:58Z</time></trkpt><trkpt lat="44.20402772996345" lon="15.288142791456073"><ele>43.0</ele><time>2026-05-01T13:49:59Z</time></trkpt><trkpt lat="44.203877826504566" lon="15.288064059746377"><ele>41.333333333333336</ele><time>2026-05-01T13:50:00Z</time></trkpt><trkpt lat="44.20372607872057" lon="15.287986621412951"><ele>39.666666666666664</ele><time>2026-05-01T13:50:01Z</time></trkpt><trkpt lat="44.20357669993827" lon="15.287907650531972"><ele>38.0</ele><time>2026-05-01T13:50:02Z</time></trkpt><trkpt lat="44.203419315770006" lon="15.287825669725962"><ele>38.0</ele><time>2026-05-01T13:50:03Z</time></trkpt><trkpt lat="44.20326268338268" lon="15.287747339763184"><ele>38.0</ele><time>2026-05-01T13:50:04Z</time></trkpt><trkpt lat="44.20310246342767" lon="15.287661175137021"><ele>38.0</ele><time>2026-05-01T13:50:05Z</time></trkpt><trkpt lat="44.20294132309769" lon="15.28756896108909"><ele>37.0</ele><time>2026-05-01T13:50:06Z</time></trkpt><trkpt lat="44.202785129281494" lon="15.287470618860317"><ele>36.0</ele><time>2026-05-01T13:50:07Z</time></trkpt><trkpt lat="44.20263495869831" lon="15.287364920148104"><ele>35.0</ele><time>2026-05-01T13:50:08Z</time></trkpt><trkpt lat="44.20249211337269" lon="15.287245908629599"><ele>34.666666666666664</ele><time>2026-05-01T13:50:09Z</time></trkpt><trkpt lat="44.202359440539404" lon="15.287114525507647"><ele>34.333333333333336</ele><time>2026-05-01T13:50:10Z</time></trkpt><trkpt lat="44.20223121856783" lon="15.28697757894673"><ele>34.0</ele><time>2026-05-01T13:50:11Z</time></trkpt><trkpt lat="44.202112372614536" lon="15.28684234963761"><ele>34.0</ele><time>2026-05-01T13:50:12Z</time></trkpt><trkpt lat="44.20199103576242" lon="15.286705833633826"><ele>34.0</ele><time>2026-05-01T13:50:13Z</time></trkpt><trkpt lat="44.20187402033924" lon="15.2865815703581"><ele>34.0</ele><time>2026-05-01T13:50:14Z</time></trkpt><trkpt lat="44.20176037028236" lon="15.286458291875377"><ele>34.0</ele><time>2026-05-01T13:50:15Z</time></trkpt><trkpt lat="44.2016484974136" lon="15.286337841191626"><ele>34.0</ele><time>2026-05-01T13:50:16Z</time></trkpt><trkpt lat="44.201536285734576" lon="15.286214651470331"><ele>34.0</ele><time>2026-05-01T13:50:17Z</time></trkpt><trkpt lat="44.20142300581062" lon="15.286091948575477"><ele>34.0</ele><time>2026-05-01T13:50:18Z</time></trkpt><trkpt lat="44.201309865447655" lon="15.285972190787492"><ele>34.0</ele><time>2026-05-01T13:50:19Z</time></trkpt><trkpt lat="44.20120438138853" lon="15.285855436729193"><ele>34.0</ele><time>2026-05-01T13:50:20Z</time></trkpt><trkpt lat="44.201105211456124" lon="15.285751963148497"><ele>34.0</ele><time>2026-05-01T13:50:21Z</time></trkpt><trkpt lat="44.20101701462008" lon="15.285658167915646"><ele>34.0</ele><time>2026-05-01T13:50:22Z</time></trkpt><trkpt lat="44.20093929237669" lon="15.285576288256326"><ele>34.0</ele><time>2026-05-01T13:50:23Z</time></trkpt><trkpt lat="44.200867348000536" lon="15.285502190318228"><ele>34.0</ele><time>2026-05-01T13:50:24Z</time></trkpt><trkpt lat="44.200797318493365" lon="15.285431389289537"><ele>33.5</ele><time>2026-05-01T13:50:25Z</time></trkpt><trkpt lat="44.20072255294846" lon="15.285349144591803"><ele>33.0</ele><time>2026-05-01T13:50:26Z</time></trkpt><trkpt lat="44.20063232623989" lon="15.285251522351926"><ele>32.5</ele><time>2026-05-01T13:50:27Z</time></trkpt><trkpt lat="44.2005330602482" lon="15.285144527506251"><ele>32.0</ele><time>2026-05-01T13:50:28Z</time></trkpt><trkpt lat="44.20042729925864" lon="15.285028093976065"><ele>32.0</ele><time>2026-05-01T13:50:29Z</time></trkpt><trkpt lat="44.200312381487976" lon="15.284908916705884"><ele>32.0</ele><time>2026-05-01T13:50:30Z</time></trkpt><trkpt lat="44.20019238775554" lon="15.284782170716925"><ele>32.0</ele><time>2026-05-01T13:50:31Z</time></trkpt><trkpt lat="44.20006322551666" lon="15.284641286960905"><ele>31.333333333333332</ele><time>2026-05-01T13:50:32Z</time></trkpt><trkpt lat="44.19992475643319" lon="15.28448510679697"><ele>30.666666666666664</ele><time>2026-05-01T13:50:33Z</time></trkpt><trkpt lat="44.19977086738272" lon="15.284314584705312"><ele>30.0</ele><time>2026-05-01T13:50:34Z</time></trkpt><trkpt lat="44.199596881671226" lon="15.28413182124736"><ele>30.0</ele><time>2026-05-01T13:50:35Z</time></trkpt><trkpt lat="44.19940162366501" lon="15.283934739316102"><ele>30.0</ele><time>2026-05-01T13:50:36Z</time></trkpt><trkpt lat="44.199210743196595" lon="15.283726193724409"><ele>29.0</ele><time>2026-05-01T13:50:37Z</time></trkpt><trkpt lat="44.19901822283192" lon="15.283502199045298"><ele>28.0</ele><time>2026-05-01T13:50:38Z</time></trkpt><trkpt lat="44.198809125034074" lon="15.283240539850345"><ele>27.5</ele><time>2026-05-01T13:50:39Z</time></trkpt><trkpt lat="44.19859267135452" lon="15.282952517895158"><ele>27.0</ele><time>2026-05-01T13:50:40Z</time></trkpt><trkpt lat="44.19840352507836" lon="15.28269360059034"><ele>27.0</ele><time>2026-05-01T13:50:41Z</time></trkpt><trkpt lat="44.19823096262236" lon="15.282441730671621"><ele>27.0</ele><time>2026-05-01T13:50:42Z</time></trkpt><trkpt lat="44.198070312392545" lon="15.282175859465704"><ele>25.0</ele><time>2026-05-01T13:50:43Z</time></trkpt><trkpt lat="44.197921471973345" lon="15.281895679215951"><ele>23.0</ele><time>2026-05-01T13:50:44Z</time></trkpt><trkpt lat="44.197772040878085" lon="15.281611435192303"><ele>23.0</ele><time>2026-05-01T13:50:45Z</time></trkpt><trkpt lat="44.197596912415115" lon="15.281348192939737"><ele>23.0</ele><time>2026-05-01T13:50:46Z</time></trkpt><trkpt lat="44.19738544184815" lon="15.281115885637913"><ele>23.0</ele><time>2026-05-01T13:50:47Z</time></trkpt><trkpt lat="44.19714714637197" lon="15.280926763233662"><ele>23.0</ele><time>2026-05-01T13:50:48Z</time></trkpt><trkpt lat="44.196904735030934" lon="15.280742458590161"><ele>23.0</ele><time>2026-05-01T13:50:49Z</time></trkpt><trkpt lat="44.19668433948545" lon="15.280522021242314"><ele>23.0</ele><time>2026-05-01T13:50:50Z</time></trkpt><trkpt lat="44.1964697898987" lon="15.280284057641333"><ele>23.5</ele><time>2026-05-01T13:50:51Z</time></trkpt><trkpt lat="44.19624974805558" lon="15.28004013918863"><ele>24.0</ele><time>2026-05-01T13:50:52Z</time></trkpt><trkpt lat="44.19605476347035" lon="15.27976804349106"><ele>23.5</ele><time>2026-05-01T13:50:53Z</time></trkpt><trkpt lat="44.19586160428985" lon="15.279511810958143"><ele>23.0</ele><time>2026-05-01T13:50:54Z</time></trkpt><trkpt lat="44.195663354918786" lon="15.279268612605318"><ele>23.0</ele><time>2026-05-01T13:50:55Z</time></trkpt><trkpt lat="44.19545682289951" lon="15.2790324372907"><ele>23.0</ele><time>2026-05-01T13:50:56Z</time></trkpt><trkpt lat="44.195238701099925" lon="15.278810897194525"><ele>23.0</ele><time>2026-05-01T13:50:57Z</time></trkpt><trkpt lat="44.19500898912411" lon="15.278596075316395"><ele>23.0</ele><time>2026-05-01T13:50:58Z</time></trkpt><trkpt lat="44.19477448696993" lon="15.278379814861093"><ele>23.0</ele><time>2026-05-01T13:50:59Z</time></trkpt><trkpt lat="44.19454131785821" lon="15.278163332744642"><ele>23.0</ele><time>2026-05-01T13:51:00Z</time></trkpt><trkpt lat="44.19431278564721" lon="15.277952207176552"><ele>23.0</ele><time>2026-05-01T13:51:01Z</time></trkpt><trkpt lat="44.194089500878974" lon="15.277745737478854"><ele>23.0</ele><time>2026-05-01T13:51:02Z</time></trkpt><trkpt lat="44.19387391208716" lon="15.27754583142673"><ele>23.0</ele><time>2026-05-01T13:51:03Z</time></trkpt><trkpt lat="44.193674633339555" lon="15.277354886548663"><ele>23.0</ele><time>2026-05-01T13:51:04Z</time></trkpt><trkpt lat="44.193487191309444" lon="15.277181364193636"><ele>23.666666666666668</ele><time>2026-05-01T13:51:05Z</time></trkpt><trkpt lat="44.19330556196223" lon="15.277028853550478"><ele>24.333333333333336</ele><time>2026-05-01T13:51:06Z</time></trkpt><trkpt lat="44.19310464167407" lon="15.276908489979236"><ele>25.0</ele><time>2026-05-01T13:51:07Z</time></trkpt><trkpt lat="44.19288496603638" lon="15.276835271197449"><ele>25.5</ele><time>2026-05-01T13:51:08Z</time></trkpt><trkpt lat="44.19264967929128" lon="15.276805294793379"><ele>26.0</ele><time>2026-05-01T13:51:09Z</time></trkpt><trkpt lat="44.19239353373879" lon="15.276804114140823"><ele>27.0</ele><time>2026-05-01T13:51:10Z</time></trkpt><trkpt lat="44.19212815199717" lon="15.276805028752733"><ele>28.0</ele><time>2026-05-01T13:51:11Z</time></trkpt><trkpt lat="44.191883444340824" lon="15.276802524405399"><ele>28.0</ele><time>2026-05-01T13:51:12Z</time></trkpt><trkpt lat="44.191653037200076" lon="15.27680536239808"><ele>28.0</ele><time>2026-05-01T13:51:13Z</time></trkpt><trkpt lat="44.191433560071076" lon="15.276799216393423"><ele>28.666666666666668</ele><time>2026-05-01T13:51:14Z</time></trkpt><trkpt lat="44.19121183219813" lon="15.276789171053107"><ele>29.333333333333336</ele><time>2026-05-01T13:51:15Z</time></trkpt><trkpt lat="44.19099763438659" lon="15.276784074130495"><ele>30.0</ele><time>2026-05-01T13:51:16Z</time></trkpt><trkpt lat="44.19077499290246" lon="15.27677674685416"><ele>30.5</ele><time>2026-05-01T13:51:17Z</time></trkpt><trkpt lat="44.190548610025736" lon="15.276770776758005"><ele>31.0</ele><time>2026-05-01T13:51:18Z</time></trkpt><trkpt lat="44.19031691431743" lon="15.276762035853164"><ele>31.0</ele><time>2026-05-01T13:51:19Z</time></trkpt><trkpt lat="44.19007902278348" lon="15.276753266644253"><ele>31.0</ele><time>2026-05-01T13:51:20Z</time></trkpt><trkpt lat="44.189848349807015" lon="15.276735839685653"><ele>30.666666666666668</ele><time>2026-05-01T13:51:21Z</time></trkpt><trkpt lat="44.18963457114695" lon="15.276684915450357"><ele>30.333333333333336</ele><time>2026-05-01T13:51:22Z</time></trkpt><trkpt lat="44.18944560112676" lon="15.276560775791125"><ele>30.0</ele><time>2026-05-01T13:51:23Z</time></trkpt><trkpt lat="44.189284766699224" lon="15.276384000604843"><ele>30.0</ele><time>2026-05-01T13:51:24Z</time></trkpt><trkpt lat="44.189147312336154" lon="15.276154414238288"><ele>30.0</ele><time>2026-05-01T13:51:25Z</time></trkpt><trkpt lat="44.18901971974868" lon="15.275914681633736"><ele>30.0</ele><time>2026-05-01T13:51:26Z</time></trkpt><trkpt lat="44.18888932049553" lon="15.275683017303965"><ele>30.666666666666664</ele><time>2026-05-01T13:51:27Z</time></trkpt><trkpt lat="44.188752580988506" lon="15.275471549300459"><ele>31.333333333333332</ele><time>2026-05-01T13:51:28Z</time></trkpt><trkpt lat="44.188585507647176" lon="15.275293009849932"><ele>32.0</ele><time>2026-05-01T13:51:29Z</time></trkpt><trkpt lat="44.18839483806608" lon="15.275165580703977"><ele>32.0</ele><time>2026-05-01T13:51:30Z</time></trkpt><trkpt lat="44.188189144954876" lon="15.275103806792899"><ele>32.0</ele><time>2026-05-01T13:51:31Z</time></trkpt><trkpt lat="44.187977106646905" lon="15.27509856373114"><ele>32.0</ele><time>2026-05-01T13:51:32Z</time></trkpt><trkpt lat="44.18775928347372" lon="15.275139047919719"><ele>32.33333333333333</ele><time>2026-05-01T13:51:33Z</time></trkpt><trkpt lat="44.18754790899316" lon="15.275197356136214"><ele>32.666666666666664</ele><time>2026-05-01T13:51:34Z</time></trkpt><trkpt lat="44.187336470618824" lon="15.275242616189669"><ele>33.0</ele><time>2026-05-01T13:51:35Z</time></trkpt><trkpt lat="44.187134996291974" lon="15.275281777487116"><ele>34.0</ele><time>2026-05-01T13:51:36Z</time></trkpt><trkpt lat="44.18694606054286" lon="15.275320437972725"><ele>35.0</ele><time>2026-05-01T13:51:37Z</time></trkpt><trkpt lat="44.18676467186836" lon="15.275353482142151"><ele>36.0</ele><time>2026-05-01T13:51:38Z</time></trkpt><trkpt lat="44.18660076067468" lon="15.275381701806337"><ele>37.0</ele><time>2026-05-01T13:51:39Z</time></trkpt><trkpt lat="44.18645512169312" lon="15.275393803538515"><ele>38.0</ele><time>2026-05-01T13:51:40Z</time></trkpt><trkpt lat="44.1863131475688" lon="15.275388910222931"><ele>39.0</ele><time>2026-05-01T13:51:41Z</time></trkpt><trkpt lat="44.186166844704836" lon="15.275365518434226"><ele>40.0</ele><time>2026-05-01T13:51:42Z</time></trkpt><trkpt lat="44.18603639085799" lon="15.275330244452187"><ele>40.0</ele><time>2026-05-01T13:51:43Z</time></trkpt><trkpt lat="44.18592356263002" lon="15.27529535399703"><ele>40.0</ele><time>2026-05-01T13:51:44Z</time></trkpt><trkpt lat="44.18583045430883" lon="15.275262626614166"><ele>40.0</ele><time>2026-05-01T13:51:45Z</time></trkpt><trkpt lat="44.18574461242073" lon="15.275234240392644"><ele>40.0</ele><time>2026-05-01T13:51:46Z</time></trkpt><trkpt lat="44.185667761021946" lon="15.275208317568465"><ele>40.0</ele><time>2026-05-01T13:51:47Z</time></trkpt><trkpt lat="44.18560161547202" lon="15.275160919060323"><ele>40.0</ele><time>2026-05-01T13:51:48Z</time></trkpt><trkpt lat="44.18553503502654" lon="15.275101004429647"><ele>40.0</ele><time>2026-05-01T13:51:49Z</time></trkpt><trkpt lat="44.185452497105295" lon="15.275044802564524"><ele>40.0</ele><time>2026-05-01T13:51:50Z</time></trkpt><trkpt lat="44.18535742530075" lon="15.275029232017095"><ele>40.0</ele><time>2026-05-01T13:51:51Z</time></trkpt><trkpt lat="44.185255241187775" lon="15.275044039651739"><ele>40.0</ele><time>2026-05-01T13:51:52Z</time></trkpt><trkpt lat="44.1851390341384" lon="15.275044491742"><ele>40.0</ele><time>2026-05-01T13:51:53Z</time></trkpt><trkpt lat="44.185012423630134" lon="15.275019848297617"><ele>40.0</ele><time>2026-05-01T13:51:54Z</time></trkpt><trkpt lat="44.18488059471705" lon="15.274982545016034"><ele>40.0</ele><time>2026-05-01T13:51:55Z</time></trkpt><trkpt lat="44.184742679259" lon="15.274939020009075"><ele>40.0</ele><time>2026-05-01T13:51:56Z</time></trkpt><trkpt lat="44.18460300661293" lon="15.27490091779172"><ele>40.0</ele><time>2026-05-01T13:51:57Z</time></trkpt><trkpt lat="44.184462068557046" lon="15.274858974320452"><ele>40.0</ele><time>2026-05-01T13:51:58Z</time></trkpt><trkpt lat="44.184321139623094" lon="15.27481597992088"><ele>40.0</ele><time>2026-05-01T13:51:59Z</time></trkpt><trkpt lat="44.184190518306956" lon="15.274771979479766"><ele>40.0</ele><time>2026-05-01T13:52:00Z</time></trkpt><trkpt lat="44.184069821311255" lon="15.27472967357827"><ele>40.5</ele><time>2026-05-01T13:52:01Z</time></trkpt><trkpt lat="44.18395395147686" lon="15.27469597478847"><ele>41.0</ele><time>2026-05-01T13:52:02Z</time></trkpt><trkpt lat="44.18383664975335" lon="15.274657993675788"><ele>41.5</ele><time>2026-05-01T13:52:03Z</time></trkpt><trkpt lat="44.183718779911686" lon="15.274624354401993"><ele>42.0</ele><time>2026-05-01T13:52:04Z</time></trkpt><trkpt lat="44.183602748715685" lon="15.27458314932362"><ele>42.0</ele><time>2026-05-01T13:52:05Z</time></trkpt><trkpt lat="44.183483315965184" lon="15.274545398866444"><ele>42.0</ele><time>2026-05-01T13:52:06Z</time></trkpt><trkpt lat="44.18335673209073" lon="15.274502449037564"><ele>42.0</ele><time>2026-05-01T13:52:07Z</time></trkpt><trkpt lat="44.18322380175018" lon="15.274461747159798"><ele>42.0</ele><time>2026-05-01T13:52:08Z</time></trkpt><trkpt lat="44.18308477019371" lon="15.27441788751343"><ele>42.25</ele><time>2026-05-01T13:52:09Z</time></trkpt><trkpt lat="44.182942390354306" lon="15.274376678094976"><ele>42.5</ele><time>2026-05-01T13:52:10Z</time></trkpt><trkpt lat="44.18279902587803" lon="15.274329696793057"><ele>42.75</ele><time>2026-05-01T13:52:11Z</time></trkpt><trkpt lat="44.182648901616616" lon="15.27427981184184"><ele>43.0</ele><time>2026-05-01T13:52:12Z</time></trkpt><trkpt lat="44.18249817335391" lon="15.274224816815892"><ele>43.0</ele><time>2026-05-01T13:52:13Z</time></trkpt><trkpt lat="44.18235027781523" lon="15.274158668561721"><ele>43.0</ele><time>2026-05-01T13:52:14Z</time></trkpt><trkpt lat="44.18220739714668" lon="15.274083136889544"><ele>43.0</ele><time>2026-05-01T13:52:15Z</time></trkpt><trkpt lat="44.182068155146496" lon="15.274002486198397"><ele>43.0</ele><time>2026-05-01T13:52:16Z</time></trkpt><trkpt lat="44.1819275081578" lon="15.273907833562427"><ele>43.0</ele><time>2026-05-01T13:52:17Z</time></trkpt><trkpt lat="44.18178463785083" lon="15.273808266285167"><ele>43.0</ele><time>2026-05-01T13:52:18Z</time></trkpt><trkpt lat="44.18164273121736" lon="15.27370406727383"><ele>44.0</ele><time>2026-05-01T13:52:19Z</time></trkpt><trkpt lat="44.18149163933423" lon="15.273596176959332"><ele>45.0</ele><time>2026-05-01T13:52:20Z</time></trkpt><trkpt lat="44.18133305684147" lon="15.273483361920713"><ele>46.0</ele><time>2026-05-01T13:52:21Z</time></trkpt><trkpt lat="44.18115294056376" lon="15.273364493058086"><ele>46.0</ele><time>2026-05-01T13:52:22Z</time></trkpt><trkpt lat="44.18095704352089" lon="15.273205230009182"><ele>46.0</ele><time>2026-05-01T13:52:23Z</time></trkpt><trkpt lat="44.18073992424072" lon="15.273053108205993"><ele>46.5</ele><time>2026-05-01T13:52:24Z</time></trkpt><trkpt lat="44.180510426873745" lon="15.272892462809574"><ele>47.0</ele><time>2026-05-01T13:52:25Z</time></trkpt><trkpt lat="44.18026436598163" lon="15.272727520840942"><ele>47.0</ele><time>2026-05-01T13:52:26Z</time></trkpt><trkpt lat="44.18000398900795" lon="15.27253553529141"><ele>47.0</ele><time>2026-05-01T13:52:27Z</time></trkpt><trkpt lat="44.179705974297626" lon="15.272326330237616"><ele>47.0</ele><time>2026-05-01T13:52:28Z</time></trkpt><trkpt lat="44.17938082681278" lon="15.27210525009574"><ele>47.0</ele><time>2026-05-01T13:52:29Z</time></trkpt><trkpt lat="44.17903995024395" lon="15.271873646153598"><ele>48.0</ele><time>2026-05-01T13:52:30Z</time></trkpt><trkpt lat="44.17869754862099" lon="15.271630706007963"><ele>49.0</ele><time>2026-05-01T13:52:31Z</time></trkpt><trkpt lat="44.178389389734996" lon="15.271411779658772"><ele>50.5</ele><time>2026-05-01T13:52:32Z</time></trkpt><trkpt lat="44.17811333703563" lon="15.271215503656215"><ele>52.0</ele><time>2026-05-01T13:52:33Z</time></trkpt><trkpt lat="44.17784760738378" lon="15.271033099307832"><ele>52.0</ele><time>2026-05-01T13:52:34Z</time></trkpt><trkpt lat="44.177579616012025" lon="15.270851299686644"><ele>52.0</ele><time>2026-05-01T13:52:35Z</time></trkpt><trkpt lat="44.17731528061159" lon="15.270670954753774"><ele>51.0</ele><time>2026-05-01T13:52:36Z</time></trkpt><trkpt lat="44.17704931730327" lon="15.270494410299166"><ele>50.0</ele><time>2026-05-01T13:52:37Z</time></trkpt><trkpt lat="44.17679032236325" lon="15.2703188172869"><ele>50.0</ele><time>2026-05-01T13:52:38Z</time></trkpt><trkpt lat="44.176524985033744" lon="15.270148321344903"><ele>50.0</ele><time>2026-05-01T13:52:39Z</time></trkpt><trkpt lat="44.176262556179225" lon="15.269973098108121"><ele>48.5</ele><time>2026-05-01T13:52:40Z</time></trkpt><trkpt lat="44.17599705364729" lon="15.26979776950458"><ele>47.0</ele><time>2026-05-01T13:52:41Z</time></trkpt><trkpt lat="44.17573189548318" lon="15.269621933304766"><ele>44.5</ele><time>2026-05-01T13:52:42Z</time></trkpt><trkpt lat="44.17546843829307" lon="15.269448981060357"><ele>42.0</ele><time>2026-05-01T13:52:43Z</time></trkpt><trkpt lat="44.175204372699696" lon="15.269277687198718"><ele>42.0</ele><time>2026-05-01T13:52:44Z</time></trkpt><trkpt lat="44.17494247303562" lon="15.269105668131226"><ele>42.0</ele><time>2026-05-01T13:52:45Z</time></trkpt><trkpt lat="44.174679820430626" lon="15.268938223757429"><ele>39.5</ele><time>2026-05-01T13:52:46Z</time></trkpt><trkpt lat="44.174428007229466" lon="15.268768476314293"><ele>37.0</ele><time>2026-05-01T13:52:47Z</time></trkpt><trkpt lat="44.17417663622604" lon="15.268599615451505"><ele>36.0</ele><time>2026-05-01T13:52:48Z</time></trkpt><trkpt lat="44.17392580404855" lon="15.26843233712033"><ele>35.0</ele><time>2026-05-01T13:52:49Z</time></trkpt><trkpt lat="44.17367483450265" lon="15.268265908415373"><ele>34.5</ele><time>2026-05-01T13:52:50Z</time></trkpt><trkpt lat="44.17342708780545" lon="15.268104216105447"><ele>34.0</ele><time>2026-05-01T13:52:51Z</time></trkpt><trkpt lat="44.17317883322685" lon="15.267936634509903"><ele>32.5</ele><time>2026-05-01T13:52:52Z</time></trkpt><trkpt lat="44.17293353083004" lon="15.267774039008794"><ele>31.0</ele><time>2026-05-01T13:52:53Z</time></trkpt><trkpt lat="44.172687515641826" lon="15.267612306794229"><ele>31.0</ele><time>2026-05-01T13:52:54Z</time></trkpt><trkpt lat="44.172441990013354" lon="15.267454249307436"><ele>31.0</ele><time>2026-05-01T13:52:55Z</time></trkpt><trkpt lat="44.172197655145396" lon="15.26729218314594"><ele>29.0</ele><time>2026-05-01T13:52:56Z</time></trkpt><trkpt lat="44.171955361103066" lon="15.267130938368712"><ele>27.0</ele><time>2026-05-01T13:52:57Z</time></trkpt><trkpt lat="44.171715007143575" lon="15.266974954193355"><ele>27.0</ele><time>2026-05-01T13:52:58Z</time></trkpt><trkpt lat="44.171474829959955" lon="15.266814619431905"><ele>27.0</ele><time>2026-05-01T13:52:59Z</time></trkpt><trkpt lat="44.17123767762985" lon="15.266658762964731"><ele>27.0</ele><time>2026-05-01T13:53:00Z</time></trkpt><trkpt lat="44.1709993454794" lon="15.266501867435856"><ele>27.0</ele><time>2026-05-01T13:53:01Z</time></trkpt><trkpt lat="44.170765156440424" lon="15.266347646781856"><ele>26.0</ele><time>2026-05-01T13:53:02Z</time></trkpt><trkpt lat="44.170528369444604" lon="15.266194475572076"><ele>25.0</ele><time>2026-05-01T13:53:03Z</time></trkpt><trkpt lat="44.170294209497904" lon="15.266039770864952"><ele>25.0</ele><time>2026-05-01T13:53:04Z</time></trkpt><trkpt lat="44.17006123418935" lon="15.265885884561067"><ele>25.0</ele><time>2026-05-01T13:53:05Z</time></trkpt><trkpt lat="44.16982764806754" lon="15.265731657057762"><ele>24.5</ele><time>2026-05-01T13:53:06Z</time></trkpt><trkpt lat="44.16959177504345" lon="15.265579064688968"><ele>24.0</ele><time>2026-05-01T13:53:07Z</time></trkpt><trkpt lat="44.169359652835645" lon="15.265425812694005"><ele>24.0</ele><time>2026-05-01T13:53:08Z</time></trkpt><trkpt lat="44.16912542686003" lon="15.265273591493724"><ele>24.0</ele><time>2026-05-01T13:53:09Z</time></trkpt><trkpt lat="44.168889790667414" lon="15.265118454719953"><ele>23.0</ele><time>2026-05-01T13:53:10Z</time></trkpt><trkpt lat="44.16865406043933" lon="15.264965024302052"><ele>22.0</ele><time>2026-05-01T13:53:11Z</time></trkpt><trkpt lat="44.16841883022327" lon="15.264809157407248"><ele>22.0</ele><time>2026-05-01T13:53:12Z</time></trkpt><trkpt lat="44.16818360844355" lon="15.26464537120384"><ele>22.0</ele><time>2026-05-01T13:53:13Z</time></trkpt><trkpt lat="44.167944036398225" lon="15.264483221274507"><ele>22.0</ele><time>2026-05-01T13:53:14Z</time></trkpt><trkpt lat="44.16770407690603" lon="15.264326341618759"><ele>22.0</ele><time>2026-05-01T13:53:15Z</time></trkpt><trkpt lat="44.16746453829458" lon="15.264169017645473"><ele>22.5</ele><time>2026-05-01T13:53:16Z</time></trkpt><trkpt lat="44.16723191787715" lon="15.26401716951199"><ele>23.0</ele><time>2026-05-01T13:53:17Z</time></trkpt><trkpt lat="44.167015813296636" lon="15.263873148740256"><ele>23.0</ele><time>2026-05-01T13:53:18Z</time></trkpt><trkpt lat="44.16681849364886" lon="15.263739570361247"><ele>23.0</ele><time>2026-05-01T13:53:19Z</time></trkpt><trkpt lat="44.16662963402714" lon="15.263615313965856"><ele>23.0</ele><time>2026-05-01T13:53:20Z</time></trkpt><trkpt lat="44.16645402742043" lon="15.263497924518676"><ele>23.333333333333336</ele><time>2026-05-01T13:53:21Z</time></trkpt><trkpt lat="44.16628896403013" lon="15.263387818068827"><ele>23.666666666666668</ele><time>2026-05-01T13:53:22Z</time></trkpt><trkpt lat="44.166134239749184" lon="15.263291374556355"><ele>24.0</ele><time>2026-05-01T13:53:23Z</time></trkpt><trkpt lat="44.165988188759144" lon="15.26320083250798"><ele>24.666666666666664</ele><time>2026-05-01T13:53:24Z</time></trkpt><trkpt lat="44.16583901241204" lon="15.263101696515527"><ele>25.333333333333332</ele><time>2026-05-01T13:53:25Z</time></trkpt><trkpt lat="44.165674331944246" lon="15.262993626074067"><ele>26.0</ele><time>2026-05-01T13:53:26Z</time></trkpt><trkpt lat="44.1655034832423" lon="15.262880442115803"><ele>26.0</ele><time>2026-05-01T13:53:27Z</time></trkpt><trkpt lat="44.16533475519821" lon="15.2627720488342"><ele>26.0</ele><time>2026-05-01T13:53:28Z</time></trkpt><trkpt lat="44.16517372759866" lon="15.26266253967774"><ele>26.0</ele><time>2026-05-01T13:53:29Z</time></trkpt><trkpt lat="44.165011544308435" lon="15.262555474382628"><ele>26.0</ele><time>2026-05-01T13:53:30Z</time></trkpt><trkpt lat="44.16485422031642" lon="15.262452416255703"><ele>26.0</ele><time>2026-05-01T13:53:31Z</time></trkpt><trkpt lat="44.16469709764257" lon="15.262349141504776"><ele>26.0</ele><time>2026-05-01T13:53:32Z</time></trkpt><trkpt lat="44.16455364624882" lon="15.262250566930176"><ele>27.5</ele><time>2026-05-01T13:53:33Z</time></trkpt><trkpt lat="44.16442303075877" lon="15.26216745627669"><ele>29.0</ele><time>2026-05-01T13:53:34Z</time></trkpt><trkpt lat="44.164304747240905" lon="15.262088391603669"><ele>30.5</ele><time>2026-05-01T13:53:35Z</time></trkpt><trkpt lat="44.16419622508686" lon="15.262010508240607"><ele>32.0</ele><time>2026-05-01T13:53:36Z</time></trkpt><trkpt lat="44.164090930159375" lon="15.261941154669962"><ele>30.75</ele><time>2026-05-01T13:53:37Z</time></trkpt><trkpt lat="44.163985909907076" lon="15.261871308950123"><ele>29.5</ele><time>2026-05-01T13:53:38Z</time></trkpt><trkpt lat="44.163876774434414" lon="15.261801393322628"><ele>28.25</ele><time>2026-05-01T13:53:39Z</time></trkpt><trkpt lat="44.16376255217214" lon="15.261735137344177"><ele>27.0</ele><time>2026-05-01T13:53:40Z</time></trkpt><trkpt lat="44.163650971550716" lon="15.261649372527883"><ele>27.0</ele><time>2026-05-01T13:53:41Z</time></trkpt><trkpt lat="44.16353324226974" lon="15.261571492995573"><ele>27.0</ele><time>2026-05-01T13:53:42Z</time></trkpt><trkpt lat="44.1634070936311" lon="15.26148363584429"><ele>27.0</ele><time>2026-05-01T13:53:43Z</time></trkpt><trkpt lat="44.16326922194144" lon="15.261395882335433"><ele>27.0</ele><time>2026-05-01T13:53:44Z</time></trkpt><trkpt lat="44.16311067159749" lon="15.261288987178844"><ele>27.333333333333336</ele><time>2026-05-01T13:53:45Z</time></trkpt><trkpt lat="44.16293539451325" lon="15.261170393841734"><ele>27.666666666666668</ele><time>2026-05-01T13:53:46Z</time></trkpt><trkpt lat="44.1627425128623" lon="15.2610389491705"><ele>28.0</ele><time>2026-05-01T13:53:47Z</time></trkpt><trkpt lat="44.162533645008104" lon="15.26089845392176"><ele>28.0</ele><time>2026-05-01T13:53:48Z</time></trkpt><trkpt lat="44.1623088288657" lon="15.26074988363664"><ele>28.0</ele><time>2026-05-01T13:53:49Z</time></trkpt><trkpt lat="44.16206568345879" lon="15.260586708150548"><ele>28.0</ele><time>2026-05-01T13:53:50Z</time></trkpt><trkpt lat="44.16180870269819" lon="15.260414841909752"><ele>28.0</ele><time>2026-05-01T13:53:51Z</time></trkpt><trkpt lat="44.16154359539186" lon="15.260239234757076"><ele>28.5</ele><time>2026-05-01T13:53:52Z</time></trkpt><trkpt lat="44.16128112332264" lon="15.260063399215118"><ele>29.0</ele><time>2026-05-01T13:53:53Z</time></trkpt><trkpt lat="44.161027043106905" lon="15.25989438196743"><ele>29.0</ele><time>2026-05-01T13:53:54Z</time></trkpt><trkpt lat="44.16078317335644" lon="15.259731851416213"><ele>29.0</ele><time>2026-05-01T13:53:55Z</time></trkpt><trkpt lat="44.16055081198569" lon="15.259578957175167"><ele>30.0</ele><time>2026-05-01T13:53:56Z</time></trkpt><trkpt lat="44.16033659215972" lon="15.259442178930204"><ele>31.0</ele><time>2026-05-01T13:53:57Z</time></trkpt><trkpt lat="44.16013959947824" lon="15.259313190817043"><ele>31.0</ele><time>2026-05-01T13:53:58Z</time></trkpt><trkpt lat="44.159951449346416" lon="15.259191824039215"><ele>31.0</ele><time>2026-05-01T13:53:59Z</time></trkpt><trkpt lat="44.15977095496993" lon="15.259073603022548"><ele>31.0</ele><time>2026-05-01T13:54:00Z</time></trkpt><trkpt lat="44.15959950558161" lon="15.25895981185943"><ele>31.666666666666668</ele><time>2026-05-01T13:54:01Z</time></trkpt><trkpt lat="44.15943125061146" lon="15.258844741680122"><ele>32.333333333333336</ele><time>2026-05-01T13:54:02Z</time></trkpt><trkpt lat="44.159266087096334" lon="15.25873605200781"><ele>33.0</ele><time>2026-05-01T13:54:03Z</time></trkpt><trkpt lat="44.15910410260434" lon="15.25862819558892"><ele>33.333333333333336</ele><time>2026-05-01T13:54:04Z</time></trkpt><trkpt lat="44.158938499719646" lon="15.258519975783443"><ele>33.66666666666667</ele><time>2026-05-01T13:54:05Z</time></trkpt><trkpt lat="44.15877299455582" lon="15.258398677813613"><ele>34.0</ele><time>2026-05-01T13:54:06Z</time></trkpt><trkpt lat="44.15860766019005" lon="15.258261973046821"><ele>33.66666666666667</ele><time>2026-05-01T13:54:07Z</time></trkpt><trkpt lat="44.15844463345103" lon="15.258102732406323"><ele>33.333333333333336</ele><time>2026-05-01T13:54:08Z</time></trkpt><trkpt lat="44.158275689904876" lon="15.257922920688053"><ele>33.0</ele><time>2026-05-01T13:54:09Z</time></trkpt><trkpt lat="44.15810164293464" lon="15.257732207091014"><ele>33.333333333333336</ele><time>2026-05-01T13:54:10Z</time></trkpt><trkpt lat="44.157928716025914" lon="15.257548484714546"><ele>33.66666666666667</ele><time>2026-05-01T13:54:11Z</time></trkpt><trkpt lat="44.1577546172697" lon="15.257369343729575"><ele>34.0</ele><time>2026-05-01T13:54:12Z</time></trkpt><trkpt lat="44.15758142961229" lon="15.257189997302358"><ele>34.0</ele><time>2026-05-01T13:54:13Z</time></trkpt><trkpt lat="44.15741705238754" lon="15.257018818300615"><ele>34.0</ele><time>2026-05-01T13:54:14Z</time></trkpt><trkpt lat="44.157255598027675" lon="15.256850822139231"><ele>34.0</ele><time>2026-05-01T13:54:15Z</time></trkpt><trkpt lat="44.15709458865511" lon="15.256685564946684"><ele>35.0</ele><time>2026-05-01T13:54:16Z</time></trkpt><trkpt lat="44.15693375828431" lon="15.256514721775462"><ele>36.0</ele><time>2026-05-01T13:54:17Z</time></trkpt><trkpt lat="44.156770681450375" lon="15.256343965674368"><ele>37.0</ele><time>2026-05-01T13:54:18Z</time></trkpt><trkpt lat="44.15660508008242" lon="15.256171331382108"><ele>39.66666666666667</ele><time>2026-05-01T13:54:19Z</time></trkpt><trkpt lat="44.156437494358634" lon="15.255995750735472"><ele>42.333333333333336</ele><time>2026-05-01T13:54:20Z</time></trkpt><trkpt lat="44.15626856724927" lon="15.255820283379721"><ele>45.0</ele><time>2026-05-01T13:54:21Z</time></trkpt><trkpt lat="44.156103088092635" lon="15.255646425138666"><ele>44.666666666666664</ele><time>2026-05-01T13:54:22Z</time></trkpt><trkpt lat="44.15593418419032" lon="15.255462765660495"><ele>44.33333333333333</ele><time>2026-05-01T13:54:23Z</time></trkpt><trkpt lat="44.15576175873527" lon="15.255285388256718"><ele>44.0</ele><time>2026-05-01T13:54:24Z</time></trkpt><trkpt lat="44.1555858119389" lon="15.255108815647564"><ele>44.0</ele><time>2026-05-01T13:54:25Z</time></trkpt><trkpt lat="44.15540985805333" lon="15.254928896296832"><ele>44.0</ele><time>2026-05-01T13:54:26Z</time></trkpt><trkpt lat="44.15523760230144" lon="15.254746898122766"><ele>44.0</ele><time>2026-05-01T13:54:27Z</time></trkpt><trkpt lat="44.155062625380516" lon="15.254561772025381"><ele>44.0</ele><time>2026-05-01T13:54:28Z</time></trkpt><trkpt lat="44.15488233512299" lon="15.254374451877714"><ele>44.0</ele><time>2026-05-01T13:54:29Z</time></trkpt><trkpt lat="44.154697316218765" lon="15.254186775034594"><ele>45.0</ele><time>2026-05-01T13:54:30Z</time></trkpt><trkpt lat="44.15450849169764" lon="15.253993558656207"><ele>46.0</ele><time>2026-05-01T13:54:31Z</time></trkpt><trkpt lat="44.15431331580701" lon="15.253792213661892"><ele>46.0</ele><time>2026-05-01T13:54:32Z</time></trkpt><trkpt lat="44.1541066491081" lon="15.253577404075072"><ele>46.0</ele><time>2026-05-01T13:54:33Z</time></trkpt><trkpt lat="44.153891647209385" lon="15.253351901185448"><ele>46.5</ele><time>2026-05-01T13:54:34Z</time></trkpt><trkpt lat="44.153683854943544" lon="15.25312446913239"><ele>47.0</ele><time>2026-05-01T13:54:35Z</time></trkpt><trkpt lat="44.15348876637284" lon="15.25289646463924"><ele>47.0</ele><time>2026-05-01T13:54:36Z</time></trkpt><trkpt lat="44.15330493072926" lon="15.252660636322853"><ele>47.0</ele><time>2026-05-01T13:54:37Z</time></trkpt><trkpt lat="44.15313549802371" lon="15.252423883370934"><ele>48.5</ele><time>2026-05-01T13:54:38Z</time></trkpt><trkpt lat="44.152973889540604" lon="15.252198228998758"><ele>50.0</ele><time>2026-05-01T13:54:39Z</time></trkpt><trkpt lat="44.15281271209818" lon="15.251974749327296"><ele>50.0</ele><time>2026-05-01T13:54:40Z</time></trkpt><trkpt lat="44.15265152909756" lon="15.251755788069584"><ele>50.0</ele><time>2026-05-01T13:54:41Z</time></trkpt><trkpt lat="44.15249008667407" lon="15.251532690586355"><ele>50.333333333333336</ele><time>2026-05-01T13:54:42Z</time></trkpt><trkpt lat="44.15232870952386" lon="15.251314580419873"><ele>50.66666666666667</ele><time>2026-05-01T13:54:43Z</time></trkpt><trkpt lat="44.152171335050014" lon="15.251097470566403"><ele>51.0</ele><time>2026-05-01T13:54:44Z</time></trkpt><trkpt lat="44.152014687312786" lon="15.250893150469516"><ele>51.0</ele><time>2026-05-01T13:54:45Z</time></trkpt><trkpt lat="44.15185246033802" lon="15.250690122098312"><ele>51.0</ele><time>2026-05-01T13:54:46Z</time></trkpt><trkpt lat="44.15168400126535" lon="15.25049245846254"><ele>51.0</ele><time>2026-05-01T13:54:47Z</time></trkpt><trkpt lat="44.15151240866758" lon="15.250299311886984"><ele>52.0</ele><time>2026-05-01T13:54:48Z</time></trkpt><trkpt lat="44.15133825037389" lon="15.250101386446682"><ele>53.0</ele><time>2026-05-01T13:54:49Z</time></trkpt><trkpt lat="44.15116629703981" lon="15.249905101663819"><ele>54.0</ele><time>2026-05-01T13:54:50Z</time></trkpt><trkpt lat="44.15099851773999" lon="15.249711164073855"><ele>55.0</ele><time>2026-05-01T13:54:51Z</time></trkpt><trkpt lat="44.15083340087672" lon="15.2495173947469"><ele>56.0</ele><time>2026-05-01T13:54:52Z</time></trkpt><trkpt lat="44.15067016721884" lon="15.249332520579546"><ele>57.0</ele><time>2026-05-01T13:54:53Z</time></trkpt><trkpt lat="44.150512076483516" lon="15.24914878029623"><ele>57.0</ele><time>2026-05-01T13:54:54Z</time></trkpt><trkpt lat="44.1503594047502" lon="15.248973190258498"><ele>57.0</ele><time>2026-05-01T13:54:55Z</time></trkpt><trkpt lat="44.15021814491825" lon="15.248810452155533"><ele>57.0</ele><time>2026-05-01T13:54:56Z</time></trkpt><trkpt lat="44.15008223080576" lon="15.248653711752977"><ele>57.33333333333333</ele><time>2026-05-01T13:54:57Z</time></trkpt><trkpt lat="44.14994718008727" lon="15.248502246759335"><ele>57.666666666666664</ele><time>2026-05-01T13:54:58Z</time></trkpt><trkpt lat="44.14980961827276" lon="15.248346067869297"><ele>58.0</ele><time>2026-05-01T13:54:59Z</time></trkpt><trkpt lat="44.14968041602778" lon="15.248198938191164"><ele>58.0</ele><time>2026-05-01T13:55:00Z</time></trkpt><trkpt lat="44.149556771871595" lon="15.24805878242088"><ele>58.0</ele><time>2026-05-01T13:55:01Z</time></trkpt><trkpt lat="44.14943221381072" lon="15.247921105927563"><ele>58.0</ele><time>2026-05-01T13:55:02Z</time></trkpt><trkpt lat="44.149315500403574" lon="15.247785026402605"><ele>58.0</ele><time>2026-05-01T13:55:03Z</time></trkpt><trkpt lat="44.149206094216375" lon="15.247653993699128"><ele>58.0</ele><time>2026-05-01T13:55:04Z</time></trkpt><trkpt lat="44.14910040882825" lon="15.2475249799334"><ele>58.0</ele><time>2026-05-01T13:55:05Z</time></trkpt><trkpt lat="44.149001101962774" lon="15.247409486306587"><ele>58.0</ele><time>2026-05-01T13:55:06Z</time></trkpt><trkpt lat="44.148907278389586" lon="15.247305166967239"><ele>58.2</ele><time>2026-05-01T13:55:07Z</time></trkpt><trkpt lat="44.148818914712336" lon="15.247203620517535"><ele>58.4</ele><time>2026-05-01T13:55:08Z</time></trkpt><trkpt lat="44.14873830180084" lon="15.247108429849716"><ele>58.60000000000001</ele><time>2026-05-01T13:55:09Z</time></trkpt><trkpt lat="44.14865882068097" lon="15.247019992766134"><ele>58.800000000000004</ele><time>2026-05-01T13:55:10Z</time></trkpt><trkpt lat="44.148587110002055" lon="15.246930195016525"><ele>59.0</ele><time>2026-05-01T13:55:11Z</time></trkpt><trkpt lat="44.1485081738107" lon="15.246840575453078"><ele>59.0</ele><time>2026-05-01T13:55:12Z</time></trkpt><trkpt lat="44.148430661135954" lon="15.246752200429341"><ele>59.00000000000001</ele><time>2026-05-01T13:55:13Z</time></trkpt><trkpt lat="44.148350538352226" lon="15.246659135308528"><ele>59.00000000000001</ele><time>2026-05-01T13:55:14Z</time></trkpt><trkpt lat="44.14826659045086" lon="15.246563168732605"><ele>59.0</ele><time>2026-05-01T13:55:15Z</time></trkpt><trkpt lat="44.14818437655119" lon="15.24646726289269"><ele>59.0</ele><time>2026-05-01T13:55:16Z</time></trkpt><trkpt lat="44.148101506209244" lon="15.2463705609765"><ele>59.400000000000006</ele><time>2026-05-01T13:55:17Z</time></trkpt><trkpt lat="44.14802326529369" lon="15.246276990551403"><ele>59.800000000000004</ele><time>2026-05-01T13:55:18Z</time></trkpt><trkpt lat="44.147946631375675" lon="15.246189521240852"><ele>60.199999999999996</ele><time>2026-05-01T13:55:19Z</time></trkpt><trkpt lat="44.147875459971964" lon="15.246105851783476"><ele>60.599999999999994</ele><time>2026-05-01T13:55:20Z</time></trkpt><trkpt lat="44.14780552830459" lon="15.246020351532938"><ele>61.0</ele><time>2026-05-01T13:55:21Z</time></trkpt><trkpt lat="44.14773174608321" lon="15.245933343075917"><ele>60.99999999999999</ele><time>2026-05-01T13:55:22Z</time></trkpt><trkpt lat="44.14766632997319" lon="15.245854440552145"><ele>61.0</ele><time>2026-05-01T13:55:23Z</time></trkpt><trkpt lat="44.14760216543861" lon="15.245781880020884"><ele>61.0</ele><time>2026-05-01T13:55:24Z</time></trkpt><trkpt lat="44.14754615064682" lon="15.245716886964003"><ele>61.0</ele><time>2026-05-01T13:55:25Z</time></trkpt><trkpt lat="44.14748663754116" lon="15.24564471466945"><ele>60.99999999999999</ele><time>2026-05-01T13:55:26Z</time></trkpt><trkpt lat="44.147427195133744" lon="15.245566007241422"><ele>61.0</ele><time>2026-05-01T13:55:27Z</time></trkpt><trkpt lat="44.14735730956494" lon="15.245490218110001"><ele>61.599999999999994</ele><time>2026-05-01T13:55:28Z</time></trkpt><trkpt lat="44.14728788571106" lon="15.245412382213013"><ele>62.199999999999996</ele><time>2026-05-01T13:55:29Z</time></trkpt><trkpt lat="44.14722073516282" lon="15.245331882635178"><ele>62.800000000000004</ele><time>2026-05-01T13:55:30Z</time></trkpt><trkpt lat="44.14715091056347" lon="15.245256723513489"><ele>63.400000000000006</ele><time>2026-05-01T13:55:31Z</time></trkpt><trkpt lat="44.14707510038874" lon="15.245181843670279"><ele>64.0</ele><time>2026-05-01T13:55:32Z</time></trkpt><trkpt lat="44.147002678296325" lon="15.245097497587057"><ele>64.0</ele><time>2026-05-01T13:55:33Z</time></trkpt><trkpt lat="44.146929760407254" lon="15.245014937071156"><ele>64.0</ele><time>2026-05-01T13:55:34Z</time></trkpt><trkpt lat="44.14684909712033" lon="15.244934495844616"><ele>64.0</ele><time>2026-05-01T13:55:35Z</time></trkpt><trkpt lat="44.14676101685367" lon="15.24486382510174"><ele>64.0</ele><time>2026-05-01T13:55:36Z</time></trkpt><trkpt lat="44.14666348810184" lon="15.244798227494083"><ele>64.0</ele><time>2026-05-01T13:55:37Z</time></trkpt><trkpt lat="44.146562140393264" lon="15.244725630279646"><ele>64.25</ele><time>2026-05-01T13:55:38Z</time></trkpt><trkpt lat="44.1464460671654" lon="15.244652155447922"><ele>64.5</ele><time>2026-05-01T13:55:39Z</time></trkpt><trkpt lat="44.14632299484953" lon="15.244572610101924"><ele>64.75</ele><time>2026-05-01T13:55:40Z</time></trkpt><trkpt lat="44.146199710699264" lon="15.244493918601473"><ele>65.0</ele><time>2026-05-01T13:55:41Z</time></trkpt><trkpt lat="44.14607423377533" lon="15.244413621842195"><ele>65.0</ele><time>2026-05-01T13:55:42Z</time></trkpt><trkpt lat="44.14594120287442" lon="15.244330196193511"><ele>65.0</ele><time>2026-05-01T13:55:43Z</time></trkpt><trkpt lat="44.14580616006754" lon="15.24425035155339"><ele>65.0</ele><time>2026-05-01T13:55:44Z</time></trkpt><trkpt lat="44.14565910634644" lon="15.244178721199582"><ele>65.0</ele><time>2026-05-01T13:55:45Z</time></trkpt><trkpt lat="44.145506375806185" lon="15.244112072108438"><ele>65.66666666666667</ele><time>2026-05-01T13:55:46Z</time></trkpt><trkpt lat="44.145344035697136" lon="15.244068843533396"><ele>66.33333333333333</ele><time>2026-05-01T13:55:47Z</time></trkpt><trkpt lat="44.14518837495259" lon="15.244023345920242"><ele>67.0</ele><time>2026-05-01T13:55:48Z</time></trkpt><trkpt lat="44.1450332451013" lon="15.243985784444348"><ele>66.66666666666666</ele><time>2026-05-01T13:55:49Z</time></trkpt><trkpt lat="44.14487242692768" lon="15.243943754479973"><ele>66.33333333333333</ele><time>2026-05-01T13:55:50Z</time></trkpt><trkpt lat="44.14471459013339" lon="15.243901116765501"><ele>66.0</ele><time>2026-05-01T13:55:51Z</time></trkpt><trkpt lat="44.14455060156611" lon="15.243846906183432"><ele>66.0</ele><time>2026-05-01T13:55:52Z</time></trkpt><trkpt lat="44.14438544362687" lon="15.243784887128022"><ele>66.0</ele><time>2026-05-01T13:55:53Z</time></trkpt><trkpt lat="44.14422874748025" lon="15.243694113363965"><ele>66.0</ele><time>2026-05-01T13:55:54Z</time></trkpt><trkpt lat="44.14408100881756" lon="15.243568919799438"><ele>66.66666666666667</ele><time>2026-05-01T13:55:55Z</time></trkpt><trkpt lat="44.143956151645355" lon="15.243415865031478"><ele>67.33333333333334</ele><time>2026-05-01T13:55:56Z</time></trkpt><trkpt lat="44.14385168164153" lon="15.2432419137014"><ele>68.0</ele><time>2026-05-01T13:55:57Z</time></trkpt><trkpt lat="44.14375524034244" lon="15.243060649647978"><ele>68.0</ele><time>2026-05-01T13:55:58Z</time></trkpt><trkpt lat="44.1436637109611" lon="15.24288818742714"><ele>68.0</ele><time>2026-05-01T13:55:59Z</time></trkpt><trkpt lat="44.14357130231375" lon="15.24272190514166"><ele>68.0</ele><time>2026-05-01T13:56:00Z</time></trkpt><trkpt lat="44.14347462672101" lon="15.242571578718012"><ele>68.0</ele><time>2026-05-01T13:56:01Z</time></trkpt><trkpt lat="44.1433620807607" lon="15.242431095967643"><ele>68.0</ele><time>2026-05-01T13:56:02Z</time></trkpt><trkpt lat="44.143236630830664" lon="15.242315466930531"><ele>68.0</ele><time>2026-05-01T13:56:03Z</time></trkpt><trkpt lat="44.143109617439436" lon="15.242227946523384"><ele>68.0</ele><time>2026-05-01T13:56:04Z</time></trkpt><trkpt lat="44.14297708707189" lon="15.242174190386715"><ele>68.5</ele><time>2026-05-01T13:56:05Z</time></trkpt><trkpt lat="44.14284019193959" lon="15.242128308522448"><ele>69.0</ele><time>2026-05-01T13:56:06Z</time></trkpt><trkpt lat="44.1427043299144" lon="15.24208795264433"><ele>69.5</ele><time>2026-05-01T13:56:07Z</time></trkpt><trkpt lat="44.14256501002261" lon="15.2420489568308"><ele>70.0</ele><time>2026-05-01T13:56:08Z</time></trkpt><trkpt lat="44.1424241844773" lon="15.242005316530156"><ele>70.0</ele><time>2026-05-01T13:56:09Z</time></trkpt><trkpt lat="44.142285870826974" lon="15.241955090996395"><ele>70.0</ele><time>2026-05-01T13:56:10Z</time></trkpt><trkpt lat="44.14214568716082" lon="15.241915403488164"><ele>70.0</ele><time>2026-05-01T13:56:11Z</time></trkpt><trkpt lat="44.14200792224671" lon="15.241901227872692"><ele>70.0</ele><time>2026-05-01T13:56:12Z</time></trkpt><trkpt lat="44.14186730346488" lon="15.241920264556457"><ele>70.0</ele><time>2026-05-01T13:56:13Z</time></trkpt><trkpt lat="44.14173159317271" lon="15.241963798798615"><ele>70.0</ele><time>2026-05-01T13:56:14Z</time></trkpt><trkpt lat="44.1415984234279" lon="15.242022461611173"><ele>70.0</ele><time>2026-05-01T13:56:15Z</time></trkpt><trkpt lat="44.14146080623542" lon="15.242084729787065"><ele>70.0</ele><time>2026-05-01T13:56:16Z</time></trkpt><trkpt lat="44.14133242587929" lon="15.242148908205769"><ele>70.25</ele><time>2026-05-01T13:56:17Z</time></trkpt><trkpt lat="44.14120856446143" lon="15.24220801184096"><ele>70.5</ele><time>2026-05-01T13:56:18Z</time></trkpt><trkpt lat="44.141084941360845" lon="15.242261768013535"><ele>70.75</ele><time>2026-05-01T13:56:19Z</time></trkpt><trkpt lat="44.140963721177286" lon="15.24231475773319"><ele>71.0</ele><time>2026-05-01T13:56:20Z</time></trkpt><trkpt lat="44.14084508719621" lon="15.242362024813445"><ele>71.39999999999999</ele><time>2026-05-01T13:56:21Z</time></trkpt><trkpt lat="44.140733404147056" lon="15.242402392404404"><ele>71.8</ele><time>2026-05-01T13:56:22Z</time></trkpt><trkpt lat="44.140631520242565" lon="15.24244194123674"><ele>72.19999999999999</ele><time>2026-05-01T13:56:23Z</time></trkpt><trkpt lat="44.140530521013616" lon="15.242462470333265"><ele>72.6</ele><time>2026-05-01T13:56:24Z</time></trkpt><trkpt lat="44.140428708107876" lon="15.242473836899686"><ele>73.0</ele><time>2026-05-01T13:56:25Z</time></trkpt><trkpt lat="44.14032669163909" lon="15.24247299719666"><ele>73.0</ele><time>2026-05-01T13:56:26Z</time></trkpt><trkpt lat="44.14022292989285" lon="15.24245762571116"><ele>73.0</ele><time>2026-05-01T13:56:27Z</time></trkpt><trkpt lat="44.14011298212452" lon="15.242426728026855"><ele>73.0</ele><time>2026-05-01T13:56:28Z</time></trkpt><trkpt lat="44.13999864928638" lon="15.242374927545029"><ele>73.0</ele><time>2026-05-01T13:56:29Z</time></trkpt><trkpt lat="44.13988695028068" lon="15.242308519491298"><ele>73.5</ele><time>2026-05-01T13:56:30Z</time></trkpt><trkpt lat="44.13977034853749" lon="15.242221759580508"><ele>74.0</ele><time>2026-05-01T13:56:31Z</time></trkpt><trkpt lat="44.13965468678502" lon="15.24211101504461"><ele>74.5</ele><time>2026-05-01T13:56:32Z</time></trkpt><trkpt lat="44.13955279251435" lon="15.241995117768615"><ele>75.0</ele><time>2026-05-01T13:56:33Z</time></trkpt><trkpt lat="44.1394815479492" lon="15.24189897217642"><ele>74.99999999999999</ele><time>2026-05-01T13:56:34Z</time></trkpt><trkpt lat="44.13943226321982" lon="15.24183444859416"><ele>75.0</ele><time>2026-05-01T13:56:35Z</time></trkpt><trkpt lat="44.139377818063636" lon="15.241784447116556"><ele>75.0</ele><time>2026-05-01T13:56:37Z</time></trkpt><trkpt lat="44.13931795364311" lon="15.241673857599677"><ele>75.0</ele><time>2026-05-01T13:57:48Z</time></trkpt><trkpt lat="44.13926824415477" lon="15.241618886082298"><ele>75.0</ele><time>2026-05-01T13:57:49Z</time></trkpt><trkpt lat="44.139211723275615" lon="15.241569846543413"><ele>74.99999999999999</ele><time>2026-05-01T13:57:50Z</time></trkpt><trkpt lat="44.13915703740946" lon="15.241525170538427"><ele>75.0</ele><time>2026-05-01T13:57:51Z</time></trkpt><trkpt lat="44.13910064302134" lon="15.24148592771222"><ele>74.8</ele><time>2026-05-01T13:57:52Z</time></trkpt><trkpt lat="44.13898897278968" lon="15.241441819973664"><ele>74.6</ele><time>2026-05-01T13:57:54Z</time></trkpt><trkpt lat="44.13888202830554" lon="15.241418662733768"><ele>74.4</ele><time>2026-05-01T13:57:56Z</time></trkpt><trkpt lat="44.138777498806675" lon="15.24139850889795"><ele>74.2</ele><time>2026-05-01T13:57:58Z</time></trkpt><trkpt lat="44.138685603122944" lon="15.24137128821759"><ele>74.0</ele><time>2026-05-01T13:58:00Z</time></trkpt><trkpt lat="44.13860151186558" lon="15.241357926565682"><ele>74.0</ele><time>2026-05-01T13:58:02Z</time></trkpt><trkpt lat="44.1385187502777" lon="15.241344209149041"><ele>74.0</ele><time>2026-05-01T13:58:04Z</time></trkpt><trkpt lat="44.13840762461043" lon="15.241312928640815"><ele>74.0</ele><time>2026-05-01T13:58:06Z</time></trkpt><trkpt lat="44.138331034357364" lon="15.241287630560137"><ele>74.0</ele><time>2026-05-01T13:58:07Z</time></trkpt><trkpt lat="44.138261808628634" lon="15.241260685541105"><ele>74.0</ele><time>2026-05-01T13:58:08Z</time></trkpt><trkpt lat="44.13819172389627" lon="15.241229758073557"><ele>74.0</ele><time>2026-05-01T13:58:09Z</time></trkpt><trkpt lat="44.13812088398205" lon="15.24119061319951"><ele>72.83333333333334</ele><time>2026-05-01T13:58:10Z</time></trkpt><trkpt lat="44.1380503354256" lon="15.241148230923542"><ele>71.66666666666667</ele><time>2026-05-01T13:58:11Z</time></trkpt><trkpt lat="44.13797056210345" lon="15.241103634421009"><ele>70.5</ele><time>2026-05-01T13:58:12Z</time></trkpt><trkpt lat="44.137886045394055" lon="15.241051652815877"><ele>69.33333333333333</ele><time>2026-05-01T13:58:13Z</time></trkpt><trkpt lat="44.13780743864733" lon="15.240997392491737"><ele>68.16666666666666</ele><time>2026-05-01T13:58:14Z</time></trkpt><trkpt lat="44.137725478118085" lon="15.240935159874406"><ele>67.0</ele><time>2026-05-01T13:58:15Z</time></trkpt><trkpt lat="44.137635827588056" lon="15.240860613939311"><ele>67.0</ele><time>2026-05-01T13:58:16Z</time></trkpt><trkpt lat="44.13754404735263" lon="15.240774445894992"><ele>67.0</ele><time>2026-05-01T13:58:17Z</time></trkpt><trkpt lat="44.137461117194185" lon="15.240689533359289"><ele>67.0</ele><time>2026-05-01T13:58:18Z</time></trkpt><trkpt lat="44.13738275027903" lon="15.240606772071848"><ele>67.0</ele><time>2026-05-01T13:58:19Z</time></trkpt><trkpt lat="44.137308318355466" lon="15.240517232375156"><ele>67.0</ele><time>2026-05-01T13:58:20Z</time></trkpt><trkpt lat="44.137229441638475" lon="15.240429264951198"><ele>66.4</ele><time>2026-05-01T13:58:21Z</time></trkpt><trkpt lat="44.13714441161099" lon="15.240337388477347"><ele>65.80000000000001</ele><time>2026-05-01T13:58:22Z</time></trkpt><trkpt lat="44.137068076456025" lon="15.240245475450088"><ele>65.2</ele><time>2026-05-01T13:58:23Z</time></trkpt><trkpt lat="44.13699323273119" lon="15.240157889128644"><ele>64.60000000000001</ele><time>2026-05-01T13:58:24Z</time></trkpt><trkpt lat="44.13692082819068" lon="15.240069027821567"><ele>64.0</ele><time>2026-05-01T13:58:25Z</time></trkpt><trkpt lat="44.136850482298954" lon="15.239983845037148"><ele>63.99999999999999</ele><time>2026-05-01T13:58:26Z</time></trkpt><trkpt lat="44.136780005705795" lon="15.239899032040906"><ele>64.0</ele><time>2026-05-01T13:58:27Z</time></trkpt><trkpt lat="44.13671348404032" lon="15.23982016882555"><ele>64.0</ele><time>2026-05-01T13:58:28Z</time></trkpt><trkpt lat="44.13665152629105" lon="15.239756180669254"><ele>64.0</ele><time>2026-05-01T13:58:29Z</time></trkpt><trkpt lat="44.1365774145272" lon="15.239705664124006"><ele>63.99999999999999</ele><time>2026-05-01T13:58:30Z</time></trkpt><trkpt lat="44.136498663867116" lon="15.239665250812383"><ele>64.0</ele><time>2026-05-01T13:58:31Z</time></trkpt><trkpt lat="44.13640997917841" lon="15.239639375737754"><ele>63.6</ele><time>2026-05-01T13:58:32Z</time></trkpt><trkpt lat="44.136320669666446" lon="15.239629076206054"><ele>63.2</ele><time>2026-05-01T13:58:33Z</time></trkpt><trkpt lat="44.1362330453261" lon="15.239647638758656"><ele>62.800000000000004</ele><time>2026-05-01T13:58:34Z</time></trkpt><trkpt lat="44.13613800301382" lon="15.239669812491316"><ele>62.400000000000006</ele><time>2026-05-01T13:58:35Z</time></trkpt><trkpt lat="44.136036366392105" lon="15.239659812021074"><ele>62.0</ele><time>2026-05-01T13:58:36Z</time></trkpt><trkpt lat="44.1359461503027" lon="15.239689167939748"><ele>62.0</ele><time>2026-05-01T13:58:37Z</time></trkpt><trkpt lat="44.13585672944814" lon="15.239691897477545"><ele>62.0</ele><time>2026-05-01T13:58:38Z</time></trkpt><trkpt lat="44.135770462791115" lon="15.239693187633154"><ele>62.0</ele><time>2026-05-01T13:58:39Z</time></trkpt><trkpt lat="44.13568108960038" lon="15.239698498231268"><ele>62.0</ele><time>2026-05-01T13:58:40Z</time></trkpt><trkpt lat="44.13558477281215" lon="15.239706907653844"><ele>62.0</ele><time>2026-05-01T13:58:41Z</time></trkpt><trkpt lat="44.13547798053912" lon="15.239716499390509"><ele>61.2</ele><time>2026-05-01T13:58:42Z</time></trkpt><trkpt lat="44.13537322770552" lon="15.239724130715386"><ele>60.400000000000006</ele><time>2026-05-01T13:58:43Z</time></trkpt><trkpt lat="44.135267250142974" lon="15.239731888575246"><ele>59.599999999999994</ele><time>2026-05-01T13:58:44Z</time></trkpt><trkpt lat="44.1351673682581" lon="15.239739690091156"><ele>58.8</ele><time>2026-05-01T13:58:45Z</time></trkpt><trkpt lat="44.13506566108664" lon="15.239743521009997"><ele>58.0</ele><time>2026-05-01T13:58:46Z</time></trkpt><trkpt lat="44.13496301732364" lon="15.23974780059809"><ele>57.0</ele><time>2026-05-01T13:58:47Z</time></trkpt><trkpt lat="44.134857045668916" lon="15.239755536077181"><ele>56.0</ele><time>2026-05-01T13:58:48Z</time></trkpt><trkpt lat="44.13475306679074" lon="15.23976267038316"><ele>55.0</ele><time>2026-05-01T13:58:49Z</time></trkpt><trkpt lat="44.13465799510238" lon="15.23977013071797"><ele>54.0</ele><time>2026-05-01T13:58:50Z</time></trkpt><trkpt lat="44.13456804179439" lon="15.239782854530567"><ele>53.0</ele><time>2026-05-01T13:58:51Z</time></trkpt><trkpt lat="44.134483305515225" lon="15.239788676991402"><ele>53.00000000000001</ele><time>2026-05-01T13:58:52Z</time></trkpt><trkpt lat="44.13440706906301" lon="15.239797714073388"><ele>53.0</ele><time>2026-05-01T13:58:53Z</time></trkpt><trkpt lat="44.134335132064905" lon="15.239802854334094"><ele>53.0</ele><time>2026-05-01T13:58:54Z</time></trkpt><trkpt lat="44.13426348596182" lon="15.239809068938706"><ele>53.0</ele><time>2026-05-01T13:58:55Z</time></trkpt><trkpt lat="44.13419263336501" lon="15.239814059796176"><ele>53.00000000000001</ele><time>2026-05-01T13:58:56Z</time></trkpt><trkpt lat="44.134115935838565" lon="15.239814957895538"><ele>53.0</ele><time>2026-05-01T13:58:57Z</time></trkpt><trkpt lat="44.13403049338121" lon="15.239816764566212"><ele>52.0</ele><time>2026-05-01T13:58:58Z</time></trkpt><trkpt lat="44.13394167882739" lon="15.239805381445127"><ele>51.0</ele><time>2026-05-01T13:58:59Z</time></trkpt><trkpt lat="44.133849212934564" lon="15.2397792271374"><ele>50.0</ele><time>2026-05-01T13:59:00Z</time></trkpt><trkpt lat="44.133752106945586" lon="15.239733526416217"><ele>49.0</ele><time>2026-05-01T13:59:01Z</time></trkpt><trkpt lat="44.133670564258466" lon="15.239670404969441"><ele>48.0</ele><time>2026-05-01T13:59:02Z</time></trkpt><trkpt lat="44.13358232578955" lon="15.239602895528462"><ele>48.0</ele><time>2026-05-01T13:59:03Z</time></trkpt><trkpt lat="44.133490405029676" lon="15.239532528439351"><ele>48.0</ele><time>2026-05-01T13:59:04Z</time></trkpt><trkpt lat="44.13340413217641" lon="15.23945547505193"><ele>48.0</ele><time>2026-05-01T13:59:05Z</time></trkpt><trkpt lat="44.13331353262993" lon="15.239380314351214"><ele>48.0</ele><time>2026-05-01T13:59:06Z</time></trkpt><trkpt lat="44.13322159203174" lon="15.239308179765604"><ele>48.0</ele><time>2026-05-01T13:59:07Z</time></trkpt><trkpt lat="44.133131434146875" lon="15.239229590862042"><ele>47.0</ele><time>2026-05-01T13:59:08Z</time></trkpt><trkpt lat="44.13303942971279" lon="15.239151021502472"><ele>46.0</ele><time>2026-05-01T13:59:09Z</time></trkpt><trkpt lat="44.1329464779689" lon="15.239080661574684"><ele>45.0</ele><time>2026-05-01T13:59:10Z</time></trkpt><trkpt lat="44.13285314464528" lon="15.239014081165426"><ele>44.0</ele><time>2026-05-01T13:59:11Z</time></trkpt><trkpt lat="44.13275571463288" lon="15.23895816259248"><ele>43.0</ele><time>2026-05-01T13:59:12Z</time></trkpt><trkpt lat="44.13265113233407" lon="15.238926955701315"><ele>43.0</ele><time>2026-05-01T13:59:13Z</time></trkpt><trkpt lat="44.13254470996998" lon="15.238919805747795"><ele>43.0</ele><time>2026-05-01T13:59:14Z</time></trkpt><trkpt lat="44.13242595080781" lon="15.238944269039521"><ele>43.0</ele><time>2026-05-01T13:59:15Z</time></trkpt><trkpt lat="44.13230553839135" lon="15.23899076546381"><ele>43.0</ele><time>2026-05-01T13:59:16Z</time></trkpt><trkpt lat="44.13218946221954" lon="15.239032297700003"><ele>42.199999999999996</ele><time>2026-05-01T13:59:17Z</time></trkpt><trkpt lat="44.132080395666" lon="15.239051929726825"><ele>41.4</ele><time>2026-05-01T13:59:18Z</time></trkpt><trkpt lat="44.13196809299155" lon="15.23904833938978"><ele>40.599999999999994</ele><time>2026-05-01T13:59:19Z</time></trkpt><trkpt lat="44.13186035145924" lon="15.239027945651818"><ele>39.8</ele><time>2026-05-01T13:59:20Z</time></trkpt><trkpt lat="44.13175743182538" lon="15.238998633780449"><ele>39.0</ele><time>2026-05-01T13:59:21Z</time></trkpt><trkpt lat="44.13166230471314" lon="15.23896435648624"><ele>38.0</ele><time>2026-05-01T13:59:22Z</time></trkpt><trkpt lat="44.1315583893969" lon="15.238918447184519"><ele>37.0</ele><time>2026-05-01T13:59:23Z</time></trkpt><trkpt lat="44.13145077089821" lon="15.238868392094648"><ele>36.0</ele><time>2026-05-01T13:59:24Z</time></trkpt><trkpt lat="44.13133864309141" lon="15.238813134595185"><ele>35.0</ele><time>2026-05-01T13:59:25Z</time></trkpt><trkpt lat="44.13122877454026" lon="15.238756484769297"><ele>34.0</ele><time>2026-05-01T13:59:26Z</time></trkpt><trkpt lat="44.1311197738217" lon="15.238706103371005"><ele>33.0</ele><time>2026-05-01T13:59:27Z</time></trkpt><trkpt lat="44.131014388829826" lon="15.23865248967718"><ele>32.0</ele><time>2026-05-01T13:59:28Z</time></trkpt><trkpt lat="44.13090031422506" lon="15.238592719897353"><ele>31.0</ele><time>2026-05-01T13:59:29Z</time></trkpt><trkpt lat="44.13077882535364" lon="15.238518411116095"><ele>31.25</ele><time>2026-05-01T13:59:30Z</time></trkpt><trkpt lat="44.13065152363592" lon="15.238393426061272"><ele>31.5</ele><time>2026-05-01T13:59:31Z</time></trkpt><trkpt lat="44.13051820278013" lon="15.238300081591941"><ele>31.75</ele><time>2026-05-01T13:59:32Z</time></trkpt><trkpt lat="44.13040613722132" lon="15.23818610420666"><ele>32.0</ele><time>2026-05-01T13:59:33Z</time></trkpt><trkpt lat="44.130297022091554" lon="15.238084758491079"><ele>32.0</ele><time>2026-05-01T13:59:34Z</time></trkpt><trkpt lat="44.130191636488185" lon="15.23799093037296"><ele>32.0</ele><time>2026-05-01T13:59:35Z</time></trkpt><trkpt lat="44.130081872307514" lon="15.23789352483276"><ele>32.0</ele><time>2026-05-01T13:59:36Z</time></trkpt><trkpt lat="44.129983751232984" lon="15.237799981656975"><ele>32.0</ele><time>2026-05-01T13:59:37Z</time></trkpt><trkpt lat="44.12989604866014" lon="15.237714406132765"><ele>32.166666666666664</ele><time>2026-05-01T13:59:38Z</time></trkpt><trkpt lat="44.12981496464715" lon="15.23763839621866"><ele>32.33333333333333</ele><time>2026-05-01T13:59:39Z</time></trkpt><trkpt lat="44.129740822446564" lon="15.23757237380879"><ele>32.5</ele><time>2026-05-01T13:59:40Z</time></trkpt><trkpt lat="44.12967380769163" lon="15.237512637106832"><ele>32.666666666666664</ele><time>2026-05-01T13:59:41Z</time></trkpt><trkpt lat="44.12961522602583" lon="15.237461649719204"><ele>32.833333333333336</ele><time>2026-05-01T13:59:42Z</time></trkpt><trkpt lat="44.12954883331846" lon="15.237396798494892"><ele>33.0</ele><time>2026-05-01T13:59:43Z</time></trkpt><trkpt lat="44.12948163396428" lon="15.237335470122856"><ele>32.833333333333336</ele><time>2026-05-01T13:59:44Z</time></trkpt><trkpt lat="44.12941304382689" lon="15.237275248538237"><ele>32.666666666666664</ele><time>2026-05-01T13:59:45Z</time></trkpt><trkpt lat="44.12934882169576" lon="15.237201713574326"><ele>32.5</ele><time>2026-05-01T13:59:46Z</time></trkpt><trkpt lat="44.12927730777351" lon="15.237128228752205"><ele>32.33333333333333</ele><time>2026-05-01T13:59:47Z</time></trkpt><trkpt lat="44.12920011465778" lon="15.23705127317225"><ele>32.166666666666664</ele><time>2026-05-01T13:59:48Z</time></trkpt><trkpt lat="44.12911869791934" lon="15.236975799947952"><ele>32.0</ele><time>2026-05-01T13:59:49Z</time></trkpt><trkpt lat="44.12903730005652" lon="15.236903683397902"><ele>31.400000000000002</ele><time>2026-05-01T13:59:50Z</time></trkpt><trkpt lat="44.128952688428605" lon="15.236836556198353"><ele>30.800000000000004</ele><time>2026-05-01T13:59:51Z</time></trkpt><trkpt lat="44.12886860331028" lon="15.236770188693736"><ele>30.2</ele><time>2026-05-01T13:59:52Z</time></trkpt><trkpt lat="44.12878196486856" lon="15.23670362555378"><ele>29.6</ele><time>2026-05-01T13:59:53Z</time></trkpt><trkpt lat="44.12869765668278" lon="15.23663056982221"><ele>29.0</ele><time>2026-05-01T13:59:54Z</time></trkpt><trkpt lat="44.128604025076555" lon="15.236555566109143"><ele>29.0</ele><time>2026-05-01T13:59:55Z</time></trkpt><trkpt lat="44.12851496820285" lon="15.236474567370898"><ele>29.0</ele><time>2026-05-01T13:59:56Z</time></trkpt><trkpt lat="44.12843049720343" lon="15.23640481428204"><ele>29.0</ele><time>2026-05-01T13:59:57Z</time></trkpt><trkpt lat="44.12835058611731" lon="15.236336055802845"><ele>29.0</ele><time>2026-05-01T13:59:58Z</time></trkpt><trkpt lat="44.12827389333135" lon="15.236267115080242"><ele>29.0</ele><time>2026-05-01T13:59:59Z</time></trkpt><trkpt lat="44.12819314244875" lon="15.2361863036645"><ele>28.2</ele><time>2026-05-01T14:00:00Z</time></trkpt><trkpt lat="44.12810252835916" lon="15.236101906152165"><ele>27.4</ele><time>2026-05-01T14:00:01Z</time></trkpt><trkpt lat="44.128008056833984" lon="15.236020727782588"><ele>26.6</ele><time>2026-05-01T14:00:02Z</time></trkpt><trkpt lat="44.12791095087987" lon="15.235934476855824"><ele>25.8</ele><time>2026-05-01T14:00:03Z</time></trkpt><trkpt lat="44.12782278220966" lon="15.235847963391747"><ele>25.0</ele><time>2026-05-01T14:00:04Z</time></trkpt><trkpt lat="44.127736153218315" lon="15.235775384822949"><ele>25.0</ele><time>2026-05-01T14:00:05Z</time></trkpt><trkpt lat="44.12765007352305" lon="15.235700409671734"><ele>25.0</ele><time>2026-05-01T14:00:06Z</time></trkpt><trkpt lat="44.127556192635915" lon="15.235616573309398"><ele>25.0</ele><time>2026-05-01T14:00:07Z</time></trkpt><trkpt lat="44.127461804468275" lon="15.235534272792533"><ele>25.0</ele><time>2026-05-01T14:00:08Z</time></trkpt><trkpt lat="44.127376573325584" lon="15.235450257747802"><ele>25.0</ele><time>2026-05-01T14:00:09Z</time></trkpt><trkpt lat="44.127291492461666" lon="15.235372213107231"><ele>24.500000000000004</ele><time>2026-05-01T14:00:10Z</time></trkpt><trkpt lat="44.12720264293788" lon="15.235291343274413"><ele>24.0</ele><time>2026-05-01T14:00:11Z</time></trkpt><trkpt lat="44.12712821806446" lon="15.235219263386238"><ele>23.5</ele><time>2026-05-01T14:00:12Z</time></trkpt><trkpt lat="44.12705735476666" lon="15.235157339792455"><ele>23.0</ele><time>2026-05-01T14:00:13Z</time></trkpt><trkpt lat="44.12699036592996" lon="15.235101909640155"><ele>22.5</ele><time>2026-05-01T14:00:14Z</time></trkpt><trkpt lat="44.12693111533862" lon="15.235054072462152"><ele>22.0</ele><time>2026-05-01T14:00:15Z</time></trkpt><trkpt lat="44.126879545602726" lon="15.23500330433382"><ele>22.0</ele><time>2026-05-01T14:00:16Z</time></trkpt><trkpt lat="44.12677908715093" lon="15.234910760277998"><ele>22.0</ele><time>2026-05-01T14:00:18Z</time></trkpt><trkpt lat="44.126723238860706" lon="15.234868373358848"><ele>22.0</ele><time>2026-05-01T14:00:19Z</time></trkpt><trkpt lat="44.12666778608128" lon="15.234823863757278"><ele>22.0</ele><time>2026-05-01T14:00:20Z</time></trkpt><trkpt lat="44.12661234097997" lon="15.234780618451232"><ele>22.0</ele><time>2026-05-01T14:00:21Z</time></trkpt><trkpt lat="44.12651567741986" lon="15.2346822565148"><ele>22.0</ele><time>2026-05-01T14:00:23Z</time></trkpt><trkpt lat="44.126454728705504" lon="15.23465827939207"><ele>21.400000000000002</ele><time>2026-05-01T14:00:25Z</time></trkpt><trkpt lat="44.126378683324376" lon="15.234553570776788"><ele>20.8</ele><time>2026-05-01T14:00:57Z</time></trkpt><trkpt lat="44.12628991289082" lon="15.23448179619289"><ele>20.2</ele><time>2026-05-01T14:00:59Z</time></trkpt><trkpt lat="44.12617737806105" lon="15.234393376957039"><ele>19.6</ele><time>2026-05-01T14:01:01Z</time></trkpt><trkpt lat="44.1261166449837" lon="15.234343167842932"><ele>19.0</ele><time>2026-05-01T14:01:02Z</time></trkpt><trkpt lat="44.126054097110526" lon="15.2342913815776"><ele>19.0</ele><time>2026-05-01T14:01:03Z</time></trkpt><trkpt lat="44.12598356146505" lon="15.23422866214929"><ele>19.0</ele><time>2026-05-01T14:01:04Z</time></trkpt><trkpt lat="44.12591334567053" lon="15.234164049699041"><ele>19.0</ele><time>2026-05-01T14:01:05Z</time></trkpt><trkpt lat="44.12582995591504" lon="15.234094009693878"><ele>19.0</ele><time>2026-05-01T14:01:06Z</time></trkpt><trkpt lat="44.12573345110849" lon="15.234009319498636"><ele>19.0</ele><time>2026-05-01T14:01:07Z</time></trkpt><trkpt lat="44.12563557207609" lon="15.233925520427034"><ele>18.599999999999998</ele><time>2026-05-01T14:01:08Z</time></trkpt><trkpt lat="44.125542906432116" lon="15.233837831935396"><ele>18.2</ele><time>2026-05-01T14:01:09Z</time></trkpt><trkpt lat="44.125457120333685" lon="15.233753496732895"><ele>17.799999999999997</ele><time>2026-05-01T14:01:10Z</time></trkpt><trkpt lat="44.12537448478446" lon="15.233670465089816"><ele>17.4</ele><time>2026-05-01T14:01:11Z</time></trkpt><trkpt lat="44.12529170060627" lon="15.233594207229991"><ele>17.0</ele><time>2026-05-01T14:01:12Z</time></trkpt><trkpt lat="44.125216359335134" lon="15.2335238394136"><ele>17.0</ele><time>2026-05-01T14:01:13Z</time></trkpt><trkpt lat="44.125134819310695" lon="15.23344617052537"><ele>17.0</ele><time>2026-05-01T14:01:14Z</time></trkpt><trkpt lat="44.12505323919852" lon="15.233372825769464"><ele>17.0</ele><time>2026-05-01T14:01:15Z</time></trkpt><trkpt lat="44.12496818060156" lon="15.233308996222233"><ele>17.0</ele><time>2026-05-01T14:01:16Z</time></trkpt><trkpt lat="44.12488210979874" lon="15.233246670787466"><ele>17.0</ele><time>2026-05-01T14:01:17Z</time></trkpt><trkpt lat="44.124798386553636" lon="15.233189208325532"><ele>16.5</ele><time>2026-05-01T14:01:18Z</time></trkpt><trkpt lat="44.12471630467179" lon="15.23313650352549"><ele>16.0</ele><time>2026-05-01T14:01:19Z</time></trkpt><trkpt lat="44.12464240059815" lon="15.233078051889734"><ele>15.5</ele><time>2026-05-01T14:01:20Z</time></trkpt><trkpt lat="44.12457513745086" lon="15.233017306656865"><ele>15.0</ele><time>2026-05-01T14:01:21Z</time></trkpt><trkpt lat="44.12451615511568" lon="15.232954007510456"><ele>14.500000000000002</ele><time>2026-05-01T14:01:22Z</time></trkpt><trkpt lat="44.124434109697546" lon="15.232838122582182"><ele>14.0</ele><time>2026-05-01T14:01:24Z</time></trkpt><trkpt lat="44.124358835902974" lon="15.232767075671518"><ele>14.000000000000002</ele><time>2026-05-01T14:01:26Z</time></trkpt><trkpt lat="44.124267452593514" lon="15.232786107220157"><ele>14.0</ele><time>2026-05-01T14:01:28Z</time></trkpt><trkpt lat="44.124211486346454" lon="15.232826674445931"><ele>14.0</ele><time>2026-05-01T14:01:29Z</time></trkpt><trkpt lat="44.1241444433579" lon="15.232853951884849"><ele>14.0</ele><time>2026-05-01T14:01:30Z</time></trkpt><trkpt lat="44.12406110979337" lon="15.2328547142031"><ele>14.000000000000002</ele><time>2026-05-01T14:01:31Z</time></trkpt><trkpt lat="44.123963799690785" lon="15.232833282063597"><ele>14.0</ele><time>2026-05-01T14:01:32Z</time></trkpt><trkpt lat="44.12384901957332" lon="15.232812438624473"><ele>14.25</ele><time>2026-05-01T14:01:33Z</time></trkpt><trkpt lat="44.12373190687826" lon="15.232800024291564"><ele>14.5</ele><time>2026-05-01T14:01:34Z</time></trkpt><trkpt lat="44.123624200063844" lon="15.232793119060627"><ele>14.75</ele><time>2026-05-01T14:01:35Z</time></trkpt><trkpt lat="44.123508919618615" lon="15.23279500022845"><ele>15.0</ele><time>2026-05-01T14:01:36Z</time></trkpt><trkpt lat="44.123385979224096" lon="15.23282475658489"><ele>15.0</ele><time>2026-05-01T14:01:37Z</time></trkpt><trkpt lat="44.123270539244864" lon="15.23287239369116"><ele>15.0</ele><time>2026-05-01T14:01:38Z</time></trkpt><trkpt lat="44.12313652358533" lon="15.232923465669371"><ele>15.0</ele><time>2026-05-01T14:01:39Z</time></trkpt><trkpt lat="44.12302896568719" lon="15.233004703221772"><ele>15.0</ele><time>2026-05-01T14:01:40Z</time></trkpt><trkpt lat="44.12291832622814" lon="15.23306245231987"><ele>15.0</ele><time>2026-05-01T14:01:41Z</time></trkpt><trkpt lat="44.12281445610212" lon="15.233113874047588"><ele>15.0</ele><time>2026-05-01T14:01:42Z</time></trkpt><trkpt lat="44.12270849871248" lon="15.23315977651991"><ele>15.0</ele><time>2026-05-01T14:01:43Z</time></trkpt><trkpt lat="44.12259566403219" lon="15.233188481916835"><ele>15.0</ele><time>2026-05-01T14:01:44Z</time></trkpt><trkpt lat="44.1224684955127" lon="15.233181261574131"><ele>13.5</ele><time>2026-05-01T14:01:45Z</time></trkpt><trkpt lat="44.12234022399667" lon="15.233162695164888"><ele>12.0</ele><time>2026-05-01T14:01:46Z</time></trkpt><trkpt lat="44.12222521087258" lon="15.23313744463108"><ele>10.5</ele><time>2026-05-01T14:01:47Z</time></trkpt><trkpt lat="44.122112082112615" lon="15.233109898457009"><ele>9.0</ele><time>2026-05-01T14:01:48Z</time></trkpt><trkpt lat="44.12198650916809" lon="15.233067016264606"><ele>9.0</ele><time>2026-05-01T14:01:49Z</time></trkpt><trkpt lat="44.12185580723919" lon="15.233038067661084"><ele>9.0</ele><time>2026-05-01T14:01:50Z</time></trkpt><trkpt lat="44.12172615523692" lon="15.233049246863928"><ele>9.0</ele><time>2026-05-01T14:01:51Z</time></trkpt><trkpt lat="44.121605067608215" lon="15.233067798351422"><ele>9.0</ele><time>2026-05-01T14:01:52Z</time></trkpt><trkpt lat="44.12150137292186" lon="15.233106333596888"><ele>8.2</ele><time>2026-05-01T14:01:53Z</time></trkpt><trkpt lat="44.121417193111554" lon="15.233145870076171"><ele>7.4</ele><time>2026-05-01T14:01:54Z</time></trkpt><trkpt lat="44.12133610804442" lon="15.233189909462356"><ele>6.6</ele><time>2026-05-01T14:01:55Z</time></trkpt><trkpt lat="44.121239919232224" lon="15.233232089688656"><ele>5.8</ele><time>2026-05-01T14:01:56Z</time></trkpt><trkpt lat="44.121145535909335" lon="15.233290214852577"><ele>5.0</ele><time>2026-05-01T14:01:57Z</time></trkpt><trkpt lat="44.121061414242966" lon="15.233358751564898"><ele>5.0</ele><time>2026-05-01T14:01:58Z</time></trkpt><trkpt lat="44.12098731788405" lon="15.233446973603831"><ele>5.0</ele><time>2026-05-01T14:01:59Z</time></trkpt><trkpt lat="44.12091103704114" lon="15.233536509871511"><ele>5.0</ele><time>2026-05-01T14:02:00Z</time></trkpt><trkpt lat="44.1208484059163" lon="15.233626247590788"><ele>5.0</ele><time>2026-05-01T14:02:01Z</time></trkpt><trkpt lat="44.120783024498785" lon="15.233721838857564"><ele>5.0</ele><time>2026-05-01T14:02:02Z</time></trkpt><trkpt lat="44.12071666539195" lon="15.233822913775757"><ele>6.0</ele><time>2026-05-01T14:02:03Z</time></trkpt><trkpt lat="44.120647312719214" lon="15.233918235403188"><ele>7.0</ele><time>2026-05-01T14:02:04Z</time></trkpt><trkpt lat="44.12058034130183" lon="15.234006247637671"><ele>8.0</ele><time>2026-05-01T14:02:05Z</time></trkpt><trkpt lat="44.12051478446141" lon="15.234093785125733"><ele>9.0</ele><time>2026-05-01T14:02:06Z</time></trkpt><trkpt lat="44.12044969774381" lon="15.23418753170064"><ele>10.0</ele><time>2026-05-01T14:02:07Z</time></trkpt><trkpt lat="44.12038706477792" lon="15.234288055981063"><ele>10.2</ele><time>2026-05-01T14:02:08Z</time></trkpt><trkpt lat="44.12032260575337" lon="15.234385166866309"><ele>10.4</ele><time>2026-05-01T14:02:09Z</time></trkpt><trkpt lat="44.120249683166264" lon="15.234486662303885"><ele>10.600000000000001</ele><time>2026-05-01T14:02:10Z</time></trkpt><trkpt lat="44.12014896392913" lon="15.234559810921159"><ele>10.8</ele><time>2026-05-01T14:02:11Z</time></trkpt><trkpt lat="44.120045710596266" lon="15.23463318993331"><ele>11.0</ele><time>2026-05-01T14:02:12Z</time></trkpt><trkpt lat="44.119941066607076" lon="15.234682522731244"><ele>11.0</ele><time>2026-05-01T14:02:13Z</time></trkpt><trkpt lat="44.11984036497081" lon="15.234729245645463"><ele>11.0</ele><time>2026-05-01T14:02:14Z</time></trkpt><trkpt lat="44.11973277307834" lon="15.234768689250368"><ele>11.0</ele><time>2026-05-01T14:02:15Z</time></trkpt><trkpt lat="44.119626082557076" lon="15.234814083790667"><ele>11.0</ele><time>2026-05-01T14:02:16Z</time></trkpt><trkpt lat="44.11951380998788" lon="15.234854255865754"><ele>11.0</ele><time>2026-05-01T14:02:17Z</time></trkpt><trkpt lat="44.11941024722581" lon="15.234885123298646"><ele>11.0</ele><time>2026-05-01T14:02:18Z</time></trkpt><trkpt lat="44.11931902907809" lon="15.23490976025145"><ele>11.0</ele><time>2026-05-01T14:02:19Z</time></trkpt><trkpt lat="44.119236003603355" lon="15.234922094652351"><ele>11.0</ele><time>2026-05-01T14:02:20Z</time></trkpt><trkpt lat="44.11915714187302" lon="15.234928493541382"><ele>11.0</ele><time>2026-05-01T14:02:21Z</time></trkpt><trkpt lat="44.11908936860118" lon="15.234928853669087"><ele>11.0</ele><time>2026-05-01T14:02:22Z</time></trkpt><trkpt lat="44.119025955808766" lon="15.234935802543594"><ele>11.0</ele><time>2026-05-01T14:02:23Z</time></trkpt><trkpt lat="44.11894040737633" lon="15.234943459462457"><ele>11.0</ele><time>2026-05-01T14:02:25Z</time></trkpt><trkpt lat="44.118857719923724" lon="15.234965236053451"><ele>11.0</ele><time>2026-05-01T14:02:42Z</time></trkpt><trkpt lat="44.11872881844533" lon="15.235015184887926"><ele>11.0</ele><time>2026-05-01T14:02:44Z</time></trkpt><trkpt lat="44.11865193166251" lon="15.235042525115984"><ele>11.0</ele><time>2026-05-01T14:02:45Z</time></trkpt><trkpt lat="44.11856319761215" lon="15.23506670841595"><ele>11.0</ele><time>2026-05-01T14:02:46Z</time></trkpt><trkpt lat="44.11847147525262" lon="15.235085349345603"><ele>11.0</ele><time>2026-05-01T14:02:47Z</time></trkpt><trkpt lat="44.11837656437445" lon="15.23510326495306"><ele>11.0</ele><time>2026-05-01T14:02:48Z</time></trkpt><trkpt lat="44.11828285954025" lon="15.235120785643494"><ele>11.0</ele><time>2026-05-01T14:02:49Z</time></trkpt><trkpt lat="44.11818400967442" lon="15.235141028958143"><ele>11.0</ele><time>2026-05-01T14:02:50Z</time></trkpt><trkpt lat="44.11808001895852" lon="15.235157050952083"><ele>11.0</ele><time>2026-05-01T14:02:51Z</time></trkpt><trkpt lat="44.11798161992028" lon="15.23516545122531"><ele>10.8</ele><time>2026-05-01T14:02:52Z</time></trkpt><trkpt lat="44.1178824303817" lon="15.235171882092452"><ele>10.600000000000001</ele><time>2026-05-01T14:02:53Z</time></trkpt><trkpt lat="44.11778414121641" lon="15.235176051688208"><ele>10.4</ele><time>2026-05-01T14:02:54Z</time></trkpt><trkpt lat="44.11769084134466" lon="15.235180252941278"><ele>10.2</ele><time>2026-05-01T14:02:55Z</time></trkpt><trkpt lat="44.117597751707955" lon="15.235183360770787"><ele>10.0</ele><time>2026-05-01T14:02:56Z</time></trkpt><trkpt lat="44.11750274073004" lon="15.23519292128008"><ele>10.0</ele><time>2026-05-01T14:02:57Z</time></trkpt><trkpt lat="44.11740644636159" lon="15.235190720083871"><ele>10.0</ele><time>2026-05-01T14:02:58Z</time></trkpt><trkpt lat="44.117310973090085" lon="15.235191022977846"><ele>10.0</ele><time>2026-05-01T14:02:59Z</time></trkpt><trkpt lat="44.11721812306889" lon="15.235198667416764"><ele>10.0</ele><time>2026-05-01T14:03:00Z</time></trkpt><trkpt lat="44.117130552477974" lon="15.235213525938363"><ele>10.0</ele><time>2026-05-01T14:03:01Z</time></trkpt><trkpt lat="44.11704527449742" lon="15.235231255913947"><ele>10.0</ele><time>2026-05-01T14:03:02Z</time></trkpt><trkpt lat="44.11697007564161" lon="15.235234849494388"><ele>10.0</ele><time>2026-05-01T14:03:03Z</time></trkpt><trkpt lat="44.11690001120988" lon="15.235218972564365"><ele>10.0</ele><time>2026-05-01T14:03:04Z</time></trkpt><trkpt lat="44.11680967482302" lon="15.234964284956757"><ele>10.0</ele><time>2026-05-01T14:03:07Z</time></trkpt><trkpt lat="44.11679933506096" lon="15.234859595890907"><ele>10.0</ele><time>2026-05-01T14:03:08Z</time></trkpt><trkpt lat="44.116767113338085" lon="15.23475533868553"><ele>10.0</ele><time>2026-05-01T14:03:09Z</time></trkpt><trkpt lat="44.11674003334275" lon="15.234645144920275"><ele>10.0</ele><time>2026-05-01T14:03:10Z</time></trkpt><trkpt lat="44.11671578390622" lon="15.234550810581492"><ele>10.0</ele><time>2026-05-01T14:03:11Z</time></trkpt><trkpt lat="44.11665659510193" lon="15.234400380880357"><ele>10.0</ele><time>2026-05-01T14:03:13Z</time></trkpt><trkpt lat="44.1166026859755" lon="15.234237635359626"><ele>10.0</ele><time>2026-05-01T14:03:15Z</time></trkpt><trkpt lat="44.116555185620285" lon="15.234150369087539"><ele>10.0</ele><time>2026-05-01T14:03:16Z</time></trkpt><trkpt lat="44.11653048012431" lon="15.234047553865468"><ele>10.0</ele><time>2026-05-01T14:03:17Z</time></trkpt><trkpt lat="44.11648754094099" lon="15.233955130809504"><ele>10.0</ele><time>2026-05-01T14:03:18Z</time></trkpt><trkpt lat="44.1164376275708" lon="15.23384988077865"><ele>10.0</ele><time>2026-05-01T14:03:19Z</time></trkpt><trkpt lat="44.116369996497404" lon="15.23375700719658"><ele>10.0</ele><time>2026-05-01T14:03:20Z</time></trkpt><trkpt lat="44.116322312068604" lon="15.23365520502545"><ele>10.0</ele><time>2026-05-01T14:03:21Z</time></trkpt><trkpt lat="44.11628174349056" lon="15.233585888115545"><ele>10.2</ele><time>2026-05-01T14:03:22Z</time></trkpt><trkpt lat="44.11621714438304" lon="15.233444317452157"><ele>10.4</ele><time>2026-05-01T14:03:24Z</time></trkpt><trkpt lat="44.11617082020835" lon="15.233363000496698"><ele>10.600000000000001</ele><time>2026-05-01T14:03:25Z</time></trkpt><trkpt lat="44.11611485792737" lon="15.233260235083359"><ele>10.8</ele><time>2026-05-01T14:03:26Z</time></trkpt><trkpt lat="44.11606210154993" lon="15.23315923153364"><ele>11.0</ele><time>2026-05-01T14:03:27Z</time></trkpt><trkpt lat="44.11600815400716" lon="15.23305992672738"><ele>11.200000000000001</ele><time>2026-05-01T14:03:28Z</time></trkpt><trkpt lat="44.115951814536" lon="15.232956528348994"><ele>11.4</ele><time>2026-05-01T14:03:29Z</time></trkpt><trkpt lat="44.11590432867223" lon="15.232855952073976"><ele>11.6</ele><time>2026-05-01T14:03:30Z</time></trkpt><trkpt lat="44.11584111727672" lon="15.232748695895687"><ele>11.8</ele><time>2026-05-01T14:03:31Z</time></trkpt><trkpt lat="44.115776648112124" lon="15.232640676046147"><ele>12.0</ele><time>2026-05-01T14:03:32Z</time></trkpt><trkpt lat="44.115717794466434" lon="15.23253165628853"><ele>10.5</ele><time>2026-05-01T14:03:33Z</time></trkpt><trkpt lat="44.11565530977264" lon="15.232428859110227"><ele>9.0</ele><time>2026-05-01T14:03:34Z</time></trkpt><trkpt lat="44.11560225527327" lon="15.232323941397432"><ele>7.5</ele><time>2026-05-01T14:03:35Z</time></trkpt><trkpt lat="44.11554725090568" lon="15.232227657986352"><ele>6.0</ele><time>2026-05-01T14:03:36Z</time></trkpt><trkpt lat="44.11548000454864" lon="15.232159087258026"><ele>4.5</ele><time>2026-05-01T14:03:37Z</time></trkpt><trkpt lat="44.11540014359273" lon="15.232113140713109"><ele>3.0</ele><time>2026-05-01T14:03:38Z</time></trkpt><trkpt lat="44.115321315160564" lon="15.232095976324217"><ele>3.0</ele><time>2026-05-01T14:03:39Z</time></trkpt><trkpt lat="44.115234183560425" lon="15.232123375896041"><ele>3.0</ele><time>2026-05-01T14:03:40Z</time></trkpt><trkpt lat="44.11515122744195" lon="15.232190040158745"><ele>3.0</ele><time>2026-05-01T14:03:41Z</time></trkpt><trkpt lat="44.115071700217555" lon="15.23228538804177"><ele>3.0</ele><time>2026-05-01T14:03:42Z</time></trkpt><trkpt lat="44.11499561049475" lon="15.23238521995889"><ele>3.0</ele><time>2026-05-01T14:03:43Z</time></trkpt><trkpt lat="44.11492184150372" lon="15.232476220915512"><ele>2.1999999999999997</ele><time>2026-05-01T14:03:44Z</time></trkpt><trkpt lat="44.11484673901116" lon="15.232567986764206"><ele>1.4</ele><time>2026-05-01T14:03:45Z</time></trkpt><trkpt lat="44.1147727243125" lon="15.232650469278845"><ele>0.5999999999999999</ele><time>2026-05-01T14:03:46Z</time></trkpt><trkpt lat="44.114693707223324" lon="15.23272950681746"><ele>-0.20000000000000007</ele><time>2026-05-01T14:03:47Z</time></trkpt><trkpt lat="44.11461148823375" lon="15.23280882179662"><ele>-1.0</ele><time>2026-05-01T14:03:48Z</time></trkpt><trkpt lat="44.114527464372706" lon="15.23286547427751"><ele>-1.0</ele><time>2026-05-01T14:03:49Z</time></trkpt><trkpt lat="44.11444620422775" lon="15.23291295495329"><ele>-1.0</ele><time>2026-05-01T14:03:50Z</time></trkpt><trkpt lat="44.11436062476348" lon="15.232953142107327"><ele>-1.0</ele><time>2026-05-01T14:03:51Z</time></trkpt><trkpt lat="44.11426419121951" lon="15.232992406861365"><ele>-1.0</ele><time>2026-05-01T14:03:52Z</time></trkpt><trkpt lat="44.11416838415287" lon="15.23303245247698"><ele>-1.0</ele><time>2026-05-01T14:03:53Z</time></trkpt><trkpt lat="44.11406925842034" lon="15.233068859838637"><ele>-1.0</ele><time>2026-05-01T14:03:54Z</time></trkpt><trkpt lat="44.11396929488898" lon="15.233102462430725"><ele>-1.0</ele><time>2026-05-01T14:03:55Z</time></trkpt><trkpt lat="44.1138650831444" lon="15.233137819185165"><ele>-1.0</ele><time>2026-05-01T14:03:56Z</time></trkpt><trkpt lat="44.11376672173386" lon="15.233187156155582"><ele>-1.0</ele><time>2026-05-01T14:03:57Z</time></trkpt><trkpt lat="44.11366513284678" lon="15.2332259675789"><ele>-1.0</ele><time>2026-05-01T14:03:58Z</time></trkpt><trkpt lat="44.1135637427133" lon="15.233267173614259"><ele>-1.0</ele><time>2026-05-01T14:03:59Z</time></trkpt><trkpt lat="44.113465970008306" lon="15.233308106033432"><ele>-1.0</ele><time>2026-05-01T14:04:00Z</time></trkpt><trkpt lat="44.11337423275565" lon="15.233366004091023"><ele>-1.0</ele><time>2026-05-01T14:04:01Z</time></trkpt><trkpt lat="44.11327535312214" lon="15.233417413268004"><ele>-1.0</ele><time>2026-05-01T14:04:02Z</time></trkpt><trkpt lat="44.113176043665476" lon="15.233468638893942"><ele>-1.0</ele><time>2026-05-01T14:04:03Z</time></trkpt><trkpt lat="44.113086077159586" lon="15.233538750466879"><ele>-0.8</ele><time>2026-05-01T14:04:04Z</time></trkpt><trkpt lat="44.11300159852429" lon="15.233610733403884"><ele>-0.6000000000000001</ele><time>2026-05-01T14:04:05Z</time></trkpt><trkpt lat="44.112916445243776" lon="15.23368333465152"><ele>-0.4</ele><time>2026-05-01T14:04:06Z</time></trkpt><trkpt lat="44.112831165689855" lon="15.233759742670673"><ele>-0.2</ele><time>2026-05-01T14:04:07Z</time></trkpt><trkpt lat="44.11274021632878" lon="15.233835413603801"><ele>0.0</ele><time>2026-05-01T14:04:08Z</time></trkpt><trkpt lat="44.11265313919713" lon="15.233909064018611"><ele>0.0</ele><time>2026-05-01T14:04:09Z</time></trkpt><trkpt lat="44.11256709658465" lon="15.23398706573346"><ele>0.0</ele><time>2026-05-01T14:04:10Z</time></trkpt><trkpt lat="44.112484432390396" lon="15.234067761938666"><ele>0.0</ele><time>2026-05-01T14:04:11Z</time></trkpt><trkpt lat="44.11240263725603" lon="15.234147485158715"><ele>0.0</ele><time>2026-05-01T14:04:12Z</time></trkpt><trkpt lat="44.11231554437257" lon="15.234228124212468"><ele>0.0</ele><time>2026-05-01T14:04:13Z</time></trkpt><trkpt lat="44.112228426298444" lon="15.234306470616115"><ele>0.0</ele><time>2026-05-01T14:04:14Z</time></trkpt><trkpt lat="44.11214148406464" lon="15.234382837577042"><ele>0.0</ele><time>2026-05-01T14:04:15Z</time></trkpt><trkpt lat="44.11206312108939" lon="15.234453737689192"><ele>0.0</ele><time>2026-05-01T14:04:16Z</time></trkpt><trkpt lat="44.11199556244198" lon="15.234512366267882"><ele>0.0</ele><time>2026-05-01T14:04:17Z</time></trkpt><trkpt lat="44.111930941309865" lon="15.234566580244197"><ele>0.0</ele><time>2026-05-01T14:04:18Z</time></trkpt><trkpt lat="44.11187235198647" lon="15.234617511317976"><ele>0.0</ele><time>2026-05-01T14:04:19Z</time></trkpt><trkpt lat="44.11179485357605" lon="15.234687051434326"><ele>0.0</ele><time>2026-05-01T14:04:21Z</time></trkpt><trkpt lat="44.111730636350174" lon="15.23474955688286"><ele>0.0</ele><time>2026-05-01T14:04:45Z</time></trkpt><trkpt lat="44.11165615992956" lon="15.234780046234562"><ele>0.0</ele><time>2026-05-01T14:04:47Z</time></trkpt><trkpt lat="44.11156193374438" lon="15.23472192079266"><ele>0.0</ele><time>2026-05-01T14:04:49Z</time></trkpt><trkpt lat="44.1115131776968" lon="15.23466540727011"><ele>0.0</ele><time>2026-05-01T14:04:50Z</time></trkpt><trkpt lat="44.111462573250506" lon="15.234597860755674"><ele>0.0</ele><time>2026-05-01T14:04:51Z</time></trkpt><trkpt lat="44.111415504816556" lon="15.234532501631023"><ele>0.14285714285714285</ele><time>2026-05-01T14:04:52Z</time></trkpt><trkpt lat="44.111370348845306" lon="15.234456250830622"><ele>0.2857142857142857</ele><time>2026-05-01T14:04:53Z</time></trkpt><trkpt lat="44.111326406364576" lon="15.234372533661983"><ele>0.42857142857142855</ele><time>2026-05-01T14:04:54Z</time></trkpt><trkpt lat="44.11128263946565" lon="15.234305187792877"><ele>0.5714285714285714</ele><time>2026-05-01T14:04:55Z</time></trkpt><trkpt lat="44.11123796745459" lon="15.234240226727653"><ele>0.7142857142857142</ele><time>2026-05-01T14:04:56Z</time></trkpt><trkpt lat="44.11118612842776" lon="15.23417131703638"><ele>0.8571428571428571</ele><time>2026-05-01T14:04:57Z</time></trkpt><trkpt lat="44.111134681261795" lon="15.234103789470575"><ele>1.0</ele><time>2026-05-01T14:04:58Z</time></trkpt><trkpt lat="44.11108598470367" lon="15.234041429717886"><ele>1.5</ele><time>2026-05-01T14:04:59Z</time></trkpt><trkpt lat="44.11101068892365" lon="15.23391535138299"><ele>2.0</ele><time>2026-05-01T14:05:01Z</time></trkpt><trkpt lat="44.11107652466756" lon="15.23369461501754"><ele>2.5</ele><time>2026-05-01T14:05:04Z</time></trkpt><trkpt lat="44.11112943211321" lon="15.233621967667906"><ele>3.0</ele><time>2026-05-01T14:05:05Z</time></trkpt><trkpt lat="44.11119001036968" lon="15.233524964978693"><ele>3.0</ele><time>2026-05-01T14:05:06Z</time></trkpt><trkpt lat="44.11125590730031" lon="15.233406887677932"><ele>3.0</ele><time>2026-05-01T14:05:07Z</time></trkpt><trkpt lat="44.11133169304969" lon="15.2332734666081"><ele>3.0</ele><time>2026-05-01T14:05:08Z</time></trkpt><trkpt lat="44.111413414088645" lon="15.233135515827048"><ele>3.0</ele><time>2026-05-01T14:05:09Z</time></trkpt><trkpt lat="44.1114947341379" lon="15.233010092137915"><ele>3.4</ele><time>2026-05-01T14:05:10Z</time></trkpt><trkpt lat="44.11157223455964" lon="15.232890263375808"><ele>3.8</ele><time>2026-05-01T14:05:11Z</time></trkpt><trkpt lat="44.111645704392515" lon="15.232774847722208"><ele>4.2</ele><time>2026-05-01T14:05:12Z</time></trkpt><trkpt lat="44.111708984865" lon="15.232666268197931"><ele>4.6</ele><time>2026-05-01T14:05:13Z</time></trkpt><trkpt lat="44.11176724544619" lon="15.23256901010412"><ele>5.0</ele><time>2026-05-01T14:05:14Z</time></trkpt><trkpt lat="44.111822843159764" lon="15.232479106259749"><ele>5.0</ele><time>2026-05-01T14:05:15Z</time></trkpt><trkpt lat="44.111872245268174" lon="15.232393957179214"><ele>5.0</ele><time>2026-05-01T14:05:16Z</time></trkpt><trkpt lat="44.111921769194694" lon="15.2323144936608"><ele>5.0</ele><time>2026-05-01T14:05:17Z</time></trkpt><trkpt lat="44.11198148017363" lon="15.232224891550286"><ele>5.0</ele><time>2026-05-01T14:05:18Z</time></trkpt><trkpt lat="44.112052116772" lon="15.232116113239972"><ele>5.0</ele><time>2026-05-01T14:05:19Z</time></trkpt><trkpt lat="44.112135666558274" lon="15.232002728133391"><ele>4.6</ele><time>2026-05-01T14:05:20Z</time></trkpt><trkpt lat="44.1122280449787" lon="15.231903442392532"><ele>4.2</ele><time>2026-05-01T14:05:21Z</time></trkpt><trkpt lat="44.11232025826016" lon="15.231830327099383"><ele>3.8</ele><time>2026-05-01T14:05:22Z</time></trkpt><trkpt lat="44.1124126823093" lon="15.231764943012683"><ele>3.4</ele><time>2026-05-01T14:05:23Z</time></trkpt><trkpt lat="44.11250451544226" lon="15.231693047119244"><ele>3.0</ele><time>2026-05-01T14:05:24Z</time></trkpt><trkpt lat="44.11259581140743" lon="15.23161297538935"><ele>3.0</ele><time>2026-05-01T14:05:25Z</time></trkpt><trkpt lat="44.112691198697966" lon="15.23153897694103"><ele>3.0</ele><time>2026-05-01T14:05:26Z</time></trkpt><trkpt lat="44.112784803689884" lon="15.231466461445418"><ele>3.0</ele><time>2026-05-01T14:05:27Z</time></trkpt><trkpt lat="44.11286924578957" lon="15.23139624754068"><ele>3.0</ele><time>2026-05-01T14:05:28Z</time></trkpt><trkpt lat="44.11294755790968" lon="15.231334699549159"><ele>3.0</ele><time>2026-05-01T14:05:29Z</time></trkpt><trkpt lat="44.11302317634806" lon="15.23127567220946"><ele>3.2</ele><time>2026-05-01T14:05:30Z</time></trkpt><trkpt lat="44.11309978866968" lon="15.231217771415992"><ele>3.4</ele><time>2026-05-01T14:05:31Z</time></trkpt><trkpt lat="44.113177284013894" lon="15.23116350003504"><ele>3.6000000000000005</ele><time>2026-05-01T14:05:32Z</time></trkpt><trkpt lat="44.11326497662083" lon="15.231094644665795"><ele>3.8000000000000003</ele><time>2026-05-01T14:05:33Z</time></trkpt><trkpt lat="44.11335883723054" lon="15.231012801135547"><ele>4.0</ele><time>2026-05-01T14:05:34Z</time></trkpt><trkpt lat="44.11346109127347" lon="15.230928284167895"><ele>4.0</ele><time>2026-05-01T14:05:35Z</time></trkpt><trkpt lat="44.113567931731666" lon="15.23084762487815"><ele>4.0</ele><time>2026-05-01T14:05:36Z</time></trkpt><trkpt lat="44.11367176444099" lon="15.230766694450784"><ele>4.0</ele><time>2026-05-01T14:05:37Z</time></trkpt><trkpt lat="44.11376617392719" lon="15.2306865384407"><ele>4.0</ele><time>2026-05-01T14:05:38Z</time></trkpt><trkpt lat="44.11385702728626" lon="15.230597457238428"><ele>4.6</ele><time>2026-05-01T14:05:39Z</time></trkpt><trkpt lat="44.11394475411268" lon="15.230515852903972"><ele>5.2</ele><time>2026-05-01T14:05:40Z</time></trkpt><trkpt lat="44.114031866900355" lon="15.230428535145988"><ele>5.799999999999999</ele><time>2026-05-01T14:05:41Z</time></trkpt><trkpt lat="44.11410987308226" lon="15.230338758004846"><ele>6.3999999999999995</ele><time>2026-05-01T14:05:42Z</time></trkpt><trkpt lat="44.11418115034153" lon="15.23025383174075"><ele>7.0</ele><time>2026-05-01T14:05:43Z</time></trkpt><trkpt lat="44.11424521513947" lon="15.230177833669316"><ele>7.000000000000001</ele><time>2026-05-01T14:05:44Z</time></trkpt><trkpt lat="44.11430955254521" lon="15.230098835110518"><ele>7.0</ele><time>2026-05-01T14:05:45Z</time></trkpt><trkpt lat="44.11437424973347" lon="15.230008446142739"><ele>7.0</ele><time>2026-05-01T14:05:46Z</time></trkpt><trkpt lat="44.1144404762791" lon="15.229919260592547"><ele>7.0</ele><time>2026-05-01T14:05:47Z</time></trkpt><trkpt lat="44.11450215888006" lon="15.22983571275614"><ele>7.000000000000001</ele><time>2026-05-01T14:05:48Z</time></trkpt><trkpt lat="44.11456305826106" lon="15.229755703609131"><ele>7.0</ele><time>2026-05-01T14:05:49Z</time></trkpt><trkpt lat="44.11461804072838" lon="15.229676685254075"><ele>6.666666666666667</ele><time>2026-05-01T14:05:50Z</time></trkpt><trkpt lat="44.11466805930152" lon="15.229607538610507"><ele>6.333333333333334</ele><time>2026-05-01T14:05:51Z</time></trkpt><trkpt lat="44.11471379586827" lon="15.229540596144775"><ele>6.0</ele><time>2026-05-01T14:05:52Z</time></trkpt><trkpt lat="44.114800690138104" lon="15.229420464216602"><ele>5.666666666666667</ele><time>2026-05-01T14:05:54Z</time></trkpt><trkpt lat="44.11485136777318" lon="15.229356357650918"><ele>5.333333333333334</ele><time>2026-05-01T14:05:55Z</time></trkpt><trkpt lat="44.11490550125104" lon="15.229283554413396"><ele>5.0</ele><time>2026-05-01T14:05:56Z</time></trkpt><trkpt lat="44.11496047040611" lon="15.229209502779376"><ele>4.333333333333334</ele><time>2026-05-01T14:05:57Z</time></trkpt><trkpt lat="44.115014862675174" lon="15.229136660483269"><ele>3.666666666666667</ele><time>2026-05-01T14:05:58Z</time></trkpt><trkpt lat="44.11507470302165" lon="15.229080203230572"><ele>3.0</ele><time>2026-05-01T14:05:59Z</time></trkpt><trkpt lat="44.11512410383185" lon="15.229016985833876"><ele>2.3333333333333335</ele><time>2026-05-01T14:06:00Z</time></trkpt><trkpt lat="44.11519790807484" lon="15.228934882024506"><ele>1.6666666666666665</ele><time>2026-05-01T14:06:02Z</time></trkpt><trkpt lat="44.115262961943245" lon="15.228869300312471"><ele>1.0</ele><time>2026-05-01T14:06:04Z</time></trkpt><trkpt lat="44.11533370466957" lon="15.22880425809926"><ele>1.0</ele><time>2026-05-01T14:06:06Z</time></trkpt><trkpt lat="44.115429176318564" lon="15.228726445219284"><ele>1.0</ele><time>2026-05-01T14:06:08Z</time></trkpt><trkpt lat="44.11554459380667" lon="15.228643591950515"><ele>1.0</ele><time>2026-05-01T14:06:10Z</time></trkpt><trkpt lat="44.11561700886844" lon="15.228595714122864"><ele>1.0</ele><time>2026-05-01T14:06:11Z</time></trkpt><trkpt lat="44.115694820056774" lon="15.228551227747587"><ele>1.0</ele><time>2026-05-01T14:06:12Z</time></trkpt><trkpt lat="44.11577258305501" lon="15.228508465236445"><ele>1.1666666666666665</ele><time>2026-05-01T14:06:13Z</time></trkpt><trkpt lat="44.11585068666895" lon="15.228465021909313"><ele>1.3333333333333333</ele><time>2026-05-01T14:06:14Z</time></trkpt><trkpt lat="44.11593415341689" lon="15.22841656593331"><ele>1.5</ele><time>2026-05-01T14:06:15Z</time></trkpt><trkpt lat="44.11601247402944" lon="15.228367726161155"><ele>1.6666666666666665</ele><time>2026-05-01T14:06:16Z</time></trkpt><trkpt lat="44.1160865257874" lon="15.228323010554417"><ele>1.8333333333333333</ele><time>2026-05-01T14:06:17Z</time></trkpt><trkpt lat="44.116157213864554" lon="15.22827875434549"><ele>2.0</ele><time>2026-05-01T14:06:18Z</time></trkpt><trkpt lat="44.116221792006314" lon="15.228227830920085"><ele>1.9999999999999998</ele><time>2026-05-01T14:06:19Z</time></trkpt><trkpt lat="44.11628579964726" lon="15.22816047311676"><ele>2.0</ele><time>2026-05-01T14:06:20Z</time></trkpt><trkpt lat="44.11634641319191" lon="15.228077113218639"><ele>2.0</ele><time>2026-05-01T14:06:21Z</time></trkpt><trkpt lat="44.11639940080939" lon="15.227983319493651"><ele>2.0</ele><time>2026-05-01T14:06:22Z</time></trkpt><trkpt lat="44.1164515444825" lon="15.227877231410107"><ele>1.9999999999999998</ele><time>2026-05-01T14:06:23Z</time></trkpt><trkpt lat="44.11650502654706" lon="15.22777681250413"><ele>2.0</ele><time>2026-05-01T14:06:24Z</time></trkpt><trkpt lat="44.11655102706353" lon="15.227681049043925"><ele>1.8</ele><time>2026-05-01T14:06:25Z</time></trkpt><trkpt lat="44.116595087564406" lon="15.227609416229436"><ele>1.6</ele><time>2026-05-01T14:06:26Z</time></trkpt><trkpt lat="44.11664352849795" lon="15.227518478149415"><ele>1.4000000000000001</ele><time>2026-05-01T14:06:28Z</time></trkpt><trkpt lat="44.11668913727871" lon="15.227436992607917"><ele>1.2000000000000002</ele><time>2026-05-01T14:06:36Z</time></trkpt><trkpt lat="44.11674364885263" lon="15.227322759659272"><ele>1.0</ele><time>2026-05-01T14:06:38Z</time></trkpt><trkpt lat="44.11681811520151" lon="15.227173682223755"><ele>0.8333333333333333</ele><time>2026-05-01T14:06:40Z</time></trkpt><trkpt lat="44.11685476802578" lon="15.22709303790934"><ele>0.6666666666666666</ele><time>2026-05-01T14:06:41Z</time></trkpt><trkpt lat="44.116888007896996" lon="15.227016093653944"><ele>0.5</ele><time>2026-05-01T14:06:42Z</time></trkpt><trkpt lat="44.11692531016881" lon="15.226938819204664"><ele>0.3333333333333333</ele><time>2026-05-01T14:06:43Z</time></trkpt><trkpt lat="44.116961890008895" lon="15.226863009636961"><ele>0.16666666666666666</ele><time>2026-05-01T14:06:44Z</time></trkpt><trkpt lat="44.117031934939384" lon="15.2267218322606"><ele>0.0</ele><time>2026-05-01T14:06:46Z</time></trkpt><trkpt lat="44.1171036782034" lon="15.226589661420727"><ele>0.4</ele><time>2026-05-01T14:06:48Z</time></trkpt><trkpt lat="44.117174585952725" lon="15.226456411629442"><ele>0.8</ele><time>2026-05-01T14:06:50Z</time></trkpt><trkpt lat="44.117231021353696" lon="15.226323704066635"><ele>1.2000000000000002</ele><time>2026-05-01T14:06:52Z</time></trkpt><trkpt lat="44.11729618652355" lon="15.226179738930991"><ele>1.6</ele><time>2026-05-01T14:06:54Z</time></trkpt><trkpt lat="44.11733909544074" lon="15.226095064191776"><ele>2.0</ele><time>2026-05-01T14:06:55Z</time></trkpt><trkpt lat="44.11738257727555" lon="15.226014168372009"><ele>1.857142857142857</ele><time>2026-05-01T14:06:56Z</time></trkpt><trkpt lat="44.117423105372055" lon="15.225935162842001"><ele>1.714285714285714</ele><time>2026-05-01T14:06:57Z</time></trkpt><trkpt lat="44.117456661310925" lon="15.225860452672245"><ele>1.5714285714285714</ele><time>2026-05-01T14:06:58Z</time></trkpt><trkpt lat="44.11749249378604" lon="15.225777103958011"><ele>1.4285714285714284</ele><time>2026-05-01T14:06:59Z</time></trkpt><trkpt lat="44.117528595307064" lon="15.225695808854768"><ele>1.2857142857142856</ele><time>2026-05-01T14:07:00Z</time></trkpt><trkpt lat="44.11756363424913" lon="15.225616592908995"><ele>1.1428571428571428</ele><time>2026-05-01T14:07:01Z</time></trkpt><trkpt lat="44.11760047798997" lon="15.225540206279412"><ele>1.0</ele><time>2026-05-01T14:07:02Z</time></trkpt><trkpt lat="44.117634494305456" lon="15.225464195727223"><ele>1.2857142857142856</ele><time>2026-05-01T14:07:03Z</time></trkpt><trkpt lat="44.11766739415168" lon="15.225388597077743"><ele>1.5714285714285712</ele><time>2026-05-01T14:07:04Z</time></trkpt><trkpt lat="44.117699915416296" lon="15.2253128573343"><ele>1.857142857142857</ele><time>2026-05-01T14:07:05Z</time></trkpt><trkpt lat="44.117734475814125" lon="15.225235620685718"><ele>2.142857142857143</ele><time>2026-05-01T14:07:06Z</time></trkpt><trkpt lat="44.11776917556781" lon="15.225155630018437"><ele>2.4285714285714284</ele><time>2026-05-01T14:07:07Z</time></trkpt><trkpt lat="44.11780148472392" lon="15.225077257612792"><ele>2.714285714285714</ele><time>2026-05-01T14:07:08Z</time></trkpt><trkpt lat="44.11783601730746" lon="15.224997009053967"><ele>3.0</ele><time>2026-05-01T14:07:09Z</time></trkpt><trkpt lat="44.11787136179286" lon="15.224913457037498"><ele>3.0</ele><time>2026-05-01T14:07:10Z</time></trkpt><trkpt lat="44.11790692331097" lon="15.224828222616877"><ele>3.0</ele><time>2026-05-01T14:07:11Z</time></trkpt><trkpt lat="44.117939705924684" lon="15.224752573053898"><ele>3.0</ele><time>2026-05-01T14:07:12Z</time></trkpt><trkpt lat="44.11798918470261" lon="15.224625826876844"><ele>3.0</ele><time>2026-05-01T14:07:14Z</time></trkpt><trkpt lat="44.11804066941489" lon="15.22449777198507"><ele>3.0</ele><time>2026-05-01T14:07:16Z</time></trkpt><trkpt lat="44.11807427621807" lon="15.224421572959177"><ele>3.0</ele><time>2026-05-01T14:07:17Z</time></trkpt><trkpt lat="44.11811575992709" lon="15.224332878365265"><ele>3.1666666666666665</ele><time>2026-05-01T14:07:18Z</time></trkpt><trkpt lat="44.11815470999667" lon="15.224240534659812"><ele>3.333333333333333</ele><time>2026-05-01T14:07:19Z</time></trkpt><trkpt lat="44.1181947767288" lon="15.22414627872435"><ele>3.5</ele><time>2026-05-01T14:07:20Z</time></trkpt><trkpt lat="44.11824033818714" lon="15.224041623924304"><ele>3.6666666666666665</ele><time>2026-05-01T14:07:21Z</time></trkpt><trkpt lat="44.11828565007203" lon="15.223933108514979"><ele>3.833333333333333</ele><time>2026-05-01T14:07:22Z</time></trkpt><trkpt lat="44.11834205290863" lon="15.223823247294831"><ele>4.0</ele><time>2026-05-01T14:07:23Z</time></trkpt><trkpt lat="44.11839047452367" lon="15.223706111675014"><ele>4.6</ele><time>2026-05-01T14:07:24Z</time></trkpt><trkpt lat="44.11845218955192" lon="15.223583488123422"><ele>5.2</ele><time>2026-05-01T14:07:25Z</time></trkpt><trkpt lat="44.118494387363" lon="15.223463611302446"><ele>5.799999999999999</ele><time>2026-05-01T14:07:26Z</time></trkpt><trkpt lat="44.1185375349517" lon="15.223352139791785"><ele>6.3999999999999995</ele><time>2026-05-01T14:07:27Z</time></trkpt><trkpt lat="44.11856437537075" lon="15.22323381006512"><ele>7.0</ele><time>2026-05-01T14:07:28Z</time></trkpt><trkpt lat="44.11859202630549" lon="15.22311566506576"><ele>7.0</ele><time>2026-05-01T14:07:29Z</time></trkpt><trkpt lat="44.118620849854395" lon="15.223015223934059"><ele>7.0</ele><time>2026-05-01T14:07:30Z</time></trkpt><trkpt lat="44.11864541451693" lon="15.22291224712568"><ele>7.0</ele><time>2026-05-01T14:07:31Z</time></trkpt><trkpt lat="44.118671884348664" lon="15.222813317822334"><ele>7.0</ele><time>2026-05-01T14:07:32Z</time></trkpt><trkpt lat="44.11870071459582" lon="15.222710407676548"><ele>7.0</ele><time>2026-05-01T14:07:33Z</time></trkpt><trkpt lat="44.118725266193735" lon="15.222615186721903"><ele>7.0</ele><time>2026-05-01T14:07:34Z</time></trkpt><trkpt lat="44.11874645836624" lon="15.222531729073868"><ele>7.0</ele><time>2026-05-01T14:07:35Z</time></trkpt><trkpt lat="44.1187835335379" lon="15.22239116820672"><ele>6.000000000000001</ele><time>2026-05-01T14:07:37Z</time></trkpt><trkpt lat="44.11880624293735" lon="15.22226913363381"><ele>5.0</ele><time>2026-05-01T14:07:39Z</time></trkpt><trkpt lat="44.118819350039715" lon="15.222181939889879"><ele>4.0</ele><time>2026-05-01T14:07:41Z</time></trkpt><trkpt lat="44.11882262291788" lon="15.22208991045499"><ele>3.0</ele><time>2026-05-01T14:07:43Z</time></trkpt><trkpt lat="44.11878877085443" lon="15.221989771005772"><ele>2.0</ele><time>2026-05-01T14:07:45Z</time></trkpt><trkpt lat="44.11872750671932" lon="15.221910443786365"><ele>1.0</ele><time>2026-05-01T14:07:47Z</time></trkpt><trkpt lat="44.11866250360112" lon="15.221828583451702"><ele>0.9999999999999999</ele><time>2026-05-01T14:07:49Z</time></trkpt><trkpt lat="44.11860492886622" lon="15.221754671955708"><ele>1.0</ele><time>2026-05-01T14:07:51Z</time></trkpt><trkpt lat="44.11853874480096" lon="15.221669415597113"><ele>1.0</ele><time>2026-05-01T14:07:55Z</time></trkpt><trkpt lat="44.118487981676985" lon="15.221604022137697"><ele>1.0</ele><time>2026-05-01T14:07:57Z</time></trkpt><trkpt lat="44.11842265865662" lon="15.221519957019584"><ele>0.9999999999999999</ele><time>2026-05-01T14:07:59Z</time></trkpt><trkpt lat="44.11835031538063" lon="15.221427904922049"><ele>1.0</ele><time>2026-05-01T14:08:01Z</time></trkpt><trkpt lat="44.11826564878945" lon="15.221334768649292"><ele>1.6</ele><time>2026-05-01T14:08:03Z</time></trkpt><trkpt lat="44.11819501802939" lon="15.221241927125199"><ele>2.2</ele><time>2026-05-01T14:08:05Z</time></trkpt><trkpt lat="44.11812114490103" lon="15.221152982463613"><ele>2.8000000000000003</ele><time>2026-05-01T14:08:07Z</time></trkpt><trkpt lat="44.11804598649152" lon="15.2210540864639"><ele>3.4000000000000004</ele><time>2026-05-01T14:08:09Z</time></trkpt><trkpt lat="44.11796678756238" lon="15.22095475951506"><ele>4.0</ele><time>2026-05-01T14:08:11Z</time></trkpt><trkpt lat="44.11788851431208" lon="15.220856824576035"><ele>4.0</ele><time>2026-05-01T14:08:13Z</time></trkpt><trkpt lat="44.11781016688959" lon="15.220753007715665"><ele>4.0</ele><time>2026-05-01T14:08:15Z</time></trkpt><trkpt lat="44.11777433889516" lon="15.220620934277896"><ele>4.0</ele><time>2026-05-01T14:08:17Z</time></trkpt><trkpt lat="44.11778114376136" lon="15.220495095115403"><ele>4.0</ele><time>2026-05-01T14:08:19Z</time></trkpt><trkpt lat="44.11778499625883" lon="15.220391231327014"><ele>4.0</ele><time>2026-05-01T14:08:21Z</time></trkpt><trkpt lat="44.11771251649707" lon="15.220323249066148"><ele>4.0</ele><time>2026-05-01T14:08:24Z</time></trkpt><trkpt lat="44.11762177269793" lon="15.220365188975599"><ele>4.0</ele><time>2026-05-01T14:08:27Z</time></trkpt><trkpt lat="44.11759181277207" lon="15.220457764063015"><ele>4.0</ele><time>2026-05-01T14:08:29Z</time></trkpt><trkpt lat="44.11762152662518" lon="15.220569770264795"><ele>4.0</ele><time>2026-05-01T14:08:31Z</time></trkpt><trkpt lat="44.117697739751264" lon="15.220654830071197"><ele>4.0</ele><time>2026-05-01T14:08:33Z</time></trkpt><trkpt lat="44.11777549654096" lon="15.220744802971684"><ele>4.0</ele><time>2026-05-01T14:08:35Z</time></trkpt><trkpt lat="44.11785660364996" lon="15.220804937339258"><ele>4.0</ele><time>2026-05-01T14:08:37Z</time></trkpt><trkpt lat="44.11791828665991" lon="15.220929250907426"><ele>4.0</ele><time>2026-05-01T14:08:39Z</time></trkpt><trkpt lat="44.11799489672683" lon="15.221023196612094"><ele>4.0</ele><time>2026-05-01T14:08:41Z</time></trkpt><trkpt lat="44.118077348490054" lon="15.221131812786478"><ele>4.0</ele><time>2026-05-01T14:08:43Z</time></trkpt><trkpt lat="44.1181628189395" lon="15.22124172913373"><ele>3.4999999999999996</ele><time>2026-05-01T14:08:45Z</time></trkpt><trkpt lat="44.11825243212891" lon="15.221357692658925"><ele>3.0</ele><time>2026-05-01T14:08:47Z</time></trkpt><trkpt lat="44.1182976719418" lon="15.221420824194086"><ele>2.5</ele><time>2026-05-01T14:08:48Z</time></trkpt><trkpt lat="44.11834678583957" lon="15.22148720895091"><ele>2.0</ele><time>2026-05-01T14:08:49Z</time></trkpt><trkpt lat="44.11839932705944" lon="15.2215512728522"><ele>1.5</ele><time>2026-05-01T14:08:50Z</time></trkpt><trkpt lat="44.118451761700165" lon="15.22161545088212"><ele>1.0</ele><time>2026-05-01T14:08:51Z</time></trkpt><trkpt lat="44.11850242749478" lon="15.221679470068668"><ele>1.0</ele><time>2026-05-01T14:08:52Z</time></trkpt><trkpt lat="44.11857484603339" lon="15.221775470305923"><ele>1.0</ele><time>2026-05-01T14:08:54Z</time></trkpt><trkpt lat="44.118637173010114" lon="15.221854860295247"><ele>1.0</ele><time>2026-05-01T14:08:56Z</time></trkpt><trkpt lat="44.11870851580702" lon="15.221948544465292"><ele>1.0</ele><time>2026-05-01T14:08:58Z</time></trkpt><trkpt lat="44.11878078771783" lon="15.222069060129906"><ele>1.0</ele><time>2026-05-01T14:09:00Z</time></trkpt><trkpt lat="44.11879524412566" lon="15.222155349026169"><ele>1.0</ele><time>2026-05-01T14:09:01Z</time></trkpt><trkpt lat="44.118790887752986" lon="15.222253230169406"><ele>0.9999999999999999</ele><time>2026-05-01T14:09:02Z</time></trkpt><trkpt lat="44.118768393918984" lon="15.222347288649072"><ele>1.0</ele><time>2026-05-01T14:09:03Z</time></trkpt><trkpt lat="44.11873693815876" lon="15.22243651901122"><ele>1.0</ele><time>2026-05-01T14:09:04Z</time></trkpt><trkpt lat="44.11870936010424" lon="15.222525758831981"><ele>0.9999999999999999</ele><time>2026-05-01T14:09:05Z</time></trkpt><trkpt lat="44.11868409915919" lon="15.222612790987021"><ele>1.0</ele><time>2026-05-01T14:09:06Z</time></trkpt><trkpt lat="44.11866155402662" lon="15.22270735126981"><ele>1.0</ele><time>2026-05-01T14:09:07Z</time></trkpt><trkpt lat="44.11863471897136" lon="15.222795539473267"><ele>1.8571428571428572</ele><time>2026-05-01T14:09:08Z</time></trkpt><trkpt lat="44.11861063866292" lon="15.222883402393458"><ele>2.7142857142857144</ele><time>2026-05-01T14:09:09Z</time></trkpt><trkpt lat="44.118575989852964" lon="15.222970573084122"><ele>3.571428571428571</ele><time>2026-05-01T14:09:10Z</time></trkpt><trkpt lat="44.11855982687228" lon="15.223059534905675"><ele>4.428571428571429</ele><time>2026-05-01T14:09:11Z</time></trkpt><trkpt lat="44.11853859082224" lon="15.223144667878628"><ele>5.285714285714286</ele><time>2026-05-01T14:09:12Z</time></trkpt><trkpt lat="44.1185134248152" lon="15.223228198315441"><ele>6.142857142857143</ele><time>2026-05-01T14:09:13Z</time></trkpt><trkpt lat="44.1184930064254" lon="15.223311268041194"><ele>7.0</ele><time>2026-05-01T14:09:14Z</time></trkpt><trkpt lat="44.11846723305134" lon="15.223393162837057"><ele>7.0</ele><time>2026-05-01T14:09:15Z</time></trkpt><trkpt lat="44.11841936352817" lon="15.22354659459012"><ele>7.0</ele><time>2026-05-01T14:09:17Z</time></trkpt><trkpt lat="44.11836882118214" lon="15.223677118890652"><ele>7.0</ele><time>2026-05-01T14:09:19Z</time></trkpt><trkpt lat="44.118312770875605" lon="15.223802305455624"><ele>7.0</ele><time>2026-05-01T14:09:21Z</time></trkpt><trkpt lat="44.11824762468816" lon="15.223946766905565"><ele>6.500000000000001</ele><time>2026-05-01T14:09:23Z</time></trkpt><trkpt lat="44.118214150722594" lon="15.224021897925436"><ele>6.0</ele><time>2026-05-01T14:09:24Z</time></trkpt><trkpt lat="44.118176711479066" lon="15.224100352185465"><ele>5.5</ele><time>2026-05-01T14:09:25Z</time></trkpt><trkpt lat="44.11814162598865" lon="15.224181028633392"><ele>5.0</ele><time>2026-05-01T14:09:26Z</time></trkpt><trkpt lat="44.1180761678699" lon="15.224321217098105"><ele>4.5</ele><time>2026-05-01T14:09:28Z</time></trkpt><trkpt lat="44.11801396812876" lon="15.224446377292058"><ele>4.0</ele><time>2026-05-01T14:09:30Z</time></trkpt><trkpt lat="44.11795709582165" lon="15.224585010936421"><ele>4.0</ele><time>2026-05-01T14:09:32Z</time></trkpt><trkpt lat="44.117927695260136" lon="15.224662847007302"><ele>3.9999999999999996</ele><time>2026-05-01T14:09:33Z</time></trkpt><trkpt lat="44.11789204193286" lon="15.224744701087388"><ele>4.0</ele><time>2026-05-01T14:09:34Z</time></trkpt><trkpt lat="44.11785758681429" lon="15.224832091756161"><ele>4.0</ele><time>2026-05-01T14:09:35Z</time></trkpt><trkpt lat="44.117820741677846" lon="15.224922983355667"><ele>3.9999999999999996</ele><time>2026-05-01T14:09:36Z</time></trkpt><trkpt lat="44.11778493727912" lon="15.225011902110689"><ele>4.0</ele><time>2026-05-01T14:09:37Z</time></trkpt><trkpt lat="44.117748920169944" lon="15.225101385019356"><ele>4.0</ele><time>2026-05-01T14:09:38Z</time></trkpt><trkpt lat="44.1177127044837" lon="15.225180134069005"><ele>3.833333333333333</ele><time>2026-05-01T14:09:39Z</time></trkpt><trkpt lat="44.11765928690936" lon="15.22530790424197"><ele>3.6666666666666665</ele><time>2026-05-01T14:09:41Z</time></trkpt><trkpt lat="44.11761774276835" lon="15.22541279370323"><ele>3.5</ele><time>2026-05-01T14:09:43Z</time></trkpt><trkpt lat="44.117574311941446" lon="15.22550359520151"><ele>3.333333333333333</ele><time>2026-05-01T14:09:45Z</time></trkpt><trkpt lat="44.11752994531039" lon="15.22558694498774"><ele>3.1666666666666665</ele><time>2026-05-01T14:09:47Z</time></trkpt><trkpt lat="44.11749248504839" lon="15.225665011287864"><ele>3.0</ele><time>2026-05-01T14:09:49Z</time></trkpt><trkpt lat="44.117454512234325" lon="15.225744058971845"><ele>2.8333333333333335</ele><time>2026-05-01T14:09:51Z</time></trkpt><trkpt lat="44.11740600523398" lon="15.225833150281586"><ele>2.6666666666666665</ele><time>2026-05-01T14:10:00Z</time></trkpt><trkpt lat="44.11735170377199" lon="15.225947937586648"><ele>2.5</ele><time>2026-05-01T14:10:02Z</time></trkpt><trkpt lat="44.11728500862089" lon="15.226105605459521"><ele>2.333333333333333</ele><time>2026-05-01T14:10:04Z</time></trkpt><trkpt lat="44.11724629869393" lon="15.226180558257832"><ele>2.1666666666666665</ele><time>2026-05-01T14:10:05Z</time></trkpt><trkpt lat="44.11720501844832" lon="15.226256409294278"><ele>2.0</ele><time>2026-05-01T14:10:06Z</time></trkpt><trkpt lat="44.11717055509164" lon="15.226332051837161"><ele>2.0</ele><time>2026-05-01T14:10:07Z</time></trkpt><trkpt lat="44.11713138229266" lon="15.226411862344737"><ele>2.0</ele><time>2026-05-01T14:10:08Z</time></trkpt><trkpt lat="44.117089991144475" lon="15.226489008244663"><ele>2.0</ele><time>2026-05-01T14:10:09Z</time></trkpt><trkpt lat="44.117024092391596" lon="15.226627721385285"><ele>2.0</ele><time>2026-05-01T14:10:11Z</time></trkpt><trkpt lat="44.116955624177024" lon="15.226758512300977"><ele>2.0</ele><time>2026-05-01T14:10:13Z</time></trkpt><trkpt lat="44.11689449708811" lon="15.226913252717198"><ele>1.8</ele><time>2026-05-01T14:10:15Z</time></trkpt><trkpt lat="44.11686750126153" lon="15.227000729605843"><ele>1.6</ele><time>2026-05-01T14:10:16Z</time></trkpt><trkpt lat="44.11682262910275" lon="15.227087782918089"><ele>1.4000000000000001</ele><time>2026-05-01T14:10:17Z</time></trkpt><trkpt lat="44.11675880631948" lon="15.227196592588271"><ele>1.2000000000000002</ele><time>2026-05-01T14:10:18Z</time></trkpt><trkpt lat="44.11669912572743" lon="15.227319016399042"><ele>1.0</ele><time>2026-05-01T14:10:19Z</time></trkpt><trkpt lat="44.11662723474391" lon="15.227449624186782"><ele>1.5</ele><time>2026-05-01T14:10:20Z</time></trkpt><trkpt lat="44.11655185765805" lon="15.227577890138932"><ele>2.0</ele><time>2026-05-01T14:10:21Z</time></trkpt><trkpt lat="44.11648672567059" lon="15.227719573789996"><ele>2.5</ele><time>2026-05-01T14:10:22Z</time></trkpt><trkpt lat="44.116415952322136" lon="15.227849647420104"><ele>3.0</ele><time>2026-05-01T14:10:23Z</time></trkpt><trkpt lat="44.11635368627498" lon="15.227973733400113"><ele>3.0</ele><time>2026-05-01T14:10:24Z</time></trkpt><trkpt lat="44.116289168374735" lon="15.228080861823878"><ele>3.0</ele><time>2026-05-01T14:10:25Z</time></trkpt><trkpt lat="44.116216792046075" lon="15.228170647880999"><ele>3.0</ele><time>2026-05-01T14:10:26Z</time></trkpt><trkpt lat="44.11613733263434" lon="15.228247694380565"><ele>3.0</ele><time>2026-05-01T14:10:27Z</time></trkpt><trkpt lat="44.116035873253566" lon="15.228304006753563"><ele>3.0</ele><time>2026-05-01T14:10:28Z</time></trkpt><trkpt lat="44.11592934421437" lon="15.228358696251526"><ele>2.8</ele><time>2026-05-01T14:10:29Z</time></trkpt><trkpt lat="44.11582752498988" lon="15.228429029795016"><ele>2.5999999999999996</ele><time>2026-05-01T14:10:30Z</time></trkpt><trkpt lat="44.11573404610365" lon="15.228486111896297"><ele>2.4000000000000004</ele><time>2026-05-01T14:10:31Z</time></trkpt><trkpt lat="44.11564577781879" lon="15.228536429497568"><ele>2.2</ele><time>2026-05-01T14:10:32Z</time></trkpt><trkpt lat="44.11556888214616" lon="15.228580614503736"><ele>2.0</ele><time>2026-05-01T14:10:33Z</time></trkpt><trkpt lat="44.11550191411437" lon="15.228626085882155"><ele>1.8333333333333333</ele><time>2026-05-01T14:10:34Z</time></trkpt><trkpt lat="44.11543408863383" lon="15.228671973342003"><ele>1.6666666666666665</ele><time>2026-05-01T14:10:35Z</time></trkpt><trkpt lat="44.11537285606906" lon="15.228718586247524"><ele>1.5</ele><time>2026-05-01T14:10:36Z</time></trkpt><trkpt lat="44.11531209074425" lon="15.228771508672644"><ele>1.3333333333333333</ele><time>2026-05-01T14:10:37Z</time></trkpt><trkpt lat="44.11524086762304" lon="15.228828431974145"><ele>1.1666666666666665</ele><time>2026-05-01T14:10:38Z</time></trkpt><trkpt lat="44.11516913167831" lon="15.228900625407045"><ele>1.0</ele><time>2026-05-01T14:10:39Z</time></trkpt><trkpt lat="44.1150894194236" lon="15.228976387190315"><ele>1.0</ele><time>2026-05-01T14:10:40Z</time></trkpt><trkpt lat="44.115018971335424" lon="15.22907251245289"><ele>1.0</ele><time>2026-05-01T14:10:41Z</time></trkpt><trkpt lat="44.11494357242149" lon="15.229174078423412"><ele>1.0</ele><time>2026-05-01T14:10:42Z</time></trkpt><trkpt lat="44.11486330246064" lon="15.229280662298478"><ele>1.0</ele><time>2026-05-01T14:10:43Z</time></trkpt><trkpt lat="44.114780408915884" lon="15.229385475875386"><ele>1.0</ele><time>2026-05-01T14:10:44Z</time></trkpt><trkpt lat="44.11470009460655" lon="15.229493374328344"><ele>1.8</ele><time>2026-05-01T14:10:45Z</time></trkpt><trkpt lat="44.11462478292719" lon="15.229595083212944"><ele>2.6</ele><time>2026-05-01T14:10:46Z</time></trkpt><trkpt lat="44.11455016390989" lon="15.229695482672769"><ele>3.4</ele><time>2026-05-01T14:10:47Z</time></trkpt><trkpt lat="44.114477765850204" lon="15.22979268129489"><ele>4.2</ele><time>2026-05-01T14:10:48Z</time></trkpt><trkpt lat="44.11440435960932" lon="15.229888527710775"><ele>5.0</ele><time>2026-05-01T14:10:49Z</time></trkpt><trkpt lat="44.11433664350138" lon="15.229976445168424"><ele>5.333333333333334</ele><time>2026-05-01T14:10:50Z</time></trkpt><trkpt lat="44.11427089749959" lon="15.230062894198172"><ele>5.666666666666667</ele><time>2026-05-01T14:10:51Z</time></trkpt><trkpt lat="44.11420335353383" lon="15.230146384061378"><ele>6.0</ele><time>2026-05-01T14:10:52Z</time></trkpt><trkpt lat="44.114146916794795" lon="15.23021873019938"><ele>6.333333333333334</ele><time>2026-05-01T14:10:53Z</time></trkpt><trkpt lat="44.11408944172986" lon="15.230288119142395"><ele>6.666666666666667</ele><time>2026-05-01T14:10:54Z</time></trkpt><trkpt lat="44.11402814950987" lon="15.230350503471378"><ele>7.0</ele><time>2026-05-01T14:10:55Z</time></trkpt><trkpt lat="44.11395847890093" lon="15.230422042930764"><ele>7.3999999999999995</ele><time>2026-05-01T14:10:56Z</time></trkpt><trkpt lat="44.11387953340776" lon="15.230498360114074"><ele>7.799999999999999</ele><time>2026-05-01T14:10:57Z</time></trkpt><trkpt lat="44.11379573383427" lon="15.23058372736429"><ele>8.2</ele><time>2026-05-01T14:10:58Z</time></trkpt><trkpt lat="44.113697250808976" lon="15.230667499866591"><ele>8.6</ele><time>2026-05-01T14:10:59Z</time></trkpt><trkpt lat="44.113588588761736" lon="15.23074827290755"><ele>9.0</ele><time>2026-05-01T14:11:00Z</time></trkpt><trkpt lat="44.11347972323012" lon="15.230830007375458"><ele>9.0</ele><time>2026-05-01T14:11:01Z</time></trkpt><trkpt lat="44.11337492789898" lon="15.230906610978115"><ele>9.0</ele><time>2026-05-01T14:11:02Z</time></trkpt><trkpt lat="44.11327232918797" lon="15.23099758141228"><ele>9.0</ele><time>2026-05-01T14:11:03Z</time></trkpt><trkpt lat="44.113160857156345" lon="15.23108014303507"><ele>9.0</ele><time>2026-05-01T14:11:04Z</time></trkpt><trkpt lat="44.11305685986483" lon="15.231161315624155"><ele>9.0</ele><time>2026-05-01T14:11:05Z</time></trkpt><trkpt lat="44.11295683641951" lon="15.231251514776755"><ele>9.0</ele><time>2026-05-01T14:11:06Z</time></trkpt><trkpt lat="44.11286008215362" lon="15.231330210836905"><ele>9.0</ele><time>2026-05-01T14:11:07Z</time></trkpt><trkpt lat="44.11276444188994" lon="15.23140364233291"><ele>9.0</ele><time>2026-05-01T14:11:08Z</time></trkpt><trkpt lat="44.112667467217406" lon="15.23147532137141"><ele>9.6</ele><time>2026-05-01T14:11:09Z</time></trkpt><trkpt lat="44.11257808513265" lon="15.23154972659257"><ele>10.2</ele><time>2026-05-01T14:11:10Z</time></trkpt><trkpt lat="44.1124923189868" lon="15.231621168625427"><ele>10.799999999999999</ele><time>2026-05-01T14:11:11Z</time></trkpt><trkpt lat="44.11240937394488" lon="15.231687281383397"><ele>11.4</ele><time>2026-05-01T14:11:12Z</time></trkpt><trkpt lat="44.11232682226727" lon="15.231757993379102"><ele>12.0</ele><time>2026-05-01T14:11:13Z</time></trkpt><trkpt lat="44.11224380712644" lon="15.231829100340603"><ele>12.0</ele><time>2026-05-01T14:11:14Z</time></trkpt><trkpt lat="44.11216208076018" lon="15.23189879201525"><ele>12.0</ele><time>2026-05-01T14:11:15Z</time></trkpt><trkpt lat="44.112077773952066" lon="15.23197734840753"><ele>12.0</ele><time>2026-05-01T14:11:16Z</time></trkpt><trkpt lat="44.11200667733582" lon="15.232073179618974"><ele>12.0</ele><time>2026-05-01T14:11:17Z</time></trkpt><trkpt lat="44.1119424312096" lon="15.232169743354598"><ele>12.0</ele><time>2026-05-01T14:11:18Z</time></trkpt><trkpt lat="44.11187720147351" lon="15.23226210936234"><ele>10.833333333333334</ele><time>2026-05-01T14:11:19Z</time></trkpt><trkpt lat="44.11181572293242" lon="15.232353994506806"><ele>9.666666666666666</ele><time>2026-05-01T14:11:20Z</time></trkpt><trkpt lat="44.11175827676976" lon="15.232446485523603"><ele>8.5</ele><time>2026-05-01T14:11:21Z</time></trkpt><trkpt lat="44.11170537760667" lon="15.232532603703355"><ele>7.333333333333334</ele><time>2026-05-01T14:11:22Z</time></trkpt><trkpt lat="44.111655639326955" lon="15.23260557159491"><ele>6.166666666666667</ele><time>2026-05-01T14:11:23Z</time></trkpt><trkpt lat="44.11160812790644" lon="15.232670158798548"><ele>5.0</ele><time>2026-05-01T14:11:24Z</time></trkpt><trkpt lat="44.11156480616762" lon="15.232735394483475"><ele>5.0</ele><time>2026-05-01T14:11:25Z</time></trkpt><trkpt lat="44.11151681892837" lon="15.232801792170772"><ele>5.0</ele><time>2026-05-01T14:11:26Z</time></trkpt><trkpt lat="44.1114726598597" lon="15.23287182363849"><ele>5.0</ele><time>2026-05-01T14:11:27Z</time></trkpt><trkpt lat="44.11139322500893" lon="15.232999373751124"><ele>5.0</ele><time>2026-05-01T14:11:29Z</time></trkpt><trkpt lat="44.11132331003301" lon="15.233118893870913"><ele>5.0</ele><time>2026-05-01T14:11:31Z</time></trkpt><trkpt lat="44.11126451184741" lon="15.233208994788558"><ele>4.666666666666667</ele><time>2026-05-01T14:11:33Z</time></trkpt><trkpt lat="44.11121132239553" lon="15.233297892858847"><ele>4.333333333333334</ele><time>2026-05-01T14:11:36Z</time></trkpt><trkpt lat="44.11117184179236" lon="15.233379646450299"><ele>4.0</ele><time>2026-05-01T14:11:40Z</time></trkpt><trkpt lat="44.11112268074555" lon="15.233468429906997"><ele>3.666666666666667</ele><time>2026-05-01T14:11:44Z</time></trkpt><trkpt lat="44.11105923853411" lon="15.233560562748051"><ele>3.3333333333333335</ele><time>2026-05-01T14:11:59Z</time></trkpt><trkpt lat="44.111012418300255" lon="15.233635264817023"><ele>3.0</ele><time>2026-05-01T14:12:01Z</time></trkpt><trkpt lat="44.11095802302965" lon="15.233713921546"><ele>3.0</ele><time>2026-05-01T14:12:03Z</time></trkpt><trkpt lat="44.1109118005946" lon="15.233783933492797"><ele>3.0</ele><time>2026-05-01T14:12:05Z</time></trkpt><trkpt lat="44.110860363236775" lon="15.23385767986931"><ele>3.0</ele><time>2026-05-01T14:12:08Z</time></trkpt><trkpt lat="44.11076543142397" lon="15.233821501950379"><ele>3.0</ele><time>2026-05-01T14:12:09Z</time></trkpt><trkpt lat="44.11066315855689" lon="15.233744315878063"><ele>3.0</ele><time>2026-05-01T14:12:11Z</time></trkpt><trkpt lat="44.11059760849406" lon="15.233714782021742"><ele>3.0</ele><time>2026-05-01T14:12:12Z</time></trkpt><trkpt lat="44.11052460370463" lon="15.233686379456053"><ele>2.9999999999999996</ele><time>2026-05-01T14:12:13Z</time></trkpt><trkpt lat="44.11044862723492" lon="15.233655274212873"><ele>3.0</ele><time>2026-05-01T14:12:14Z</time></trkpt><trkpt lat="44.110376721859254" lon="15.233626673049788"><ele>3.0</ele><time>2026-05-01T14:12:15Z</time></trkpt><trkpt lat="44.11031125522602" lon="15.233597317420177"><ele>3.0</ele><time>2026-05-01T14:12:16Z</time></trkpt><trkpt lat="44.11024622096282" lon="15.233564537478738"><ele>3.0</ele><time>2026-05-01T14:12:17Z</time></trkpt><trkpt lat="44.11017626058899" lon="15.233526000569166"><ele>2.9999999999999996</ele><time>2026-05-01T14:12:18Z</time></trkpt><trkpt lat="44.110103932429524" lon="15.23348796102717"><ele>3.0</ele><time>2026-05-01T14:12:19Z</time></trkpt><trkpt lat="44.11003166581087" lon="15.233454635889805"><ele>3.0</ele><time>2026-05-01T14:12:20Z</time></trkpt><trkpt lat="44.10996126319691" lon="15.233404995576768"><ele>3.0</ele><time>2026-05-01T14:12:21Z</time></trkpt><trkpt lat="44.10988371629855" lon="15.23335189570234"><ele>3.0</ele><time>2026-05-01T14:12:22Z</time></trkpt><trkpt lat="44.10979868095467" lon="15.23329924613768"><ele>3.0</ele><time>2026-05-01T14:12:23Z</time></trkpt><trkpt lat="44.109709836136595" lon="15.233247963911872"><ele>3.0</ele><time>2026-05-01T14:12:24Z</time></trkpt><trkpt lat="44.10962026145496" lon="15.233234619623065"><ele>3.0</ele><time>2026-05-01T14:12:25Z</time></trkpt><trkpt lat="44.1095433235013" lon="15.233191651799913"><ele>3.1666666666666665</ele><time>2026-05-01T14:12:26Z</time></trkpt><trkpt lat="44.109444130824315" lon="15.233135377809196"><ele>3.333333333333333</ele><time>2026-05-01T14:12:28Z</time></trkpt><trkpt lat="44.10935996761314" lon="15.23312598904085"><ele>3.5</ele><time>2026-05-01T14:12:31Z</time></trkpt><trkpt lat="44.10928211410294" lon="15.233097498681648"><ele>3.6666666666666665</ele><time>2026-05-01T14:12:35Z</time></trkpt><trkpt lat="44.10920487275453" lon="15.23305025095796"><ele>3.833333333333333</ele><time>2026-05-01T14:12:51Z</time></trkpt><trkpt lat="44.10914674862096" lon="15.233010936626279"><ele>4.0</ele><time>2026-05-01T14:12:52Z</time></trkpt><trkpt lat="44.10907775600603" lon="15.232984525258647"><ele>4.2</ele><time>2026-05-01T14:12:53Z</time></trkpt><trkpt lat="44.108984347335024" lon="15.23295500032268"><ele>4.4</ele><time>2026-05-01T14:12:54Z</time></trkpt><trkpt lat="44.108887677005136" lon="15.232975294104707"><ele>4.6</ele><time>2026-05-01T14:12:55Z</time></trkpt><trkpt lat="44.10879848630675" lon="15.233036417851517"><ele>4.8</ele><time>2026-05-01T14:12:56Z</time></trkpt><trkpt lat="44.10873558324576" lon="15.23318661896651"><ele>5.0</ele><time>2026-05-01T14:12:57Z</time></trkpt><trkpt lat="44.10866924886283" lon="15.233310843062542"><ele>5.4</ele><time>2026-05-01T14:12:58Z</time></trkpt><trkpt lat="44.108608961451154" lon="15.233430156730785"><ele>5.8</ele><time>2026-05-01T14:12:59Z</time></trkpt><trkpt lat="44.10854856007227" lon="15.233549822295887"><ele>6.199999999999999</ele><time>2026-05-01T14:13:00Z</time></trkpt><trkpt lat="44.10848433773704" lon="15.233668861356183"><ele>6.6</ele><time>2026-05-01T14:13:01Z</time></trkpt><trkpt lat="44.108427992051816" lon="15.23377900116391"><ele>7.0</ele><time>2026-05-01T14:13:02Z</time></trkpt><trkpt lat="44.108377105276546" lon="15.233910897635454"><ele>6.75</ele><time>2026-05-01T14:13:03Z</time></trkpt><trkpt lat="44.10829673700008" lon="15.234039979122244"><ele>6.5</ele><time>2026-05-01T14:13:04Z</time></trkpt><trkpt lat="44.10821775373889" lon="15.234170428544934"><ele>6.25</ele><time>2026-05-01T14:13:05Z</time></trkpt><trkpt lat="44.10813177844869" lon="15.234305116591768"><ele>6.0</ele><time>2026-05-01T14:13:06Z</time></trkpt><trkpt lat="44.108041179483074" lon="15.234437175682029"><ele>6.5</ele><time>2026-05-01T14:13:07Z</time></trkpt><trkpt lat="44.10794643477678" lon="15.234573322483705"><ele>7.0</ele><time>2026-05-01T14:13:08Z</time></trkpt><trkpt lat="44.107856336642335" lon="15.234699538765401"><ele>7.5</ele><time>2026-05-01T14:13:09Z</time></trkpt><trkpt lat="44.10775707733527" lon="15.234838482823248"><ele>8.0</ele><time>2026-05-01T14:13:10Z</time></trkpt><trkpt lat="44.10765554400549" lon="15.234981003501535"><ele>8.0</ele><time>2026-05-01T14:13:11Z</time></trkpt><trkpt lat="44.107553418323064" lon="15.23512379326525"><ele>8.0</ele><time>2026-05-01T14:13:12Z</time></trkpt><trkpt lat="44.10744515512491" lon="15.235266842146562"><ele>8.0</ele><time>2026-05-01T14:13:13Z</time></trkpt><trkpt lat="44.10733438337411" lon="15.235393371270673"><ele>8.0</ele><time>2026-05-01T14:13:14Z</time></trkpt><trkpt lat="44.1072120747109" lon="15.235519697524188"><ele>8.0</ele><time>2026-05-01T14:13:15Z</time></trkpt><trkpt lat="44.107084497584374" lon="15.235642821189902"><ele>8.0</ele><time>2026-05-01T14:13:16Z</time></trkpt><trkpt lat="44.106960762000135" lon="15.235761177060056"><ele>8.0</ele><time>2026-05-01T14:13:17Z</time></trkpt><trkpt lat="44.1068399688471" lon="15.235876718434087"><ele>8.0</ele><time>2026-05-01T14:13:18Z</time></trkpt><trkpt lat="44.10672110776482" lon="15.23598925190163"><ele>8.0</ele><time>2026-05-01T14:13:19Z</time></trkpt><trkpt lat="44.10660546112541" lon="15.2360981080749"><ele>8.0</ele><time>2026-05-01T14:13:20Z</time></trkpt><trkpt lat="44.10649573626125" lon="15.236201716224238"><ele>8.0</ele><time>2026-05-01T14:13:21Z</time></trkpt><trkpt lat="44.10640170412655" lon="15.236308598759543"><ele>7.999999999999999</ele><time>2026-05-01T14:13:22Z</time></trkpt><trkpt lat="44.106313498879196" lon="15.23639556680128"><ele>8.0</ele><time>2026-05-01T14:13:23Z</time></trkpt><trkpt lat="44.10623702418969" lon="15.236467270963354"><ele>8.0</ele><time>2026-05-01T14:13:24Z</time></trkpt><trkpt lat="44.10617110999231" lon="15.236528423587483"><ele>8.0</ele><time>2026-05-01T14:13:25Z</time></trkpt><trkpt lat="44.106108709923035" lon="15.236585942166112"><ele>7.999999999999999</ele><time>2026-05-01T14:13:26Z</time></trkpt><trkpt lat="44.106050565517855" lon="15.236639428129697"><ele>8.0</ele><time>2026-05-01T14:13:27Z</time></trkpt><trkpt lat="44.10599448146795" lon="15.236690594502576"><ele>7.999999999999999</ele><time>2026-05-01T14:13:28Z</time></trkpt><trkpt lat="44.105933777899175" lon="15.236747456014381"><ele>8.0</ele><time>2026-05-01T14:13:29Z</time></trkpt><trkpt lat="44.10587261945109" lon="15.236814017757894"><ele>8.0</ele><time>2026-05-01T14:13:30Z</time></trkpt><trkpt lat="44.10581820683273" lon="15.236890164650905"><ele>8.0</ele><time>2026-05-01T14:13:31Z</time></trkpt><trkpt lat="44.10575976787232" lon="15.236970962112023"><ele>7.999999999999999</ele><time>2026-05-01T14:13:32Z</time></trkpt><trkpt lat="44.10576924810992" lon="15.237131211860149"><ele>8.0</ele><time>2026-05-01T14:13:33Z</time></trkpt><trkpt lat="44.10578199123898" lon="15.237271971253321"><ele>8.25</ele><time>2026-05-01T14:13:34Z</time></trkpt><trkpt lat="44.105809307564485" lon="15.23742093832194"><ele>8.5</ele><time>2026-05-01T14:13:35Z</time></trkpt><trkpt lat="44.10582553799034" lon="15.23757449311031"><ele>8.75</ele><time>2026-05-01T14:13:36Z</time></trkpt><trkpt lat="44.10586013298708" lon="15.23772529167115"><ele>9.0</ele><time>2026-05-01T14:13:37Z</time></trkpt><trkpt lat="44.10589292356471" lon="15.237907401822701"><ele>9.0</ele><time>2026-05-01T14:13:38Z</time></trkpt><trkpt lat="44.1059371198319" lon="15.238071828940976"><ele>9.0</ele><time>2026-05-01T14:13:39Z</time></trkpt><trkpt lat="44.10598187375242" lon="15.238239737421186"><ele>9.0</ele><time>2026-05-01T14:13:40Z</time></trkpt><trkpt lat="44.10602825590895" lon="15.23840862767056"><ele>9.0</ele><time>2026-05-01T14:13:41Z</time></trkpt><trkpt lat="44.106072181714886" lon="15.238576757250407"><ele>8.25</ele><time>2026-05-01T14:13:42Z</time></trkpt><trkpt lat="44.106113443629546" lon="15.238746807970847"><ele>7.5</ele><time>2026-05-01T14:13:43Z</time></trkpt><trkpt lat="44.106153165177695" lon="15.238920634684233"><ele>6.75</ele><time>2026-05-01T14:13:44Z</time></trkpt><trkpt lat="44.10619335930767" lon="15.239098688116904"><ele>6.0</ele><time>2026-05-01T14:13:45Z</time></trkpt><trkpt lat="44.106236122375634" lon="15.239278488306189"><ele>5.75</ele><time>2026-05-01T14:13:46Z</time></trkpt><trkpt lat="44.106281603015894" lon="15.23945639944256"><ele>5.5</ele><time>2026-05-01T14:13:47Z</time></trkpt><trkpt lat="44.10632982249343" lon="15.239641840223015"><ele>5.25</ele><time>2026-05-01T14:13:48Z</time></trkpt><trkpt lat="44.10638622055264" lon="15.239821495501703"><ele>5.0</ele><time>2026-05-01T14:13:49Z</time></trkpt><trkpt lat="44.106445391992295" lon="15.239994684376606"><ele>5.0</ele><time>2026-05-01T14:13:50Z</time></trkpt><trkpt lat="44.10650577631611" lon="15.240167850015142"><ele>5.0</ele><time>2026-05-01T14:13:51Z</time></trkpt><trkpt lat="44.10657352091635" lon="15.240344492040748"><ele>5.0</ele><time>2026-05-01T14:13:52Z</time></trkpt><trkpt lat="44.10663997860973" lon="15.240503940582965"><ele>5.0</ele><time>2026-05-01T14:13:53Z</time></trkpt><trkpt lat="44.10669773579128" lon="15.24065649039018"><ele>5.0</ele><time>2026-05-01T14:13:54Z</time></trkpt><trkpt lat="44.106750334061196" lon="15.240781749954476"><ele>5.0</ele><time>2026-05-01T14:13:55Z</time></trkpt><trkpt lat="44.106799017168115" lon="15.240904294112545"><ele>5.0</ele><time>2026-05-01T14:13:56Z</time></trkpt><trkpt lat="44.106846910703034" lon="15.241021683775429"><ele>5.0</ele><time>2026-05-01T14:13:57Z</time></trkpt><trkpt lat="44.10688722519921" lon="15.241133618731299"><ele>5.0</ele><time>2026-05-01T14:13:58Z</time></trkpt><trkpt lat="44.10692363594693" lon="15.241238546876861"><ele>5.0</ele><time>2026-05-01T14:13:59Z</time></trkpt><trkpt lat="44.10697097833467" lon="15.241321000344593"><ele>5.0</ele><time>2026-05-01T14:14:00Z</time></trkpt><trkpt lat="44.10699610424492" lon="15.2414232751496"><ele>5.0</ele><time>2026-05-01T14:14:01Z</time></trkpt><trkpt lat="44.10704434275967" lon="15.241504734190434"><ele>5.0</ele><time>2026-05-01T14:14:02Z</time></trkpt><trkpt lat="44.10706871659255" lon="15.24160402813736"><ele>5.0</ele><time>2026-05-01T14:14:03Z</time></trkpt><trkpt lat="44.10710867416213" lon="15.241699550119618"><ele>5.0</ele><time>2026-05-01T14:14:04Z</time></trkpt><trkpt lat="44.10714843396565" lon="15.241794010504453"><ele>5.0</ele><time>2026-05-01T14:14:05Z</time></trkpt><trkpt lat="44.10718458427666" lon="15.241884152933153"><ele>5.0</ele><time>2026-05-01T14:14:06Z</time></trkpt><trkpt lat="44.10724011410859" lon="15.242025411247381"><ele>5.0</ele><time>2026-05-01T14:14:08Z</time></trkpt><trkpt lat="44.10726281348391" lon="15.242141482039479"><ele>5.0</ele><time>2026-05-01T14:14:10Z</time></trkpt><trkpt lat="44.10724539821901" lon="15.242277530643348"><ele>5.0</ele><time>2026-05-01T14:14:12Z</time></trkpt><trkpt lat="44.107200310220534" lon="15.242366337729875"><ele>5.2</ele><time>2026-05-01T14:14:13Z</time></trkpt><trkpt lat="44.107131939328795" lon="15.242461350589172"><ele>5.4</ele><time>2026-05-01T14:14:14Z</time></trkpt><trkpt lat="44.107058372177804" lon="15.24254952582519"><ele>5.6</ele><time>2026-05-01T14:14:15Z</time></trkpt><trkpt lat="44.106979781288565" lon="15.242632681065835"><ele>5.8</ele><time>2026-05-01T14:14:16Z</time></trkpt><trkpt lat="44.10689614911524" lon="15.24271951993355"><ele>6.0</ele><time>2026-05-01T14:14:17Z</time></trkpt><trkpt lat="44.10680475459027" lon="15.242818877304904"><ele>6.0</ele><time>2026-05-01T14:14:18Z</time></trkpt><trkpt lat="44.106695209243654" lon="15.242939596980793"><ele>6.0</ele><time>2026-05-01T14:14:19Z</time></trkpt><trkpt lat="44.106568565091024" lon="15.243079566981217"><ele>6.0</ele><time>2026-05-01T14:14:20Z</time></trkpt><trkpt lat="44.106441454237824" lon="15.24321592800845"><ele>5.5</ele><time>2026-05-01T14:14:21Z</time></trkpt><trkpt lat="44.10631527204288" lon="15.243342711562175"><ele>5.0</ele><time>2026-05-01T14:14:22Z</time></trkpt><trkpt lat="44.10619269020757" lon="15.24345488515649"><ele>4.5</ele><time>2026-05-01T14:14:23Z</time></trkpt><trkpt lat="44.106083150760114" lon="15.243555018846317"><ele>4.0</ele><time>2026-05-01T14:14:24Z</time></trkpt><trkpt lat="44.10598028568638" lon="15.243652487872305"><ele>4.0</ele><time>2026-05-01T14:14:25Z</time></trkpt><trkpt lat="44.10587879884869" lon="15.243744177343434"><ele>4.0</ele><time>2026-05-01T14:14:26Z</time></trkpt><trkpt lat="44.10578605441412" lon="15.243829938741738"><ele>4.0</ele><time>2026-05-01T14:14:27Z</time></trkpt><trkpt lat="44.10569965555057" lon="15.2439128435343"><ele>4.0</ele><time>2026-05-01T14:14:28Z</time></trkpt><trkpt lat="44.10561388179805" lon="15.243998356032627"><ele>4.0</ele><time>2026-05-01T14:14:29Z</time></trkpt><trkpt lat="44.105526060052306" lon="15.244097237420412"><ele>3.5</ele><time>2026-05-01T14:14:30Z</time></trkpt><trkpt lat="44.10543243582795" lon="15.244194222213682"><ele>3.0</ele><time>2026-05-01T14:14:31Z</time></trkpt><trkpt lat="44.10534418802874" lon="15.244281069709697"><ele>2.5</ele><time>2026-05-01T14:14:32Z</time></trkpt><trkpt lat="44.10525366352529" lon="15.244369042927389"><ele>2.0</ele><time>2026-05-01T14:14:33Z</time></trkpt><trkpt lat="44.10515807893817" lon="15.244464824169777"><ele>2.0</ele><time>2026-05-01T14:14:34Z</time></trkpt><trkpt lat="44.10506753994258" lon="15.244556654908758"><ele>2.0</ele><time>2026-05-01T14:14:35Z</time></trkpt><trkpt lat="44.104968603416246" lon="15.244660461037604"><ele>2.0</ele><time>2026-05-01T14:14:36Z</time></trkpt><trkpt lat="44.104853282909296" lon="15.24477190477089"><ele>2.0</ele><time>2026-05-01T14:14:37Z</time></trkpt><trkpt lat="44.1047278393284" lon="15.244895790016077"><ele>2.0</ele><time>2026-05-01T14:14:38Z</time></trkpt><trkpt lat="44.10459581644017" lon="15.245007817614113"><ele>2.0</ele><time>2026-05-01T14:14:39Z</time></trkpt><trkpt lat="44.10447653348659" lon="15.245120531161083"><ele>2.0</ele><time>2026-05-01T14:14:40Z</time></trkpt><trkpt lat="44.10436397284836" lon="15.245231130541885"><ele>2.0</ele><time>2026-05-01T14:14:41Z</time></trkpt><trkpt lat="44.10425847851779" lon="15.245335120681727"><ele>2.0</ele><time>2026-05-01T14:14:42Z</time></trkpt><trkpt lat="44.10414517470792" lon="15.24545044451579"><ele>2.0</ele><time>2026-05-01T14:14:43Z</time></trkpt><trkpt lat="44.10402419149591" lon="15.245585365285587"><ele>2.0</ele><time>2026-05-01T14:14:44Z</time></trkpt><trkpt lat="44.103904070424186" lon="15.24570662733423"><ele>2.0</ele><time>2026-05-01T14:14:45Z</time></trkpt><trkpt lat="44.10379684851368" lon="15.245809388258035"><ele>1.6666666666666665</ele><time>2026-05-01T14:14:46Z</time></trkpt><trkpt lat="44.103713432516" lon="15.24588829691646"><ele>1.3333333333333333</ele><time>2026-05-01T14:14:47Z</time></trkpt><trkpt lat="44.10364612770328" lon="15.245945661103425"><ele>1.0</ele><time>2026-05-01T14:14:48Z</time></trkpt><trkpt lat="44.10358617817327" lon="15.245999482884695"><ele>0.6666666666666666</ele><time>2026-05-01T14:14:50Z</time></trkpt><trkpt lat="44.103499825320434" lon="15.246076141861382"><ele>0.3333333333333333</ele><time>2026-05-01T14:15:15Z</time></trkpt><trkpt lat="44.103436522414015" lon="15.246130385588865"><ele>0.0</ele><time>2026-05-01T14:15:16Z</time></trkpt><trkpt lat="44.103363150390955" lon="15.246210432044373"><ele>0.0</ele><time>2026-05-01T14:15:17Z</time></trkpt><trkpt lat="44.103277964986354" lon="15.246311204814251"><ele>0.0</ele><time>2026-05-01T14:15:18Z</time></trkpt><trkpt lat="44.103187901799366" lon="15.24641555967134"><ele>0.0</ele><time>2026-05-01T14:15:19Z</time></trkpt><trkpt lat="44.103097289500774" lon="15.246524864959989"><ele>0.0</ele><time>2026-05-01T14:15:20Z</time></trkpt><trkpt lat="44.10300665441155" lon="15.246653490608244"><ele>-0.25</ele><time>2026-05-01T14:15:21Z</time></trkpt><trkpt lat="44.10293093348416" lon="15.24679507432883"><ele>-0.5</ele><time>2026-05-01T14:15:22Z</time></trkpt><trkpt lat="44.10286418404156" lon="15.246943261167107"><ele>-0.75</ele><time>2026-05-01T14:15:23Z</time></trkpt><trkpt lat="44.10279863788679" lon="15.247101159450287"><ele>-1.0</ele><time>2026-05-01T14:15:24Z</time></trkpt><trkpt lat="44.1027403221751" lon="15.247269940739796"><ele>-1.0</ele><time>2026-05-01T14:15:25Z</time></trkpt><trkpt lat="44.10268221709822" lon="15.247438659686651"><ele>-1.0</ele><time>2026-05-01T14:15:26Z</time></trkpt><trkpt lat="44.10261787208509" lon="15.247614959681485"><ele>-1.0</ele><time>2026-05-01T14:15:27Z</time></trkpt><trkpt lat="44.10254725677953" lon="15.247798555606346"><ele>-1.0</ele><time>2026-05-01T14:15:28Z</time></trkpt><trkpt lat="44.102479004287126" lon="15.247993409857388"><ele>-1.0</ele><time>2026-05-01T14:15:29Z</time></trkpt><trkpt lat="44.10241397790449" lon="15.248195438422345"><ele>-1.0</ele><time>2026-05-01T14:15:30Z</time></trkpt><trkpt lat="44.102349638715296" lon="15.248387466912249"><ele>-1.0</ele><time>2026-05-01T14:15:31Z</time></trkpt><trkpt lat="44.102284873392925" lon="15.24858181978343"><ele>-1.0</ele><time>2026-05-01T14:15:32Z</time></trkpt><trkpt lat="44.10222199847543" lon="15.248769998995932"><ele>-1.0</ele><time>2026-05-01T14:15:33Z</time></trkpt><trkpt lat="44.10215719313204" lon="15.248957107238349"><ele>-1.0</ele><time>2026-05-01T14:15:34Z</time></trkpt><trkpt lat="44.102092999096065" lon="15.249146307973266"><ele>-1.0</ele><time>2026-05-01T14:15:35Z</time></trkpt><trkpt lat="44.10203135070835" lon="15.249339110376004"><ele>-0.5</ele><time>2026-05-01T14:15:36Z</time></trkpt><trkpt lat="44.10198587514201" lon="15.249535777219839"><ele>0.0</ele><time>2026-05-01T14:15:37Z</time></trkpt><trkpt lat="44.10196371956623" lon="15.24972854262289"><ele>0.5</ele><time>2026-05-01T14:15:38Z</time></trkpt><trkpt lat="44.101953692795625" lon="15.249910406550299"><ele>1.0</ele><time>2026-05-01T14:15:39Z</time></trkpt><trkpt lat="44.10195081153153" lon="15.25007813268842"><ele>1.0</ele><time>2026-05-01T14:15:40Z</time></trkpt><trkpt lat="44.101941328359544" lon="15.250233179826107"><ele>1.0</ele><time>2026-05-01T14:15:41Z</time></trkpt><trkpt lat="44.101933880270465" lon="15.250372874464198"><ele>1.0</ele><time>2026-05-01T14:15:42Z</time></trkpt><trkpt lat="44.10192327373028" lon="15.250504712963856"><ele>1.0</ele><time>2026-05-01T14:15:43Z</time></trkpt><trkpt lat="44.101917029397626" lon="15.250631391675228"><ele>1.0</ele><time>2026-05-01T14:15:44Z</time></trkpt><trkpt lat="44.10190615479616" lon="15.250753819337476"><ele>1.3333333333333333</ele><time>2026-05-01T14:15:45Z</time></trkpt><trkpt lat="44.10189838801062" lon="15.25087982968834"><ele>1.6666666666666665</ele><time>2026-05-01T14:15:46Z</time></trkpt><trkpt lat="44.10189138453368" lon="15.25099875792659"><ele>2.0</ele><time>2026-05-01T14:15:47Z</time></trkpt><trkpt lat="44.101884987109884" lon="15.251108191389354"><ele>2.3333333333333335</ele><time>2026-05-01T14:15:48Z</time></trkpt><trkpt lat="44.10187893998025" lon="15.251217040358837"><ele>2.6666666666666665</ele><time>2026-05-01T14:15:49Z</time></trkpt><trkpt lat="44.10187113302703" lon="15.25133971984112"><ele>3.0</ele><time>2026-05-01T14:15:50Z</time></trkpt><trkpt lat="44.10186115662198" lon="15.251462649061386"><ele>3.2</ele><time>2026-05-01T14:15:51Z</time></trkpt><trkpt lat="44.10185040991289" lon="15.25158817428438"><ele>3.4</ele><time>2026-05-01T14:15:52Z</time></trkpt><trkpt lat="44.101840792454034" lon="15.251718399621202"><ele>3.6000000000000005</ele><time>2026-05-01T14:15:53Z</time></trkpt><trkpt lat="44.101836094508656" lon="15.251848108484143"><ele>3.8000000000000003</ele><time>2026-05-01T14:15:54Z</time></trkpt><trkpt lat="44.10183412383731" lon="15.25198217881842"><ele>4.0</ele><time>2026-05-01T14:15:55Z</time></trkpt><trkpt lat="44.10182758793246" lon="15.252114910657294"><ele>3.9999999999999996</ele><time>2026-05-01T14:15:56Z</time></trkpt><trkpt lat="44.10181875075833" lon="15.252243078160983"><ele>4.0</ele><time>2026-05-01T14:15:57Z</time></trkpt><trkpt lat="44.101809897987145" lon="15.252361421517888"><ele>4.0</ele><time>2026-05-01T14:15:58Z</time></trkpt><trkpt lat="44.10180095272613" lon="15.252480903155352"><ele>4.0</ele><time>2026-05-01T14:15:59Z</time></trkpt><trkpt lat="44.10179265090188" lon="15.252595702794705"><ele>3.9999999999999996</ele><time>2026-05-01T14:16:00Z</time></trkpt><trkpt lat="44.101783185469145" lon="15.252709663789913"><ele>4.0</ele><time>2026-05-01T14:16:01Z</time></trkpt><trkpt lat="44.101775279226025" lon="15.252827992280114"><ele>4.0</ele><time>2026-05-01T14:16:02Z</time></trkpt><trkpt lat="44.10176530898352" lon="15.252951635542935"><ele>4.0</ele><time>2026-05-01T14:16:03Z</time></trkpt><trkpt lat="44.10175516746995" lon="15.253083784511052"><ele>4.0</ele><time>2026-05-01T14:16:04Z</time></trkpt><trkpt lat="44.10174729276844" lon="15.25321115243034"><ele>4.0</ele><time>2026-05-01T14:16:05Z</time></trkpt><trkpt lat="44.101737078854036" lon="15.25333941717587"><ele>4.0</ele><time>2026-05-01T14:16:06Z</time></trkpt><trkpt lat="44.10172666818612" lon="15.253476770185161"><ele>4.4</ele><time>2026-05-01T14:16:07Z</time></trkpt><trkpt lat="44.101717344852304" lon="15.253617759095869"><ele>4.800000000000001</ele><time>2026-05-01T14:16:08Z</time></trkpt><trkpt lat="44.1017078600473" lon="15.253760287294536"><ele>5.199999999999999</ele><time>2026-05-01T14:16:09Z</time></trkpt><trkpt lat="44.101696113030734" lon="15.253894924705769"><ele>5.6</ele><time>2026-05-01T14:16:10Z</time></trkpt><trkpt lat="44.101684374844" lon="15.254026984794013"><ele>6.0</ele><time>2026-05-01T14:16:11Z</time></trkpt><trkpt lat="44.101670475196194" lon="15.254165381677867"><ele>6.199999999999999</ele><time>2026-05-01T14:16:12Z</time></trkpt><trkpt lat="44.10166074506841" lon="15.254302531248337"><ele>6.3999999999999995</ele><time>2026-05-01T14:16:13Z</time></trkpt><trkpt lat="44.1016493984917" lon="15.254443981838687"><ele>6.6</ele><time>2026-05-01T14:16:14Z</time></trkpt><trkpt lat="44.10163948093806" lon="15.254586345424272"><ele>6.8</ele><time>2026-05-01T14:16:15Z</time></trkpt><trkpt lat="44.10162927441453" lon="15.254733732111326"><ele>7.0</ele><time>2026-05-01T14:16:16Z</time></trkpt><trkpt lat="44.101616310216244" lon="15.254882828939566"><ele>7.0</ele><time>2026-05-01T14:16:17Z</time></trkpt><trkpt lat="44.10160628322168" lon="15.255031565318689"><ele>6.999999999999999</ele><time>2026-05-01T14:16:18Z</time></trkpt><trkpt lat="44.10159694170369" lon="15.255184709636838"><ele>6.999999999999999</ele><time>2026-05-01T14:16:19Z</time></trkpt><trkpt lat="44.10158404126592" lon="15.255335279740672"><ele>7.0</ele><time>2026-05-01T14:16:20Z</time></trkpt><trkpt lat="44.101565107378434" lon="15.25547599775167"><ele>7.0</ele><time>2026-05-01T14:16:21Z</time></trkpt><trkpt lat="44.1015391488209" lon="15.255609112702901"><ele>6.0</ele><time>2026-05-01T14:16:22Z</time></trkpt><trkpt lat="44.101493385192576" lon="15.255712543276928"><ele>4.999999999999999</ele><time>2026-05-01T14:16:23Z</time></trkpt><trkpt lat="44.10141978441755" lon="15.255780598029355"><ele>4.0</ele><time>2026-05-01T14:16:24Z</time></trkpt><trkpt lat="44.10132599929608" lon="15.255799994713524"><ele>3.0</ele><time>2026-05-01T14:16:25Z</time></trkpt><trkpt lat="44.101218925888816" lon="15.255797303641101"><ele>2.0</ele><time>2026-05-01T14:16:26Z</time></trkpt><trkpt lat="44.1011001667519" lon="15.25578571755899"><ele>2.0</ele><time>2026-05-01T14:16:27Z</time></trkpt><trkpt lat="44.10097079302484" lon="15.255776178009034"><ele>2.0</ele><time>2026-05-01T14:16:28Z</time></trkpt><trkpt lat="44.10083306141699" lon="15.255762038815705"><ele>2.0</ele><time>2026-05-01T14:16:29Z</time></trkpt><trkpt lat="44.10069266192209" lon="15.25574258227513"><ele>2.0</ele><time>2026-05-01T14:16:30Z</time></trkpt><trkpt lat="44.10054668081822" lon="15.255723624893134"><ele>2.0</ele><time>2026-05-01T14:16:31Z</time></trkpt><trkpt lat="44.100406213516465" lon="15.255706373963152"><ele>2.0</ele><time>2026-05-01T14:16:32Z</time></trkpt><trkpt lat="44.100269681180926" lon="15.255690130029947"><ele>2.0</ele><time>2026-05-01T14:16:33Z</time></trkpt><trkpt lat="44.10013764901007" lon="15.255670581653545"><ele>2.0</ele><time>2026-05-01T14:16:34Z</time></trkpt><trkpt lat="44.10001255947345" lon="15.255650133340218"><ele>1.75</ele><time>2026-05-01T14:16:35Z</time></trkpt><trkpt lat="44.09988341310686" lon="15.255628111564642"><ele>1.5</ele><time>2026-05-01T14:16:36Z</time></trkpt><trkpt lat="44.099748796998206" lon="15.2556097195201"><ele>1.25</ele><time>2026-05-01T14:16:37Z</time></trkpt><trkpt lat="44.099609701942896" lon="15.255593197509592"><ele>1.0</ele><time>2026-05-01T14:16:38Z</time></trkpt><trkpt lat="44.09946119392909" lon="15.25557489480369"><ele>1.0</ele><time>2026-05-01T14:16:39Z</time></trkpt><trkpt lat="44.099301139740845" lon="15.255590668273905"><ele>1.0</ele><time>2026-05-01T14:16:40Z</time></trkpt><trkpt lat="44.09913064547192" lon="15.255620064376547"><ele>1.0</ele><time>2026-05-01T14:16:41Z</time></trkpt><trkpt lat="44.09895056235812" lon="15.255667575799919"><ele>0.6666666666666666</ele><time>2026-05-01T14:16:42Z</time></trkpt><trkpt lat="44.09876345983172" lon="15.25573930963398"><ele>0.3333333333333333</ele><time>2026-05-01T14:16:43Z</time></trkpt><trkpt lat="44.098581031030086" lon="15.255827346271682"><ele>0.0</ele><time>2026-05-01T14:16:44Z</time></trkpt><trkpt lat="44.09840615364257" lon="15.255937679154778"><ele>0.3333333333333333</ele><time>2026-05-01T14:16:45Z</time></trkpt><trkpt lat="44.09823602097382" lon="15.25607165609675"><ele>0.6666666666666666</ele><time>2026-05-01T14:16:46Z</time></trkpt><trkpt lat="44.09807110884438" lon="15.2562230218673"><ele>1.0</ele><time>2026-05-01T14:16:47Z</time></trkpt><trkpt lat="44.09791377582763" lon="15.256386681382159"><ele>0.6666666666666666</ele><time>2026-05-01T14:16:48Z</time></trkpt><trkpt lat="44.09776817557256" lon="15.256544392290012"><ele>0.3333333333333333</ele><time>2026-05-01T14:16:49Z</time></trkpt><trkpt lat="44.09763019212654" lon="15.256692566406127"><ele>0.0</ele><time>2026-05-01T14:16:50Z</time></trkpt><trkpt lat="44.09749590511687" lon="15.256835336464805"><ele>0.0</ele><time>2026-05-01T14:16:51Z</time></trkpt><trkpt lat="44.09735777362121" lon="15.256984357325017"><ele>0.0</ele><time>2026-05-01T14:16:52Z</time></trkpt><trkpt lat="44.09721470273685" lon="15.257140204477956"><ele>0.0</ele><time>2026-05-01T14:16:53Z</time></trkpt><trkpt lat="44.097072793091485" lon="15.257294809836358"><ele>0.0</ele><time>2026-05-01T14:16:54Z</time></trkpt><trkpt lat="44.09692977190276" lon="15.257448949846044"><ele>0.0</ele><time>2026-05-01T14:16:55Z</time></trkpt><trkpt lat="44.096789612496735" lon="15.257597733299605"><ele>0.0</ele><time>2026-05-01T14:16:56Z</time></trkpt><trkpt lat="44.09665247659932" lon="15.257741483772516"><ele>0.0</ele><time>2026-05-01T14:16:57Z</time></trkpt><trkpt lat="44.09651478134339" lon="15.257888235962934"><ele>0.0</ele><time>2026-05-01T14:16:58Z</time></trkpt><trkpt lat="44.096374770627804" lon="15.258038025478957"><ele>0.0</ele><time>2026-05-01T14:16:59Z</time></trkpt><trkpt lat="44.09623147278411" lon="15.258193496270895"><ele>0.3333333333333333</ele><time>2026-05-01T14:17:00Z</time></trkpt><trkpt lat="44.09609336983402" lon="15.25834300833258"><ele>0.6666666666666666</ele><time>2026-05-01T14:17:01Z</time></trkpt><trkpt lat="44.09595731537695" lon="15.25849456797673"><ele>1.0</ele><time>2026-05-01T14:17:02Z</time></trkpt><trkpt lat="44.095821849501064" lon="15.258643875339393"><ele>0.6666666666666666</ele><time>2026-05-01T14:17:03Z</time></trkpt><trkpt lat="44.09568742174348" lon="15.258790514206947"><ele>0.3333333333333333</ele><time>2026-05-01T14:17:04Z</time></trkpt><trkpt lat="44.09555506117645" lon="15.258936313832372"><ele>0.0</ele><time>2026-05-01T14:17:05Z</time></trkpt><trkpt lat="44.09542247478711" lon="15.25908328919901"><ele>-1.0</ele><time>2026-05-01T14:17:06Z</time></trkpt><trkpt lat="44.09529196403249" lon="15.259227607260407"><ele>-2.0</ele><time>2026-05-01T14:17:07Z</time></trkpt><trkpt lat="44.09516243658337" lon="15.259368432743798"><ele>-3.0</ele><time>2026-05-01T14:17:08Z</time></trkpt><trkpt lat="44.09503285819667" lon="15.2595084890124"><ele>-2.0</ele><time>2026-05-01T14:17:09Z</time></trkpt><trkpt lat="44.094907298907735" lon="15.259641507070949"><ele>-1.0</ele><time>2026-05-01T14:17:10Z</time></trkpt><trkpt lat="44.09478310817903" lon="15.259774221881399"><ele>0.0</ele><time>2026-05-01T14:17:11Z</time></trkpt><trkpt lat="44.09466092116773" lon="15.259904589195523"><ele>0.0</ele><time>2026-05-01T14:17:12Z</time></trkpt><trkpt lat="44.09454318921093" lon="15.260034958175343"><ele>0.0</ele><time>2026-05-01T14:17:13Z</time></trkpt><trkpt lat="44.09442463420606" lon="15.260163029071956"><ele>0.0</ele><time>2026-05-01T14:17:14Z</time></trkpt><trkpt lat="44.09430234128646" lon="15.260290351686901"><ele>0.0</ele><time>2026-05-01T14:17:15Z</time></trkpt><trkpt lat="44.09418243598687" lon="15.260411903266355"><ele>0.0</ele><time>2026-05-01T14:17:16Z</time></trkpt><trkpt lat="44.09406024188554" lon="15.260530294963422"><ele>0.0</ele><time>2026-05-01T14:17:17Z</time></trkpt><trkpt lat="44.09393683343364" lon="15.26065177249703"><ele>0.0</ele><time>2026-05-01T14:17:18Z</time></trkpt><trkpt lat="44.09380934135585" lon="15.26077253142771"><ele>0.0</ele><time>2026-05-01T14:17:19Z</time></trkpt><trkpt lat="44.09368139687705" lon="15.260896424719595"><ele>0.0</ele><time>2026-05-01T14:17:20Z</time></trkpt><trkpt lat="44.09355612665558" lon="15.261022470825512"><ele>0.0</ele><time>2026-05-01T14:17:21Z</time></trkpt><trkpt lat="44.093431376979126" lon="15.261157110840008"><ele>0.0</ele><time>2026-05-01T14:17:22Z</time></trkpt><trkpt lat="44.093306103023245" lon="15.26129344168968"><ele>0.0</ele><time>2026-05-01T14:17:23Z</time></trkpt><trkpt lat="44.093179756072416" lon="15.26143568766779"><ele>0.0</ele><time>2026-05-01T14:17:24Z</time></trkpt><trkpt lat="44.093049359822146" lon="15.261583509115175"><ele>0.0</ele><time>2026-05-01T14:17:25Z</time></trkpt><trkpt lat="44.09291480661935" lon="15.26173358080921"><ele>0.0</ele><time>2026-05-01T14:17:26Z</time></trkpt><trkpt lat="44.092781068319205" lon="15.261881635507375"><ele>0.0</ele><time>2026-05-01T14:17:27Z</time></trkpt><trkpt lat="44.09265076417863" lon="15.262022127862068"><ele>0.0</ele><time>2026-05-01T14:17:28Z</time></trkpt><trkpt lat="44.09252968190519" lon="15.262151615827012"><ele>0.0</ele><time>2026-05-01T14:17:29Z</time></trkpt><trkpt lat="44.092417331668855" lon="15.262272375819427"><ele>0.0</ele><time>2026-05-01T14:17:30Z</time></trkpt><trkpt lat="44.0923170083546" lon="15.262378635533057"><ele>0.0</ele><time>2026-05-01T14:17:31Z</time></trkpt><trkpt lat="44.09223475304083" lon="15.262459980968496"><ele>0.0</ele><time>2026-05-01T14:17:32Z</time></trkpt><trkpt lat="44.09215294602098" lon="15.262512727305456"><ele>0.0</ele><time>2026-05-01T14:17:33Z</time></trkpt><trkpt lat="44.092053128498264" lon="15.262517902687131"><ele>0.0</ele><time>2026-05-01T14:17:34Z</time></trkpt><trkpt lat="44.091960660084304" lon="15.262506489013266"><ele>0.0</ele><time>2026-05-01T14:17:35Z</time></trkpt><trkpt lat="44.09187503538175" lon="15.26253421598107"><ele>0.0</ele><time>2026-05-01T14:17:36Z</time></trkpt><trkpt lat="44.091813007245" lon="15.262605194350755"><ele>0.0</ele><time>2026-05-01T14:17:37Z</time></trkpt><trkpt lat="44.09177932054198" lon="15.262706284791783"><ele>0.0</ele><time>2026-05-01T14:17:38Z</time></trkpt><trkpt lat="44.09177667665648" lon="15.26282368190823"><ele>0.0</ele><time>2026-05-01T14:17:39Z</time></trkpt><trkpt lat="44.091810411701616" lon="15.26294416538026"><ele>0.0</ele><time>2026-05-01T14:17:40Z</time></trkpt><trkpt lat="44.09187394429569" lon="15.263027682599535"><ele>0.0</ele><time>2026-05-01T14:17:41Z</time></trkpt><trkpt lat="44.091965250481664" lon="15.263043608638217"><ele>0.0</ele><time>2026-05-01T14:17:43Z</time></trkpt><trkpt lat="44.092053774895305" lon="15.263090649924289"><ele>0.0</ele><time>2026-05-01T14:17:46Z</time></trkpt><trkpt lat="44.092133198413315" lon="15.263171899918916"><ele>0.0</ele><time>2026-05-01T14:17:47Z</time></trkpt><trkpt lat="44.09220444016346" lon="15.263296092998694"><ele>0.0</ele><time>2026-05-01T14:17:48Z</time></trkpt><trkpt lat="44.09227094205895" lon="15.26342013931819"><ele>0.0</ele><time>2026-05-01T14:17:49Z</time></trkpt><trkpt lat="44.09234254553072" lon="15.263573725721209"><ele>0.0</ele><time>2026-05-01T14:17:50Z</time></trkpt><trkpt lat="44.09242734428459" lon="15.263743617137722"><ele>0.0</ele><time>2026-05-01T14:17:51Z</time></trkpt><trkpt lat="44.092518117335544" lon="15.263917084032828"><ele>0.0</ele><time>2026-05-01T14:17:52Z</time></trkpt><trkpt lat="44.09261473767685" lon="15.2640969596471"><ele>-0.3333333333333333</ele><time>2026-05-01T14:17:53Z</time></trkpt><trkpt lat="44.09271280838417" lon="15.264289546953032"><ele>-0.6666666666666666</ele><time>2026-05-01T14:17:54Z</time></trkpt><trkpt lat="44.09281938668908" lon="15.264482108985385"><ele>-1.0</ele><time>2026-05-01T14:17:55Z</time></trkpt><trkpt lat="44.092928841651585" lon="15.264678795151777"><ele>-1.0</ele><time>2026-05-01T14:17:56Z</time></trkpt><trkpt lat="44.093039270537545" lon="15.264879206356927"><ele>-1.0</ele><time>2026-05-01T14:17:57Z</time></trkpt><trkpt lat="44.09314596412429" lon="15.265079787697097"><ele>-1.0</ele><time>2026-05-01T14:17:58Z</time></trkpt><trkpt lat="44.09325365314115" lon="15.265282687277471"><ele>-1.0</ele><time>2026-05-01T14:17:59Z</time></trkpt><trkpt lat="44.09336203463328" lon="15.265489606457571"><ele>-1.0</ele><time>2026-05-01T14:18:00Z</time></trkpt><trkpt lat="44.09347331126576" lon="15.265693786549576"><ele>-1.0</ele><time>2026-05-01T14:18:01Z</time></trkpt><trkpt lat="44.09358469996993" lon="15.265896832355846"><ele>-0.6666666666666666</ele><time>2026-05-01T14:18:02Z</time></trkpt><trkpt lat="44.093696018266535" lon="15.266096672660188"><ele>-0.3333333333333333</ele><time>2026-05-01T14:18:03Z</time></trkpt><trkpt lat="44.09380438290513" lon="15.266293484684349"><ele>0.0</ele><time>2026-05-01T14:18:04Z</time></trkpt><trkpt lat="44.09391080368648" lon="15.266488500116754"><ele>0.0</ele><time>2026-05-01T14:18:05Z</time></trkpt><trkpt lat="44.094016711984096" lon="15.266682441151548"><ele>0.0</ele><time>2026-05-01T14:18:06Z</time></trkpt><trkpt lat="44.094121812863456" lon="15.266878549752523"><ele>0.0</ele><time>2026-05-01T14:18:07Z</time></trkpt><trkpt lat="44.09422820545223" lon="15.267074850287706"><ele>0.6666666666666666</ele><time>2026-05-01T14:18:08Z</time></trkpt><trkpt lat="44.09433237325699" lon="15.267262387253169"><ele>1.3333333333333333</ele><time>2026-05-01T14:18:09Z</time></trkpt><trkpt lat="44.094434052958654" lon="15.267452073065893"><ele>2.0</ele><time>2026-05-01T14:18:10Z</time></trkpt><trkpt lat="44.09453821940885" lon="15.267641041836828"><ele>2.0</ele><time>2026-05-01T14:18:11Z</time></trkpt><trkpt lat="44.09463681495828" lon="15.267819732422748"><ele>2.0</ele><time>2026-05-01T14:18:12Z</time></trkpt><trkpt lat="44.09473028772818" lon="15.267993046745143"><ele>2.0</ele><time>2026-05-01T14:18:13Z</time></trkpt><trkpt lat="44.09481958327594" lon="15.26815746943819"><ele>2.25</ele><time>2026-05-01T14:18:14Z</time></trkpt><trkpt lat="44.094906663936854" lon="15.268321536061197"><ele>2.5</ele><time>2026-05-01T14:18:15Z</time></trkpt><trkpt lat="44.094992417381526" lon="15.268480938862748"><ele>2.75</ele><time>2026-05-01T14:18:16Z</time></trkpt><trkpt lat="44.09507877860757" lon="15.2686464492113"><ele>3.0</ele><time>2026-05-01T14:18:17Z</time></trkpt><trkpt lat="44.09516099497879" lon="15.268808521682189"><ele>4.5</ele><time>2026-05-01T14:18:18Z</time></trkpt><trkpt lat="44.095235614641716" lon="15.268964275360581"><ele>6.0</ele><time>2026-05-01T14:18:19Z</time></trkpt><trkpt lat="44.09531014580709" lon="15.269116098735248"><ele>7.5</ele><time>2026-05-01T14:18:20Z</time></trkpt><trkpt lat="44.09538398841994" lon="15.269259713849737"><ele>9.0</ele><time>2026-05-01T14:18:21Z</time></trkpt><trkpt lat="44.09545551050219" lon="15.269392221758022"><ele>9.0</ele><time>2026-05-01T14:18:22Z</time></trkpt><trkpt lat="44.09552789986345" lon="15.269519354757541"><ele>9.0</ele><time>2026-05-01T14:18:23Z</time></trkpt><trkpt lat="44.09559688915761" lon="15.269643538825257"><ele>9.0</ele><time>2026-05-01T14:18:24Z</time></trkpt><trkpt lat="44.09566168935029" lon="15.269764317231752"><ele>9.0</ele><time>2026-05-01T14:18:25Z</time></trkpt><trkpt lat="44.09572312359839" lon="15.26988092836386"><ele>9.0</ele><time>2026-05-01T14:18:26Z</time></trkpt><trkpt lat="44.09577690386462" lon="15.26998775204011"><ele>9.666666666666666</ele><time>2026-05-01T14:18:27Z</time></trkpt><trkpt lat="44.0958183727412" lon="15.270076197338721"><ele>10.333333333333332</ele><time>2026-05-01T14:18:28Z</time></trkpt><trkpt lat="44.09584991940782" lon="15.27015399577094"><ele>11.0</ele><time>2026-05-01T14:18:29Z</time></trkpt><trkpt lat="44.09587747170019" lon="15.270237201597375"><ele>11.666666666666666</ele><time>2026-05-01T14:18:30Z</time></trkpt><trkpt lat="44.095899116804915" lon="15.270343495891659"><ele>12.333333333333332</ele><time>2026-05-01T14:18:31Z</time></trkpt><trkpt lat="44.09591614271936" lon="15.270468584530237"><ele>13.0</ele><time>2026-05-01T14:18:32Z</time></trkpt><trkpt lat="44.0959218678189" lon="15.270610157501487"><ele>13.5</ele><time>2026-05-01T14:18:33Z</time></trkpt><trkpt lat="44.09590904553503" lon="15.27077115962362"><ele>14.0</ele><time>2026-05-01T14:18:34Z</time></trkpt><trkpt lat="44.09588112672931" lon="15.27093913962306"><ele>14.5</ele><time>2026-05-01T14:18:35Z</time></trkpt><trkpt lat="44.09584170213795" lon="15.271100831154463"><ele>15.0</ele><time>2026-05-01T14:18:36Z</time></trkpt><trkpt lat="44.09580718315496" lon="15.271241379333155"><ele>15.0</ele><time>2026-05-01T14:18:37Z</time></trkpt><trkpt lat="44.09578263781873" lon="15.271376237538806"><ele>15.0</ele><time>2026-05-01T14:18:38Z</time></trkpt><trkpt lat="44.09577128972414" lon="15.271516761013752"><ele>15.0</ele><time>2026-05-01T14:18:39Z</time></trkpt><trkpt lat="44.09577071421924" lon="15.271664139366226"><ele>15.0</ele><time>2026-05-01T14:18:40Z</time></trkpt><trkpt lat="44.0957886289452" lon="15.271810051131471"><ele>15.0</ele><time>2026-05-01T14:18:41Z</time></trkpt><trkpt lat="44.09581566450284" lon="15.271951398754693"><ele>15.666666666666666</ele><time>2026-05-01T14:18:42Z</time></trkpt><trkpt lat="44.09584860317397" lon="15.272078339968006"><ele>16.333333333333332</ele><time>2026-05-01T14:18:43Z</time></trkpt><trkpt lat="44.095879903668184" lon="15.272201539054786"><ele>17.0</ele><time>2026-05-01T14:18:44Z</time></trkpt><trkpt lat="44.095903043393356" lon="15.272320406612087"><ele>17.666666666666664</ele><time>2026-05-01T14:18:45Z</time></trkpt><trkpt lat="44.09590937882732" lon="15.272437968974291"><ele>18.333333333333332</ele><time>2026-05-01T14:18:46Z</time></trkpt><trkpt lat="44.095893617038215" lon="15.272538577359121"><ele>19.0</ele><time>2026-05-01T14:18:47Z</time></trkpt><trkpt lat="44.09585179338766" lon="15.272619208177927"><ele>19.0</ele><time>2026-05-01T14:18:48Z</time></trkpt><trkpt lat="44.09578603935368" lon="15.272680146399434"><ele>19.0</ele><time>2026-05-01T14:18:49Z</time></trkpt><trkpt lat="44.09570301917414" lon="15.272733688473826"><ele>19.0</ele><time>2026-05-01T14:18:50Z</time></trkpt><trkpt lat="44.09561291494634" lon="15.272798624627168"><ele>19.0</ele><time>2026-05-01T14:18:51Z</time></trkpt><trkpt lat="44.09552234115698" lon="15.272882357726925"><ele>19.0</ele><time>2026-05-01T14:18:52Z</time></trkpt><trkpt lat="44.095425098970715" lon="15.272979060513967"><ele>19.0</ele><time>2026-05-01T14:18:53Z</time></trkpt><trkpt lat="44.09532363938263" lon="15.273081319114363"><ele>19.0</ele><time>2026-05-01T14:18:54Z</time></trkpt><trkpt lat="44.09521921232037" lon="15.273188152981229"><ele>19.0</ele><time>2026-05-01T14:18:55Z</time></trkpt><trkpt lat="44.09511316777292" lon="15.27330206734879"><ele>19.0</ele><time>2026-05-01T14:18:56Z</time></trkpt><trkpt lat="44.09500545543132" lon="15.273420728428968"><ele>18.333333333333332</ele><time>2026-05-01T14:18:57Z</time></trkpt><trkpt lat="44.094889831359495" lon="15.273540468477442"><ele>17.666666666666668</ele><time>2026-05-01T14:18:58Z</time></trkpt><trkpt lat="44.094765930329466" lon="15.273662872062783"><ele>17.0</ele><time>2026-05-01T14:18:59Z</time></trkpt><trkpt lat="44.09463444392877" lon="15.273787174622733"><ele>17.0</ele><time>2026-05-01T14:19:00Z</time></trkpt><trkpt lat="44.094500677877434" lon="15.273918376368986"><ele>17.0</ele><time>2026-05-01T14:19:01Z</time></trkpt><trkpt lat="44.094369533789106" lon="15.27405410481833"><ele>17.0</ele><time>2026-05-01T14:19:02Z</time></trkpt><trkpt lat="44.09423554341193" lon="15.274199416880519"><ele>17.333333333333336</ele><time>2026-05-01T14:19:03Z</time></trkpt><trkpt lat="44.09410121227827" lon="15.274347881037665"><ele>17.666666666666668</ele><time>2026-05-01T14:19:04Z</time></trkpt><trkpt lat="44.0939666890978" lon="15.274498639040793"><ele>18.0</ele><time>2026-05-01T14:19:05Z</time></trkpt><trkpt lat="44.093831259784714" lon="15.274652645581895"><ele>19.666666666666668</ele><time>2026-05-01T14:19:06Z</time></trkpt><trkpt lat="44.093698335200344" lon="15.274817282873908"><ele>21.333333333333336</ele><time>2026-05-01T14:19:07Z</time></trkpt><trkpt lat="44.09356323808761" lon="15.274982563093289"><ele>23.0</ele><time>2026-05-01T14:19:08Z</time></trkpt><trkpt lat="44.09342204841934" lon="15.275156267302728"><ele>23.0</ele><time>2026-05-01T14:19:09Z</time></trkpt><trkpt lat="44.09327995993246" lon="15.275327767315174"><ele>23.0</ele><time>2026-05-01T14:19:10Z</time></trkpt><trkpt lat="44.09313859197564" lon="15.275501736499825"><ele>23.0</ele><time>2026-05-01T14:19:11Z</time></trkpt><trkpt lat="44.09299619408922" lon="15.275680758677208"><ele>23.666666666666668</ele><time>2026-05-01T14:19:12Z</time></trkpt><trkpt lat="44.092854847387294" lon="15.275854331025712"><ele>24.333333333333336</ele><time>2026-05-01T14:19:13Z</time></trkpt><trkpt lat="44.092714620017766" lon="15.27602977593012"><ele>25.0</ele><time>2026-05-01T14:19:14Z</time></trkpt><trkpt lat="44.092574459914424" lon="15.276203967234304"><ele>25.0</ele><time>2026-05-01T14:19:15Z</time></trkpt><trkpt lat="44.092438999538395" lon="15.276370925978814"><ele>25.0</ele><time>2026-05-01T14:19:16Z</time></trkpt><trkpt lat="44.092305803193234" lon="15.276535254414432"><ele>25.0</ele><time>2026-05-01T14:19:17Z</time></trkpt><trkpt lat="44.09217454673247" lon="15.276689481186477"><ele>24.666666666666668</ele><time>2026-05-01T14:19:18Z</time></trkpt><trkpt lat="44.09204857970457" lon="15.27684546365398"><ele>24.333333333333336</ele><time>2026-05-01T14:19:19Z</time></trkpt><trkpt lat="44.09191789344067" lon="15.277009098555618"><ele>24.0</ele><time>2026-05-01T14:19:20Z</time></trkpt><trkpt lat="44.09178384709628" lon="15.277176298692812"><ele>24.666666666666664</ele><time>2026-05-01T14:19:21Z</time></trkpt><trkpt lat="44.091646663074116" lon="15.277342964568916"><ele>25.333333333333332</ele><time>2026-05-01T14:19:22Z</time></trkpt><trkpt lat="44.091509605250714" lon="15.277509646229726"><ele>26.0</ele><time>2026-05-01T14:19:23Z</time></trkpt><trkpt lat="44.09137234948718" lon="15.277679330822503"><ele>25.0</ele><time>2026-05-01T14:19:24Z</time></trkpt><trkpt lat="44.09123206564913" lon="15.277846199127154"><ele>24.0</ele><time>2026-05-01T14:19:25Z</time></trkpt><trkpt lat="44.09109238355472" lon="15.278016797272901"><ele>23.0</ele><time>2026-05-01T14:19:26Z</time></trkpt><trkpt lat="44.090953117640076" lon="15.27818812159883"><ele>23.0</ele><time>2026-05-01T14:19:27Z</time></trkpt><trkpt lat="44.09081212452299" lon="15.278360168751254"><ele>23.0</ele><time>2026-05-01T14:19:28Z</time></trkpt><trkpt lat="44.09066718920764" lon="15.27853680759486"><ele>23.0</ele><time>2026-05-01T14:19:29Z</time></trkpt><trkpt lat="44.09051907225956" lon="15.278720090270497"><ele>22.333333333333336</ele><time>2026-05-01T14:19:30Z</time></trkpt><trkpt lat="44.09037146981571" lon="15.278899880573752"><ele>21.666666666666668</ele><time>2026-05-01T14:19:31Z</time></trkpt><trkpt lat="44.09022833343084" lon="15.27907459577034"><ele>21.0</ele><time>2026-05-01T14:19:32Z</time></trkpt><trkpt lat="44.09008228804399" lon="15.279244982854033"><ele>22.0</ele><time>2026-05-01T14:19:33Z</time></trkpt><trkpt lat="44.08993384032675" lon="15.279415737822188"><ele>23.0</ele><time>2026-05-01T14:19:34Z</time></trkpt><trkpt lat="44.089787688106036" lon="15.279591174227441"><ele>24.0</ele><time>2026-05-01T14:19:35Z</time></trkpt><trkpt lat="44.08963859675529" lon="15.279770128623799"><ele>24.0</ele><time>2026-05-01T14:19:36Z</time></trkpt><trkpt lat="44.089494139352325" lon="15.279944311031542"><ele>24.0</ele><time>2026-05-01T14:19:37Z</time></trkpt><trkpt lat="44.08935254411388" lon="15.28011817394915"><ele>24.0</ele><time>2026-05-01T14:19:38Z</time></trkpt><trkpt lat="44.08921123773655" lon="15.28029389243806"><ele>23.666666666666668</ele><time>2026-05-01T14:19:39Z</time></trkpt><trkpt lat="44.08907034815227" lon="15.280469748656744"><ele>23.333333333333336</ele><time>2026-05-01T14:19:40Z</time></trkpt><trkpt lat="44.08892788023464" lon="15.280643087365256"><ele>23.0</ele><time>2026-05-01T14:19:41Z</time></trkpt><trkpt lat="44.088784530434914" lon="15.280818475959153"><ele>23.0</ele><time>2026-05-01T14:19:42Z</time></trkpt><trkpt lat="44.0886402535396" lon="15.280998861863123"><ele>23.0</ele><time>2026-05-01T14:19:43Z</time></trkpt><trkpt lat="44.0884952322375" lon="15.28117887154155"><ele>23.0</ele><time>2026-05-01T14:19:44Z</time></trkpt><trkpt lat="44.088344871210786" lon="15.281360248304422"><ele>24.0</ele><time>2026-05-01T14:19:45Z</time></trkpt><trkpt lat="44.08818957325882" lon="15.28153712969115"><ele>25.0</ele><time>2026-05-01T14:19:46Z</time></trkpt><trkpt lat="44.088025559595266" lon="15.281706474790822"><ele>26.0</ele><time>2026-05-01T14:19:47Z</time></trkpt><trkpt lat="44.08785559880104" lon="15.281866885031418"><ele>26.0</ele><time>2026-05-01T14:19:48Z</time></trkpt><trkpt lat="44.08768606736797" lon="15.282023519172437"><ele>26.0</ele><time>2026-05-01T14:19:49Z</time></trkpt><trkpt lat="44.08751615455373" lon="15.282182057540496"><ele>26.0</ele><time>2026-05-01T14:19:50Z</time></trkpt><trkpt lat="44.08733998107471" lon="15.282335818763661"><ele>26.666666666666664</ele><time>2026-05-01T14:19:51Z</time></trkpt><trkpt lat="44.087157789021425" lon="15.28247425606689"><ele>27.333333333333336</ele><time>2026-05-01T14:19:52Z</time></trkpt><trkpt lat="44.086979161418796" lon="15.28260842286961"><ele>28.0</ele><time>2026-05-01T14:19:53Z</time></trkpt><trkpt lat="44.086807901143224" lon="15.28272691860186"><ele>28.0</ele><time>2026-05-01T14:19:54Z</time></trkpt><trkpt lat="44.086635804252424" lon="15.28283837391285"><ele>28.0</ele><time>2026-05-01T14:19:55Z</time></trkpt><trkpt lat="44.086466082156676" lon="15.282946916241352"><ele>28.0</ele><time>2026-05-01T14:19:56Z</time></trkpt><trkpt lat="44.08629686806918" lon="15.283046883959257"><ele>28.666666666666668</ele><time>2026-05-01T14:19:57Z</time></trkpt><trkpt lat="44.086131943345876" lon="15.28314082746847"><ele>29.333333333333336</ele><time>2026-05-01T14:19:58Z</time></trkpt><trkpt lat="44.08597460789626" lon="15.283224612008146"><ele>30.0</ele><time>2026-05-01T14:19:59Z</time></trkpt><trkpt lat="44.08581872634672" lon="15.283312394850716"><ele>28.75</ele><time>2026-05-01T14:20:00Z</time></trkpt><trkpt lat="44.08567641867596" lon="15.283397043023745"><ele>27.5</ele><time>2026-05-01T14:20:01Z</time></trkpt><trkpt lat="44.08553886504805" lon="15.283469294967073"><ele>26.25</ele><time>2026-05-01T14:20:02Z</time></trkpt><trkpt lat="44.08540471986181" lon="15.28354483892128"><ele>25.0</ele><time>2026-05-01T14:20:03Z</time></trkpt><trkpt lat="44.08527849279179" lon="15.283607728387276"><ele>25.0</ele><time>2026-05-01T14:20:04Z</time></trkpt><trkpt lat="44.08514701069782" lon="15.283658546266366"><ele>25.0</ele><time>2026-05-01T14:20:05Z</time></trkpt><trkpt lat="44.08501345349037" lon="15.283700954596005"><ele>25.0</ele><time>2026-05-01T14:20:06Z</time></trkpt><trkpt lat="44.084875689252996" lon="15.28374986731236"><ele>25.0</ele><time>2026-05-01T14:20:07Z</time></trkpt><trkpt lat="44.08474010938945" lon="15.283795947362773"><ele>25.5</ele><time>2026-05-01T14:20:08Z</time></trkpt><trkpt lat="44.0846059677144" lon="15.283835160820697"><ele>26.0</ele><time>2026-05-01T14:20:09Z</time></trkpt><trkpt lat="44.08447021305541" lon="15.28387209534446"><ele>26.5</ele><time>2026-05-01T14:20:10Z</time></trkpt><trkpt lat="44.08433270237879" lon="15.283914540766759"><ele>27.0</ele><time>2026-05-01T14:20:11Z</time></trkpt><trkpt lat="44.084191574180274" lon="15.28396397933044"><ele>26.666666666666664</ele><time>2026-05-01T14:20:12Z</time></trkpt><trkpt lat="44.08405092645826" lon="15.284010881981198"><ele>26.333333333333332</ele><time>2026-05-01T14:20:13Z</time></trkpt><trkpt lat="44.08390099016778" lon="15.284057723335266"><ele>26.0</ele><time>2026-05-01T14:20:14Z</time></trkpt><trkpt lat="44.08374907753739" lon="15.284108992142084"><ele>26.0</ele><time>2026-05-01T14:20:15Z</time></trkpt><trkpt lat="44.083602398485795" lon="15.284160833999126"><ele>26.0</ele><time>2026-05-01T14:20:16Z</time></trkpt><trkpt lat="44.08345384531346" lon="15.284220023279302"><ele>26.0</ele><time>2026-05-01T14:20:17Z</time></trkpt><trkpt lat="44.08330486658631" lon="15.284277067921241"><ele>25.333333333333332</ele><time>2026-05-01T14:20:18Z</time></trkpt><trkpt lat="44.083156468150776" lon="15.28433552070025"><ele>24.666666666666664</ele><time>2026-05-01T14:20:19Z</time></trkpt><trkpt lat="44.08301100668191" lon="15.284400323305986"><ele>24.0</ele><time>2026-05-01T14:20:20Z</time></trkpt><trkpt lat="44.082865687060334" lon="15.284465639424171"><ele>24.0</ele><time>2026-05-01T14:20:21Z</time></trkpt><trkpt lat="44.08272458103833" lon="15.28453282440106"><ele>24.0</ele><time>2026-05-01T14:20:22Z</time></trkpt><trkpt lat="44.08258429297966" lon="15.284606283222054"><ele>24.0</ele><time>2026-05-01T14:20:23Z</time></trkpt><trkpt lat="44.08244649213715" lon="15.284683919069277"><ele>24.0</ele><time>2026-05-01T14:20:24Z</time></trkpt><trkpt lat="44.08231226651419" lon="15.284757373629084"><ele>24.0</ele><time>2026-05-01T14:20:25Z</time></trkpt><trkpt lat="44.082180128546696" lon="15.284843731756245"><ele>24.0</ele><time>2026-05-01T14:20:26Z</time></trkpt><trkpt lat="44.082042922857504" lon="15.284927480246873"><ele>24.0</ele><time>2026-05-01T14:20:27Z</time></trkpt><trkpt lat="44.08191379751554" lon="15.285009939517286"><ele>24.0</ele><time>2026-05-01T14:20:28Z</time></trkpt><trkpt lat="44.08178083987666" lon="15.285086709492822"><ele>21.0</ele><time>2026-05-01T14:20:29Z</time></trkpt><trkpt lat="44.081100802116325" lon="15.285445118915785"><ele>21.0</ele><time>2026-05-01T14:20:34Z</time></trkpt><trkpt lat="44.08095449023741" lon="15.28549291552502"><ele>21.0</ele><time>2026-05-01T14:20:35Z</time></trkpt><trkpt lat="44.08080444978202" lon="15.28552986001051"><ele>21.0</ele><time>2026-05-01T14:20:36Z</time></trkpt><trkpt lat="44.08064885780436" lon="15.285561867118979"><ele>21.666666666666668</ele><time>2026-05-01T14:20:37Z</time></trkpt><trkpt lat="44.08049372580071" lon="15.285576363577803"><ele>22.333333333333336</ele><time>2026-05-01T14:20:38Z</time></trkpt><trkpt lat="44.08033856014898" lon="15.285583701582333"><ele>23.0</ele><time>2026-05-01T14:20:39Z</time></trkpt><trkpt lat="44.080184163832996" lon="15.285578638369294"><ele>23.0</ele><time>2026-05-01T14:20:40Z</time></trkpt><trkpt lat="44.080025635977755" lon="15.285566803341501"><ele>23.0</ele><time>2026-05-01T14:20:41Z</time></trkpt><trkpt lat="44.07986905863937" lon="15.285554361966632"><ele>23.0</ele><time>2026-05-01T14:20:42Z</time></trkpt><trkpt lat="44.07971588158643" lon="15.28554218638105"><ele>23.666666666666668</ele><time>2026-05-01T14:20:43Z</time></trkpt><trkpt lat="44.07956538431962" lon="15.285541159906517"><ele>24.333333333333336</ele><time>2026-05-01T14:20:44Z</time></trkpt><trkpt lat="44.07941364756757" lon="15.285539924614866"><ele>25.0</ele><time>2026-05-01T14:20:45Z</time></trkpt><trkpt lat="44.07926195518056" lon="15.285534964994467"><ele>25.0</ele><time>2026-05-01T14:20:46Z</time></trkpt><trkpt lat="44.079109523848366" lon="15.28553303103284"><ele>25.0</ele><time>2026-05-01T14:20:47Z</time></trkpt><trkpt lat="44.07895950546692" lon="15.285542649004812"><ele>25.0</ele><time>2026-05-01T14:20:48Z</time></trkpt><trkpt lat="44.07881061560895" lon="15.285560031883868"><ele>25.0</ele><time>2026-05-01T14:20:49Z</time></trkpt><trkpt lat="44.07867406156594" lon="15.285593912771766"><ele>25.0</ele><time>2026-05-01T14:20:50Z</time></trkpt><trkpt lat="44.07853376002352" lon="15.285625393214666"><ele>25.0</ele><time>2026-05-01T14:20:51Z</time></trkpt><trkpt lat="44.07839594976485" lon="15.28568810136887"><ele>25.0</ele><time>2026-05-01T14:20:52Z</time></trkpt><trkpt lat="44.078253847453894" lon="15.285756214986629"><ele>24.25</ele><time>2026-05-01T14:20:53Z</time></trkpt><trkpt lat="44.07812090956723" lon="15.285833125857636"><ele>23.5</ele><time>2026-05-01T14:20:54Z</time></trkpt><trkpt lat="44.07798758196149" lon="15.285911752657505"><ele>22.75</ele><time>2026-05-01T14:20:55Z</time></trkpt><trkpt lat="44.07785418453616" lon="15.28600164639801"><ele>22.0</ele><time>2026-05-01T14:20:56Z</time></trkpt><trkpt lat="44.07772356463236" lon="15.286108835362132"><ele>22.0</ele><time>2026-05-01T14:20:57Z</time></trkpt><trkpt lat="44.07760227737581" lon="15.286216765827442"><ele>22.0</ele><time>2026-05-01T14:20:58Z</time></trkpt><trkpt lat="44.07747192865215" lon="15.286333000372364"><ele>22.0</ele><time>2026-05-01T14:20:59Z</time></trkpt><trkpt lat="44.07733505619811" lon="15.2864471637243"><ele>22.666666666666664</ele><time>2026-05-01T14:21:00Z</time></trkpt><trkpt lat="44.07719397505081" lon="15.286562039082083"><ele>23.333333333333332</ele><time>2026-05-01T14:21:01Z</time></trkpt><trkpt lat="44.07705649070049" lon="15.286674050966875"><ele>24.0</ele><time>2026-05-01T14:21:02Z</time></trkpt><trkpt lat="44.07691584533865" lon="15.28678618848813"><ele>24.0</ele><time>2026-05-01T14:21:03Z</time></trkpt><trkpt lat="44.07677509940049" lon="15.286886759225178"><ele>24.0</ele><time>2026-05-01T14:21:04Z</time></trkpt><trkpt lat="44.07662644333338" lon="15.286980895050633"><ele>24.0</ele><time>2026-05-01T14:21:05Z</time></trkpt><trkpt lat="44.07647959928419" lon="15.287068301680092"><ele>24.666666666666664</ele><time>2026-05-01T14:21:06Z</time></trkpt><trkpt lat="44.076328376804625" lon="15.287151589864603"><ele>25.333333333333332</ele><time>2026-05-01T14:21:07Z</time></trkpt><trkpt lat="44.07617259653507" lon="15.287230811744081"><ele>26.0</ele><time>2026-05-01T14:21:08Z</time></trkpt><trkpt lat="44.0760157101625" lon="15.287296280199328"><ele>27.0</ele><time>2026-05-01T14:21:09Z</time></trkpt><trkpt lat="44.07585025602991" lon="15.287352868909016"><ele>28.0</ele><time>2026-05-01T14:21:10Z</time></trkpt><trkpt lat="44.07568676268309" lon="15.287403768730341"><ele>29.0</ele><time>2026-05-01T14:21:11Z</time></trkpt><trkpt lat="44.07551877532917" lon="15.287445135214204"><ele>29.0</ele><time>2026-05-01T14:21:12Z</time></trkpt><trkpt lat="44.07535379100433" lon="15.287485919406505"><ele>29.0</ele><time>2026-05-01T14:21:13Z</time></trkpt><trkpt lat="44.07518750106306" lon="15.287519480495838"><ele>29.0</ele><time>2026-05-01T14:21:14Z</time></trkpt><trkpt lat="44.075016811567956" lon="15.28754445134509"><ele>28.333333333333332</ele><time>2026-05-01T14:21:15Z</time></trkpt><trkpt lat="44.074847016423554" lon="15.287567278402378"><ele>27.666666666666664</ele><time>2026-05-01T14:21:16Z</time></trkpt><trkpt lat="44.07468780007364" lon="15.28759182459431"><ele>27.0</ele><time>2026-05-01T14:21:17Z</time></trkpt><trkpt lat="44.07452858151058" lon="15.28761190847528"><ele>27.0</ele><time>2026-05-01T14:21:18Z</time></trkpt><trkpt lat="44.07436687935269" lon="15.287639609237406"><ele>27.0</ele><time>2026-05-01T14:21:19Z</time></trkpt><trkpt lat="44.07421139147859" lon="15.287664921698571"><ele>27.0</ele><time>2026-05-01T14:21:20Z</time></trkpt><trkpt lat="44.074050285322926" lon="15.287699814413182"><ele>25.333333333333332</ele><time>2026-05-01T14:21:21Z</time></trkpt><trkpt lat="44.073898912265165" lon="15.287738099640585"><ele>23.666666666666664</ele><time>2026-05-01T14:21:22Z</time></trkpt><trkpt lat="44.073750332803364" lon="15.287797947037392"><ele>22.0</ele><time>2026-05-01T14:21:23Z</time></trkpt><trkpt lat="44.073603258418046" lon="15.28787073919313"><ele>22.0</ele><time>2026-05-01T14:21:24Z</time></trkpt><trkpt lat="44.07345685068751" lon="15.287947124415366"><ele>22.0</ele><time>2026-05-01T14:21:25Z</time></trkpt><trkpt lat="44.073312390493996" lon="15.288032098090675"><ele>22.0</ele><time>2026-05-01T14:21:26Z</time></trkpt><trkpt lat="44.07317223312095" lon="15.288138430957288"><ele>23.0</ele><time>2026-05-01T14:21:27Z</time></trkpt><trkpt lat="44.07303810697059" lon="15.288253905987455"><ele>24.0</ele><time>2026-05-01T14:21:28Z</time></trkpt><trkpt lat="44.072910511410704" lon="15.288371471887597"><ele>25.0</ele><time>2026-05-01T14:21:29Z</time></trkpt><trkpt lat="44.07279039449684" lon="15.288503524543398"><ele>25.0</ele><time>2026-05-01T14:21:30Z</time></trkpt><trkpt lat="44.07267940282379" lon="15.28864689613727"><ele>25.0</ele><time>2026-05-01T14:21:31Z</time></trkpt><trkpt lat="44.07256302100987" lon="15.288780296488287"><ele>25.0</ele><time>2026-05-01T14:21:32Z</time></trkpt><trkpt lat="44.07245104271488" lon="15.288905606558757"><ele>25.0</ele><time>2026-05-01T14:21:33Z</time></trkpt><trkpt lat="44.07234483972641" lon="15.289039677217676"><ele>25.25</ele><time>2026-05-01T14:21:34Z</time></trkpt><trkpt lat="44.0722419807931" lon="15.289155036028259"><ele>25.5</ele><time>2026-05-01T14:21:35Z</time></trkpt><trkpt lat="44.07214152925438" lon="15.289282470773655"><ele>25.75</ele><time>2026-05-01T14:21:36Z</time></trkpt><trkpt lat="44.072041700879446" lon="15.289410513247777"><ele>26.0</ele><time>2026-05-01T14:21:37Z</time></trkpt><trkpt lat="44.07193586875712" lon="15.289534764536514"><ele>26.0</ele><time>2026-05-01T14:21:38Z</time></trkpt><trkpt lat="44.071832701587574" lon="15.289656541818442"><ele>26.0</ele><time>2026-05-01T14:21:39Z</time></trkpt><trkpt lat="44.07172111158636" lon="15.289777339022692"><ele>26.0</ele><time>2026-05-01T14:21:40Z</time></trkpt><trkpt lat="44.07160860268138" lon="15.289892929840805"><ele>26.0</ele><time>2026-05-01T14:21:41Z</time></trkpt><trkpt lat="44.071489968135744" lon="15.290009463921018"><ele>27.0</ele><time>2026-05-01T14:21:42Z</time></trkpt><trkpt lat="44.07136378682135" lon="15.29012536411889"><ele>28.0</ele><time>2026-05-01T14:21:43Z</time></trkpt><trkpt lat="44.07123151399488" lon="15.290235291743764"><ele>29.0</ele><time>2026-05-01T14:21:44Z</time></trkpt><trkpt lat="44.07108940294661" lon="15.290339314084127"><ele>29.0</ele><time>2026-05-01T14:21:45Z</time></trkpt><trkpt lat="44.0709579209549" lon="15.290431811626567"><ele>29.0</ele><time>2026-05-01T14:21:46Z</time></trkpt><trkpt lat="44.07081737515326" lon="15.290530443698927"><ele>29.0</ele><time>2026-05-01T14:21:47Z</time></trkpt><trkpt lat="44.07067944728922" lon="15.290616615814146"><ele>29.666666666666664</ele><time>2026-05-01T14:21:48Z</time></trkpt><trkpt lat="44.070543733516324" lon="15.290697584474113"><ele>30.333333333333336</ele><time>2026-05-01T14:21:49Z</time></trkpt><trkpt lat="44.07039434166468" lon="15.290772586785469"><ele>31.0</ele><time>2026-05-01T14:21:50Z</time></trkpt><trkpt lat="44.07025099853421" lon="15.290844687259288"><ele>31.0</ele><time>2026-05-01T14:21:51Z</time></trkpt><trkpt lat="44.07011069773177" lon="15.290908005185871"><ele>31.0</ele><time>2026-05-01T14:21:52Z</time></trkpt><trkpt lat="44.06997134257697" lon="15.290979343291086"><ele>31.0</ele><time>2026-05-01T14:21:53Z</time></trkpt><trkpt lat="44.06982453128698" lon="15.291061055132587"><ele>28.5</ele><time>2026-05-01T14:21:54Z</time></trkpt><trkpt lat="44.069529900912045" lon="15.291203135309939"><ele>26.0</ele><time>2026-05-01T14:21:56Z</time></trkpt><trkpt lat="44.069386655171364" lon="15.291275486641807"><ele>26.0</ele><time>2026-05-01T14:21:57Z</time></trkpt><trkpt lat="44.06924361655509" lon="15.291356800656"><ele>26.0</ele><time>2026-05-01T14:21:58Z</time></trkpt><trkpt lat="44.069102964249446" lon="15.291428792229635"><ele>26.0</ele><time>2026-05-01T14:21:59Z</time></trkpt><trkpt lat="44.06896769197471" lon="15.291510847949217"><ele>26.0</ele><time>2026-05-01T14:22:00Z</time></trkpt><trkpt lat="44.06883597225776" lon="15.291596942938739"><ele>26.0</ele><time>2026-05-01T14:22:01Z</time></trkpt><trkpt lat="44.06870870130702" lon="15.291686966532803"><ele>26.0</ele><time>2026-05-01T14:22:02Z</time></trkpt><trkpt lat="44.068583504934885" lon="15.291782612040633"><ele>26.0</ele><time>2026-05-01T14:22:03Z</time></trkpt><trkpt lat="44.06845823581036" lon="15.291884149740973"><ele>26.0</ele><time>2026-05-01T14:22:04Z</time></trkpt><trkpt lat="44.06834085043413" lon="15.291989332643997"><ele>26.0</ele><time>2026-05-01T14:22:05Z</time></trkpt><trkpt lat="44.068218384068516" lon="15.292085300361254"><ele>26.0</ele><time>2026-05-01T14:22:06Z</time></trkpt><trkpt lat="44.06809561822453" lon="15.292188110622863"><ele>26.0</ele><time>2026-05-01T14:22:07Z</time></trkpt><trkpt lat="44.067978166368725" lon="15.292286012981554"><ele>26.25</ele><time>2026-05-01T14:22:08Z</time></trkpt><trkpt lat="44.067855045357746" lon="15.292392938716945"><ele>26.5</ele><time>2026-05-01T14:22:09Z</time></trkpt><trkpt lat="44.06773592122004" lon="15.292499129504046"><ele>26.75</ele><time>2026-05-01T14:22:10Z</time></trkpt><trkpt lat="44.06761420857635" lon="15.29260653152835"><ele>27.0</ele><time>2026-05-01T14:22:11Z</time></trkpt><trkpt lat="44.067494152441164" lon="15.292707493865839"><ele>24.333333333333332</ele><time>2026-05-01T14:22:12Z</time></trkpt><trkpt lat="44.067375708594504" lon="15.292803821198751"><ele>21.666666666666664</ele><time>2026-05-01T14:22:13Z</time></trkpt><trkpt lat="44.06725563075779" lon="15.292894522202483"><ele>19.0</ele><time>2026-05-01T14:22:14Z</time></trkpt><trkpt lat="44.06700387798537" lon="15.293075007305108"><ele>19.333333333333332</ele><time>2026-05-01T14:22:16Z</time></trkpt><trkpt lat="44.066869906322154" lon="15.293162175400212"><ele>19.666666666666668</ele><time>2026-05-01T14:22:17Z</time></trkpt><trkpt lat="44.06673086088573" lon="15.29324244016243"><ele>20.0</ele><time>2026-05-01T14:22:18Z</time></trkpt><trkpt lat="44.066587626566076" lon="15.293322178668063"><ele>20.0</ele><time>2026-05-01T14:22:19Z</time></trkpt><trkpt lat="44.06643863833384" lon="15.293401106421245"><ele>20.0</ele><time>2026-05-01T14:22:20Z</time></trkpt><trkpt lat="44.06629217358317" lon="15.293479904395797"><ele>20.0</ele><time>2026-05-01T14:22:21Z</time></trkpt><trkpt lat="44.066147242664265" lon="15.293553173048055"><ele>20.0</ele><time>2026-05-01T14:22:22Z</time></trkpt><trkpt lat="44.06600120928868" lon="15.293619959215786"><ele>20.0</ele><time>2026-05-01T14:22:23Z</time></trkpt><trkpt lat="44.06585681416229" lon="15.293678531188986"><ele>20.0</ele><time>2026-05-01T14:22:24Z</time></trkpt><trkpt lat="44.065718067681864" lon="15.293741145613145"><ele>20.0</ele><time>2026-05-01T14:22:25Z</time></trkpt><trkpt lat="44.065584923189824" lon="15.293802367609755"><ele>20.0</ele><time>2026-05-01T14:22:26Z</time></trkpt><trkpt lat="44.06544883979447" lon="15.293860799330883"><ele>20.0</ele><time>2026-05-01T14:22:27Z</time></trkpt><trkpt lat="44.06531823441988" lon="15.293923649748573"><ele>20.0</ele><time>2026-05-01T14:22:28Z</time></trkpt><trkpt lat="44.065187700794574" lon="15.293984696563774"><ele>20.0</ele><time>2026-05-01T14:22:29Z</time></trkpt><trkpt lat="44.06505670570168" lon="15.294039605994179"><ele>20.0</ele><time>2026-05-01T14:22:30Z</time></trkpt><trkpt lat="44.064930113754606" lon="15.294117891707206"><ele>20.0</ele><time>2026-05-01T14:22:31Z</time></trkpt><trkpt lat="44.06480156533192" lon="15.294154531359553"><ele>20.0</ele><time>2026-05-01T14:22:32Z</time></trkpt><trkpt lat="44.064670430876866" lon="15.294205413384498"><ele>19.25</ele><time>2026-05-01T14:22:33Z</time></trkpt><trkpt lat="44.06454579675708" lon="15.294274045295921"><ele>18.5</ele><time>2026-05-01T14:22:34Z</time></trkpt><trkpt lat="44.06441173951926" lon="15.294322798783623"><ele>17.75</ele><time>2026-05-01T14:22:35Z</time></trkpt><trkpt lat="44.06429080204913" lon="15.2943913103738"><ele>17.0</ele><time>2026-05-01T14:22:36Z</time></trkpt><trkpt lat="44.06416120882016" lon="15.294453929383897"><ele>16.25</ele><time>2026-05-01T14:22:37Z</time></trkpt><trkpt lat="44.0640221369028" lon="15.294509735724008"><ele>15.5</ele><time>2026-05-01T14:22:38Z</time></trkpt><trkpt lat="44.06388031333975" lon="15.294564864909331"><ele>14.75</ele><time>2026-05-01T14:22:39Z</time></trkpt><trkpt lat="44.063742634983555" lon="15.294631464289848"><ele>14.0</ele><time>2026-05-01T14:22:40Z</time></trkpt><trkpt lat="44.0636026838444" lon="15.294703920402688"><ele>14.666666666666668</ele><time>2026-05-01T14:22:41Z</time></trkpt><trkpt lat="44.063461192606766" lon="15.294767835713545"><ele>15.333333333333332</ele><time>2026-05-01T14:22:42Z</time></trkpt><trkpt lat="44.06332470326753" lon="15.294856257278674"><ele>16.0</ele><time>2026-05-01T14:22:43Z</time></trkpt><trkpt lat="44.06317704751693" lon="15.294908436569184"><ele>15.0</ele><time>2026-05-01T14:22:44Z</time></trkpt><trkpt lat="44.063041571910595" lon="15.294959990698386"><ele>14.0</ele><time>2026-05-01T14:22:45Z</time></trkpt><trkpt lat="44.06290172294168" lon="15.295026683018403"><ele>13.0</ele><time>2026-05-01T14:22:46Z</time></trkpt><trkpt lat="44.06277025767205" lon="15.295094122341919"><ele>12.0</ele><time>2026-05-01T14:22:47Z</time></trkpt><trkpt lat="44.06263564523007" lon="15.295159189660279"><ele>12.0</ele><time>2026-05-01T14:22:48Z</time></trkpt><trkpt lat="44.06250107942906" lon="15.295228358484515"><ele>12.0</ele><time>2026-05-01T14:22:49Z</time></trkpt><trkpt lat="44.06236800078267" lon="15.295311854102177"><ele>12.0</ele><time>2026-05-01T14:22:50Z</time></trkpt><trkpt lat="44.062234663972255" lon="15.295408242316876"><ele>12.0</ele><time>2026-05-01T14:22:51Z</time></trkpt><trkpt lat="44.06210081154802" lon="15.295516077673014"><ele>11.333333333333334</ele><time>2026-05-01T14:22:52Z</time></trkpt><trkpt lat="44.061962400574686" lon="15.29563080758502"><ele>10.666666666666668</ele><time>2026-05-01T14:22:53Z</time></trkpt><trkpt lat="44.06182131852335" lon="15.295751028035713"><ele>10.0</ele><time>2026-05-01T14:22:54Z</time></trkpt><trkpt lat="44.061684049881855" lon="15.295879360345953"><ele>8.666666666666668</ele><time>2026-05-01T14:22:55Z</time></trkpt><trkpt lat="44.061541663028436" lon="15.296018875996443"><ele>7.333333333333334</ele><time>2026-05-01T14:22:56Z</time></trkpt><trkpt lat="44.061377535055215" lon="15.296186026451212"><ele>6.0</ele><time>2026-05-01T14:22:57Z</time></trkpt><trkpt lat="44.061176380013116" lon="15.296370126218788"><ele>6.5</ele><time>2026-05-01T14:22:58Z</time></trkpt><trkpt lat="44.060969497446706" lon="15.296575918122738"><ele>7.0</ele><time>2026-05-01T14:22:59Z</time></trkpt><trkpt lat="44.06076909031389" lon="15.296778784902761"><ele>7.0</ele><time>2026-05-01T14:23:00Z</time></trkpt><trkpt lat="44.06059457838852" lon="15.296983021746334"><ele>7.0</ele><time>2026-05-01T14:23:01Z</time></trkpt><trkpt lat="44.06041835967511" lon="15.29713858659755"><ele>7.0</ele><time>2026-05-01T14:23:02Z</time></trkpt><trkpt lat="44.06026420543827" lon="15.2972996288153"><ele>7.0</ele><time>2026-05-01T14:23:03Z</time></trkpt><trkpt lat="44.060118839275006" lon="15.297451157497337"><ele>7.0</ele><time>2026-05-01T14:23:04Z</time></trkpt><trkpt lat="44.0599965967261" lon="15.297579521742888"><ele>7.0</ele><time>2026-05-01T14:23:05Z</time></trkpt><trkpt lat="44.05989193529288" lon="15.297688950577216"><ele>6.25</ele><time>2026-05-01T14:23:06Z</time></trkpt><trkpt lat="44.05978543909484" lon="15.297800059552493"><ele>5.5</ele><time>2026-05-01T14:23:07Z</time></trkpt><trkpt lat="44.059678888880285" lon="15.297937400471925"><ele>4.75</ele><time>2026-05-01T14:23:08Z</time></trkpt><trkpt lat="44.059556854483795" lon="15.298053474795427"><ele>4.0</ele><time>2026-05-01T14:23:09Z</time></trkpt><trkpt lat="44.05943891131362" lon="15.29818248386401"><ele>4.0</ele><time>2026-05-01T14:23:10Z</time></trkpt><trkpt lat="44.059321893351026" lon="15.298303905759727"><ele>4.0</ele><time>2026-05-01T14:23:11Z</time></trkpt><trkpt lat="44.059195494799624" lon="15.298414230536915"><ele>4.0</ele><time>2026-05-01T14:23:12Z</time></trkpt><trkpt lat="44.05907255241372" lon="15.29855601888577"><ele>2.6666666666666665</ele><time>2026-05-01T14:23:13Z</time></trkpt><trkpt lat="44.058938834567904" lon="15.298693781949543"><ele>1.3333333333333333</ele><time>2026-05-01T14:23:14Z</time></trkpt><trkpt lat="44.058812969599046" lon="15.298826796841794"><ele>0.0</ele><time>2026-05-01T14:23:15Z</time></trkpt><trkpt lat="44.058684329587805" lon="15.298948368216857"><ele>0.0</ele><time>2026-05-01T14:23:16Z</time></trkpt><trkpt lat="44.05855981245736" lon="15.299084844959086"><ele>0.0</ele><time>2026-05-01T14:23:17Z</time></trkpt><trkpt lat="44.058431549490074" lon="15.299225597800266"><ele>0.0</ele><time>2026-05-01T14:23:18Z</time></trkpt><trkpt lat="44.058311609294165" lon="15.299365050021438"><ele>-0.3333333333333333</ele><time>2026-05-01T14:23:19Z</time></trkpt><trkpt lat="44.0581869664076" lon="15.299494112462568"><ele>-0.6666666666666666</ele><time>2026-05-01T14:23:20Z</time></trkpt><trkpt lat="44.05806386384515" lon="15.299633714032097"><ele>-1.0</ele><time>2026-05-01T14:23:21Z</time></trkpt><trkpt lat="44.057941107559444" lon="15.299773038299818"><ele>-1.0</ele><time>2026-05-01T14:23:22Z</time></trkpt><trkpt lat="44.05781106907475" lon="15.299921590986504"><ele>-1.0</ele><time>2026-05-01T14:23:23Z</time></trkpt><trkpt lat="44.05768407607565" lon="15.30008906636994"><ele>-1.0</ele><time>2026-05-01T14:23:24Z</time></trkpt><trkpt lat="44.057562738399625" lon="15.30026567481818"><ele>-1.0</ele><time>2026-05-01T14:23:25Z</time></trkpt><trkpt lat="44.05745045733367" lon="15.300449527524668"><ele>-1.0</ele><time>2026-05-01T14:23:26Z</time></trkpt><trkpt lat="44.05734917355958" lon="15.300627313533413"><ele>-1.0</ele><time>2026-05-01T14:23:27Z</time></trkpt><trkpt lat="44.057235140079975" lon="15.300797636509959"><ele>-0.6666666666666666</ele><time>2026-05-01T14:23:28Z</time></trkpt><trkpt lat="44.05714350604991" lon="15.300977713202796"><ele>-0.3333333333333333</ele><time>2026-05-01T14:23:29Z</time></trkpt><trkpt lat="44.05707364373639" lon="15.30116513776063"><ele>0.0</ele><time>2026-05-01T14:23:30Z</time></trkpt><trkpt lat="44.05699525313926" lon="15.301331084015224"><ele>0.0</ele><time>2026-05-01T14:23:31Z</time></trkpt><trkpt lat="44.0569194085253" lon="15.301506059066831"><ele>0.0</ele><time>2026-05-01T14:23:32Z</time></trkpt><trkpt lat="44.056849074004234" lon="15.301691851306236"><ele>0.0</ele><time>2026-05-01T14:23:33Z</time></trkpt><trkpt lat="44.056780152394445" lon="15.301884946611588"><ele>0.0</ele><time>2026-05-01T14:23:34Z</time></trkpt><trkpt lat="44.0567163625548" lon="15.302084443853529"><ele>0.0</ele><time>2026-05-01T14:23:35Z</time></trkpt><trkpt lat="44.0566604908211" lon="15.302283178081238"><ele>0.0</ele><time>2026-05-01T14:23:36Z</time></trkpt><trkpt lat="44.05661195262538" lon="15.302452751611444"><ele>0.0</ele><time>2026-05-01T14:23:37Z</time></trkpt><trkpt lat="44.056570676606036" lon="15.30259713371261"><ele>0.0</ele><time>2026-05-01T14:23:38Z</time></trkpt><trkpt lat="44.05654080727622" lon="15.302723312208348"><ele>0.0</ele><time>2026-05-01T14:23:39Z</time></trkpt><trkpt lat="44.056510362033556" lon="15.3028225870436"><ele>0.0</ele><time>2026-05-01T14:23:40Z</time></trkpt><trkpt lat="44.05647062681888" lon="15.30297027178848"><ele>0.0</ele><time>2026-05-01T14:23:42Z</time></trkpt><trkpt lat="44.05643657882706" lon="15.303079546344543"><ele>0.0</ele><time>2026-05-01T14:23:44Z</time></trkpt><trkpt lat="44.05641937755352" lon="15.303167745127848"><ele>0.0</ele><time>2026-05-01T14:23:47Z</time></trkpt><trkpt lat="44.05642578574974" lon="15.303289482671788"><ele>0.0</ele><time>2026-05-01T14:28:10Z</time></trkpt><trkpt lat="44.05637947040536" lon="15.303432420913472"><ele>0.0</ele><time>2026-05-01T14:28:12Z</time></trkpt><trkpt lat="44.05635484424221" lon="15.303538902119158"><ele>0.0</ele><time>2026-05-01T14:28:13Z</time></trkpt><trkpt lat="44.05632589517449" lon="15.303664074820798"><ele>0.0</ele><time>2026-05-01T14:28:14Z</time></trkpt><trkpt lat="44.056297580642415" lon="15.30379302001467"><ele>0.0</ele><time>2026-05-01T14:28:15Z</time></trkpt><trkpt lat="44.056269462089" lon="15.303922229042813"><ele>0.0</ele><time>2026-05-01T14:28:16Z</time></trkpt><trkpt lat="44.056236685710005" lon="15.304070708590045"><ele>0.0</ele><time>2026-05-01T14:28:17Z</time></trkpt><trkpt lat="44.056218217916374" lon="15.304219918589887"><ele>0.0</ele><time>2026-05-01T14:28:18Z</time></trkpt><trkpt lat="44.0561798719096" lon="15.304354619899025"><ele>0.0</ele><time>2026-05-01T14:28:19Z</time></trkpt><trkpt lat="44.056147640514" lon="15.30450123694122"><ele>0.0</ele><time>2026-05-01T14:28:20Z</time></trkpt><trkpt lat="44.056110271093196" lon="15.304657526128594"><ele>0.25</ele><time>2026-05-01T14:28:21Z</time></trkpt><trkpt lat="44.05606772627492" lon="15.304814032557616"><ele>0.5</ele><time>2026-05-01T14:28:22Z</time></trkpt><trkpt lat="44.0560252072518" lon="15.304981651948738"><ele>0.75</ele><time>2026-05-01T14:28:23Z</time></trkpt><trkpt lat="44.055980949499286" lon="15.305158376698678"><ele>1.0</ele><time>2026-05-01T14:28:24Z</time></trkpt><trkpt lat="44.05593556224379" lon="15.305338107746506"><ele>1.0</ele><time>2026-05-01T14:28:25Z</time></trkpt><trkpt lat="44.05589068234953" lon="15.305516061995121"><ele>1.0</ele><time>2026-05-01T14:28:26Z</time></trkpt><trkpt lat="44.055838628900794" lon="15.305684611729134"><ele>1.0</ele><time>2026-05-01T14:28:27Z</time></trkpt><trkpt lat="44.05578733769315" lon="15.305845026507829"><ele>1.0</ele><time>2026-05-01T14:28:28Z</time></trkpt><trkpt lat="44.055725182660574" lon="15.306008133324495"><ele>0.5</ele><time>2026-05-01T14:28:29Z</time></trkpt><trkpt lat="44.05565663961286" lon="15.3061729052927"><ele>0.0</ele><time>2026-05-01T14:28:30Z</time></trkpt><trkpt lat="44.055586494992674" lon="15.306346113171314"><ele>-0.5</ele><time>2026-05-01T14:28:31Z</time></trkpt><trkpt lat="44.05550107402046" lon="15.306526162405378"><ele>-1.0</ele><time>2026-05-01T14:28:32Z</time></trkpt><trkpt lat="44.05540032949499" lon="15.30670327387139"><ele>-1.0</ele><time>2026-05-01T14:28:33Z</time></trkpt><trkpt lat="44.05530123734467" lon="15.30689909855144"><ele>-1.0</ele><time>2026-05-01T14:28:34Z</time></trkpt><trkpt lat="44.05519135648382" lon="15.307085020667209"><ele>-1.0</ele><time>2026-05-01T14:28:35Z</time></trkpt><trkpt lat="44.05505245812574" lon="15.307243689919217"><ele>-1.6666666666666665</ele><time>2026-05-01T14:28:36Z</time></trkpt><trkpt lat="44.054908550553655" lon="15.307401597891625"><ele>-2.3333333333333335</ele><time>2026-05-01T14:28:37Z</time></trkpt><trkpt lat="44.054762752884415" lon="15.307558052788098"><ele>-3.0</ele><time>2026-05-01T14:28:38Z</time></trkpt><trkpt lat="44.05462723176407" lon="15.307684434407097"><ele>-3.0</ele><time>2026-05-01T14:28:39Z</time></trkpt><trkpt lat="44.0544975203335" lon="15.307802057212708"><ele>-3.0</ele><time>2026-05-01T14:28:40Z</time></trkpt><trkpt lat="44.05436609694877" lon="15.307919649887154"><ele>-3.0</ele><time>2026-05-01T14:28:41Z</time></trkpt><trkpt lat="44.054228024828674" lon="15.308036391932216"><ele>-3.0</ele><time>2026-05-01T14:28:42Z</time></trkpt><trkpt lat="44.0540855253563" lon="15.30814309129307"><ele>-3.0</ele><time>2026-05-01T14:28:43Z</time></trkpt><trkpt lat="44.05394516434517" lon="15.30824556521898"><ele>-3.0</ele><time>2026-05-01T14:28:44Z</time></trkpt><trkpt lat="44.05380157151855" lon="15.308342584078083"><ele>-3.0</ele><time>2026-05-01T14:28:45Z</time></trkpt><trkpt lat="44.05365797042697" lon="15.308450395611576"><ele>-3.0</ele><time>2026-05-01T14:28:46Z</time></trkpt><trkpt lat="44.053520643017244" lon="15.308570562159087"><ele>-3.0</ele><time>2026-05-01T14:28:47Z</time></trkpt><trkpt lat="44.05339265110132" lon="15.308699075382432"><ele>-3.0</ele><time>2026-05-01T14:28:48Z</time></trkpt><trkpt lat="44.053274313008615" lon="15.30883135867627"><ele>-3.0</ele><time>2026-05-01T14:28:49Z</time></trkpt><trkpt lat="44.053154711287185" lon="15.30898064322971"><ele>-3.0</ele><time>2026-05-01T14:28:50Z</time></trkpt><trkpt lat="44.05304478146463" lon="15.309137138187683"><ele>-3.0</ele><time>2026-05-01T14:28:51Z</time></trkpt><trkpt lat="44.05294153213311" lon="15.309296584089687"><ele>-3.0</ele><time>2026-05-01T14:28:52Z</time></trkpt><trkpt lat="44.052848378321364" lon="15.3094538647105"><ele>-3.0</ele><time>2026-05-01T14:28:53Z</time></trkpt><trkpt lat="44.052759473426626" lon="15.309614726349109"><ele>-3.0</ele><time>2026-05-01T14:28:54Z</time></trkpt><trkpt lat="44.052667445620266" lon="15.30977040148002"><ele>-2.6666666666666665</ele><time>2026-05-01T14:28:55Z</time></trkpt><trkpt lat="44.052567642884775" lon="15.30993169767345"><ele>-2.333333333333333</ele><time>2026-05-01T14:28:56Z</time></trkpt><trkpt lat="44.05245937754397" lon="15.310108142734776"><ele>-2.0</ele><time>2026-05-01T14:28:57Z</time></trkpt><trkpt lat="44.05233960142251" lon="15.310310536903678"><ele>-1.5</ele><time>2026-05-01T14:28:58Z</time></trkpt><trkpt lat="44.05222777992628" lon="15.310491555620395"><ele>-1.0</ele><time>2026-05-01T14:28:59Z</time></trkpt><trkpt lat="44.05213932071059" lon="15.31064164699639"><ele>-0.5</ele><time>2026-05-01T14:29:00Z</time></trkpt><trkpt lat="44.052065173396336" lon="15.310776505003359"><ele>0.0</ele><time>2026-05-01T14:29:01Z</time></trkpt><trkpt lat="44.05199706767362" lon="15.310896504330332"><ele>-0.8</ele><time>2026-05-01T14:29:02Z</time></trkpt><trkpt lat="44.05193951627271" lon="15.310992353893834"><ele>-1.6</ele><time>2026-05-01T14:29:03Z</time></trkpt><trkpt lat="44.05189229876948" lon="15.311063711729489"><ele>-2.4000000000000004</ele><time>2026-05-01T14:29:04Z</time></trkpt><trkpt lat="44.05183077885786" lon="15.311152105305712"><ele>-3.2</ele><time>2026-05-01T14:29:06Z</time></trkpt><trkpt lat="44.05177803434686" lon="15.311229261073152"><ele>-4.0</ele><time>2026-05-01T14:29:08Z</time></trkpt><trkpt lat="44.051681294153155" lon="15.31134340714334"><ele>-3.2</ele><time>2026-05-01T14:29:10Z</time></trkpt><trkpt lat="44.05160517183973" lon="15.311417814796709"><ele>-2.4000000000000004</ele><time>2026-05-01T14:29:11Z</time></trkpt><trkpt lat="44.05151613255089" lon="15.311510348147204"><ele>-1.6</ele><time>2026-05-01T14:29:12Z</time></trkpt><trkpt lat="44.051419456843" lon="15.311601704751071"><ele>-0.8</ele><time>2026-05-01T14:29:13Z</time></trkpt><trkpt lat="44.05131523777573" lon="15.311677885513408"><ele>0.0</ele><time>2026-05-01T14:29:14Z</time></trkpt><trkpt lat="44.05119729786023" lon="15.311726021250365"><ele>0.0</ele><time>2026-05-01T14:29:15Z</time></trkpt><trkpt lat="44.05106861797671" lon="15.31176400998273"><ele>0.0</ele><time>2026-05-01T14:29:16Z</time></trkpt><trkpt lat="44.05093719668636" lon="15.311820226465331"><ele>0.0</ele><time>2026-05-01T14:29:17Z</time></trkpt><trkpt lat="44.05080258164392" lon="15.311846470164747"><ele>0.0</ele><time>2026-05-01T14:29:18Z</time></trkpt><trkpt lat="44.05067148311104" lon="15.311854896960634"><ele>0.25</ele><time>2026-05-01T14:29:19Z</time></trkpt><trkpt lat="44.05053728243003" lon="15.311874215741103"><ele>0.5</ele><time>2026-05-01T14:29:20Z</time></trkpt><trkpt lat="44.05040277605744" lon="15.311888046415598"><ele>0.75</ele><time>2026-05-01T14:29:21Z</time></trkpt><trkpt lat="44.05027571129761" lon="15.311896233277254"><ele>1.0</ele><time>2026-05-01T14:29:22Z</time></trkpt><trkpt lat="44.05015472862924" lon="15.311909404859135"><ele>1.0</ele><time>2026-05-01T14:29:23Z</time></trkpt><trkpt lat="44.050030007890804" lon="15.311925350817111"><ele>1.0</ele><time>2026-05-01T14:29:24Z</time></trkpt><trkpt lat="44.04990550769453" lon="15.311938784801253"><ele>1.0</ele><time>2026-05-01T14:29:25Z</time></trkpt><trkpt lat="44.04978762738694" lon="15.31195890175411"><ele>1.0</ele><time>2026-05-01T14:29:26Z</time></trkpt><trkpt lat="44.04967787542926" lon="15.311980672762346"><ele>1.0</ele><time>2026-05-01T14:29:27Z</time></trkpt><trkpt lat="44.04956048153031" lon="15.312015807478245"><ele>1.0</ele><time>2026-05-01T14:29:28Z</time></trkpt><trkpt lat="44.04943871716656" lon="15.312069308011715"><ele>1.0</ele><time>2026-05-01T14:29:29Z</time></trkpt><trkpt lat="44.04931558004083" lon="15.312126149298582"><ele>1.0</ele><time>2026-05-01T14:29:30Z</time></trkpt><trkpt lat="44.04918468283645" lon="15.312187356544548"><ele>1.25</ele><time>2026-05-01T14:29:31Z</time></trkpt><trkpt lat="44.04905247958" lon="15.312263226881344"><ele>1.5</ele><time>2026-05-01T14:29:32Z</time></trkpt><trkpt lat="44.04892180699321" lon="15.312354235880548"><ele>1.75</ele><time>2026-05-01T14:29:33Z</time></trkpt><trkpt lat="44.048795201772165" lon="15.31244966825109"><ele>2.0</ele><time>2026-05-01T14:29:34Z</time></trkpt><trkpt lat="44.04867395120317" lon="15.312548982476383"><ele>2.0</ele><time>2026-05-01T14:29:35Z</time></trkpt><trkpt lat="44.04854948908625" lon="15.312645894093794"><ele>2.0</ele><time>2026-05-01T14:29:36Z</time></trkpt><trkpt lat="44.04842384182847" lon="15.312750064082147"><ele>2.0</ele><time>2026-05-01T14:29:37Z</time></trkpt><trkpt lat="44.04828910231396" lon="15.312850925117463"><ele>2.0</ele><time>2026-05-01T14:29:38Z</time></trkpt><trkpt lat="44.048155640424646" lon="15.312954192376168"><ele>2.333333333333333</ele><time>2026-05-01T14:29:39Z</time></trkpt><trkpt lat="44.04801627148531" lon="15.313060853497038"><ele>2.6666666666666665</ele><time>2026-05-01T14:29:40Z</time></trkpt><trkpt lat="44.04787830596244" lon="15.313168362265232"><ele>3.0</ele><time>2026-05-01T14:29:41Z</time></trkpt><trkpt lat="44.04774432268054" lon="15.313269805096775"><ele>3.0</ele><time>2026-05-01T14:29:42Z</time></trkpt><trkpt lat="44.047613907964326" lon="15.31337289538663"><ele>3.0</ele><time>2026-05-01T14:29:43Z</time></trkpt><trkpt lat="44.047480562436505" lon="15.313476665974958"><ele>3.0</ele><time>2026-05-01T14:29:44Z</time></trkpt><trkpt lat="44.04734722822436" lon="15.313578495810555"><ele>3.0</ele><time>2026-05-01T14:29:45Z</time></trkpt><trkpt lat="44.047217119060114" lon="15.313678239700087"><ele>3.0</ele><time>2026-05-01T14:29:46Z</time></trkpt><trkpt lat="44.04708380616345" lon="15.313778154228157"><ele>3.0</ele><time>2026-05-01T14:29:47Z</time></trkpt><trkpt lat="44.046955971189604" lon="15.313886149931587"><ele>3.0</ele><time>2026-05-01T14:29:48Z</time></trkpt><trkpt lat="44.04683250057675" lon="15.313996667254003"><ele>3.0</ele><time>2026-05-01T14:29:49Z</time></trkpt><trkpt lat="44.04671093472369" lon="15.314105932766484"><ele>3.0</ele><time>2026-05-01T14:29:50Z</time></trkpt><trkpt lat="44.04658784285682" lon="15.314224127155697"><ele>3.0</ele><time>2026-05-01T14:29:51Z</time></trkpt><trkpt lat="44.046456595496096" lon="15.314342819702656"><ele>3.0</ele><time>2026-05-01T14:29:52Z</time></trkpt><trkpt lat="44.04633027510151" lon="15.314451240740672"><ele>3.0</ele><time>2026-05-01T14:29:53Z</time></trkpt><trkpt lat="44.0462236038419" lon="15.314562360245166"><ele>3.0</ele><time>2026-05-01T14:29:54Z</time></trkpt><trkpt lat="44.04612868796662" lon="15.314662110175917"><ele>3.0</ele><time>2026-05-01T14:29:55Z</time></trkpt><trkpt lat="44.04603651762828" lon="15.314754270202817"><ele>3.2</ele><time>2026-05-01T14:29:56Z</time></trkpt><trkpt lat="44.045953594532605" lon="15.31484327301024"><ele>3.4</ele><time>2026-05-01T14:29:57Z</time></trkpt><trkpt lat="44.045872891461165" lon="15.314920701329"><ele>3.6000000000000005</ele><time>2026-05-01T14:29:58Z</time></trkpt><trkpt lat="44.045796995657504" lon="15.315005137893882"><ele>3.8000000000000003</ele><time>2026-05-01T14:29:59Z</time></trkpt><trkpt lat="44.04572473168854" lon="15.31508697670922"><ele>4.0</ele><time>2026-05-01T14:30:00Z</time></trkpt><trkpt lat="44.04566184137589" lon="15.315162526761204"><ele>4.285714285714286</ele><time>2026-05-01T14:30:01Z</time></trkpt><trkpt lat="44.04560360323897" lon="15.31522846073196"><ele>4.571428571428571</ele><time>2026-05-01T14:30:02Z</time></trkpt><trkpt lat="44.045548411253215" lon="15.31528902864777"><ele>4.857142857142857</ele><time>2026-05-01T14:30:03Z</time></trkpt><trkpt lat="44.04549496689661" lon="15.315351752929471"><ele>5.142857142857142</ele><time>2026-05-01T14:30:04Z</time></trkpt><trkpt lat="44.04543893166811" lon="15.315421437283423"><ele>5.428571428571429</ele><time>2026-05-01T14:30:05Z</time></trkpt><trkpt lat="44.04538082001044" lon="15.31549446484903"><ele>5.7142857142857135</ele><time>2026-05-01T14:30:06Z</time></trkpt><trkpt lat="44.0453239524287" lon="15.315560389545828"><ele>6.0</ele><time>2026-05-01T14:30:07Z</time></trkpt><trkpt lat="44.045262693652084" lon="15.315633851514585"><ele>6.0</ele><time>2026-05-01T14:30:08Z</time></trkpt><trkpt lat="44.045200310609076" lon="15.315706549190114"><ele>6.0</ele><time>2026-05-01T14:30:09Z</time></trkpt><trkpt lat="44.04513009551621" lon="15.315784880357581"><ele>6.0</ele><time>2026-05-01T14:30:10Z</time></trkpt><trkpt lat="44.04506247511589" lon="15.315875246035905"><ele>6.0</ele><time>2026-05-01T14:30:11Z</time></trkpt><trkpt lat="44.04498977761557" lon="15.315976912809928"><ele>6.0</ele><time>2026-05-01T14:30:12Z</time></trkpt><trkpt lat="44.04491031536491" lon="15.31607014921716"><ele>6.25</ele><time>2026-05-01T14:30:13Z</time></trkpt><trkpt lat="44.04483128801655" lon="15.316157205039387"><ele>6.5</ele><time>2026-05-01T14:30:14Z</time></trkpt><trkpt lat="44.0447468634157" lon="15.316255457319581"><ele>6.75</ele><time>2026-05-01T14:30:15Z</time></trkpt><trkpt lat="44.044659795906995" lon="15.316370477246936"><ele>7.0</ele><time>2026-05-01T14:30:16Z</time></trkpt><trkpt lat="44.04457651257096" lon="15.31649868033158"><ele>7.0</ele><time>2026-05-01T14:30:17Z</time></trkpt><trkpt lat="44.04448097252792" lon="15.316602513509672"><ele>7.0</ele><time>2026-05-01T14:30:18Z</time></trkpt><trkpt lat="44.04439156238288" lon="15.316719062077135"><ele>7.0</ele><time>2026-05-01T14:30:19Z</time></trkpt><trkpt lat="44.04429677489646" lon="15.316840648147249"><ele>7.0</ele><time>2026-05-01T14:30:20Z</time></trkpt><trkpt lat="44.0442005069232" lon="15.316947616542402"><ele>6.75</ele><time>2026-05-01T14:30:21Z</time></trkpt><trkpt lat="44.044103578549766" lon="15.317071438809794"><ele>6.5</ele><time>2026-05-01T14:30:22Z</time></trkpt><trkpt lat="44.043999601152656" lon="15.317185629490735"><ele>6.25</ele><time>2026-05-01T14:30:23Z</time></trkpt><trkpt lat="44.04391745930788" lon="15.317293482183432"><ele>6.0</ele><time>2026-05-01T14:30:24Z</time></trkpt><trkpt lat="44.04383183092166" lon="15.317407116176495"><ele>6.0</ele><time>2026-05-01T14:30:25Z</time></trkpt><trkpt lat="44.043733095310905" lon="15.317513367691248"><ele>6.0</ele><time>2026-05-01T14:30:26Z</time></trkpt><trkpt lat="44.04364312967433" lon="15.317616993408745"><ele>6.0</ele><time>2026-05-01T14:30:27Z</time></trkpt><trkpt lat="44.0435565627886" lon="15.317737891921537"><ele>6.0</ele><time>2026-05-01T14:30:28Z</time></trkpt><trkpt lat="44.04347208639577" lon="15.317863662294915"><ele>6.0</ele><time>2026-05-01T14:30:29Z</time></trkpt><trkpt lat="44.04338335915378" lon="15.317991681840553"><ele>6.0</ele><time>2026-05-01T14:30:30Z</time></trkpt><trkpt lat="44.04329833432872" lon="15.318140019541945"><ele>6.0</ele><time>2026-05-01T14:30:31Z</time></trkpt><trkpt lat="44.043203538606534" lon="15.318278491432535"><ele>6.0</ele><time>2026-05-01T14:30:32Z</time></trkpt><trkpt lat="44.04310278851741" lon="15.318415054628984"><ele>6.0</ele><time>2026-05-01T14:30:33Z</time></trkpt><trkpt lat="44.04301815873845" lon="15.3185741439587"><ele>6.0</ele><time>2026-05-01T14:30:34Z</time></trkpt><trkpt lat="44.042919252852684" lon="15.31872280925329"><ele>6.0</ele><time>2026-05-01T14:30:35Z</time></trkpt><trkpt lat="44.042817928864714" lon="15.318872008569215"><ele>6.0</ele><time>2026-05-01T14:30:36Z</time></trkpt><trkpt lat="44.04271286047768" lon="15.319051136597217"><ele>6.0</ele><time>2026-05-01T14:30:37Z</time></trkpt><trkpt lat="44.04260588106596" lon="15.319208786004"><ele>6.0</ele><time>2026-05-01T14:30:38Z</time></trkpt><trkpt lat="44.042500369726625" lon="15.319362773780986"><ele>6.0</ele><time>2026-05-01T14:30:39Z</time></trkpt><trkpt lat="44.04240218747546" lon="15.319517651816636"><ele>6.0</ele><time>2026-05-01T14:30:40Z</time></trkpt><trkpt lat="44.04230498684008" lon="15.31966592201294"><ele>6.0</ele><time>2026-05-01T14:30:41Z</time></trkpt><trkpt lat="44.042211374474704" lon="15.319802209501779"><ele>6.0</ele><time>2026-05-01T14:30:42Z</time></trkpt><trkpt lat="44.042121050270794" lon="15.319938218581871"><ele>6.0</ele><time>2026-05-01T14:30:43Z</time></trkpt><trkpt lat="44.04204339895336" lon="15.320067488644854"><ele>6.0</ele><time>2026-05-01T14:30:44Z</time></trkpt><trkpt lat="44.04196595612049" lon="15.32018854791324"><ele>6.0</ele><time>2026-05-01T14:30:45Z</time></trkpt><trkpt lat="44.041876055399484" lon="15.320317405251641"><ele>6.0</ele><time>2026-05-01T14:30:46Z</time></trkpt><trkpt lat="44.04178251590268" lon="15.320455870318625"><ele>6.0</ele><time>2026-05-01T14:30:47Z</time></trkpt><trkpt lat="44.04168029315468" lon="15.320587982844659"><ele>6.0</ele><time>2026-05-01T14:30:48Z</time></trkpt><trkpt lat="44.041566611562814" lon="15.320719957285798"><ele>6.0</ele><time>2026-05-01T14:30:49Z</time></trkpt><trkpt lat="44.04145867680763" lon="15.320859494004736"><ele>6.0</ele><time>2026-05-01T14:30:50Z</time></trkpt><trkpt lat="44.04133385186422" lon="15.3209802294949"><ele>6.0</ele><time>2026-05-01T14:30:51Z</time></trkpt><trkpt lat="44.04120948324893" lon="15.321084974082599"><ele>6.0</ele><time>2026-05-01T14:30:52Z</time></trkpt><trkpt lat="44.04110285789324" lon="15.321225772550212"><ele>6.0</ele><time>2026-05-01T14:30:53Z</time></trkpt><trkpt lat="44.04098976006395" lon="15.321351808289599"><ele>6.0</ele><time>2026-05-01T14:30:54Z</time></trkpt><trkpt lat="44.040873789924994" lon="15.32145869310355"><ele>6.0</ele><time>2026-05-01T14:30:55Z</time></trkpt><trkpt lat="44.04077599155501" lon="15.321597888525986"><ele>5.75</ele><time>2026-05-01T14:30:56Z</time></trkpt><trkpt lat="44.04069636016151" lon="15.321747500054405"><ele>5.5</ele><time>2026-05-01T14:30:57Z</time></trkpt><trkpt lat="44.04062182857188" lon="15.321898343946096"><ele>5.25</ele><time>2026-05-01T14:30:58Z</time></trkpt><trkpt lat="44.040550790548906" lon="15.322056140540587"><ele>5.0</ele><time>2026-05-01T14:30:59Z</time></trkpt><trkpt lat="44.0404872359761" lon="15.322212132211805"><ele>5.2</ele><time>2026-05-01T14:31:00Z</time></trkpt><trkpt lat="44.040428049762895" lon="15.32236713027927"><ele>5.4</ele><time>2026-05-01T14:31:01Z</time></trkpt><trkpt lat="44.04037525428781" lon="15.322509118739685"><ele>5.6</ele><time>2026-05-01T14:31:02Z</time></trkpt><trkpt lat="44.0403277928283" lon="15.322641833227303"><ele>5.8</ele><time>2026-05-01T14:31:03Z</time></trkpt><trkpt lat="44.040283925971856" lon="15.322761777410662"><ele>6.0</ele><time>2026-05-01T14:31:04Z</time></trkpt><trkpt lat="44.04023635062894" lon="15.322891403311818"><ele>6.0</ele><time>2026-05-01T14:31:05Z</time></trkpt><trkpt lat="44.04018060840083" lon="15.323026155308366"><ele>6.0</ele><time>2026-05-01T14:31:06Z</time></trkpt><trkpt lat="44.040115122183884" lon="15.323159211272593"><ele>6.0</ele><time>2026-05-01T14:31:07Z</time></trkpt><trkpt lat="44.04004566515157" lon="15.323278406184722"><ele>6.0</ele><time>2026-05-01T14:31:08Z</time></trkpt><trkpt lat="44.03996492149314" lon="15.323396605147023"><ele>5.5</ele><time>2026-05-01T14:31:09Z</time></trkpt><trkpt lat="44.03986755548498" lon="15.323525551156024"><ele>5.0</ele><time>2026-05-01T14:31:10Z</time></trkpt><trkpt lat="44.03976193378706" lon="15.323653440047691"><ele>4.5</ele><time>2026-05-01T14:31:11Z</time></trkpt><trkpt lat="44.039647623161095" lon="15.323785861958669"><ele>4.0</ele><time>2026-05-01T14:31:12Z</time></trkpt><trkpt lat="44.03953137330393" lon="15.323919281317576"><ele>4.0</ele><time>2026-05-01T14:31:13Z</time></trkpt><trkpt lat="44.039416936660906" lon="15.32405276913204"><ele>4.0</ele><time>2026-05-01T14:31:14Z</time></trkpt><trkpt lat="44.039313927459126" lon="15.324175443807318"><ele>4.0</ele><time>2026-05-01T14:31:15Z</time></trkpt><trkpt lat="44.03921290947548" lon="15.32429361171296"><ele>4.0</ele><time>2026-05-01T14:31:16Z</time></trkpt><trkpt lat="44.03911110727088" lon="15.32441623749539"><ele>4.0</ele><time>2026-05-01T14:31:17Z</time></trkpt><trkpt lat="44.03901183866486" lon="15.324547944751593"><ele>4.0</ele><time>2026-05-01T14:31:18Z</time></trkpt><trkpt lat="44.038914130651335" lon="15.32470129947912"><ele>4.0</ele><time>2026-05-01T14:31:19Z</time></trkpt><trkpt lat="44.03880893404699" lon="15.32487861065298"><ele>3.333333333333333</ele><time>2026-05-01T14:31:20Z</time></trkpt><trkpt lat="44.03868904374985" lon="15.325051714711117"><ele>2.6666666666666665</ele><time>2026-05-01T14:31:21Z</time></trkpt><trkpt lat="44.03859756437155" lon="15.325245062441839"><ele>2.0</ele><time>2026-05-01T14:31:22Z</time></trkpt><trkpt lat="44.03849748406101" lon="15.32541290813121"><ele>1.5</ele><time>2026-05-01T14:31:23Z</time></trkpt><trkpt lat="44.038412652219684" lon="15.325572873023741"><ele>1.0</ele><time>2026-05-01T14:31:24Z</time></trkpt><trkpt lat="44.038342212787754" lon="15.325734466265107"><ele>0.5</ele><time>2026-05-01T14:31:25Z</time></trkpt><trkpt lat="44.038280912622504" lon="15.32588534452402"><ele>0.0</ele><time>2026-05-01T14:31:26Z</time></trkpt><trkpt lat="44.03822563880452" lon="15.326025746066865"><ele>0.0</ele><time>2026-05-01T14:31:27Z</time></trkpt><trkpt lat="44.038173495781976" lon="15.326162430435778"><ele>0.0</ele><time>2026-05-01T14:31:28Z</time></trkpt><trkpt lat="44.038116658247404" lon="15.326336112192498"><ele>0.0</ele><time>2026-05-01T14:31:29Z</time></trkpt><trkpt lat="44.03803285807725" lon="15.326546969504687"><ele>0.0</ele><time>2026-05-01T14:31:30Z</time></trkpt><trkpt lat="44.03794860306506" lon="15.326805401530672"><ele>0.0</ele><time>2026-05-01T14:31:31Z</time></trkpt><trkpt lat="44.037851350657284" lon="15.327073820136665"><ele>0.0</ele><time>2026-05-01T14:31:32Z</time></trkpt><trkpt lat="44.037754323586945" lon="15.327320648714576"><ele>0.0</ele><time>2026-05-01T14:31:33Z</time></trkpt><trkpt lat="44.03767145805224" lon="15.327525686253889"><ele>-0.25</ele><time>2026-05-01T14:31:34Z</time></trkpt><trkpt lat="44.0376015249352" lon="15.327701000373407"><ele>-0.5</ele><time>2026-05-01T14:31:35Z</time></trkpt><trkpt lat="44.037541683579015" lon="15.32786202064745"><ele>-0.75</ele><time>2026-05-01T14:31:36Z</time></trkpt><trkpt lat="44.037486945052386" lon="15.328016594208066"><ele>-1.0</ele><time>2026-05-01T14:31:37Z</time></trkpt><trkpt lat="44.037434012320226" lon="15.328163958531707"><ele>-1.0</ele><time>2026-05-01T14:31:38Z</time></trkpt><trkpt lat="44.037388740200896" lon="15.32828963380549"><ele>-1.0</ele><time>2026-05-01T14:31:39Z</time></trkpt><trkpt lat="44.03734822871518" lon="15.32839990995844"><ele>-1.0</ele><time>2026-05-01T14:31:40Z</time></trkpt><trkpt lat="44.03730526296873" lon="15.328516658927537"><ele>-1.0</ele><time>2026-05-01T14:31:41Z</time></trkpt><trkpt lat="44.037262137212934" lon="15.328636872093032"><ele>-1.0</ele><time>2026-05-01T14:31:42Z</time></trkpt><trkpt lat="44.03721595707283" lon="15.328765485127368"><ele>-1.2000000000000002</ele><time>2026-05-01T14:31:43Z</time></trkpt><trkpt lat="44.03716441228458" lon="15.328906228213539"><ele>-1.4000000000000001</ele><time>2026-05-01T14:31:44Z</time></trkpt><trkpt lat="44.037109299520004" lon="15.32905070146146"><ele>-1.6</ele><time>2026-05-01T14:31:45Z</time></trkpt><trkpt lat="44.037059420694774" lon="15.329183733660262"><ele>-1.8</ele><time>2026-05-01T14:31:46Z</time></trkpt><trkpt lat="44.037014011829285" lon="15.329309540844672"><ele>-2.0</ele><time>2026-05-01T14:31:47Z</time></trkpt><trkpt lat="44.03696921095368" lon="15.329426319964691"><ele>-1.9999999999999998</ele><time>2026-05-01T14:31:48Z</time></trkpt><trkpt lat="44.03692725437286" lon="15.329535709284038"><ele>-2.0</ele><time>2026-05-01T14:31:49Z</time></trkpt><trkpt lat="44.03689082542248" lon="15.329629674740525"><ele>-2.0</ele><time>2026-05-01T14:31:50Z</time></trkpt><trkpt lat="44.036858853620735" lon="15.32972106320045"><ele>-2.0</ele><time>2026-05-01T14:31:51Z</time></trkpt><trkpt lat="44.036826961721886" lon="15.329803954665298"><ele>-1.9999999999999998</ele><time>2026-05-01T14:31:52Z</time></trkpt><trkpt lat="44.036778536903526" lon="15.329935157725183"><ele>-2.0</ele><time>2026-05-01T14:31:54Z</time></trkpt><trkpt lat="44.036738751795404" lon="15.330057507285304"><ele>-1.75</ele><time>2026-05-01T14:31:56Z</time></trkpt><trkpt lat="44.03669339807091" lon="15.33021871210782"><ele>-1.5</ele><time>2026-05-01T14:31:58Z</time></trkpt><trkpt lat="44.036650947392246" lon="15.330343885446625"><ele>-1.25</ele><time>2026-05-01T14:31:59Z</time></trkpt><trkpt lat="44.03658217413482" lon="15.3304986845914"><ele>-1.0</ele><time>2026-05-01T14:32:00Z</time></trkpt><trkpt lat="44.036505262988484" lon="15.33066768558505"><ele>-0.6666666666666666</ele><time>2026-05-01T14:32:01Z</time></trkpt><trkpt lat="44.03643340561962" lon="15.330859921849012"><ele>-0.3333333333333333</ele><time>2026-05-01T14:32:02Z</time></trkpt><trkpt lat="44.03636248804109" lon="15.331064713071909"><ele>0.0</ele><time>2026-05-01T14:32:03Z</time></trkpt><trkpt lat="44.03628963925908" lon="15.331264871701938"><ele>-0.3333333333333333</ele><time>2026-05-01T14:32:04Z</time></trkpt><trkpt lat="44.03622038787502" lon="15.331448754657591"><ele>-0.6666666666666666</ele><time>2026-05-01T14:32:05Z</time></trkpt><trkpt lat="44.03614901428928" lon="15.331642422833557"><ele>-1.0</ele><time>2026-05-01T14:32:06Z</time></trkpt><trkpt lat="44.03607343875593" lon="15.331847277279467"><ele>-1.0</ele><time>2026-05-01T14:32:07Z</time></trkpt><trkpt lat="44.03599774811009" lon="15.332053213084635"><ele>-1.0</ele><time>2026-05-01T14:32:08Z</time></trkpt><trkpt lat="44.03592214691508" lon="15.332252593225002"><ele>-1.0</ele><time>2026-05-01T14:32:09Z</time></trkpt><trkpt lat="44.03585050915856" lon="15.332443755696016"><ele>-0.6666666666666666</ele><time>2026-05-01T14:32:10Z</time></trkpt><trkpt lat="44.035777682585326" lon="15.332641487509736"><ele>-0.3333333333333333</ele><time>2026-05-01T14:32:11Z</time></trkpt><trkpt lat="44.03570026213214" lon="15.33284697149206"><ele>0.0</ele><time>2026-05-01T14:32:12Z</time></trkpt><trkpt lat="44.03562004146604" lon="15.333049480439842"><ele>0.0</ele><time>2026-05-01T14:32:13Z</time></trkpt><trkpt lat="44.03554158868034" lon="15.333248251536098"><ele>0.0</ele><time>2026-05-01T14:32:14Z</time></trkpt><trkpt lat="44.03546152779767" lon="15.333444709054806"><ele>0.0</ele><time>2026-05-01T14:32:15Z</time></trkpt><trkpt lat="44.03538290380854" lon="15.333633498768664"><ele>0.0</ele><time>2026-05-01T14:32:16Z</time></trkpt><trkpt lat="44.035305461937824" lon="15.333806764540544"><ele>0.0</ele><time>2026-05-01T14:32:17Z</time></trkpt><trkpt lat="44.035224024495015" lon="15.333982747155641"><ele>0.0</ele><time>2026-05-01T14:32:18Z</time></trkpt><trkpt lat="44.03513993200333" lon="15.334157545100314"><ele>0.0</ele><time>2026-05-01T14:32:19Z</time></trkpt><trkpt lat="44.035052354286414" lon="15.33433436700091"><ele>0.0</ele><time>2026-05-01T14:32:20Z</time></trkpt><trkpt lat="44.03496391960247" lon="15.334509716643016"><ele>0.0</ele><time>2026-05-01T14:32:21Z</time></trkpt><trkpt lat="44.034876643786255" lon="15.334687527820742"><ele>0.0</ele><time>2026-05-01T14:32:22Z</time></trkpt><trkpt lat="44.034787062042795" lon="15.33487134879555"><ele>0.0</ele><time>2026-05-01T14:32:23Z</time></trkpt><trkpt lat="44.034695381265585" lon="15.335066076771495"><ele>0.0</ele><time>2026-05-01T14:32:24Z</time></trkpt><trkpt lat="44.034599667350314" lon="15.335273019906776"><ele>0.0</ele><time>2026-05-01T14:32:25Z</time></trkpt><trkpt lat="44.03450283953742" lon="15.335479826368918"><ele>0.6666666666666666</ele><time>2026-05-01T14:32:26Z</time></trkpt><trkpt lat="44.03440670330567" lon="15.33569083196086"><ele>1.3333333333333333</ele><time>2026-05-01T14:32:27Z</time></trkpt><trkpt lat="44.03429975964281" lon="15.33589789364018"><ele>2.0</ele><time>2026-05-01T14:32:28Z</time></trkpt><trkpt lat="44.03420019800431" lon="15.336108026327734"><ele>1.3333333333333333</ele><time>2026-05-01T14:32:29Z</time></trkpt><trkpt lat="44.03409904493653" lon="15.336321958826822"><ele>0.6666666666666666</ele><time>2026-05-01T14:32:30Z</time></trkpt><trkpt lat="44.03399890440294" lon="15.336536588364869"><ele>0.0</ele><time>2026-05-01T14:32:31Z</time></trkpt><trkpt lat="44.033894714677885" lon="15.336751499781075"><ele>0.0</ele><time>2026-05-01T14:32:32Z</time></trkpt><trkpt lat="44.03379381364033" lon="15.336966473481107"><ele>0.0</ele><time>2026-05-01T14:32:33Z</time></trkpt><trkpt lat="44.03368874098243" lon="15.337187050836768"><ele>0.0</ele><time>2026-05-01T14:32:34Z</time></trkpt><trkpt lat="44.03358205922653" lon="15.337398845539923"><ele>0.0</ele><time>2026-05-01T14:32:35Z</time></trkpt><trkpt lat="44.03347747739489" lon="15.337619155131247"><ele>0.0</ele><time>2026-05-01T14:32:36Z</time></trkpt><trkpt lat="44.033376301926644" lon="15.337838478758913"><ele>0.0</ele><time>2026-05-01T14:32:37Z</time></trkpt><trkpt lat="44.03327123825467" lon="15.338063514351893"><ele>0.0</ele><time>2026-05-01T14:32:38Z</time></trkpt><trkpt lat="44.03315760450164" lon="15.33829553756661"><ele>0.0</ele><time>2026-05-01T14:32:39Z</time></trkpt><trkpt lat="44.033041057485114" lon="15.338527212389614"><ele>0.0</ele><time>2026-05-01T14:32:40Z</time></trkpt><trkpt lat="44.032926140417445" lon="15.338761735626898"><ele>0.3333333333333333</ele><time>2026-05-01T14:32:41Z</time></trkpt><trkpt lat="44.03280549603138" lon="15.339009286762938"><ele>0.6666666666666666</ele><time>2026-05-01T14:32:42Z</time></trkpt><trkpt lat="44.03268796701129" lon="15.339263183602592"><ele>1.0</ele><time>2026-05-01T14:32:43Z</time></trkpt><trkpt lat="44.03257336510506" lon="15.33951676237654"><ele>0.6666666666666666</ele><time>2026-05-01T14:32:44Z</time></trkpt><trkpt lat="44.03245180512291" lon="15.339765863582095"><ele>0.3333333333333333</ele><time>2026-05-01T14:32:45Z</time></trkpt><trkpt lat="44.03233626063122" lon="15.340017324097078"><ele>0.0</ele><time>2026-05-01T14:32:46Z</time></trkpt><trkpt lat="44.03222765292382" lon="15.340268452480126"><ele>0.0</ele><time>2026-05-01T14:32:47Z</time></trkpt><trkpt lat="44.03212096014453" lon="15.340513203569055"><ele>0.0</ele><time>2026-05-01T14:32:48Z</time></trkpt><trkpt lat="44.032009999752034" lon="15.340763411087213"><ele>0.0</ele><time>2026-05-01T14:32:49Z</time></trkpt><trkpt lat="44.03189300728264" lon="15.341015318797856"><ele>0.0</ele><time>2026-05-01T14:32:50Z</time></trkpt><trkpt lat="44.03177579471697" lon="15.341269339752353"><ele>0.0</ele><time>2026-05-01T14:32:51Z</time></trkpt><trkpt lat="44.03165454873164" lon="15.341527101783386"><ele>0.0</ele><time>2026-05-01T14:32:52Z</time></trkpt><trkpt lat="44.03153240431519" lon="15.341793552658741"><ele>0.0</ele><time>2026-05-01T14:32:53Z</time></trkpt><trkpt lat="44.03140893111716" lon="15.34206130596613"><ele>0.0</ele><time>2026-05-01T14:32:54Z</time></trkpt><trkpt lat="44.03128680409322" lon="15.342327509618332"><ele>0.0</ele><time>2026-05-01T14:32:55Z</time></trkpt><trkpt lat="44.03116217910526" lon="15.342598217446225"><ele>0.0</ele><time>2026-05-01T14:32:56Z</time></trkpt><trkpt lat="44.03102638411655" lon="15.342858499284024"><ele>0.0</ele><time>2026-05-01T14:32:57Z</time></trkpt><trkpt lat="44.03087831731708" lon="15.343102139897017"><ele>0.0</ele><time>2026-05-01T14:32:58Z</time></trkpt><trkpt lat="44.03071718648766" lon="15.343337837414525"><ele>0.0</ele><time>2026-05-01T14:32:59Z</time></trkpt><trkpt lat="44.03053858008821" lon="15.343545868069244"><ele>0.0</ele><time>2026-05-01T14:33:00Z</time></trkpt><trkpt lat="44.03036411385279" lon="15.34374892711174"><ele>0.3333333333333333</ele><time>2026-05-01T14:33:01Z</time></trkpt><trkpt lat="44.030196183137285" lon="15.343937260322791"><ele>0.6666666666666666</ele><time>2026-05-01T14:33:02Z</time></trkpt><trkpt lat="44.03004174430442" lon="15.34411633426812"><ele>1.0</ele><time>2026-05-01T14:33:03Z</time></trkpt><trkpt lat="44.029883261735314" lon="15.34430066013293"><ele>1.0</ele><time>2026-05-01T14:33:04Z</time></trkpt><trkpt lat="44.029729773370455" lon="15.344477442105465"><ele>1.0</ele><time>2026-05-01T14:33:05Z</time></trkpt><trkpt lat="44.02957525240396" lon="15.344655945566391"><ele>1.0</ele><time>2026-05-01T14:33:06Z</time></trkpt><trkpt lat="44.02940960573145" lon="15.3448422209998"><ele>0.5</ele><time>2026-05-01T14:33:07Z</time></trkpt><trkpt lat="44.02923509058472" lon="15.345051027496625"><ele>0.0</ele><time>2026-05-01T14:33:08Z</time></trkpt><trkpt lat="44.02904601936989" lon="15.345272273279095"><ele>0.0</ele><time>2026-05-01T14:33:09Z</time></trkpt><trkpt lat="44.02885552136939" lon="15.345491119169857"><ele>0.0</ele><time>2026-05-01T14:33:10Z</time></trkpt><trkpt lat="44.02867180513184" lon="15.345704595466946"><ele>0.0</ele><time>2026-05-01T14:33:11Z</time></trkpt><trkpt lat="44.02848925650399" lon="15.3459130478283"><ele>0.0</ele><time>2026-05-01T14:33:12Z</time></trkpt><trkpt lat="44.02830511768215" lon="15.346128745954662"><ele>0.0</ele><time>2026-05-01T14:33:13Z</time></trkpt><trkpt lat="44.02812339595821" lon="15.346346723115484"><ele>0.0</ele><time>2026-05-01T14:33:14Z</time></trkpt><trkpt lat="44.02794940039056" lon="15.346551270608174"><ele>0.0</ele><time>2026-05-01T14:33:15Z</time></trkpt><trkpt lat="44.02777339430977" lon="15.34675450302557"><ele>0.0</ele><time>2026-05-01T14:33:16Z</time></trkpt><trkpt lat="44.02759836519299" lon="15.346964321278794"><ele>0.0</ele><time>2026-05-01T14:33:17Z</time></trkpt><trkpt lat="44.027425585861074" lon="15.347168571406458"><ele>0.0</ele><time>2026-05-01T14:33:18Z</time></trkpt><trkpt lat="44.02724961845962" lon="15.347374509544087"><ele>0.0</ele><time>2026-05-01T14:33:19Z</time></trkpt><trkpt lat="44.027066022827874" lon="15.347585277153762"><ele>0.0</ele><time>2026-05-01T14:33:20Z</time></trkpt><trkpt lat="44.02688255827733" lon="15.347796643999999"><ele>0.0</ele><time>2026-05-01T14:33:21Z</time></trkpt><trkpt lat="44.026694783919105" lon="15.348016914569463"><ele>0.0</ele><time>2026-05-01T14:33:22Z</time></trkpt><trkpt lat="44.02650558354336" lon="15.348234380395617"><ele>0.5</ele><time>2026-05-01T14:33:23Z</time></trkpt><trkpt lat="44.02631907867407" lon="15.348452445254722"><ele>1.0</ele><time>2026-05-01T14:33:24Z</time></trkpt><trkpt lat="44.026128573662454" lon="15.348673244648145"><ele>1.5</ele><time>2026-05-01T14:33:25Z</time></trkpt><trkpt lat="44.02593563671935" lon="15.348898793640755"><ele>2.0</ele><time>2026-05-01T14:33:26Z</time></trkpt><trkpt lat="44.02574298065786" lon="15.349121163262089"><ele>1.0</ele><time>2026-05-01T14:33:27Z</time></trkpt><trkpt lat="44.02554980369754" lon="15.3493469517991"><ele>0.0</ele><time>2026-05-01T14:33:28Z</time></trkpt><trkpt lat="44.02535460999043" lon="15.349573956254416"><ele>0.0</ele><time>2026-05-01T14:33:29Z</time></trkpt><trkpt lat="44.025160622597866" lon="15.349803104524673"><ele>0.0</ele><time>2026-05-01T14:33:30Z</time></trkpt><trkpt lat="44.02496593125022" lon="15.350033705757637"><ele>0.0</ele><time>2026-05-01T14:33:31Z</time></trkpt><trkpt lat="44.024769681445555" lon="15.350259079032897"><ele>0.0</ele><time>2026-05-01T14:33:32Z</time></trkpt><trkpt lat="44.02457361126271" lon="15.350485816643898"><ele>0.5</ele><time>2026-05-01T14:33:33Z</time></trkpt><trkpt lat="44.024374213803185" lon="15.350713739613305"><ele>1.0</ele><time>2026-05-01T14:33:34Z</time></trkpt><trkpt lat="44.024172766918724" lon="15.350949090066953"><ele>1.0</ele><time>2026-05-01T14:33:35Z</time></trkpt><trkpt lat="44.02397812058905" lon="15.35117125864445"><ele>1.0</ele><time>2026-05-01T14:33:36Z</time></trkpt><trkpt lat="44.02379449497101" lon="15.351388754925544"><ele>1.0</ele><time>2026-05-01T14:33:37Z</time></trkpt><trkpt lat="44.02361243922163" lon="15.35159751999593"><ele>1.0</ele><time>2026-05-01T14:33:38Z</time></trkpt><trkpt lat="44.02342374462417" lon="15.35181365375227"><ele>0.5</ele><time>2026-05-01T14:33:39Z</time></trkpt><trkpt lat="44.02323839135041" lon="15.352039135996481"><ele>0.0</ele><time>2026-05-01T14:33:40Z</time></trkpt><trkpt lat="44.02304985912376" lon="15.352261644826122"><ele>0.0</ele><time>2026-05-01T14:33:41Z</time></trkpt><trkpt lat="44.02285948444047" lon="15.35247721867219"><ele>0.0</ele><time>2026-05-01T14:33:42Z</time></trkpt><trkpt lat="44.02266871771041" lon="15.352695808414834"><ele>0.0</ele><time>2026-05-01T14:33:43Z</time></trkpt><trkpt lat="44.02247868083218" lon="15.352912608572062"><ele>0.0</ele><time>2026-05-01T14:33:44Z</time></trkpt><trkpt lat="44.02228543873615" lon="15.353135785002129"><ele>1.0</ele><time>2026-05-01T14:33:45Z</time></trkpt><trkpt lat="44.022091281958815" lon="15.35336126138889"><ele>2.0</ele><time>2026-05-01T14:33:46Z</time></trkpt><trkpt lat="44.02189365897385" lon="15.353586940954724"><ele>2.0</ele><time>2026-05-01T14:33:47Z</time></trkpt><trkpt lat="44.021698269439874" lon="15.3538127382262"><ele>2.0</ele><time>2026-05-01T14:33:48Z</time></trkpt><trkpt lat="44.02149932734134" lon="15.354041407068767"><ele>4.0</ele><time>2026-05-01T14:33:49Z</time></trkpt><trkpt lat="44.02130665353869" lon="15.354264805112804"><ele>6.0</ele><time>2026-05-01T14:33:50Z</time></trkpt><trkpt lat="44.021114040933625" lon="15.35449922448068"><ele>6.0</ele><time>2026-05-01T14:33:51Z</time></trkpt><trkpt lat="44.02091767666013" lon="15.354731685219837"><ele>6.0</ele><time>2026-05-01T14:33:52Z</time></trkpt><trkpt lat="44.0207248876616" lon="15.35497527576919"><ele>6.0</ele><time>2026-05-01T14:33:53Z</time></trkpt><trkpt lat="44.02053296526683" lon="15.355230485160684"><ele>6.0</ele><time>2026-05-01T14:33:54Z</time></trkpt><trkpt lat="44.02034335988955" lon="15.35549407315388"><ele>6.5</ele><time>2026-05-01T14:33:55Z</time></trkpt><trkpt lat="44.02015924548878" lon="15.355760707521108"><ele>7.0</ele><time>2026-05-01T14:33:56Z</time></trkpt><trkpt lat="44.01997416722168" lon="15.356027370243162"><ele>6.0</ele><time>2026-05-01T14:33:57Z</time></trkpt><trkpt lat="44.01978896488286" lon="15.35628992036215"><ele>5.0</ele><time>2026-05-01T14:33:58Z</time></trkpt><trkpt lat="44.01959692776981" lon="15.356549786416029"><ele>5.0</ele><time>2026-05-01T14:33:59Z</time></trkpt><trkpt lat="44.01939743470802" lon="15.356804292889207"><ele>5.0</ele><time>2026-05-01T14:34:00Z</time></trkpt><trkpt lat="44.01918889800044" lon="15.357048232454444"><ele>2.5</ele><time>2026-05-01T14:34:01Z</time></trkpt><trkpt lat="44.01896433091743" lon="15.357266164522578"><ele>0.0</ele><time>2026-05-01T14:34:02Z</time></trkpt><trkpt lat="44.01871374831097" lon="15.357470749804703"><ele>0.0</ele><time>2026-05-01T14:34:03Z</time></trkpt><trkpt lat="44.01846115931466" lon="15.35766894199914"><ele>0.0</ele><time>2026-05-01T14:34:04Z</time></trkpt><trkpt lat="44.01820787783222" lon="15.357878790273524"><ele>0.5</ele><time>2026-05-01T14:34:05Z</time></trkpt><trkpt lat="44.01795966841039" lon="15.358088716209052"><ele>1.0</ele><time>2026-05-01T14:34:06Z</time></trkpt><trkpt lat="44.01771269931839" lon="15.358297355937712"><ele>0.5</ele><time>2026-05-01T14:34:07Z</time></trkpt><trkpt lat="44.01746677445559" lon="15.358503531925496"><ele>0.0</ele><time>2026-05-01T14:34:08Z</time></trkpt><trkpt lat="44.01722464063353" lon="15.358708278616277"><ele>1.0</ele><time>2026-05-01T14:34:09Z</time></trkpt><trkpt lat="44.016979784307736" lon="15.358910453676096"><ele>2.0</ele><time>2026-05-01T14:34:10Z</time></trkpt><trkpt lat="44.01673767531311" lon="15.359109083035479"><ele>1.5</ele><time>2026-05-01T14:34:11Z</time></trkpt><trkpt lat="44.016499499810536" lon="15.359305933571527"><ele>1.0</ele><time>2026-05-01T14:34:12Z</time></trkpt><trkpt lat="44.01626190330319" lon="15.35950082468291"><ele>1.0</ele><time>2026-05-01T14:34:13Z</time></trkpt><trkpt lat="44.016023353718005" lon="15.359697966661226"><ele>1.0</ele><time>2026-05-01T14:34:14Z</time></trkpt><trkpt lat="44.01577675524245" lon="15.359903932201847"><ele>1.0</ele><time>2026-05-01T14:34:15Z</time></trkpt><trkpt lat="44.015523933376805" lon="15.360116228806925"><ele>1.0</ele><time>2026-05-01T14:34:16Z</time></trkpt><trkpt lat="44.015267033889415" lon="15.360331369746302"><ele>0.5</ele><time>2026-05-01T14:34:17Z</time></trkpt><trkpt lat="44.015007985129536" lon="15.360550994854739"><ele>0.0</ele><time>2026-05-01T14:34:18Z</time></trkpt><trkpt lat="44.014744403974575" lon="15.36077837511439"><ele>0.0</ele><time>2026-05-01T14:34:19Z</time></trkpt><trkpt lat="44.01447384362947" lon="15.36100459820888"><ele>0.0</ele><time>2026-05-01T14:34:20Z</time></trkpt><trkpt lat="44.014201504673736" lon="15.361233443241538"><ele>0.5</ele><time>2026-05-01T14:34:21Z</time></trkpt><trkpt lat="44.013929084431126" lon="15.361459067340384"><ele>1.0</ele><time>2026-05-01T14:34:22Z</time></trkpt><trkpt lat="44.01365754321201" lon="15.361683238159717"><ele>1.0</ele><time>2026-05-01T14:34:23Z</time></trkpt><trkpt lat="44.013386754419294" lon="15.361903254474356"><ele>1.0</ele><time>2026-05-01T14:34:24Z</time></trkpt><trkpt lat="44.01311994564595" lon="15.362121552005082"><ele>2.5</ele><time>2026-05-01T14:34:25Z</time></trkpt><trkpt lat="44.01285374850736" lon="15.362337035521268"><ele>4.0</ele><time>2026-05-01T14:34:26Z</time></trkpt><trkpt lat="44.01259046669476" lon="15.362547039988927"><ele>3.0</ele><time>2026-05-01T14:34:27Z</time></trkpt><trkpt lat="44.012326747777124" lon="15.362747335383915"><ele>2.0</ele><time>2026-05-01T14:34:28Z</time></trkpt><trkpt lat="44.012066227960176" lon="15.362951580826694"><ele>2.5</ele><time>2026-05-01T14:34:29Z</time></trkpt><trkpt lat="44.011800568112164" lon="15.363147279891988"><ele>3.0</ele><time>2026-05-01T14:34:30Z</time></trkpt><trkpt lat="44.01153792849692" lon="15.363332678282177"><ele>1.5</ele><time>2026-05-01T14:34:31Z</time></trkpt><trkpt lat="44.01127309189395" lon="15.363526714830234"><ele>0.0</ele><time>2026-05-01T14:34:32Z</time></trkpt><trkpt lat="44.011004995565436" lon="15.363714991152225"><ele>1.0</ele><time>2026-05-01T14:34:33Z</time></trkpt><trkpt lat="44.01073360132182" lon="15.363897282338215"><ele>2.0</ele><time>2026-05-01T14:34:34Z</time></trkpt><trkpt lat="44.01046629706395" lon="15.36408137112558"><ele>2.0</ele><time>2026-05-01T14:34:35Z</time></trkpt><trkpt lat="44.0102012696783" lon="15.36426246111481"><ele>2.0</ele><time>2026-05-01T14:34:36Z</time></trkpt><trkpt lat="44.0099342743518" lon="15.36444483361377"><ele>1.5</ele><time>2026-05-01T14:34:37Z</time></trkpt><trkpt lat="44.00966943401678" lon="15.364618389865802"><ele>1.0</ele><time>2026-05-01T14:34:38Z</time></trkpt><trkpt lat="44.00941450485489" lon="15.364790842089686"><ele>1.0</ele><time>2026-05-01T14:34:39Z</time></trkpt><trkpt lat="44.009159040648875" lon="15.36496462874768"><ele>1.0</ele><time>2026-05-01T14:34:40Z</time></trkpt><trkpt lat="44.00890942110331" lon="15.365133605530396"><ele>1.0</ele><time>2026-05-01T14:34:41Z</time></trkpt><trkpt lat="44.008662140400034" lon="15.365306569983337"><ele>1.0</ele><time>2026-05-01T14:34:42Z</time></trkpt><trkpt lat="44.008428072715546" lon="15.365463168731466"><ele>1.0</ele><time>2026-05-01T14:34:43Z</time></trkpt><trkpt lat="44.008203894119305" lon="15.365615380936093"><ele>1.0</ele><time>2026-05-01T14:34:44Z</time></trkpt><trkpt lat="44.007990669034726" lon="15.36575746951961"><ele>1.0</ele><time>2026-05-01T14:34:45Z</time></trkpt><trkpt lat="44.00778248579472" lon="15.3658950434326"><ele>1.0</ele><time>2026-05-01T14:34:46Z</time></trkpt><trkpt lat="44.007578549685306" lon="15.366032058232005"><ele>0.6666666666666666</ele><time>2026-05-01T14:34:47Z</time></trkpt><trkpt lat="44.00737708370896" lon="15.366174094343636"><ele>0.3333333333333333</ele><time>2026-05-01T14:34:48Z</time></trkpt><trkpt lat="44.00717649359889" lon="15.366286671876715"><ele>0.0</ele><time>2026-05-01T14:34:49Z</time></trkpt><trkpt lat="44.00699564552045" lon="15.36642818217259"><ele>0.0</ele><time>2026-05-01T14:34:50Z</time></trkpt><trkpt lat="44.006817048379354" lon="15.366548907678323"><ele>0.0</ele><time>2026-05-01T14:34:51Z</time></trkpt><trkpt lat="44.006653186257545" lon="15.366661963237055"><ele>0.0</ele><time>2026-05-01T14:34:52Z</time></trkpt><trkpt lat="44.00649788704926" lon="15.366768516163038"><ele>0.0</ele><time>2026-05-01T14:34:53Z</time></trkpt><trkpt lat="44.006345664526584" lon="15.366873766977651"><ele>0.0</ele><time>2026-05-01T14:34:54Z</time></trkpt><trkpt lat="44.006187590547235" lon="15.366959121834759"><ele>0.0</ele><time>2026-05-01T14:34:55Z</time></trkpt><trkpt lat="44.006043129929374" lon="15.36708233556038"><ele>0.0</ele><time>2026-05-01T14:34:56Z</time></trkpt><trkpt lat="44.00589092892828" lon="15.367181331515164"><ele>0.0</ele><time>2026-05-01T14:34:57Z</time></trkpt><trkpt lat="44.005736908920966" lon="15.367287030500119"><ele>0.0</ele><time>2026-05-01T14:34:58Z</time></trkpt><trkpt lat="44.00557817073861" lon="15.36739432063971"><ele>-0.6666666666666666</ele><time>2026-05-01T14:34:59Z</time></trkpt><trkpt lat="44.00541073220016" lon="15.367498553687335"><ele>-1.3333333333333333</ele><time>2026-05-01T14:35:00Z</time></trkpt><trkpt lat="44.005245871348315" lon="15.367606996242875"><ele>-2.0</ele><time>2026-05-01T14:35:01Z</time></trkpt><trkpt lat="44.00507431586477" lon="15.367729248677378"><ele>-2.333333333333333</ele><time>2026-05-01T14:35:02Z</time></trkpt><trkpt lat="44.00488784839984" lon="15.36782995992665"><ele>-2.6666666666666665</ele><time>2026-05-01T14:35:03Z</time></trkpt><trkpt lat="44.00470556008833" lon="15.3679513630978"><ele>-3.0</ele><time>2026-05-01T14:35:04Z</time></trkpt><trkpt lat="44.004514770339156" lon="15.368077971269448"><ele>-1.3333333333333335</ele><time>2026-05-01T14:35:05Z</time></trkpt><trkpt lat="44.004325551316136" lon="15.368203004040648"><ele>0.33333333333333326</ele><time>2026-05-01T14:35:06Z</time></trkpt><trkpt lat="44.00414397494546" lon="15.368364631364551"><ele>2.0</ele><time>2026-05-01T14:35:07Z</time></trkpt><trkpt lat="44.003950965452184" lon="15.36849555696446"><ele>2.0</ele><time>2026-05-01T14:35:08Z</time></trkpt><trkpt lat="44.003763887885995" lon="15.368622029656256"><ele>2.0</ele><time>2026-05-01T14:35:09Z</time></trkpt><trkpt lat="44.00358688120474" lon="15.368751014803935"><ele>2.0</ele><time>2026-05-01T14:35:10Z</time></trkpt><trkpt lat="44.00340553049488" lon="15.368854227253513"><ele>2.6666666666666665</ele><time>2026-05-01T14:35:11Z</time></trkpt><trkpt lat="44.003232580520674" lon="15.368991551928055"><ele>3.333333333333333</ele><time>2026-05-01T14:35:12Z</time></trkpt><trkpt lat="44.00306997244048" lon="15.369120664687982"><ele>4.0</ele><time>2026-05-01T14:35:13Z</time></trkpt><trkpt lat="44.00291709032762" lon="15.369251964196451"><ele>4.0</ele><time>2026-05-01T14:35:14Z</time></trkpt><trkpt lat="44.00277379619928" lon="15.369380039205701"><ele>4.0</ele><time>2026-05-01T14:35:15Z</time></trkpt><trkpt lat="44.00262871855773" lon="15.369516816128957"><ele>4.0</ele><time>2026-05-01T14:35:16Z</time></trkpt><trkpt lat="44.00248684021143" lon="15.369653390015015"><ele>4.0</ele><time>2026-05-01T14:35:17Z</time></trkpt><trkpt lat="44.00234918829641" lon="15.369794125129856"><ele>4.0</ele><time>2026-05-01T14:35:18Z</time></trkpt><trkpt lat="44.00221791770201" lon="15.369930690634446"><ele>4.0</ele><time>2026-05-01T14:35:19Z</time></trkpt><trkpt lat="44.00209544613504" lon="15.370058101089107"><ele>4.0</ele><time>2026-05-01T14:35:20Z</time></trkpt><trkpt lat="44.00197887145921" lon="15.370179376852018"><ele>4.0</ele><time>2026-05-01T14:35:21Z</time></trkpt><trkpt lat="44.001864040433595" lon="15.370298838647672"><ele>4.0</ele><time>2026-05-01T14:35:22Z</time></trkpt><trkpt lat="44.00177249556655" lon="15.370469036508755"><ele>4.0</ele><time>2026-05-01T14:35:23Z</time></trkpt><trkpt lat="44.00166294470608" lon="15.370607857901565"><ele>3.75</ele><time>2026-05-01T14:35:24Z</time></trkpt><trkpt lat="44.001560862737456" lon="15.370743489301809"><ele>3.5</ele><time>2026-05-01T14:35:25Z</time></trkpt><trkpt lat="44.001466299496514" lon="15.370876467785488"><ele>3.25</ele><time>2026-05-01T14:35:26Z</time></trkpt><trkpt lat="44.00137475440453" lon="15.371005372674897"><ele>3.0</ele><time>2026-05-01T14:35:27Z</time></trkpt><trkpt lat="44.00128256899581" lon="15.371138389954655"><ele>3.0</ele><time>2026-05-01T14:35:28Z</time></trkpt><trkpt lat="44.00119036222514" lon="15.371272723026262"><ele>3.0</ele><time>2026-05-01T14:35:29Z</time></trkpt><trkpt lat="44.00109704813319" lon="15.371422681307916"><ele>3.0</ele><time>2026-05-01T14:35:30Z</time></trkpt><trkpt lat="44.0009990262603" lon="15.371589037490244"><ele>3.0</ele><time>2026-05-01T14:35:31Z</time></trkpt><trkpt lat="44.00089076507589" lon="15.37175816327165"><ele>2.75</ele><time>2026-05-01T14:35:32Z</time></trkpt><trkpt lat="44.000783610783145" lon="15.371913089863398"><ele>2.5</ele><time>2026-05-01T14:35:33Z</time></trkpt><trkpt lat="44.0006880302386" lon="15.372060496593406"><ele>2.25</ele><time>2026-05-01T14:35:34Z</time></trkpt><trkpt lat="44.00059875287794" lon="15.372202530051126"><ele>2.0</ele><time>2026-05-01T14:35:35Z</time></trkpt><trkpt lat="44.00052376717985" lon="15.372348302100923"><ele>2.5</ele><time>2026-05-01T14:35:36Z</time></trkpt><trkpt lat="44.00045392867415" lon="15.372477608645154"><ele>3.0</ele><time>2026-05-01T14:35:37Z</time></trkpt><trkpt lat="44.00038255400224" lon="15.372609362864951"><ele>3.5</ele><time>2026-05-01T14:35:38Z</time></trkpt><trkpt lat="44.00030736029735" lon="15.372743193345654"><ele>4.0</ele><time>2026-05-01T14:35:39Z</time></trkpt><trkpt lat="44.000231492222355" lon="15.372885229656394"><ele>4.666666666666666</ele><time>2026-05-01T14:35:40Z</time></trkpt><trkpt lat="44.0001514931895" lon="15.373036756365947"><ele>5.333333333333333</ele><time>2026-05-01T14:35:41Z</time></trkpt><trkpt lat="44.000064691537055" lon="15.373208904181851"><ele>6.0</ele><time>2026-05-01T14:35:42Z</time></trkpt><trkpt lat="43.99997393038123" lon="15.373399168840391"><ele>6.0</ele><time>2026-05-01T14:35:43Z</time></trkpt><trkpt lat="43.999871232138" lon="15.373613554839514"><ele>6.0</ele><time>2026-05-01T14:35:44Z</time></trkpt><trkpt lat="43.99975954520785" lon="15.373827170853644"><ele>6.0</ele><time>2026-05-01T14:35:45Z</time></trkpt><trkpt lat="43.99964309166805" lon="15.3740302644777"><ele>6.25</ele><time>2026-05-01T14:35:46Z</time></trkpt><trkpt lat="43.99954303255412" lon="15.37420863887441"><ele>6.5</ele><time>2026-05-01T14:35:47Z</time></trkpt><trkpt lat="43.99945104494747" lon="15.374370920605745"><ele>6.75</ele><time>2026-05-01T14:35:48Z</time></trkpt><trkpt lat="43.99937075128272" lon="15.374509465344726"><ele>7.0</ele><time>2026-05-01T14:35:49Z</time></trkpt><trkpt lat="43.99929664518007" lon="15.374644455194879"><ele>6.6</ele><time>2026-05-01T14:35:50Z</time></trkpt><trkpt lat="43.99923385572226" lon="15.374759097039012"><ele>6.199999999999999</ele><time>2026-05-01T14:35:51Z</time></trkpt><trkpt lat="43.9991927936502" lon="15.37483146556651"><ele>5.8</ele><time>2026-05-01T14:35:52Z</time></trkpt><trkpt lat="43.999135748154906" lon="15.374912932616578"><ele>5.4</ele><time>2026-05-01T14:35:59Z</time></trkpt><trkpt lat="43.99906226871645" lon="15.375040685684533"><ele>5.0</ele><time>2026-05-01T14:36:01Z</time></trkpt><trkpt lat="43.99898541514089" lon="15.375162570384152"><ele>5.0</ele><time>2026-05-01T14:36:03Z</time></trkpt><trkpt lat="43.99890871122235" lon="15.375294847245875"><ele>5.0</ele><time>2026-05-01T14:36:05Z</time></trkpt><trkpt lat="43.99886329492519" lon="15.375371686162868"><ele>5.0</ele><time>2026-05-01T14:36:06Z</time></trkpt><trkpt lat="43.99881402493937" lon="15.375452204867749"><ele>5.0</ele><time>2026-05-01T14:36:07Z</time></trkpt><trkpt lat="43.99875836815693" lon="15.37554430584137"><ele>5.0</ele><time>2026-05-01T14:36:08Z</time></trkpt><trkpt lat="43.99868745074137" lon="15.375655366530864"><ele>6.25</ele><time>2026-05-01T14:36:09Z</time></trkpt><trkpt lat="43.99861330322855" lon="15.375776591886043"><ele>7.5</ele><time>2026-05-01T14:36:10Z</time></trkpt><trkpt lat="43.998531216506336" lon="15.375909641936689"><ele>8.75</ele><time>2026-05-01T14:36:11Z</time></trkpt><trkpt lat="43.998442177435535" lon="15.376051357883544"><ele>10.0</ele><time>2026-05-01T14:36:12Z</time></trkpt><trkpt lat="43.99834150895921" lon="15.376204202241816"><ele>10.0</ele><time>2026-05-01T14:36:13Z</time></trkpt><trkpt lat="43.998229742042156" lon="15.376374467612873"><ele>10.0</ele><time>2026-05-01T14:36:14Z</time></trkpt><trkpt lat="43.99811198426114" lon="15.376549257018665"><ele>10.0</ele><time>2026-05-01T14:36:15Z</time></trkpt><trkpt lat="43.99799422617374" lon="15.37673070688051"><ele>10.0</ele><time>2026-05-01T14:36:16Z</time></trkpt><trkpt lat="43.99784165926526" lon="15.376882012764712"><ele>10.0</ele><time>2026-05-01T14:36:17Z</time></trkpt><trkpt lat="43.997714209739904" lon="15.377066565175035"><ele>10.0</ele><time>2026-05-01T14:36:18Z</time></trkpt><trkpt lat="43.997593577303455" lon="15.3772406569658"><ele>9.666666666666668</ele><time>2026-05-01T14:36:19Z</time></trkpt><trkpt lat="43.99748593847293" lon="15.377394353045242"><ele>9.333333333333334</ele><time>2026-05-01T14:36:20Z</time></trkpt><trkpt lat="43.99737862299678" lon="15.377547363147603"><ele>9.0</ele><time>2026-05-01T14:36:21Z</time></trkpt><trkpt lat="43.997272493962775" lon="15.377697996224029"><ele>9.0</ele><time>2026-05-01T14:36:22Z</time></trkpt><trkpt lat="43.99717584714857" lon="15.377834855101502"><ele>9.0</ele><time>2026-05-01T14:36:23Z</time></trkpt><trkpt lat="43.997074287135874" lon="15.37799415875535"><ele>9.0</ele><time>2026-05-01T14:36:24Z</time></trkpt><trkpt lat="43.996974301262" lon="15.37815669064953"><ele>9.0</ele><time>2026-05-01T14:36:25Z</time></trkpt><trkpt lat="43.99686863813621" lon="15.378326285972975"><ele>8.0</ele><time>2026-05-01T14:36:26Z</time></trkpt><trkpt lat="43.99675717503671" lon="15.37851176460877"><ele>7.0</ele><time>2026-05-01T14:36:27Z</time></trkpt><trkpt lat="43.99664132916922" lon="15.378705863031794"><ele>6.0</ele><time>2026-05-01T14:36:28Z</time></trkpt><trkpt lat="43.99651794699321" lon="15.378919362722398"><ele>8.0</ele><time>2026-05-01T14:36:29Z</time></trkpt><trkpt lat="43.99639534554084" lon="15.379138987324179"><ele>10.0</ele><time>2026-05-01T14:36:30Z</time></trkpt><trkpt lat="43.99626684621639" lon="15.379373818380229"><ele>12.0</ele><time>2026-05-01T14:36:31Z</time></trkpt><trkpt lat="43.99613697140543" lon="15.37961142293858"><ele>13.0</ele><time>2026-05-01T14:36:32Z</time></trkpt><trkpt lat="43.99600455088861" lon="15.379856452354202"><ele>14.0</ele><time>2026-05-01T14:36:33Z</time></trkpt><trkpt lat="43.995878254032206" lon="15.380088873549091"><ele>15.0</ele><time>2026-05-01T14:36:34Z</time></trkpt><trkpt lat="43.9957568602737" lon="15.380312579321645"><ele>15.0</ele><time>2026-05-01T14:36:35Z</time></trkpt><trkpt lat="43.9956356366345" lon="15.3805362188554"><ele>15.0</ele><time>2026-05-01T14:36:36Z</time></trkpt><trkpt lat="43.995536890851255" lon="15.38078124766111"><ele>15.0</ele><time>2026-05-01T14:36:37Z</time></trkpt><trkpt lat="43.99541612509084" lon="15.381006738041778"><ele>15.0</ele><time>2026-05-01T14:36:38Z</time></trkpt><trkpt lat="43.995299331405086" lon="15.38122967291471"><ele>15.0</ele><time>2026-05-01T14:36:39Z</time></trkpt><trkpt lat="43.99518266772852" lon="15.381449583630669"><ele>15.0</ele><time>2026-05-01T14:36:40Z</time></trkpt><trkpt lat="43.99506578022056" lon="15.381667012061612"><ele>15.0</ele><time>2026-05-01T14:36:41Z</time></trkpt><trkpt lat="43.99494384183811" lon="15.381881789516205"><ele>15.0</ele><time>2026-05-01T14:36:42Z</time></trkpt><trkpt lat="43.99482107961435" lon="15.382103599117881"><ele>15.0</ele><time>2026-05-01T14:36:43Z</time></trkpt><trkpt lat="43.99469606861022" lon="15.382330702619686"><ele>15.0</ele><time>2026-05-01T14:36:44Z</time></trkpt><trkpt lat="43.99457769648448" lon="15.382559481335967"><ele>15.0</ele><time>2026-05-01T14:36:45Z</time></trkpt><trkpt lat="43.994455089730764" lon="15.382792181518807"><ele>15.0</ele><time>2026-05-01T14:36:46Z</time></trkpt><trkpt lat="43.994330744692185" lon="15.38301968024012"><ele>16.0</ele><time>2026-05-01T14:36:47Z</time></trkpt><trkpt lat="43.99420439915593" lon="15.383248877408743"><ele>17.0</ele><time>2026-05-01T14:36:48Z</time></trkpt><trkpt lat="43.994075479122344" lon="15.383483249937631"><ele>18.0</ele><time>2026-05-01T14:36:49Z</time></trkpt><trkpt lat="43.993951075876495" lon="15.383702526216638"><ele>16.333333333333332</ele><time>2026-05-01T14:36:50Z</time></trkpt><trkpt lat="43.993824600432646" lon="15.383915356141667"><ele>14.666666666666666</ele><time>2026-05-01T14:36:51Z</time></trkpt><trkpt lat="43.99369370237429" lon="15.38411649218461"><ele>13.0</ele><time>2026-05-01T14:36:52Z</time></trkpt><trkpt lat="43.99355689401483" lon="15.384312323899934"><ele>13.0</ele><time>2026-05-01T14:36:53Z</time></trkpt><trkpt lat="43.99342143464734" lon="15.384504032513714"><ele>13.0</ele><time>2026-05-01T14:36:54Z</time></trkpt><trkpt lat="43.99328156681703" lon="15.384687257255708"><ele>13.0</ele><time>2026-05-01T14:36:55Z</time></trkpt><trkpt lat="43.993142006700516" lon="15.384863611034971"><ele>11.666666666666666</ele><time>2026-05-01T14:36:56Z</time></trkpt><trkpt lat="43.99300572732049" lon="15.385031256461389"><ele>10.333333333333332</ele><time>2026-05-01T14:36:57Z</time></trkpt><trkpt lat="43.99286428258204" lon="15.385188520560245"><ele>9.0</ele><time>2026-05-01T14:36:58Z</time></trkpt><trkpt lat="43.992728057039386" lon="15.385341734023717"><ele>9.0</ele><time>2026-05-01T14:36:59Z</time></trkpt><trkpt lat="43.99259163926329" lon="15.385482643290871"><ele>9.0</ele><time>2026-05-01T14:37:00Z</time></trkpt><trkpt lat="43.99245875391603" lon="15.385616102902304"><ele>9.0</ele><time>2026-05-01T14:37:01Z</time></trkpt><trkpt lat="43.9923287748286" lon="15.385731544673249"><ele>8.0</ele><time>2026-05-01T14:37:02Z</time></trkpt><trkpt lat="43.992206473513164" lon="15.385837361131033"><ele>7.0</ele><time>2026-05-01T14:37:03Z</time></trkpt><trkpt lat="43.99209012456363" lon="15.38593116059523"><ele>6.0</ele><time>2026-05-01T14:37:04Z</time></trkpt><trkpt lat="43.99197363141838" lon="15.386023738294394"><ele>5.0</ele><time>2026-05-01T14:37:05Z</time></trkpt><trkpt lat="43.99185940768431" lon="15.386113996051774"><ele>5.0</ele><time>2026-05-01T14:37:06Z</time></trkpt><trkpt lat="43.99175635652926" lon="15.386187033591199"><ele>5.0</ele><time>2026-05-01T14:37:07Z</time></trkpt><trkpt lat="43.99165672412552" lon="15.38626005224035"><ele>5.0</ele><time>2026-05-01T14:37:08Z</time></trkpt><trkpt lat="43.99154755237446" lon="15.386340114249643"><ele>5.0</ele><time>2026-05-01T14:37:09Z</time></trkpt><trkpt lat="43.991443555667686" lon="15.386413167610195"><ele>4.5</ele><time>2026-05-01T14:37:10Z</time></trkpt><trkpt lat="43.99134221162635" lon="15.386479246465745"><ele>4.0</ele><time>2026-05-01T14:37:11Z</time></trkpt><trkpt lat="43.99122318413917" lon="15.386547131447008"><ele>3.5</ele><time>2026-05-01T14:37:12Z</time></trkpt><trkpt lat="43.99108195921505" lon="15.386613194951924"><ele>3.0</ele><time>2026-05-01T14:37:13Z</time></trkpt><trkpt lat="43.990910604584535" lon="15.386731617125786"><ele>0.5</ele><time>2026-05-01T14:37:14Z</time></trkpt><trkpt lat="43.990686359738426" lon="15.386831740501188"><ele>-2.0</ele><time>2026-05-01T14:37:15Z</time></trkpt><trkpt lat="43.99045718150218" lon="15.386961809004038"><ele>-2.0</ele><time>2026-05-01T14:37:16Z</time></trkpt><trkpt lat="43.990247524108" lon="15.387069043220476"><ele>-2.0</ele><time>2026-05-01T14:37:17Z</time></trkpt><trkpt lat="43.99005131838452" lon="15.387178988880265"><ele>-2.0</ele><time>2026-05-01T14:37:18Z</time></trkpt><trkpt lat="43.98985412882515" lon="15.387303070816259"><ele>-1.3333333333333333</ele><time>2026-05-01T14:37:19Z</time></trkpt><trkpt lat="43.98965955879245" lon="15.387433269031613"><ele>-0.6666666666666666</ele><time>2026-05-01T14:37:20Z</time></trkpt><trkpt lat="43.98948648607183" lon="15.387543655126825"><ele>0.0</ele><time>2026-05-01T14:37:21Z</time></trkpt><trkpt lat="43.989329831964845" lon="15.387648643439974"><ele>0.0</ele><time>2026-05-01T14:37:22Z</time></trkpt><trkpt lat="43.989175557625074" lon="15.387771662052062"><ele>0.0</ele><time>2026-05-01T14:37:23Z</time></trkpt><trkpt lat="43.98899600262504" lon="15.387897096158975"><ele>0.0</ele><time>2026-05-01T14:37:24Z</time></trkpt><trkpt lat="43.988799286883385" lon="15.388060782877055"><ele>0.5</ele><time>2026-05-01T14:37:25Z</time></trkpt><trkpt lat="43.98859580236639" lon="15.388267028273075"><ele>1.0</ele><time>2026-05-01T14:37:26Z</time></trkpt><trkpt lat="43.98835483972888" lon="15.388475861920002"><ele>0.5</ele><time>2026-05-01T14:37:27Z</time></trkpt><trkpt lat="43.98809264680136" lon="15.388728667169296"><ele>0.0</ele><time>2026-05-01T14:37:28Z</time></trkpt><trkpt lat="43.98781649540779" lon="15.389017010961211"><ele>0.0</ele><time>2026-05-01T14:37:29Z</time></trkpt><trkpt lat="43.98754492949608" lon="15.389315361873619"><ele>0.0</ele><time>2026-05-01T14:37:30Z</time></trkpt><trkpt lat="43.98726896966279" lon="15.389614916852192"><ele>0.0</ele><time>2026-05-01T14:37:31Z</time></trkpt><trkpt lat="43.987004685601796" lon="15.389898941792858"><ele>0.0</ele><time>2026-05-01T14:37:32Z</time></trkpt><trkpt lat="43.98675640528192" lon="15.390158421598345"><ele>0.0</ele><time>2026-05-01T14:37:33Z</time></trkpt><trkpt lat="43.986520191739096" lon="15.390399145276367"><ele>0.0</ele><time>2026-05-01T14:37:34Z</time></trkpt><trkpt lat="43.986295268134505" lon="15.390632687216561"><ele>0.0</ele><time>2026-05-01T14:37:35Z</time></trkpt><trkpt lat="43.98608564535046" lon="15.390857952657106"><ele>0.0</ele><time>2026-05-01T14:37:36Z</time></trkpt><trkpt lat="43.98588731822281" lon="15.391070593561516"><ele>0.0</ele><time>2026-05-01T14:37:37Z</time></trkpt><trkpt lat="43.98570211120819" lon="15.391263479637978"><ele>0.0</ele><time>2026-05-01T14:37:38Z</time></trkpt><trkpt lat="43.985532379954016" lon="15.391447796565728"><ele>0.0</ele><time>2026-05-01T14:37:39Z</time></trkpt><trkpt lat="43.985370117738476" lon="15.391625907510027"><ele>-0.3333333333333333</ele><time>2026-05-01T14:37:40Z</time></trkpt><trkpt lat="43.98521495110907" lon="15.391790601288895"><ele>-0.6666666666666666</ele><time>2026-05-01T14:37:41Z</time></trkpt><trkpt lat="43.9850653581055" lon="15.391943835581639"><ele>-1.0</ele><time>2026-05-01T14:37:42Z</time></trkpt><trkpt lat="43.98492729862664" lon="15.392090134049432"><ele>-1.25</ele><time>2026-05-01T14:37:43Z</time></trkpt><trkpt lat="43.98480454232462" lon="15.392224676349732"><ele>-1.5</ele><time>2026-05-01T14:37:44Z</time></trkpt><trkpt lat="43.98469258934826" lon="15.392345736146789"><ele>-1.75</ele><time>2026-05-01T14:37:45Z</time></trkpt><trkpt lat="43.98457956106084" lon="15.392463173580627"><ele>-2.0</ele><time>2026-05-01T14:37:46Z</time></trkpt><trkpt lat="43.98446926024077" lon="15.392580997319097"><ele>-2.0</ele><time>2026-05-01T14:37:47Z</time></trkpt><trkpt lat="43.98436588043836" lon="15.39269388011112"><ele>-2.0</ele><time>2026-05-01T14:37:48Z</time></trkpt><trkpt lat="43.9842562057475" lon="15.392809226050762"><ele>-2.0</ele><time>2026-05-01T14:37:49Z</time></trkpt><trkpt lat="43.98414500655259" lon="15.392920874814454"><ele>-2.0</ele><time>2026-05-01T14:37:50Z</time></trkpt><trkpt lat="43.984034674052346" lon="15.393024814608577"><ele>-1.75</ele><time>2026-05-01T14:37:51Z</time></trkpt><trkpt lat="43.98392233043248" lon="15.393128959792296"><ele>-1.5</ele><time>2026-05-01T14:37:52Z</time></trkpt><trkpt lat="43.9838052595565" lon="15.39323138817111"><ele>-1.25</ele><time>2026-05-01T14:37:53Z</time></trkpt><trkpt lat="43.98368575296576" lon="15.393329209258601"><ele>-1.0</ele><time>2026-05-01T14:37:54Z</time></trkpt><trkpt lat="43.983560758799065" lon="15.39342113074529"><ele>-1.0</ele><time>2026-05-01T14:37:55Z</time></trkpt><trkpt lat="43.98343050709625" lon="15.393508153944403"><ele>-1.0</ele><time>2026-05-01T14:37:56Z</time></trkpt><trkpt lat="43.98329400411153" lon="15.39359606167652"><ele>-1.0</ele><time>2026-05-01T14:37:57Z</time></trkpt><trkpt lat="43.98315234702539" lon="15.393690086932315"><ele>-1.0</ele><time>2026-05-01T14:37:58Z</time></trkpt><trkpt lat="43.98298809363008" lon="15.393753689908797"><ele>-1.0</ele><time>2026-05-01T14:37:59Z</time></trkpt><trkpt lat="43.9828113965302" lon="15.393834530820847"><ele>-1.0</ele><time>2026-05-01T14:38:00Z</time></trkpt><trkpt lat="43.982613235188325" lon="15.393898674263506"><ele>-1.6666666666666665</ele><time>2026-05-01T14:38:01Z</time></trkpt><trkpt lat="43.98240793106716" lon="15.393955195783457"><ele>-2.3333333333333335</ele><time>2026-05-01T14:38:02Z</time></trkpt><trkpt lat="43.98220395061288" lon="15.393998162407087"><ele>-3.0</ele><time>2026-05-01T14:38:03Z</time></trkpt><trkpt lat="43.982014025543485" lon="15.394015028310323"><ele>-3.0</ele><time>2026-05-01T14:38:04Z</time></trkpt><trkpt lat="43.98182972149107" lon="15.394035730339096"><ele>-3.0</ele><time>2026-05-01T14:38:05Z</time></trkpt><trkpt lat="43.98164644697535" lon="15.394043714420471"><ele>-3.0</ele><time>2026-05-01T14:38:06Z</time></trkpt><trkpt lat="43.9814683836599" lon="15.394040496970748"><ele>-2.6666666666666665</ele><time>2026-05-01T14:38:07Z</time></trkpt><trkpt lat="43.98128720453079" lon="15.394035286462017"><ele>-2.333333333333333</ele><time>2026-05-01T14:38:08Z</time></trkpt><trkpt lat="43.98110942121889" lon="15.394034416099556"><ele>-2.0</ele><time>2026-05-01T14:38:09Z</time></trkpt><trkpt lat="43.980933012942636" lon="15.394037488616771"><ele>-2.6666666666666665</ele><time>2026-05-01T14:38:10Z</time></trkpt><trkpt lat="43.98076616330694" lon="15.394050946294"><ele>-3.333333333333333</ele><time>2026-05-01T14:38:11Z</time></trkpt><trkpt lat="43.98061068929972" lon="15.394077436268383"><ele>-4.0</ele><time>2026-05-01T14:38:12Z</time></trkpt><trkpt lat="43.980463650089845" lon="15.394109929769359"><ele>-4.0</ele><time>2026-05-01T14:38:13Z</time></trkpt><trkpt lat="43.98032208282619" lon="15.394145050214533"><ele>-4.0</ele><time>2026-05-01T14:38:14Z</time></trkpt><trkpt lat="43.980183003023065" lon="15.394186339325826"><ele>-4.0</ele><time>2026-05-01T14:38:15Z</time></trkpt><trkpt lat="43.980041663681625" lon="15.394228730626136"><ele>-4.0</ele><time>2026-05-01T14:38:16Z</time></trkpt><trkpt lat="43.979905617784475" lon="15.394281563054687"><ele>-3.75</ele><time>2026-05-01T14:38:17Z</time></trkpt><trkpt lat="43.9797729155162" lon="15.394343842444693"><ele>-3.5</ele><time>2026-05-01T14:38:18Z</time></trkpt><trkpt lat="43.97964345596755" lon="15.394409790461347"><ele>-3.25</ele><time>2026-05-01T14:38:19Z</time></trkpt><trkpt lat="43.97951882945641" lon="15.39447893262132"><ele>-3.0</ele><time>2026-05-01T14:38:20Z</time></trkpt><trkpt lat="43.97940758911085" lon="15.394543381182299"><ele>-3.0</ele><time>2026-05-01T14:38:21Z</time></trkpt><trkpt lat="43.979283660143984" lon="15.394611470892393"><ele>-3.0</ele><time>2026-05-01T14:38:22Z</time></trkpt><trkpt lat="43.97915509404058" lon="15.39470190142457"><ele>-3.0</ele><time>2026-05-01T14:38:23Z</time></trkpt><trkpt lat="43.979016578380225" lon="15.39480408111883"><ele>-3.0</ele><time>2026-05-01T14:38:24Z</time></trkpt><trkpt lat="43.97887419309124" lon="15.394913073641456"><ele>-2.3333333333333335</ele><time>2026-05-01T14:38:25Z</time></trkpt><trkpt lat="43.97872880841754" lon="15.395028150824338"><ele>-1.6666666666666665</ele><time>2026-05-01T14:38:26Z</time></trkpt><trkpt lat="43.97858940477359" lon="15.395165965140324"><ele>-1.0</ele><time>2026-05-01T14:38:27Z</time></trkpt><trkpt lat="43.97844690453989" lon="15.395311488824403"><ele>-1.3333333333333333</ele><time>2026-05-01T14:38:28Z</time></trkpt><trkpt lat="43.97830901222227" lon="15.395461064241747"><ele>-1.6666666666666665</ele><time>2026-05-01T14:38:29Z</time></trkpt><trkpt lat="43.978179951895555" lon="15.395619954938466"><ele>-2.0</ele><time>2026-05-01T14:38:30Z</time></trkpt><trkpt lat="43.97805762983628" lon="15.395779297370089"><ele>-1.3333333333333333</ele><time>2026-05-01T14:38:31Z</time></trkpt><trkpt lat="43.97793820601369" lon="15.395936121354591"><ele>-0.6666666666666666</ele><time>2026-05-01T14:38:32Z</time></trkpt><trkpt lat="43.977826633898886" lon="15.3960831626774"><ele>0.0</ele><time>2026-05-01T14:38:33Z</time></trkpt><trkpt lat="43.97772393610443" lon="15.396226974767659"><ele>0.3333333333333333</ele><time>2026-05-01T14:38:34Z</time></trkpt><trkpt lat="43.97761303261731" lon="15.396374021726773"><ele>0.6666666666666666</ele><time>2026-05-01T14:38:35Z</time></trkpt><trkpt lat="43.977488045941236" lon="15.396532688784712"><ele>1.0</ele><time>2026-05-01T14:38:36Z</time></trkpt><trkpt lat="43.977350722432135" lon="15.39670355711716"><ele>1.0</ele><time>2026-05-01T14:38:37Z</time></trkpt><trkpt lat="43.97720622838966" lon="15.396879318654522"><ele>1.0</ele><time>2026-05-01T14:38:38Z</time></trkpt><trkpt lat="43.97706960325006" lon="15.397062092856705"><ele>1.0</ele><time>2026-05-01T14:38:39Z</time></trkpt><trkpt lat="43.97693578139577" lon="15.397233114935027"><ele>1.0</ele><time>2026-05-01T14:38:40Z</time></trkpt><trkpt lat="43.97680447763201" lon="15.397409694266983"><ele>1.0</ele><time>2026-05-01T14:38:41Z</time></trkpt><trkpt lat="43.976675796223994" lon="15.39758177079138"><ele>1.0</ele><time>2026-05-01T14:38:42Z</time></trkpt><trkpt lat="43.97654839825237" lon="15.397741616055022"><ele>1.0</ele><time>2026-05-01T14:38:43Z</time></trkpt><trkpt lat="43.976418680888585" lon="15.397903617827403"><ele>1.0</ele><time>2026-05-01T14:38:44Z</time></trkpt><trkpt lat="43.97628810606146" lon="15.39808206663691"><ele>1.0</ele><time>2026-05-01T14:38:45Z</time></trkpt><trkpt lat="43.976153141404865" lon="15.3982628350553"><ele>1.3333333333333333</ele><time>2026-05-01T14:38:46Z</time></trkpt><trkpt lat="43.97600739700455" lon="15.39844911574738"><ele>1.6666666666666665</ele><time>2026-05-01T14:38:47Z</time></trkpt><trkpt lat="43.97585702713913" lon="15.398640057196356"><ele>2.0</ele><time>2026-05-01T14:38:48Z</time></trkpt><trkpt lat="43.97569755013355" lon="15.39884609061973"><ele>2.0</ele><time>2026-05-01T14:38:49Z</time></trkpt><trkpt lat="43.97554335155789" lon="15.39904240043046"><ele>2.0</ele><time>2026-05-01T14:38:50Z</time></trkpt><trkpt lat="43.97539920836661" lon="15.399207104768749"><ele>2.0</ele><time>2026-05-01T14:38:51Z</time></trkpt><trkpt lat="43.97526380057552" lon="15.399368063784548"><ele>2.0</ele><time>2026-05-01T14:38:52Z</time></trkpt><trkpt lat="43.97513190836212" lon="15.399533871760157"><ele>2.0</ele><time>2026-05-01T14:38:53Z</time></trkpt><trkpt lat="43.97499993936119" lon="15.399704204159143"><ele>2.0</ele><time>2026-05-01T14:38:54Z</time></trkpt><trkpt lat="43.9748682780262" lon="15.399876633807477"><ele>1.6666666666666665</ele><time>2026-05-01T14:38:55Z</time></trkpt><trkpt lat="43.974734826239505" lon="15.400048857100362"><ele>1.3333333333333333</ele><time>2026-05-01T14:38:56Z</time></trkpt><trkpt lat="43.974598372183195" lon="15.400222214953105"><ele>1.0</ele><time>2026-05-01T14:38:57Z</time></trkpt><trkpt lat="43.97446628288794" lon="15.400393315994215"><ele>1.3333333333333333</ele><time>2026-05-01T14:38:58Z</time></trkpt><trkpt lat="43.97433427517738" lon="15.400563627763507"><ele>1.6666666666666665</ele><time>2026-05-01T14:38:59Z</time></trkpt><trkpt lat="43.97420384759768" lon="15.40073530753324"><ele>2.0</ele><time>2026-05-01T14:39:00Z</time></trkpt><trkpt lat="43.9740776386775" lon="15.400905708770354"><ele>1.6666666666666665</ele><time>2026-05-01T14:39:01Z</time></trkpt><trkpt lat="43.9739434339674" lon="15.401080167670768"><ele>1.3333333333333333</ele><time>2026-05-01T14:39:02Z</time></trkpt><trkpt lat="43.973805388108154" lon="15.40125718894168"><ele>1.0</ele><time>2026-05-01T14:39:03Z</time></trkpt><trkpt lat="43.973670591246744" lon="15.401433955786121"><ele>1.0</ele><time>2026-05-01T14:39:04Z</time></trkpt><trkpt lat="43.97353632251343" lon="15.401616290682924"><ele>1.0</ele><time>2026-05-01T14:39:05Z</time></trkpt><trkpt lat="43.973401135448135" lon="15.401797419655901"><ele>1.0</ele><time>2026-05-01T14:39:06Z</time></trkpt><trkpt lat="43.97326439474515" lon="15.401985611623942"><ele>1.0</ele><time>2026-05-01T14:39:07Z</time></trkpt><trkpt lat="43.97313492366056" lon="15.402176413641492"><ele>1.0</ele><time>2026-05-01T14:39:08Z</time></trkpt><trkpt lat="43.9730101231319" lon="15.402381106911642"><ele>1.0</ele><time>2026-05-01T14:39:09Z</time></trkpt><trkpt lat="43.97288553821874" lon="15.402584282445575"><ele>1.0</ele><time>2026-05-01T14:39:10Z</time></trkpt><trkpt lat="43.972759155922034" lon="15.40278295401759"><ele>1.0</ele><time>2026-05-01T14:39:11Z</time></trkpt><trkpt lat="43.97263649996481" lon="15.40298812646499"><ele>1.0</ele><time>2026-05-01T14:39:12Z</time></trkpt><trkpt lat="43.97251362184378" lon="15.403196492881392"><ele>1.3333333333333333</ele><time>2026-05-01T14:39:13Z</time></trkpt><trkpt lat="43.97239529053335" lon="15.403404208169485"><ele>1.6666666666666665</ele><time>2026-05-01T14:39:14Z</time></trkpt><trkpt lat="43.972279814764235" lon="15.403608491972268"><ele>2.0</ele><time>2026-05-01T14:39:15Z</time></trkpt><trkpt lat="43.972172160551175" lon="15.403813763494451"><ele>3.0</ele><time>2026-05-01T14:39:16Z</time></trkpt><trkpt lat="43.972060540555646" lon="15.40402416944423"><ele>4.0</ele><time>2026-05-01T14:39:17Z</time></trkpt><trkpt lat="43.971942487525624" lon="15.404236395868114"><ele>5.0</ele><time>2026-05-01T14:39:18Z</time></trkpt><trkpt lat="43.97182201485919" lon="15.404452073502569"><ele>5.666666666666667</ele><time>2026-05-01T14:39:19Z</time></trkpt><trkpt lat="43.97170578159938" lon="15.404668499979506"><ele>6.333333333333334</ele><time>2026-05-01T14:39:20Z</time></trkpt><trkpt lat="43.97158932884548" lon="15.404877570458435"><ele>7.0</ele><time>2026-05-01T14:39:21Z</time></trkpt><trkpt lat="43.97147451058211" lon="15.405080223505403"><ele>7.0</ele><time>2026-05-01T14:39:22Z</time></trkpt><trkpt lat="43.97135611648051" lon="15.405293771617556"><ele>7.0</ele><time>2026-05-01T14:39:23Z</time></trkpt><trkpt lat="43.971237473199906" lon="15.405506770736936"><ele>7.0</ele><time>2026-05-01T14:39:24Z</time></trkpt><trkpt lat="43.971115336875705" lon="15.405715255865694"><ele>7.333333333333334</ele><time>2026-05-01T14:39:25Z</time></trkpt><trkpt lat="43.97098842343793" lon="15.405925654955459"><ele>7.666666666666666</ele><time>2026-05-01T14:39:26Z</time></trkpt><trkpt lat="43.97085614626557" lon="15.40613392749443"><ele>8.0</ele><time>2026-05-01T14:39:27Z</time></trkpt><trkpt lat="43.97072583199024" lon="15.406339146272511"><ele>8.0</ele><time>2026-05-01T14:39:28Z</time></trkpt><trkpt lat="43.970594725059264" lon="15.40653504587361"><ele>8.0</ele><time>2026-05-01T14:39:29Z</time></trkpt><trkpt lat="43.97046527925787" lon="15.406734843273275"><ele>8.0</ele><time>2026-05-01T14:39:30Z</time></trkpt><trkpt lat="43.970331311942026" lon="15.406936030529794"><ele>8.0</ele><time>2026-05-01T14:39:31Z</time></trkpt><trkpt lat="43.97018985185948" lon="15.407130893849095"><ele>8.0</ele><time>2026-05-01T14:39:32Z</time></trkpt><trkpt lat="43.970052512669554" lon="15.407326825004697"><ele>8.0</ele><time>2026-05-01T14:39:33Z</time></trkpt><trkpt lat="43.96991781875012" lon="15.40751873569759"><ele>8.0</ele><time>2026-05-01T14:39:34Z</time></trkpt><trkpt lat="43.969784595832" lon="15.407706319275448"><ele>8.0</ele><time>2026-05-01T14:39:35Z</time></trkpt><trkpt lat="43.96964971562813" lon="15.407891837480822"><ele>8.0</ele><time>2026-05-01T14:39:36Z</time></trkpt><trkpt lat="43.96951160442657" lon="15.408085018600978"><ele>8.0</ele><time>2026-05-01T14:39:37Z</time></trkpt><trkpt lat="43.969373356605374" lon="15.408279437089474"><ele>8.0</ele><time>2026-05-01T14:39:38Z</time></trkpt><trkpt lat="43.96923628180425" lon="15.408470974772165"><ele>8.0</ele><time>2026-05-01T14:39:39Z</time></trkpt><trkpt lat="43.96909840095772" lon="15.408664896285028"><ele>7.666666666666666</ele><time>2026-05-01T14:39:40Z</time></trkpt><trkpt lat="43.968963402608274" lon="15.408864054760622"><ele>7.333333333333334</ele><time>2026-05-01T14:39:41Z</time></trkpt><trkpt lat="43.96882783356602" lon="15.409064184605828"><ele>7.0</ele><time>2026-05-01T14:39:42Z</time></trkpt><trkpt lat="43.9686933332239" lon="15.409270416875284"><ele>7.0</ele><time>2026-05-01T14:39:43Z</time></trkpt><trkpt lat="43.96856053337632" lon="15.409475736876837"><ele>7.0</ele><time>2026-05-01T14:39:44Z</time></trkpt><trkpt lat="43.96842833561752" lon="15.409686928584692"><ele>7.0</ele><time>2026-05-01T14:39:45Z</time></trkpt><trkpt lat="43.96829636570717" lon="15.409904839438683"><ele>7.0</ele><time>2026-05-01T14:39:46Z</time></trkpt><trkpt lat="43.96817126144289" lon="15.410116983612399"><ele>7.0</ele><time>2026-05-01T14:39:47Z</time></trkpt><trkpt lat="43.96805764282431" lon="15.410325102834749"><ele>7.0</ele><time>2026-05-01T14:39:48Z</time></trkpt><trkpt lat="43.96794687378849" lon="15.410529954940024"><ele>7.0</ele><time>2026-05-01T14:39:49Z</time></trkpt><trkpt lat="43.967848224881" lon="15.410726582592487"><ele>7.0</ele><time>2026-05-01T14:39:50Z</time></trkpt><trkpt lat="43.96775763150145" lon="15.410915994562346"><ele>7.0</ele><time>2026-05-01T14:39:51Z</time></trkpt><trkpt lat="43.967672234837984" lon="15.411107657032538"><ele>7.0</ele><time>2026-05-01T14:39:52Z</time></trkpt><trkpt lat="43.96758383192553" lon="15.411301705013805"><ele>7.0</ele><time>2026-05-01T14:39:53Z</time></trkpt><trkpt lat="43.967497698939745" lon="15.411495484706588"><ele>7.0</ele><time>2026-05-01T14:39:54Z</time></trkpt><trkpt lat="43.96741443957537" lon="15.411686574282724"><ele>7.0</ele><time>2026-05-01T14:39:55Z</time></trkpt><trkpt lat="43.967330620396446" lon="15.411884541236125"><ele>7.0</ele><time>2026-05-01T14:39:56Z</time></trkpt><trkpt lat="43.96724477370663" lon="15.412093267259634"><ele>7.0</ele><time>2026-05-01T14:39:57Z</time></trkpt><trkpt lat="43.96715899288955" lon="15.412303345177103"><ele>7.0</ele><time>2026-05-01T14:39:58Z</time></trkpt><trkpt lat="43.96707720917507" lon="15.412524551956333"><ele>7.0</ele><time>2026-05-01T14:39:59Z</time></trkpt><trkpt lat="43.966997784230585" lon="15.412753772774549"><ele>7.0</ele><time>2026-05-01T14:40:00Z</time></trkpt><trkpt lat="43.966925682717886" lon="15.41297679447955"><ele>7.333333333333334</ele><time>2026-05-01T14:40:01Z</time></trkpt><trkpt lat="43.966853849596546" lon="15.413205804106108"><ele>7.666666666666666</ele><time>2026-05-01T14:40:02Z</time></trkpt><trkpt lat="43.966783032295176" lon="15.413437828296892"><ele>8.0</ele><time>2026-05-01T14:40:03Z</time></trkpt><trkpt lat="43.96670815985756" lon="15.413683386074128"><ele>7.333333333333333</ele><time>2026-05-01T14:40:04Z</time></trkpt><trkpt lat="43.96663708399583" lon="15.413927430511302"><ele>6.666666666666666</ele><time>2026-05-01T14:40:05Z</time></trkpt><trkpt lat="43.966569899237406" lon="15.414176800177671"><ele>6.0</ele><time>2026-05-01T14:40:06Z</time></trkpt><trkpt lat="43.966501745836176" lon="15.414433200525508"><ele>6.0</ele><time>2026-05-01T14:40:07Z</time></trkpt><trkpt lat="43.966434824507026" lon="15.41468681141543"><ele>6.0</ele><time>2026-05-01T14:40:08Z</time></trkpt><trkpt lat="43.96636885382801" lon="15.414944148840164"><ele>6.0</ele><time>2026-05-01T14:40:09Z</time></trkpt><trkpt lat="43.96630228466701" lon="15.41520438843493"><ele>6.0</ele><time>2026-05-01T14:40:10Z</time></trkpt><trkpt lat="43.96623623079027" lon="15.415463576196087"><ele>6.0</ele><time>2026-05-01T14:40:11Z</time></trkpt><trkpt lat="43.9661764399948" lon="15.415699147633907"><ele>6.0</ele><time>2026-05-01T14:40:12Z</time></trkpt><trkpt lat="43.96613036006908" lon="15.415890790489119"><ele>6.5</ele><time>2026-05-01T14:40:13Z</time></trkpt><trkpt lat="43.96608930222453" lon="15.41605274275873"><ele>7.0</ele><time>2026-05-01T14:40:14Z</time></trkpt><trkpt lat="43.966048473263356" lon="15.416211681210982"><ele>7.5</ele><time>2026-05-01T14:40:15Z</time></trkpt><trkpt lat="43.96601058191447" lon="15.416365083269252"><ele>8.0</ele><time>2026-05-01T14:40:16Z</time></trkpt><trkpt lat="43.965972949597834" lon="15.41651600994169"><ele>8.0</ele><time>2026-05-01T14:40:17Z</time></trkpt><trkpt lat="43.965933374135666" lon="15.416667028944845"><ele>8.0</ele><time>2026-05-01T14:40:18Z</time></trkpt><trkpt lat="43.96589039735147" lon="15.416827703284797"><ele>8.0</ele><time>2026-05-01T14:40:19Z</time></trkpt><trkpt lat="43.96584650321459" lon="15.41699363507344"><ele>8.0</ele><time>2026-05-01T14:40:20Z</time></trkpt><trkpt lat="43.96580208653356" lon="15.417160775778408"><ele>7.5</ele><time>2026-05-01T14:40:21Z</time></trkpt><trkpt lat="43.965757879680744" lon="15.417336389592544"><ele>7.0</ele><time>2026-05-01T14:40:22Z</time></trkpt><trkpt lat="43.96571252615246" lon="15.417517780130849"><ele>6.5</ele><time>2026-05-01T14:40:23Z</time></trkpt><trkpt lat="43.96566577859064" lon="15.41770596182797"><ele>6.0</ele><time>2026-05-01T14:40:24Z</time></trkpt><trkpt lat="43.96561622121273" lon="15.417894681692887"><ele>6.25</ele><time>2026-05-01T14:40:25Z</time></trkpt><trkpt lat="43.965566337330415" lon="15.418089311701033"><ele>6.5</ele><time>2026-05-01T14:40:26Z</time></trkpt><trkpt lat="43.96552064120252" lon="15.418280210082834"><ele>6.75</ele><time>2026-05-01T14:40:27Z</time></trkpt><trkpt lat="43.9654727448515" lon="15.418475645305394"><ele>7.0</ele><time>2026-05-01T14:40:28Z</time></trkpt><trkpt lat="43.965422679218044" lon="15.418670732421722"><ele>7.666666666666667</ele><time>2026-05-01T14:40:29Z</time></trkpt><trkpt lat="43.96537156343187" lon="15.418876572629511"><ele>8.333333333333334</ele><time>2026-05-01T14:40:30Z</time></trkpt><trkpt lat="43.96531941902464" lon="15.419075396235616"><ele>9.0</ele><time>2026-05-01T14:40:31Z</time></trkpt><trkpt lat="43.96526714239942" lon="15.419274110853282"><ele>9.0</ele><time>2026-05-01T14:40:32Z</time></trkpt><trkpt lat="43.96521613913441" lon="15.419473934758575"><ele>9.0</ele><time>2026-05-01T14:40:33Z</time></trkpt><trkpt lat="43.965165400989825" lon="15.41967407320746"><ele>9.0</ele><time>2026-05-01T14:40:34Z</time></trkpt><trkpt lat="43.96511596502356" lon="15.419867189476985"><ele>9.666666666666666</ele><time>2026-05-01T14:40:35Z</time></trkpt><trkpt lat="43.96506735800053" lon="15.42005921142721"><ele>10.333333333333332</ele><time>2026-05-01T14:40:36Z</time></trkpt><trkpt lat="43.96501516568848" lon="15.42026037674754"><ele>11.0</ele><time>2026-05-01T14:40:37Z</time></trkpt><trkpt lat="43.96496314470516" lon="15.420465860522969"><ele>10.333333333333332</ele><time>2026-05-01T14:40:38Z</time></trkpt><trkpt lat="43.96491103818625" lon="15.420671474699821"><ele>9.666666666666666</ele><time>2026-05-01T14:40:39Z</time></trkpt><trkpt lat="43.964858642941685" lon="15.420875969352396"><ele>9.0</ele><time>2026-05-01T14:40:40Z</time></trkpt><trkpt lat="43.96480683908059" lon="15.421084743394202"><ele>9.0</ele><time>2026-05-01T14:40:41Z</time></trkpt><trkpt lat="43.964757376615566" lon="15.421300654179882"><ele>9.0</ele><time>2026-05-01T14:40:42Z</time></trkpt><trkpt lat="43.964703452103436" lon="15.421515468039688"><ele>9.0</ele><time>2026-05-01T14:40:43Z</time></trkpt><trkpt lat="43.9646367700853" lon="15.421736894001715"><ele>9.666666666666666</ele><time>2026-05-01T14:40:44Z</time></trkpt><trkpt lat="43.96456704332523" lon="15.421961081672812"><ele>10.333333333333332</ele><time>2026-05-01T14:40:45Z</time></trkpt><trkpt lat="43.96449981392198" lon="15.422192334290996"><ele>11.0</ele><time>2026-05-01T14:40:46Z</time></trkpt><trkpt lat="43.9644398613098" lon="15.422420540068918"><ele>11.666666666666666</ele><time>2026-05-01T14:40:47Z</time></trkpt><trkpt lat="43.96438598272879" lon="15.42265281087029"><ele>12.333333333333332</ele><time>2026-05-01T14:40:48Z</time></trkpt><trkpt lat="43.96433337274327" lon="15.422885666708178"><ele>13.0</ele><time>2026-05-01T14:40:49Z</time></trkpt><trkpt lat="43.964280572636504" lon="15.42312335316784"><ele>13.0</ele><time>2026-05-01T14:40:50Z</time></trkpt><trkpt lat="43.96422572028556" lon="15.423355674718612"><ele>13.0</ele><time>2026-05-01T14:40:51Z</time></trkpt><trkpt lat="43.96416893584974" lon="15.42358439608074"><ele>13.0</ele><time>2026-05-01T14:40:52Z</time></trkpt><trkpt lat="43.96411365261657" lon="15.42381472296317"><ele>13.0</ele><time>2026-05-01T14:40:53Z</time></trkpt><trkpt lat="43.964058534133436" lon="15.424041574997046"><ele>13.0</ele><time>2026-05-01T14:40:54Z</time></trkpt><trkpt lat="43.96399903823018" lon="15.424269741450575"><ele>13.0</ele><time>2026-05-01T14:40:55Z</time></trkpt><trkpt lat="43.963943758525645" lon="15.424485648521843"><ele>13.666666666666666</ele><time>2026-05-01T14:40:56Z</time></trkpt><trkpt lat="43.96389181845127" lon="15.424693393111806"><ele>14.333333333333332</ele><time>2026-05-01T14:40:57Z</time></trkpt><trkpt lat="43.96383623902095" lon="15.424888918153222"><ele>15.0</ele><time>2026-05-01T14:40:58Z</time></trkpt><trkpt lat="43.963782143353164" lon="15.425082579944368"><ele>15.0</ele><time>2026-05-01T14:40:59Z</time></trkpt><trkpt lat="43.9637305251516" lon="15.425268207189946"><ele>15.0</ele><time>2026-05-01T14:41:00Z</time></trkpt><trkpt lat="43.9636826786201" lon="15.425447485435447"><ele>15.0</ele><time>2026-05-01T14:41:01Z</time></trkpt><trkpt lat="43.96364080368884" lon="15.425605998292406"><ele>15.0</ele><time>2026-05-01T14:41:02Z</time></trkpt><trkpt lat="43.96360225594693" lon="15.425748444202034"><ele>15.5</ele><time>2026-05-01T14:41:03Z</time></trkpt><trkpt lat="43.96356715008902" lon="15.425879037872633"><ele>16.0</ele><time>2026-05-01T14:41:04Z</time></trkpt><trkpt lat="43.96353873513464" lon="15.425989170984625"><ele>16.5</ele><time>2026-05-01T14:41:05Z</time></trkpt><trkpt lat="43.96351428180911" lon="15.426084275039726"><ele>17.0</ele><time>2026-05-01T14:41:06Z</time></trkpt><trkpt lat="43.963491898043024" lon="15.426167530198358"><ele>17.5</ele><time>2026-05-01T14:41:07Z</time></trkpt><trkpt lat="43.96345591490186" lon="15.426314158578053"><ele>18.0</ele><time>2026-05-01T14:41:09Z</time></trkpt><trkpt lat="43.96342225507658" lon="15.426436591906795"><ele>18.0</ele><time>2026-05-01T14:41:11Z</time></trkpt><trkpt lat="43.96342588987834" lon="15.426533106317228"><ele>18.0</ele><time>2026-05-01T14:41:50Z</time></trkpt><trkpt lat="43.96339927518889" lon="15.42663164132142"><ele>18.0</ele><time>2026-05-01T14:41:51Z</time></trkpt><trkpt lat="43.96336397837336" lon="15.42676452174189"><ele>18.0</ele><time>2026-05-01T14:41:52Z</time></trkpt><trkpt lat="43.96332519162527" lon="15.426913283546023"><ele>18.0</ele><time>2026-05-01T14:41:53Z</time></trkpt><trkpt lat="43.96327976721172" lon="15.427082554550601"><ele>18.5</ele><time>2026-05-01T14:41:54Z</time></trkpt><trkpt lat="43.96323006688103" lon="15.427264476901412"><ele>19.0</ele><time>2026-05-01T14:41:55Z</time></trkpt><trkpt lat="43.96317695172031" lon="15.427459603920617"><ele>19.5</ele><time>2026-05-01T14:41:56Z</time></trkpt><trkpt lat="43.96311955964255" lon="15.427661712263015"><ele>20.0</ele><time>2026-05-01T14:41:57Z</time></trkpt><trkpt lat="43.96305958452937" lon="15.427872811578222"><ele>21.0</ele><time>2026-05-01T14:41:58Z</time></trkpt><trkpt lat="43.96299611341044" lon="15.428085429500609"><ele>22.0</ele><time>2026-05-01T14:41:59Z</time></trkpt><trkpt lat="43.96293187517166" lon="15.428299529795138"><ele>23.0</ele><time>2026-05-01T14:42:00Z</time></trkpt><trkpt lat="43.96286481078281" lon="15.42851790396445"><ele>23.0</ele><time>2026-05-01T14:42:01Z</time></trkpt><trkpt lat="43.96279461873495" lon="15.428735618430935"><ele>23.0</ele><time>2026-05-01T14:42:02Z</time></trkpt><trkpt lat="43.96272202244742" lon="15.428951240818895"><ele>23.0</ele><time>2026-05-01T14:42:03Z</time></trkpt><trkpt lat="43.96263940948036" lon="15.429154484403394"><ele>23.666666666666668</ele><time>2026-05-01T14:42:04Z</time></trkpt><trkpt lat="43.962553827359535" lon="15.429359965236921"><ele>24.333333333333336</ele><time>2026-05-01T14:42:05Z</time></trkpt><trkpt lat="43.96246715796073" lon="15.429560679563522"><ele>25.0</ele><time>2026-05-01T14:42:06Z</time></trkpt><trkpt lat="43.962381312635294" lon="15.42975441172445"><ele>23.333333333333336</ele><time>2026-05-01T14:42:07Z</time></trkpt><trkpt lat="43.962289681560556" lon="15.429956723144944"><ele>21.666666666666668</ele><time>2026-05-01T14:42:08Z</time></trkpt><trkpt lat="43.962198853579544" lon="15.430156234642931"><ele>20.0</ele><time>2026-05-01T14:42:09Z</time></trkpt><trkpt lat="43.96210636022466" lon="15.430353227941225"><ele>21.333333333333336</ele><time>2026-05-01T14:42:10Z</time></trkpt><trkpt lat="43.96200837337827" lon="15.430540873097133"><ele>22.666666666666668</ele><time>2026-05-01T14:42:11Z</time></trkpt><trkpt lat="43.96190779808948" lon="15.430733297600217"><ele>24.0</ele><time>2026-05-01T14:42:12Z</time></trkpt><trkpt lat="43.96180466500745" lon="15.430918589717475"><ele>24.333333333333336</ele><time>2026-05-01T14:42:13Z</time></trkpt><trkpt lat="43.96169764892971" lon="15.431103246334956"><ele>24.666666666666668</ele><time>2026-05-01T14:42:14Z</time></trkpt><trkpt lat="43.96158978309265" lon="15.431282085544005"><ele>25.0</ele><time>2026-05-01T14:42:15Z</time></trkpt><trkpt lat="43.96147955601177" lon="15.431461210675597"><ele>25.0</ele><time>2026-05-01T14:42:16Z</time></trkpt><trkpt lat="43.96136356126792" lon="15.43163917056787"><ele>25.0</ele><time>2026-05-01T14:42:17Z</time></trkpt><trkpt lat="43.96124512632267" lon="15.431817385980294"><ele>25.0</ele><time>2026-05-01T14:42:18Z</time></trkpt><trkpt lat="43.961118904355224" lon="15.431999922158875"><ele>24.333333333333336</ele><time>2026-05-01T14:42:19Z</time></trkpt><trkpt lat="43.960991079016914" lon="15.43218495282946"><ele>23.666666666666668</ele><time>2026-05-01T14:42:20Z</time></trkpt><trkpt lat="43.96085943060851" lon="15.432359626858737"><ele>23.0</ele><time>2026-05-01T14:42:21Z</time></trkpt><trkpt lat="43.960723187771265" lon="15.432532298500721"><ele>23.0</ele><time>2026-05-01T14:42:22Z</time></trkpt><trkpt lat="43.96058735921602" lon="15.432704220712766"><ele>23.0</ele><time>2026-05-01T14:42:23Z</time></trkpt><trkpt lat="43.96045293889333" lon="15.432870022472557"><ele>23.0</ele><time>2026-05-01T14:42:24Z</time></trkpt><trkpt lat="43.96031511148077" lon="15.433043575854043"><ele>23.666666666666668</ele><time>2026-05-01T14:42:25Z</time></trkpt><trkpt lat="43.96017358155044" lon="15.433215049728478"><ele>24.333333333333336</ele><time>2026-05-01T14:42:26Z</time></trkpt><trkpt lat="43.960033774836226" lon="15.433387683014512"><ele>25.0</ele><time>2026-05-01T14:42:27Z</time></trkpt><trkpt lat="43.95989416834225" lon="15.433553385396278"><ele>25.0</ele><time>2026-05-01T14:42:28Z</time></trkpt><trkpt lat="43.95975432854106" lon="15.433722860853091"><ele>25.0</ele><time>2026-05-01T14:42:29Z</time></trkpt><trkpt lat="43.95961524437293" lon="15.433892555802366"><ele>25.0</ele><time>2026-05-01T14:42:30Z</time></trkpt><trkpt lat="43.95947820401627" lon="15.434061838029834"><ele>25.333333333333336</ele><time>2026-05-01T14:42:31Z</time></trkpt><trkpt lat="43.95934361788132" lon="15.434225930625807"><ele>25.666666666666664</ele><time>2026-05-01T14:42:32Z</time></trkpt><trkpt lat="43.95920788099013" lon="15.434389712106233"><ele>26.0</ele><time>2026-05-01T14:42:33Z</time></trkpt><trkpt lat="43.95907332473221" lon="15.434550940525071"><ele>27.0</ele><time>2026-05-01T14:42:34Z</time></trkpt><trkpt lat="43.958937449953346" lon="15.434713791092392"><ele>28.0</ele><time>2026-05-01T14:42:35Z</time></trkpt><trkpt lat="43.95880281968253" lon="15.434880056383397"><ele>29.0</ele><time>2026-05-01T14:42:36Z</time></trkpt><trkpt lat="43.95866621905456" lon="15.435054096367873"><ele>29.0</ele><time>2026-05-01T14:42:37Z</time></trkpt><trkpt lat="43.9585239221006" lon="15.435231540524697"><ele>29.0</ele><time>2026-05-01T14:42:38Z</time></trkpt><trkpt lat="43.9583846086112" lon="15.435412272238676"><ele>29.0</ele><time>2026-05-01T14:42:39Z</time></trkpt><trkpt lat="43.958245616335766" lon="15.435595796300905"><ele>28.0</ele><time>2026-05-01T14:42:40Z</time></trkpt><trkpt lat="43.95810328671045" lon="15.435780237674614"><ele>27.0</ele><time>2026-05-01T14:42:41Z</time></trkpt><trkpt lat="43.95796167910307" lon="15.435964520456663"><ele>26.0</ele><time>2026-05-01T14:42:42Z</time></trkpt><trkpt lat="43.95782181456319" lon="15.436151491447179"><ele>27.0</ele><time>2026-05-01T14:42:43Z</time></trkpt><trkpt lat="43.95768334541769" lon="15.436345033007358"><ele>28.0</ele><time>2026-05-01T14:42:44Z</time></trkpt><trkpt lat="43.95754409091564" lon="15.436539654420468"><ele>29.0</ele><time>2026-05-01T14:42:45Z</time></trkpt><trkpt lat="43.957405818539115" lon="15.43673433990689"><ele>28.333333333333332</ele><time>2026-05-01T14:42:46Z</time></trkpt><trkpt lat="43.957265462660736" lon="15.43693620809917"><ele>27.666666666666664</ele><time>2026-05-01T14:42:47Z</time></trkpt><trkpt lat="43.95712338407046" lon="15.437142156791438"><ele>27.0</ele><time>2026-05-01T14:42:48Z</time></trkpt><trkpt lat="43.95698057843551" lon="15.43735418719915"><ele>27.0</ele><time>2026-05-01T14:42:49Z</time></trkpt><trkpt lat="43.95684037849323" lon="15.437568190804715"><ele>27.0</ele><time>2026-05-01T14:42:50Z</time></trkpt><trkpt lat="43.95670355743011" lon="15.437779294637378"><ele>27.0</ele><time>2026-05-01T14:42:51Z</time></trkpt><trkpt lat="43.95656560811739" lon="15.437999737639212"><ele>26.0</ele><time>2026-05-01T14:42:52Z</time></trkpt><trkpt lat="43.95642550053469" lon="15.4382196274624"><ele>25.0</ele><time>2026-05-01T14:42:53Z</time></trkpt><trkpt lat="43.95628534302451" lon="15.438443157715048"><ele>24.0</ele><time>2026-05-01T14:42:54Z</time></trkpt><trkpt lat="43.95614133661366" lon="15.438669509729664"><ele>24.0</ele><time>2026-05-01T14:42:55Z</time></trkpt><trkpt lat="43.95599951504524" lon="15.438897362685367"><ele>24.0</ele><time>2026-05-01T14:42:56Z</time></trkpt><trkpt lat="43.95586043899212" lon="15.439127454131075"><ele>24.0</ele><time>2026-05-01T14:42:57Z</time></trkpt><trkpt lat="43.95572198679842" lon="15.439363907069438"><ele>24.0</ele><time>2026-05-01T14:42:58Z</time></trkpt><trkpt lat="43.95558415633524" lon="15.439603029334958"><ele>24.0</ele><time>2026-05-01T14:42:59Z</time></trkpt><trkpt lat="43.9554456497315" lon="15.439840198569977"><ele>24.0</ele><time>2026-05-01T14:43:00Z</time></trkpt><trkpt lat="43.95530582555739" lon="15.440076896642049"><ele>23.666666666666668</ele><time>2026-05-01T14:43:01Z</time></trkpt><trkpt lat="43.95516529627564" lon="15.440315583388859"><ele>23.333333333333336</ele><time>2026-05-01T14:43:02Z</time></trkpt><trkpt lat="43.95502481559136" lon="15.440558264746686"><ele>23.0</ele><time>2026-05-01T14:43:03Z</time></trkpt><trkpt lat="43.95488496026607" lon="15.440800005360973"><ele>23.0</ele><time>2026-05-01T14:43:04Z</time></trkpt><trkpt lat="43.95474415759474" lon="15.441045013097478"><ele>23.0</ele><time>2026-05-01T14:43:05Z</time></trkpt><trkpt lat="43.95460360395572" lon="15.441289052824374"><ele>23.666666666666668</ele><time>2026-05-01T14:43:06Z</time></trkpt><trkpt lat="43.95446347301388" lon="15.441531562466498"><ele>24.333333333333336</ele><time>2026-05-01T14:43:07Z</time></trkpt><trkpt lat="43.95432370895877" lon="15.441766503927498"><ele>25.0</ele><time>2026-05-01T14:43:08Z</time></trkpt><trkpt lat="43.9541828986513" lon="15.442003226050453"><ele>25.333333333333336</ele><time>2026-05-01T14:43:09Z</time></trkpt><trkpt lat="43.954044318881124" lon="15.442241548512325"><ele>25.666666666666664</ele><time>2026-05-01T14:43:10Z</time></trkpt><trkpt lat="43.95390377930809" lon="15.442484003326017"><ele>26.0</ele><time>2026-05-01T14:43:11Z</time></trkpt><trkpt lat="43.953765054093545" lon="15.442724967659661"><ele>26.0</ele><time>2026-05-01T14:43:12Z</time></trkpt><trkpt lat="43.95362783040151" lon="15.442961178771574"><ele>26.0</ele><time>2026-05-01T14:43:13Z</time></trkpt><trkpt lat="43.95348973453409" lon="15.443199068425324"><ele>26.0</ele><time>2026-05-01T14:43:14Z</time></trkpt><trkpt lat="43.95335016766324" lon="15.44343969030501"><ele>25.666666666666664</ele><time>2026-05-01T14:43:15Z</time></trkpt><trkpt lat="43.953209089042886" lon="15.443680636580039"><ele>25.333333333333336</ele><time>2026-05-01T14:43:16Z</time></trkpt><trkpt lat="43.953069916514" lon="15.44391443380957"><ele>25.0</ele><time>2026-05-01T14:43:17Z</time></trkpt><trkpt lat="43.952930156611366" lon="15.444151217933845"><ele>25.0</ele><time>2026-05-01T14:43:18Z</time></trkpt><trkpt lat="43.952793631874314" lon="15.44439145317756"><ele>25.0</ele><time>2026-05-01T14:43:19Z</time></trkpt><trkpt lat="43.952659038296495" lon="15.444630679079282"><ele>25.0</ele><time>2026-05-01T14:43:20Z</time></trkpt><trkpt lat="43.952523331655826" lon="15.44486359910374"><ele>25.0</ele><time>2026-05-01T14:43:21Z</time></trkpt><trkpt lat="43.952384231545416" lon="15.445095815800387"><ele>25.0</ele><time>2026-05-01T14:43:22Z</time></trkpt><trkpt lat="43.95225663206402" lon="15.445308672461591"><ele>25.0</ele><time>2026-05-01T14:43:23Z</time></trkpt><trkpt lat="43.952130112874116" lon="15.445521926569056"><ele>25.666666666666668</ele><time>2026-05-01T14:43:24Z</time></trkpt><trkpt lat="43.95199896698774" lon="15.445737465803848"><ele>26.333333333333336</ele><time>2026-05-01T14:43:25Z</time></trkpt><trkpt lat="43.951869578573984" lon="15.445951882856079"><ele>27.0</ele><time>2026-05-01T14:43:26Z</time></trkpt><trkpt lat="43.95174049788486" lon="15.446163110567431"><ele>27.666666666666664</ele><time>2026-05-01T14:43:27Z</time></trkpt><trkpt lat="43.95162309460525" lon="15.446344038717646"><ele>28.333333333333332</ele><time>2026-05-01T14:43:28Z</time></trkpt><trkpt lat="43.951513688490756" lon="15.446503796031244"><ele>29.0</ele><time>2026-05-01T14:43:29Z</time></trkpt><trkpt lat="43.95141055060355" lon="15.44664363033962"><ele>29.0</ele><time>2026-05-01T14:43:30Z</time></trkpt><trkpt lat="43.951317006724835" lon="15.446768202519907"><ele>29.0</ele><time>2026-05-01T14:43:31Z</time></trkpt><trkpt lat="43.951226739288494" lon="15.446896173968495"><ele>29.0</ele><time>2026-05-01T14:43:32Z</time></trkpt><trkpt lat="43.95113905018943" lon="15.447026618639118"><ele>29.0</ele><time>2026-05-01T14:43:33Z</time></trkpt><trkpt lat="43.95104671077922" lon="15.44713958243212"><ele>30.0</ele><time>2026-05-01T14:43:34Z</time></trkpt><trkpt lat="43.950950342030744" lon="15.447213726714628"><ele>31.0</ele><time>2026-05-01T14:43:35Z</time></trkpt><trkpt lat="43.950839374752476" lon="15.447245510958053"><ele>32.0</ele><time>2026-05-01T14:43:36Z</time></trkpt><trkpt lat="43.95071715305663" lon="15.44722906755817"><ele>33.0</ele><time>2026-05-01T14:43:37Z</time></trkpt><trkpt lat="43.95058217898075" lon="15.447168117323109"><ele>30.666666666666664</ele><time>2026-05-01T14:43:38Z</time></trkpt><trkpt lat="43.950439010103146" lon="15.447094234500884"><ele>28.333333333333332</ele><time>2026-05-01T14:43:39Z</time></trkpt><trkpt lat="43.95028385818824" lon="15.447016685304742"><ele>26.0</ele><time>2026-05-01T14:43:40Z</time></trkpt><trkpt lat="43.950123820641046" lon="15.446951908755223"><ele>25.0</ele><time>2026-05-01T14:43:41Z</time></trkpt><trkpt lat="43.949976564225466" lon="15.44687924602092"><ele>24.0</ele><time>2026-05-01T14:43:42Z</time></trkpt><trkpt lat="43.94984860017221" lon="15.446766116786636"><ele>23.0</ele><time>2026-05-01T14:43:43Z</time></trkpt><trkpt lat="43.94974751132448" lon="15.4466092892476"><ele>23.0</ele><time>2026-05-01T14:43:44Z</time></trkpt><trkpt lat="43.9496572310825" lon="15.44641984571603"><ele>23.0</ele><time>2026-05-01T14:43:45Z</time></trkpt><trkpt lat="43.94955971954627" lon="15.446215925139398"><ele>23.0</ele><time>2026-05-01T14:43:46Z</time></trkpt><trkpt lat="43.94946269121387" lon="15.446018015417442"><ele>21.333333333333336</ele><time>2026-05-01T14:43:47Z</time></trkpt><trkpt lat="43.949367691214405" lon="15.445827630893994"><ele>19.666666666666668</ele><time>2026-05-01T14:43:48Z</time></trkpt><trkpt lat="43.949276223157916" lon="15.445641315557129"><ele>18.0</ele><time>2026-05-01T14:43:49Z</time></trkpt><trkpt lat="43.94918826549356" lon="15.445468316250789"><ele>16.0</ele><time>2026-05-01T14:43:50Z</time></trkpt><trkpt lat="43.94910847509596" lon="15.445289981680656"><ele>14.0</ele><time>2026-05-01T14:43:51Z</time></trkpt><trkpt lat="43.949027538727826" lon="15.445137749731588"><ele>12.0</ele><time>2026-05-01T14:43:52Z</time></trkpt><trkpt lat="43.94894018166063" lon="15.445000840853725"><ele>10.0</ele><time>2026-05-01T14:43:53Z</time></trkpt><trkpt lat="43.94886805961087" lon="15.44489061046221"><ele>10.0</ele><time>2026-05-01T14:43:54Z</time></trkpt><trkpt lat="43.94880996873136" lon="15.444815651989016"><ele>10.0</ele><time>2026-05-01T14:43:55Z</time></trkpt><trkpt lat="43.94873175489509" lon="15.44474360759932"><ele>10.0</ele><time>2026-05-01T14:43:57Z</time></trkpt><trkpt lat="43.94863588539299" lon="15.444786345676212"><ele>10.0</ele><time>2026-05-01T14:44:10Z</time></trkpt><trkpt lat="43.94859682392337" lon="15.444890852919213"><ele>10.0</ele><time>2026-05-01T14:44:11Z</time></trkpt><trkpt lat="43.94854473127674" lon="15.44499916854193"><ele>10.0</ele><time>2026-05-01T14:44:12Z</time></trkpt><trkpt lat="43.948465925793286" lon="15.445098845609603"><ele>10.0</ele><time>2026-05-01T14:44:13Z</time></trkpt><trkpt lat="43.94837124433464" lon="15.445194601255823"><ele>10.0</ele><time>2026-05-01T14:44:14Z</time></trkpt><trkpt lat="43.94826339561383" lon="15.445295874382959"><ele>10.0</ele><time>2026-05-01T14:44:15Z</time></trkpt><trkpt lat="43.94815416126798" lon="15.445390971140295"><ele>10.0</ele><time>2026-05-01T14:44:16Z</time></trkpt><trkpt lat="43.94805118405815" lon="15.445479229198758"><ele>10.0</ele><time>2026-05-01T14:44:17Z</time></trkpt><trkpt lat="43.947958213509104" lon="15.445567436475184"><ele>10.0</ele><time>2026-05-01T14:44:18Z</time></trkpt><trkpt lat="43.94787741241145" lon="15.445650436904426"><ele>10.0</ele><time>2026-05-01T14:44:19Z</time></trkpt><trkpt lat="43.94780276290226" lon="15.445721304625971"><ele>10.0</ele><time>2026-05-01T14:44:20Z</time></trkpt><trkpt lat="43.9477214544765" lon="15.445791201216235"><ele>10.0</ele><time>2026-05-01T14:44:21Z</time></trkpt><trkpt lat="43.94764772599899" lon="15.44585295925351"><ele>10.0</ele><time>2026-05-01T14:44:22Z</time></trkpt><trkpt lat="43.947587223417564" lon="15.445896518464721"><ele>10.0</ele><time>2026-05-01T14:44:23Z</time></trkpt><trkpt lat="43.947535802839326" lon="15.445947693772956"><ele>10.0</ele><time>2026-05-01T14:44:24Z</time></trkpt><trkpt lat="43.947423172649934" lon="15.446023472632273"><ele>10.0</ele><time>2026-05-01T14:44:26Z</time></trkpt><trkpt lat="43.94734993318775" lon="15.44602148745072"><ele>10.0</ele><time>2026-05-01T14:44:27Z</time></trkpt><trkpt lat="43.94726888317598" lon="15.445962641255068"><ele>9.6</ele><time>2026-05-01T14:44:28Z</time></trkpt><trkpt lat="43.947185970775706" lon="15.44595262624812"><ele>9.2</ele><time>2026-05-01T14:44:29Z</time></trkpt><trkpt lat="43.94710235020916" lon="15.445939029990422"><ele>8.8</ele><time>2026-05-01T14:44:30Z</time></trkpt><trkpt lat="43.947005049237546" lon="15.445898405111697"><ele>8.4</ele><time>2026-05-01T14:44:31Z</time></trkpt><trkpt lat="43.946898271122194" lon="15.445870351843894"><ele>8.0</ele><time>2026-05-01T14:44:32Z</time></trkpt><trkpt lat="43.946770339967635" lon="15.445844920961749"><ele>7.5</ele><time>2026-05-01T14:44:33Z</time></trkpt><trkpt lat="43.94663788463264" lon="15.445814863952142"><ele>7.0</ele><time>2026-05-01T14:44:34Z</time></trkpt><trkpt lat="43.9464941700281" lon="15.4457776968266"><ele>6.5</ele><time>2026-05-01T14:44:35Z</time></trkpt><trkpt lat="43.94636372667423" lon="15.445734362666702"><ele>6.0</ele><time>2026-05-01T14:44:36Z</time></trkpt><trkpt lat="43.946238803189736" lon="15.445691564627639"><ele>6.0</ele><time>2026-05-01T14:44:37Z</time></trkpt><trkpt lat="43.9461130902814" lon="15.445654318151918"><ele>6.0</ele><time>2026-05-01T14:44:38Z</time></trkpt><trkpt lat="43.945993671663636" lon="15.445619530007042"><ele>6.0</ele><time>2026-05-01T14:44:39Z</time></trkpt><trkpt lat="43.94587140550267" lon="15.445589953559413"><ele>6.0</ele><time>2026-05-01T14:44:40Z</time></trkpt><trkpt lat="43.945756261811006" lon="15.445566113659357"><ele>5.6</ele><time>2026-05-01T14:44:41Z</time></trkpt><trkpt lat="43.9456439392322" lon="15.445557136072722"><ele>5.199999999999999</ele><time>2026-05-01T14:44:42Z</time></trkpt><trkpt lat="43.94552769548167" lon="15.445589642220286"><ele>4.800000000000001</ele><time>2026-05-01T14:44:43Z</time></trkpt><trkpt lat="43.94543048636171" lon="15.445644512919143"><ele>4.4</ele><time>2026-05-01T14:44:44Z</time></trkpt><trkpt lat="43.94534261991401" lon="15.445725740665107"><ele>4.0</ele><time>2026-05-01T14:44:45Z</time></trkpt><trkpt lat="43.94525182348013" lon="15.445805049328666"><ele>4.0</ele><time>2026-05-01T14:44:46Z</time></trkpt><trkpt lat="43.945140678269745" lon="15.445890540737935"><ele>4.0</ele><time>2026-05-01T14:44:47Z</time></trkpt><trkpt lat="43.94502806112386" lon="15.445968020547326"><ele>4.0</ele><time>2026-05-01T14:44:48Z</time></trkpt><trkpt lat="43.94490589372637" lon="15.446049972156978"><ele>4.0</ele><time>2026-05-01T14:44:49Z</time></trkpt><trkpt lat="43.9447935458067" lon="15.44613565556963"><ele>3.75</ele><time>2026-05-01T14:44:50Z</time></trkpt><trkpt lat="43.94468658209861" lon="15.446216495081705"><ele>3.5</ele><time>2026-05-01T14:44:51Z</time></trkpt><trkpt lat="43.944577894126525" lon="15.446294174263006"><ele>3.25</ele><time>2026-05-01T14:44:52Z</time></trkpt><trkpt lat="43.944470925385154" lon="15.446374450234828"><ele>3.0</ele><time>2026-05-01T14:44:53Z</time></trkpt><trkpt lat="43.9443532438987" lon="15.446464141535644"><ele>3.0</ele><time>2026-05-01T14:44:54Z</time></trkpt><trkpt lat="43.9442319070792" lon="15.446555898255832"><ele>3.0</ele><time>2026-05-01T14:44:55Z</time></trkpt><trkpt lat="43.94410856870673" lon="15.446647165281432"><ele>3.0</ele><time>2026-05-01T14:44:56Z</time></trkpt><trkpt lat="43.94398544798661" lon="15.446740813184034"><ele>3.0</ele><time>2026-05-01T14:44:57Z</time></trkpt><trkpt lat="43.943862466936494" lon="15.446834363411888"><ele>3.75</ele><time>2026-05-01T14:44:58Z</time></trkpt><trkpt lat="43.94374236616358" lon="15.446918422563684"><ele>4.5</ele><time>2026-05-01T14:44:59Z</time></trkpt><trkpt lat="43.943634419175574" lon="15.44700088264894"><ele>5.25</ele><time>2026-05-01T14:45:00Z</time></trkpt><trkpt lat="43.94353776105957" lon="15.44707214354772"><ele>6.0</ele><time>2026-05-01T14:45:01Z</time></trkpt><trkpt lat="43.94345034951016" lon="15.447137953950278"><ele>6.5</ele><time>2026-05-01T14:45:02Z</time></trkpt><trkpt lat="43.94337612530932" lon="15.447200531322002"><ele>7.0</ele><time>2026-05-01T14:45:03Z</time></trkpt><trkpt lat="43.94330769328078" lon="15.447249675171763"><ele>7.5</ele><time>2026-05-01T14:45:04Z</time></trkpt><trkpt lat="43.94324580156102" lon="15.447293721778287"><ele>8.0</ele><time>2026-05-01T14:45:05Z</time></trkpt><trkpt lat="43.94318532959481" lon="15.44733622173757"><ele>8.5</ele><time>2026-05-01T14:45:06Z</time></trkpt><trkpt lat="43.94312591637429" lon="15.447381557061124"><ele>9.0</ele><time>2026-05-01T14:45:07Z</time></trkpt><trkpt lat="43.943021700815464" lon="15.44746609886334"><ele>9.0</ele><time>2026-05-01T14:45:09Z</time></trkpt><trkpt lat="43.94293085790958" lon="15.447531312922866"><ele>9.0</ele><time>2026-05-01T14:45:11Z</time></trkpt><trkpt lat="43.942849685343404" lon="15.447586373445317"><ele>9.0</ele><time>2026-05-01T14:45:13Z</time></trkpt><trkpt lat="43.94278213251845" lon="15.447629388252162"><ele>9.0</ele><time>2026-05-01T14:45:15Z</time></trkpt><trkpt lat="43.942707017646924" lon="15.447660427235425"><ele>9.0</ele><time>2026-05-01T14:45:18Z</time></trkpt><trkpt lat="43.94264571981009" lon="15.447735611467996"><ele>9.0</ele><time>2026-05-01T14:46:03Z</time></trkpt><trkpt lat="43.942753331428484" lon="15.44777364683505"><ele>9.0</ele><time>2026-05-01T14:46:07Z</time></trkpt><trkpt lat="43.94282582346659" lon="15.447837697142953"><ele>9.0</ele><time>2026-05-01T14:46:10Z</time></trkpt><trkpt lat="43.942889303562744" lon="15.447867495832588"><ele>9.0</ele><time>2026-05-01T14:46:21Z</time></trkpt></trkseg></trk></gpx>